<?xml version="1.0" encoding="UTF-8" standalone="no" ?>
<gpx xmlns="http://www.topografix.com/GPX/1/1" xmlns:xsi="http://www.w3.org/2001/XMLSchema-instance" xsi:schemaLocation="http://www.topografix.com/GPX/1/1 http://www.topografix.com/GPX/1/1/gpx.xsd" version="1.1" creator="VisuGPX - https://www.visugpx.com">
  <metadata>
    <name>Boucle Arraux/tuc de la courate/col de la Crouzette/Soulan</name>
    <desc><![CDATA[ Pistes forestière]]></desc>
  </metadata>
  <trk>
    <name><![CDATA[Trace 1779697421000]]></name>
    <trkseg>
      <trkpt lat="42.91364" lon="1.22927">
        <ele>694</ele>
        <time>2026-05-25T08:23:41.000Z</time>
      </trkpt>
      <trkpt lat="42.91364" lon="1.22927">
        <ele>694</ele>
        <time>2026-05-25T08:23:42.000Z</time>
      </trkpt>
      <trkpt lat="42.91364" lon="1.22927">
        <ele>694</ele>
        <time>2026-05-25T08:23:43.000Z</time>
      </trkpt>
      <trkpt lat="42.91364" lon="1.22928">
        <ele>693</ele>
        <time>2026-05-25T08:23:44.000Z</time>
      </trkpt>
      <trkpt lat="42.91364" lon="1.22928">
        <ele>693</ele>
        <time>2026-05-25T08:23:45.000Z</time>
      </trkpt>
      <trkpt lat="42.91365" lon="1.22929">
        <ele>692</ele>
        <time>2026-05-25T08:23:46.000Z</time>
      </trkpt>
      <trkpt lat="42.91366" lon="1.22928">
        <ele>692</ele>
        <time>2026-05-25T08:23:47.000Z</time>
      </trkpt>
      <trkpt lat="42.91367" lon="1.22927">
        <ele>692</ele>
        <time>2026-05-25T08:23:48.000Z</time>
      </trkpt>
      <trkpt lat="42.91369" lon="1.22926">
        <ele>692</ele>
        <time>2026-05-25T08:23:49.000Z</time>
      </trkpt>
      <trkpt lat="42.91369" lon="1.22927">
        <ele>692</ele>
        <time>2026-05-25T08:23:50.000Z</time>
      </trkpt>
      <trkpt lat="42.91369" lon="1.22926">
        <ele>692</ele>
        <time>2026-05-25T08:23:51.000Z</time>
      </trkpt>
      <trkpt lat="42.9137" lon="1.22927">
        <ele>691</ele>
        <time>2026-05-25T08:23:52.000Z</time>
      </trkpt>
      <trkpt lat="42.91371" lon="1.22928">
        <ele>690</ele>
        <time>2026-05-25T08:23:53.000Z</time>
      </trkpt>
      <trkpt lat="42.91372" lon="1.22929">
        <ele>689</ele>
        <time>2026-05-25T08:23:54.000Z</time>
      </trkpt>
      <trkpt lat="42.91372" lon="1.22929">
        <ele>688</ele>
        <time>2026-05-25T08:23:55.000Z</time>
      </trkpt>
      <trkpt lat="42.91366" lon="1.22902">
        <ele>709</ele>
        <time>2026-05-25T08:24:39.000Z</time>
      </trkpt>
      <trkpt lat="42.91366" lon="1.229">
        <ele>710</ele>
        <time>2026-05-25T08:24:40.000Z</time>
      </trkpt>
      <trkpt lat="42.91364" lon="1.22897">
        <ele>710</ele>
        <time>2026-05-25T08:24:42.000Z</time>
      </trkpt>
      <trkpt lat="42.91363" lon="1.22897">
        <ele>707</ele>
        <time>2026-05-25T08:24:44.000Z</time>
      </trkpt>
      <trkpt lat="42.91364" lon="1.22897">
        <ele>706</ele>
        <time>2026-05-25T08:24:45.000Z</time>
      </trkpt>
      <trkpt lat="42.91365" lon="1.22899">
        <ele>697</ele>
        <time>2026-05-25T08:24:48.000Z</time>
      </trkpt>
      <trkpt lat="42.91368" lon="1.22909">
        <ele>690</ele>
        <time>2026-05-25T08:24:49.000Z</time>
      </trkpt>
      <trkpt lat="42.91366" lon="1.22915">
        <ele>689</ele>
        <time>2026-05-25T08:24:50.000Z</time>
      </trkpt>
      <trkpt lat="42.91368" lon="1.2292">
        <ele>686</ele>
        <time>2026-05-25T08:24:51.000Z</time>
      </trkpt>
      <trkpt lat="42.91365" lon="1.22925">
        <ele>690</ele>
        <time>2026-05-25T08:24:52.000Z</time>
      </trkpt>
      <trkpt lat="42.91362" lon="1.22931">
        <ele>691</ele>
        <time>2026-05-25T08:25:14.000Z</time>
      </trkpt>
      <trkpt lat="42.91362" lon="1.22932">
        <ele>691</ele>
        <time>2026-05-25T08:25:15.000Z</time>
      </trkpt>
      <trkpt lat="42.91361" lon="1.22932">
        <ele>691</ele>
        <time>2026-05-25T08:25:16.000Z</time>
      </trkpt>
      <trkpt lat="42.91362" lon="1.22932">
        <ele>691</ele>
        <time>2026-05-25T08:25:17.000Z</time>
      </trkpt>
      <trkpt lat="42.91361" lon="1.22932">
        <ele>691</ele>
        <time>2026-05-25T08:25:18.000Z</time>
      </trkpt>
      <trkpt lat="42.91361" lon="1.22932">
        <ele>692</ele>
        <time>2026-05-25T08:25:19.000Z</time>
      </trkpt>
      <trkpt lat="42.91361" lon="1.2293">
        <ele>692</ele>
        <time>2026-05-25T08:25:20.000Z</time>
      </trkpt>
      <trkpt lat="42.91361" lon="1.2293">
        <ele>692</ele>
        <time>2026-05-25T08:25:21.000Z</time>
      </trkpt>
      <trkpt lat="42.91362" lon="1.22929">
        <ele>693</ele>
        <time>2026-05-25T08:25:22.000Z</time>
      </trkpt>
      <trkpt lat="42.91362" lon="1.2293">
        <ele>694</ele>
        <time>2026-05-25T08:25:23.000Z</time>
      </trkpt>
      <trkpt lat="42.91363" lon="1.22929">
        <ele>694</ele>
        <time>2026-05-25T08:25:24.000Z</time>
      </trkpt>
      <trkpt lat="42.91364" lon="1.22928">
        <ele>694</ele>
        <time>2026-05-25T08:25:25.000Z</time>
      </trkpt>
      <trkpt lat="42.91357" lon="1.22925">
        <ele>705</ele>
        <time>2026-05-25T08:29:14.000Z</time>
      </trkpt>
      <trkpt lat="42.91357" lon="1.22926">
        <ele>693</ele>
        <time>2026-05-25T08:29:15.000Z</time>
      </trkpt>
      <trkpt lat="42.91359" lon="1.22927">
        <ele>691</ele>
        <time>2026-05-25T08:29:16.000Z</time>
      </trkpt>
      <trkpt lat="42.91361" lon="1.22925">
        <ele>687</ele>
        <time>2026-05-25T08:29:17.000Z</time>
      </trkpt>
      <trkpt lat="42.9136" lon="1.22925">
        <ele>684</ele>
        <time>2026-05-25T08:29:18.000Z</time>
      </trkpt>
      <trkpt lat="42.9136" lon="1.22925">
        <ele>684</ele>
        <time>2026-05-25T08:29:19.000Z</time>
      </trkpt>
      <trkpt lat="42.9136" lon="1.22925">
        <ele>684</ele>
        <time>2026-05-25T08:29:20.000Z</time>
      </trkpt>
      <trkpt lat="42.9136" lon="1.22927">
        <ele>684</ele>
        <time>2026-05-25T08:29:21.000Z</time>
      </trkpt>
      <trkpt lat="42.9136" lon="1.22927">
        <ele>684</ele>
        <time>2026-05-25T08:29:22.000Z</time>
      </trkpt>
      <trkpt lat="42.9136" lon="1.22927">
        <ele>684</ele>
        <time>2026-05-25T08:29:23.000Z</time>
      </trkpt>
      <trkpt lat="42.9136" lon="1.22927">
        <ele>684</ele>
        <time>2026-05-25T08:29:24.000Z</time>
      </trkpt>
      <trkpt lat="42.9136" lon="1.22927">
        <ele>684</ele>
        <time>2026-05-25T08:29:25.000Z</time>
      </trkpt>
      <trkpt lat="42.91359" lon="1.22928">
        <ele>684</ele>
        <time>2026-05-25T08:29:26.000Z</time>
      </trkpt>
      <trkpt lat="42.91361" lon="1.22929">
        <ele>686</ele>
        <time>2026-05-25T08:29:27.000Z</time>
      </trkpt>
      <trkpt lat="42.91361" lon="1.22929">
        <ele>686</ele>
        <time>2026-05-25T08:29:28.000Z</time>
      </trkpt>
      <trkpt lat="42.91361" lon="1.22929">
        <ele>686</ele>
        <time>2026-05-25T08:29:29.000Z</time>
      </trkpt>
      <trkpt lat="42.9136" lon="1.22929">
        <ele>685</ele>
        <time>2026-05-25T08:29:30.000Z</time>
      </trkpt>
      <trkpt lat="42.91363" lon="1.22927">
        <ele>678</ele>
        <time>2026-05-25T08:34:58.000Z</time>
      </trkpt>
      <trkpt lat="42.91363" lon="1.22927">
        <ele>678</ele>
        <time>2026-05-25T08:34:59.000Z</time>
      </trkpt>
      <trkpt lat="42.91364" lon="1.22927">
        <ele>678</ele>
        <time>2026-05-25T08:35:00.000Z</time>
      </trkpt>
      <trkpt lat="42.91364" lon="1.22927">
        <ele>679</ele>
        <time>2026-05-25T08:35:01.000Z</time>
      </trkpt>
      <trkpt lat="42.91363" lon="1.22927">
        <ele>679</ele>
        <time>2026-05-25T08:35:02.000Z</time>
      </trkpt>
      <trkpt lat="42.91364" lon="1.22927">
        <ele>678</ele>
        <time>2026-05-25T08:35:03.000Z</time>
      </trkpt>
      <trkpt lat="42.91364" lon="1.22927">
        <ele>679</ele>
        <time>2026-05-25T08:35:04.000Z</time>
      </trkpt>
      <trkpt lat="42.91364" lon="1.22927">
        <ele>679</ele>
        <time>2026-05-25T08:35:05.000Z</time>
      </trkpt>
      <trkpt lat="42.91364" lon="1.22928">
        <ele>679</ele>
        <time>2026-05-25T08:35:06.000Z</time>
      </trkpt>
      <trkpt lat="42.91364" lon="1.22929">
        <ele>679</ele>
        <time>2026-05-25T08:35:07.000Z</time>
      </trkpt>
      <trkpt lat="42.91364" lon="1.22929">
        <ele>678</ele>
        <time>2026-05-25T08:35:08.000Z</time>
      </trkpt>
      <trkpt lat="42.91364" lon="1.2293">
        <ele>679</ele>
        <time>2026-05-25T08:35:09.000Z</time>
      </trkpt>
      <trkpt lat="42.91364" lon="1.2293">
        <ele>679</ele>
        <time>2026-05-25T08:35:10.000Z</time>
      </trkpt>
      <trkpt lat="42.91364" lon="1.22929">
        <ele>680</ele>
        <time>2026-05-25T08:35:11.000Z</time>
      </trkpt>
      <trkpt lat="42.91363" lon="1.22929">
        <ele>679</ele>
        <time>2026-05-25T08:35:12.000Z</time>
      </trkpt>
      <trkpt lat="42.91362" lon="1.22929">
        <ele>680</ele>
        <time>2026-05-25T08:35:13.000Z</time>
      </trkpt>
      <trkpt lat="42.91362" lon="1.22929">
        <ele>680</ele>
        <time>2026-05-25T08:35:14.000Z</time>
      </trkpt>
      <trkpt lat="42.91363" lon="1.22929">
        <ele>679</ele>
        <time>2026-05-25T08:35:15.000Z</time>
      </trkpt>
      <trkpt lat="42.91362" lon="1.22929">
        <ele>679</ele>
        <time>2026-05-25T08:35:16.000Z</time>
      </trkpt>
      <trkpt lat="42.91363" lon="1.22929">
        <ele>680</ele>
        <time>2026-05-25T08:35:17.000Z</time>
      </trkpt>
      <trkpt lat="42.91362" lon="1.22929">
        <ele>680</ele>
        <time>2026-05-25T08:35:18.000Z</time>
      </trkpt>
      <trkpt lat="42.91363" lon="1.22928">
        <ele>680</ele>
        <time>2026-05-25T08:35:19.000Z</time>
      </trkpt>
      <trkpt lat="42.91364" lon="1.22928">
        <ele>680</ele>
        <time>2026-05-25T08:35:20.000Z</time>
      </trkpt>
      <trkpt lat="42.91364" lon="1.22928">
        <ele>681</ele>
        <time>2026-05-25T08:35:21.000Z</time>
      </trkpt>
      <trkpt lat="42.91364" lon="1.22929">
        <ele>681</ele>
        <time>2026-05-25T08:35:22.000Z</time>
      </trkpt>
      <trkpt lat="42.91365" lon="1.22929">
        <ele>680</ele>
        <time>2026-05-25T08:35:23.000Z</time>
      </trkpt>
      <trkpt lat="42.91366" lon="1.2293">
        <ele>680</ele>
        <time>2026-05-25T08:35:24.000Z</time>
      </trkpt>
      <trkpt lat="42.91366" lon="1.22929">
        <ele>680</ele>
        <time>2026-05-25T08:35:25.000Z</time>
      </trkpt>
      <trkpt lat="42.91367" lon="1.22928">
        <ele>681</ele>
        <time>2026-05-25T08:35:26.000Z</time>
      </trkpt>
      <trkpt lat="42.91368" lon="1.22927">
        <ele>681</ele>
        <time>2026-05-25T08:35:27.000Z</time>
      </trkpt>
      <trkpt lat="42.9137" lon="1.22927">
        <ele>681</ele>
        <time>2026-05-25T08:35:28.000Z</time>
      </trkpt>
      <trkpt lat="42.91371" lon="1.22926">
        <ele>680</ele>
        <time>2026-05-25T08:35:29.000Z</time>
      </trkpt>
      <trkpt lat="42.91373" lon="1.22926">
        <ele>681</ele>
        <time>2026-05-25T08:35:30.000Z</time>
      </trkpt>
      <trkpt lat="42.91375" lon="1.22926">
        <ele>680</ele>
        <time>2026-05-25T08:35:31.000Z</time>
      </trkpt>
      <trkpt lat="42.91379" lon="1.22929">
        <ele>680</ele>
        <time>2026-05-25T08:35:32.000Z</time>
      </trkpt>
      <trkpt lat="42.91383" lon="1.22932">
        <ele>679</ele>
        <time>2026-05-25T08:35:33.000Z</time>
      </trkpt>
      <trkpt lat="42.91387" lon="1.22934">
        <ele>679</ele>
        <time>2026-05-25T08:35:34.000Z</time>
      </trkpt>
      <trkpt lat="42.9139" lon="1.22937">
        <ele>679</ele>
        <time>2026-05-25T08:35:35.000Z</time>
      </trkpt>
      <trkpt lat="42.91395" lon="1.2294">
        <ele>678</ele>
        <time>2026-05-25T08:35:36.000Z</time>
      </trkpt>
      <trkpt lat="42.914" lon="1.22943">
        <ele>679</ele>
        <time>2026-05-25T08:35:37.000Z</time>
      </trkpt>
      <trkpt lat="42.91405" lon="1.22944">
        <ele>679</ele>
        <time>2026-05-25T08:35:38.000Z</time>
      </trkpt>
      <trkpt lat="42.91409" lon="1.22946">
        <ele>679</ele>
        <time>2026-05-25T08:35:39.000Z</time>
      </trkpt>
      <trkpt lat="42.91411" lon="1.22945">
        <ele>680</ele>
        <time>2026-05-25T08:35:40.000Z</time>
      </trkpt>
      <trkpt lat="42.91414" lon="1.22941">
        <ele>679</ele>
        <time>2026-05-25T08:35:41.000Z</time>
      </trkpt>
      <trkpt lat="42.91414" lon="1.22937">
        <ele>680</ele>
        <time>2026-05-25T08:35:42.000Z</time>
      </trkpt>
      <trkpt lat="42.91415" lon="1.22934">
        <ele>680</ele>
        <time>2026-05-25T08:35:43.000Z</time>
      </trkpt>
      <trkpt lat="42.91415" lon="1.2293">
        <ele>680</ele>
        <time>2026-05-25T08:35:44.000Z</time>
      </trkpt>
      <trkpt lat="42.91415" lon="1.22926">
        <ele>680</ele>
        <time>2026-05-25T08:35:45.000Z</time>
      </trkpt>
      <trkpt lat="42.91416" lon="1.22922">
        <ele>680</ele>
        <time>2026-05-25T08:35:46.000Z</time>
      </trkpt>
      <trkpt lat="42.91417" lon="1.22918">
        <ele>681</ele>
        <time>2026-05-25T08:35:47.000Z</time>
      </trkpt>
      <trkpt lat="42.91417" lon="1.22914">
        <ele>681</ele>
        <time>2026-05-25T08:35:48.000Z</time>
      </trkpt>
      <trkpt lat="42.91418" lon="1.2291">
        <ele>681</ele>
        <time>2026-05-25T08:35:49.000Z</time>
      </trkpt>
      <trkpt lat="42.91418" lon="1.22905">
        <ele>681</ele>
        <time>2026-05-25T08:35:50.000Z</time>
      </trkpt>
      <trkpt lat="42.91419" lon="1.22902">
        <ele>681</ele>
        <time>2026-05-25T08:35:51.000Z</time>
      </trkpt>
      <trkpt lat="42.9142" lon="1.22898">
        <ele>681</ele>
        <time>2026-05-25T08:35:52.000Z</time>
      </trkpt>
      <trkpt lat="42.91422" lon="1.22895">
        <ele>681</ele>
        <time>2026-05-25T08:35:53.000Z</time>
      </trkpt>
      <trkpt lat="42.91424" lon="1.22892">
        <ele>681</ele>
        <time>2026-05-25T08:35:54.000Z</time>
      </trkpt>
      <trkpt lat="42.91426" lon="1.22888">
        <ele>680</ele>
        <time>2026-05-25T08:35:55.000Z</time>
      </trkpt>
      <trkpt lat="42.91429" lon="1.22885">
        <ele>680</ele>
        <time>2026-05-25T08:35:56.000Z</time>
      </trkpt>
      <trkpt lat="42.91432" lon="1.22881">
        <ele>681</ele>
        <time>2026-05-25T08:35:57.000Z</time>
      </trkpt>
      <trkpt lat="42.91437" lon="1.22878">
        <ele>681</ele>
        <time>2026-05-25T08:35:58.000Z</time>
      </trkpt>
      <trkpt lat="42.9144" lon="1.22874">
        <ele>682</ele>
        <time>2026-05-25T08:35:59.000Z</time>
      </trkpt>
      <trkpt lat="42.91443" lon="1.22871">
        <ele>683</ele>
        <time>2026-05-25T08:36:00.000Z</time>
      </trkpt>
      <trkpt lat="42.91446" lon="1.22867">
        <ele>684</ele>
        <time>2026-05-25T08:36:01.000Z</time>
      </trkpt>
      <trkpt lat="42.91448" lon="1.22863">
        <ele>685</ele>
        <time>2026-05-25T08:36:02.000Z</time>
      </trkpt>
      <trkpt lat="42.91451" lon="1.2286">
        <ele>685</ele>
        <time>2026-05-25T08:36:03.000Z</time>
      </trkpt>
      <trkpt lat="42.91453" lon="1.22856">
        <ele>685</ele>
        <time>2026-05-25T08:36:04.000Z</time>
      </trkpt>
      <trkpt lat="42.91457" lon="1.22852">
        <ele>685</ele>
        <time>2026-05-25T08:36:05.000Z</time>
      </trkpt>
      <trkpt lat="42.91461" lon="1.22848">
        <ele>686</ele>
        <time>2026-05-25T08:36:06.000Z</time>
      </trkpt>
      <trkpt lat="42.91465" lon="1.22843">
        <ele>687</ele>
        <time>2026-05-25T08:36:07.000Z</time>
      </trkpt>
      <trkpt lat="42.91468" lon="1.22839">
        <ele>688</ele>
        <time>2026-05-25T08:36:08.000Z</time>
      </trkpt>
      <trkpt lat="42.91471" lon="1.22834">
        <ele>687</ele>
        <time>2026-05-25T08:36:09.000Z</time>
      </trkpt>
      <trkpt lat="42.91473" lon="1.22829">
        <ele>688</ele>
        <time>2026-05-25T08:36:10.000Z</time>
      </trkpt>
      <trkpt lat="42.91475" lon="1.22823">
        <ele>687</ele>
        <time>2026-05-25T08:36:11.000Z</time>
      </trkpt>
      <trkpt lat="42.91477" lon="1.22818">
        <ele>687</ele>
        <time>2026-05-25T08:36:12.000Z</time>
      </trkpt>
      <trkpt lat="42.9148" lon="1.22813">
        <ele>688</ele>
        <time>2026-05-25T08:36:13.000Z</time>
      </trkpt>
      <trkpt lat="42.91481" lon="1.22808">
        <ele>688</ele>
        <time>2026-05-25T08:36:14.000Z</time>
      </trkpt>
      <trkpt lat="42.91483" lon="1.22803">
        <ele>688</ele>
        <time>2026-05-25T08:36:15.000Z</time>
      </trkpt>
      <trkpt lat="42.91484" lon="1.22798">
        <ele>688</ele>
        <time>2026-05-25T08:36:16.000Z</time>
      </trkpt>
      <trkpt lat="42.91484" lon="1.22791">
        <ele>689</ele>
        <time>2026-05-25T08:36:17.000Z</time>
      </trkpt>
      <trkpt lat="42.91485" lon="1.22786">
        <ele>689</ele>
        <time>2026-05-25T08:36:18.000Z</time>
      </trkpt>
      <trkpt lat="42.91485" lon="1.22782">
        <ele>689</ele>
        <time>2026-05-25T08:36:19.000Z</time>
      </trkpt>
      <trkpt lat="42.91485" lon="1.22777">
        <ele>689</ele>
        <time>2026-05-25T08:36:20.000Z</time>
      </trkpt>
      <trkpt lat="42.91484" lon="1.22772">
        <ele>689</ele>
        <time>2026-05-25T08:36:21.000Z</time>
      </trkpt>
      <trkpt lat="42.91483" lon="1.22768">
        <ele>689</ele>
        <time>2026-05-25T08:36:22.000Z</time>
      </trkpt>
      <trkpt lat="42.91482" lon="1.22764">
        <ele>689</ele>
        <time>2026-05-25T08:36:23.000Z</time>
      </trkpt>
      <trkpt lat="42.91481" lon="1.22761">
        <ele>689</ele>
        <time>2026-05-25T08:36:24.000Z</time>
      </trkpt>
      <trkpt lat="42.91479" lon="1.22757">
        <ele>689</ele>
        <time>2026-05-25T08:36:25.000Z</time>
      </trkpt>
      <trkpt lat="42.91478" lon="1.22753">
        <ele>690</ele>
        <time>2026-05-25T08:36:26.000Z</time>
      </trkpt>
      <trkpt lat="42.91475" lon="1.22749">
        <ele>689</ele>
        <time>2026-05-25T08:36:27.000Z</time>
      </trkpt>
      <trkpt lat="42.91473" lon="1.22745">
        <ele>689</ele>
        <time>2026-05-25T08:36:28.000Z</time>
      </trkpt>
      <trkpt lat="42.91471" lon="1.22741">
        <ele>689</ele>
        <time>2026-05-25T08:36:29.000Z</time>
      </trkpt>
      <trkpt lat="42.91469" lon="1.22736">
        <ele>689</ele>
        <time>2026-05-25T08:36:30.000Z</time>
      </trkpt>
      <trkpt lat="42.91467" lon="1.22731">
        <ele>689</ele>
        <time>2026-05-25T08:36:31.000Z</time>
      </trkpt>
      <trkpt lat="42.91466" lon="1.22727">
        <ele>689</ele>
        <time>2026-05-25T08:36:32.000Z</time>
      </trkpt>
      <trkpt lat="42.91464" lon="1.22722">
        <ele>689</ele>
        <time>2026-05-25T08:36:33.000Z</time>
      </trkpt>
      <trkpt lat="42.91461" lon="1.22717">
        <ele>690</ele>
        <time>2026-05-25T08:36:34.000Z</time>
      </trkpt>
      <trkpt lat="42.91459" lon="1.22712">
        <ele>690</ele>
        <time>2026-05-25T08:36:35.000Z</time>
      </trkpt>
      <trkpt lat="42.91456" lon="1.22707">
        <ele>690</ele>
        <time>2026-05-25T08:36:36.000Z</time>
      </trkpt>
      <trkpt lat="42.91454" lon="1.22702">
        <ele>690</ele>
        <time>2026-05-25T08:36:37.000Z</time>
      </trkpt>
      <trkpt lat="42.91452" lon="1.22698">
        <ele>690</ele>
        <time>2026-05-25T08:36:38.000Z</time>
      </trkpt>
      <trkpt lat="42.91449" lon="1.22693">
        <ele>691</ele>
        <time>2026-05-25T08:36:39.000Z</time>
      </trkpt>
      <trkpt lat="42.91447" lon="1.22687">
        <ele>691</ele>
        <time>2026-05-25T08:36:40.000Z</time>
      </trkpt>
      <trkpt lat="42.91444" lon="1.22682">
        <ele>691</ele>
        <time>2026-05-25T08:36:41.000Z</time>
      </trkpt>
      <trkpt lat="42.91442" lon="1.22677">
        <ele>691</ele>
        <time>2026-05-25T08:36:42.000Z</time>
      </trkpt>
      <trkpt lat="42.9144" lon="1.22671">
        <ele>691</ele>
        <time>2026-05-25T08:36:43.000Z</time>
      </trkpt>
      <trkpt lat="42.91438" lon="1.22666">
        <ele>691</ele>
        <time>2026-05-25T08:36:44.000Z</time>
      </trkpt>
      <trkpt lat="42.91436" lon="1.2266">
        <ele>691</ele>
        <time>2026-05-25T08:36:45.000Z</time>
      </trkpt>
      <trkpt lat="42.91434" lon="1.22655">
        <ele>691</ele>
        <time>2026-05-25T08:36:46.000Z</time>
      </trkpt>
      <trkpt lat="42.91432" lon="1.22649">
        <ele>691</ele>
        <time>2026-05-25T08:36:47.000Z</time>
      </trkpt>
      <trkpt lat="42.91429" lon="1.22644">
        <ele>692</ele>
        <time>2026-05-25T08:36:48.000Z</time>
      </trkpt>
      <trkpt lat="42.91427" lon="1.22639">
        <ele>692</ele>
        <time>2026-05-25T08:36:49.000Z</time>
      </trkpt>
      <trkpt lat="42.91425" lon="1.22634">
        <ele>693</ele>
        <time>2026-05-25T08:36:50.000Z</time>
      </trkpt>
      <trkpt lat="42.91422" lon="1.22629">
        <ele>693</ele>
        <time>2026-05-25T08:36:51.000Z</time>
      </trkpt>
      <trkpt lat="42.91421" lon="1.22624">
        <ele>693</ele>
        <time>2026-05-25T08:36:52.000Z</time>
      </trkpt>
      <trkpt lat="42.91419" lon="1.2262">
        <ele>693</ele>
        <time>2026-05-25T08:36:53.000Z</time>
      </trkpt>
      <trkpt lat="42.91416" lon="1.22616">
        <ele>693</ele>
        <time>2026-05-25T08:36:54.000Z</time>
      </trkpt>
      <trkpt lat="42.91414" lon="1.22611">
        <ele>693</ele>
        <time>2026-05-25T08:36:55.000Z</time>
      </trkpt>
      <trkpt lat="42.91412" lon="1.22607">
        <ele>694</ele>
        <time>2026-05-25T08:36:56.000Z</time>
      </trkpt>
      <trkpt lat="42.91409" lon="1.22603">
        <ele>694</ele>
        <time>2026-05-25T08:36:57.000Z</time>
      </trkpt>
      <trkpt lat="42.91406" lon="1.22599">
        <ele>694</ele>
        <time>2026-05-25T08:36:58.000Z</time>
      </trkpt>
      <trkpt lat="42.91403" lon="1.22595">
        <ele>694</ele>
        <time>2026-05-25T08:36:59.000Z</time>
      </trkpt>
      <trkpt lat="42.914" lon="1.22591">
        <ele>694</ele>
        <time>2026-05-25T08:37:00.000Z</time>
      </trkpt>
      <trkpt lat="42.91397" lon="1.22588">
        <ele>695</ele>
        <time>2026-05-25T08:37:01.000Z</time>
      </trkpt>
      <trkpt lat="42.91394" lon="1.22585">
        <ele>695</ele>
        <time>2026-05-25T08:37:02.000Z</time>
      </trkpt>
      <trkpt lat="42.9139" lon="1.22581">
        <ele>695</ele>
        <time>2026-05-25T08:37:03.000Z</time>
      </trkpt>
      <trkpt lat="42.91386" lon="1.22579">
        <ele>695</ele>
        <time>2026-05-25T08:37:04.000Z</time>
      </trkpt>
      <trkpt lat="42.91382" lon="1.22575">
        <ele>695</ele>
        <time>2026-05-25T08:37:05.000Z</time>
      </trkpt>
      <trkpt lat="42.91378" lon="1.22573">
        <ele>696</ele>
        <time>2026-05-25T08:37:06.000Z</time>
      </trkpt>
      <trkpt lat="42.91374" lon="1.2257">
        <ele>696</ele>
        <time>2026-05-25T08:37:07.000Z</time>
      </trkpt>
      <trkpt lat="42.9137" lon="1.22568">
        <ele>696</ele>
        <time>2026-05-25T08:37:08.000Z</time>
      </trkpt>
      <trkpt lat="42.91367" lon="1.22566">
        <ele>696</ele>
        <time>2026-05-25T08:37:09.000Z</time>
      </trkpt>
      <trkpt lat="42.91362" lon="1.22565">
        <ele>696</ele>
        <time>2026-05-25T08:37:10.000Z</time>
      </trkpt>
      <trkpt lat="42.91359" lon="1.22563">
        <ele>696</ele>
        <time>2026-05-25T08:37:11.000Z</time>
      </trkpt>
      <trkpt lat="42.91356" lon="1.22562">
        <ele>696</ele>
        <time>2026-05-25T08:37:12.000Z</time>
      </trkpt>
      <trkpt lat="42.91353" lon="1.2256">
        <ele>696</ele>
        <time>2026-05-25T08:37:13.000Z</time>
      </trkpt>
      <trkpt lat="42.91349" lon="1.22559">
        <ele>695</ele>
        <time>2026-05-25T08:37:14.000Z</time>
      </trkpt>
      <trkpt lat="42.91346" lon="1.22558">
        <ele>695</ele>
        <time>2026-05-25T08:37:15.000Z</time>
      </trkpt>
      <trkpt lat="42.91342" lon="1.22557">
        <ele>696</ele>
        <time>2026-05-25T08:37:16.000Z</time>
      </trkpt>
      <trkpt lat="42.91339" lon="1.22556">
        <ele>696</ele>
        <time>2026-05-25T08:37:17.000Z</time>
      </trkpt>
      <trkpt lat="42.91335" lon="1.22555">
        <ele>696</ele>
        <time>2026-05-25T08:37:18.000Z</time>
      </trkpt>
      <trkpt lat="42.91331" lon="1.22555">
        <ele>696</ele>
        <time>2026-05-25T08:37:19.000Z</time>
      </trkpt>
      <trkpt lat="42.91327" lon="1.22554">
        <ele>696</ele>
        <time>2026-05-25T08:37:20.000Z</time>
      </trkpt>
      <trkpt lat="42.91321" lon="1.22552">
        <ele>696</ele>
        <time>2026-05-25T08:37:21.000Z</time>
      </trkpt>
      <trkpt lat="42.91317" lon="1.22551">
        <ele>696</ele>
        <time>2026-05-25T08:37:22.000Z</time>
      </trkpt>
      <trkpt lat="42.91313" lon="1.2255">
        <ele>697</ele>
        <time>2026-05-25T08:37:23.000Z</time>
      </trkpt>
      <trkpt lat="42.91309" lon="1.22548">
        <ele>697</ele>
        <time>2026-05-25T08:37:24.000Z</time>
      </trkpt>
      <trkpt lat="42.91306" lon="1.22546">
        <ele>697</ele>
        <time>2026-05-25T08:37:25.000Z</time>
      </trkpt>
      <trkpt lat="42.91303" lon="1.22544">
        <ele>697</ele>
        <time>2026-05-25T08:37:26.000Z</time>
      </trkpt>
      <trkpt lat="42.91299" lon="1.22542">
        <ele>697</ele>
        <time>2026-05-25T08:37:27.000Z</time>
      </trkpt>
      <trkpt lat="42.91295" lon="1.2254">
        <ele>697</ele>
        <time>2026-05-25T08:37:28.000Z</time>
      </trkpt>
      <trkpt lat="42.91292" lon="1.22537">
        <ele>698</ele>
        <time>2026-05-25T08:37:29.000Z</time>
      </trkpt>
      <trkpt lat="42.91289" lon="1.22534">
        <ele>698</ele>
        <time>2026-05-25T08:37:30.000Z</time>
      </trkpt>
      <trkpt lat="42.91285" lon="1.22529">
        <ele>698</ele>
        <time>2026-05-25T08:37:31.000Z</time>
      </trkpt>
      <trkpt lat="42.91282" lon="1.22524">
        <ele>698</ele>
        <time>2026-05-25T08:37:32.000Z</time>
      </trkpt>
      <trkpt lat="42.9128" lon="1.22518">
        <ele>698</ele>
        <time>2026-05-25T08:37:33.000Z</time>
      </trkpt>
      <trkpt lat="42.91278" lon="1.22513">
        <ele>699</ele>
        <time>2026-05-25T08:37:34.000Z</time>
      </trkpt>
      <trkpt lat="42.91275" lon="1.22507">
        <ele>700</ele>
        <time>2026-05-25T08:37:35.000Z</time>
      </trkpt>
      <trkpt lat="42.91272" lon="1.22503">
        <ele>701</ele>
        <time>2026-05-25T08:37:36.000Z</time>
      </trkpt>
      <trkpt lat="42.91269" lon="1.225">
        <ele>701</ele>
        <time>2026-05-25T08:37:37.000Z</time>
      </trkpt>
      <trkpt lat="42.91267" lon="1.22496">
        <ele>701</ele>
        <time>2026-05-25T08:37:38.000Z</time>
      </trkpt>
      <trkpt lat="42.91265" lon="1.22493">
        <ele>701</ele>
        <time>2026-05-25T08:37:39.000Z</time>
      </trkpt>
      <trkpt lat="42.91262" lon="1.2249">
        <ele>701</ele>
        <time>2026-05-25T08:37:40.000Z</time>
      </trkpt>
      <trkpt lat="42.9126" lon="1.22487">
        <ele>702</ele>
        <time>2026-05-25T08:37:41.000Z</time>
      </trkpt>
      <trkpt lat="42.91257" lon="1.22484">
        <ele>702</ele>
        <time>2026-05-25T08:37:42.000Z</time>
      </trkpt>
      <trkpt lat="42.91255" lon="1.2248">
        <ele>702</ele>
        <time>2026-05-25T08:37:43.000Z</time>
      </trkpt>
      <trkpt lat="42.91251" lon="1.22477">
        <ele>702</ele>
        <time>2026-05-25T08:37:44.000Z</time>
      </trkpt>
      <trkpt lat="42.91247" lon="1.22474">
        <ele>702</ele>
        <time>2026-05-25T08:37:45.000Z</time>
      </trkpt>
      <trkpt lat="42.91242" lon="1.22472">
        <ele>702</ele>
        <time>2026-05-25T08:37:46.000Z</time>
      </trkpt>
      <trkpt lat="42.91237" lon="1.22472">
        <ele>702</ele>
        <time>2026-05-25T08:37:47.000Z</time>
      </trkpt>
      <trkpt lat="42.91232" lon="1.22471">
        <ele>702</ele>
        <time>2026-05-25T08:37:48.000Z</time>
      </trkpt>
      <trkpt lat="42.91228" lon="1.22471">
        <ele>702</ele>
        <time>2026-05-25T08:37:49.000Z</time>
      </trkpt>
      <trkpt lat="42.91223" lon="1.22472">
        <ele>703</ele>
        <time>2026-05-25T08:37:50.000Z</time>
      </trkpt>
      <trkpt lat="42.91219" lon="1.22471">
        <ele>703</ele>
        <time>2026-05-25T08:37:51.000Z</time>
      </trkpt>
      <trkpt lat="42.91215" lon="1.22471">
        <ele>703</ele>
        <time>2026-05-25T08:37:52.000Z</time>
      </trkpt>
      <trkpt lat="42.91211" lon="1.22472">
        <ele>703</ele>
        <time>2026-05-25T08:37:53.000Z</time>
      </trkpt>
      <trkpt lat="42.91207" lon="1.22472">
        <ele>703</ele>
        <time>2026-05-25T08:37:54.000Z</time>
      </trkpt>
      <trkpt lat="42.91203" lon="1.22473">
        <ele>703</ele>
        <time>2026-05-25T08:37:55.000Z</time>
      </trkpt>
      <trkpt lat="42.91199" lon="1.22474">
        <ele>703</ele>
        <time>2026-05-25T08:37:56.000Z</time>
      </trkpt>
      <trkpt lat="42.91196" lon="1.22475">
        <ele>703</ele>
        <time>2026-05-25T08:37:57.000Z</time>
      </trkpt>
      <trkpt lat="42.91192" lon="1.22476">
        <ele>703</ele>
        <time>2026-05-25T08:37:58.000Z</time>
      </trkpt>
      <trkpt lat="42.91188" lon="1.22477">
        <ele>704</ele>
        <time>2026-05-25T08:37:59.000Z</time>
      </trkpt>
      <trkpt lat="42.91185" lon="1.22478">
        <ele>704</ele>
        <time>2026-05-25T08:38:00.000Z</time>
      </trkpt>
      <trkpt lat="42.91181" lon="1.22479">
        <ele>704</ele>
        <time>2026-05-25T08:38:01.000Z</time>
      </trkpt>
      <trkpt lat="42.91176" lon="1.22479">
        <ele>704</ele>
        <time>2026-05-25T08:38:02.000Z</time>
      </trkpt>
      <trkpt lat="42.91172" lon="1.22478">
        <ele>704</ele>
        <time>2026-05-25T08:38:03.000Z</time>
      </trkpt>
      <trkpt lat="42.91167" lon="1.22479">
        <ele>704</ele>
        <time>2026-05-25T08:38:04.000Z</time>
      </trkpt>
      <trkpt lat="42.91163" lon="1.22479">
        <ele>705</ele>
        <time>2026-05-25T08:38:05.000Z</time>
      </trkpt>
      <trkpt lat="42.91158" lon="1.22479">
        <ele>704</ele>
        <time>2026-05-25T08:38:06.000Z</time>
      </trkpt>
      <trkpt lat="42.91155" lon="1.22481">
        <ele>705</ele>
        <time>2026-05-25T08:38:07.000Z</time>
      </trkpt>
      <trkpt lat="42.91151" lon="1.22482">
        <ele>705</ele>
        <time>2026-05-25T08:38:08.000Z</time>
      </trkpt>
      <trkpt lat="42.91147" lon="1.22481">
        <ele>705</ele>
        <time>2026-05-25T08:38:09.000Z</time>
      </trkpt>
      <trkpt lat="42.91144" lon="1.22481">
        <ele>705</ele>
        <time>2026-05-25T08:38:10.000Z</time>
      </trkpt>
      <trkpt lat="42.91141" lon="1.22481">
        <ele>706</ele>
        <time>2026-05-25T08:38:11.000Z</time>
      </trkpt>
      <trkpt lat="42.91137" lon="1.22481">
        <ele>706</ele>
        <time>2026-05-25T08:38:12.000Z</time>
      </trkpt>
      <trkpt lat="42.91133" lon="1.2248">
        <ele>707</ele>
        <time>2026-05-25T08:38:13.000Z</time>
      </trkpt>
      <trkpt lat="42.91129" lon="1.22479">
        <ele>707</ele>
        <time>2026-05-25T08:38:14.000Z</time>
      </trkpt>
      <trkpt lat="42.91125" lon="1.22478">
        <ele>708</ele>
        <time>2026-05-25T08:38:15.000Z</time>
      </trkpt>
      <trkpt lat="42.91121" lon="1.22477">
        <ele>708</ele>
        <time>2026-05-25T08:38:16.000Z</time>
      </trkpt>
      <trkpt lat="42.91118" lon="1.22476">
        <ele>708</ele>
        <time>2026-05-25T08:38:17.000Z</time>
      </trkpt>
      <trkpt lat="42.91115" lon="1.22475">
        <ele>708</ele>
        <time>2026-05-25T08:38:18.000Z</time>
      </trkpt>
      <trkpt lat="42.91112" lon="1.22473">
        <ele>709</ele>
        <time>2026-05-25T08:38:19.000Z</time>
      </trkpt>
      <trkpt lat="42.9111" lon="1.22471">
        <ele>709</ele>
        <time>2026-05-25T08:38:20.000Z</time>
      </trkpt>
      <trkpt lat="42.91108" lon="1.22468">
        <ele>709</ele>
        <time>2026-05-25T08:38:21.000Z</time>
      </trkpt>
      <trkpt lat="42.91105" lon="1.22466">
        <ele>710</ele>
        <time>2026-05-25T08:38:22.000Z</time>
      </trkpt>
      <trkpt lat="42.91103" lon="1.22463">
        <ele>710</ele>
        <time>2026-05-25T08:38:23.000Z</time>
      </trkpt>
      <trkpt lat="42.91103" lon="1.2246">
        <ele>710</ele>
        <time>2026-05-25T08:38:24.000Z</time>
      </trkpt>
      <trkpt lat="42.91104" lon="1.22456">
        <ele>710</ele>
        <time>2026-05-25T08:38:25.000Z</time>
      </trkpt>
      <trkpt lat="42.91106" lon="1.22453">
        <ele>711</ele>
        <time>2026-05-25T08:38:26.000Z</time>
      </trkpt>
      <trkpt lat="42.91108" lon="1.22449">
        <ele>711</ele>
        <time>2026-05-25T08:38:27.000Z</time>
      </trkpt>
      <trkpt lat="42.91109" lon="1.22447">
        <ele>711</ele>
        <time>2026-05-25T08:38:28.000Z</time>
      </trkpt>
      <trkpt lat="42.91111" lon="1.22444">
        <ele>712</ele>
        <time>2026-05-25T08:38:29.000Z</time>
      </trkpt>
      <trkpt lat="42.91113" lon="1.22441">
        <ele>712</ele>
        <time>2026-05-25T08:38:30.000Z</time>
      </trkpt>
      <trkpt lat="42.91114" lon="1.22438">
        <ele>712</ele>
        <time>2026-05-25T08:38:31.000Z</time>
      </trkpt>
      <trkpt lat="42.91116" lon="1.22435">
        <ele>712</ele>
        <time>2026-05-25T08:38:32.000Z</time>
      </trkpt>
      <trkpt lat="42.91118" lon="1.22432">
        <ele>713</ele>
        <time>2026-05-25T08:38:33.000Z</time>
      </trkpt>
      <trkpt lat="42.91119" lon="1.2243">
        <ele>713</ele>
        <time>2026-05-25T08:38:34.000Z</time>
      </trkpt>
      <trkpt lat="42.9112" lon="1.22427">
        <ele>713</ele>
        <time>2026-05-25T08:38:35.000Z</time>
      </trkpt>
      <trkpt lat="42.91122" lon="1.22424">
        <ele>713</ele>
        <time>2026-05-25T08:38:36.000Z</time>
      </trkpt>
      <trkpt lat="42.91123" lon="1.22421">
        <ele>713</ele>
        <time>2026-05-25T08:38:37.000Z</time>
      </trkpt>
      <trkpt lat="42.91123" lon="1.22418">
        <ele>713</ele>
        <time>2026-05-25T08:38:38.000Z</time>
      </trkpt>
      <trkpt lat="42.91124" lon="1.22414">
        <ele>713</ele>
        <time>2026-05-25T08:38:39.000Z</time>
      </trkpt>
      <trkpt lat="42.91125" lon="1.22411">
        <ele>713</ele>
        <time>2026-05-25T08:38:40.000Z</time>
      </trkpt>
      <trkpt lat="42.91125" lon="1.22407">
        <ele>714</ele>
        <time>2026-05-25T08:38:41.000Z</time>
      </trkpt>
      <trkpt lat="42.91125" lon="1.22403">
        <ele>714</ele>
        <time>2026-05-25T08:38:42.000Z</time>
      </trkpt>
      <trkpt lat="42.91125" lon="1.22399">
        <ele>714</ele>
        <time>2026-05-25T08:38:43.000Z</time>
      </trkpt>
      <trkpt lat="42.91126" lon="1.22396">
        <ele>714</ele>
        <time>2026-05-25T08:38:44.000Z</time>
      </trkpt>
      <trkpt lat="42.91127" lon="1.22394">
        <ele>715</ele>
        <time>2026-05-25T08:38:45.000Z</time>
      </trkpt>
      <trkpt lat="42.91127" lon="1.22391">
        <ele>715</ele>
        <time>2026-05-25T08:38:46.000Z</time>
      </trkpt>
      <trkpt lat="42.91127" lon="1.22388">
        <ele>714</ele>
        <time>2026-05-25T08:38:47.000Z</time>
      </trkpt>
      <trkpt lat="42.91129" lon="1.22384">
        <ele>715</ele>
        <time>2026-05-25T08:38:48.000Z</time>
      </trkpt>
      <trkpt lat="42.9113" lon="1.22381">
        <ele>715</ele>
        <time>2026-05-25T08:38:49.000Z</time>
      </trkpt>
      <trkpt lat="42.9113" lon="1.22378">
        <ele>716</ele>
        <time>2026-05-25T08:38:50.000Z</time>
      </trkpt>
      <trkpt lat="42.91131" lon="1.22374">
        <ele>716</ele>
        <time>2026-05-25T08:38:51.000Z</time>
      </trkpt>
      <trkpt lat="42.91131" lon="1.2237">
        <ele>716</ele>
        <time>2026-05-25T08:38:52.000Z</time>
      </trkpt>
      <trkpt lat="42.91131" lon="1.22366">
        <ele>716</ele>
        <time>2026-05-25T08:38:53.000Z</time>
      </trkpt>
      <trkpt lat="42.9113" lon="1.22362">
        <ele>717</ele>
        <time>2026-05-25T08:38:54.000Z</time>
      </trkpt>
      <trkpt lat="42.9113" lon="1.22358">
        <ele>717</ele>
        <time>2026-05-25T08:38:55.000Z</time>
      </trkpt>
      <trkpt lat="42.9113" lon="1.22353">
        <ele>717</ele>
        <time>2026-05-25T08:38:56.000Z</time>
      </trkpt>
      <trkpt lat="42.9113" lon="1.2235">
        <ele>718</ele>
        <time>2026-05-25T08:38:57.000Z</time>
      </trkpt>
      <trkpt lat="42.9113" lon="1.22346">
        <ele>718</ele>
        <time>2026-05-25T08:38:58.000Z</time>
      </trkpt>
      <trkpt lat="42.91129" lon="1.22343">
        <ele>718</ele>
        <time>2026-05-25T08:38:59.000Z</time>
      </trkpt>
      <trkpt lat="42.91127" lon="1.22341">
        <ele>718</ele>
        <time>2026-05-25T08:39:00.000Z</time>
      </trkpt>
      <trkpt lat="42.91125" lon="1.2234">
        <ele>718</ele>
        <time>2026-05-25T08:39:01.000Z</time>
      </trkpt>
      <trkpt lat="42.91124" lon="1.22338">
        <ele>719</ele>
        <time>2026-05-25T08:39:02.000Z</time>
      </trkpt>
      <trkpt lat="42.91122" lon="1.22337">
        <ele>719</ele>
        <time>2026-05-25T08:39:03.000Z</time>
      </trkpt>
      <trkpt lat="42.91121" lon="1.22336">
        <ele>719</ele>
        <time>2026-05-25T08:39:04.000Z</time>
      </trkpt>
      <trkpt lat="42.91119" lon="1.22335">
        <ele>720</ele>
        <time>2026-05-25T08:39:05.000Z</time>
      </trkpt>
      <trkpt lat="42.91118" lon="1.22334">
        <ele>720</ele>
        <time>2026-05-25T08:39:06.000Z</time>
      </trkpt>
      <trkpt lat="42.91117" lon="1.22333">
        <ele>720</ele>
        <time>2026-05-25T08:39:07.000Z</time>
      </trkpt>
      <trkpt lat="42.91115" lon="1.22332">
        <ele>720</ele>
        <time>2026-05-25T08:39:08.000Z</time>
      </trkpt>
      <trkpt lat="42.91113" lon="1.22331">
        <ele>720</ele>
        <time>2026-05-25T08:39:09.000Z</time>
      </trkpt>
      <trkpt lat="42.91111" lon="1.2233">
        <ele>721</ele>
        <time>2026-05-25T08:39:10.000Z</time>
      </trkpt>
      <trkpt lat="42.9111" lon="1.22329">
        <ele>721</ele>
        <time>2026-05-25T08:39:11.000Z</time>
      </trkpt>
      <trkpt lat="42.91109" lon="1.22329">
        <ele>721</ele>
        <time>2026-05-25T08:39:12.000Z</time>
      </trkpt>
      <trkpt lat="42.91107" lon="1.22328">
        <ele>721</ele>
        <time>2026-05-25T08:39:13.000Z</time>
      </trkpt>
      <trkpt lat="42.91106" lon="1.22327">
        <ele>721</ele>
        <time>2026-05-25T08:39:14.000Z</time>
      </trkpt>
      <trkpt lat="42.91104" lon="1.22326">
        <ele>721</ele>
        <time>2026-05-25T08:39:15.000Z</time>
      </trkpt>
      <trkpt lat="42.91103" lon="1.22326">
        <ele>721</ele>
        <time>2026-05-25T08:39:16.000Z</time>
      </trkpt>
      <trkpt lat="42.91101" lon="1.22325">
        <ele>721</ele>
        <time>2026-05-25T08:39:17.000Z</time>
      </trkpt>
      <trkpt lat="42.911" lon="1.22324">
        <ele>721</ele>
        <time>2026-05-25T08:39:18.000Z</time>
      </trkpt>
      <trkpt lat="42.91098" lon="1.22323">
        <ele>721</ele>
        <time>2026-05-25T08:39:19.000Z</time>
      </trkpt>
      <trkpt lat="42.91096" lon="1.22321">
        <ele>722</ele>
        <time>2026-05-25T08:39:20.000Z</time>
      </trkpt>
      <trkpt lat="42.91094" lon="1.2232">
        <ele>722</ele>
        <time>2026-05-25T08:39:21.000Z</time>
      </trkpt>
      <trkpt lat="42.91092" lon="1.2232">
        <ele>722</ele>
        <time>2026-05-25T08:39:22.000Z</time>
      </trkpt>
      <trkpt lat="42.91091" lon="1.22319">
        <ele>722</ele>
        <time>2026-05-25T08:39:23.000Z</time>
      </trkpt>
      <trkpt lat="42.9109" lon="1.22319">
        <ele>722</ele>
        <time>2026-05-25T08:39:24.000Z</time>
      </trkpt>
      <trkpt lat="42.91088" lon="1.22317">
        <ele>722</ele>
        <time>2026-05-25T08:39:25.000Z</time>
      </trkpt>
      <trkpt lat="42.91086" lon="1.22316">
        <ele>722</ele>
        <time>2026-05-25T08:39:26.000Z</time>
      </trkpt>
      <trkpt lat="42.91084" lon="1.22314">
        <ele>722</ele>
        <time>2026-05-25T08:39:27.000Z</time>
      </trkpt>
      <trkpt lat="42.91083" lon="1.22313">
        <ele>723</ele>
        <time>2026-05-25T08:39:28.000Z</time>
      </trkpt>
      <trkpt lat="42.91081" lon="1.22312">
        <ele>723</ele>
        <time>2026-05-25T08:39:29.000Z</time>
      </trkpt>
      <trkpt lat="42.9108" lon="1.2231">
        <ele>723</ele>
        <time>2026-05-25T08:39:30.000Z</time>
      </trkpt>
      <trkpt lat="42.91078" lon="1.22309">
        <ele>724</ele>
        <time>2026-05-25T08:39:31.000Z</time>
      </trkpt>
      <trkpt lat="42.91077" lon="1.22307">
        <ele>724</ele>
        <time>2026-05-25T08:39:32.000Z</time>
      </trkpt>
      <trkpt lat="42.91075" lon="1.22305">
        <ele>724</ele>
        <time>2026-05-25T08:39:33.000Z</time>
      </trkpt>
      <trkpt lat="42.91073" lon="1.22303">
        <ele>725</ele>
        <time>2026-05-25T08:39:34.000Z</time>
      </trkpt>
      <trkpt lat="42.91072" lon="1.22302">
        <ele>725</ele>
        <time>2026-05-25T08:39:35.000Z</time>
      </trkpt>
      <trkpt lat="42.9107" lon="1.22301">
        <ele>725</ele>
        <time>2026-05-25T08:39:36.000Z</time>
      </trkpt>
      <trkpt lat="42.91069" lon="1.22299">
        <ele>725</ele>
        <time>2026-05-25T08:39:37.000Z</time>
      </trkpt>
      <trkpt lat="42.91068" lon="1.22297">
        <ele>726</ele>
        <time>2026-05-25T08:39:38.000Z</time>
      </trkpt>
      <trkpt lat="42.91067" lon="1.22295">
        <ele>726</ele>
        <time>2026-05-25T08:39:39.000Z</time>
      </trkpt>
      <trkpt lat="42.91066" lon="1.22294">
        <ele>726</ele>
        <time>2026-05-25T08:39:40.000Z</time>
      </trkpt>
      <trkpt lat="42.91065" lon="1.22292">
        <ele>726</ele>
        <time>2026-05-25T08:39:41.000Z</time>
      </trkpt>
      <trkpt lat="42.91064" lon="1.22291">
        <ele>726</ele>
        <time>2026-05-25T08:39:42.000Z</time>
      </trkpt>
      <trkpt lat="42.91062" lon="1.22289">
        <ele>726</ele>
        <time>2026-05-25T08:39:43.000Z</time>
      </trkpt>
      <trkpt lat="42.91062" lon="1.22287">
        <ele>727</ele>
        <time>2026-05-25T08:39:44.000Z</time>
      </trkpt>
      <trkpt lat="42.91061" lon="1.22285">
        <ele>728</ele>
        <time>2026-05-25T08:39:45.000Z</time>
      </trkpt>
      <trkpt lat="42.91061" lon="1.22282">
        <ele>729</ele>
        <time>2026-05-25T08:39:46.000Z</time>
      </trkpt>
      <trkpt lat="42.91061" lon="1.2228">
        <ele>729</ele>
        <time>2026-05-25T08:39:47.000Z</time>
      </trkpt>
      <trkpt lat="42.91061" lon="1.22278">
        <ele>730</ele>
        <time>2026-05-25T08:39:48.000Z</time>
      </trkpt>
      <trkpt lat="42.91061" lon="1.22277">
        <ele>730</ele>
        <time>2026-05-25T08:39:49.000Z</time>
      </trkpt>
      <trkpt lat="42.91061" lon="1.22275">
        <ele>730</ele>
        <time>2026-05-25T08:39:50.000Z</time>
      </trkpt>
      <trkpt lat="42.91061" lon="1.22273">
        <ele>731</ele>
        <time>2026-05-25T08:39:51.000Z</time>
      </trkpt>
      <trkpt lat="42.91061" lon="1.2227">
        <ele>731</ele>
        <time>2026-05-25T08:39:52.000Z</time>
      </trkpt>
      <trkpt lat="42.91063" lon="1.22269">
        <ele>732</ele>
        <time>2026-05-25T08:39:53.000Z</time>
      </trkpt>
      <trkpt lat="42.91063" lon="1.22267">
        <ele>732</ele>
        <time>2026-05-25T08:39:54.000Z</time>
      </trkpt>
      <trkpt lat="42.91063" lon="1.22265">
        <ele>732</ele>
        <time>2026-05-25T08:39:55.000Z</time>
      </trkpt>
      <trkpt lat="42.91064" lon="1.22263">
        <ele>732</ele>
        <time>2026-05-25T08:39:56.000Z</time>
      </trkpt>
      <trkpt lat="42.91064" lon="1.22261">
        <ele>732</ele>
        <time>2026-05-25T08:39:57.000Z</time>
      </trkpt>
      <trkpt lat="42.91064" lon="1.22259">
        <ele>733</ele>
        <time>2026-05-25T08:39:58.000Z</time>
      </trkpt>
      <trkpt lat="42.91065" lon="1.22257">
        <ele>733</ele>
        <time>2026-05-25T08:39:59.000Z</time>
      </trkpt>
      <trkpt lat="42.91065" lon="1.22254">
        <ele>734</ele>
        <time>2026-05-25T08:40:00.000Z</time>
      </trkpt>
      <trkpt lat="42.91066" lon="1.22251">
        <ele>734</ele>
        <time>2026-05-25T08:40:01.000Z</time>
      </trkpt>
      <trkpt lat="42.91067" lon="1.22249">
        <ele>734</ele>
        <time>2026-05-25T08:40:02.000Z</time>
      </trkpt>
      <trkpt lat="42.91068" lon="1.22246">
        <ele>736</ele>
        <time>2026-05-25T08:40:03.000Z</time>
      </trkpt>
      <trkpt lat="42.91069" lon="1.22243">
        <ele>736</ele>
        <time>2026-05-25T08:40:04.000Z</time>
      </trkpt>
      <trkpt lat="42.9107" lon="1.2224">
        <ele>736</ele>
        <time>2026-05-25T08:40:05.000Z</time>
      </trkpt>
      <trkpt lat="42.9107" lon="1.22235">
        <ele>737</ele>
        <time>2026-05-25T08:40:06.000Z</time>
      </trkpt>
      <trkpt lat="42.91071" lon="1.22233">
        <ele>737</ele>
        <time>2026-05-25T08:40:07.000Z</time>
      </trkpt>
      <trkpt lat="42.91073" lon="1.22229">
        <ele>738</ele>
        <time>2026-05-25T08:40:08.000Z</time>
      </trkpt>
      <trkpt lat="42.91074" lon="1.22226">
        <ele>739</ele>
        <time>2026-05-25T08:40:09.000Z</time>
      </trkpt>
      <trkpt lat="42.91075" lon="1.22222">
        <ele>739</ele>
        <time>2026-05-25T08:40:10.000Z</time>
      </trkpt>
      <trkpt lat="42.91076" lon="1.22218">
        <ele>740</ele>
        <time>2026-05-25T08:40:11.000Z</time>
      </trkpt>
      <trkpt lat="42.91078" lon="1.22216">
        <ele>741</ele>
        <time>2026-05-25T08:40:12.000Z</time>
      </trkpt>
      <trkpt lat="42.91079" lon="1.22212">
        <ele>742</ele>
        <time>2026-05-25T08:40:13.000Z</time>
      </trkpt>
      <trkpt lat="42.9108" lon="1.22209">
        <ele>742</ele>
        <time>2026-05-25T08:40:14.000Z</time>
      </trkpt>
      <trkpt lat="42.91081" lon="1.22205">
        <ele>742</ele>
        <time>2026-05-25T08:40:15.000Z</time>
      </trkpt>
      <trkpt lat="42.91083" lon="1.22201">
        <ele>743</ele>
        <time>2026-05-25T08:40:16.000Z</time>
      </trkpt>
      <trkpt lat="42.91084" lon="1.22199">
        <ele>743</ele>
        <time>2026-05-25T08:40:17.000Z</time>
      </trkpt>
      <trkpt lat="42.91085" lon="1.22197">
        <ele>743</ele>
        <time>2026-05-25T08:40:18.000Z</time>
      </trkpt>
      <trkpt lat="42.91087" lon="1.22194">
        <ele>744</ele>
        <time>2026-05-25T08:40:19.000Z</time>
      </trkpt>
      <trkpt lat="42.91088" lon="1.22192">
        <ele>744</ele>
        <time>2026-05-25T08:40:20.000Z</time>
      </trkpt>
      <trkpt lat="42.91089" lon="1.2219">
        <ele>745</ele>
        <time>2026-05-25T08:40:21.000Z</time>
      </trkpt>
      <trkpt lat="42.9109" lon="1.22188">
        <ele>745</ele>
        <time>2026-05-25T08:40:22.000Z</time>
      </trkpt>
      <trkpt lat="42.91091" lon="1.22186">
        <ele>745</ele>
        <time>2026-05-25T08:40:23.000Z</time>
      </trkpt>
      <trkpt lat="42.91092" lon="1.22184">
        <ele>745</ele>
        <time>2026-05-25T08:40:24.000Z</time>
      </trkpt>
      <trkpt lat="42.91093" lon="1.22182">
        <ele>745</ele>
        <time>2026-05-25T08:40:25.000Z</time>
      </trkpt>
      <trkpt lat="42.91095" lon="1.22179">
        <ele>746</ele>
        <time>2026-05-25T08:40:26.000Z</time>
      </trkpt>
      <trkpt lat="42.91097" lon="1.22175">
        <ele>746</ele>
        <time>2026-05-25T08:40:27.000Z</time>
      </trkpt>
      <trkpt lat="42.91099" lon="1.22171">
        <ele>746</ele>
        <time>2026-05-25T08:40:28.000Z</time>
      </trkpt>
      <trkpt lat="42.91101" lon="1.22168">
        <ele>745</ele>
        <time>2026-05-25T08:40:29.000Z</time>
      </trkpt>
      <trkpt lat="42.91103" lon="1.22164">
        <ele>745</ele>
        <time>2026-05-25T08:40:30.000Z</time>
      </trkpt>
      <trkpt lat="42.91104" lon="1.22161">
        <ele>744</ele>
        <time>2026-05-25T08:40:31.000Z</time>
      </trkpt>
      <trkpt lat="42.91106" lon="1.22157">
        <ele>744</ele>
        <time>2026-05-25T08:40:32.000Z</time>
      </trkpt>
      <trkpt lat="42.91109" lon="1.22153">
        <ele>743</ele>
        <time>2026-05-25T08:40:33.000Z</time>
      </trkpt>
      <trkpt lat="42.91111" lon="1.22149">
        <ele>743</ele>
        <time>2026-05-25T08:40:34.000Z</time>
      </trkpt>
      <trkpt lat="42.91112" lon="1.22145">
        <ele>744</ele>
        <time>2026-05-25T08:40:35.000Z</time>
      </trkpt>
      <trkpt lat="42.91114" lon="1.22141">
        <ele>745</ele>
        <time>2026-05-25T08:40:36.000Z</time>
      </trkpt>
      <trkpt lat="42.91116" lon="1.22137">
        <ele>745</ele>
        <time>2026-05-25T08:40:37.000Z</time>
      </trkpt>
      <trkpt lat="42.91117" lon="1.22134">
        <ele>745</ele>
        <time>2026-05-25T08:40:38.000Z</time>
      </trkpt>
      <trkpt lat="42.91119" lon="1.22131">
        <ele>744</ele>
        <time>2026-05-25T08:40:39.000Z</time>
      </trkpt>
      <trkpt lat="42.9112" lon="1.22127">
        <ele>744</ele>
        <time>2026-05-25T08:40:40.000Z</time>
      </trkpt>
      <trkpt lat="42.91122" lon="1.22125">
        <ele>745</ele>
        <time>2026-05-25T08:40:41.000Z</time>
      </trkpt>
      <trkpt lat="42.91123" lon="1.22122">
        <ele>745</ele>
        <time>2026-05-25T08:40:42.000Z</time>
      </trkpt>
      <trkpt lat="42.91125" lon="1.22119">
        <ele>745</ele>
        <time>2026-05-25T08:40:43.000Z</time>
      </trkpt>
      <trkpt lat="42.91126" lon="1.22116">
        <ele>744</ele>
        <time>2026-05-25T08:40:44.000Z</time>
      </trkpt>
      <trkpt lat="42.91128" lon="1.22113">
        <ele>744</ele>
        <time>2026-05-25T08:40:45.000Z</time>
      </trkpt>
      <trkpt lat="42.9113" lon="1.22108">
        <ele>743</ele>
        <time>2026-05-25T08:40:46.000Z</time>
      </trkpt>
      <trkpt lat="42.91131" lon="1.22105">
        <ele>743</ele>
        <time>2026-05-25T08:40:47.000Z</time>
      </trkpt>
      <trkpt lat="42.91133" lon="1.22102">
        <ele>743</ele>
        <time>2026-05-25T08:40:48.000Z</time>
      </trkpt>
      <trkpt lat="42.91135" lon="1.22099">
        <ele>742</ele>
        <time>2026-05-25T08:40:49.000Z</time>
      </trkpt>
      <trkpt lat="42.91136" lon="1.22096">
        <ele>743</ele>
        <time>2026-05-25T08:40:50.000Z</time>
      </trkpt>
      <trkpt lat="42.91138" lon="1.22093">
        <ele>743</ele>
        <time>2026-05-25T08:40:51.000Z</time>
      </trkpt>
      <trkpt lat="42.9114" lon="1.22089">
        <ele>743</ele>
        <time>2026-05-25T08:40:52.000Z</time>
      </trkpt>
      <trkpt lat="42.91141" lon="1.22086">
        <ele>743</ele>
        <time>2026-05-25T08:40:53.000Z</time>
      </trkpt>
      <trkpt lat="42.91143" lon="1.22084">
        <ele>742</ele>
        <time>2026-05-25T08:40:54.000Z</time>
      </trkpt>
      <trkpt lat="42.91146" lon="1.22082">
        <ele>742</ele>
        <time>2026-05-25T08:40:55.000Z</time>
      </trkpt>
      <trkpt lat="42.91148" lon="1.22079">
        <ele>741</ele>
        <time>2026-05-25T08:40:56.000Z</time>
      </trkpt>
      <trkpt lat="42.91149" lon="1.22076">
        <ele>741</ele>
        <time>2026-05-25T08:40:57.000Z</time>
      </trkpt>
      <trkpt lat="42.91151" lon="1.22074">
        <ele>741</ele>
        <time>2026-05-25T08:40:58.000Z</time>
      </trkpt>
      <trkpt lat="42.91154" lon="1.2207">
        <ele>741</ele>
        <time>2026-05-25T08:40:59.000Z</time>
      </trkpt>
      <trkpt lat="42.91157" lon="1.22067">
        <ele>741</ele>
        <time>2026-05-25T08:41:00.000Z</time>
      </trkpt>
      <trkpt lat="42.9116" lon="1.22064">
        <ele>741</ele>
        <time>2026-05-25T08:41:01.000Z</time>
      </trkpt>
      <trkpt lat="42.91163" lon="1.22061">
        <ele>740</ele>
        <time>2026-05-25T08:41:02.000Z</time>
      </trkpt>
      <trkpt lat="42.91165" lon="1.22058">
        <ele>740</ele>
        <time>2026-05-25T08:41:03.000Z</time>
      </trkpt>
      <trkpt lat="42.91167" lon="1.22054">
        <ele>740</ele>
        <time>2026-05-25T08:41:04.000Z</time>
      </trkpt>
      <trkpt lat="42.9117" lon="1.22051">
        <ele>740</ele>
        <time>2026-05-25T08:41:05.000Z</time>
      </trkpt>
      <trkpt lat="42.91172" lon="1.22048">
        <ele>739</ele>
        <time>2026-05-25T08:41:06.000Z</time>
      </trkpt>
      <trkpt lat="42.91174" lon="1.22045">
        <ele>738</ele>
        <time>2026-05-25T08:41:07.000Z</time>
      </trkpt>
      <trkpt lat="42.91177" lon="1.22042">
        <ele>738</ele>
        <time>2026-05-25T08:41:08.000Z</time>
      </trkpt>
      <trkpt lat="42.9118" lon="1.22038">
        <ele>738</ele>
        <time>2026-05-25T08:41:09.000Z</time>
      </trkpt>
      <trkpt lat="42.91182" lon="1.22034">
        <ele>738</ele>
        <time>2026-05-25T08:41:10.000Z</time>
      </trkpt>
      <trkpt lat="42.91185" lon="1.2203">
        <ele>737</ele>
        <time>2026-05-25T08:41:11.000Z</time>
      </trkpt>
      <trkpt lat="42.91188" lon="1.22027">
        <ele>737</ele>
        <time>2026-05-25T08:41:12.000Z</time>
      </trkpt>
      <trkpt lat="42.9119" lon="1.22025">
        <ele>737</ele>
        <time>2026-05-25T08:41:13.000Z</time>
      </trkpt>
      <trkpt lat="42.91192" lon="1.22022">
        <ele>737</ele>
        <time>2026-05-25T08:41:14.000Z</time>
      </trkpt>
      <trkpt lat="42.91195" lon="1.22018">
        <ele>737</ele>
        <time>2026-05-25T08:41:15.000Z</time>
      </trkpt>
      <trkpt lat="42.91198" lon="1.22015">
        <ele>736</ele>
        <time>2026-05-25T08:41:16.000Z</time>
      </trkpt>
      <trkpt lat="42.91201" lon="1.2201">
        <ele>735</ele>
        <time>2026-05-25T08:41:17.000Z</time>
      </trkpt>
      <trkpt lat="42.91203" lon="1.22005">
        <ele>735</ele>
        <time>2026-05-25T08:41:18.000Z</time>
      </trkpt>
      <trkpt lat="42.91206" lon="1.22001">
        <ele>735</ele>
        <time>2026-05-25T08:41:19.000Z</time>
      </trkpt>
      <trkpt lat="42.91208" lon="1.21997">
        <ele>735</ele>
        <time>2026-05-25T08:41:20.000Z</time>
      </trkpt>
      <trkpt lat="42.91211" lon="1.21993">
        <ele>735</ele>
        <time>2026-05-25T08:41:21.000Z</time>
      </trkpt>
      <trkpt lat="42.91213" lon="1.21989">
        <ele>735</ele>
        <time>2026-05-25T08:41:22.000Z</time>
      </trkpt>
      <trkpt lat="42.91216" lon="1.21985">
        <ele>735</ele>
        <time>2026-05-25T08:41:23.000Z</time>
      </trkpt>
      <trkpt lat="42.91219" lon="1.21982">
        <ele>735</ele>
        <time>2026-05-25T08:41:24.000Z</time>
      </trkpt>
      <trkpt lat="42.91222" lon="1.21977">
        <ele>735</ele>
        <time>2026-05-25T08:41:25.000Z</time>
      </trkpt>
      <trkpt lat="42.91224" lon="1.21972">
        <ele>735</ele>
        <time>2026-05-25T08:41:26.000Z</time>
      </trkpt>
      <trkpt lat="42.91226" lon="1.21967">
        <ele>736</ele>
        <time>2026-05-25T08:41:27.000Z</time>
      </trkpt>
      <trkpt lat="42.91228" lon="1.21961">
        <ele>736</ele>
        <time>2026-05-25T08:41:28.000Z</time>
      </trkpt>
      <trkpt lat="42.9123" lon="1.21956">
        <ele>736</ele>
        <time>2026-05-25T08:41:29.000Z</time>
      </trkpt>
      <trkpt lat="42.91232" lon="1.21951">
        <ele>736</ele>
        <time>2026-05-25T08:41:30.000Z</time>
      </trkpt>
      <trkpt lat="42.91234" lon="1.21947">
        <ele>736</ele>
        <time>2026-05-25T08:41:31.000Z</time>
      </trkpt>
      <trkpt lat="42.91237" lon="1.21943">
        <ele>737</ele>
        <time>2026-05-25T08:41:32.000Z</time>
      </trkpt>
      <trkpt lat="42.91239" lon="1.21939">
        <ele>737</ele>
        <time>2026-05-25T08:41:33.000Z</time>
      </trkpt>
      <trkpt lat="42.91241" lon="1.21936">
        <ele>737</ele>
        <time>2026-05-25T08:41:34.000Z</time>
      </trkpt>
      <trkpt lat="42.91244" lon="1.21932">
        <ele>737</ele>
        <time>2026-05-25T08:41:35.000Z</time>
      </trkpt>
      <trkpt lat="42.91247" lon="1.21929">
        <ele>737</ele>
        <time>2026-05-25T08:41:36.000Z</time>
      </trkpt>
      <trkpt lat="42.9125" lon="1.21925">
        <ele>736</ele>
        <time>2026-05-25T08:41:37.000Z</time>
      </trkpt>
      <trkpt lat="42.91253" lon="1.21921">
        <ele>736</ele>
        <time>2026-05-25T08:41:38.000Z</time>
      </trkpt>
      <trkpt lat="42.91255" lon="1.21918">
        <ele>736</ele>
        <time>2026-05-25T08:41:39.000Z</time>
      </trkpt>
      <trkpt lat="42.91258" lon="1.21916">
        <ele>737</ele>
        <time>2026-05-25T08:41:40.000Z</time>
      </trkpt>
      <trkpt lat="42.9126" lon="1.21913">
        <ele>737</ele>
        <time>2026-05-25T08:41:41.000Z</time>
      </trkpt>
      <trkpt lat="42.91262" lon="1.21912">
        <ele>737</ele>
        <time>2026-05-25T08:41:42.000Z</time>
      </trkpt>
      <trkpt lat="42.91264" lon="1.2191">
        <ele>737</ele>
        <time>2026-05-25T08:41:43.000Z</time>
      </trkpt>
      <trkpt lat="42.91266" lon="1.21908">
        <ele>737</ele>
        <time>2026-05-25T08:41:44.000Z</time>
      </trkpt>
      <trkpt lat="42.91268" lon="1.21905">
        <ele>737</ele>
        <time>2026-05-25T08:41:45.000Z</time>
      </trkpt>
      <trkpt lat="42.9127" lon="1.21903">
        <ele>737</ele>
        <time>2026-05-25T08:41:46.000Z</time>
      </trkpt>
      <trkpt lat="42.91272" lon="1.219">
        <ele>738</ele>
        <time>2026-05-25T08:41:47.000Z</time>
      </trkpt>
      <trkpt lat="42.91273" lon="1.21898">
        <ele>739</ele>
        <time>2026-05-25T08:41:48.000Z</time>
      </trkpt>
      <trkpt lat="42.91276" lon="1.21895">
        <ele>739</ele>
        <time>2026-05-25T08:41:49.000Z</time>
      </trkpt>
      <trkpt lat="42.91279" lon="1.21893">
        <ele>740</ele>
        <time>2026-05-25T08:41:50.000Z</time>
      </trkpt>
      <trkpt lat="42.91281" lon="1.21889">
        <ele>741</ele>
        <time>2026-05-25T08:41:51.000Z</time>
      </trkpt>
      <trkpt lat="42.91284" lon="1.21886">
        <ele>741</ele>
        <time>2026-05-25T08:41:52.000Z</time>
      </trkpt>
      <trkpt lat="42.91286" lon="1.21883">
        <ele>742</ele>
        <time>2026-05-25T08:41:53.000Z</time>
      </trkpt>
      <trkpt lat="42.91289" lon="1.21879">
        <ele>742</ele>
        <time>2026-05-25T08:41:54.000Z</time>
      </trkpt>
      <trkpt lat="42.91292" lon="1.21876">
        <ele>743</ele>
        <time>2026-05-25T08:41:55.000Z</time>
      </trkpt>
      <trkpt lat="42.91295" lon="1.21873">
        <ele>744</ele>
        <time>2026-05-25T08:41:56.000Z</time>
      </trkpt>
      <trkpt lat="42.91297" lon="1.2187">
        <ele>744</ele>
        <time>2026-05-25T08:41:57.000Z</time>
      </trkpt>
      <trkpt lat="42.913" lon="1.21866">
        <ele>744</ele>
        <time>2026-05-25T08:41:58.000Z</time>
      </trkpt>
      <trkpt lat="42.91303" lon="1.21863">
        <ele>744</ele>
        <time>2026-05-25T08:41:59.000Z</time>
      </trkpt>
      <trkpt lat="42.91306" lon="1.21861">
        <ele>745</ele>
        <time>2026-05-25T08:42:00.000Z</time>
      </trkpt>
      <trkpt lat="42.9131" lon="1.21859">
        <ele>745</ele>
        <time>2026-05-25T08:42:01.000Z</time>
      </trkpt>
      <trkpt lat="42.91314" lon="1.21857">
        <ele>746</ele>
        <time>2026-05-25T08:42:02.000Z</time>
      </trkpt>
      <trkpt lat="42.91318" lon="1.21856">
        <ele>746</ele>
        <time>2026-05-25T08:42:03.000Z</time>
      </trkpt>
      <trkpt lat="42.91321" lon="1.21854">
        <ele>746</ele>
        <time>2026-05-25T08:42:04.000Z</time>
      </trkpt>
      <trkpt lat="42.91324" lon="1.21853">
        <ele>747</ele>
        <time>2026-05-25T08:42:05.000Z</time>
      </trkpt>
      <trkpt lat="42.91326" lon="1.21853">
        <ele>746</ele>
        <time>2026-05-25T08:42:06.000Z</time>
      </trkpt>
      <trkpt lat="42.91328" lon="1.21853">
        <ele>747</ele>
        <time>2026-05-25T08:42:07.000Z</time>
      </trkpt>
      <trkpt lat="42.9133" lon="1.21852">
        <ele>747</ele>
        <time>2026-05-25T08:42:08.000Z</time>
      </trkpt>
      <trkpt lat="42.91331" lon="1.21852">
        <ele>747</ele>
        <time>2026-05-25T08:42:09.000Z</time>
      </trkpt>
      <trkpt lat="42.91331" lon="1.21852">
        <ele>747</ele>
        <time>2026-05-25T08:42:10.000Z</time>
      </trkpt>
      <trkpt lat="42.91332" lon="1.21852">
        <ele>747</ele>
        <time>2026-05-25T08:42:11.000Z</time>
      </trkpt>
      <trkpt lat="42.91333" lon="1.21851">
        <ele>748</ele>
        <time>2026-05-25T08:42:12.000Z</time>
      </trkpt>
      <trkpt lat="42.91334" lon="1.21851">
        <ele>748</ele>
        <time>2026-05-25T08:42:13.000Z</time>
      </trkpt>
      <trkpt lat="42.91335" lon="1.21852">
        <ele>748</ele>
        <time>2026-05-25T08:42:14.000Z</time>
      </trkpt>
      <trkpt lat="42.91335" lon="1.21852">
        <ele>748</ele>
        <time>2026-05-25T08:42:15.000Z</time>
      </trkpt>
      <trkpt lat="42.91335" lon="1.21851">
        <ele>747</ele>
        <time>2026-05-25T08:42:16.000Z</time>
      </trkpt>
      <trkpt lat="42.91335" lon="1.21851">
        <ele>748</ele>
        <time>2026-05-25T08:42:17.000Z</time>
      </trkpt>
      <trkpt lat="42.91336" lon="1.21851">
        <ele>748</ele>
        <time>2026-05-25T08:42:18.000Z</time>
      </trkpt>
      <trkpt lat="42.91336" lon="1.21849">
        <ele>749</ele>
        <time>2026-05-25T08:42:19.000Z</time>
      </trkpt>
      <trkpt lat="42.91337" lon="1.21849">
        <ele>748</ele>
        <time>2026-05-25T08:42:20.000Z</time>
      </trkpt>
      <trkpt lat="42.91338" lon="1.21849">
        <ele>748</ele>
        <time>2026-05-25T08:42:21.000Z</time>
      </trkpt>
      <trkpt lat="42.9134" lon="1.21847">
        <ele>749</ele>
        <time>2026-05-25T08:42:22.000Z</time>
      </trkpt>
      <trkpt lat="42.91343" lon="1.21844">
        <ele>749</ele>
        <time>2026-05-25T08:42:23.000Z</time>
      </trkpt>
      <trkpt lat="42.91345" lon="1.21842">
        <ele>748</ele>
        <time>2026-05-25T08:42:24.000Z</time>
      </trkpt>
      <trkpt lat="42.91347" lon="1.21837">
        <ele>748</ele>
        <time>2026-05-25T08:42:25.000Z</time>
      </trkpt>
      <trkpt lat="42.91349" lon="1.21833">
        <ele>748</ele>
        <time>2026-05-25T08:42:26.000Z</time>
      </trkpt>
      <trkpt lat="42.91351" lon="1.21829">
        <ele>748</ele>
        <time>2026-05-25T08:42:27.000Z</time>
      </trkpt>
      <trkpt lat="42.91352" lon="1.21825">
        <ele>748</ele>
        <time>2026-05-25T08:42:28.000Z</time>
      </trkpt>
      <trkpt lat="42.91354" lon="1.2182">
        <ele>748</ele>
        <time>2026-05-25T08:42:29.000Z</time>
      </trkpt>
      <trkpt lat="42.91355" lon="1.21816">
        <ele>748</ele>
        <time>2026-05-25T08:42:30.000Z</time>
      </trkpt>
      <trkpt lat="42.91356" lon="1.21811">
        <ele>748</ele>
        <time>2026-05-25T08:42:31.000Z</time>
      </trkpt>
      <trkpt lat="42.91358" lon="1.21806">
        <ele>749</ele>
        <time>2026-05-25T08:42:32.000Z</time>
      </trkpt>
      <trkpt lat="42.91361" lon="1.218">
        <ele>750</ele>
        <time>2026-05-25T08:42:33.000Z</time>
      </trkpt>
      <trkpt lat="42.91365" lon="1.21795">
        <ele>750</ele>
        <time>2026-05-25T08:42:34.000Z</time>
      </trkpt>
      <trkpt lat="42.91368" lon="1.2179">
        <ele>751</ele>
        <time>2026-05-25T08:42:35.000Z</time>
      </trkpt>
      <trkpt lat="42.91372" lon="1.21785">
        <ele>752</ele>
        <time>2026-05-25T08:42:36.000Z</time>
      </trkpt>
      <trkpt lat="42.91374" lon="1.2178">
        <ele>752</ele>
        <time>2026-05-25T08:42:37.000Z</time>
      </trkpt>
      <trkpt lat="42.91376" lon="1.21775">
        <ele>753</ele>
        <time>2026-05-25T08:42:38.000Z</time>
      </trkpt>
      <trkpt lat="42.91378" lon="1.21771">
        <ele>753</ele>
        <time>2026-05-25T08:42:39.000Z</time>
      </trkpt>
      <trkpt lat="42.9138" lon="1.21766">
        <ele>753</ele>
        <time>2026-05-25T08:42:40.000Z</time>
      </trkpt>
      <trkpt lat="42.91382" lon="1.21761">
        <ele>752</ele>
        <time>2026-05-25T08:42:41.000Z</time>
      </trkpt>
      <trkpt lat="42.91386" lon="1.21757">
        <ele>753</ele>
        <time>2026-05-25T08:42:42.000Z</time>
      </trkpt>
      <trkpt lat="42.9139" lon="1.21753">
        <ele>753</ele>
        <time>2026-05-25T08:42:43.000Z</time>
      </trkpt>
      <trkpt lat="42.91393" lon="1.2175">
        <ele>753</ele>
        <time>2026-05-25T08:42:44.000Z</time>
      </trkpt>
      <trkpt lat="42.91397" lon="1.21748">
        <ele>753</ele>
        <time>2026-05-25T08:42:45.000Z</time>
      </trkpt>
      <trkpt lat="42.914" lon="1.21745">
        <ele>753</ele>
        <time>2026-05-25T08:42:46.000Z</time>
      </trkpt>
      <trkpt lat="42.91403" lon="1.21743">
        <ele>753</ele>
        <time>2026-05-25T08:42:47.000Z</time>
      </trkpt>
      <trkpt lat="42.91405" lon="1.2174">
        <ele>753</ele>
        <time>2026-05-25T08:42:48.000Z</time>
      </trkpt>
      <trkpt lat="42.91406" lon="1.2174">
        <ele>753</ele>
        <time>2026-05-25T08:42:49.000Z</time>
      </trkpt>
      <trkpt lat="42.91407" lon="1.2174">
        <ele>753</ele>
        <time>2026-05-25T08:42:50.000Z</time>
      </trkpt>
      <trkpt lat="42.91409" lon="1.21739">
        <ele>754</ele>
        <time>2026-05-25T08:42:51.000Z</time>
      </trkpt>
      <trkpt lat="42.9141" lon="1.21737">
        <ele>754</ele>
        <time>2026-05-25T08:42:52.000Z</time>
      </trkpt>
      <trkpt lat="42.91412" lon="1.21735">
        <ele>754</ele>
        <time>2026-05-25T08:42:53.000Z</time>
      </trkpt>
      <trkpt lat="42.91414" lon="1.21733">
        <ele>754</ele>
        <time>2026-05-25T08:42:54.000Z</time>
      </trkpt>
      <trkpt lat="42.91416" lon="1.21731">
        <ele>754</ele>
        <time>2026-05-25T08:42:55.000Z</time>
      </trkpt>
      <trkpt lat="42.91418" lon="1.21727">
        <ele>755</ele>
        <time>2026-05-25T08:42:56.000Z</time>
      </trkpt>
      <trkpt lat="42.91419" lon="1.21724">
        <ele>755</ele>
        <time>2026-05-25T08:42:57.000Z</time>
      </trkpt>
      <trkpt lat="42.91421" lon="1.2172">
        <ele>755</ele>
        <time>2026-05-25T08:42:58.000Z</time>
      </trkpt>
      <trkpt lat="42.91423" lon="1.21715">
        <ele>755</ele>
        <time>2026-05-25T08:42:59.000Z</time>
      </trkpt>
      <trkpt lat="42.91423" lon="1.21711">
        <ele>756</ele>
        <time>2026-05-25T08:43:00.000Z</time>
      </trkpt>
      <trkpt lat="42.91425" lon="1.21708">
        <ele>755</ele>
        <time>2026-05-25T08:43:01.000Z</time>
      </trkpt>
      <trkpt lat="42.91426" lon="1.21704">
        <ele>755</ele>
        <time>2026-05-25T08:43:02.000Z</time>
      </trkpt>
      <trkpt lat="42.91428" lon="1.21699">
        <ele>755</ele>
        <time>2026-05-25T08:43:03.000Z</time>
      </trkpt>
      <trkpt lat="42.9143" lon="1.21695">
        <ele>755</ele>
        <time>2026-05-25T08:43:04.000Z</time>
      </trkpt>
      <trkpt lat="42.91431" lon="1.2169">
        <ele>755</ele>
        <time>2026-05-25T08:43:05.000Z</time>
      </trkpt>
      <trkpt lat="42.91433" lon="1.21686">
        <ele>755</ele>
        <time>2026-05-25T08:43:06.000Z</time>
      </trkpt>
      <trkpt lat="42.91434" lon="1.21682">
        <ele>755</ele>
        <time>2026-05-25T08:43:07.000Z</time>
      </trkpt>
      <trkpt lat="42.91435" lon="1.21678">
        <ele>755</ele>
        <time>2026-05-25T08:43:08.000Z</time>
      </trkpt>
      <trkpt lat="42.91437" lon="1.21674">
        <ele>755</ele>
        <time>2026-05-25T08:43:09.000Z</time>
      </trkpt>
      <trkpt lat="42.91439" lon="1.21668">
        <ele>755</ele>
        <time>2026-05-25T08:43:10.000Z</time>
      </trkpt>
      <trkpt lat="42.9144" lon="1.21664">
        <ele>755</ele>
        <time>2026-05-25T08:43:11.000Z</time>
      </trkpt>
      <trkpt lat="42.91441" lon="1.2166">
        <ele>755</ele>
        <time>2026-05-25T08:43:12.000Z</time>
      </trkpt>
      <trkpt lat="42.91443" lon="1.21656">
        <ele>755</ele>
        <time>2026-05-25T08:43:13.000Z</time>
      </trkpt>
      <trkpt lat="42.91444" lon="1.21651">
        <ele>754</ele>
        <time>2026-05-25T08:43:14.000Z</time>
      </trkpt>
      <trkpt lat="42.91446" lon="1.21646">
        <ele>753</ele>
        <time>2026-05-25T08:43:15.000Z</time>
      </trkpt>
      <trkpt lat="42.91447" lon="1.21642">
        <ele>753</ele>
        <time>2026-05-25T08:43:16.000Z</time>
      </trkpt>
      <trkpt lat="42.91448" lon="1.21638">
        <ele>753</ele>
        <time>2026-05-25T08:43:17.000Z</time>
      </trkpt>
      <trkpt lat="42.91449" lon="1.21633">
        <ele>752</ele>
        <time>2026-05-25T08:43:18.000Z</time>
      </trkpt>
      <trkpt lat="42.9145" lon="1.21628">
        <ele>752</ele>
        <time>2026-05-25T08:43:19.000Z</time>
      </trkpt>
      <trkpt lat="42.91452" lon="1.21623">
        <ele>752</ele>
        <time>2026-05-25T08:43:20.000Z</time>
      </trkpt>
      <trkpt lat="42.91453" lon="1.21618">
        <ele>752</ele>
        <time>2026-05-25T08:43:21.000Z</time>
      </trkpt>
      <trkpt lat="42.91454" lon="1.21613">
        <ele>752</ele>
        <time>2026-05-25T08:43:22.000Z</time>
      </trkpt>
      <trkpt lat="42.91455" lon="1.21608">
        <ele>752</ele>
        <time>2026-05-25T08:43:23.000Z</time>
      </trkpt>
      <trkpt lat="42.91456" lon="1.21602">
        <ele>752</ele>
        <time>2026-05-25T08:43:24.000Z</time>
      </trkpt>
      <trkpt lat="42.91456" lon="1.21596">
        <ele>752</ele>
        <time>2026-05-25T08:43:25.000Z</time>
      </trkpt>
      <trkpt lat="42.91456" lon="1.21591">
        <ele>752</ele>
        <time>2026-05-25T08:43:26.000Z</time>
      </trkpt>
      <trkpt lat="42.91457" lon="1.21586">
        <ele>752</ele>
        <time>2026-05-25T08:43:27.000Z</time>
      </trkpt>
      <trkpt lat="42.91456" lon="1.21583">
        <ele>752</ele>
        <time>2026-05-25T08:43:28.000Z</time>
      </trkpt>
      <trkpt lat="42.91456" lon="1.21579">
        <ele>753</ele>
        <time>2026-05-25T08:43:29.000Z</time>
      </trkpt>
      <trkpt lat="42.91455" lon="1.21576">
        <ele>752</ele>
        <time>2026-05-25T08:43:30.000Z</time>
      </trkpt>
      <trkpt lat="42.91455" lon="1.21573">
        <ele>753</ele>
        <time>2026-05-25T08:43:31.000Z</time>
      </trkpt>
      <trkpt lat="42.91454" lon="1.21568">
        <ele>753</ele>
        <time>2026-05-25T08:43:32.000Z</time>
      </trkpt>
      <trkpt lat="42.91453" lon="1.21563">
        <ele>753</ele>
        <time>2026-05-25T08:43:33.000Z</time>
      </trkpt>
      <trkpt lat="42.91453" lon="1.21558">
        <ele>753</ele>
        <time>2026-05-25T08:43:34.000Z</time>
      </trkpt>
      <trkpt lat="42.91451" lon="1.21553">
        <ele>752</ele>
        <time>2026-05-25T08:43:35.000Z</time>
      </trkpt>
      <trkpt lat="42.91449" lon="1.21548">
        <ele>752</ele>
        <time>2026-05-25T08:43:36.000Z</time>
      </trkpt>
      <trkpt lat="42.91448" lon="1.21543">
        <ele>752</ele>
        <time>2026-05-25T08:43:37.000Z</time>
      </trkpt>
      <trkpt lat="42.91447" lon="1.21537">
        <ele>752</ele>
        <time>2026-05-25T08:43:38.000Z</time>
      </trkpt>
      <trkpt lat="42.91447" lon="1.21531">
        <ele>752</ele>
        <time>2026-05-25T08:43:39.000Z</time>
      </trkpt>
      <trkpt lat="42.91447" lon="1.21526">
        <ele>751</ele>
        <time>2026-05-25T08:43:40.000Z</time>
      </trkpt>
      <trkpt lat="42.91447" lon="1.2152">
        <ele>751</ele>
        <time>2026-05-25T08:43:41.000Z</time>
      </trkpt>
      <trkpt lat="42.91448" lon="1.21513">
        <ele>751</ele>
        <time>2026-05-25T08:43:42.000Z</time>
      </trkpt>
      <trkpt lat="42.91449" lon="1.21508">
        <ele>750</ele>
        <time>2026-05-25T08:43:43.000Z</time>
      </trkpt>
      <trkpt lat="42.9145" lon="1.21503">
        <ele>749</ele>
        <time>2026-05-25T08:43:44.000Z</time>
      </trkpt>
      <trkpt lat="42.91452" lon="1.21497">
        <ele>749</ele>
        <time>2026-05-25T08:43:45.000Z</time>
      </trkpt>
      <trkpt lat="42.91454" lon="1.2149">
        <ele>748</ele>
        <time>2026-05-25T08:43:46.000Z</time>
      </trkpt>
      <trkpt lat="42.91455" lon="1.21484">
        <ele>748</ele>
        <time>2026-05-25T08:43:47.000Z</time>
      </trkpt>
      <trkpt lat="42.91457" lon="1.21477">
        <ele>747</ele>
        <time>2026-05-25T08:43:48.000Z</time>
      </trkpt>
      <trkpt lat="42.91458" lon="1.21469">
        <ele>746</ele>
        <time>2026-05-25T08:43:49.000Z</time>
      </trkpt>
      <trkpt lat="42.91459" lon="1.21461">
        <ele>745</ele>
        <time>2026-05-25T08:43:50.000Z</time>
      </trkpt>
      <trkpt lat="42.91461" lon="1.21452">
        <ele>744</ele>
        <time>2026-05-25T08:43:51.000Z</time>
      </trkpt>
      <trkpt lat="42.91461" lon="1.21442">
        <ele>744</ele>
        <time>2026-05-25T08:43:52.000Z</time>
      </trkpt>
      <trkpt lat="42.91463" lon="1.21433">
        <ele>743</ele>
        <time>2026-05-25T08:43:53.000Z</time>
      </trkpt>
      <trkpt lat="42.91465" lon="1.21424">
        <ele>743</ele>
        <time>2026-05-25T08:43:54.000Z</time>
      </trkpt>
      <trkpt lat="42.91467" lon="1.21413">
        <ele>743</ele>
        <time>2026-05-25T08:43:55.000Z</time>
      </trkpt>
      <trkpt lat="42.91469" lon="1.21403">
        <ele>743</ele>
        <time>2026-05-25T08:43:56.000Z</time>
      </trkpt>
      <trkpt lat="42.9147" lon="1.21395">
        <ele>743</ele>
        <time>2026-05-25T08:43:57.000Z</time>
      </trkpt>
      <trkpt lat="42.91471" lon="1.21388">
        <ele>743</ele>
        <time>2026-05-25T08:43:58.000Z</time>
      </trkpt>
      <trkpt lat="42.91474" lon="1.21381">
        <ele>743</ele>
        <time>2026-05-25T08:43:59.000Z</time>
      </trkpt>
      <trkpt lat="42.91476" lon="1.21373">
        <ele>744</ele>
        <time>2026-05-25T08:44:00.000Z</time>
      </trkpt>
      <trkpt lat="42.91478" lon="1.21367">
        <ele>744</ele>
        <time>2026-05-25T08:44:01.000Z</time>
      </trkpt>
      <trkpt lat="42.91482" lon="1.21361">
        <ele>744</ele>
        <time>2026-05-25T08:44:02.000Z</time>
      </trkpt>
      <trkpt lat="42.91484" lon="1.21355">
        <ele>742</ele>
        <time>2026-05-25T08:44:03.000Z</time>
      </trkpt>
      <trkpt lat="42.91488" lon="1.21349">
        <ele>742</ele>
        <time>2026-05-25T08:44:04.000Z</time>
      </trkpt>
      <trkpt lat="42.91491" lon="1.21343">
        <ele>742</ele>
        <time>2026-05-25T08:44:05.000Z</time>
      </trkpt>
      <trkpt lat="42.91495" lon="1.21338">
        <ele>741</ele>
        <time>2026-05-25T08:44:06.000Z</time>
      </trkpt>
      <trkpt lat="42.91499" lon="1.21332">
        <ele>741</ele>
        <time>2026-05-25T08:44:07.000Z</time>
      </trkpt>
      <trkpt lat="42.91504" lon="1.21328">
        <ele>741</ele>
        <time>2026-05-25T08:44:08.000Z</time>
      </trkpt>
      <trkpt lat="42.91509" lon="1.21323">
        <ele>741</ele>
        <time>2026-05-25T08:44:09.000Z</time>
      </trkpt>
      <trkpt lat="42.91515" lon="1.21317">
        <ele>741</ele>
        <time>2026-05-25T08:44:10.000Z</time>
      </trkpt>
      <trkpt lat="42.9152" lon="1.21313">
        <ele>741</ele>
        <time>2026-05-25T08:44:11.000Z</time>
      </trkpt>
      <trkpt lat="42.91525" lon="1.21308">
        <ele>741</ele>
        <time>2026-05-25T08:44:12.000Z</time>
      </trkpt>
      <trkpt lat="42.91531" lon="1.21304">
        <ele>740</ele>
        <time>2026-05-25T08:44:13.000Z</time>
      </trkpt>
      <trkpt lat="42.91537" lon="1.21299">
        <ele>740</ele>
        <time>2026-05-25T08:44:14.000Z</time>
      </trkpt>
      <trkpt lat="42.91544" lon="1.21295">
        <ele>739</ele>
        <time>2026-05-25T08:44:15.000Z</time>
      </trkpt>
      <trkpt lat="42.9155" lon="1.21291">
        <ele>738</ele>
        <time>2026-05-25T08:44:16.000Z</time>
      </trkpt>
      <trkpt lat="42.91556" lon="1.21286">
        <ele>738</ele>
        <time>2026-05-25T08:44:17.000Z</time>
      </trkpt>
      <trkpt lat="42.91562" lon="1.21281">
        <ele>738</ele>
        <time>2026-05-25T08:44:18.000Z</time>
      </trkpt>
      <trkpt lat="42.91567" lon="1.21277">
        <ele>738</ele>
        <time>2026-05-25T08:44:19.000Z</time>
      </trkpt>
      <trkpt lat="42.91573" lon="1.21273">
        <ele>738</ele>
        <time>2026-05-25T08:44:20.000Z</time>
      </trkpt>
      <trkpt lat="42.91578" lon="1.2127">
        <ele>737</ele>
        <time>2026-05-25T08:44:21.000Z</time>
      </trkpt>
      <trkpt lat="42.91582" lon="1.21269">
        <ele>738</ele>
        <time>2026-05-25T08:44:22.000Z</time>
      </trkpt>
      <trkpt lat="42.91587" lon="1.21268">
        <ele>738</ele>
        <time>2026-05-25T08:44:23.000Z</time>
      </trkpt>
      <trkpt lat="42.91591" lon="1.21266">
        <ele>739</ele>
        <time>2026-05-25T08:44:24.000Z</time>
      </trkpt>
      <trkpt lat="42.91595" lon="1.21264">
        <ele>740</ele>
        <time>2026-05-25T08:44:25.000Z</time>
      </trkpt>
      <trkpt lat="42.91598" lon="1.21262">
        <ele>739</ele>
        <time>2026-05-25T08:44:26.000Z</time>
      </trkpt>
      <trkpt lat="42.91601" lon="1.21259">
        <ele>739</ele>
        <time>2026-05-25T08:44:27.000Z</time>
      </trkpt>
      <trkpt lat="42.91603" lon="1.21257">
        <ele>739</ele>
        <time>2026-05-25T08:44:28.000Z</time>
      </trkpt>
      <trkpt lat="42.91606" lon="1.21254">
        <ele>739</ele>
        <time>2026-05-25T08:44:29.000Z</time>
      </trkpt>
      <trkpt lat="42.91607" lon="1.2125">
        <ele>739</ele>
        <time>2026-05-25T08:44:30.000Z</time>
      </trkpt>
      <trkpt lat="42.91608" lon="1.21246">
        <ele>739</ele>
        <time>2026-05-25T08:44:31.000Z</time>
      </trkpt>
      <trkpt lat="42.91608" lon="1.21243">
        <ele>739</ele>
        <time>2026-05-25T08:44:32.000Z</time>
      </trkpt>
      <trkpt lat="42.91608" lon="1.2124">
        <ele>739</ele>
        <time>2026-05-25T08:44:33.000Z</time>
      </trkpt>
      <trkpt lat="42.91607" lon="1.21237">
        <ele>739</ele>
        <time>2026-05-25T08:44:34.000Z</time>
      </trkpt>
      <trkpt lat="42.91607" lon="1.21233">
        <ele>739</ele>
        <time>2026-05-25T08:44:35.000Z</time>
      </trkpt>
      <trkpt lat="42.91606" lon="1.2123">
        <ele>739</ele>
        <time>2026-05-25T08:44:36.000Z</time>
      </trkpt>
      <trkpt lat="42.91606" lon="1.21228">
        <ele>739</ele>
        <time>2026-05-25T08:44:37.000Z</time>
      </trkpt>
      <trkpt lat="42.91606" lon="1.21227">
        <ele>739</ele>
        <time>2026-05-25T08:44:38.000Z</time>
      </trkpt>
      <trkpt lat="42.91607" lon="1.21226">
        <ele>738</ele>
        <time>2026-05-25T08:44:39.000Z</time>
      </trkpt>
      <trkpt lat="42.91604" lon="1.21217">
        <ele>738</ele>
        <time>2026-05-25T08:44:53.000Z</time>
      </trkpt>
      <trkpt lat="42.91603" lon="1.21212">
        <ele>738</ele>
        <time>2026-05-25T08:44:54.000Z</time>
      </trkpt>
      <trkpt lat="42.91602" lon="1.21207">
        <ele>738</ele>
        <time>2026-05-25T08:44:55.000Z</time>
      </trkpt>
      <trkpt lat="42.91601" lon="1.21203">
        <ele>738</ele>
        <time>2026-05-25T08:44:56.000Z</time>
      </trkpt>
      <trkpt lat="42.91601" lon="1.21199">
        <ele>738</ele>
        <time>2026-05-25T08:44:57.000Z</time>
      </trkpt>
      <trkpt lat="42.916" lon="1.21194">
        <ele>739</ele>
        <time>2026-05-25T08:44:58.000Z</time>
      </trkpt>
      <trkpt lat="42.91599" lon="1.21188">
        <ele>740</ele>
        <time>2026-05-25T08:44:59.000Z</time>
      </trkpt>
      <trkpt lat="42.91598" lon="1.21182">
        <ele>740</ele>
        <time>2026-05-25T08:45:00.000Z</time>
      </trkpt>
      <trkpt lat="42.91597" lon="1.21178">
        <ele>741</ele>
        <time>2026-05-25T08:45:01.000Z</time>
      </trkpt>
      <trkpt lat="42.91597" lon="1.21174">
        <ele>741</ele>
        <time>2026-05-25T08:45:02.000Z</time>
      </trkpt>
      <trkpt lat="42.91596" lon="1.2117">
        <ele>741</ele>
        <time>2026-05-25T08:45:03.000Z</time>
      </trkpt>
      <trkpt lat="42.91596" lon="1.21166">
        <ele>741</ele>
        <time>2026-05-25T08:45:04.000Z</time>
      </trkpt>
      <trkpt lat="42.91596" lon="1.21162">
        <ele>741</ele>
        <time>2026-05-25T08:45:05.000Z</time>
      </trkpt>
      <trkpt lat="42.91595" lon="1.21158">
        <ele>741</ele>
        <time>2026-05-25T08:45:06.000Z</time>
      </trkpt>
      <trkpt lat="42.91596" lon="1.21153">
        <ele>741</ele>
        <time>2026-05-25T08:45:07.000Z</time>
      </trkpt>
      <trkpt lat="42.91596" lon="1.21148">
        <ele>741</ele>
        <time>2026-05-25T08:45:08.000Z</time>
      </trkpt>
      <trkpt lat="42.91597" lon="1.21143">
        <ele>740</ele>
        <time>2026-05-25T08:45:09.000Z</time>
      </trkpt>
      <trkpt lat="42.91597" lon="1.21138">
        <ele>740</ele>
        <time>2026-05-25T08:45:10.000Z</time>
      </trkpt>
      <trkpt lat="42.91598" lon="1.21132">
        <ele>740</ele>
        <time>2026-05-25T08:45:11.000Z</time>
      </trkpt>
      <trkpt lat="42.91598" lon="1.21127">
        <ele>739</ele>
        <time>2026-05-25T08:45:12.000Z</time>
      </trkpt>
      <trkpt lat="42.91599" lon="1.21121">
        <ele>739</ele>
        <time>2026-05-25T08:45:13.000Z</time>
      </trkpt>
      <trkpt lat="42.91601" lon="1.21115">
        <ele>739</ele>
        <time>2026-05-25T08:45:14.000Z</time>
      </trkpt>
      <trkpt lat="42.91603" lon="1.21107">
        <ele>739</ele>
        <time>2026-05-25T08:45:15.000Z</time>
      </trkpt>
      <trkpt lat="42.91607" lon="1.21098">
        <ele>738</ele>
        <time>2026-05-25T08:45:16.000Z</time>
      </trkpt>
      <trkpt lat="42.9161" lon="1.2109">
        <ele>738</ele>
        <time>2026-05-25T08:45:17.000Z</time>
      </trkpt>
      <trkpt lat="42.91613" lon="1.21082">
        <ele>738</ele>
        <time>2026-05-25T08:45:18.000Z</time>
      </trkpt>
      <trkpt lat="42.91616" lon="1.21074">
        <ele>738</ele>
        <time>2026-05-25T08:45:19.000Z</time>
      </trkpt>
      <trkpt lat="42.9162" lon="1.21066">
        <ele>737</ele>
        <time>2026-05-25T08:45:20.000Z</time>
      </trkpt>
      <trkpt lat="42.91623" lon="1.21058">
        <ele>737</ele>
        <time>2026-05-25T08:45:21.000Z</time>
      </trkpt>
      <trkpt lat="42.91627" lon="1.2105">
        <ele>736</ele>
        <time>2026-05-25T08:45:22.000Z</time>
      </trkpt>
      <trkpt lat="42.91629" lon="1.21043">
        <ele>736</ele>
        <time>2026-05-25T08:45:23.000Z</time>
      </trkpt>
      <trkpt lat="42.91632" lon="1.21037">
        <ele>735</ele>
        <time>2026-05-25T08:45:24.000Z</time>
      </trkpt>
      <trkpt lat="42.91635" lon="1.21033">
        <ele>736</ele>
        <time>2026-05-25T08:45:25.000Z</time>
      </trkpt>
      <trkpt lat="42.91636" lon="1.21031">
        <ele>735</ele>
        <time>2026-05-25T08:45:26.000Z</time>
      </trkpt>
      <trkpt lat="42.91638" lon="1.21028">
        <ele>735</ele>
        <time>2026-05-25T08:45:27.000Z</time>
      </trkpt>
      <trkpt lat="42.91639" lon="1.21026">
        <ele>735</ele>
        <time>2026-05-25T08:45:28.000Z</time>
      </trkpt>
      <trkpt lat="42.9164" lon="1.21024">
        <ele>735</ele>
        <time>2026-05-25T08:45:29.000Z</time>
      </trkpt>
      <trkpt lat="42.91642" lon="1.21021">
        <ele>735</ele>
        <time>2026-05-25T08:45:30.000Z</time>
      </trkpt>
      <trkpt lat="42.91643" lon="1.21019">
        <ele>735</ele>
        <time>2026-05-25T08:45:31.000Z</time>
      </trkpt>
      <trkpt lat="42.91644" lon="1.21015">
        <ele>735</ele>
        <time>2026-05-25T08:45:32.000Z</time>
      </trkpt>
      <trkpt lat="42.91646" lon="1.21012">
        <ele>735</ele>
        <time>2026-05-25T08:45:33.000Z</time>
      </trkpt>
      <trkpt lat="42.91647" lon="1.21008">
        <ele>735</ele>
        <time>2026-05-25T08:45:34.000Z</time>
      </trkpt>
      <trkpt lat="42.91648" lon="1.21005">
        <ele>735</ele>
        <time>2026-05-25T08:45:35.000Z</time>
      </trkpt>
      <trkpt lat="42.91649" lon="1.21002">
        <ele>735</ele>
        <time>2026-05-25T08:45:36.000Z</time>
      </trkpt>
      <trkpt lat="42.9165" lon="1.20999">
        <ele>735</ele>
        <time>2026-05-25T08:45:37.000Z</time>
      </trkpt>
      <trkpt lat="42.91652" lon="1.20996">
        <ele>735</ele>
        <time>2026-05-25T08:45:38.000Z</time>
      </trkpt>
      <trkpt lat="42.91654" lon="1.20994">
        <ele>735</ele>
        <time>2026-05-25T08:45:39.000Z</time>
      </trkpt>
      <trkpt lat="42.91656" lon="1.20991">
        <ele>735</ele>
        <time>2026-05-25T08:45:40.000Z</time>
      </trkpt>
      <trkpt lat="42.91657" lon="1.20989">
        <ele>735</ele>
        <time>2026-05-25T08:45:41.000Z</time>
      </trkpt>
      <trkpt lat="42.91659" lon="1.20987">
        <ele>734</ele>
        <time>2026-05-25T08:45:42.000Z</time>
      </trkpt>
      <trkpt lat="42.91661" lon="1.20983">
        <ele>734</ele>
        <time>2026-05-25T08:45:43.000Z</time>
      </trkpt>
      <trkpt lat="42.91663" lon="1.2098">
        <ele>734</ele>
        <time>2026-05-25T08:45:44.000Z</time>
      </trkpt>
      <trkpt lat="42.91666" lon="1.20977">
        <ele>734</ele>
        <time>2026-05-25T08:45:45.000Z</time>
      </trkpt>
      <trkpt lat="42.91668" lon="1.20973">
        <ele>734</ele>
        <time>2026-05-25T08:45:46.000Z</time>
      </trkpt>
      <trkpt lat="42.9167" lon="1.20969">
        <ele>734</ele>
        <time>2026-05-25T08:45:47.000Z</time>
      </trkpt>
      <trkpt lat="42.91672" lon="1.20963">
        <ele>734</ele>
        <time>2026-05-25T08:45:48.000Z</time>
      </trkpt>
      <trkpt lat="42.91673" lon="1.20958">
        <ele>734</ele>
        <time>2026-05-25T08:45:49.000Z</time>
      </trkpt>
      <trkpt lat="42.91674" lon="1.20954">
        <ele>733</ele>
        <time>2026-05-25T08:45:50.000Z</time>
      </trkpt>
      <trkpt lat="42.91675" lon="1.20949">
        <ele>733</ele>
        <time>2026-05-25T08:45:51.000Z</time>
      </trkpt>
      <trkpt lat="42.91675" lon="1.20945">
        <ele>733</ele>
        <time>2026-05-25T08:45:52.000Z</time>
      </trkpt>
      <trkpt lat="42.91675" lon="1.20941">
        <ele>733</ele>
        <time>2026-05-25T08:45:53.000Z</time>
      </trkpt>
      <trkpt lat="42.91675" lon="1.20936">
        <ele>733</ele>
        <time>2026-05-25T08:45:54.000Z</time>
      </trkpt>
      <trkpt lat="42.91675" lon="1.20932">
        <ele>732</ele>
        <time>2026-05-25T08:45:55.000Z</time>
      </trkpt>
      <trkpt lat="42.91675" lon="1.20929">
        <ele>732</ele>
        <time>2026-05-25T08:45:56.000Z</time>
      </trkpt>
      <trkpt lat="42.91675" lon="1.20927">
        <ele>732</ele>
        <time>2026-05-25T08:45:57.000Z</time>
      </trkpt>
      <trkpt lat="42.91675" lon="1.20923">
        <ele>733</ele>
        <time>2026-05-25T08:45:58.000Z</time>
      </trkpt>
      <trkpt lat="42.91675" lon="1.20919">
        <ele>732</ele>
        <time>2026-05-25T08:45:59.000Z</time>
      </trkpt>
      <trkpt lat="42.91674" lon="1.20916">
        <ele>731</ele>
        <time>2026-05-25T08:46:00.000Z</time>
      </trkpt>
      <trkpt lat="42.91673" lon="1.20911">
        <ele>731</ele>
        <time>2026-05-25T08:46:01.000Z</time>
      </trkpt>
      <trkpt lat="42.91671" lon="1.20907">
        <ele>730</ele>
        <time>2026-05-25T08:46:02.000Z</time>
      </trkpt>
      <trkpt lat="42.9167" lon="1.20903">
        <ele>730</ele>
        <time>2026-05-25T08:46:03.000Z</time>
      </trkpt>
      <trkpt lat="42.91669" lon="1.20898">
        <ele>729</ele>
        <time>2026-05-25T08:46:04.000Z</time>
      </trkpt>
      <trkpt lat="42.91667" lon="1.20892">
        <ele>729</ele>
        <time>2026-05-25T08:46:05.000Z</time>
      </trkpt>
      <trkpt lat="42.91666" lon="1.20885">
        <ele>729</ele>
        <time>2026-05-25T08:46:06.000Z</time>
      </trkpt>
      <trkpt lat="42.91666" lon="1.20876">
        <ele>727</ele>
        <time>2026-05-25T08:46:07.000Z</time>
      </trkpt>
      <trkpt lat="42.91666" lon="1.2087">
        <ele>727</ele>
        <time>2026-05-25T08:46:08.000Z</time>
      </trkpt>
      <trkpt lat="42.91667" lon="1.20864">
        <ele>727</ele>
        <time>2026-05-25T08:46:09.000Z</time>
      </trkpt>
      <trkpt lat="42.91668" lon="1.20859">
        <ele>726</ele>
        <time>2026-05-25T08:46:10.000Z</time>
      </trkpt>
      <trkpt lat="42.9167" lon="1.20854">
        <ele>726</ele>
        <time>2026-05-25T08:46:11.000Z</time>
      </trkpt>
      <trkpt lat="42.91675" lon="1.20846">
        <ele>724</ele>
        <time>2026-05-25T08:46:12.000Z</time>
      </trkpt>
      <trkpt lat="42.91679" lon="1.2084">
        <ele>723</ele>
        <time>2026-05-25T08:46:13.000Z</time>
      </trkpt>
      <trkpt lat="42.91683" lon="1.20833">
        <ele>723</ele>
        <time>2026-05-25T08:46:14.000Z</time>
      </trkpt>
      <trkpt lat="42.91687" lon="1.20829">
        <ele>722</ele>
        <time>2026-05-25T08:46:15.000Z</time>
      </trkpt>
      <trkpt lat="42.91689" lon="1.20826">
        <ele>723</ele>
        <time>2026-05-25T08:46:16.000Z</time>
      </trkpt>
      <trkpt lat="42.91692" lon="1.20823">
        <ele>722</ele>
        <time>2026-05-25T08:46:17.000Z</time>
      </trkpt>
      <trkpt lat="42.91694" lon="1.2082">
        <ele>722</ele>
        <time>2026-05-25T08:46:18.000Z</time>
      </trkpt>
      <trkpt lat="42.91696" lon="1.20818">
        <ele>721</ele>
        <time>2026-05-25T08:46:19.000Z</time>
      </trkpt>
      <trkpt lat="42.91698" lon="1.20814">
        <ele>721</ele>
        <time>2026-05-25T08:46:20.000Z</time>
      </trkpt>
      <trkpt lat="42.917" lon="1.2081">
        <ele>720</ele>
        <time>2026-05-25T08:46:21.000Z</time>
      </trkpt>
      <trkpt lat="42.91702" lon="1.20806">
        <ele>720</ele>
        <time>2026-05-25T08:46:22.000Z</time>
      </trkpt>
      <trkpt lat="42.91705" lon="1.208">
        <ele>719</ele>
        <time>2026-05-25T08:46:23.000Z</time>
      </trkpt>
      <trkpt lat="42.91708" lon="1.20795">
        <ele>718</ele>
        <time>2026-05-25T08:46:24.000Z</time>
      </trkpt>
      <trkpt lat="42.91711" lon="1.20791">
        <ele>718</ele>
        <time>2026-05-25T08:46:25.000Z</time>
      </trkpt>
      <trkpt lat="42.91714" lon="1.20787">
        <ele>717</ele>
        <time>2026-05-25T08:46:26.000Z</time>
      </trkpt>
      <trkpt lat="42.91716" lon="1.20783">
        <ele>717</ele>
        <time>2026-05-25T08:46:27.000Z</time>
      </trkpt>
      <trkpt lat="42.91719" lon="1.20781">
        <ele>716</ele>
        <time>2026-05-25T08:46:28.000Z</time>
      </trkpt>
      <trkpt lat="42.91721" lon="1.20778">
        <ele>716</ele>
        <time>2026-05-25T08:46:29.000Z</time>
      </trkpt>
      <trkpt lat="42.91723" lon="1.20776">
        <ele>716</ele>
        <time>2026-05-25T08:46:30.000Z</time>
      </trkpt>
      <trkpt lat="42.91725" lon="1.20772">
        <ele>715</ele>
        <time>2026-05-25T08:46:31.000Z</time>
      </trkpt>
      <trkpt lat="42.91727" lon="1.20768">
        <ele>716</ele>
        <time>2026-05-25T08:46:32.000Z</time>
      </trkpt>
      <trkpt lat="42.91728" lon="1.20763">
        <ele>716</ele>
        <time>2026-05-25T08:46:33.000Z</time>
      </trkpt>
      <trkpt lat="42.9173" lon="1.20758">
        <ele>716</ele>
        <time>2026-05-25T08:46:34.000Z</time>
      </trkpt>
      <trkpt lat="42.91731" lon="1.20753">
        <ele>715</ele>
        <time>2026-05-25T08:46:35.000Z</time>
      </trkpt>
      <trkpt lat="42.91733" lon="1.20748">
        <ele>715</ele>
        <time>2026-05-25T08:46:36.000Z</time>
      </trkpt>
      <trkpt lat="42.91736" lon="1.20743">
        <ele>715</ele>
        <time>2026-05-25T08:46:37.000Z</time>
      </trkpt>
      <trkpt lat="42.91738" lon="1.20738">
        <ele>714</ele>
        <time>2026-05-25T08:46:38.000Z</time>
      </trkpt>
      <trkpt lat="42.9174" lon="1.20734">
        <ele>714</ele>
        <time>2026-05-25T08:46:39.000Z</time>
      </trkpt>
      <trkpt lat="42.91742" lon="1.20729">
        <ele>713</ele>
        <time>2026-05-25T08:46:40.000Z</time>
      </trkpt>
      <trkpt lat="42.91744" lon="1.20723">
        <ele>713</ele>
        <time>2026-05-25T08:46:41.000Z</time>
      </trkpt>
      <trkpt lat="42.91746" lon="1.20718">
        <ele>713</ele>
        <time>2026-05-25T08:46:42.000Z</time>
      </trkpt>
      <trkpt lat="42.91747" lon="1.20713">
        <ele>712</ele>
        <time>2026-05-25T08:46:43.000Z</time>
      </trkpt>
      <trkpt lat="42.91749" lon="1.20709">
        <ele>711</ele>
        <time>2026-05-25T08:46:44.000Z</time>
      </trkpt>
      <trkpt lat="42.9175" lon="1.20705">
        <ele>711</ele>
        <time>2026-05-25T08:46:45.000Z</time>
      </trkpt>
      <trkpt lat="42.91751" lon="1.20701">
        <ele>711</ele>
        <time>2026-05-25T08:46:46.000Z</time>
      </trkpt>
      <trkpt lat="42.91751" lon="1.20697">
        <ele>710</ele>
        <time>2026-05-25T08:46:47.000Z</time>
      </trkpt>
      <trkpt lat="42.91752" lon="1.20693">
        <ele>710</ele>
        <time>2026-05-25T08:46:48.000Z</time>
      </trkpt>
      <trkpt lat="42.91754" lon="1.20687">
        <ele>710</ele>
        <time>2026-05-25T08:46:49.000Z</time>
      </trkpt>
      <trkpt lat="42.91755" lon="1.20683">
        <ele>709</ele>
        <time>2026-05-25T08:46:50.000Z</time>
      </trkpt>
      <trkpt lat="42.91757" lon="1.20679">
        <ele>709</ele>
        <time>2026-05-25T08:46:51.000Z</time>
      </trkpt>
      <trkpt lat="42.91759" lon="1.20675">
        <ele>709</ele>
        <time>2026-05-25T08:46:52.000Z</time>
      </trkpt>
      <trkpt lat="42.91761" lon="1.2067">
        <ele>708</ele>
        <time>2026-05-25T08:46:53.000Z</time>
      </trkpt>
      <trkpt lat="42.91763" lon="1.20665">
        <ele>708</ele>
        <time>2026-05-25T08:46:54.000Z</time>
      </trkpt>
      <trkpt lat="42.91766" lon="1.20661">
        <ele>708</ele>
        <time>2026-05-25T08:46:55.000Z</time>
      </trkpt>
      <trkpt lat="42.91768" lon="1.20656">
        <ele>707</ele>
        <time>2026-05-25T08:46:56.000Z</time>
      </trkpt>
      <trkpt lat="42.9177" lon="1.20653">
        <ele>707</ele>
        <time>2026-05-25T08:46:57.000Z</time>
      </trkpt>
      <trkpt lat="42.91771" lon="1.20651">
        <ele>707</ele>
        <time>2026-05-25T08:46:58.000Z</time>
      </trkpt>
      <trkpt lat="42.91773" lon="1.20649">
        <ele>706</ele>
        <time>2026-05-25T08:46:59.000Z</time>
      </trkpt>
      <trkpt lat="42.91775" lon="1.20646">
        <ele>706</ele>
        <time>2026-05-25T08:47:00.000Z</time>
      </trkpt>
      <trkpt lat="42.91777" lon="1.20644">
        <ele>705</ele>
        <time>2026-05-25T08:47:01.000Z</time>
      </trkpt>
      <trkpt lat="42.91779" lon="1.20642">
        <ele>705</ele>
        <time>2026-05-25T08:47:02.000Z</time>
      </trkpt>
      <trkpt lat="42.9178" lon="1.2064">
        <ele>705</ele>
        <time>2026-05-25T08:47:03.000Z</time>
      </trkpt>
      <trkpt lat="42.91782" lon="1.20638">
        <ele>705</ele>
        <time>2026-05-25T08:47:04.000Z</time>
      </trkpt>
      <trkpt lat="42.91784" lon="1.20635">
        <ele>704</ele>
        <time>2026-05-25T08:47:05.000Z</time>
      </trkpt>
      <trkpt lat="42.91786" lon="1.20634">
        <ele>705</ele>
        <time>2026-05-25T08:47:06.000Z</time>
      </trkpt>
      <trkpt lat="42.91789" lon="1.20633">
        <ele>705</ele>
        <time>2026-05-25T08:47:07.000Z</time>
      </trkpt>
      <trkpt lat="42.91791" lon="1.20629">
        <ele>704</ele>
        <time>2026-05-25T08:47:08.000Z</time>
      </trkpt>
      <trkpt lat="42.91793" lon="1.20626">
        <ele>704</ele>
        <time>2026-05-25T08:47:09.000Z</time>
      </trkpt>
      <trkpt lat="42.91796" lon="1.20622">
        <ele>704</ele>
        <time>2026-05-25T08:47:10.000Z</time>
      </trkpt>
      <trkpt lat="42.918" lon="1.20618">
        <ele>704</ele>
        <time>2026-05-25T08:47:11.000Z</time>
      </trkpt>
      <trkpt lat="42.91803" lon="1.20616">
        <ele>703</ele>
        <time>2026-05-25T08:47:12.000Z</time>
      </trkpt>
      <trkpt lat="42.91807" lon="1.20613">
        <ele>702</ele>
        <time>2026-05-25T08:47:13.000Z</time>
      </trkpt>
      <trkpt lat="42.91811" lon="1.20611">
        <ele>702</ele>
        <time>2026-05-25T08:47:14.000Z</time>
      </trkpt>
      <trkpt lat="42.91815" lon="1.20609">
        <ele>702</ele>
        <time>2026-05-25T08:47:15.000Z</time>
      </trkpt>
      <trkpt lat="42.91819" lon="1.20608">
        <ele>701</ele>
        <time>2026-05-25T08:47:16.000Z</time>
      </trkpt>
      <trkpt lat="42.91823" lon="1.20608">
        <ele>701</ele>
        <time>2026-05-25T08:47:17.000Z</time>
      </trkpt>
      <trkpt lat="42.91827" lon="1.20608">
        <ele>701</ele>
        <time>2026-05-25T08:47:18.000Z</time>
      </trkpt>
      <trkpt lat="42.9183" lon="1.20608">
        <ele>701</ele>
        <time>2026-05-25T08:47:19.000Z</time>
      </trkpt>
      <trkpt lat="42.91833" lon="1.20608">
        <ele>701</ele>
        <time>2026-05-25T08:47:20.000Z</time>
      </trkpt>
      <trkpt lat="42.91837" lon="1.20608">
        <ele>701</ele>
        <time>2026-05-25T08:47:21.000Z</time>
      </trkpt>
      <trkpt lat="42.9184" lon="1.20608">
        <ele>700</ele>
        <time>2026-05-25T08:47:22.000Z</time>
      </trkpt>
      <trkpt lat="42.91844" lon="1.20608">
        <ele>700</ele>
        <time>2026-05-25T08:47:23.000Z</time>
      </trkpt>
      <trkpt lat="42.91848" lon="1.20609">
        <ele>700</ele>
        <time>2026-05-25T08:47:24.000Z</time>
      </trkpt>
      <trkpt lat="42.91853" lon="1.2061">
        <ele>700</ele>
        <time>2026-05-25T08:47:25.000Z</time>
      </trkpt>
      <trkpt lat="42.91857" lon="1.2061">
        <ele>700</ele>
        <time>2026-05-25T08:47:26.000Z</time>
      </trkpt>
      <trkpt lat="42.91861" lon="1.2061">
        <ele>700</ele>
        <time>2026-05-25T08:47:27.000Z</time>
      </trkpt>
      <trkpt lat="42.91864" lon="1.2061">
        <ele>699</ele>
        <time>2026-05-25T08:47:28.000Z</time>
      </trkpt>
      <trkpt lat="42.91867" lon="1.20609">
        <ele>699</ele>
        <time>2026-05-25T08:47:29.000Z</time>
      </trkpt>
      <trkpt lat="42.91869" lon="1.20607">
        <ele>699</ele>
        <time>2026-05-25T08:47:30.000Z</time>
      </trkpt>
      <trkpt lat="42.91871" lon="1.20605">
        <ele>699</ele>
        <time>2026-05-25T08:47:31.000Z</time>
      </trkpt>
      <trkpt lat="42.91872" lon="1.20602">
        <ele>699</ele>
        <time>2026-05-25T08:47:32.000Z</time>
      </trkpt>
      <trkpt lat="42.91872" lon="1.20601">
        <ele>698</ele>
        <time>2026-05-25T08:47:33.000Z</time>
      </trkpt>
      <trkpt lat="42.91872" lon="1.206">
        <ele>698</ele>
        <time>2026-05-25T08:47:34.000Z</time>
      </trkpt>
      <trkpt lat="42.91873" lon="1.20599">
        <ele>698</ele>
        <time>2026-05-25T08:47:35.000Z</time>
      </trkpt>
      <trkpt lat="42.91873" lon="1.20598">
        <ele>699</ele>
        <time>2026-05-25T08:47:36.000Z</time>
      </trkpt>
      <trkpt lat="42.91874" lon="1.20598">
        <ele>699</ele>
        <time>2026-05-25T08:47:37.000Z</time>
      </trkpt>
      <trkpt lat="42.91873" lon="1.20597">
        <ele>699</ele>
        <time>2026-05-25T08:47:38.000Z</time>
      </trkpt>
      <trkpt lat="42.91872" lon="1.20596">
        <ele>699</ele>
        <time>2026-05-25T08:47:39.000Z</time>
      </trkpt>
      <trkpt lat="42.91871" lon="1.20595">
        <ele>698</ele>
        <time>2026-05-25T08:47:40.000Z</time>
      </trkpt>
      <trkpt lat="42.9187" lon="1.20594">
        <ele>698</ele>
        <time>2026-05-25T08:47:41.000Z</time>
      </trkpt>
      <trkpt lat="42.91869" lon="1.20591">
        <ele>698</ele>
        <time>2026-05-25T08:47:42.000Z</time>
      </trkpt>
      <trkpt lat="42.91868" lon="1.20588">
        <ele>698</ele>
        <time>2026-05-25T08:47:43.000Z</time>
      </trkpt>
      <trkpt lat="42.91867" lon="1.20585">
        <ele>697</ele>
        <time>2026-05-25T08:47:44.000Z</time>
      </trkpt>
      <trkpt lat="42.91866" lon="1.20582">
        <ele>696</ele>
        <time>2026-05-25T08:47:45.000Z</time>
      </trkpt>
      <trkpt lat="42.91865" lon="1.20579">
        <ele>695</ele>
        <time>2026-05-25T08:47:46.000Z</time>
      </trkpt>
      <trkpt lat="42.91865" lon="1.20575">
        <ele>695</ele>
        <time>2026-05-25T08:47:47.000Z</time>
      </trkpt>
      <trkpt lat="42.91865" lon="1.20571">
        <ele>695</ele>
        <time>2026-05-25T08:47:48.000Z</time>
      </trkpt>
      <trkpt lat="42.91864" lon="1.20567">
        <ele>695</ele>
        <time>2026-05-25T08:47:49.000Z</time>
      </trkpt>
      <trkpt lat="42.91864" lon="1.20563">
        <ele>695</ele>
        <time>2026-05-25T08:47:50.000Z</time>
      </trkpt>
      <trkpt lat="42.91864" lon="1.20558">
        <ele>696</ele>
        <time>2026-05-25T08:47:51.000Z</time>
      </trkpt>
      <trkpt lat="42.91866" lon="1.20553">
        <ele>695</ele>
        <time>2026-05-25T08:47:52.000Z</time>
      </trkpt>
      <trkpt lat="42.91867" lon="1.20549">
        <ele>693</ele>
        <time>2026-05-25T08:47:53.000Z</time>
      </trkpt>
      <trkpt lat="42.91869" lon="1.20545">
        <ele>692</ele>
        <time>2026-05-25T08:47:54.000Z</time>
      </trkpt>
      <trkpt lat="42.9187" lon="1.2054">
        <ele>690</ele>
        <time>2026-05-25T08:47:55.000Z</time>
      </trkpt>
      <trkpt lat="42.91872" lon="1.20536">
        <ele>690</ele>
        <time>2026-05-25T08:47:56.000Z</time>
      </trkpt>
      <trkpt lat="42.91873" lon="1.20531">
        <ele>689</ele>
        <time>2026-05-25T08:47:57.000Z</time>
      </trkpt>
      <trkpt lat="42.91875" lon="1.20526">
        <ele>688</ele>
        <time>2026-05-25T08:47:58.000Z</time>
      </trkpt>
      <trkpt lat="42.91876" lon="1.20522">
        <ele>687</ele>
        <time>2026-05-25T08:47:59.000Z</time>
      </trkpt>
      <trkpt lat="42.91877" lon="1.20518">
        <ele>687</ele>
        <time>2026-05-25T08:48:00.000Z</time>
      </trkpt>
      <trkpt lat="42.91878" lon="1.20513">
        <ele>686</ele>
        <time>2026-05-25T08:48:01.000Z</time>
      </trkpt>
      <trkpt lat="42.91879" lon="1.20509">
        <ele>685</ele>
        <time>2026-05-25T08:48:02.000Z</time>
      </trkpt>
      <trkpt lat="42.9188" lon="1.20504">
        <ele>684</ele>
        <time>2026-05-25T08:48:03.000Z</time>
      </trkpt>
      <trkpt lat="42.91881" lon="1.205">
        <ele>683</ele>
        <time>2026-05-25T08:48:04.000Z</time>
      </trkpt>
      <trkpt lat="42.91882" lon="1.20495">
        <ele>683</ele>
        <time>2026-05-25T08:48:05.000Z</time>
      </trkpt>
      <trkpt lat="42.91884" lon="1.2049">
        <ele>683</ele>
        <time>2026-05-25T08:48:06.000Z</time>
      </trkpt>
      <trkpt lat="42.91886" lon="1.20484">
        <ele>683</ele>
        <time>2026-05-25T08:48:07.000Z</time>
      </trkpt>
      <trkpt lat="42.91888" lon="1.2048">
        <ele>681</ele>
        <time>2026-05-25T08:48:08.000Z</time>
      </trkpt>
      <trkpt lat="42.91889" lon="1.20474">
        <ele>681</ele>
        <time>2026-05-25T08:48:09.000Z</time>
      </trkpt>
      <trkpt lat="42.91891" lon="1.20469">
        <ele>682</ele>
        <time>2026-05-25T08:48:10.000Z</time>
      </trkpt>
      <trkpt lat="42.91893" lon="1.20462">
        <ele>682</ele>
        <time>2026-05-25T08:48:11.000Z</time>
      </trkpt>
      <trkpt lat="42.91894" lon="1.20457">
        <ele>682</ele>
        <time>2026-05-25T08:48:12.000Z</time>
      </trkpt>
      <trkpt lat="42.91895" lon="1.20453">
        <ele>681</ele>
        <time>2026-05-25T08:48:13.000Z</time>
      </trkpt>
      <trkpt lat="42.91895" lon="1.20449">
        <ele>681</ele>
        <time>2026-05-25T08:48:14.000Z</time>
      </trkpt>
      <trkpt lat="42.91896" lon="1.20443">
        <ele>682</ele>
        <time>2026-05-25T08:48:15.000Z</time>
      </trkpt>
      <trkpt lat="42.91898" lon="1.20437">
        <ele>682</ele>
        <time>2026-05-25T08:48:16.000Z</time>
      </trkpt>
      <trkpt lat="42.919" lon="1.20433">
        <ele>681</ele>
        <time>2026-05-25T08:48:17.000Z</time>
      </trkpt>
      <trkpt lat="42.91902" lon="1.20429">
        <ele>681</ele>
        <time>2026-05-25T08:48:18.000Z</time>
      </trkpt>
      <trkpt lat="42.91904" lon="1.20425">
        <ele>680</ele>
        <time>2026-05-25T08:48:19.000Z</time>
      </trkpt>
      <trkpt lat="42.91904" lon="1.2042">
        <ele>680</ele>
        <time>2026-05-25T08:48:20.000Z</time>
      </trkpt>
      <trkpt lat="42.91905" lon="1.20415">
        <ele>680</ele>
        <time>2026-05-25T08:48:21.000Z</time>
      </trkpt>
      <trkpt lat="42.91906" lon="1.20411">
        <ele>680</ele>
        <time>2026-05-25T08:48:22.000Z</time>
      </trkpt>
      <trkpt lat="42.91908" lon="1.20406">
        <ele>680</ele>
        <time>2026-05-25T08:48:23.000Z</time>
      </trkpt>
      <trkpt lat="42.91909" lon="1.20401">
        <ele>680</ele>
        <time>2026-05-25T08:48:24.000Z</time>
      </trkpt>
      <trkpt lat="42.9191" lon="1.20396">
        <ele>680</ele>
        <time>2026-05-25T08:48:25.000Z</time>
      </trkpt>
      <trkpt lat="42.9191" lon="1.20391">
        <ele>681</ele>
        <time>2026-05-25T08:48:26.000Z</time>
      </trkpt>
      <trkpt lat="42.9191" lon="1.20386">
        <ele>682</ele>
        <time>2026-05-25T08:48:27.000Z</time>
      </trkpt>
      <trkpt lat="42.9191" lon="1.20383">
        <ele>682</ele>
        <time>2026-05-25T08:48:28.000Z</time>
      </trkpt>
      <trkpt lat="42.91909" lon="1.2038">
        <ele>682</ele>
        <time>2026-05-25T08:48:29.000Z</time>
      </trkpt>
      <trkpt lat="42.9191" lon="1.20376">
        <ele>683</ele>
        <time>2026-05-25T08:48:30.000Z</time>
      </trkpt>
      <trkpt lat="42.91909" lon="1.20372">
        <ele>684</ele>
        <time>2026-05-25T08:48:31.000Z</time>
      </trkpt>
      <trkpt lat="42.91908" lon="1.20368">
        <ele>684</ele>
        <time>2026-05-25T08:48:32.000Z</time>
      </trkpt>
      <trkpt lat="42.91907" lon="1.20364">
        <ele>684</ele>
        <time>2026-05-25T08:48:33.000Z</time>
      </trkpt>
      <trkpt lat="42.91907" lon="1.2036">
        <ele>684</ele>
        <time>2026-05-25T08:48:34.000Z</time>
      </trkpt>
      <trkpt lat="42.91907" lon="1.20355">
        <ele>685</ele>
        <time>2026-05-25T08:48:35.000Z</time>
      </trkpt>
      <trkpt lat="42.91906" lon="1.20351">
        <ele>685</ele>
        <time>2026-05-25T08:48:36.000Z</time>
      </trkpt>
      <trkpt lat="42.91906" lon="1.20345">
        <ele>686</ele>
        <time>2026-05-25T08:48:37.000Z</time>
      </trkpt>
      <trkpt lat="42.91905" lon="1.20341">
        <ele>687</ele>
        <time>2026-05-25T08:48:38.000Z</time>
      </trkpt>
      <trkpt lat="42.91905" lon="1.20336">
        <ele>687</ele>
        <time>2026-05-25T08:48:39.000Z</time>
      </trkpt>
      <trkpt lat="42.91904" lon="1.20332">
        <ele>687</ele>
        <time>2026-05-25T08:48:40.000Z</time>
      </trkpt>
      <trkpt lat="42.91901" lon="1.20326">
        <ele>686</ele>
        <time>2026-05-25T08:48:41.000Z</time>
      </trkpt>
      <trkpt lat="42.919" lon="1.2032">
        <ele>686</ele>
        <time>2026-05-25T08:48:42.000Z</time>
      </trkpt>
      <trkpt lat="42.91899" lon="1.20315">
        <ele>687</ele>
        <time>2026-05-25T08:48:43.000Z</time>
      </trkpt>
      <trkpt lat="42.91897" lon="1.20311">
        <ele>688</ele>
        <time>2026-05-25T08:48:44.000Z</time>
      </trkpt>
      <trkpt lat="42.91896" lon="1.20306">
        <ele>689</ele>
        <time>2026-05-25T08:48:45.000Z</time>
      </trkpt>
      <trkpt lat="42.91894" lon="1.20302">
        <ele>689</ele>
        <time>2026-05-25T08:48:46.000Z</time>
      </trkpt>
      <trkpt lat="42.91894" lon="1.20297">
        <ele>689</ele>
        <time>2026-05-25T08:48:47.000Z</time>
      </trkpt>
      <trkpt lat="42.91892" lon="1.20294">
        <ele>689</ele>
        <time>2026-05-25T08:48:48.000Z</time>
      </trkpt>
      <trkpt lat="42.91892" lon="1.20292">
        <ele>689</ele>
        <time>2026-05-25T08:48:49.000Z</time>
      </trkpt>
      <trkpt lat="42.91891" lon="1.20289">
        <ele>689</ele>
        <time>2026-05-25T08:48:50.000Z</time>
      </trkpt>
      <trkpt lat="42.91891" lon="1.20286">
        <ele>689</ele>
        <time>2026-05-25T08:48:51.000Z</time>
      </trkpt>
      <trkpt lat="42.91892" lon="1.20283">
        <ele>689</ele>
        <time>2026-05-25T08:48:52.000Z</time>
      </trkpt>
      <trkpt lat="42.91892" lon="1.20278">
        <ele>689</ele>
        <time>2026-05-25T08:48:53.000Z</time>
      </trkpt>
      <trkpt lat="42.91891" lon="1.20273">
        <ele>689</ele>
        <time>2026-05-25T08:48:54.000Z</time>
      </trkpt>
      <trkpt lat="42.91891" lon="1.20269">
        <ele>688</ele>
        <time>2026-05-25T08:48:55.000Z</time>
      </trkpt>
      <trkpt lat="42.91891" lon="1.20264">
        <ele>688</ele>
        <time>2026-05-25T08:48:56.000Z</time>
      </trkpt>
      <trkpt lat="42.91892" lon="1.20261">
        <ele>688</ele>
        <time>2026-05-25T08:48:57.000Z</time>
      </trkpt>
      <trkpt lat="42.91892" lon="1.20257">
        <ele>687</ele>
        <time>2026-05-25T08:48:58.000Z</time>
      </trkpt>
      <trkpt lat="42.91892" lon="1.20253">
        <ele>687</ele>
        <time>2026-05-25T08:48:59.000Z</time>
      </trkpt>
      <trkpt lat="42.91892" lon="1.20249">
        <ele>687</ele>
        <time>2026-05-25T08:49:00.000Z</time>
      </trkpt>
      <trkpt lat="42.91892" lon="1.20244">
        <ele>686</ele>
        <time>2026-05-25T08:49:01.000Z</time>
      </trkpt>
      <trkpt lat="42.91892" lon="1.2024">
        <ele>687</ele>
        <time>2026-05-25T08:49:02.000Z</time>
      </trkpt>
      <trkpt lat="42.91892" lon="1.20236">
        <ele>687</ele>
        <time>2026-05-25T08:49:03.000Z</time>
      </trkpt>
      <trkpt lat="42.91892" lon="1.20232">
        <ele>686</ele>
        <time>2026-05-25T08:49:04.000Z</time>
      </trkpt>
      <trkpt lat="42.91892" lon="1.20227">
        <ele>686</ele>
        <time>2026-05-25T08:49:05.000Z</time>
      </trkpt>
      <trkpt lat="42.91892" lon="1.20223">
        <ele>686</ele>
        <time>2026-05-25T08:49:06.000Z</time>
      </trkpt>
      <trkpt lat="42.91892" lon="1.20218">
        <ele>686</ele>
        <time>2026-05-25T08:49:07.000Z</time>
      </trkpt>
      <trkpt lat="42.91892" lon="1.20214">
        <ele>685</ele>
        <time>2026-05-25T08:49:08.000Z</time>
      </trkpt>
      <trkpt lat="42.91891" lon="1.2021">
        <ele>685</ele>
        <time>2026-05-25T08:49:09.000Z</time>
      </trkpt>
      <trkpt lat="42.91891" lon="1.20205">
        <ele>685</ele>
        <time>2026-05-25T08:49:10.000Z</time>
      </trkpt>
      <trkpt lat="42.91891" lon="1.20201">
        <ele>685</ele>
        <time>2026-05-25T08:49:11.000Z</time>
      </trkpt>
      <trkpt lat="42.91891" lon="1.20196">
        <ele>685</ele>
        <time>2026-05-25T08:49:12.000Z</time>
      </trkpt>
      <trkpt lat="42.9189" lon="1.2019">
        <ele>685</ele>
        <time>2026-05-25T08:49:13.000Z</time>
      </trkpt>
      <trkpt lat="42.91888" lon="1.20186">
        <ele>685</ele>
        <time>2026-05-25T08:49:14.000Z</time>
      </trkpt>
      <trkpt lat="42.91887" lon="1.20182">
        <ele>685</ele>
        <time>2026-05-25T08:49:15.000Z</time>
      </trkpt>
      <trkpt lat="42.91885" lon="1.20178">
        <ele>685</ele>
        <time>2026-05-25T08:49:16.000Z</time>
      </trkpt>
      <trkpt lat="42.91883" lon="1.20173">
        <ele>685</ele>
        <time>2026-05-25T08:49:17.000Z</time>
      </trkpt>
      <trkpt lat="42.91881" lon="1.2017">
        <ele>685</ele>
        <time>2026-05-25T08:49:18.000Z</time>
      </trkpt>
      <trkpt lat="42.91878" lon="1.20166">
        <ele>685</ele>
        <time>2026-05-25T08:49:19.000Z</time>
      </trkpt>
      <trkpt lat="42.91876" lon="1.20163">
        <ele>685</ele>
        <time>2026-05-25T08:49:20.000Z</time>
      </trkpt>
      <trkpt lat="42.91873" lon="1.2016">
        <ele>685</ele>
        <time>2026-05-25T08:49:21.000Z</time>
      </trkpt>
      <trkpt lat="42.9187" lon="1.20156">
        <ele>686</ele>
        <time>2026-05-25T08:49:22.000Z</time>
      </trkpt>
      <trkpt lat="42.91867" lon="1.20153">
        <ele>686</ele>
        <time>2026-05-25T08:49:23.000Z</time>
      </trkpt>
      <trkpt lat="42.91864" lon="1.20149">
        <ele>686</ele>
        <time>2026-05-25T08:49:24.000Z</time>
      </trkpt>
      <trkpt lat="42.91862" lon="1.20144">
        <ele>686</ele>
        <time>2026-05-25T08:49:25.000Z</time>
      </trkpt>
      <trkpt lat="42.9186" lon="1.20138">
        <ele>686</ele>
        <time>2026-05-25T08:49:26.000Z</time>
      </trkpt>
      <trkpt lat="42.91859" lon="1.20132">
        <ele>686</ele>
        <time>2026-05-25T08:49:27.000Z</time>
      </trkpt>
      <trkpt lat="42.91859" lon="1.20123">
        <ele>686</ele>
        <time>2026-05-25T08:49:28.000Z</time>
      </trkpt>
      <trkpt lat="42.91861" lon="1.20116">
        <ele>685</ele>
        <time>2026-05-25T08:49:29.000Z</time>
      </trkpt>
      <trkpt lat="42.91861" lon="1.2011">
        <ele>685</ele>
        <time>2026-05-25T08:49:30.000Z</time>
      </trkpt>
      <trkpt lat="42.91862" lon="1.20106">
        <ele>686</ele>
        <time>2026-05-25T08:49:31.000Z</time>
      </trkpt>
      <trkpt lat="42.91862" lon="1.201">
        <ele>687</ele>
        <time>2026-05-25T08:49:32.000Z</time>
      </trkpt>
      <trkpt lat="42.91862" lon="1.20095">
        <ele>687</ele>
        <time>2026-05-25T08:49:33.000Z</time>
      </trkpt>
      <trkpt lat="42.91862" lon="1.20091">
        <ele>688</ele>
        <time>2026-05-25T08:49:34.000Z</time>
      </trkpt>
      <trkpt lat="42.91863" lon="1.20088">
        <ele>688</ele>
        <time>2026-05-25T08:49:35.000Z</time>
      </trkpt>
      <trkpt lat="42.91864" lon="1.20084">
        <ele>688</ele>
        <time>2026-05-25T08:49:36.000Z</time>
      </trkpt>
      <trkpt lat="42.91864" lon="1.2008">
        <ele>688</ele>
        <time>2026-05-25T08:49:37.000Z</time>
      </trkpt>
      <trkpt lat="42.91865" lon="1.20077">
        <ele>688</ele>
        <time>2026-05-25T08:49:38.000Z</time>
      </trkpt>
      <trkpt lat="42.91866" lon="1.20073">
        <ele>689</ele>
        <time>2026-05-25T08:49:39.000Z</time>
      </trkpt>
      <trkpt lat="42.91867" lon="1.20069">
        <ele>689</ele>
        <time>2026-05-25T08:49:40.000Z</time>
      </trkpt>
      <trkpt lat="42.91868" lon="1.20066">
        <ele>689</ele>
        <time>2026-05-25T08:49:41.000Z</time>
      </trkpt>
      <trkpt lat="42.9187" lon="1.20063">
        <ele>690</ele>
        <time>2026-05-25T08:49:42.000Z</time>
      </trkpt>
      <trkpt lat="42.91871" lon="1.20059">
        <ele>690</ele>
        <time>2026-05-25T08:49:43.000Z</time>
      </trkpt>
      <trkpt lat="42.91872" lon="1.20055">
        <ele>690</ele>
        <time>2026-05-25T08:49:44.000Z</time>
      </trkpt>
      <trkpt lat="42.91873" lon="1.20053">
        <ele>691</ele>
        <time>2026-05-25T08:49:45.000Z</time>
      </trkpt>
      <trkpt lat="42.91874" lon="1.2005">
        <ele>691</ele>
        <time>2026-05-25T08:49:46.000Z</time>
      </trkpt>
      <trkpt lat="42.91874" lon="1.20047">
        <ele>691</ele>
        <time>2026-05-25T08:49:47.000Z</time>
      </trkpt>
      <trkpt lat="42.91875" lon="1.20045">
        <ele>691</ele>
        <time>2026-05-25T08:49:48.000Z</time>
      </trkpt>
      <trkpt lat="42.91875" lon="1.20042">
        <ele>692</ele>
        <time>2026-05-25T08:49:49.000Z</time>
      </trkpt>
      <trkpt lat="42.91875" lon="1.20038">
        <ele>692</ele>
        <time>2026-05-25T08:49:50.000Z</time>
      </trkpt>
      <trkpt lat="42.91876" lon="1.20035">
        <ele>692</ele>
        <time>2026-05-25T08:49:51.000Z</time>
      </trkpt>
      <trkpt lat="42.91876" lon="1.20032">
        <ele>692</ele>
        <time>2026-05-25T08:49:52.000Z</time>
      </trkpt>
      <trkpt lat="42.91877" lon="1.20029">
        <ele>693</ele>
        <time>2026-05-25T08:49:53.000Z</time>
      </trkpt>
      <trkpt lat="42.91878" lon="1.20025">
        <ele>693</ele>
        <time>2026-05-25T08:49:54.000Z</time>
      </trkpt>
      <trkpt lat="42.91879" lon="1.20021">
        <ele>693</ele>
        <time>2026-05-25T08:49:55.000Z</time>
      </trkpt>
      <trkpt lat="42.9188" lon="1.20018">
        <ele>694</ele>
        <time>2026-05-25T08:49:56.000Z</time>
      </trkpt>
      <trkpt lat="42.91881" lon="1.20014">
        <ele>694</ele>
        <time>2026-05-25T08:49:57.000Z</time>
      </trkpt>
      <trkpt lat="42.91883" lon="1.20011">
        <ele>694</ele>
        <time>2026-05-25T08:49:58.000Z</time>
      </trkpt>
      <trkpt lat="42.91884" lon="1.20007">
        <ele>694</ele>
        <time>2026-05-25T08:49:59.000Z</time>
      </trkpt>
      <trkpt lat="42.91885" lon="1.20004">
        <ele>694</ele>
        <time>2026-05-25T08:50:00.000Z</time>
      </trkpt>
      <trkpt lat="42.91886" lon="1.20001">
        <ele>694</ele>
        <time>2026-05-25T08:50:01.000Z</time>
      </trkpt>
      <trkpt lat="42.91887" lon="1.19998">
        <ele>694</ele>
        <time>2026-05-25T08:50:02.000Z</time>
      </trkpt>
      <trkpt lat="42.91888" lon="1.19995">
        <ele>694</ele>
        <time>2026-05-25T08:50:03.000Z</time>
      </trkpt>
      <trkpt lat="42.91889" lon="1.19992">
        <ele>694</ele>
        <time>2026-05-25T08:50:04.000Z</time>
      </trkpt>
      <trkpt lat="42.91891" lon="1.19989">
        <ele>695</ele>
        <time>2026-05-25T08:50:05.000Z</time>
      </trkpt>
      <trkpt lat="42.91892" lon="1.19986">
        <ele>695</ele>
        <time>2026-05-25T08:50:06.000Z</time>
      </trkpt>
      <trkpt lat="42.91892" lon="1.19983">
        <ele>695</ele>
        <time>2026-05-25T08:50:07.000Z</time>
      </trkpt>
      <trkpt lat="42.91893" lon="1.19979">
        <ele>695</ele>
        <time>2026-05-25T08:50:08.000Z</time>
      </trkpt>
      <trkpt lat="42.91894" lon="1.19977">
        <ele>694</ele>
        <time>2026-05-25T08:50:09.000Z</time>
      </trkpt>
      <trkpt lat="42.91895" lon="1.19974">
        <ele>695</ele>
        <time>2026-05-25T08:50:10.000Z</time>
      </trkpt>
      <trkpt lat="42.91896" lon="1.19971">
        <ele>695</ele>
        <time>2026-05-25T08:50:11.000Z</time>
      </trkpt>
      <trkpt lat="42.91896" lon="1.1997">
        <ele>696</ele>
        <time>2026-05-25T08:50:12.000Z</time>
      </trkpt>
      <trkpt lat="42.91897" lon="1.19967">
        <ele>696</ele>
        <time>2026-05-25T08:50:13.000Z</time>
      </trkpt>
      <trkpt lat="42.91898" lon="1.19964">
        <ele>695</ele>
        <time>2026-05-25T08:50:14.000Z</time>
      </trkpt>
      <trkpt lat="42.91899" lon="1.19961">
        <ele>695</ele>
        <time>2026-05-25T08:50:15.000Z</time>
      </trkpt>
      <trkpt lat="42.919" lon="1.19958">
        <ele>695</ele>
        <time>2026-05-25T08:50:16.000Z</time>
      </trkpt>
      <trkpt lat="42.91901" lon="1.19953">
        <ele>695</ele>
        <time>2026-05-25T08:50:17.000Z</time>
      </trkpt>
      <trkpt lat="42.91902" lon="1.19949">
        <ele>695</ele>
        <time>2026-05-25T08:50:18.000Z</time>
      </trkpt>
      <trkpt lat="42.91902" lon="1.19945">
        <ele>695</ele>
        <time>2026-05-25T08:50:19.000Z</time>
      </trkpt>
      <trkpt lat="42.91902" lon="1.19941">
        <ele>695</ele>
        <time>2026-05-25T08:50:20.000Z</time>
      </trkpt>
      <trkpt lat="42.91902" lon="1.19937">
        <ele>695</ele>
        <time>2026-05-25T08:50:21.000Z</time>
      </trkpt>
      <trkpt lat="42.91902" lon="1.19934">
        <ele>695</ele>
        <time>2026-05-25T08:50:22.000Z</time>
      </trkpt>
      <trkpt lat="42.91903" lon="1.19931">
        <ele>695</ele>
        <time>2026-05-25T08:50:23.000Z</time>
      </trkpt>
      <trkpt lat="42.91904" lon="1.19926">
        <ele>695</ele>
        <time>2026-05-25T08:50:24.000Z</time>
      </trkpt>
      <trkpt lat="42.91904" lon="1.19921">
        <ele>695</ele>
        <time>2026-05-25T08:50:25.000Z</time>
      </trkpt>
      <trkpt lat="42.91905" lon="1.19916">
        <ele>694</ele>
        <time>2026-05-25T08:50:26.000Z</time>
      </trkpt>
      <trkpt lat="42.91905" lon="1.19911">
        <ele>694</ele>
        <time>2026-05-25T08:50:27.000Z</time>
      </trkpt>
      <trkpt lat="42.91905" lon="1.19905">
        <ele>693</ele>
        <time>2026-05-25T08:50:28.000Z</time>
      </trkpt>
      <trkpt lat="42.91905" lon="1.19895">
        <ele>693</ele>
        <time>2026-05-25T08:50:29.000Z</time>
      </trkpt>
      <trkpt lat="42.91904" lon="1.19887">
        <ele>692</ele>
        <time>2026-05-25T08:50:30.000Z</time>
      </trkpt>
      <trkpt lat="42.91904" lon="1.19878">
        <ele>691</ele>
        <time>2026-05-25T08:50:31.000Z</time>
      </trkpt>
      <trkpt lat="42.91903" lon="1.19869">
        <ele>691</ele>
        <time>2026-05-25T08:50:32.000Z</time>
      </trkpt>
      <trkpt lat="42.91904" lon="1.1986">
        <ele>690</ele>
        <time>2026-05-25T08:50:33.000Z</time>
      </trkpt>
      <trkpt lat="42.91906" lon="1.19851">
        <ele>691</ele>
        <time>2026-05-25T08:50:34.000Z</time>
      </trkpt>
      <trkpt lat="42.91908" lon="1.19841">
        <ele>690</ele>
        <time>2026-05-25T08:50:35.000Z</time>
      </trkpt>
      <trkpt lat="42.91911" lon="1.19832">
        <ele>690</ele>
        <time>2026-05-25T08:50:36.000Z</time>
      </trkpt>
      <trkpt lat="42.91914" lon="1.19822">
        <ele>690</ele>
        <time>2026-05-25T08:50:37.000Z</time>
      </trkpt>
      <trkpt lat="42.91917" lon="1.19814">
        <ele>690</ele>
        <time>2026-05-25T08:50:38.000Z</time>
      </trkpt>
      <trkpt lat="42.9192" lon="1.19807">
        <ele>690</ele>
        <time>2026-05-25T08:50:39.000Z</time>
      </trkpt>
      <trkpt lat="42.91922" lon="1.198">
        <ele>689</ele>
        <time>2026-05-25T08:50:40.000Z</time>
      </trkpt>
      <trkpt lat="42.91925" lon="1.19792">
        <ele>689</ele>
        <time>2026-05-25T08:50:41.000Z</time>
      </trkpt>
      <trkpt lat="42.91931" lon="1.19784">
        <ele>689</ele>
        <time>2026-05-25T08:50:42.000Z</time>
      </trkpt>
      <trkpt lat="42.91936" lon="1.19775">
        <ele>687</ele>
        <time>2026-05-25T08:50:43.000Z</time>
      </trkpt>
      <trkpt lat="42.91942" lon="1.19766">
        <ele>688</ele>
        <time>2026-05-25T08:50:44.000Z</time>
      </trkpt>
      <trkpt lat="42.91947" lon="1.19757">
        <ele>687</ele>
        <time>2026-05-25T08:50:45.000Z</time>
      </trkpt>
      <trkpt lat="42.91952" lon="1.19749">
        <ele>687</ele>
        <time>2026-05-25T08:50:46.000Z</time>
      </trkpt>
      <trkpt lat="42.91957" lon="1.19742">
        <ele>687</ele>
        <time>2026-05-25T08:50:47.000Z</time>
      </trkpt>
      <trkpt lat="42.91962" lon="1.19737">
        <ele>687</ele>
        <time>2026-05-25T08:50:48.000Z</time>
      </trkpt>
      <trkpt lat="42.91967" lon="1.19735">
        <ele>686</ele>
        <time>2026-05-25T08:50:49.000Z</time>
      </trkpt>
      <trkpt lat="42.9197" lon="1.19734">
        <ele>686</ele>
        <time>2026-05-25T08:50:50.000Z</time>
      </trkpt>
      <trkpt lat="42.91973" lon="1.19733">
        <ele>685</ele>
        <time>2026-05-25T08:50:51.000Z</time>
      </trkpt>
      <trkpt lat="42.91972" lon="1.19731">
        <ele>685</ele>
        <time>2026-05-25T08:50:52.000Z</time>
      </trkpt>
      <trkpt lat="42.91971" lon="1.1973">
        <ele>685</ele>
        <time>2026-05-25T08:50:53.000Z</time>
      </trkpt>
      <trkpt lat="42.91969" lon="1.19728">
        <ele>685</ele>
        <time>2026-05-25T08:50:54.000Z</time>
      </trkpt>
      <trkpt lat="42.91966" lon="1.19726">
        <ele>685</ele>
        <time>2026-05-25T08:50:55.000Z</time>
      </trkpt>
      <trkpt lat="42.91964" lon="1.19723">
        <ele>685</ele>
        <time>2026-05-25T08:50:56.000Z</time>
      </trkpt>
      <trkpt lat="42.91961" lon="1.1972">
        <ele>685</ele>
        <time>2026-05-25T08:50:57.000Z</time>
      </trkpt>
      <trkpt lat="42.91957" lon="1.19716">
        <ele>684</ele>
        <time>2026-05-25T08:50:58.000Z</time>
      </trkpt>
      <trkpt lat="42.91954" lon="1.19712">
        <ele>684</ele>
        <time>2026-05-25T08:50:59.000Z</time>
      </trkpt>
      <trkpt lat="42.91952" lon="1.19709">
        <ele>683</ele>
        <time>2026-05-25T08:51:00.000Z</time>
      </trkpt>
      <trkpt lat="42.91948" lon="1.19705">
        <ele>683</ele>
        <time>2026-05-25T08:51:01.000Z</time>
      </trkpt>
      <trkpt lat="42.91946" lon="1.19701">
        <ele>684</ele>
        <time>2026-05-25T08:51:02.000Z</time>
      </trkpt>
      <trkpt lat="42.91944" lon="1.19696">
        <ele>684</ele>
        <time>2026-05-25T08:51:03.000Z</time>
      </trkpt>
      <trkpt lat="42.91942" lon="1.19691">
        <ele>684</ele>
        <time>2026-05-25T08:51:04.000Z</time>
      </trkpt>
      <trkpt lat="42.91942" lon="1.19686">
        <ele>684</ele>
        <time>2026-05-25T08:51:05.000Z</time>
      </trkpt>
      <trkpt lat="42.91942" lon="1.1968">
        <ele>685</ele>
        <time>2026-05-25T08:51:06.000Z</time>
      </trkpt>
      <trkpt lat="42.91942" lon="1.19676">
        <ele>684</ele>
        <time>2026-05-25T08:51:07.000Z</time>
      </trkpt>
      <trkpt lat="42.91944" lon="1.19672">
        <ele>684</ele>
        <time>2026-05-25T08:51:08.000Z</time>
      </trkpt>
      <trkpt lat="42.91945" lon="1.19667">
        <ele>684</ele>
        <time>2026-05-25T08:51:09.000Z</time>
      </trkpt>
      <trkpt lat="42.91946" lon="1.19663">
        <ele>683</ele>
        <time>2026-05-25T08:51:10.000Z</time>
      </trkpt>
      <trkpt lat="42.91948" lon="1.19658">
        <ele>683</ele>
        <time>2026-05-25T08:51:11.000Z</time>
      </trkpt>
      <trkpt lat="42.91949" lon="1.19654">
        <ele>682</ele>
        <time>2026-05-25T08:51:12.000Z</time>
      </trkpt>
      <trkpt lat="42.9195" lon="1.19649">
        <ele>681</ele>
        <time>2026-05-25T08:51:13.000Z</time>
      </trkpt>
      <trkpt lat="42.91952" lon="1.19644">
        <ele>680</ele>
        <time>2026-05-25T08:51:14.000Z</time>
      </trkpt>
      <trkpt lat="42.91953" lon="1.1964">
        <ele>680</ele>
        <time>2026-05-25T08:51:15.000Z</time>
      </trkpt>
      <trkpt lat="42.91953" lon="1.19636">
        <ele>680</ele>
        <time>2026-05-25T08:51:16.000Z</time>
      </trkpt>
      <trkpt lat="42.91954" lon="1.19632">
        <ele>680</ele>
        <time>2026-05-25T08:51:17.000Z</time>
      </trkpt>
      <trkpt lat="42.91955" lon="1.19628">
        <ele>680</ele>
        <time>2026-05-25T08:51:18.000Z</time>
      </trkpt>
      <trkpt lat="42.91956" lon="1.19625">
        <ele>680</ele>
        <time>2026-05-25T08:51:19.000Z</time>
      </trkpt>
      <trkpt lat="42.91957" lon="1.19621">
        <ele>680</ele>
        <time>2026-05-25T08:51:20.000Z</time>
      </trkpt>
      <trkpt lat="42.91959" lon="1.19618">
        <ele>680</ele>
        <time>2026-05-25T08:51:21.000Z</time>
      </trkpt>
      <trkpt lat="42.9196" lon="1.19614">
        <ele>680</ele>
        <time>2026-05-25T08:51:22.000Z</time>
      </trkpt>
      <trkpt lat="42.91962" lon="1.19611">
        <ele>679</ele>
        <time>2026-05-25T08:51:23.000Z</time>
      </trkpt>
      <trkpt lat="42.91963" lon="1.19608">
        <ele>679</ele>
        <time>2026-05-25T08:51:24.000Z</time>
      </trkpt>
      <trkpt lat="42.91965" lon="1.19604">
        <ele>679</ele>
        <time>2026-05-25T08:51:25.000Z</time>
      </trkpt>
      <trkpt lat="42.91966" lon="1.196">
        <ele>679</ele>
        <time>2026-05-25T08:51:26.000Z</time>
      </trkpt>
      <trkpt lat="42.91969" lon="1.19596">
        <ele>678</ele>
        <time>2026-05-25T08:51:27.000Z</time>
      </trkpt>
      <trkpt lat="42.9197" lon="1.19592">
        <ele>679</ele>
        <time>2026-05-25T08:51:28.000Z</time>
      </trkpt>
      <trkpt lat="42.91972" lon="1.19587">
        <ele>679</ele>
        <time>2026-05-25T08:51:29.000Z</time>
      </trkpt>
      <trkpt lat="42.91973" lon="1.19582">
        <ele>679</ele>
        <time>2026-05-25T08:51:30.000Z</time>
      </trkpt>
      <trkpt lat="42.91975" lon="1.19577">
        <ele>679</ele>
        <time>2026-05-25T08:51:31.000Z</time>
      </trkpt>
      <trkpt lat="42.91977" lon="1.19574">
        <ele>678</ele>
        <time>2026-05-25T08:51:32.000Z</time>
      </trkpt>
      <trkpt lat="42.91979" lon="1.1957">
        <ele>678</ele>
        <time>2026-05-25T08:51:33.000Z</time>
      </trkpt>
      <trkpt lat="42.91981" lon="1.19567">
        <ele>677</ele>
        <time>2026-05-25T08:51:34.000Z</time>
      </trkpt>
      <trkpt lat="42.91983" lon="1.19562">
        <ele>678</ele>
        <time>2026-05-25T08:51:35.000Z</time>
      </trkpt>
      <trkpt lat="42.91986" lon="1.19558">
        <ele>679</ele>
        <time>2026-05-25T08:51:36.000Z</time>
      </trkpt>
      <trkpt lat="42.91989" lon="1.19554">
        <ele>679</ele>
        <time>2026-05-25T08:51:37.000Z</time>
      </trkpt>
      <trkpt lat="42.91992" lon="1.19553">
        <ele>680</ele>
        <time>2026-05-25T08:51:38.000Z</time>
      </trkpt>
      <trkpt lat="42.91992" lon="1.19551">
        <ele>680</ele>
        <time>2026-05-25T08:51:39.000Z</time>
      </trkpt>
      <trkpt lat="42.91994" lon="1.19552">
        <ele>680</ele>
        <time>2026-05-25T08:51:40.000Z</time>
      </trkpt>
      <trkpt lat="42.91994" lon="1.19552">
        <ele>681</ele>
        <time>2026-05-25T08:51:41.000Z</time>
      </trkpt>
      <trkpt lat="42.91994" lon="1.19552">
        <ele>681</ele>
        <time>2026-05-25T08:51:42.000Z</time>
      </trkpt>
      <trkpt lat="42.91995" lon="1.19551">
        <ele>682</ele>
        <time>2026-05-25T08:51:43.000Z</time>
      </trkpt>
      <trkpt lat="42.91995" lon="1.19551">
        <ele>681</ele>
        <time>2026-05-25T08:51:44.000Z</time>
      </trkpt>
      <trkpt lat="42.91995" lon="1.1955">
        <ele>682</ele>
        <time>2026-05-25T08:51:45.000Z</time>
      </trkpt>
      <trkpt lat="42.91995" lon="1.1955">
        <ele>682</ele>
        <time>2026-05-25T08:51:46.000Z</time>
      </trkpt>
      <trkpt lat="42.91994" lon="1.19549">
        <ele>682</ele>
        <time>2026-05-25T08:51:47.000Z</time>
      </trkpt>
      <trkpt lat="42.91994" lon="1.19548">
        <ele>682</ele>
        <time>2026-05-25T08:51:48.000Z</time>
      </trkpt>
      <trkpt lat="42.91994" lon="1.19547">
        <ele>683</ele>
        <time>2026-05-25T08:51:49.000Z</time>
      </trkpt>
      <trkpt lat="42.91994" lon="1.19545">
        <ele>684</ele>
        <time>2026-05-25T08:51:50.000Z</time>
      </trkpt>
      <trkpt lat="42.91993" lon="1.19543">
        <ele>684</ele>
        <time>2026-05-25T08:51:51.000Z</time>
      </trkpt>
      <trkpt lat="42.91994" lon="1.19539">
        <ele>684</ele>
        <time>2026-05-25T08:51:52.000Z</time>
      </trkpt>
      <trkpt lat="42.91995" lon="1.19536">
        <ele>684</ele>
        <time>2026-05-25T08:51:53.000Z</time>
      </trkpt>
      <trkpt lat="42.91996" lon="1.19533">
        <ele>684</ele>
        <time>2026-05-25T08:51:54.000Z</time>
      </trkpt>
      <trkpt lat="42.91998" lon="1.19529">
        <ele>684</ele>
        <time>2026-05-25T08:51:55.000Z</time>
      </trkpt>
      <trkpt lat="42.92" lon="1.19525">
        <ele>685</ele>
        <time>2026-05-25T08:51:56.000Z</time>
      </trkpt>
      <trkpt lat="42.92002" lon="1.19523">
        <ele>684</ele>
        <time>2026-05-25T08:51:57.000Z</time>
      </trkpt>
      <trkpt lat="42.92005" lon="1.19519">
        <ele>684</ele>
        <time>2026-05-25T08:51:58.000Z</time>
      </trkpt>
      <trkpt lat="42.92007" lon="1.19516">
        <ele>684</ele>
        <time>2026-05-25T08:51:59.000Z</time>
      </trkpt>
      <trkpt lat="42.9201" lon="1.19512">
        <ele>684</ele>
        <time>2026-05-25T08:52:00.000Z</time>
      </trkpt>
      <trkpt lat="42.92013" lon="1.19509">
        <ele>684</ele>
        <time>2026-05-25T08:52:01.000Z</time>
      </trkpt>
      <trkpt lat="42.92015" lon="1.19505">
        <ele>684</ele>
        <time>2026-05-25T08:52:02.000Z</time>
      </trkpt>
      <trkpt lat="42.92018" lon="1.195">
        <ele>684</ele>
        <time>2026-05-25T08:52:03.000Z</time>
      </trkpt>
      <trkpt lat="42.9202" lon="1.19494">
        <ele>684</ele>
        <time>2026-05-25T08:52:04.000Z</time>
      </trkpt>
      <trkpt lat="42.92021" lon="1.19489">
        <ele>683</ele>
        <time>2026-05-25T08:52:05.000Z</time>
      </trkpt>
      <trkpt lat="42.92023" lon="1.19485">
        <ele>683</ele>
        <time>2026-05-25T08:52:06.000Z</time>
      </trkpt>
      <trkpt lat="42.92025" lon="1.19481">
        <ele>683</ele>
        <time>2026-05-25T08:52:07.000Z</time>
      </trkpt>
      <trkpt lat="42.92026" lon="1.19477">
        <ele>682</ele>
        <time>2026-05-25T08:52:08.000Z</time>
      </trkpt>
      <trkpt lat="42.92028" lon="1.19472">
        <ele>682</ele>
        <time>2026-05-25T08:52:09.000Z</time>
      </trkpt>
      <trkpt lat="42.9203" lon="1.19467">
        <ele>682</ele>
        <time>2026-05-25T08:52:10.000Z</time>
      </trkpt>
      <trkpt lat="42.92031" lon="1.19462">
        <ele>681</ele>
        <time>2026-05-25T08:52:11.000Z</time>
      </trkpt>
      <trkpt lat="42.92033" lon="1.19457">
        <ele>680</ele>
        <time>2026-05-25T08:52:12.000Z</time>
      </trkpt>
      <trkpt lat="42.92035" lon="1.19451">
        <ele>680</ele>
        <time>2026-05-25T08:52:13.000Z</time>
      </trkpt>
      <trkpt lat="42.92037" lon="1.19444">
        <ele>680</ele>
        <time>2026-05-25T08:52:14.000Z</time>
      </trkpt>
      <trkpt lat="42.92039" lon="1.19438">
        <ele>680</ele>
        <time>2026-05-25T08:52:15.000Z</time>
      </trkpt>
      <trkpt lat="42.92041" lon="1.19432">
        <ele>680</ele>
        <time>2026-05-25T08:52:16.000Z</time>
      </trkpt>
      <trkpt lat="42.92043" lon="1.19427">
        <ele>679</ele>
        <time>2026-05-25T08:52:17.000Z</time>
      </trkpt>
      <trkpt lat="42.92044" lon="1.1942">
        <ele>680</ele>
        <time>2026-05-25T08:52:18.000Z</time>
      </trkpt>
      <trkpt lat="42.92046" lon="1.19414">
        <ele>679</ele>
        <time>2026-05-25T08:52:19.000Z</time>
      </trkpt>
      <trkpt lat="42.92049" lon="1.19408">
        <ele>679</ele>
        <time>2026-05-25T08:52:20.000Z</time>
      </trkpt>
      <trkpt lat="42.9205" lon="1.19401">
        <ele>678</ele>
        <time>2026-05-25T08:52:21.000Z</time>
      </trkpt>
      <trkpt lat="42.92051" lon="1.19396">
        <ele>678</ele>
        <time>2026-05-25T08:52:22.000Z</time>
      </trkpt>
      <trkpt lat="42.92055" lon="1.1939">
        <ele>677</ele>
        <time>2026-05-25T08:52:23.000Z</time>
      </trkpt>
      <trkpt lat="42.92057" lon="1.19385">
        <ele>677</ele>
        <time>2026-05-25T08:52:24.000Z</time>
      </trkpt>
      <trkpt lat="42.92059" lon="1.1938">
        <ele>677</ele>
        <time>2026-05-25T08:52:25.000Z</time>
      </trkpt>
      <trkpt lat="42.92061" lon="1.19376">
        <ele>676</ele>
        <time>2026-05-25T08:52:26.000Z</time>
      </trkpt>
      <trkpt lat="42.92064" lon="1.19371">
        <ele>676</ele>
        <time>2026-05-25T08:52:27.000Z</time>
      </trkpt>
      <trkpt lat="42.92066" lon="1.19367">
        <ele>676</ele>
        <time>2026-05-25T08:52:28.000Z</time>
      </trkpt>
      <trkpt lat="42.92068" lon="1.19363">
        <ele>676</ele>
        <time>2026-05-25T08:52:29.000Z</time>
      </trkpt>
      <trkpt lat="42.92069" lon="1.19358">
        <ele>676</ele>
        <time>2026-05-25T08:52:30.000Z</time>
      </trkpt>
      <trkpt lat="42.92071" lon="1.19353">
        <ele>676</ele>
        <time>2026-05-25T08:52:31.000Z</time>
      </trkpt>
      <trkpt lat="42.92074" lon="1.1935">
        <ele>675</ele>
        <time>2026-05-25T08:52:32.000Z</time>
      </trkpt>
      <trkpt lat="42.92076" lon="1.19346">
        <ele>675</ele>
        <time>2026-05-25T08:52:33.000Z</time>
      </trkpt>
      <trkpt lat="42.92078" lon="1.19342">
        <ele>675</ele>
        <time>2026-05-25T08:52:34.000Z</time>
      </trkpt>
      <trkpt lat="42.9208" lon="1.19338">
        <ele>675</ele>
        <time>2026-05-25T08:52:35.000Z</time>
      </trkpt>
      <trkpt lat="42.92081" lon="1.19334">
        <ele>675</ele>
        <time>2026-05-25T08:52:36.000Z</time>
      </trkpt>
      <trkpt lat="42.92083" lon="1.19329">
        <ele>675</ele>
        <time>2026-05-25T08:52:37.000Z</time>
      </trkpt>
      <trkpt lat="42.92085" lon="1.19324">
        <ele>676</ele>
        <time>2026-05-25T08:52:38.000Z</time>
      </trkpt>
      <trkpt lat="42.92088" lon="1.19319">
        <ele>675</ele>
        <time>2026-05-25T08:52:39.000Z</time>
      </trkpt>
      <trkpt lat="42.9209" lon="1.19315">
        <ele>675</ele>
        <time>2026-05-25T08:52:40.000Z</time>
      </trkpt>
      <trkpt lat="42.92092" lon="1.1931">
        <ele>675</ele>
        <time>2026-05-25T08:52:41.000Z</time>
      </trkpt>
      <trkpt lat="42.92095" lon="1.19306">
        <ele>675</ele>
        <time>2026-05-25T08:52:42.000Z</time>
      </trkpt>
      <trkpt lat="42.92098" lon="1.19303">
        <ele>675</ele>
        <time>2026-05-25T08:52:43.000Z</time>
      </trkpt>
      <trkpt lat="42.921" lon="1.19299">
        <ele>675</ele>
        <time>2026-05-25T08:52:44.000Z</time>
      </trkpt>
      <trkpt lat="42.92103" lon="1.19295">
        <ele>675</ele>
        <time>2026-05-25T08:52:45.000Z</time>
      </trkpt>
      <trkpt lat="42.92106" lon="1.19291">
        <ele>675</ele>
        <time>2026-05-25T08:52:46.000Z</time>
      </trkpt>
      <trkpt lat="42.92109" lon="1.19287">
        <ele>674</ele>
        <time>2026-05-25T08:52:47.000Z</time>
      </trkpt>
      <trkpt lat="42.92113" lon="1.19284">
        <ele>674</ele>
        <time>2026-05-25T08:52:48.000Z</time>
      </trkpt>
      <trkpt lat="42.92115" lon="1.19281">
        <ele>674</ele>
        <time>2026-05-25T08:52:49.000Z</time>
      </trkpt>
      <trkpt lat="42.92118" lon="1.19279">
        <ele>674</ele>
        <time>2026-05-25T08:52:50.000Z</time>
      </trkpt>
      <trkpt lat="42.9212" lon="1.19276">
        <ele>674</ele>
        <time>2026-05-25T08:52:51.000Z</time>
      </trkpt>
      <trkpt lat="42.92123" lon="1.19274">
        <ele>674</ele>
        <time>2026-05-25T08:52:52.000Z</time>
      </trkpt>
      <trkpt lat="42.92125" lon="1.19273">
        <ele>674</ele>
        <time>2026-05-25T08:52:53.000Z</time>
      </trkpt>
      <trkpt lat="42.92128" lon="1.19271">
        <ele>674</ele>
        <time>2026-05-25T08:52:54.000Z</time>
      </trkpt>
      <trkpt lat="42.92131" lon="1.19269">
        <ele>674</ele>
        <time>2026-05-25T08:52:55.000Z</time>
      </trkpt>
      <trkpt lat="42.92134" lon="1.19267">
        <ele>674</ele>
        <time>2026-05-25T08:52:56.000Z</time>
      </trkpt>
      <trkpt lat="42.92137" lon="1.19266">
        <ele>673</ele>
        <time>2026-05-25T08:52:57.000Z</time>
      </trkpt>
      <trkpt lat="42.9214" lon="1.19265">
        <ele>674</ele>
        <time>2026-05-25T08:52:58.000Z</time>
      </trkpt>
      <trkpt lat="42.92144" lon="1.19264">
        <ele>675</ele>
        <time>2026-05-25T08:52:59.000Z</time>
      </trkpt>
      <trkpt lat="42.92147" lon="1.19265">
        <ele>675</ele>
        <time>2026-05-25T08:53:00.000Z</time>
      </trkpt>
      <trkpt lat="42.92151" lon="1.19266">
        <ele>675</ele>
        <time>2026-05-25T08:53:01.000Z</time>
      </trkpt>
      <trkpt lat="42.92154" lon="1.19266">
        <ele>675</ele>
        <time>2026-05-25T08:53:02.000Z</time>
      </trkpt>
      <trkpt lat="42.92158" lon="1.19267">
        <ele>676</ele>
        <time>2026-05-25T08:53:03.000Z</time>
      </trkpt>
      <trkpt lat="42.92163" lon="1.19267">
        <ele>676</ele>
        <time>2026-05-25T08:53:04.000Z</time>
      </trkpt>
      <trkpt lat="42.92168" lon="1.19268">
        <ele>677</ele>
        <time>2026-05-25T08:53:05.000Z</time>
      </trkpt>
      <trkpt lat="42.92173" lon="1.19268">
        <ele>677</ele>
        <time>2026-05-25T08:53:06.000Z</time>
      </trkpt>
      <trkpt lat="42.92177" lon="1.19269">
        <ele>677</ele>
        <time>2026-05-25T08:53:07.000Z</time>
      </trkpt>
      <trkpt lat="42.92181" lon="1.1927">
        <ele>677</ele>
        <time>2026-05-25T08:53:08.000Z</time>
      </trkpt>
      <trkpt lat="42.92185" lon="1.19271">
        <ele>678</ele>
        <time>2026-05-25T08:53:09.000Z</time>
      </trkpt>
      <trkpt lat="42.92189" lon="1.19271">
        <ele>677</ele>
        <time>2026-05-25T08:53:10.000Z</time>
      </trkpt>
      <trkpt lat="42.92192" lon="1.19271">
        <ele>677</ele>
        <time>2026-05-25T08:53:11.000Z</time>
      </trkpt>
      <trkpt lat="42.92195" lon="1.19269">
        <ele>678</ele>
        <time>2026-05-25T08:53:12.000Z</time>
      </trkpt>
      <trkpt lat="42.92198" lon="1.19267">
        <ele>678</ele>
        <time>2026-05-25T08:53:13.000Z</time>
      </trkpt>
      <trkpt lat="42.92201" lon="1.19263">
        <ele>678</ele>
        <time>2026-05-25T08:53:14.000Z</time>
      </trkpt>
      <trkpt lat="42.92203" lon="1.1926">
        <ele>678</ele>
        <time>2026-05-25T08:53:15.000Z</time>
      </trkpt>
      <trkpt lat="42.92206" lon="1.19256">
        <ele>679</ele>
        <time>2026-05-25T08:53:16.000Z</time>
      </trkpt>
      <trkpt lat="42.92209" lon="1.19253">
        <ele>679</ele>
        <time>2026-05-25T08:53:17.000Z</time>
      </trkpt>
      <trkpt lat="42.92212" lon="1.1925">
        <ele>678</ele>
        <time>2026-05-25T08:53:18.000Z</time>
      </trkpt>
      <trkpt lat="42.92216" lon="1.19248">
        <ele>678</ele>
        <time>2026-05-25T08:53:19.000Z</time>
      </trkpt>
      <trkpt lat="42.92219" lon="1.19245">
        <ele>678</ele>
        <time>2026-05-25T08:53:20.000Z</time>
      </trkpt>
      <trkpt lat="42.92223" lon="1.19243">
        <ele>679</ele>
        <time>2026-05-25T08:53:21.000Z</time>
      </trkpt>
      <trkpt lat="42.92227" lon="1.19241">
        <ele>679</ele>
        <time>2026-05-25T08:53:22.000Z</time>
      </trkpt>
      <trkpt lat="42.92231" lon="1.19239">
        <ele>678</ele>
        <time>2026-05-25T08:53:23.000Z</time>
      </trkpt>
      <trkpt lat="42.92235" lon="1.19236">
        <ele>678</ele>
        <time>2026-05-25T08:53:24.000Z</time>
      </trkpt>
      <trkpt lat="42.92239" lon="1.19234">
        <ele>678</ele>
        <time>2026-05-25T08:53:25.000Z</time>
      </trkpt>
      <trkpt lat="42.92242" lon="1.19232">
        <ele>678</ele>
        <time>2026-05-25T08:53:26.000Z</time>
      </trkpt>
      <trkpt lat="42.92245" lon="1.19231">
        <ele>679</ele>
        <time>2026-05-25T08:53:27.000Z</time>
      </trkpt>
      <trkpt lat="42.92249" lon="1.19229">
        <ele>679</ele>
        <time>2026-05-25T08:53:28.000Z</time>
      </trkpt>
      <trkpt lat="42.92252" lon="1.19228">
        <ele>680</ele>
        <time>2026-05-25T08:53:29.000Z</time>
      </trkpt>
      <trkpt lat="42.92255" lon="1.19225">
        <ele>680</ele>
        <time>2026-05-25T08:53:30.000Z</time>
      </trkpt>
      <trkpt lat="42.92258" lon="1.19223">
        <ele>680</ele>
        <time>2026-05-25T08:53:31.000Z</time>
      </trkpt>
      <trkpt lat="42.92262" lon="1.19222">
        <ele>680</ele>
        <time>2026-05-25T08:53:32.000Z</time>
      </trkpt>
      <trkpt lat="42.92265" lon="1.1922">
        <ele>680</ele>
        <time>2026-05-25T08:53:33.000Z</time>
      </trkpt>
      <trkpt lat="42.92267" lon="1.19218">
        <ele>679</ele>
        <time>2026-05-25T08:53:34.000Z</time>
      </trkpt>
      <trkpt lat="42.9227" lon="1.19216">
        <ele>679</ele>
        <time>2026-05-25T08:53:35.000Z</time>
      </trkpt>
      <trkpt lat="42.92273" lon="1.19214">
        <ele>679</ele>
        <time>2026-05-25T08:53:36.000Z</time>
      </trkpt>
      <trkpt lat="42.92276" lon="1.19212">
        <ele>679</ele>
        <time>2026-05-25T08:53:37.000Z</time>
      </trkpt>
      <trkpt lat="42.92278" lon="1.19209">
        <ele>679</ele>
        <time>2026-05-25T08:53:38.000Z</time>
      </trkpt>
      <trkpt lat="42.92282" lon="1.19206">
        <ele>679</ele>
        <time>2026-05-25T08:53:39.000Z</time>
      </trkpt>
      <trkpt lat="42.92284" lon="1.19203">
        <ele>679</ele>
        <time>2026-05-25T08:53:40.000Z</time>
      </trkpt>
      <trkpt lat="42.92287" lon="1.192">
        <ele>679</ele>
        <time>2026-05-25T08:53:41.000Z</time>
      </trkpt>
      <trkpt lat="42.92291" lon="1.19196">
        <ele>679</ele>
        <time>2026-05-25T08:53:42.000Z</time>
      </trkpt>
      <trkpt lat="42.92294" lon="1.19192">
        <ele>678</ele>
        <time>2026-05-25T08:53:43.000Z</time>
      </trkpt>
      <trkpt lat="42.92298" lon="1.19189">
        <ele>678</ele>
        <time>2026-05-25T08:53:44.000Z</time>
      </trkpt>
      <trkpt lat="42.92302" lon="1.19186">
        <ele>678</ele>
        <time>2026-05-25T08:53:45.000Z</time>
      </trkpt>
      <trkpt lat="42.92305" lon="1.19182">
        <ele>677</ele>
        <time>2026-05-25T08:53:46.000Z</time>
      </trkpt>
      <trkpt lat="42.92309" lon="1.19177">
        <ele>677</ele>
        <time>2026-05-25T08:53:47.000Z</time>
      </trkpt>
      <trkpt lat="42.92312" lon="1.19174">
        <ele>676</ele>
        <time>2026-05-25T08:53:48.000Z</time>
      </trkpt>
      <trkpt lat="42.92315" lon="1.1917">
        <ele>677</ele>
        <time>2026-05-25T08:53:49.000Z</time>
      </trkpt>
      <trkpt lat="42.92318" lon="1.19166">
        <ele>678</ele>
        <time>2026-05-25T08:53:50.000Z</time>
      </trkpt>
      <trkpt lat="42.92321" lon="1.19162">
        <ele>678</ele>
        <time>2026-05-25T08:53:51.000Z</time>
      </trkpt>
      <trkpt lat="42.92324" lon="1.19157">
        <ele>678</ele>
        <time>2026-05-25T08:53:52.000Z</time>
      </trkpt>
      <trkpt lat="42.92328" lon="1.19154">
        <ele>679</ele>
        <time>2026-05-25T08:53:53.000Z</time>
      </trkpt>
      <trkpt lat="42.92333" lon="1.1915">
        <ele>679</ele>
        <time>2026-05-25T08:53:54.000Z</time>
      </trkpt>
      <trkpt lat="42.92337" lon="1.19145">
        <ele>679</ele>
        <time>2026-05-25T08:53:55.000Z</time>
      </trkpt>
      <trkpt lat="42.9234" lon="1.19141">
        <ele>679</ele>
        <time>2026-05-25T08:53:56.000Z</time>
      </trkpt>
      <trkpt lat="42.92342" lon="1.19137">
        <ele>679</ele>
        <time>2026-05-25T08:53:57.000Z</time>
      </trkpt>
      <trkpt lat="42.92345" lon="1.19132">
        <ele>679</ele>
        <time>2026-05-25T08:53:58.000Z</time>
      </trkpt>
      <trkpt lat="42.92348" lon="1.19129">
        <ele>678</ele>
        <time>2026-05-25T08:53:59.000Z</time>
      </trkpt>
      <trkpt lat="42.92352" lon="1.19125">
        <ele>678</ele>
        <time>2026-05-25T08:54:00.000Z</time>
      </trkpt>
      <trkpt lat="42.92355" lon="1.19121">
        <ele>678</ele>
        <time>2026-05-25T08:54:01.000Z</time>
      </trkpt>
      <trkpt lat="42.92358" lon="1.19119">
        <ele>678</ele>
        <time>2026-05-25T08:54:02.000Z</time>
      </trkpt>
      <trkpt lat="42.92362" lon="1.19117">
        <ele>679</ele>
        <time>2026-05-25T08:54:03.000Z</time>
      </trkpt>
      <trkpt lat="42.92365" lon="1.19115">
        <ele>679</ele>
        <time>2026-05-25T08:54:04.000Z</time>
      </trkpt>
      <trkpt lat="42.92368" lon="1.19113">
        <ele>679</ele>
        <time>2026-05-25T08:54:05.000Z</time>
      </trkpt>
      <trkpt lat="42.92372" lon="1.19111">
        <ele>679</ele>
        <time>2026-05-25T08:54:06.000Z</time>
      </trkpt>
      <trkpt lat="42.92376" lon="1.19109">
        <ele>679</ele>
        <time>2026-05-25T08:54:07.000Z</time>
      </trkpt>
      <trkpt lat="42.92379" lon="1.19107">
        <ele>679</ele>
        <time>2026-05-25T08:54:08.000Z</time>
      </trkpt>
      <trkpt lat="42.92382" lon="1.19105">
        <ele>679</ele>
        <time>2026-05-25T08:54:09.000Z</time>
      </trkpt>
      <trkpt lat="42.92385" lon="1.19102">
        <ele>680</ele>
        <time>2026-05-25T08:54:10.000Z</time>
      </trkpt>
      <trkpt lat="42.92388" lon="1.19101">
        <ele>680</ele>
        <time>2026-05-25T08:54:11.000Z</time>
      </trkpt>
      <trkpt lat="42.92392" lon="1.191">
        <ele>680</ele>
        <time>2026-05-25T08:54:12.000Z</time>
      </trkpt>
      <trkpt lat="42.92394" lon="1.19098">
        <ele>680</ele>
        <time>2026-05-25T08:54:13.000Z</time>
      </trkpt>
      <trkpt lat="42.92398" lon="1.19096">
        <ele>679</ele>
        <time>2026-05-25T08:54:14.000Z</time>
      </trkpt>
      <trkpt lat="42.92401" lon="1.19093">
        <ele>679</ele>
        <time>2026-05-25T08:54:15.000Z</time>
      </trkpt>
      <trkpt lat="42.92405" lon="1.19091">
        <ele>679</ele>
        <time>2026-05-25T08:54:16.000Z</time>
      </trkpt>
      <trkpt lat="42.92407" lon="1.19087">
        <ele>679</ele>
        <time>2026-05-25T08:54:17.000Z</time>
      </trkpt>
      <trkpt lat="42.92411" lon="1.19083">
        <ele>679</ele>
        <time>2026-05-25T08:54:18.000Z</time>
      </trkpt>
      <trkpt lat="42.92414" lon="1.19078">
        <ele>679</ele>
        <time>2026-05-25T08:54:19.000Z</time>
      </trkpt>
      <trkpt lat="42.9242" lon="1.19073">
        <ele>680</ele>
        <time>2026-05-25T08:54:20.000Z</time>
      </trkpt>
      <trkpt lat="42.92424" lon="1.19069">
        <ele>680</ele>
        <time>2026-05-25T08:54:21.000Z</time>
      </trkpt>
      <trkpt lat="42.92429" lon="1.19064">
        <ele>680</ele>
        <time>2026-05-25T08:54:22.000Z</time>
      </trkpt>
      <trkpt lat="42.92433" lon="1.19059">
        <ele>679</ele>
        <time>2026-05-25T08:54:23.000Z</time>
      </trkpt>
      <trkpt lat="42.92435" lon="1.19053">
        <ele>679</ele>
        <time>2026-05-25T08:54:24.000Z</time>
      </trkpt>
      <trkpt lat="42.9244" lon="1.19048">
        <ele>679</ele>
        <time>2026-05-25T08:54:25.000Z</time>
      </trkpt>
      <trkpt lat="42.92443" lon="1.19041">
        <ele>678</ele>
        <time>2026-05-25T08:54:26.000Z</time>
      </trkpt>
      <trkpt lat="42.92445" lon="1.19035">
        <ele>679</ele>
        <time>2026-05-25T08:54:27.000Z</time>
      </trkpt>
      <trkpt lat="42.92447" lon="1.19029">
        <ele>679</ele>
        <time>2026-05-25T08:54:28.000Z</time>
      </trkpt>
      <trkpt lat="42.9245" lon="1.19021">
        <ele>679</ele>
        <time>2026-05-25T08:54:29.000Z</time>
      </trkpt>
      <trkpt lat="42.92453" lon="1.19014">
        <ele>679</ele>
        <time>2026-05-25T08:54:30.000Z</time>
      </trkpt>
      <trkpt lat="42.92456" lon="1.19008">
        <ele>680</ele>
        <time>2026-05-25T08:54:31.000Z</time>
      </trkpt>
      <trkpt lat="42.9246" lon="1.19001">
        <ele>679</ele>
        <time>2026-05-25T08:54:32.000Z</time>
      </trkpt>
      <trkpt lat="42.92463" lon="1.18993">
        <ele>679</ele>
        <time>2026-05-25T08:54:33.000Z</time>
      </trkpt>
      <trkpt lat="42.92466" lon="1.18987">
        <ele>679</ele>
        <time>2026-05-25T08:54:34.000Z</time>
      </trkpt>
      <trkpt lat="42.9247" lon="1.18981">
        <ele>679</ele>
        <time>2026-05-25T08:54:35.000Z</time>
      </trkpt>
      <trkpt lat="42.92474" lon="1.18974">
        <ele>679</ele>
        <time>2026-05-25T08:54:36.000Z</time>
      </trkpt>
      <trkpt lat="42.92478" lon="1.18967">
        <ele>679</ele>
        <time>2026-05-25T08:54:37.000Z</time>
      </trkpt>
      <trkpt lat="42.92482" lon="1.18961">
        <ele>679</ele>
        <time>2026-05-25T08:54:38.000Z</time>
      </trkpt>
      <trkpt lat="42.92486" lon="1.18955">
        <ele>679</ele>
        <time>2026-05-25T08:54:39.000Z</time>
      </trkpt>
      <trkpt lat="42.92489" lon="1.18949">
        <ele>679</ele>
        <time>2026-05-25T08:54:40.000Z</time>
      </trkpt>
      <trkpt lat="42.92493" lon="1.18945">
        <ele>678</ele>
        <time>2026-05-25T08:54:41.000Z</time>
      </trkpt>
      <trkpt lat="42.92497" lon="1.18939">
        <ele>680</ele>
        <time>2026-05-25T08:54:42.000Z</time>
      </trkpt>
      <trkpt lat="42.925" lon="1.18934">
        <ele>681</ele>
        <time>2026-05-25T08:54:43.000Z</time>
      </trkpt>
      <trkpt lat="42.92502" lon="1.1893">
        <ele>681</ele>
        <time>2026-05-25T08:54:44.000Z</time>
      </trkpt>
      <trkpt lat="42.92504" lon="1.18926">
        <ele>681</ele>
        <time>2026-05-25T08:54:45.000Z</time>
      </trkpt>
      <trkpt lat="42.92506" lon="1.18922">
        <ele>682</ele>
        <time>2026-05-25T08:54:46.000Z</time>
      </trkpt>
      <trkpt lat="42.92508" lon="1.18919">
        <ele>682</ele>
        <time>2026-05-25T08:54:47.000Z</time>
      </trkpt>
      <trkpt lat="42.9251" lon="1.18915">
        <ele>683</ele>
        <time>2026-05-25T08:54:48.000Z</time>
      </trkpt>
      <trkpt lat="42.92512" lon="1.18911">
        <ele>683</ele>
        <time>2026-05-25T08:54:49.000Z</time>
      </trkpt>
      <trkpt lat="42.92513" lon="1.18907">
        <ele>683</ele>
        <time>2026-05-25T08:54:50.000Z</time>
      </trkpt>
      <trkpt lat="42.92516" lon="1.18904">
        <ele>684</ele>
        <time>2026-05-25T08:54:51.000Z</time>
      </trkpt>
      <trkpt lat="42.92518" lon="1.18901">
        <ele>683</ele>
        <time>2026-05-25T08:54:52.000Z</time>
      </trkpt>
      <trkpt lat="42.92521" lon="1.18897">
        <ele>683</ele>
        <time>2026-05-25T08:54:53.000Z</time>
      </trkpt>
      <trkpt lat="42.92523" lon="1.18893">
        <ele>684</ele>
        <time>2026-05-25T08:54:54.000Z</time>
      </trkpt>
      <trkpt lat="42.92526" lon="1.1889">
        <ele>684</ele>
        <time>2026-05-25T08:54:55.000Z</time>
      </trkpt>
      <trkpt lat="42.92529" lon="1.18887">
        <ele>684</ele>
        <time>2026-05-25T08:54:56.000Z</time>
      </trkpt>
      <trkpt lat="42.92532" lon="1.18882">
        <ele>683</ele>
        <time>2026-05-25T08:54:57.000Z</time>
      </trkpt>
      <trkpt lat="42.92535" lon="1.18878">
        <ele>683</ele>
        <time>2026-05-25T08:54:58.000Z</time>
      </trkpt>
      <trkpt lat="42.92538" lon="1.18875">
        <ele>683</ele>
        <time>2026-05-25T08:54:59.000Z</time>
      </trkpt>
      <trkpt lat="42.9254" lon="1.18871">
        <ele>683</ele>
        <time>2026-05-25T08:55:00.000Z</time>
      </trkpt>
      <trkpt lat="42.92543" lon="1.18866">
        <ele>682</ele>
        <time>2026-05-25T08:55:01.000Z</time>
      </trkpt>
      <trkpt lat="42.92546" lon="1.18861">
        <ele>682</ele>
        <time>2026-05-25T08:55:02.000Z</time>
      </trkpt>
      <trkpt lat="42.92548" lon="1.18857">
        <ele>682</ele>
        <time>2026-05-25T08:55:03.000Z</time>
      </trkpt>
      <trkpt lat="42.9255" lon="1.18853">
        <ele>682</ele>
        <time>2026-05-25T08:55:04.000Z</time>
      </trkpt>
      <trkpt lat="42.92553" lon="1.18849">
        <ele>682</ele>
        <time>2026-05-25T08:55:05.000Z</time>
      </trkpt>
      <trkpt lat="42.92555" lon="1.18844">
        <ele>682</ele>
        <time>2026-05-25T08:55:06.000Z</time>
      </trkpt>
      <trkpt lat="42.92557" lon="1.1884">
        <ele>682</ele>
        <time>2026-05-25T08:55:07.000Z</time>
      </trkpt>
      <trkpt lat="42.92558" lon="1.18836">
        <ele>681</ele>
        <time>2026-05-25T08:55:08.000Z</time>
      </trkpt>
      <trkpt lat="42.92559" lon="1.18832">
        <ele>681</ele>
        <time>2026-05-25T08:55:09.000Z</time>
      </trkpt>
      <trkpt lat="42.92561" lon="1.18828">
        <ele>681</ele>
        <time>2026-05-25T08:55:10.000Z</time>
      </trkpt>
      <trkpt lat="42.92562" lon="1.18825">
        <ele>681</ele>
        <time>2026-05-25T08:55:11.000Z</time>
      </trkpt>
      <trkpt lat="42.92564" lon="1.18821">
        <ele>681</ele>
        <time>2026-05-25T08:55:12.000Z</time>
      </trkpt>
      <trkpt lat="42.92566" lon="1.18818">
        <ele>681</ele>
        <time>2026-05-25T08:55:13.000Z</time>
      </trkpt>
      <trkpt lat="42.92567" lon="1.18814">
        <ele>681</ele>
        <time>2026-05-25T08:55:14.000Z</time>
      </trkpt>
      <trkpt lat="42.92568" lon="1.18812">
        <ele>681</ele>
        <time>2026-05-25T08:55:15.000Z</time>
      </trkpt>
      <trkpt lat="42.92569" lon="1.1881">
        <ele>681</ele>
        <time>2026-05-25T08:55:16.000Z</time>
      </trkpt>
      <trkpt lat="42.92571" lon="1.18809">
        <ele>681</ele>
        <time>2026-05-25T08:55:17.000Z</time>
      </trkpt>
      <trkpt lat="42.92573" lon="1.18811">
        <ele>681</ele>
        <time>2026-05-25T08:55:18.000Z</time>
      </trkpt>
      <trkpt lat="42.92575" lon="1.18814">
        <ele>682</ele>
        <time>2026-05-25T08:55:19.000Z</time>
      </trkpt>
      <trkpt lat="42.92578" lon="1.18816">
        <ele>682</ele>
        <time>2026-05-25T08:55:20.000Z</time>
      </trkpt>
      <trkpt lat="42.9258" lon="1.1882">
        <ele>682</ele>
        <time>2026-05-25T08:55:21.000Z</time>
      </trkpt>
      <trkpt lat="42.92584" lon="1.18823">
        <ele>682</ele>
        <time>2026-05-25T08:55:22.000Z</time>
      </trkpt>
      <trkpt lat="42.92587" lon="1.18827">
        <ele>682</ele>
        <time>2026-05-25T08:55:23.000Z</time>
      </trkpt>
      <trkpt lat="42.9259" lon="1.1883">
        <ele>681</ele>
        <time>2026-05-25T08:55:24.000Z</time>
      </trkpt>
      <trkpt lat="42.92595" lon="1.18831">
        <ele>680</ele>
        <time>2026-05-25T08:55:25.000Z</time>
      </trkpt>
      <trkpt lat="42.92602" lon="1.18835">
        <ele>679</ele>
        <time>2026-05-25T08:55:26.000Z</time>
      </trkpt>
      <trkpt lat="42.92609" lon="1.18837">
        <ele>680</ele>
        <time>2026-05-25T08:55:27.000Z</time>
      </trkpt>
      <trkpt lat="42.92617" lon="1.1884">
        <ele>679</ele>
        <time>2026-05-25T08:55:28.000Z</time>
      </trkpt>
      <trkpt lat="42.92623" lon="1.18841">
        <ele>679</ele>
        <time>2026-05-25T08:55:29.000Z</time>
      </trkpt>
      <trkpt lat="42.9263" lon="1.18842">
        <ele>679</ele>
        <time>2026-05-25T08:55:30.000Z</time>
      </trkpt>
      <trkpt lat="42.92637" lon="1.18843">
        <ele>679</ele>
        <time>2026-05-25T08:55:31.000Z</time>
      </trkpt>
      <trkpt lat="42.92642" lon="1.18842">
        <ele>678</ele>
        <time>2026-05-25T08:55:32.000Z</time>
      </trkpt>
      <trkpt lat="42.92648" lon="1.18842">
        <ele>678</ele>
        <time>2026-05-25T08:55:33.000Z</time>
      </trkpt>
      <trkpt lat="42.92654" lon="1.18843">
        <ele>678</ele>
        <time>2026-05-25T08:55:34.000Z</time>
      </trkpt>
      <trkpt lat="42.9266" lon="1.18843">
        <ele>678</ele>
        <time>2026-05-25T08:55:35.000Z</time>
      </trkpt>
      <trkpt lat="42.92666" lon="1.18844">
        <ele>678</ele>
        <time>2026-05-25T08:55:36.000Z</time>
      </trkpt>
      <trkpt lat="42.92673" lon="1.18845">
        <ele>678</ele>
        <time>2026-05-25T08:55:37.000Z</time>
      </trkpt>
      <trkpt lat="42.92679" lon="1.18846">
        <ele>678</ele>
        <time>2026-05-25T08:55:38.000Z</time>
      </trkpt>
      <trkpt lat="42.92686" lon="1.18848">
        <ele>677</ele>
        <time>2026-05-25T08:55:39.000Z</time>
      </trkpt>
      <trkpt lat="42.92692" lon="1.18852">
        <ele>677</ele>
        <time>2026-05-25T08:55:40.000Z</time>
      </trkpt>
      <trkpt lat="42.92698" lon="1.18855">
        <ele>677</ele>
        <time>2026-05-25T08:55:41.000Z</time>
      </trkpt>
      <trkpt lat="42.92703" lon="1.18858">
        <ele>676</ele>
        <time>2026-05-25T08:55:42.000Z</time>
      </trkpt>
      <trkpt lat="42.92708" lon="1.18862">
        <ele>676</ele>
        <time>2026-05-25T08:55:43.000Z</time>
      </trkpt>
      <trkpt lat="42.92711" lon="1.18867">
        <ele>675</ele>
        <time>2026-05-25T08:55:44.000Z</time>
      </trkpt>
      <trkpt lat="42.92715" lon="1.18872">
        <ele>674</ele>
        <time>2026-05-25T08:55:45.000Z</time>
      </trkpt>
      <trkpt lat="42.92718" lon="1.18876">
        <ele>674</ele>
        <time>2026-05-25T08:55:46.000Z</time>
      </trkpt>
      <trkpt lat="42.9272" lon="1.18879">
        <ele>673</ele>
        <time>2026-05-25T08:55:47.000Z</time>
      </trkpt>
      <trkpt lat="42.92722" lon="1.18882">
        <ele>673</ele>
        <time>2026-05-25T08:55:48.000Z</time>
      </trkpt>
      <trkpt lat="42.92723" lon="1.18884">
        <ele>673</ele>
        <time>2026-05-25T08:55:49.000Z</time>
      </trkpt>
      <trkpt lat="42.92723" lon="1.18884">
        <ele>673</ele>
        <time>2026-05-25T08:55:50.000Z</time>
      </trkpt>
      <trkpt lat="42.92723" lon="1.18885">
        <ele>673</ele>
        <time>2026-05-25T08:55:51.000Z</time>
      </trkpt>
      <trkpt lat="42.92723" lon="1.18885">
        <ele>673</ele>
        <time>2026-05-25T08:55:52.000Z</time>
      </trkpt>
      <trkpt lat="42.92724" lon="1.18885">
        <ele>672</ele>
        <time>2026-05-25T08:55:53.000Z</time>
      </trkpt>
      <trkpt lat="42.92724" lon="1.18886">
        <ele>672</ele>
        <time>2026-05-25T08:55:54.000Z</time>
      </trkpt>
      <trkpt lat="42.92724" lon="1.18888">
        <ele>672</ele>
        <time>2026-05-25T08:55:55.000Z</time>
      </trkpt>
      <trkpt lat="42.92725" lon="1.18889">
        <ele>672</ele>
        <time>2026-05-25T08:55:56.000Z</time>
      </trkpt>
      <trkpt lat="42.92725" lon="1.18891">
        <ele>672</ele>
        <time>2026-05-25T08:55:57.000Z</time>
      </trkpt>
      <trkpt lat="42.92725" lon="1.18892">
        <ele>673</ele>
        <time>2026-05-25T08:55:58.000Z</time>
      </trkpt>
      <trkpt lat="42.92724" lon="1.18893">
        <ele>673</ele>
        <time>2026-05-25T08:55:59.000Z</time>
      </trkpt>
      <trkpt lat="42.92724" lon="1.18894">
        <ele>674</ele>
        <time>2026-05-25T08:56:00.000Z</time>
      </trkpt>
      <trkpt lat="42.92724" lon="1.18895">
        <ele>673</ele>
        <time>2026-05-25T08:56:01.000Z</time>
      </trkpt>
      <trkpt lat="42.92724" lon="1.18895">
        <ele>674</ele>
        <time>2026-05-25T08:56:02.000Z</time>
      </trkpt>
      <trkpt lat="42.92724" lon="1.18895">
        <ele>673</ele>
        <time>2026-05-25T08:56:03.000Z</time>
      </trkpt>
      <trkpt lat="42.92724" lon="1.18895">
        <ele>673</ele>
        <time>2026-05-25T08:56:04.000Z</time>
      </trkpt>
      <trkpt lat="42.92724" lon="1.18895">
        <ele>673</ele>
        <time>2026-05-25T08:56:05.000Z</time>
      </trkpt>
      <trkpt lat="42.92725" lon="1.18896">
        <ele>673</ele>
        <time>2026-05-25T08:56:06.000Z</time>
      </trkpt>
      <trkpt lat="42.92726" lon="1.18897">
        <ele>672</ele>
        <time>2026-05-25T08:56:07.000Z</time>
      </trkpt>
      <trkpt lat="42.92726" lon="1.18897">
        <ele>673</ele>
        <time>2026-05-25T08:56:08.000Z</time>
      </trkpt>
      <trkpt lat="42.92726" lon="1.18897">
        <ele>673</ele>
        <time>2026-05-25T08:56:09.000Z</time>
      </trkpt>
      <trkpt lat="42.92726" lon="1.18897">
        <ele>673</ele>
        <time>2026-05-25T08:56:10.000Z</time>
      </trkpt>
      <trkpt lat="42.92727" lon="1.18898">
        <ele>672</ele>
        <time>2026-05-25T08:56:11.000Z</time>
      </trkpt>
      <trkpt lat="42.92728" lon="1.189">
        <ele>672</ele>
        <time>2026-05-25T08:56:12.000Z</time>
      </trkpt>
      <trkpt lat="42.9273" lon="1.18903">
        <ele>672</ele>
        <time>2026-05-25T08:56:13.000Z</time>
      </trkpt>
      <trkpt lat="42.92731" lon="1.18905">
        <ele>672</ele>
        <time>2026-05-25T08:56:14.000Z</time>
      </trkpt>
      <trkpt lat="42.92732" lon="1.18908">
        <ele>672</ele>
        <time>2026-05-25T08:56:15.000Z</time>
      </trkpt>
      <trkpt lat="42.92732" lon="1.1891">
        <ele>672</ele>
        <time>2026-05-25T08:56:16.000Z</time>
      </trkpt>
      <trkpt lat="42.92734" lon="1.18913">
        <ele>672</ele>
        <time>2026-05-25T08:56:17.000Z</time>
      </trkpt>
      <trkpt lat="42.92735" lon="1.18917">
        <ele>672</ele>
        <time>2026-05-25T08:56:18.000Z</time>
      </trkpt>
      <trkpt lat="42.92735" lon="1.1892">
        <ele>672</ele>
        <time>2026-05-25T08:56:19.000Z</time>
      </trkpt>
      <trkpt lat="42.92735" lon="1.18922">
        <ele>672</ele>
        <time>2026-05-25T08:56:20.000Z</time>
      </trkpt>
      <trkpt lat="42.92736" lon="1.18924">
        <ele>672</ele>
        <time>2026-05-25T08:56:21.000Z</time>
      </trkpt>
      <trkpt lat="42.92737" lon="1.18926">
        <ele>672</ele>
        <time>2026-05-25T08:56:22.000Z</time>
      </trkpt>
      <trkpt lat="42.92738" lon="1.18929">
        <ele>671</ele>
        <time>2026-05-25T08:56:23.000Z</time>
      </trkpt>
      <trkpt lat="42.92739" lon="1.18931">
        <ele>671</ele>
        <time>2026-05-25T08:56:24.000Z</time>
      </trkpt>
      <trkpt lat="42.92741" lon="1.18934">
        <ele>671</ele>
        <time>2026-05-25T08:56:25.000Z</time>
      </trkpt>
      <trkpt lat="42.92741" lon="1.18936">
        <ele>671</ele>
        <time>2026-05-25T08:56:26.000Z</time>
      </trkpt>
      <trkpt lat="42.92744" lon="1.18939">
        <ele>671</ele>
        <time>2026-05-25T08:56:27.000Z</time>
      </trkpt>
      <trkpt lat="42.92746" lon="1.18941">
        <ele>671</ele>
        <time>2026-05-25T08:56:28.000Z</time>
      </trkpt>
      <trkpt lat="42.92748" lon="1.18944">
        <ele>670</ele>
        <time>2026-05-25T08:56:29.000Z</time>
      </trkpt>
      <trkpt lat="42.92751" lon="1.18946">
        <ele>670</ele>
        <time>2026-05-25T08:56:30.000Z</time>
      </trkpt>
      <trkpt lat="42.92754" lon="1.18947">
        <ele>670</ele>
        <time>2026-05-25T08:56:31.000Z</time>
      </trkpt>
      <trkpt lat="42.92756" lon="1.18948">
        <ele>670</ele>
        <time>2026-05-25T08:56:32.000Z</time>
      </trkpt>
      <trkpt lat="42.92758" lon="1.1895">
        <ele>670</ele>
        <time>2026-05-25T08:56:33.000Z</time>
      </trkpt>
      <trkpt lat="42.9276" lon="1.18952">
        <ele>670</ele>
        <time>2026-05-25T08:56:34.000Z</time>
      </trkpt>
      <trkpt lat="42.92763" lon="1.18953">
        <ele>670</ele>
        <time>2026-05-25T08:56:35.000Z</time>
      </trkpt>
      <trkpt lat="42.92765" lon="1.18955">
        <ele>670</ele>
        <time>2026-05-25T08:56:36.000Z</time>
      </trkpt>
      <trkpt lat="42.92767" lon="1.18957">
        <ele>670</ele>
        <time>2026-05-25T08:56:37.000Z</time>
      </trkpt>
      <trkpt lat="42.92769" lon="1.18959">
        <ele>670</ele>
        <time>2026-05-25T08:56:38.000Z</time>
      </trkpt>
      <trkpt lat="42.92771" lon="1.18962">
        <ele>670</ele>
        <time>2026-05-25T08:56:39.000Z</time>
      </trkpt>
      <trkpt lat="42.92775" lon="1.18963">
        <ele>670</ele>
        <time>2026-05-25T08:56:40.000Z</time>
      </trkpt>
      <trkpt lat="42.92778" lon="1.18966">
        <ele>670</ele>
        <time>2026-05-25T08:56:41.000Z</time>
      </trkpt>
      <trkpt lat="42.9278" lon="1.18968">
        <ele>671</ele>
        <time>2026-05-25T08:56:42.000Z</time>
      </trkpt>
      <trkpt lat="42.92784" lon="1.18971">
        <ele>671</ele>
        <time>2026-05-25T08:56:43.000Z</time>
      </trkpt>
      <trkpt lat="42.92787" lon="1.18973">
        <ele>671</ele>
        <time>2026-05-25T08:56:44.000Z</time>
      </trkpt>
      <trkpt lat="42.92791" lon="1.18976">
        <ele>671</ele>
        <time>2026-05-25T08:56:45.000Z</time>
      </trkpt>
      <trkpt lat="42.92793" lon="1.18978">
        <ele>671</ele>
        <time>2026-05-25T08:56:46.000Z</time>
      </trkpt>
      <trkpt lat="42.92796" lon="1.1898">
        <ele>671</ele>
        <time>2026-05-25T08:56:47.000Z</time>
      </trkpt>
      <trkpt lat="42.92798" lon="1.18982">
        <ele>672</ele>
        <time>2026-05-25T08:56:48.000Z</time>
      </trkpt>
      <trkpt lat="42.92801" lon="1.18984">
        <ele>672</ele>
        <time>2026-05-25T08:56:49.000Z</time>
      </trkpt>
      <trkpt lat="42.92804" lon="1.18985">
        <ele>673</ele>
        <time>2026-05-25T08:56:50.000Z</time>
      </trkpt>
      <trkpt lat="42.92806" lon="1.18986">
        <ele>673</ele>
        <time>2026-05-25T08:56:51.000Z</time>
      </trkpt>
      <trkpt lat="42.92809" lon="1.18986">
        <ele>673</ele>
        <time>2026-05-25T08:56:52.000Z</time>
      </trkpt>
      <trkpt lat="42.92812" lon="1.18987">
        <ele>674</ele>
        <time>2026-05-25T08:56:53.000Z</time>
      </trkpt>
      <trkpt lat="42.92814" lon="1.18989">
        <ele>673</ele>
        <time>2026-05-25T08:56:54.000Z</time>
      </trkpt>
      <trkpt lat="42.92816" lon="1.18991">
        <ele>674</ele>
        <time>2026-05-25T08:56:55.000Z</time>
      </trkpt>
      <trkpt lat="42.92819" lon="1.18994">
        <ele>674</ele>
        <time>2026-05-25T08:56:56.000Z</time>
      </trkpt>
      <trkpt lat="42.92822" lon="1.18996">
        <ele>674</ele>
        <time>2026-05-25T08:56:57.000Z</time>
      </trkpt>
      <trkpt lat="42.92825" lon="1.18997">
        <ele>674</ele>
        <time>2026-05-25T08:56:58.000Z</time>
      </trkpt>
      <trkpt lat="42.92828" lon="1.18997">
        <ele>673</ele>
        <time>2026-05-25T08:56:59.000Z</time>
      </trkpt>
      <trkpt lat="42.92832" lon="1.18998">
        <ele>674</ele>
        <time>2026-05-25T08:57:00.000Z</time>
      </trkpt>
      <trkpt lat="42.92835" lon="1.18997">
        <ele>674</ele>
        <time>2026-05-25T08:57:01.000Z</time>
      </trkpt>
      <trkpt lat="42.92838" lon="1.18997">
        <ele>674</ele>
        <time>2026-05-25T08:57:02.000Z</time>
      </trkpt>
      <trkpt lat="42.92841" lon="1.18997">
        <ele>674</ele>
        <time>2026-05-25T08:57:03.000Z</time>
      </trkpt>
      <trkpt lat="42.92845" lon="1.18996">
        <ele>673</ele>
        <time>2026-05-25T08:57:04.000Z</time>
      </trkpt>
      <trkpt lat="42.92848" lon="1.18995">
        <ele>673</ele>
        <time>2026-05-25T08:57:05.000Z</time>
      </trkpt>
      <trkpt lat="42.92851" lon="1.18995">
        <ele>673</ele>
        <time>2026-05-25T08:57:06.000Z</time>
      </trkpt>
      <trkpt lat="42.92854" lon="1.18996">
        <ele>673</ele>
        <time>2026-05-25T08:57:07.000Z</time>
      </trkpt>
      <trkpt lat="42.92858" lon="1.18996">
        <ele>674</ele>
        <time>2026-05-25T08:57:08.000Z</time>
      </trkpt>
      <trkpt lat="42.92862" lon="1.18996">
        <ele>674</ele>
        <time>2026-05-25T08:57:09.000Z</time>
      </trkpt>
      <trkpt lat="42.92866" lon="1.18996">
        <ele>673</ele>
        <time>2026-05-25T08:57:10.000Z</time>
      </trkpt>
      <trkpt lat="42.92869" lon="1.18996">
        <ele>673</ele>
        <time>2026-05-25T08:57:11.000Z</time>
      </trkpt>
      <trkpt lat="42.92872" lon="1.18996">
        <ele>673</ele>
        <time>2026-05-25T08:57:12.000Z</time>
      </trkpt>
      <trkpt lat="42.92875" lon="1.18996">
        <ele>673</ele>
        <time>2026-05-25T08:57:13.000Z</time>
      </trkpt>
      <trkpt lat="42.92878" lon="1.18996">
        <ele>673</ele>
        <time>2026-05-25T08:57:14.000Z</time>
      </trkpt>
      <trkpt lat="42.92881" lon="1.18996">
        <ele>673</ele>
        <time>2026-05-25T08:57:15.000Z</time>
      </trkpt>
      <trkpt lat="42.92884" lon="1.18995">
        <ele>673</ele>
        <time>2026-05-25T08:57:16.000Z</time>
      </trkpt>
      <trkpt lat="42.92887" lon="1.18996">
        <ele>674</ele>
        <time>2026-05-25T08:57:17.000Z</time>
      </trkpt>
      <trkpt lat="42.92889" lon="1.18997">
        <ele>674</ele>
        <time>2026-05-25T08:57:18.000Z</time>
      </trkpt>
      <trkpt lat="42.92892" lon="1.18998">
        <ele>675</ele>
        <time>2026-05-25T08:57:19.000Z</time>
      </trkpt>
      <trkpt lat="42.92895" lon="1.18998">
        <ele>676</ele>
        <time>2026-05-25T08:57:20.000Z</time>
      </trkpt>
      <trkpt lat="42.92897" lon="1.18999">
        <ele>676</ele>
        <time>2026-05-25T08:57:21.000Z</time>
      </trkpt>
      <trkpt lat="42.929" lon="1.19">
        <ele>676</ele>
        <time>2026-05-25T08:57:22.000Z</time>
      </trkpt>
      <trkpt lat="42.92902" lon="1.19">
        <ele>677</ele>
        <time>2026-05-25T08:57:23.000Z</time>
      </trkpt>
      <trkpt lat="42.92905" lon="1.19">
        <ele>677</ele>
        <time>2026-05-25T08:57:24.000Z</time>
      </trkpt>
      <trkpt lat="42.92907" lon="1.19">
        <ele>676</ele>
        <time>2026-05-25T08:57:25.000Z</time>
      </trkpt>
      <trkpt lat="42.9291" lon="1.19">
        <ele>676</ele>
        <time>2026-05-25T08:57:26.000Z</time>
      </trkpt>
      <trkpt lat="42.92913" lon="1.19001">
        <ele>676</ele>
        <time>2026-05-25T08:57:27.000Z</time>
      </trkpt>
      <trkpt lat="42.92916" lon="1.19001">
        <ele>677</ele>
        <time>2026-05-25T08:57:28.000Z</time>
      </trkpt>
      <trkpt lat="42.92919" lon="1.19001">
        <ele>677</ele>
        <time>2026-05-25T08:57:29.000Z</time>
      </trkpt>
      <trkpt lat="42.92922" lon="1.19002">
        <ele>678</ele>
        <time>2026-05-25T08:57:30.000Z</time>
      </trkpt>
      <trkpt lat="42.92925" lon="1.19002">
        <ele>678</ele>
        <time>2026-05-25T08:57:31.000Z</time>
      </trkpt>
      <trkpt lat="42.92928" lon="1.19002">
        <ele>679</ele>
        <time>2026-05-25T08:57:32.000Z</time>
      </trkpt>
      <trkpt lat="42.9293" lon="1.19001">
        <ele>680</ele>
        <time>2026-05-25T08:57:33.000Z</time>
      </trkpt>
      <trkpt lat="42.92931" lon="1.19001">
        <ele>680</ele>
        <time>2026-05-25T08:57:34.000Z</time>
      </trkpt>
      <trkpt lat="42.92933" lon="1.19">
        <ele>681</ele>
        <time>2026-05-25T08:57:35.000Z</time>
      </trkpt>
      <trkpt lat="42.92935" lon="1.19">
        <ele>681</ele>
        <time>2026-05-25T08:57:36.000Z</time>
      </trkpt>
      <trkpt lat="42.92937" lon="1.18999">
        <ele>682</ele>
        <time>2026-05-25T08:57:37.000Z</time>
      </trkpt>
      <trkpt lat="42.92938" lon="1.18999">
        <ele>683</ele>
        <time>2026-05-25T08:57:38.000Z</time>
      </trkpt>
      <trkpt lat="42.92941" lon="1.18999">
        <ele>683</ele>
        <time>2026-05-25T08:57:39.000Z</time>
      </trkpt>
      <trkpt lat="42.92943" lon="1.19">
        <ele>683</ele>
        <time>2026-05-25T08:57:40.000Z</time>
      </trkpt>
      <trkpt lat="42.92946" lon="1.19001">
        <ele>683</ele>
        <time>2026-05-25T08:57:41.000Z</time>
      </trkpt>
      <trkpt lat="42.92948" lon="1.19002">
        <ele>683</ele>
        <time>2026-05-25T08:57:42.000Z</time>
      </trkpt>
      <trkpt lat="42.92949" lon="1.19002">
        <ele>683</ele>
        <time>2026-05-25T08:57:43.000Z</time>
      </trkpt>
      <trkpt lat="42.9295" lon="1.19002">
        <ele>682</ele>
        <time>2026-05-25T08:57:44.000Z</time>
      </trkpt>
      <trkpt lat="42.92951" lon="1.19002">
        <ele>683</ele>
        <time>2026-05-25T08:57:45.000Z</time>
      </trkpt>
      <trkpt lat="42.92953" lon="1.19002">
        <ele>682</ele>
        <time>2026-05-25T08:57:46.000Z</time>
      </trkpt>
      <trkpt lat="42.92954" lon="1.19002">
        <ele>683</ele>
        <time>2026-05-25T08:57:47.000Z</time>
      </trkpt>
      <trkpt lat="42.92956" lon="1.19002">
        <ele>683</ele>
        <time>2026-05-25T08:57:48.000Z</time>
      </trkpt>
      <trkpt lat="42.92958" lon="1.19002">
        <ele>683</ele>
        <time>2026-05-25T08:57:49.000Z</time>
      </trkpt>
      <trkpt lat="42.9296" lon="1.19002">
        <ele>685</ele>
        <time>2026-05-25T08:57:50.000Z</time>
      </trkpt>
      <trkpt lat="42.92962" lon="1.19002">
        <ele>684</ele>
        <time>2026-05-25T08:57:51.000Z</time>
      </trkpt>
      <trkpt lat="42.92964" lon="1.19002">
        <ele>685</ele>
        <time>2026-05-25T08:57:52.000Z</time>
      </trkpt>
      <trkpt lat="42.92966" lon="1.19002">
        <ele>686</ele>
        <time>2026-05-25T08:57:53.000Z</time>
      </trkpt>
      <trkpt lat="42.92968" lon="1.19002">
        <ele>686</ele>
        <time>2026-05-25T08:57:54.000Z</time>
      </trkpt>
      <trkpt lat="42.9297" lon="1.19002">
        <ele>686</ele>
        <time>2026-05-25T08:57:55.000Z</time>
      </trkpt>
      <trkpt lat="42.92973" lon="1.19003">
        <ele>686</ele>
        <time>2026-05-25T08:57:56.000Z</time>
      </trkpt>
      <trkpt lat="42.92976" lon="1.19003">
        <ele>687</ele>
        <time>2026-05-25T08:57:57.000Z</time>
      </trkpt>
      <trkpt lat="42.92978" lon="1.19003">
        <ele>688</ele>
        <time>2026-05-25T08:57:58.000Z</time>
      </trkpt>
      <trkpt lat="42.92981" lon="1.19002">
        <ele>688</ele>
        <time>2026-05-25T08:57:59.000Z</time>
      </trkpt>
      <trkpt lat="42.92984" lon="1.19003">
        <ele>688</ele>
        <time>2026-05-25T08:58:00.000Z</time>
      </trkpt>
      <trkpt lat="42.92986" lon="1.19004">
        <ele>688</ele>
        <time>2026-05-25T08:58:01.000Z</time>
      </trkpt>
      <trkpt lat="42.92988" lon="1.19004">
        <ele>688</ele>
        <time>2026-05-25T08:58:02.000Z</time>
      </trkpt>
      <trkpt lat="42.92991" lon="1.19004">
        <ele>689</ele>
        <time>2026-05-25T08:58:03.000Z</time>
      </trkpt>
      <trkpt lat="42.92993" lon="1.19004">
        <ele>687</ele>
        <time>2026-05-25T08:58:04.000Z</time>
      </trkpt>
      <trkpt lat="42.92996" lon="1.19004">
        <ele>688</ele>
        <time>2026-05-25T08:58:05.000Z</time>
      </trkpt>
      <trkpt lat="42.92999" lon="1.19004">
        <ele>688</ele>
        <time>2026-05-25T08:58:06.000Z</time>
      </trkpt>
      <trkpt lat="42.93002" lon="1.19004">
        <ele>688</ele>
        <time>2026-05-25T08:58:07.000Z</time>
      </trkpt>
      <trkpt lat="42.93005" lon="1.19005">
        <ele>688</ele>
        <time>2026-05-25T08:58:08.000Z</time>
      </trkpt>
      <trkpt lat="42.93007" lon="1.19006">
        <ele>688</ele>
        <time>2026-05-25T08:58:09.000Z</time>
      </trkpt>
      <trkpt lat="42.93009" lon="1.19006">
        <ele>688</ele>
        <time>2026-05-25T08:58:10.000Z</time>
      </trkpt>
      <trkpt lat="42.93011" lon="1.19007">
        <ele>688</ele>
        <time>2026-05-25T08:58:11.000Z</time>
      </trkpt>
      <trkpt lat="42.93013" lon="1.19008">
        <ele>687</ele>
        <time>2026-05-25T08:58:12.000Z</time>
      </trkpt>
      <trkpt lat="42.93016" lon="1.19009">
        <ele>686</ele>
        <time>2026-05-25T08:58:13.000Z</time>
      </trkpt>
      <trkpt lat="42.93018" lon="1.19009">
        <ele>685</ele>
        <time>2026-05-25T08:58:14.000Z</time>
      </trkpt>
      <trkpt lat="42.93021" lon="1.19009">
        <ele>686</ele>
        <time>2026-05-25T08:58:15.000Z</time>
      </trkpt>
      <trkpt lat="42.93023" lon="1.19008">
        <ele>686</ele>
        <time>2026-05-25T08:58:16.000Z</time>
      </trkpt>
      <trkpt lat="42.93026" lon="1.19007">
        <ele>685</ele>
        <time>2026-05-25T08:58:17.000Z</time>
      </trkpt>
      <trkpt lat="42.93029" lon="1.19005">
        <ele>685</ele>
        <time>2026-05-25T08:58:18.000Z</time>
      </trkpt>
      <trkpt lat="42.93032" lon="1.19002">
        <ele>684</ele>
        <time>2026-05-25T08:58:19.000Z</time>
      </trkpt>
      <trkpt lat="42.93035" lon="1.19">
        <ele>684</ele>
        <time>2026-05-25T08:58:20.000Z</time>
      </trkpt>
      <trkpt lat="42.93038" lon="1.18998">
        <ele>684</ele>
        <time>2026-05-25T08:58:21.000Z</time>
      </trkpt>
      <trkpt lat="42.9304" lon="1.18996">
        <ele>685</ele>
        <time>2026-05-25T08:58:22.000Z</time>
      </trkpt>
      <trkpt lat="42.93042" lon="1.18994">
        <ele>685</ele>
        <time>2026-05-25T08:58:23.000Z</time>
      </trkpt>
      <trkpt lat="42.93044" lon="1.18993">
        <ele>685</ele>
        <time>2026-05-25T08:58:24.000Z</time>
      </trkpt>
      <trkpt lat="42.93046" lon="1.18992">
        <ele>685</ele>
        <time>2026-05-25T08:58:25.000Z</time>
      </trkpt>
      <trkpt lat="42.93047" lon="1.18991">
        <ele>686</ele>
        <time>2026-05-25T08:58:26.000Z</time>
      </trkpt>
      <trkpt lat="42.93048" lon="1.1899">
        <ele>686</ele>
        <time>2026-05-25T08:58:27.000Z</time>
      </trkpt>
      <trkpt lat="42.93049" lon="1.18989">
        <ele>686</ele>
        <time>2026-05-25T08:58:28.000Z</time>
      </trkpt>
      <trkpt lat="42.9305" lon="1.18988">
        <ele>686</ele>
        <time>2026-05-25T08:58:29.000Z</time>
      </trkpt>
      <trkpt lat="42.93052" lon="1.18987">
        <ele>685</ele>
        <time>2026-05-25T08:58:30.000Z</time>
      </trkpt>
      <trkpt lat="42.93054" lon="1.18985">
        <ele>685</ele>
        <time>2026-05-25T08:58:31.000Z</time>
      </trkpt>
      <trkpt lat="42.93056" lon="1.18984">
        <ele>685</ele>
        <time>2026-05-25T08:58:32.000Z</time>
      </trkpt>
      <trkpt lat="42.93058" lon="1.18982">
        <ele>684</ele>
        <time>2026-05-25T08:58:33.000Z</time>
      </trkpt>
      <trkpt lat="42.93059" lon="1.18982">
        <ele>685</ele>
        <time>2026-05-25T08:58:34.000Z</time>
      </trkpt>
      <trkpt lat="42.93061" lon="1.18982">
        <ele>685</ele>
        <time>2026-05-25T08:58:35.000Z</time>
      </trkpt>
      <trkpt lat="42.93064" lon="1.18982">
        <ele>685</ele>
        <time>2026-05-25T08:58:36.000Z</time>
      </trkpt>
      <trkpt lat="42.93065" lon="1.18982">
        <ele>685</ele>
        <time>2026-05-25T08:58:37.000Z</time>
      </trkpt>
      <trkpt lat="42.93066" lon="1.18982">
        <ele>685</ele>
        <time>2026-05-25T08:58:38.000Z</time>
      </trkpt>
      <trkpt lat="42.93068" lon="1.18981">
        <ele>686</ele>
        <time>2026-05-25T08:58:39.000Z</time>
      </trkpt>
      <trkpt lat="42.9307" lon="1.1898">
        <ele>686</ele>
        <time>2026-05-25T08:58:40.000Z</time>
      </trkpt>
      <trkpt lat="42.93072" lon="1.1898">
        <ele>686</ele>
        <time>2026-05-25T08:58:41.000Z</time>
      </trkpt>
      <trkpt lat="42.93074" lon="1.18978">
        <ele>687</ele>
        <time>2026-05-25T08:58:42.000Z</time>
      </trkpt>
      <trkpt lat="42.93076" lon="1.18977">
        <ele>687</ele>
        <time>2026-05-25T08:58:43.000Z</time>
      </trkpt>
      <trkpt lat="42.93077" lon="1.18976">
        <ele>688</ele>
        <time>2026-05-25T08:58:44.000Z</time>
      </trkpt>
      <trkpt lat="42.93078" lon="1.18976">
        <ele>688</ele>
        <time>2026-05-25T08:58:45.000Z</time>
      </trkpt>
      <trkpt lat="42.9308" lon="1.18975">
        <ele>689</ele>
        <time>2026-05-25T08:58:46.000Z</time>
      </trkpt>
      <trkpt lat="42.93082" lon="1.18973">
        <ele>689</ele>
        <time>2026-05-25T08:58:47.000Z</time>
      </trkpt>
      <trkpt lat="42.93083" lon="1.18972">
        <ele>688</ele>
        <time>2026-05-25T08:58:48.000Z</time>
      </trkpt>
      <trkpt lat="42.93084" lon="1.1897">
        <ele>688</ele>
        <time>2026-05-25T08:58:49.000Z</time>
      </trkpt>
      <trkpt lat="42.93085" lon="1.18969">
        <ele>689</ele>
        <time>2026-05-25T08:58:50.000Z</time>
      </trkpt>
      <trkpt lat="42.93087" lon="1.18967">
        <ele>689</ele>
        <time>2026-05-25T08:58:51.000Z</time>
      </trkpt>
      <trkpt lat="42.93088" lon="1.18966">
        <ele>689</ele>
        <time>2026-05-25T08:58:52.000Z</time>
      </trkpt>
      <trkpt lat="42.9309" lon="1.18966">
        <ele>689</ele>
        <time>2026-05-25T08:58:53.000Z</time>
      </trkpt>
      <trkpt lat="42.93092" lon="1.18966">
        <ele>690</ele>
        <time>2026-05-25T08:58:54.000Z</time>
      </trkpt>
      <trkpt lat="42.93094" lon="1.18965">
        <ele>690</ele>
        <time>2026-05-25T08:58:55.000Z</time>
      </trkpt>
      <trkpt lat="42.93095" lon="1.18964">
        <ele>690</ele>
        <time>2026-05-25T08:58:56.000Z</time>
      </trkpt>
      <trkpt lat="42.93097" lon="1.18963">
        <ele>690</ele>
        <time>2026-05-25T08:58:57.000Z</time>
      </trkpt>
      <trkpt lat="42.93098" lon="1.18963">
        <ele>690</ele>
        <time>2026-05-25T08:58:58.000Z</time>
      </trkpt>
      <trkpt lat="42.93099" lon="1.18962">
        <ele>691</ele>
        <time>2026-05-25T08:58:59.000Z</time>
      </trkpt>
      <trkpt lat="42.93101" lon="1.18962">
        <ele>691</ele>
        <time>2026-05-25T08:59:00.000Z</time>
      </trkpt>
      <trkpt lat="42.93103" lon="1.18962">
        <ele>691</ele>
        <time>2026-05-25T08:59:01.000Z</time>
      </trkpt>
      <trkpt lat="42.93105" lon="1.18961">
        <ele>692</ele>
        <time>2026-05-25T08:59:02.000Z</time>
      </trkpt>
      <trkpt lat="42.93107" lon="1.1896">
        <ele>692</ele>
        <time>2026-05-25T08:59:03.000Z</time>
      </trkpt>
      <trkpt lat="42.93109" lon="1.1896">
        <ele>693</ele>
        <time>2026-05-25T08:59:04.000Z</time>
      </trkpt>
      <trkpt lat="42.93111" lon="1.18959">
        <ele>693</ele>
        <time>2026-05-25T08:59:05.000Z</time>
      </trkpt>
      <trkpt lat="42.93113" lon="1.18959">
        <ele>693</ele>
        <time>2026-05-25T08:59:06.000Z</time>
      </trkpt>
      <trkpt lat="42.93115" lon="1.18959">
        <ele>694</ele>
        <time>2026-05-25T08:59:07.000Z</time>
      </trkpt>
      <trkpt lat="42.93117" lon="1.18959">
        <ele>695</ele>
        <time>2026-05-25T08:59:08.000Z</time>
      </trkpt>
      <trkpt lat="42.93119" lon="1.1896">
        <ele>695</ele>
        <time>2026-05-25T08:59:09.000Z</time>
      </trkpt>
      <trkpt lat="42.93122" lon="1.18959">
        <ele>696</ele>
        <time>2026-05-25T08:59:10.000Z</time>
      </trkpt>
      <trkpt lat="42.93123" lon="1.18958">
        <ele>696</ele>
        <time>2026-05-25T08:59:11.000Z</time>
      </trkpt>
      <trkpt lat="42.93125" lon="1.18957">
        <ele>697</ele>
        <time>2026-05-25T08:59:12.000Z</time>
      </trkpt>
      <trkpt lat="42.93126" lon="1.18957">
        <ele>697</ele>
        <time>2026-05-25T08:59:13.000Z</time>
      </trkpt>
      <trkpt lat="42.93128" lon="1.18956">
        <ele>698</ele>
        <time>2026-05-25T08:59:14.000Z</time>
      </trkpt>
      <trkpt lat="42.93129" lon="1.18955">
        <ele>698</ele>
        <time>2026-05-25T08:59:15.000Z</time>
      </trkpt>
      <trkpt lat="42.9313" lon="1.18954">
        <ele>698</ele>
        <time>2026-05-25T08:59:16.000Z</time>
      </trkpt>
      <trkpt lat="42.93131" lon="1.18953">
        <ele>698</ele>
        <time>2026-05-25T08:59:17.000Z</time>
      </trkpt>
      <trkpt lat="42.93132" lon="1.18951">
        <ele>698</ele>
        <time>2026-05-25T08:59:18.000Z</time>
      </trkpt>
      <trkpt lat="42.93134" lon="1.18951">
        <ele>698</ele>
        <time>2026-05-25T08:59:19.000Z</time>
      </trkpt>
      <trkpt lat="42.93135" lon="1.1895">
        <ele>698</ele>
        <time>2026-05-25T08:59:20.000Z</time>
      </trkpt>
      <trkpt lat="42.93137" lon="1.1895">
        <ele>698</ele>
        <time>2026-05-25T08:59:21.000Z</time>
      </trkpt>
      <trkpt lat="42.93139" lon="1.1895">
        <ele>698</ele>
        <time>2026-05-25T08:59:22.000Z</time>
      </trkpt>
      <trkpt lat="42.9314" lon="1.1895">
        <ele>699</ele>
        <time>2026-05-25T08:59:23.000Z</time>
      </trkpt>
      <trkpt lat="42.93142" lon="1.18949">
        <ele>699</ele>
        <time>2026-05-25T08:59:24.000Z</time>
      </trkpt>
      <trkpt lat="42.93143" lon="1.18947">
        <ele>700</ele>
        <time>2026-05-25T08:59:25.000Z</time>
      </trkpt>
      <trkpt lat="42.93144" lon="1.18946">
        <ele>701</ele>
        <time>2026-05-25T08:59:26.000Z</time>
      </trkpt>
      <trkpt lat="42.93146" lon="1.18945">
        <ele>701</ele>
        <time>2026-05-25T08:59:27.000Z</time>
      </trkpt>
      <trkpt lat="42.93147" lon="1.18944">
        <ele>701</ele>
        <time>2026-05-25T08:59:28.000Z</time>
      </trkpt>
      <trkpt lat="42.93148" lon="1.18943">
        <ele>701</ele>
        <time>2026-05-25T08:59:29.000Z</time>
      </trkpt>
      <trkpt lat="42.93149" lon="1.18943">
        <ele>702</ele>
        <time>2026-05-25T08:59:30.000Z</time>
      </trkpt>
      <trkpt lat="42.9315" lon="1.18942">
        <ele>702</ele>
        <time>2026-05-25T08:59:31.000Z</time>
      </trkpt>
      <trkpt lat="42.93151" lon="1.18941">
        <ele>702</ele>
        <time>2026-05-25T08:59:32.000Z</time>
      </trkpt>
      <trkpt lat="42.93151" lon="1.1894">
        <ele>702</ele>
        <time>2026-05-25T08:59:33.000Z</time>
      </trkpt>
      <trkpt lat="42.93153" lon="1.18939">
        <ele>703</ele>
        <time>2026-05-25T08:59:34.000Z</time>
      </trkpt>
      <trkpt lat="42.93154" lon="1.18938">
        <ele>703</ele>
        <time>2026-05-25T08:59:35.000Z</time>
      </trkpt>
      <trkpt lat="42.93155" lon="1.18937">
        <ele>704</ele>
        <time>2026-05-25T08:59:36.000Z</time>
      </trkpt>
      <trkpt lat="42.93157" lon="1.18936">
        <ele>704</ele>
        <time>2026-05-25T08:59:37.000Z</time>
      </trkpt>
      <trkpt lat="42.93158" lon="1.18935">
        <ele>704</ele>
        <time>2026-05-25T08:59:38.000Z</time>
      </trkpt>
      <trkpt lat="42.9316" lon="1.18935">
        <ele>705</ele>
        <time>2026-05-25T08:59:39.000Z</time>
      </trkpt>
      <trkpt lat="42.93161" lon="1.18935">
        <ele>705</ele>
        <time>2026-05-25T08:59:40.000Z</time>
      </trkpt>
      <trkpt lat="42.93161" lon="1.18934">
        <ele>706</ele>
        <time>2026-05-25T08:59:41.000Z</time>
      </trkpt>
      <trkpt lat="42.93163" lon="1.18934">
        <ele>705</ele>
        <time>2026-05-25T08:59:42.000Z</time>
      </trkpt>
      <trkpt lat="42.93164" lon="1.18934">
        <ele>705</ele>
        <time>2026-05-25T08:59:43.000Z</time>
      </trkpt>
      <trkpt lat="42.93165" lon="1.18934">
        <ele>705</ele>
        <time>2026-05-25T08:59:44.000Z</time>
      </trkpt>
      <trkpt lat="42.93166" lon="1.18934">
        <ele>706</ele>
        <time>2026-05-25T08:59:45.000Z</time>
      </trkpt>
      <trkpt lat="42.93167" lon="1.18934">
        <ele>707</ele>
        <time>2026-05-25T08:59:46.000Z</time>
      </trkpt>
      <trkpt lat="42.93168" lon="1.18934">
        <ele>707</ele>
        <time>2026-05-25T08:59:47.000Z</time>
      </trkpt>
      <trkpt lat="42.93169" lon="1.18934">
        <ele>708</ele>
        <time>2026-05-25T08:59:48.000Z</time>
      </trkpt>
      <trkpt lat="42.93171" lon="1.18934">
        <ele>709</ele>
        <time>2026-05-25T08:59:49.000Z</time>
      </trkpt>
      <trkpt lat="42.93172" lon="1.18934">
        <ele>709</ele>
        <time>2026-05-25T08:59:50.000Z</time>
      </trkpt>
      <trkpt lat="42.93174" lon="1.18935">
        <ele>708</ele>
        <time>2026-05-25T08:59:51.000Z</time>
      </trkpt>
      <trkpt lat="42.93175" lon="1.18935">
        <ele>708</ele>
        <time>2026-05-25T08:59:52.000Z</time>
      </trkpt>
      <trkpt lat="42.93177" lon="1.18934">
        <ele>708</ele>
        <time>2026-05-25T08:59:53.000Z</time>
      </trkpt>
      <trkpt lat="42.93178" lon="1.18934">
        <ele>708</ele>
        <time>2026-05-25T08:59:54.000Z</time>
      </trkpt>
      <trkpt lat="42.9318" lon="1.18933">
        <ele>708</ele>
        <time>2026-05-25T08:59:55.000Z</time>
      </trkpt>
      <trkpt lat="42.93181" lon="1.18933">
        <ele>708</ele>
        <time>2026-05-25T08:59:56.000Z</time>
      </trkpt>
      <trkpt lat="42.93182" lon="1.18932">
        <ele>708</ele>
        <time>2026-05-25T08:59:57.000Z</time>
      </trkpt>
      <trkpt lat="42.93183" lon="1.18931">
        <ele>708</ele>
        <time>2026-05-25T08:59:58.000Z</time>
      </trkpt>
      <trkpt lat="42.93185" lon="1.18932">
        <ele>709</ele>
        <time>2026-05-25T08:59:59.000Z</time>
      </trkpt>
      <trkpt lat="42.93186" lon="1.18931">
        <ele>709</ele>
        <time>2026-05-25T09:00:00.000Z</time>
      </trkpt>
      <trkpt lat="42.93187" lon="1.18931">
        <ele>709</ele>
        <time>2026-05-25T09:00:01.000Z</time>
      </trkpt>
      <trkpt lat="42.93188" lon="1.1893">
        <ele>709</ele>
        <time>2026-05-25T09:00:02.000Z</time>
      </trkpt>
      <trkpt lat="42.9319" lon="1.1893">
        <ele>710</ele>
        <time>2026-05-25T09:00:03.000Z</time>
      </trkpt>
      <trkpt lat="42.93191" lon="1.18931">
        <ele>710</ele>
        <time>2026-05-25T09:00:04.000Z</time>
      </trkpt>
      <trkpt lat="42.93193" lon="1.18931">
        <ele>711</ele>
        <time>2026-05-25T09:00:05.000Z</time>
      </trkpt>
      <trkpt lat="42.93195" lon="1.18931">
        <ele>711</ele>
        <time>2026-05-25T09:00:06.000Z</time>
      </trkpt>
      <trkpt lat="42.93196" lon="1.18932">
        <ele>711</ele>
        <time>2026-05-25T09:00:07.000Z</time>
      </trkpt>
      <trkpt lat="42.93198" lon="1.18933">
        <ele>712</ele>
        <time>2026-05-25T09:00:08.000Z</time>
      </trkpt>
      <trkpt lat="42.93199" lon="1.18933">
        <ele>712</ele>
        <time>2026-05-25T09:00:09.000Z</time>
      </trkpt>
      <trkpt lat="42.932" lon="1.18933">
        <ele>713</ele>
        <time>2026-05-25T09:00:10.000Z</time>
      </trkpt>
      <trkpt lat="42.93202" lon="1.18934">
        <ele>712</ele>
        <time>2026-05-25T09:00:11.000Z</time>
      </trkpt>
      <trkpt lat="42.93204" lon="1.18934">
        <ele>713</ele>
        <time>2026-05-25T09:00:12.000Z</time>
      </trkpt>
      <trkpt lat="42.93205" lon="1.18933">
        <ele>712</ele>
        <time>2026-05-25T09:00:13.000Z</time>
      </trkpt>
      <trkpt lat="42.93206" lon="1.18933">
        <ele>712</ele>
        <time>2026-05-25T09:00:14.000Z</time>
      </trkpt>
      <trkpt lat="42.93208" lon="1.18932">
        <ele>713</ele>
        <time>2026-05-25T09:00:15.000Z</time>
      </trkpt>
      <trkpt lat="42.9321" lon="1.18932">
        <ele>713</ele>
        <time>2026-05-25T09:00:16.000Z</time>
      </trkpt>
      <trkpt lat="42.93212" lon="1.18932">
        <ele>713</ele>
        <time>2026-05-25T09:00:17.000Z</time>
      </trkpt>
      <trkpt lat="42.93214" lon="1.18934">
        <ele>712</ele>
        <time>2026-05-25T09:00:18.000Z</time>
      </trkpt>
      <trkpt lat="42.93216" lon="1.18935">
        <ele>713</ele>
        <time>2026-05-25T09:00:19.000Z</time>
      </trkpt>
      <trkpt lat="42.93218" lon="1.18936">
        <ele>713</ele>
        <time>2026-05-25T09:00:20.000Z</time>
      </trkpt>
      <trkpt lat="42.93219" lon="1.18937">
        <ele>713</ele>
        <time>2026-05-25T09:00:21.000Z</time>
      </trkpt>
      <trkpt lat="42.93222" lon="1.18939">
        <ele>713</ele>
        <time>2026-05-25T09:00:22.000Z</time>
      </trkpt>
      <trkpt lat="42.93225" lon="1.1894">
        <ele>713</ele>
        <time>2026-05-25T09:00:23.000Z</time>
      </trkpt>
      <trkpt lat="42.93227" lon="1.18942">
        <ele>713</ele>
        <time>2026-05-25T09:00:24.000Z</time>
      </trkpt>
      <trkpt lat="42.93229" lon="1.18943">
        <ele>714</ele>
        <time>2026-05-25T09:00:25.000Z</time>
      </trkpt>
      <trkpt lat="42.9323" lon="1.18943">
        <ele>714</ele>
        <time>2026-05-25T09:00:26.000Z</time>
      </trkpt>
      <trkpt lat="42.93232" lon="1.18944">
        <ele>714</ele>
        <time>2026-05-25T09:00:27.000Z</time>
      </trkpt>
      <trkpt lat="42.93234" lon="1.18945">
        <ele>714</ele>
        <time>2026-05-25T09:00:28.000Z</time>
      </trkpt>
      <trkpt lat="42.93236" lon="1.18945">
        <ele>715</ele>
        <time>2026-05-25T09:00:29.000Z</time>
      </trkpt>
      <trkpt lat="42.93237" lon="1.18945">
        <ele>715</ele>
        <time>2026-05-25T09:00:30.000Z</time>
      </trkpt>
      <trkpt lat="42.9324" lon="1.18945">
        <ele>715</ele>
        <time>2026-05-25T09:00:31.000Z</time>
      </trkpt>
      <trkpt lat="42.93242" lon="1.18946">
        <ele>715</ele>
        <time>2026-05-25T09:00:32.000Z</time>
      </trkpt>
      <trkpt lat="42.93244" lon="1.18947">
        <ele>716</ele>
        <time>2026-05-25T09:00:33.000Z</time>
      </trkpt>
      <trkpt lat="42.93246" lon="1.18949">
        <ele>716</ele>
        <time>2026-05-25T09:00:34.000Z</time>
      </trkpt>
      <trkpt lat="42.93248" lon="1.1895">
        <ele>716</ele>
        <time>2026-05-25T09:00:35.000Z</time>
      </trkpt>
      <trkpt lat="42.93249" lon="1.18951">
        <ele>716</ele>
        <time>2026-05-25T09:00:36.000Z</time>
      </trkpt>
      <trkpt lat="42.9325" lon="1.18951">
        <ele>716</ele>
        <time>2026-05-25T09:00:37.000Z</time>
      </trkpt>
      <trkpt lat="42.93251" lon="1.18952">
        <ele>716</ele>
        <time>2026-05-25T09:00:38.000Z</time>
      </trkpt>
      <trkpt lat="42.93252" lon="1.18953">
        <ele>716</ele>
        <time>2026-05-25T09:00:39.000Z</time>
      </trkpt>
      <trkpt lat="42.93254" lon="1.18954">
        <ele>716</ele>
        <time>2026-05-25T09:00:40.000Z</time>
      </trkpt>
      <trkpt lat="42.93255" lon="1.18956">
        <ele>715</ele>
        <time>2026-05-25T09:00:41.000Z</time>
      </trkpt>
      <trkpt lat="42.93257" lon="1.18956">
        <ele>715</ele>
        <time>2026-05-25T09:00:42.000Z</time>
      </trkpt>
      <trkpt lat="42.93258" lon="1.18958">
        <ele>715</ele>
        <time>2026-05-25T09:00:43.000Z</time>
      </trkpt>
      <trkpt lat="42.9326" lon="1.18959">
        <ele>715</ele>
        <time>2026-05-25T09:00:44.000Z</time>
      </trkpt>
      <trkpt lat="42.93262" lon="1.1896">
        <ele>715</ele>
        <time>2026-05-25T09:00:45.000Z</time>
      </trkpt>
      <trkpt lat="42.93264" lon="1.1896">
        <ele>715</ele>
        <time>2026-05-25T09:00:46.000Z</time>
      </trkpt>
      <trkpt lat="42.93265" lon="1.18961">
        <ele>716</ele>
        <time>2026-05-25T09:00:47.000Z</time>
      </trkpt>
      <trkpt lat="42.93266" lon="1.18961">
        <ele>716</ele>
        <time>2026-05-25T09:00:48.000Z</time>
      </trkpt>
      <trkpt lat="42.93268" lon="1.18962">
        <ele>716</ele>
        <time>2026-05-25T09:00:49.000Z</time>
      </trkpt>
      <trkpt lat="42.9327" lon="1.18963">
        <ele>717</ele>
        <time>2026-05-25T09:00:50.000Z</time>
      </trkpt>
      <trkpt lat="42.93272" lon="1.18964">
        <ele>717</ele>
        <time>2026-05-25T09:00:51.000Z</time>
      </trkpt>
      <trkpt lat="42.93273" lon="1.18965">
        <ele>717</ele>
        <time>2026-05-25T09:00:52.000Z</time>
      </trkpt>
      <trkpt lat="42.93275" lon="1.18966">
        <ele>716</ele>
        <time>2026-05-25T09:00:53.000Z</time>
      </trkpt>
      <trkpt lat="42.93275" lon="1.18966">
        <ele>717</ele>
        <time>2026-05-25T09:00:54.000Z</time>
      </trkpt>
      <trkpt lat="42.93276" lon="1.18967">
        <ele>716</ele>
        <time>2026-05-25T09:00:55.000Z</time>
      </trkpt>
      <trkpt lat="42.93276" lon="1.18968">
        <ele>715</ele>
        <time>2026-05-25T09:00:56.000Z</time>
      </trkpt>
      <trkpt lat="42.93278" lon="1.18969">
        <ele>716</ele>
        <time>2026-05-25T09:00:57.000Z</time>
      </trkpt>
      <trkpt lat="42.93278" lon="1.18968">
        <ele>716</ele>
        <time>2026-05-25T09:00:58.000Z</time>
      </trkpt>
      <trkpt lat="42.93279" lon="1.18967">
        <ele>716</ele>
        <time>2026-05-25T09:00:59.000Z</time>
      </trkpt>
      <trkpt lat="42.9328" lon="1.18967">
        <ele>716</ele>
        <time>2026-05-25T09:01:00.000Z</time>
      </trkpt>
      <trkpt lat="42.9328" lon="1.18967">
        <ele>715</ele>
        <time>2026-05-25T09:01:01.000Z</time>
      </trkpt>
      <trkpt lat="42.9328" lon="1.18968">
        <ele>714</ele>
        <time>2026-05-25T09:01:02.000Z</time>
      </trkpt>
      <trkpt lat="42.93281" lon="1.18968">
        <ele>715</ele>
        <time>2026-05-25T09:01:03.000Z</time>
      </trkpt>
      <trkpt lat="42.93282" lon="1.18968">
        <ele>715</ele>
        <time>2026-05-25T09:01:04.000Z</time>
      </trkpt>
      <trkpt lat="42.93284" lon="1.18969">
        <ele>715</ele>
        <time>2026-05-25T09:01:05.000Z</time>
      </trkpt>
      <trkpt lat="42.93284" lon="1.18969">
        <ele>715</ele>
        <time>2026-05-25T09:01:06.000Z</time>
      </trkpt>
      <trkpt lat="42.93284" lon="1.1897">
        <ele>715</ele>
        <time>2026-05-25T09:01:07.000Z</time>
      </trkpt>
      <trkpt lat="42.93284" lon="1.1897">
        <ele>716</ele>
        <time>2026-05-25T09:01:08.000Z</time>
      </trkpt>
      <trkpt lat="42.93284" lon="1.1897">
        <ele>716</ele>
        <time>2026-05-25T09:01:09.000Z</time>
      </trkpt>
      <trkpt lat="42.93284" lon="1.1897">
        <ele>716</ele>
        <time>2026-05-25T09:01:10.000Z</time>
      </trkpt>
      <trkpt lat="42.93285" lon="1.1897">
        <ele>716</ele>
        <time>2026-05-25T09:01:11.000Z</time>
      </trkpt>
      <trkpt lat="42.93284" lon="1.18971">
        <ele>716</ele>
        <time>2026-05-25T09:01:12.000Z</time>
      </trkpt>
      <trkpt lat="42.93284" lon="1.18971">
        <ele>715</ele>
        <time>2026-05-25T09:01:13.000Z</time>
      </trkpt>
      <trkpt lat="42.93284" lon="1.18971">
        <ele>715</ele>
        <time>2026-05-25T09:01:14.000Z</time>
      </trkpt>
      <trkpt lat="42.93285" lon="1.18971">
        <ele>715</ele>
        <time>2026-05-25T09:01:15.000Z</time>
      </trkpt>
      <trkpt lat="42.93285" lon="1.18971">
        <ele>715</ele>
        <time>2026-05-25T09:01:16.000Z</time>
      </trkpt>
      <trkpt lat="42.93285" lon="1.18971">
        <ele>715</ele>
        <time>2026-05-25T09:01:17.000Z</time>
      </trkpt>
      <trkpt lat="42.93285" lon="1.18972">
        <ele>715</ele>
        <time>2026-05-25T09:01:18.000Z</time>
      </trkpt>
      <trkpt lat="42.93285" lon="1.18972">
        <ele>715</ele>
        <time>2026-05-25T09:01:19.000Z</time>
      </trkpt>
      <trkpt lat="42.93285" lon="1.18972">
        <ele>715</ele>
        <time>2026-05-25T09:01:20.000Z</time>
      </trkpt>
      <trkpt lat="42.93287" lon="1.18969">
        <ele>717</ele>
        <time>2026-05-25T09:01:21.000Z</time>
      </trkpt>
      <trkpt lat="42.93288" lon="1.18967">
        <ele>717</ele>
        <time>2026-05-25T09:01:22.000Z</time>
      </trkpt>
      <trkpt lat="42.93288" lon="1.18967">
        <ele>717</ele>
        <time>2026-05-25T09:01:23.000Z</time>
      </trkpt>
      <trkpt lat="42.93289" lon="1.18966">
        <ele>719</ele>
        <time>2026-05-25T09:01:24.000Z</time>
      </trkpt>
      <trkpt lat="42.93289" lon="1.18966">
        <ele>718</ele>
        <time>2026-05-25T09:01:25.000Z</time>
      </trkpt>
      <trkpt lat="42.93292" lon="1.18967">
        <ele>723</ele>
        <time>2026-05-25T09:01:39.000Z</time>
      </trkpt>
      <trkpt lat="42.93293" lon="1.18968">
        <ele>723</ele>
        <time>2026-05-25T09:01:40.000Z</time>
      </trkpt>
      <trkpt lat="42.93295" lon="1.1897">
        <ele>722</ele>
        <time>2026-05-25T09:01:41.000Z</time>
      </trkpt>
      <trkpt lat="42.93296" lon="1.18972">
        <ele>722</ele>
        <time>2026-05-25T09:01:42.000Z</time>
      </trkpt>
      <trkpt lat="42.93298" lon="1.18974">
        <ele>723</ele>
        <time>2026-05-25T09:01:43.000Z</time>
      </trkpt>
      <trkpt lat="42.93299" lon="1.18975">
        <ele>723</ele>
        <time>2026-05-25T09:01:44.000Z</time>
      </trkpt>
      <trkpt lat="42.93302" lon="1.18976">
        <ele>723</ele>
        <time>2026-05-25T09:01:45.000Z</time>
      </trkpt>
      <trkpt lat="42.93303" lon="1.18977">
        <ele>723</ele>
        <time>2026-05-25T09:01:46.000Z</time>
      </trkpt>
      <trkpt lat="42.93304" lon="1.18979">
        <ele>723</ele>
        <time>2026-05-25T09:01:47.000Z</time>
      </trkpt>
      <trkpt lat="42.93305" lon="1.1898">
        <ele>723</ele>
        <time>2026-05-25T09:01:48.000Z</time>
      </trkpt>
      <trkpt lat="42.93306" lon="1.18982">
        <ele>722</ele>
        <time>2026-05-25T09:01:49.000Z</time>
      </trkpt>
      <trkpt lat="42.93307" lon="1.18984">
        <ele>722</ele>
        <time>2026-05-25T09:01:50.000Z</time>
      </trkpt>
      <trkpt lat="42.93308" lon="1.18985">
        <ele>722</ele>
        <time>2026-05-25T09:01:51.000Z</time>
      </trkpt>
      <trkpt lat="42.93309" lon="1.18987">
        <ele>722</ele>
        <time>2026-05-25T09:01:52.000Z</time>
      </trkpt>
      <trkpt lat="42.93311" lon="1.18989">
        <ele>722</ele>
        <time>2026-05-25T09:01:53.000Z</time>
      </trkpt>
      <trkpt lat="42.93311" lon="1.1899">
        <ele>722</ele>
        <time>2026-05-25T09:01:54.000Z</time>
      </trkpt>
      <trkpt lat="42.93313" lon="1.18993">
        <ele>722</ele>
        <time>2026-05-25T09:01:55.000Z</time>
      </trkpt>
      <trkpt lat="42.93314" lon="1.18995">
        <ele>722</ele>
        <time>2026-05-25T09:01:56.000Z</time>
      </trkpt>
      <trkpt lat="42.93315" lon="1.18997">
        <ele>722</ele>
        <time>2026-05-25T09:01:57.000Z</time>
      </trkpt>
      <trkpt lat="42.93316" lon="1.18999">
        <ele>721</ele>
        <time>2026-05-25T09:01:58.000Z</time>
      </trkpt>
      <trkpt lat="42.93318" lon="1.19002">
        <ele>721</ele>
        <time>2026-05-25T09:01:59.000Z</time>
      </trkpt>
      <trkpt lat="42.93319" lon="1.19004">
        <ele>721</ele>
        <time>2026-05-25T09:02:00.000Z</time>
      </trkpt>
      <trkpt lat="42.93319" lon="1.19007">
        <ele>721</ele>
        <time>2026-05-25T09:02:01.000Z</time>
      </trkpt>
      <trkpt lat="42.9332" lon="1.1901">
        <ele>721</ele>
        <time>2026-05-25T09:02:02.000Z</time>
      </trkpt>
      <trkpt lat="42.93321" lon="1.19012">
        <ele>722</ele>
        <time>2026-05-25T09:02:03.000Z</time>
      </trkpt>
      <trkpt lat="42.93322" lon="1.19015">
        <ele>721</ele>
        <time>2026-05-25T09:02:04.000Z</time>
      </trkpt>
      <trkpt lat="42.93324" lon="1.19018">
        <ele>721</ele>
        <time>2026-05-25T09:02:05.000Z</time>
      </trkpt>
      <trkpt lat="42.93325" lon="1.1902">
        <ele>721</ele>
        <time>2026-05-25T09:02:06.000Z</time>
      </trkpt>
      <trkpt lat="42.93326" lon="1.19022">
        <ele>721</ele>
        <time>2026-05-25T09:02:07.000Z</time>
      </trkpt>
      <trkpt lat="42.93327" lon="1.19025">
        <ele>721</ele>
        <time>2026-05-25T09:02:08.000Z</time>
      </trkpt>
      <trkpt lat="42.93328" lon="1.19027">
        <ele>721</ele>
        <time>2026-05-25T09:02:09.000Z</time>
      </trkpt>
      <trkpt lat="42.93329" lon="1.19029">
        <ele>721</ele>
        <time>2026-05-25T09:02:10.000Z</time>
      </trkpt>
      <trkpt lat="42.93329" lon="1.19031">
        <ele>721</ele>
        <time>2026-05-25T09:02:11.000Z</time>
      </trkpt>
      <trkpt lat="42.93329" lon="1.19034">
        <ele>720</ele>
        <time>2026-05-25T09:02:12.000Z</time>
      </trkpt>
      <trkpt lat="42.93329" lon="1.19036">
        <ele>720</ele>
        <time>2026-05-25T09:02:13.000Z</time>
      </trkpt>
      <trkpt lat="42.9333" lon="1.19038">
        <ele>721</ele>
        <time>2026-05-25T09:02:14.000Z</time>
      </trkpt>
      <trkpt lat="42.9333" lon="1.1904">
        <ele>721</ele>
        <time>2026-05-25T09:02:15.000Z</time>
      </trkpt>
      <trkpt lat="42.93331" lon="1.19042">
        <ele>721</ele>
        <time>2026-05-25T09:02:16.000Z</time>
      </trkpt>
      <trkpt lat="42.93332" lon="1.19044">
        <ele>721</ele>
        <time>2026-05-25T09:02:17.000Z</time>
      </trkpt>
      <trkpt lat="42.93332" lon="1.19047">
        <ele>721</ele>
        <time>2026-05-25T09:02:18.000Z</time>
      </trkpt>
      <trkpt lat="42.93333" lon="1.1905">
        <ele>721</ele>
        <time>2026-05-25T09:02:19.000Z</time>
      </trkpt>
      <trkpt lat="42.93334" lon="1.19052">
        <ele>721</ele>
        <time>2026-05-25T09:02:20.000Z</time>
      </trkpt>
      <trkpt lat="42.93335" lon="1.19054">
        <ele>721</ele>
        <time>2026-05-25T09:02:21.000Z</time>
      </trkpt>
      <trkpt lat="42.93336" lon="1.19058">
        <ele>721</ele>
        <time>2026-05-25T09:02:22.000Z</time>
      </trkpt>
      <trkpt lat="42.93337" lon="1.19061">
        <ele>721</ele>
        <time>2026-05-25T09:02:23.000Z</time>
      </trkpt>
      <trkpt lat="42.93338" lon="1.19063">
        <ele>721</ele>
        <time>2026-05-25T09:02:24.000Z</time>
      </trkpt>
      <trkpt lat="42.93339" lon="1.19066">
        <ele>721</ele>
        <time>2026-05-25T09:02:25.000Z</time>
      </trkpt>
      <trkpt lat="42.9334" lon="1.1907">
        <ele>721</ele>
        <time>2026-05-25T09:02:26.000Z</time>
      </trkpt>
      <trkpt lat="42.93341" lon="1.19073">
        <ele>721</ele>
        <time>2026-05-25T09:02:27.000Z</time>
      </trkpt>
      <trkpt lat="42.93343" lon="1.19076">
        <ele>721</ele>
        <time>2026-05-25T09:02:28.000Z</time>
      </trkpt>
      <trkpt lat="42.93345" lon="1.19079">
        <ele>721</ele>
        <time>2026-05-25T09:02:29.000Z</time>
      </trkpt>
      <trkpt lat="42.93346" lon="1.19083">
        <ele>721</ele>
        <time>2026-05-25T09:02:30.000Z</time>
      </trkpt>
      <trkpt lat="42.93347" lon="1.19086">
        <ele>721</ele>
        <time>2026-05-25T09:02:31.000Z</time>
      </trkpt>
      <trkpt lat="42.93348" lon="1.19089">
        <ele>721</ele>
        <time>2026-05-25T09:02:32.000Z</time>
      </trkpt>
      <trkpt lat="42.93348" lon="1.19092">
        <ele>721</ele>
        <time>2026-05-25T09:02:33.000Z</time>
      </trkpt>
      <trkpt lat="42.93349" lon="1.19095">
        <ele>721</ele>
        <time>2026-05-25T09:02:34.000Z</time>
      </trkpt>
      <trkpt lat="42.9335" lon="1.19099">
        <ele>721</ele>
        <time>2026-05-25T09:02:35.000Z</time>
      </trkpt>
      <trkpt lat="42.93351" lon="1.19102">
        <ele>722</ele>
        <time>2026-05-25T09:02:36.000Z</time>
      </trkpt>
      <trkpt lat="42.93351" lon="1.19105">
        <ele>722</ele>
        <time>2026-05-25T09:02:37.000Z</time>
      </trkpt>
      <trkpt lat="42.93352" lon="1.19109">
        <ele>722</ele>
        <time>2026-05-25T09:02:38.000Z</time>
      </trkpt>
      <trkpt lat="42.93352" lon="1.19112">
        <ele>722</ele>
        <time>2026-05-25T09:02:39.000Z</time>
      </trkpt>
      <trkpt lat="42.93352" lon="1.19116">
        <ele>722</ele>
        <time>2026-05-25T09:02:40.000Z</time>
      </trkpt>
      <trkpt lat="42.93353" lon="1.1912">
        <ele>722</ele>
        <time>2026-05-25T09:02:41.000Z</time>
      </trkpt>
      <trkpt lat="42.93354" lon="1.19124">
        <ele>721</ele>
        <time>2026-05-25T09:02:42.000Z</time>
      </trkpt>
      <trkpt lat="42.93354" lon="1.19127">
        <ele>721</ele>
        <time>2026-05-25T09:02:43.000Z</time>
      </trkpt>
      <trkpt lat="42.93355" lon="1.1913">
        <ele>721</ele>
        <time>2026-05-25T09:02:44.000Z</time>
      </trkpt>
      <trkpt lat="42.93355" lon="1.19134">
        <ele>721</ele>
        <time>2026-05-25T09:02:45.000Z</time>
      </trkpt>
      <trkpt lat="42.93356" lon="1.19137">
        <ele>721</ele>
        <time>2026-05-25T09:02:46.000Z</time>
      </trkpt>
      <trkpt lat="42.93357" lon="1.19141">
        <ele>722</ele>
        <time>2026-05-25T09:02:47.000Z</time>
      </trkpt>
      <trkpt lat="42.93359" lon="1.19145">
        <ele>723</ele>
        <time>2026-05-25T09:02:48.000Z</time>
      </trkpt>
      <trkpt lat="42.9336" lon="1.19148">
        <ele>723</ele>
        <time>2026-05-25T09:02:49.000Z</time>
      </trkpt>
      <trkpt lat="42.9336" lon="1.19151">
        <ele>723</ele>
        <time>2026-05-25T09:02:50.000Z</time>
      </trkpt>
      <trkpt lat="42.93361" lon="1.19154">
        <ele>723</ele>
        <time>2026-05-25T09:02:51.000Z</time>
      </trkpt>
      <trkpt lat="42.93362" lon="1.19158">
        <ele>723</ele>
        <time>2026-05-25T09:02:52.000Z</time>
      </trkpt>
      <trkpt lat="42.93363" lon="1.19162">
        <ele>723</ele>
        <time>2026-05-25T09:02:53.000Z</time>
      </trkpt>
      <trkpt lat="42.93365" lon="1.19166">
        <ele>723</ele>
        <time>2026-05-25T09:02:54.000Z</time>
      </trkpt>
      <trkpt lat="42.93366" lon="1.19171">
        <ele>723</ele>
        <time>2026-05-25T09:02:55.000Z</time>
      </trkpt>
      <trkpt lat="42.9337" lon="1.19176">
        <ele>723</ele>
        <time>2026-05-25T09:02:56.000Z</time>
      </trkpt>
      <trkpt lat="42.93374" lon="1.19182">
        <ele>722</ele>
        <time>2026-05-25T09:02:57.000Z</time>
      </trkpt>
      <trkpt lat="42.93379" lon="1.19188">
        <ele>724</ele>
        <time>2026-05-25T09:02:58.000Z</time>
      </trkpt>
      <trkpt lat="42.93384" lon="1.19193">
        <ele>725</ele>
        <time>2026-05-25T09:02:59.000Z</time>
      </trkpt>
      <trkpt lat="42.93388" lon="1.19198">
        <ele>727</ele>
        <time>2026-05-25T09:03:00.000Z</time>
      </trkpt>
      <trkpt lat="42.93391" lon="1.19203">
        <ele>728</ele>
        <time>2026-05-25T09:03:01.000Z</time>
      </trkpt>
      <trkpt lat="42.93395" lon="1.19207">
        <ele>729</ele>
        <time>2026-05-25T09:03:02.000Z</time>
      </trkpt>
      <trkpt lat="42.93399" lon="1.1921">
        <ele>731</ele>
        <time>2026-05-25T09:03:03.000Z</time>
      </trkpt>
      <trkpt lat="42.93403" lon="1.19212">
        <ele>732</ele>
        <time>2026-05-25T09:03:04.000Z</time>
      </trkpt>
      <trkpt lat="42.93407" lon="1.19215">
        <ele>733</ele>
        <time>2026-05-25T09:03:05.000Z</time>
      </trkpt>
      <trkpt lat="42.93412" lon="1.19218">
        <ele>733</ele>
        <time>2026-05-25T09:03:06.000Z</time>
      </trkpt>
      <trkpt lat="42.93417" lon="1.1922">
        <ele>738</ele>
        <time>2026-05-25T09:03:07.000Z</time>
      </trkpt>
      <trkpt lat="42.93422" lon="1.19221">
        <ele>740</ele>
        <time>2026-05-25T09:03:08.000Z</time>
      </trkpt>
      <trkpt lat="42.93426" lon="1.19222">
        <ele>741</ele>
        <time>2026-05-25T09:03:09.000Z</time>
      </trkpt>
      <trkpt lat="42.93431" lon="1.19222">
        <ele>742</ele>
        <time>2026-05-25T09:03:10.000Z</time>
      </trkpt>
      <trkpt lat="42.93434" lon="1.19223">
        <ele>743</ele>
        <time>2026-05-25T09:03:11.000Z</time>
      </trkpt>
      <trkpt lat="42.93439" lon="1.19222">
        <ele>745</ele>
        <time>2026-05-25T09:03:12.000Z</time>
      </trkpt>
      <trkpt lat="42.93443" lon="1.19223">
        <ele>746</ele>
        <time>2026-05-25T09:03:13.000Z</time>
      </trkpt>
      <trkpt lat="42.93447" lon="1.19224">
        <ele>747</ele>
        <time>2026-05-25T09:03:14.000Z</time>
      </trkpt>
      <trkpt lat="42.93451" lon="1.19225">
        <ele>749</ele>
        <time>2026-05-25T09:03:15.000Z</time>
      </trkpt>
      <trkpt lat="42.93455" lon="1.19225">
        <ele>749</ele>
        <time>2026-05-25T09:03:16.000Z</time>
      </trkpt>
      <trkpt lat="42.93459" lon="1.19225">
        <ele>751</ele>
        <time>2026-05-25T09:03:17.000Z</time>
      </trkpt>
      <trkpt lat="42.93463" lon="1.19225">
        <ele>752</ele>
        <time>2026-05-25T09:03:18.000Z</time>
      </trkpt>
      <trkpt lat="42.93466" lon="1.19225">
        <ele>754</ele>
        <time>2026-05-25T09:03:19.000Z</time>
      </trkpt>
      <trkpt lat="42.9347" lon="1.19224">
        <ele>754</ele>
        <time>2026-05-25T09:03:20.000Z</time>
      </trkpt>
      <trkpt lat="42.93473" lon="1.19223">
        <ele>755</ele>
        <time>2026-05-25T09:03:21.000Z</time>
      </trkpt>
      <trkpt lat="42.93476" lon="1.19222">
        <ele>756</ele>
        <time>2026-05-25T09:03:22.000Z</time>
      </trkpt>
      <trkpt lat="42.9348" lon="1.19221">
        <ele>757</ele>
        <time>2026-05-25T09:03:23.000Z</time>
      </trkpt>
      <trkpt lat="42.93483" lon="1.19219">
        <ele>757</ele>
        <time>2026-05-25T09:03:24.000Z</time>
      </trkpt>
      <trkpt lat="42.93486" lon="1.19217">
        <ele>757</ele>
        <time>2026-05-25T09:03:25.000Z</time>
      </trkpt>
      <trkpt lat="42.93489" lon="1.19214">
        <ele>757</ele>
        <time>2026-05-25T09:03:26.000Z</time>
      </trkpt>
      <trkpt lat="42.93491" lon="1.19211">
        <ele>758</ele>
        <time>2026-05-25T09:03:27.000Z</time>
      </trkpt>
      <trkpt lat="42.93493" lon="1.19208">
        <ele>758</ele>
        <time>2026-05-25T09:03:28.000Z</time>
      </trkpt>
      <trkpt lat="42.93495" lon="1.19204">
        <ele>759</ele>
        <time>2026-05-25T09:03:29.000Z</time>
      </trkpt>
      <trkpt lat="42.93496" lon="1.19199">
        <ele>760</ele>
        <time>2026-05-25T09:03:30.000Z</time>
      </trkpt>
      <trkpt lat="42.93497" lon="1.19194">
        <ele>761</ele>
        <time>2026-05-25T09:03:31.000Z</time>
      </trkpt>
      <trkpt lat="42.93497" lon="1.19188">
        <ele>761</ele>
        <time>2026-05-25T09:03:32.000Z</time>
      </trkpt>
      <trkpt lat="42.93496" lon="1.19183">
        <ele>761</ele>
        <time>2026-05-25T09:03:33.000Z</time>
      </trkpt>
      <trkpt lat="42.93494" lon="1.19177">
        <ele>761</ele>
        <time>2026-05-25T09:03:34.000Z</time>
      </trkpt>
      <trkpt lat="42.93492" lon="1.19172">
        <ele>760</ele>
        <time>2026-05-25T09:03:35.000Z</time>
      </trkpt>
      <trkpt lat="42.93489" lon="1.19167">
        <ele>760</ele>
        <time>2026-05-25T09:03:36.000Z</time>
      </trkpt>
      <trkpt lat="42.93486" lon="1.19162">
        <ele>760</ele>
        <time>2026-05-25T09:03:37.000Z</time>
      </trkpt>
      <trkpt lat="42.93483" lon="1.19158">
        <ele>759</ele>
        <time>2026-05-25T09:03:38.000Z</time>
      </trkpt>
      <trkpt lat="42.93481" lon="1.19154">
        <ele>759</ele>
        <time>2026-05-25T09:03:39.000Z</time>
      </trkpt>
      <trkpt lat="42.9348" lon="1.1915">
        <ele>759</ele>
        <time>2026-05-25T09:03:40.000Z</time>
      </trkpt>
      <trkpt lat="42.93477" lon="1.19146">
        <ele>760</ele>
        <time>2026-05-25T09:03:41.000Z</time>
      </trkpt>
      <trkpt lat="42.93476" lon="1.19142">
        <ele>760</ele>
        <time>2026-05-25T09:03:42.000Z</time>
      </trkpt>
      <trkpt lat="42.93474" lon="1.19138">
        <ele>760</ele>
        <time>2026-05-25T09:03:43.000Z</time>
      </trkpt>
      <trkpt lat="42.93471" lon="1.19135">
        <ele>759</ele>
        <time>2026-05-25T09:03:44.000Z</time>
      </trkpt>
      <trkpt lat="42.93469" lon="1.1913">
        <ele>759</ele>
        <time>2026-05-25T09:03:45.000Z</time>
      </trkpt>
      <trkpt lat="42.93467" lon="1.19127">
        <ele>759</ele>
        <time>2026-05-25T09:03:46.000Z</time>
      </trkpt>
      <trkpt lat="42.93465" lon="1.19123">
        <ele>759</ele>
        <time>2026-05-25T09:03:47.000Z</time>
      </trkpt>
      <trkpt lat="42.93464" lon="1.19119">
        <ele>759</ele>
        <time>2026-05-25T09:03:48.000Z</time>
      </trkpt>
      <trkpt lat="42.93462" lon="1.19116">
        <ele>759</ele>
        <time>2026-05-25T09:03:49.000Z</time>
      </trkpt>
      <trkpt lat="42.93461" lon="1.19112">
        <ele>759</ele>
        <time>2026-05-25T09:03:50.000Z</time>
      </trkpt>
      <trkpt lat="42.93459" lon="1.19109">
        <ele>759</ele>
        <time>2026-05-25T09:03:51.000Z</time>
      </trkpt>
      <trkpt lat="42.93458" lon="1.19105">
        <ele>758</ele>
        <time>2026-05-25T09:03:52.000Z</time>
      </trkpt>
      <trkpt lat="42.93456" lon="1.191">
        <ele>758</ele>
        <time>2026-05-25T09:03:53.000Z</time>
      </trkpt>
      <trkpt lat="42.93454" lon="1.19096">
        <ele>758</ele>
        <time>2026-05-25T09:03:54.000Z</time>
      </trkpt>
      <trkpt lat="42.93453" lon="1.19092">
        <ele>758</ele>
        <time>2026-05-25T09:03:55.000Z</time>
      </trkpt>
      <trkpt lat="42.93451" lon="1.19088">
        <ele>758</ele>
        <time>2026-05-25T09:03:56.000Z</time>
      </trkpt>
      <trkpt lat="42.93451" lon="1.19084">
        <ele>758</ele>
        <time>2026-05-25T09:03:57.000Z</time>
      </trkpt>
      <trkpt lat="42.9345" lon="1.19079">
        <ele>758</ele>
        <time>2026-05-25T09:03:58.000Z</time>
      </trkpt>
      <trkpt lat="42.93449" lon="1.19075">
        <ele>758</ele>
        <time>2026-05-25T09:03:59.000Z</time>
      </trkpt>
      <trkpt lat="42.93448" lon="1.19069">
        <ele>757</ele>
        <time>2026-05-25T09:04:00.000Z</time>
      </trkpt>
      <trkpt lat="42.93449" lon="1.19062">
        <ele>758</ele>
        <time>2026-05-25T09:04:01.000Z</time>
      </trkpt>
      <trkpt lat="42.9345" lon="1.19057">
        <ele>758</ele>
        <time>2026-05-25T09:04:02.000Z</time>
      </trkpt>
      <trkpt lat="42.93452" lon="1.19052">
        <ele>759</ele>
        <time>2026-05-25T09:04:03.000Z</time>
      </trkpt>
      <trkpt lat="42.93453" lon="1.19048">
        <ele>759</ele>
        <time>2026-05-25T09:04:04.000Z</time>
      </trkpt>
      <trkpt lat="42.93455" lon="1.19045">
        <ele>759</ele>
        <time>2026-05-25T09:04:05.000Z</time>
      </trkpt>
      <trkpt lat="42.93457" lon="1.19043">
        <ele>759</ele>
        <time>2026-05-25T09:04:06.000Z</time>
      </trkpt>
      <trkpt lat="42.93459" lon="1.19043">
        <ele>758</ele>
        <time>2026-05-25T09:04:07.000Z</time>
      </trkpt>
      <trkpt lat="42.9346" lon="1.19042">
        <ele>758</ele>
        <time>2026-05-25T09:04:08.000Z</time>
      </trkpt>
      <trkpt lat="42.93461" lon="1.19041">
        <ele>758</ele>
        <time>2026-05-25T09:04:09.000Z</time>
      </trkpt>
      <trkpt lat="42.93463" lon="1.19039">
        <ele>759</ele>
        <time>2026-05-25T09:04:27.000Z</time>
      </trkpt>
      <trkpt lat="42.93463" lon="1.1904">
        <ele>759</ele>
        <time>2026-05-25T09:04:28.000Z</time>
      </trkpt>
      <trkpt lat="42.93463" lon="1.19041">
        <ele>759</ele>
        <time>2026-05-25T09:04:29.000Z</time>
      </trkpt>
      <trkpt lat="42.93462" lon="1.19043">
        <ele>760</ele>
        <time>2026-05-25T09:04:30.000Z</time>
      </trkpt>
      <trkpt lat="42.93462" lon="1.19045">
        <ele>760</ele>
        <time>2026-05-25T09:04:31.000Z</time>
      </trkpt>
      <trkpt lat="42.93461" lon="1.19047">
        <ele>760</ele>
        <time>2026-05-25T09:04:32.000Z</time>
      </trkpt>
      <trkpt lat="42.93462" lon="1.1905">
        <ele>761</ele>
        <time>2026-05-25T09:04:33.000Z</time>
      </trkpt>
      <trkpt lat="42.93462" lon="1.19053">
        <ele>761</ele>
        <time>2026-05-25T09:04:34.000Z</time>
      </trkpt>
      <trkpt lat="42.93462" lon="1.19056">
        <ele>761</ele>
        <time>2026-05-25T09:04:35.000Z</time>
      </trkpt>
      <trkpt lat="42.93462" lon="1.19061">
        <ele>761</ele>
        <time>2026-05-25T09:04:36.000Z</time>
      </trkpt>
      <trkpt lat="42.93462" lon="1.19065">
        <ele>761</ele>
        <time>2026-05-25T09:04:37.000Z</time>
      </trkpt>
      <trkpt lat="42.93463" lon="1.19068">
        <ele>761</ele>
        <time>2026-05-25T09:04:38.000Z</time>
      </trkpt>
      <trkpt lat="42.93464" lon="1.19072">
        <ele>762</ele>
        <time>2026-05-25T09:04:39.000Z</time>
      </trkpt>
      <trkpt lat="42.93465" lon="1.19075">
        <ele>762</ele>
        <time>2026-05-25T09:04:40.000Z</time>
      </trkpt>
      <trkpt lat="42.93467" lon="1.19077">
        <ele>762</ele>
        <time>2026-05-25T09:04:41.000Z</time>
      </trkpt>
      <trkpt lat="42.93469" lon="1.19079">
        <ele>762</ele>
        <time>2026-05-25T09:04:42.000Z</time>
      </trkpt>
      <trkpt lat="42.93471" lon="1.19081">
        <ele>762</ele>
        <time>2026-05-25T09:04:43.000Z</time>
      </trkpt>
      <trkpt lat="42.93474" lon="1.19084">
        <ele>763</ele>
        <time>2026-05-25T09:04:44.000Z</time>
      </trkpt>
      <trkpt lat="42.93476" lon="1.19086">
        <ele>763</ele>
        <time>2026-05-25T09:04:45.000Z</time>
      </trkpt>
      <trkpt lat="42.93478" lon="1.19087">
        <ele>763</ele>
        <time>2026-05-25T09:04:46.000Z</time>
      </trkpt>
      <trkpt lat="42.9348" lon="1.19089">
        <ele>763</ele>
        <time>2026-05-25T09:04:47.000Z</time>
      </trkpt>
      <trkpt lat="42.93482" lon="1.19091">
        <ele>763</ele>
        <time>2026-05-25T09:04:48.000Z</time>
      </trkpt>
      <trkpt lat="42.93485" lon="1.19093">
        <ele>763</ele>
        <time>2026-05-25T09:04:49.000Z</time>
      </trkpt>
      <trkpt lat="42.93487" lon="1.19096">
        <ele>763</ele>
        <time>2026-05-25T09:04:50.000Z</time>
      </trkpt>
      <trkpt lat="42.9349" lon="1.19098">
        <ele>763</ele>
        <time>2026-05-25T09:04:51.000Z</time>
      </trkpt>
      <trkpt lat="42.93492" lon="1.191">
        <ele>763</ele>
        <time>2026-05-25T09:04:52.000Z</time>
      </trkpt>
      <trkpt lat="42.93495" lon="1.19103">
        <ele>763</ele>
        <time>2026-05-25T09:04:53.000Z</time>
      </trkpt>
      <trkpt lat="42.93497" lon="1.19106">
        <ele>764</ele>
        <time>2026-05-25T09:04:54.000Z</time>
      </trkpt>
      <trkpt lat="42.93499" lon="1.19109">
        <ele>764</ele>
        <time>2026-05-25T09:04:55.000Z</time>
      </trkpt>
      <trkpt lat="42.93502" lon="1.19111">
        <ele>764</ele>
        <time>2026-05-25T09:04:56.000Z</time>
      </trkpt>
      <trkpt lat="42.93506" lon="1.19114">
        <ele>765</ele>
        <time>2026-05-25T09:04:57.000Z</time>
      </trkpt>
      <trkpt lat="42.93509" lon="1.19119">
        <ele>767</ele>
        <time>2026-05-25T09:04:58.000Z</time>
      </trkpt>
      <trkpt lat="42.93512" lon="1.19123">
        <ele>768</ele>
        <time>2026-05-25T09:04:59.000Z</time>
      </trkpt>
      <trkpt lat="42.93516" lon="1.19126">
        <ele>769</ele>
        <time>2026-05-25T09:05:00.000Z</time>
      </trkpt>
      <trkpt lat="42.9352" lon="1.19128">
        <ele>770</ele>
        <time>2026-05-25T09:05:01.000Z</time>
      </trkpt>
      <trkpt lat="42.93524" lon="1.19129">
        <ele>771</ele>
        <time>2026-05-25T09:05:02.000Z</time>
      </trkpt>
      <trkpt lat="42.93529" lon="1.1913">
        <ele>772</ele>
        <time>2026-05-25T09:05:03.000Z</time>
      </trkpt>
      <trkpt lat="42.93534" lon="1.19132">
        <ele>773</ele>
        <time>2026-05-25T09:05:04.000Z</time>
      </trkpt>
      <trkpt lat="42.93538" lon="1.19135">
        <ele>774</ele>
        <time>2026-05-25T09:05:05.000Z</time>
      </trkpt>
      <trkpt lat="42.93542" lon="1.19137">
        <ele>774</ele>
        <time>2026-05-25T09:05:06.000Z</time>
      </trkpt>
      <trkpt lat="42.93546" lon="1.1914">
        <ele>774</ele>
        <time>2026-05-25T09:05:07.000Z</time>
      </trkpt>
      <trkpt lat="42.9355" lon="1.19143">
        <ele>775</ele>
        <time>2026-05-25T09:05:08.000Z</time>
      </trkpt>
      <trkpt lat="42.93554" lon="1.19145">
        <ele>775</ele>
        <time>2026-05-25T09:05:09.000Z</time>
      </trkpt>
      <trkpt lat="42.93558" lon="1.19148">
        <ele>776</ele>
        <time>2026-05-25T09:05:10.000Z</time>
      </trkpt>
      <trkpt lat="42.93561" lon="1.19151">
        <ele>776</ele>
        <time>2026-05-25T09:05:11.000Z</time>
      </trkpt>
      <trkpt lat="42.93566" lon="1.19152">
        <ele>776</ele>
        <time>2026-05-25T09:05:12.000Z</time>
      </trkpt>
      <trkpt lat="42.93569" lon="1.19153">
        <ele>777</ele>
        <time>2026-05-25T09:05:13.000Z</time>
      </trkpt>
      <trkpt lat="42.93573" lon="1.19155">
        <ele>777</ele>
        <time>2026-05-25T09:05:14.000Z</time>
      </trkpt>
      <trkpt lat="42.93577" lon="1.19158">
        <ele>778</ele>
        <time>2026-05-25T09:05:15.000Z</time>
      </trkpt>
      <trkpt lat="42.93582" lon="1.19161">
        <ele>778</ele>
        <time>2026-05-25T09:05:16.000Z</time>
      </trkpt>
      <trkpt lat="42.93586" lon="1.19164">
        <ele>778</ele>
        <time>2026-05-25T09:05:17.000Z</time>
      </trkpt>
      <trkpt lat="42.93591" lon="1.19168">
        <ele>778</ele>
        <time>2026-05-25T09:05:18.000Z</time>
      </trkpt>
      <trkpt lat="42.93595" lon="1.19173">
        <ele>778</ele>
        <time>2026-05-25T09:05:19.000Z</time>
      </trkpt>
      <trkpt lat="42.93599" lon="1.1918">
        <ele>778</ele>
        <time>2026-05-25T09:05:20.000Z</time>
      </trkpt>
      <trkpt lat="42.93602" lon="1.19186">
        <ele>778</ele>
        <time>2026-05-25T09:05:21.000Z</time>
      </trkpt>
      <trkpt lat="42.93605" lon="1.19192">
        <ele>778</ele>
        <time>2026-05-25T09:05:22.000Z</time>
      </trkpt>
      <trkpt lat="42.93607" lon="1.192">
        <ele>779</ele>
        <time>2026-05-25T09:05:23.000Z</time>
      </trkpt>
      <trkpt lat="42.93609" lon="1.19207">
        <ele>779</ele>
        <time>2026-05-25T09:05:24.000Z</time>
      </trkpt>
      <trkpt lat="42.93611" lon="1.19214">
        <ele>779</ele>
        <time>2026-05-25T09:05:25.000Z</time>
      </trkpt>
      <trkpt lat="42.93612" lon="1.19222">
        <ele>781</ele>
        <time>2026-05-25T09:05:26.000Z</time>
      </trkpt>
      <trkpt lat="42.93613" lon="1.1923">
        <ele>781</ele>
        <time>2026-05-25T09:05:27.000Z</time>
      </trkpt>
      <trkpt lat="42.93614" lon="1.19238">
        <ele>782</ele>
        <time>2026-05-25T09:05:28.000Z</time>
      </trkpt>
      <trkpt lat="42.93616" lon="1.19244">
        <ele>782</ele>
        <time>2026-05-25T09:05:29.000Z</time>
      </trkpt>
      <trkpt lat="42.93616" lon="1.19247">
        <ele>782</ele>
        <time>2026-05-25T09:05:30.000Z</time>
      </trkpt>
      <trkpt lat="42.93618" lon="1.1925">
        <ele>782</ele>
        <time>2026-05-25T09:05:31.000Z</time>
      </trkpt>
      <trkpt lat="42.93618" lon="1.19252">
        <ele>782</ele>
        <time>2026-05-25T09:05:32.000Z</time>
      </trkpt>
      <trkpt lat="42.93619" lon="1.19253">
        <ele>781</ele>
        <time>2026-05-25T09:05:33.000Z</time>
      </trkpt>
      <trkpt lat="42.93618" lon="1.19254">
        <ele>781</ele>
        <time>2026-05-25T09:05:34.000Z</time>
      </trkpt>
      <trkpt lat="42.93618" lon="1.19255">
        <ele>781</ele>
        <time>2026-05-25T09:05:35.000Z</time>
      </trkpt>
      <trkpt lat="42.93618" lon="1.19257">
        <ele>781</ele>
        <time>2026-05-25T09:05:36.000Z</time>
      </trkpt>
      <trkpt lat="42.93617" lon="1.19259">
        <ele>781</ele>
        <time>2026-05-25T09:05:37.000Z</time>
      </trkpt>
      <trkpt lat="42.93615" lon="1.19263">
        <ele>781</ele>
        <time>2026-05-25T09:05:38.000Z</time>
      </trkpt>
      <trkpt lat="42.93612" lon="1.19268">
        <ele>780</ele>
        <time>2026-05-25T09:05:39.000Z</time>
      </trkpt>
      <trkpt lat="42.9361" lon="1.19273">
        <ele>780</ele>
        <time>2026-05-25T09:05:40.000Z</time>
      </trkpt>
      <trkpt lat="42.93607" lon="1.1928">
        <ele>780</ele>
        <time>2026-05-25T09:05:41.000Z</time>
      </trkpt>
      <trkpt lat="42.93604" lon="1.19285">
        <ele>780</ele>
        <time>2026-05-25T09:05:42.000Z</time>
      </trkpt>
      <trkpt lat="42.93601" lon="1.19291">
        <ele>780</ele>
        <time>2026-05-25T09:05:43.000Z</time>
      </trkpt>
      <trkpt lat="42.93596" lon="1.19298">
        <ele>779</ele>
        <time>2026-05-25T09:05:44.000Z</time>
      </trkpt>
      <trkpt lat="42.93593" lon="1.19302">
        <ele>779</ele>
        <time>2026-05-25T09:05:45.000Z</time>
      </trkpt>
      <trkpt lat="42.93589" lon="1.19306">
        <ele>779</ele>
        <time>2026-05-25T09:05:46.000Z</time>
      </trkpt>
      <trkpt lat="42.93586" lon="1.1931">
        <ele>779</ele>
        <time>2026-05-25T09:05:47.000Z</time>
      </trkpt>
      <trkpt lat="42.93583" lon="1.19313">
        <ele>779</ele>
        <time>2026-05-25T09:05:48.000Z</time>
      </trkpt>
      <trkpt lat="42.93578" lon="1.19318">
        <ele>779</ele>
        <time>2026-05-25T09:05:49.000Z</time>
      </trkpt>
      <trkpt lat="42.93575" lon="1.19322">
        <ele>779</ele>
        <time>2026-05-25T09:05:50.000Z</time>
      </trkpt>
      <trkpt lat="42.93572" lon="1.19328">
        <ele>779</ele>
        <time>2026-05-25T09:05:51.000Z</time>
      </trkpt>
      <trkpt lat="42.93568" lon="1.19331">
        <ele>778</ele>
        <time>2026-05-25T09:05:52.000Z</time>
      </trkpt>
      <trkpt lat="42.93564" lon="1.19335">
        <ele>778</ele>
        <time>2026-05-25T09:05:53.000Z</time>
      </trkpt>
      <trkpt lat="42.9356" lon="1.1934">
        <ele>778</ele>
        <time>2026-05-25T09:05:54.000Z</time>
      </trkpt>
      <trkpt lat="42.93556" lon="1.19345">
        <ele>778</ele>
        <time>2026-05-25T09:05:55.000Z</time>
      </trkpt>
      <trkpt lat="42.93553" lon="1.1935">
        <ele>778</ele>
        <time>2026-05-25T09:05:56.000Z</time>
      </trkpt>
      <trkpt lat="42.9355" lon="1.19356">
        <ele>779</ele>
        <time>2026-05-25T09:05:57.000Z</time>
      </trkpt>
      <trkpt lat="42.93548" lon="1.19359">
        <ele>779</ele>
        <time>2026-05-25T09:05:58.000Z</time>
      </trkpt>
      <trkpt lat="42.93546" lon="1.19363">
        <ele>779</ele>
        <time>2026-05-25T09:05:59.000Z</time>
      </trkpt>
      <trkpt lat="42.93544" lon="1.19367">
        <ele>779</ele>
        <time>2026-05-25T09:06:00.000Z</time>
      </trkpt>
      <trkpt lat="42.93542" lon="1.1937">
        <ele>779</ele>
        <time>2026-05-25T09:06:01.000Z</time>
      </trkpt>
      <trkpt lat="42.93539" lon="1.19374">
        <ele>779</ele>
        <time>2026-05-25T09:06:02.000Z</time>
      </trkpt>
      <trkpt lat="42.93536" lon="1.19377">
        <ele>779</ele>
        <time>2026-05-25T09:06:03.000Z</time>
      </trkpt>
      <trkpt lat="42.93533" lon="1.19381">
        <ele>779</ele>
        <time>2026-05-25T09:06:04.000Z</time>
      </trkpt>
      <trkpt lat="42.93529" lon="1.19385">
        <ele>779</ele>
        <time>2026-05-25T09:06:05.000Z</time>
      </trkpt>
      <trkpt lat="42.93526" lon="1.19387">
        <ele>779</ele>
        <time>2026-05-25T09:06:06.000Z</time>
      </trkpt>
      <trkpt lat="42.93522" lon="1.1939">
        <ele>779</ele>
        <time>2026-05-25T09:06:07.000Z</time>
      </trkpt>
      <trkpt lat="42.93518" lon="1.19392">
        <ele>779</ele>
        <time>2026-05-25T09:06:08.000Z</time>
      </trkpt>
      <trkpt lat="42.93514" lon="1.19396">
        <ele>778</ele>
        <time>2026-05-25T09:06:09.000Z</time>
      </trkpt>
      <trkpt lat="42.93509" lon="1.19401">
        <ele>778</ele>
        <time>2026-05-25T09:06:10.000Z</time>
      </trkpt>
      <trkpt lat="42.93504" lon="1.19404">
        <ele>777</ele>
        <time>2026-05-25T09:06:11.000Z</time>
      </trkpt>
      <trkpt lat="42.93499" lon="1.19407">
        <ele>777</ele>
        <time>2026-05-25T09:06:12.000Z</time>
      </trkpt>
      <trkpt lat="42.93494" lon="1.1941">
        <ele>777</ele>
        <time>2026-05-25T09:06:13.000Z</time>
      </trkpt>
      <trkpt lat="42.9349" lon="1.19413">
        <ele>777</ele>
        <time>2026-05-25T09:06:14.000Z</time>
      </trkpt>
      <trkpt lat="42.93485" lon="1.19415">
        <ele>777</ele>
        <time>2026-05-25T09:06:15.000Z</time>
      </trkpt>
      <trkpt lat="42.9348" lon="1.19418">
        <ele>777</ele>
        <time>2026-05-25T09:06:16.000Z</time>
      </trkpt>
      <trkpt lat="42.93475" lon="1.19424">
        <ele>778</ele>
        <time>2026-05-25T09:06:17.000Z</time>
      </trkpt>
      <trkpt lat="42.93471" lon="1.19429">
        <ele>779</ele>
        <time>2026-05-25T09:06:18.000Z</time>
      </trkpt>
      <trkpt lat="42.93467" lon="1.19433">
        <ele>779</ele>
        <time>2026-05-25T09:06:19.000Z</time>
      </trkpt>
      <trkpt lat="42.93463" lon="1.19437">
        <ele>779</ele>
        <time>2026-05-25T09:06:20.000Z</time>
      </trkpt>
      <trkpt lat="42.9346" lon="1.19441">
        <ele>780</ele>
        <time>2026-05-25T09:06:21.000Z</time>
      </trkpt>
      <trkpt lat="42.93457" lon="1.19444">
        <ele>780</ele>
        <time>2026-05-25T09:06:22.000Z</time>
      </trkpt>
      <trkpt lat="42.93454" lon="1.19449">
        <ele>781</ele>
        <time>2026-05-25T09:06:23.000Z</time>
      </trkpt>
      <trkpt lat="42.93451" lon="1.19453">
        <ele>780</ele>
        <time>2026-05-25T09:06:24.000Z</time>
      </trkpt>
      <trkpt lat="42.93448" lon="1.19456">
        <ele>781</ele>
        <time>2026-05-25T09:06:25.000Z</time>
      </trkpt>
      <trkpt lat="42.93445" lon="1.19459">
        <ele>781</ele>
        <time>2026-05-25T09:06:26.000Z</time>
      </trkpt>
      <trkpt lat="42.93442" lon="1.19463">
        <ele>781</ele>
        <time>2026-05-25T09:06:27.000Z</time>
      </trkpt>
      <trkpt lat="42.93439" lon="1.19467">
        <ele>781</ele>
        <time>2026-05-25T09:06:28.000Z</time>
      </trkpt>
      <trkpt lat="42.93436" lon="1.1947">
        <ele>781</ele>
        <time>2026-05-25T09:06:29.000Z</time>
      </trkpt>
      <trkpt lat="42.93434" lon="1.19473">
        <ele>781</ele>
        <time>2026-05-25T09:06:30.000Z</time>
      </trkpt>
      <trkpt lat="42.93432" lon="1.19475">
        <ele>781</ele>
        <time>2026-05-25T09:06:31.000Z</time>
      </trkpt>
      <trkpt lat="42.9343" lon="1.19477">
        <ele>782</ele>
        <time>2026-05-25T09:06:32.000Z</time>
      </trkpt>
      <trkpt lat="42.93428" lon="1.19479">
        <ele>782</ele>
        <time>2026-05-25T09:06:33.000Z</time>
      </trkpt>
      <trkpt lat="42.93425" lon="1.1948">
        <ele>782</ele>
        <time>2026-05-25T09:06:34.000Z</time>
      </trkpt>
      <trkpt lat="42.93423" lon="1.19481">
        <ele>782</ele>
        <time>2026-05-25T09:06:35.000Z</time>
      </trkpt>
      <trkpt lat="42.93421" lon="1.19482">
        <ele>782</ele>
        <time>2026-05-25T09:06:36.000Z</time>
      </trkpt>
      <trkpt lat="42.93419" lon="1.19483">
        <ele>782</ele>
        <time>2026-05-25T09:06:37.000Z</time>
      </trkpt>
      <trkpt lat="42.93417" lon="1.19485">
        <ele>783</ele>
        <time>2026-05-25T09:06:38.000Z</time>
      </trkpt>
      <trkpt lat="42.93415" lon="1.19487">
        <ele>783</ele>
        <time>2026-05-25T09:06:39.000Z</time>
      </trkpt>
      <trkpt lat="42.93412" lon="1.19488">
        <ele>783</ele>
        <time>2026-05-25T09:06:40.000Z</time>
      </trkpt>
      <trkpt lat="42.9341" lon="1.1949">
        <ele>783</ele>
        <time>2026-05-25T09:06:41.000Z</time>
      </trkpt>
      <trkpt lat="42.93409" lon="1.19492">
        <ele>783</ele>
        <time>2026-05-25T09:06:42.000Z</time>
      </trkpt>
      <trkpt lat="42.93407" lon="1.19493">
        <ele>784</ele>
        <time>2026-05-25T09:06:43.000Z</time>
      </trkpt>
      <trkpt lat="42.93406" lon="1.19495">
        <ele>784</ele>
        <time>2026-05-25T09:06:44.000Z</time>
      </trkpt>
      <trkpt lat="42.93404" lon="1.19496">
        <ele>783</ele>
        <time>2026-05-25T09:06:45.000Z</time>
      </trkpt>
      <trkpt lat="42.93402" lon="1.19497">
        <ele>783</ele>
        <time>2026-05-25T09:06:46.000Z</time>
      </trkpt>
      <trkpt lat="42.934" lon="1.19498">
        <ele>784</ele>
        <time>2026-05-25T09:06:47.000Z</time>
      </trkpt>
      <trkpt lat="42.93399" lon="1.195">
        <ele>784</ele>
        <time>2026-05-25T09:06:48.000Z</time>
      </trkpt>
      <trkpt lat="42.93398" lon="1.19501">
        <ele>784</ele>
        <time>2026-05-25T09:06:49.000Z</time>
      </trkpt>
      <trkpt lat="42.93397" lon="1.19503">
        <ele>784</ele>
        <time>2026-05-25T09:06:50.000Z</time>
      </trkpt>
      <trkpt lat="42.93395" lon="1.19505">
        <ele>785</ele>
        <time>2026-05-25T09:06:51.000Z</time>
      </trkpt>
      <trkpt lat="42.93394" lon="1.19507">
        <ele>785</ele>
        <time>2026-05-25T09:06:52.000Z</time>
      </trkpt>
      <trkpt lat="42.93392" lon="1.19509">
        <ele>785</ele>
        <time>2026-05-25T09:06:53.000Z</time>
      </trkpt>
      <trkpt lat="42.93391" lon="1.19511">
        <ele>785</ele>
        <time>2026-05-25T09:06:54.000Z</time>
      </trkpt>
      <trkpt lat="42.9339" lon="1.19513">
        <ele>785</ele>
        <time>2026-05-25T09:06:55.000Z</time>
      </trkpt>
      <trkpt lat="42.93389" lon="1.19514">
        <ele>786</ele>
        <time>2026-05-25T09:06:56.000Z</time>
      </trkpt>
      <trkpt lat="42.93388" lon="1.19516">
        <ele>786</ele>
        <time>2026-05-25T09:06:57.000Z</time>
      </trkpt>
      <trkpt lat="42.93386" lon="1.19518">
        <ele>786</ele>
        <time>2026-05-25T09:06:58.000Z</time>
      </trkpt>
      <trkpt lat="42.93384" lon="1.1952">
        <ele>787</ele>
        <time>2026-05-25T09:06:59.000Z</time>
      </trkpt>
      <trkpt lat="42.93383" lon="1.19521">
        <ele>787</ele>
        <time>2026-05-25T09:07:00.000Z</time>
      </trkpt>
      <trkpt lat="42.93381" lon="1.19523">
        <ele>788</ele>
        <time>2026-05-25T09:07:01.000Z</time>
      </trkpt>
      <trkpt lat="42.9338" lon="1.19524">
        <ele>788</ele>
        <time>2026-05-25T09:07:02.000Z</time>
      </trkpt>
      <trkpt lat="42.93378" lon="1.19526">
        <ele>789</ele>
        <time>2026-05-25T09:07:03.000Z</time>
      </trkpt>
      <trkpt lat="42.93376" lon="1.19528">
        <ele>789</ele>
        <time>2026-05-25T09:07:04.000Z</time>
      </trkpt>
      <trkpt lat="42.93374" lon="1.1953">
        <ele>789</ele>
        <time>2026-05-25T09:07:05.000Z</time>
      </trkpt>
      <trkpt lat="42.93372" lon="1.19532">
        <ele>790</ele>
        <time>2026-05-25T09:07:06.000Z</time>
      </trkpt>
      <trkpt lat="42.9337" lon="1.19535">
        <ele>790</ele>
        <time>2026-05-25T09:07:07.000Z</time>
      </trkpt>
      <trkpt lat="42.93367" lon="1.19537">
        <ele>791</ele>
        <time>2026-05-25T09:07:08.000Z</time>
      </trkpt>
      <trkpt lat="42.93365" lon="1.1954">
        <ele>791</ele>
        <time>2026-05-25T09:07:09.000Z</time>
      </trkpt>
      <trkpt lat="42.93362" lon="1.19542">
        <ele>792</ele>
        <time>2026-05-25T09:07:10.000Z</time>
      </trkpt>
      <trkpt lat="42.9336" lon="1.19544">
        <ele>793</ele>
        <time>2026-05-25T09:07:11.000Z</time>
      </trkpt>
      <trkpt lat="42.93357" lon="1.19546">
        <ele>794</ele>
        <time>2026-05-25T09:07:12.000Z</time>
      </trkpt>
      <trkpt lat="42.93355" lon="1.19548">
        <ele>794</ele>
        <time>2026-05-25T09:07:13.000Z</time>
      </trkpt>
      <trkpt lat="42.93353" lon="1.1955">
        <ele>795</ele>
        <time>2026-05-25T09:07:14.000Z</time>
      </trkpt>
      <trkpt lat="42.9335" lon="1.19552">
        <ele>795</ele>
        <time>2026-05-25T09:07:15.000Z</time>
      </trkpt>
      <trkpt lat="42.93348" lon="1.19554">
        <ele>796</ele>
        <time>2026-05-25T09:07:16.000Z</time>
      </trkpt>
      <trkpt lat="42.93346" lon="1.19555">
        <ele>797</ele>
        <time>2026-05-25T09:07:17.000Z</time>
      </trkpt>
      <trkpt lat="42.93344" lon="1.19557">
        <ele>797</ele>
        <time>2026-05-25T09:07:18.000Z</time>
      </trkpt>
      <trkpt lat="42.93342" lon="1.19559">
        <ele>797</ele>
        <time>2026-05-25T09:07:19.000Z</time>
      </trkpt>
      <trkpt lat="42.9334" lon="1.1956">
        <ele>798</ele>
        <time>2026-05-25T09:07:20.000Z</time>
      </trkpt>
      <trkpt lat="42.93338" lon="1.19562">
        <ele>798</ele>
        <time>2026-05-25T09:07:21.000Z</time>
      </trkpt>
      <trkpt lat="42.93336" lon="1.19563">
        <ele>798</ele>
        <time>2026-05-25T09:07:22.000Z</time>
      </trkpt>
      <trkpt lat="42.93333" lon="1.19564">
        <ele>799</ele>
        <time>2026-05-25T09:07:23.000Z</time>
      </trkpt>
      <trkpt lat="42.93332" lon="1.19566">
        <ele>798</ele>
        <time>2026-05-25T09:07:24.000Z</time>
      </trkpt>
      <trkpt lat="42.93329" lon="1.19567">
        <ele>799</ele>
        <time>2026-05-25T09:07:25.000Z</time>
      </trkpt>
      <trkpt lat="42.93327" lon="1.19568">
        <ele>799</ele>
        <time>2026-05-25T09:07:26.000Z</time>
      </trkpt>
      <trkpt lat="42.93325" lon="1.1957">
        <ele>799</ele>
        <time>2026-05-25T09:07:27.000Z</time>
      </trkpt>
      <trkpt lat="42.93323" lon="1.19571">
        <ele>800</ele>
        <time>2026-05-25T09:07:28.000Z</time>
      </trkpt>
      <trkpt lat="42.93321" lon="1.19573">
        <ele>800</ele>
        <time>2026-05-25T09:07:29.000Z</time>
      </trkpt>
      <trkpt lat="42.93319" lon="1.19574">
        <ele>800</ele>
        <time>2026-05-25T09:07:30.000Z</time>
      </trkpt>
      <trkpt lat="42.93317" lon="1.19574">
        <ele>800</ele>
        <time>2026-05-25T09:07:31.000Z</time>
      </trkpt>
      <trkpt lat="42.93314" lon="1.19575">
        <ele>800</ele>
        <time>2026-05-25T09:07:32.000Z</time>
      </trkpt>
      <trkpt lat="42.93312" lon="1.19576">
        <ele>801</ele>
        <time>2026-05-25T09:07:33.000Z</time>
      </trkpt>
      <trkpt lat="42.9331" lon="1.19576">
        <ele>801</ele>
        <time>2026-05-25T09:07:34.000Z</time>
      </trkpt>
      <trkpt lat="42.93308" lon="1.19578">
        <ele>801</ele>
        <time>2026-05-25T09:07:35.000Z</time>
      </trkpt>
      <trkpt lat="42.93305" lon="1.19579">
        <ele>802</ele>
        <time>2026-05-25T09:07:36.000Z</time>
      </trkpt>
      <trkpt lat="42.93303" lon="1.1958">
        <ele>802</ele>
        <time>2026-05-25T09:07:37.000Z</time>
      </trkpt>
      <trkpt lat="42.933" lon="1.19581">
        <ele>802</ele>
        <time>2026-05-25T09:07:38.000Z</time>
      </trkpt>
      <trkpt lat="42.93298" lon="1.19582">
        <ele>802</ele>
        <time>2026-05-25T09:07:39.000Z</time>
      </trkpt>
      <trkpt lat="42.93296" lon="1.19583">
        <ele>803</ele>
        <time>2026-05-25T09:07:40.000Z</time>
      </trkpt>
      <trkpt lat="42.93293" lon="1.19584">
        <ele>803</ele>
        <time>2026-05-25T09:07:41.000Z</time>
      </trkpt>
      <trkpt lat="42.93291" lon="1.19584">
        <ele>803</ele>
        <time>2026-05-25T09:07:42.000Z</time>
      </trkpt>
      <trkpt lat="42.93289" lon="1.19584">
        <ele>803</ele>
        <time>2026-05-25T09:07:43.000Z</time>
      </trkpt>
      <trkpt lat="42.93287" lon="1.19584">
        <ele>803</ele>
        <time>2026-05-25T09:07:44.000Z</time>
      </trkpt>
      <trkpt lat="42.93284" lon="1.19584">
        <ele>803</ele>
        <time>2026-05-25T09:07:45.000Z</time>
      </trkpt>
      <trkpt lat="42.93282" lon="1.19585">
        <ele>803</ele>
        <time>2026-05-25T09:07:46.000Z</time>
      </trkpt>
      <trkpt lat="42.9328" lon="1.19585">
        <ele>803</ele>
        <time>2026-05-25T09:07:47.000Z</time>
      </trkpt>
      <trkpt lat="42.93278" lon="1.19584">
        <ele>804</ele>
        <time>2026-05-25T09:07:48.000Z</time>
      </trkpt>
      <trkpt lat="42.93277" lon="1.19584">
        <ele>804</ele>
        <time>2026-05-25T09:07:49.000Z</time>
      </trkpt>
      <trkpt lat="42.93274" lon="1.19584">
        <ele>804</ele>
        <time>2026-05-25T09:07:50.000Z</time>
      </trkpt>
      <trkpt lat="42.93272" lon="1.19584">
        <ele>804</ele>
        <time>2026-05-25T09:07:51.000Z</time>
      </trkpt>
      <trkpt lat="42.93269" lon="1.19584">
        <ele>804</ele>
        <time>2026-05-25T09:07:52.000Z</time>
      </trkpt>
      <trkpt lat="42.93267" lon="1.19585">
        <ele>805</ele>
        <time>2026-05-25T09:07:53.000Z</time>
      </trkpt>
      <trkpt lat="42.93265" lon="1.19584">
        <ele>805</ele>
        <time>2026-05-25T09:07:54.000Z</time>
      </trkpt>
      <trkpt lat="42.93264" lon="1.19585">
        <ele>806</ele>
        <time>2026-05-25T09:07:55.000Z</time>
      </trkpt>
      <trkpt lat="42.93262" lon="1.19585">
        <ele>807</ele>
        <time>2026-05-25T09:07:56.000Z</time>
      </trkpt>
      <trkpt lat="42.9326" lon="1.19586">
        <ele>808</ele>
        <time>2026-05-25T09:07:57.000Z</time>
      </trkpt>
      <trkpt lat="42.93259" lon="1.19586">
        <ele>809</ele>
        <time>2026-05-25T09:07:58.000Z</time>
      </trkpt>
      <trkpt lat="42.93258" lon="1.19587">
        <ele>809</ele>
        <time>2026-05-25T09:07:59.000Z</time>
      </trkpt>
      <trkpt lat="42.93256" lon="1.19587">
        <ele>809</ele>
        <time>2026-05-25T09:08:00.000Z</time>
      </trkpt>
      <trkpt lat="42.93255" lon="1.19587">
        <ele>811</ele>
        <time>2026-05-25T09:08:01.000Z</time>
      </trkpt>
      <trkpt lat="42.93254" lon="1.19588">
        <ele>812</ele>
        <time>2026-05-25T09:08:02.000Z</time>
      </trkpt>
      <trkpt lat="42.93252" lon="1.19589">
        <ele>812</ele>
        <time>2026-05-25T09:08:03.000Z</time>
      </trkpt>
      <trkpt lat="42.9325" lon="1.1959">
        <ele>812</ele>
        <time>2026-05-25T09:08:04.000Z</time>
      </trkpt>
      <trkpt lat="42.93247" lon="1.19592">
        <ele>812</ele>
        <time>2026-05-25T09:08:05.000Z</time>
      </trkpt>
      <trkpt lat="42.93246" lon="1.19592">
        <ele>812</ele>
        <time>2026-05-25T09:08:06.000Z</time>
      </trkpt>
      <trkpt lat="42.93244" lon="1.19593">
        <ele>813</ele>
        <time>2026-05-25T09:08:07.000Z</time>
      </trkpt>
      <trkpt lat="42.93243" lon="1.19594">
        <ele>814</ele>
        <time>2026-05-25T09:08:08.000Z</time>
      </trkpt>
      <trkpt lat="42.93241" lon="1.19595">
        <ele>814</ele>
        <time>2026-05-25T09:08:09.000Z</time>
      </trkpt>
      <trkpt lat="42.93239" lon="1.19596">
        <ele>815</ele>
        <time>2026-05-25T09:08:10.000Z</time>
      </trkpt>
      <trkpt lat="42.93237" lon="1.19598">
        <ele>815</ele>
        <time>2026-05-25T09:08:11.000Z</time>
      </trkpt>
      <trkpt lat="42.93235" lon="1.19598">
        <ele>815</ele>
        <time>2026-05-25T09:08:12.000Z</time>
      </trkpt>
      <trkpt lat="42.93234" lon="1.196">
        <ele>816</ele>
        <time>2026-05-25T09:08:13.000Z</time>
      </trkpt>
      <trkpt lat="42.93232" lon="1.196">
        <ele>817</ele>
        <time>2026-05-25T09:08:14.000Z</time>
      </trkpt>
      <trkpt lat="42.93231" lon="1.19601">
        <ele>817</ele>
        <time>2026-05-25T09:08:15.000Z</time>
      </trkpt>
      <trkpt lat="42.9323" lon="1.19602">
        <ele>817</ele>
        <time>2026-05-25T09:08:16.000Z</time>
      </trkpt>
      <trkpt lat="42.93228" lon="1.19603">
        <ele>818</ele>
        <time>2026-05-25T09:08:17.000Z</time>
      </trkpt>
      <trkpt lat="42.93226" lon="1.19604">
        <ele>818</ele>
        <time>2026-05-25T09:08:18.000Z</time>
      </trkpt>
      <trkpt lat="42.93224" lon="1.19605">
        <ele>818</ele>
        <time>2026-05-25T09:08:19.000Z</time>
      </trkpt>
      <trkpt lat="42.93222" lon="1.19606">
        <ele>819</ele>
        <time>2026-05-25T09:08:20.000Z</time>
      </trkpt>
      <trkpt lat="42.9322" lon="1.19607">
        <ele>820</ele>
        <time>2026-05-25T09:08:21.000Z</time>
      </trkpt>
      <trkpt lat="42.93219" lon="1.19608">
        <ele>822</ele>
        <time>2026-05-25T09:08:22.000Z</time>
      </trkpt>
      <trkpt lat="42.93218" lon="1.19609">
        <ele>822</ele>
        <time>2026-05-25T09:08:23.000Z</time>
      </trkpt>
      <trkpt lat="42.93217" lon="1.1961">
        <ele>823</ele>
        <time>2026-05-25T09:08:24.000Z</time>
      </trkpt>
      <trkpt lat="42.93216" lon="1.19613">
        <ele>823</ele>
        <time>2026-05-25T09:08:25.000Z</time>
      </trkpt>
      <trkpt lat="42.93215" lon="1.19615">
        <ele>824</ele>
        <time>2026-05-25T09:08:26.000Z</time>
      </trkpt>
      <trkpt lat="42.93213" lon="1.19617">
        <ele>824</ele>
        <time>2026-05-25T09:08:27.000Z</time>
      </trkpt>
      <trkpt lat="42.93212" lon="1.1962">
        <ele>824</ele>
        <time>2026-05-25T09:08:28.000Z</time>
      </trkpt>
      <trkpt lat="42.9321" lon="1.19621">
        <ele>824</ele>
        <time>2026-05-25T09:08:29.000Z</time>
      </trkpt>
      <trkpt lat="42.93208" lon="1.19624">
        <ele>824</ele>
        <time>2026-05-25T09:08:30.000Z</time>
      </trkpt>
      <trkpt lat="42.93206" lon="1.19627">
        <ele>824</ele>
        <time>2026-05-25T09:08:31.000Z</time>
      </trkpt>
      <trkpt lat="42.93205" lon="1.19629">
        <ele>824</ele>
        <time>2026-05-25T09:08:32.000Z</time>
      </trkpt>
      <trkpt lat="42.93204" lon="1.19632">
        <ele>823</ele>
        <time>2026-05-25T09:08:33.000Z</time>
      </trkpt>
      <trkpt lat="42.93203" lon="1.19635">
        <ele>824</ele>
        <time>2026-05-25T09:08:34.000Z</time>
      </trkpt>
      <trkpt lat="42.93202" lon="1.19637">
        <ele>823</ele>
        <time>2026-05-25T09:08:35.000Z</time>
      </trkpt>
      <trkpt lat="42.93201" lon="1.19641">
        <ele>823</ele>
        <time>2026-05-25T09:08:36.000Z</time>
      </trkpt>
      <trkpt lat="42.93199" lon="1.19645">
        <ele>823</ele>
        <time>2026-05-25T09:08:37.000Z</time>
      </trkpt>
      <trkpt lat="42.93197" lon="1.19649">
        <ele>823</ele>
        <time>2026-05-25T09:08:38.000Z</time>
      </trkpt>
      <trkpt lat="42.93197" lon="1.19653">
        <ele>823</ele>
        <time>2026-05-25T09:08:39.000Z</time>
      </trkpt>
      <trkpt lat="42.93196" lon="1.19657">
        <ele>823</ele>
        <time>2026-05-25T09:08:40.000Z</time>
      </trkpt>
      <trkpt lat="42.93195" lon="1.19661">
        <ele>822</ele>
        <time>2026-05-25T09:08:41.000Z</time>
      </trkpt>
      <trkpt lat="42.93194" lon="1.19665">
        <ele>822</ele>
        <time>2026-05-25T09:08:42.000Z</time>
      </trkpt>
      <trkpt lat="42.93195" lon="1.19668">
        <ele>822</ele>
        <time>2026-05-25T09:08:43.000Z</time>
      </trkpt>
      <trkpt lat="42.93193" lon="1.19671">
        <ele>822</ele>
        <time>2026-05-25T09:08:44.000Z</time>
      </trkpt>
      <trkpt lat="42.93193" lon="1.19674">
        <ele>822</ele>
        <time>2026-05-25T09:08:45.000Z</time>
      </trkpt>
      <trkpt lat="42.93192" lon="1.19678">
        <ele>822</ele>
        <time>2026-05-25T09:08:46.000Z</time>
      </trkpt>
      <trkpt lat="42.93192" lon="1.19681">
        <ele>822</ele>
        <time>2026-05-25T09:08:47.000Z</time>
      </trkpt>
      <trkpt lat="42.93193" lon="1.19684">
        <ele>822</ele>
        <time>2026-05-25T09:08:48.000Z</time>
      </trkpt>
      <trkpt lat="42.93194" lon="1.19687">
        <ele>822</ele>
        <time>2026-05-25T09:08:49.000Z</time>
      </trkpt>
      <trkpt lat="42.93195" lon="1.19691">
        <ele>822</ele>
        <time>2026-05-25T09:08:50.000Z</time>
      </trkpt>
      <trkpt lat="42.93194" lon="1.19694">
        <ele>821</ele>
        <time>2026-05-25T09:08:51.000Z</time>
      </trkpt>
      <trkpt lat="42.93195" lon="1.19697">
        <ele>821</ele>
        <time>2026-05-25T09:08:52.000Z</time>
      </trkpt>
      <trkpt lat="42.93195" lon="1.19701">
        <ele>821</ele>
        <time>2026-05-25T09:08:53.000Z</time>
      </trkpt>
      <trkpt lat="42.93194" lon="1.19705">
        <ele>821</ele>
        <time>2026-05-25T09:08:54.000Z</time>
      </trkpt>
      <trkpt lat="42.93194" lon="1.19709">
        <ele>821</ele>
        <time>2026-05-25T09:08:55.000Z</time>
      </trkpt>
      <trkpt lat="42.93194" lon="1.19713">
        <ele>820</ele>
        <time>2026-05-25T09:08:56.000Z</time>
      </trkpt>
      <trkpt lat="42.93194" lon="1.19718">
        <ele>820</ele>
        <time>2026-05-25T09:08:57.000Z</time>
      </trkpt>
      <trkpt lat="42.93194" lon="1.19722">
        <ele>819</ele>
        <time>2026-05-25T09:08:58.000Z</time>
      </trkpt>
      <trkpt lat="42.93193" lon="1.19725">
        <ele>819</ele>
        <time>2026-05-25T09:08:59.000Z</time>
      </trkpt>
      <trkpt lat="42.93192" lon="1.1973">
        <ele>819</ele>
        <time>2026-05-25T09:09:00.000Z</time>
      </trkpt>
      <trkpt lat="42.93191" lon="1.19734">
        <ele>819</ele>
        <time>2026-05-25T09:09:01.000Z</time>
      </trkpt>
      <trkpt lat="42.9319" lon="1.19738">
        <ele>818</ele>
        <time>2026-05-25T09:09:02.000Z</time>
      </trkpt>
      <trkpt lat="42.9319" lon="1.19742">
        <ele>818</ele>
        <time>2026-05-25T09:09:03.000Z</time>
      </trkpt>
      <trkpt lat="42.93189" lon="1.19746">
        <ele>818</ele>
        <time>2026-05-25T09:09:04.000Z</time>
      </trkpt>
      <trkpt lat="42.93189" lon="1.1975">
        <ele>818</ele>
        <time>2026-05-25T09:09:05.000Z</time>
      </trkpt>
      <trkpt lat="42.93188" lon="1.19753">
        <ele>818</ele>
        <time>2026-05-25T09:09:06.000Z</time>
      </trkpt>
      <trkpt lat="42.93187" lon="1.19756">
        <ele>818</ele>
        <time>2026-05-25T09:09:07.000Z</time>
      </trkpt>
      <trkpt lat="42.93187" lon="1.19758">
        <ele>819</ele>
        <time>2026-05-25T09:09:08.000Z</time>
      </trkpt>
      <trkpt lat="42.93186" lon="1.19762">
        <ele>819</ele>
        <time>2026-05-25T09:09:09.000Z</time>
      </trkpt>
      <trkpt lat="42.93185" lon="1.19765">
        <ele>819</ele>
        <time>2026-05-25T09:09:10.000Z</time>
      </trkpt>
      <trkpt lat="42.93185" lon="1.19768">
        <ele>819</ele>
        <time>2026-05-25T09:09:11.000Z</time>
      </trkpt>
      <trkpt lat="42.93184" lon="1.1977">
        <ele>820</ele>
        <time>2026-05-25T09:09:12.000Z</time>
      </trkpt>
      <trkpt lat="42.93182" lon="1.19771">
        <ele>820</ele>
        <time>2026-05-25T09:09:13.000Z</time>
      </trkpt>
      <trkpt lat="42.93182" lon="1.19771">
        <ele>821</ele>
        <time>2026-05-25T09:09:14.000Z</time>
      </trkpt>
      <trkpt lat="42.93181" lon="1.19772">
        <ele>822</ele>
        <time>2026-05-25T09:09:15.000Z</time>
      </trkpt>
      <trkpt lat="42.93181" lon="1.19772">
        <ele>823</ele>
        <time>2026-05-25T09:09:16.000Z</time>
      </trkpt>
      <trkpt lat="42.9318" lon="1.19773">
        <ele>825</ele>
        <time>2026-05-25T09:09:17.000Z</time>
      </trkpt>
      <trkpt lat="42.93181" lon="1.19773">
        <ele>825</ele>
        <time>2026-05-25T09:09:18.000Z</time>
      </trkpt>
      <trkpt lat="42.9318" lon="1.19774">
        <ele>825</ele>
        <time>2026-05-25T09:09:19.000Z</time>
      </trkpt>
      <trkpt lat="42.9318" lon="1.19775">
        <ele>827</ele>
        <time>2026-05-25T09:09:20.000Z</time>
      </trkpt>
      <trkpt lat="42.93183" lon="1.19777">
        <ele>827</ele>
        <time>2026-05-25T09:09:21.000Z</time>
      </trkpt>
      <trkpt lat="42.93184" lon="1.1978">
        <ele>828</ele>
        <time>2026-05-25T09:09:22.000Z</time>
      </trkpt>
      <trkpt lat="42.93185" lon="1.19783">
        <ele>829</ele>
        <time>2026-05-25T09:09:23.000Z</time>
      </trkpt>
      <trkpt lat="42.93186" lon="1.19786">
        <ele>829</ele>
        <time>2026-05-25T09:09:24.000Z</time>
      </trkpt>
      <trkpt lat="42.93187" lon="1.19789">
        <ele>829</ele>
        <time>2026-05-25T09:09:25.000Z</time>
      </trkpt>
      <trkpt lat="42.93189" lon="1.19792">
        <ele>829</ele>
        <time>2026-05-25T09:09:26.000Z</time>
      </trkpt>
      <trkpt lat="42.93191" lon="1.19795">
        <ele>830</ele>
        <time>2026-05-25T09:09:27.000Z</time>
      </trkpt>
      <trkpt lat="42.93193" lon="1.19798">
        <ele>831</ele>
        <time>2026-05-25T09:09:28.000Z</time>
      </trkpt>
      <trkpt lat="42.93194" lon="1.19801">
        <ele>832</ele>
        <time>2026-05-25T09:09:29.000Z</time>
      </trkpt>
      <trkpt lat="42.93196" lon="1.19804">
        <ele>832</ele>
        <time>2026-05-25T09:09:30.000Z</time>
      </trkpt>
      <trkpt lat="42.93199" lon="1.19808">
        <ele>833</ele>
        <time>2026-05-25T09:09:31.000Z</time>
      </trkpt>
      <trkpt lat="42.93201" lon="1.19811">
        <ele>833</ele>
        <time>2026-05-25T09:09:32.000Z</time>
      </trkpt>
      <trkpt lat="42.93203" lon="1.19815">
        <ele>833</ele>
        <time>2026-05-25T09:09:33.000Z</time>
      </trkpt>
      <trkpt lat="42.93205" lon="1.19819">
        <ele>833</ele>
        <time>2026-05-25T09:09:34.000Z</time>
      </trkpt>
      <trkpt lat="42.93206" lon="1.19823">
        <ele>833</ele>
        <time>2026-05-25T09:09:35.000Z</time>
      </trkpt>
      <trkpt lat="42.93208" lon="1.19827">
        <ele>834</ele>
        <time>2026-05-25T09:09:36.000Z</time>
      </trkpt>
      <trkpt lat="42.93209" lon="1.19831">
        <ele>834</ele>
        <time>2026-05-25T09:09:37.000Z</time>
      </trkpt>
      <trkpt lat="42.93211" lon="1.19834">
        <ele>835</ele>
        <time>2026-05-25T09:09:38.000Z</time>
      </trkpt>
      <trkpt lat="42.93211" lon="1.19838">
        <ele>835</ele>
        <time>2026-05-25T09:09:39.000Z</time>
      </trkpt>
      <trkpt lat="42.93212" lon="1.19842">
        <ele>835</ele>
        <time>2026-05-25T09:09:40.000Z</time>
      </trkpt>
      <trkpt lat="42.93212" lon="1.19846">
        <ele>835</ele>
        <time>2026-05-25T09:09:41.000Z</time>
      </trkpt>
      <trkpt lat="42.93213" lon="1.1985">
        <ele>836</ele>
        <time>2026-05-25T09:09:42.000Z</time>
      </trkpt>
      <trkpt lat="42.93213" lon="1.19854">
        <ele>836</ele>
        <time>2026-05-25T09:09:43.000Z</time>
      </trkpt>
      <trkpt lat="42.93213" lon="1.19858">
        <ele>836</ele>
        <time>2026-05-25T09:09:44.000Z</time>
      </trkpt>
      <trkpt lat="42.93214" lon="1.19862">
        <ele>837</ele>
        <time>2026-05-25T09:09:45.000Z</time>
      </trkpt>
      <trkpt lat="42.93214" lon="1.19866">
        <ele>837</ele>
        <time>2026-05-25T09:09:46.000Z</time>
      </trkpt>
      <trkpt lat="42.93216" lon="1.1987">
        <ele>837</ele>
        <time>2026-05-25T09:09:47.000Z</time>
      </trkpt>
      <trkpt lat="42.93218" lon="1.19873">
        <ele>837</ele>
        <time>2026-05-25T09:09:48.000Z</time>
      </trkpt>
      <trkpt lat="42.93221" lon="1.19877">
        <ele>837</ele>
        <time>2026-05-25T09:09:49.000Z</time>
      </trkpt>
      <trkpt lat="42.93224" lon="1.19879">
        <ele>837</ele>
        <time>2026-05-25T09:09:50.000Z</time>
      </trkpt>
      <trkpt lat="42.93227" lon="1.19881">
        <ele>838</ele>
        <time>2026-05-25T09:09:51.000Z</time>
      </trkpt>
      <trkpt lat="42.93229" lon="1.19883">
        <ele>838</ele>
        <time>2026-05-25T09:09:52.000Z</time>
      </trkpt>
      <trkpt lat="42.93231" lon="1.19885">
        <ele>838</ele>
        <time>2026-05-25T09:09:53.000Z</time>
      </trkpt>
      <trkpt lat="42.93233" lon="1.19888">
        <ele>839</ele>
        <time>2026-05-25T09:09:54.000Z</time>
      </trkpt>
      <trkpt lat="42.93236" lon="1.19891">
        <ele>838</ele>
        <time>2026-05-25T09:09:55.000Z</time>
      </trkpt>
      <trkpt lat="42.93238" lon="1.19894">
        <ele>839</ele>
        <time>2026-05-25T09:09:56.000Z</time>
      </trkpt>
      <trkpt lat="42.9324" lon="1.19897">
        <ele>839</ele>
        <time>2026-05-25T09:09:57.000Z</time>
      </trkpt>
      <trkpt lat="42.93241" lon="1.199">
        <ele>839</ele>
        <time>2026-05-25T09:09:58.000Z</time>
      </trkpt>
      <trkpt lat="42.93242" lon="1.19903">
        <ele>839</ele>
        <time>2026-05-25T09:09:59.000Z</time>
      </trkpt>
      <trkpt lat="42.93242" lon="1.19907">
        <ele>839</ele>
        <time>2026-05-25T09:10:00.000Z</time>
      </trkpt>
      <trkpt lat="42.93242" lon="1.1991">
        <ele>839</ele>
        <time>2026-05-25T09:10:01.000Z</time>
      </trkpt>
      <trkpt lat="42.93242" lon="1.19913">
        <ele>839</ele>
        <time>2026-05-25T09:10:02.000Z</time>
      </trkpt>
      <trkpt lat="42.93242" lon="1.19916">
        <ele>840</ele>
        <time>2026-05-25T09:10:03.000Z</time>
      </trkpt>
      <trkpt lat="42.93241" lon="1.1992">
        <ele>840</ele>
        <time>2026-05-25T09:10:04.000Z</time>
      </trkpt>
      <trkpt lat="42.93239" lon="1.19924">
        <ele>840</ele>
        <time>2026-05-25T09:10:05.000Z</time>
      </trkpt>
      <trkpt lat="42.93237" lon="1.19928">
        <ele>840</ele>
        <time>2026-05-25T09:10:06.000Z</time>
      </trkpt>
      <trkpt lat="42.93236" lon="1.19932">
        <ele>840</ele>
        <time>2026-05-25T09:10:07.000Z</time>
      </trkpt>
      <trkpt lat="42.93235" lon="1.19935">
        <ele>841</ele>
        <time>2026-05-25T09:10:08.000Z</time>
      </trkpt>
      <trkpt lat="42.93233" lon="1.1994">
        <ele>840</ele>
        <time>2026-05-25T09:10:09.000Z</time>
      </trkpt>
      <trkpt lat="42.93232" lon="1.19944">
        <ele>840</ele>
        <time>2026-05-25T09:10:10.000Z</time>
      </trkpt>
      <trkpt lat="42.93231" lon="1.19948">
        <ele>841</ele>
        <time>2026-05-25T09:10:11.000Z</time>
      </trkpt>
      <trkpt lat="42.9323" lon="1.19951">
        <ele>841</ele>
        <time>2026-05-25T09:10:12.000Z</time>
      </trkpt>
      <trkpt lat="42.93229" lon="1.19955">
        <ele>841</ele>
        <time>2026-05-25T09:10:13.000Z</time>
      </trkpt>
      <trkpt lat="42.93228" lon="1.19959">
        <ele>842</ele>
        <time>2026-05-25T09:10:14.000Z</time>
      </trkpt>
      <trkpt lat="42.93228" lon="1.19961">
        <ele>842</ele>
        <time>2026-05-25T09:10:15.000Z</time>
      </trkpt>
      <trkpt lat="42.93227" lon="1.19965">
        <ele>842</ele>
        <time>2026-05-25T09:10:16.000Z</time>
      </trkpt>
      <trkpt lat="42.93227" lon="1.19968">
        <ele>843</ele>
        <time>2026-05-25T09:10:17.000Z</time>
      </trkpt>
      <trkpt lat="42.93226" lon="1.19972">
        <ele>843</ele>
        <time>2026-05-25T09:10:18.000Z</time>
      </trkpt>
      <trkpt lat="42.93226" lon="1.19976">
        <ele>843</ele>
        <time>2026-05-25T09:10:19.000Z</time>
      </trkpt>
      <trkpt lat="42.93225" lon="1.1998">
        <ele>843</ele>
        <time>2026-05-25T09:10:20.000Z</time>
      </trkpt>
      <trkpt lat="42.93224" lon="1.19983">
        <ele>843</ele>
        <time>2026-05-25T09:10:21.000Z</time>
      </trkpt>
      <trkpt lat="42.93224" lon="1.19987">
        <ele>843</ele>
        <time>2026-05-25T09:10:22.000Z</time>
      </trkpt>
      <trkpt lat="42.93223" lon="1.1999">
        <ele>843</ele>
        <time>2026-05-25T09:10:23.000Z</time>
      </trkpt>
      <trkpt lat="42.93222" lon="1.19994">
        <ele>843</ele>
        <time>2026-05-25T09:10:24.000Z</time>
      </trkpt>
      <trkpt lat="42.93222" lon="1.19998">
        <ele>843</ele>
        <time>2026-05-25T09:10:25.000Z</time>
      </trkpt>
      <trkpt lat="42.93221" lon="1.20001">
        <ele>843</ele>
        <time>2026-05-25T09:10:26.000Z</time>
      </trkpt>
      <trkpt lat="42.9322" lon="1.20005">
        <ele>842</ele>
        <time>2026-05-25T09:10:27.000Z</time>
      </trkpt>
      <trkpt lat="42.93219" lon="1.20009">
        <ele>842</ele>
        <time>2026-05-25T09:10:28.000Z</time>
      </trkpt>
      <trkpt lat="42.93218" lon="1.20013">
        <ele>843</ele>
        <time>2026-05-25T09:10:29.000Z</time>
      </trkpt>
      <trkpt lat="42.93218" lon="1.20017">
        <ele>842</ele>
        <time>2026-05-25T09:10:30.000Z</time>
      </trkpt>
      <trkpt lat="42.93218" lon="1.2002">
        <ele>842</ele>
        <time>2026-05-25T09:10:31.000Z</time>
      </trkpt>
      <trkpt lat="42.93218" lon="1.20024">
        <ele>842</ele>
        <time>2026-05-25T09:10:32.000Z</time>
      </trkpt>
      <trkpt lat="42.93218" lon="1.20027">
        <ele>842</ele>
        <time>2026-05-25T09:10:33.000Z</time>
      </trkpt>
      <trkpt lat="42.93217" lon="1.20031">
        <ele>842</ele>
        <time>2026-05-25T09:10:34.000Z</time>
      </trkpt>
      <trkpt lat="42.93217" lon="1.20035">
        <ele>842</ele>
        <time>2026-05-25T09:10:35.000Z</time>
      </trkpt>
      <trkpt lat="42.93216" lon="1.20039">
        <ele>842</ele>
        <time>2026-05-25T09:10:36.000Z</time>
      </trkpt>
      <trkpt lat="42.93216" lon="1.20043">
        <ele>842</ele>
        <time>2026-05-25T09:10:37.000Z</time>
      </trkpt>
      <trkpt lat="42.93216" lon="1.20046">
        <ele>842</ele>
        <time>2026-05-25T09:10:38.000Z</time>
      </trkpt>
      <trkpt lat="42.93216" lon="1.20049">
        <ele>842</ele>
        <time>2026-05-25T09:10:39.000Z</time>
      </trkpt>
      <trkpt lat="42.93215" lon="1.20054">
        <ele>841</ele>
        <time>2026-05-25T09:10:40.000Z</time>
      </trkpt>
      <trkpt lat="42.93216" lon="1.20059">
        <ele>840</ele>
        <time>2026-05-25T09:10:41.000Z</time>
      </trkpt>
      <trkpt lat="42.93218" lon="1.20064">
        <ele>840</ele>
        <time>2026-05-25T09:10:42.000Z</time>
      </trkpt>
      <trkpt lat="42.9322" lon="1.20068">
        <ele>839</ele>
        <time>2026-05-25T09:10:43.000Z</time>
      </trkpt>
      <trkpt lat="42.93222" lon="1.20072">
        <ele>839</ele>
        <time>2026-05-25T09:10:44.000Z</time>
      </trkpt>
      <trkpt lat="42.93225" lon="1.20075">
        <ele>839</ele>
        <time>2026-05-25T09:10:45.000Z</time>
      </trkpt>
      <trkpt lat="42.93227" lon="1.20078">
        <ele>839</ele>
        <time>2026-05-25T09:10:46.000Z</time>
      </trkpt>
      <trkpt lat="42.9323" lon="1.20081">
        <ele>838</ele>
        <time>2026-05-25T09:10:47.000Z</time>
      </trkpt>
      <trkpt lat="42.93232" lon="1.20084">
        <ele>838</ele>
        <time>2026-05-25T09:10:48.000Z</time>
      </trkpt>
      <trkpt lat="42.93234" lon="1.20087">
        <ele>839</ele>
        <time>2026-05-25T09:10:49.000Z</time>
      </trkpt>
      <trkpt lat="42.93236" lon="1.20091">
        <ele>839</ele>
        <time>2026-05-25T09:10:50.000Z</time>
      </trkpt>
      <trkpt lat="42.93238" lon="1.20095">
        <ele>839</ele>
        <time>2026-05-25T09:10:51.000Z</time>
      </trkpt>
      <trkpt lat="42.93239" lon="1.20099">
        <ele>840</ele>
        <time>2026-05-25T09:10:52.000Z</time>
      </trkpt>
      <trkpt lat="42.9324" lon="1.20103">
        <ele>840</ele>
        <time>2026-05-25T09:10:53.000Z</time>
      </trkpt>
      <trkpt lat="42.93242" lon="1.20107">
        <ele>840</ele>
        <time>2026-05-25T09:10:54.000Z</time>
      </trkpt>
      <trkpt lat="42.93243" lon="1.20111">
        <ele>840</ele>
        <time>2026-05-25T09:10:55.000Z</time>
      </trkpt>
      <trkpt lat="42.93245" lon="1.20115">
        <ele>841</ele>
        <time>2026-05-25T09:10:56.000Z</time>
      </trkpt>
      <trkpt lat="42.93247" lon="1.2012">
        <ele>841</ele>
        <time>2026-05-25T09:10:57.000Z</time>
      </trkpt>
      <trkpt lat="42.93249" lon="1.20124">
        <ele>841</ele>
        <time>2026-05-25T09:10:58.000Z</time>
      </trkpt>
      <trkpt lat="42.93251" lon="1.20129">
        <ele>841</ele>
        <time>2026-05-25T09:10:59.000Z</time>
      </trkpt>
      <trkpt lat="42.93253" lon="1.20133">
        <ele>841</ele>
        <time>2026-05-25T09:11:00.000Z</time>
      </trkpt>
      <trkpt lat="42.93255" lon="1.20137">
        <ele>841</ele>
        <time>2026-05-25T09:11:01.000Z</time>
      </trkpt>
      <trkpt lat="42.93257" lon="1.20141">
        <ele>841</ele>
        <time>2026-05-25T09:11:02.000Z</time>
      </trkpt>
      <trkpt lat="42.93259" lon="1.20144">
        <ele>842</ele>
        <time>2026-05-25T09:11:03.000Z</time>
      </trkpt>
      <trkpt lat="42.93262" lon="1.20148">
        <ele>842</ele>
        <time>2026-05-25T09:11:04.000Z</time>
      </trkpt>
      <trkpt lat="42.93264" lon="1.20151">
        <ele>843</ele>
        <time>2026-05-25T09:11:05.000Z</time>
      </trkpt>
      <trkpt lat="42.93266" lon="1.20154">
        <ele>843</ele>
        <time>2026-05-25T09:11:06.000Z</time>
      </trkpt>
      <trkpt lat="42.93267" lon="1.20158">
        <ele>843</ele>
        <time>2026-05-25T09:11:07.000Z</time>
      </trkpt>
      <trkpt lat="42.93269" lon="1.2016">
        <ele>843</ele>
        <time>2026-05-25T09:11:08.000Z</time>
      </trkpt>
      <trkpt lat="42.93267" lon="1.20163">
        <ele>844</ele>
        <time>2026-05-25T09:11:09.000Z</time>
      </trkpt>
      <trkpt lat="42.93265" lon="1.20162">
        <ele>845</ele>
        <time>2026-05-25T09:11:10.000Z</time>
      </trkpt>
      <trkpt lat="42.93263" lon="1.20162">
        <ele>847</ele>
        <time>2026-05-25T09:11:11.000Z</time>
      </trkpt>
      <trkpt lat="42.9326" lon="1.20163">
        <ele>849</ele>
        <time>2026-05-25T09:11:12.000Z</time>
      </trkpt>
      <trkpt lat="42.93257" lon="1.20164">
        <ele>851</ele>
        <time>2026-05-25T09:11:13.000Z</time>
      </trkpt>
      <trkpt lat="42.93256" lon="1.20163">
        <ele>852</ele>
        <time>2026-05-25T09:11:14.000Z</time>
      </trkpt>
      <trkpt lat="42.93254" lon="1.20162">
        <ele>854</ele>
        <time>2026-05-25T09:11:15.000Z</time>
      </trkpt>
      <trkpt lat="42.93251" lon="1.20162">
        <ele>855</ele>
        <time>2026-05-25T09:11:16.000Z</time>
      </trkpt>
      <trkpt lat="42.9325" lon="1.20161">
        <ele>855</ele>
        <time>2026-05-25T09:11:17.000Z</time>
      </trkpt>
      <trkpt lat="42.93247" lon="1.2016">
        <ele>855</ele>
        <time>2026-05-25T09:11:18.000Z</time>
      </trkpt>
      <trkpt lat="42.93246" lon="1.20159">
        <ele>856</ele>
        <time>2026-05-25T09:11:19.000Z</time>
      </trkpt>
      <trkpt lat="42.93244" lon="1.20158">
        <ele>856</ele>
        <time>2026-05-25T09:11:20.000Z</time>
      </trkpt>
      <trkpt lat="42.93243" lon="1.20156">
        <ele>856</ele>
        <time>2026-05-25T09:11:21.000Z</time>
      </trkpt>
      <trkpt lat="42.93241" lon="1.20154">
        <ele>857</ele>
        <time>2026-05-25T09:11:22.000Z</time>
      </trkpt>
      <trkpt lat="42.9324" lon="1.20152">
        <ele>857</ele>
        <time>2026-05-25T09:11:23.000Z</time>
      </trkpt>
      <trkpt lat="42.93239" lon="1.20149">
        <ele>858</ele>
        <time>2026-05-25T09:11:24.000Z</time>
      </trkpt>
      <trkpt lat="42.93239" lon="1.20147">
        <ele>858</ele>
        <time>2026-05-25T09:11:25.000Z</time>
      </trkpt>
      <trkpt lat="42.93237" lon="1.20145">
        <ele>859</ele>
        <time>2026-05-25T09:11:26.000Z</time>
      </trkpt>
      <trkpt lat="42.93236" lon="1.20143">
        <ele>859</ele>
        <time>2026-05-25T09:11:27.000Z</time>
      </trkpt>
      <trkpt lat="42.93234" lon="1.20141">
        <ele>859</ele>
        <time>2026-05-25T09:11:28.000Z</time>
      </trkpt>
      <trkpt lat="42.93232" lon="1.20139">
        <ele>859</ele>
        <time>2026-05-25T09:11:29.000Z</time>
      </trkpt>
      <trkpt lat="42.93229" lon="1.20137">
        <ele>859</ele>
        <time>2026-05-25T09:11:30.000Z</time>
      </trkpt>
      <trkpt lat="42.93228" lon="1.20134">
        <ele>860</ele>
        <time>2026-05-25T09:11:31.000Z</time>
      </trkpt>
      <trkpt lat="42.93227" lon="1.20131">
        <ele>860</ele>
        <time>2026-05-25T09:11:32.000Z</time>
      </trkpt>
      <trkpt lat="42.93225" lon="1.20129">
        <ele>860</ele>
        <time>2026-05-25T09:11:33.000Z</time>
      </trkpt>
      <trkpt lat="42.93223" lon="1.20126">
        <ele>861</ele>
        <time>2026-05-25T09:11:34.000Z</time>
      </trkpt>
      <trkpt lat="42.93222" lon="1.20124">
        <ele>861</ele>
        <time>2026-05-25T09:11:35.000Z</time>
      </trkpt>
      <trkpt lat="42.93219" lon="1.20123">
        <ele>862</ele>
        <time>2026-05-25T09:11:36.000Z</time>
      </trkpt>
      <trkpt lat="42.93217" lon="1.20121">
        <ele>862</ele>
        <time>2026-05-25T09:11:37.000Z</time>
      </trkpt>
      <trkpt lat="42.93215" lon="1.2012">
        <ele>862</ele>
        <time>2026-05-25T09:11:38.000Z</time>
      </trkpt>
      <trkpt lat="42.93214" lon="1.20119">
        <ele>862</ele>
        <time>2026-05-25T09:11:39.000Z</time>
      </trkpt>
      <trkpt lat="42.93213" lon="1.20118">
        <ele>862</ele>
        <time>2026-05-25T09:11:40.000Z</time>
      </trkpt>
      <trkpt lat="42.93211" lon="1.20116">
        <ele>863</ele>
        <time>2026-05-25T09:11:41.000Z</time>
      </trkpt>
      <trkpt lat="42.9321" lon="1.20114">
        <ele>863</ele>
        <time>2026-05-25T09:11:42.000Z</time>
      </trkpt>
      <trkpt lat="42.93209" lon="1.20112">
        <ele>863</ele>
        <time>2026-05-25T09:11:43.000Z</time>
      </trkpt>
      <trkpt lat="42.93208" lon="1.2011">
        <ele>864</ele>
        <time>2026-05-25T09:11:44.000Z</time>
      </trkpt>
      <trkpt lat="42.93207" lon="1.20107">
        <ele>864</ele>
        <time>2026-05-25T09:11:45.000Z</time>
      </trkpt>
      <trkpt lat="42.93205" lon="1.20104">
        <ele>864</ele>
        <time>2026-05-25T09:11:46.000Z</time>
      </trkpt>
      <trkpt lat="42.93204" lon="1.20102">
        <ele>865</ele>
        <time>2026-05-25T09:11:47.000Z</time>
      </trkpt>
      <trkpt lat="42.93203" lon="1.20099">
        <ele>866</ele>
        <time>2026-05-25T09:11:48.000Z</time>
      </trkpt>
      <trkpt lat="42.93203" lon="1.20096">
        <ele>867</ele>
        <time>2026-05-25T09:11:49.000Z</time>
      </trkpt>
      <trkpt lat="42.93202" lon="1.20094">
        <ele>867</ele>
        <time>2026-05-25T09:11:50.000Z</time>
      </trkpt>
      <trkpt lat="42.932" lon="1.20091">
        <ele>867</ele>
        <time>2026-05-25T09:11:51.000Z</time>
      </trkpt>
      <trkpt lat="42.93198" lon="1.20088">
        <ele>867</ele>
        <time>2026-05-25T09:11:52.000Z</time>
      </trkpt>
      <trkpt lat="42.93197" lon="1.20086">
        <ele>868</ele>
        <time>2026-05-25T09:11:53.000Z</time>
      </trkpt>
      <trkpt lat="42.93196" lon="1.20082">
        <ele>868</ele>
        <time>2026-05-25T09:11:54.000Z</time>
      </trkpt>
      <trkpt lat="42.93194" lon="1.2008">
        <ele>868</ele>
        <time>2026-05-25T09:11:55.000Z</time>
      </trkpt>
      <trkpt lat="42.93192" lon="1.20078">
        <ele>868</ele>
        <time>2026-05-25T09:11:56.000Z</time>
      </trkpt>
      <trkpt lat="42.93191" lon="1.20075">
        <ele>869</ele>
        <time>2026-05-25T09:11:57.000Z</time>
      </trkpt>
      <trkpt lat="42.9319" lon="1.20073">
        <ele>869</ele>
        <time>2026-05-25T09:11:58.000Z</time>
      </trkpt>
      <trkpt lat="42.93189" lon="1.2007">
        <ele>869</ele>
        <time>2026-05-25T09:11:59.000Z</time>
      </trkpt>
      <trkpt lat="42.93188" lon="1.20068">
        <ele>869</ele>
        <time>2026-05-25T09:12:00.000Z</time>
      </trkpt>
      <trkpt lat="42.93188" lon="1.20066">
        <ele>870</ele>
        <time>2026-05-25T09:12:01.000Z</time>
      </trkpt>
      <trkpt lat="42.93187" lon="1.20064">
        <ele>870</ele>
        <time>2026-05-25T09:12:02.000Z</time>
      </trkpt>
      <trkpt lat="42.93187" lon="1.20062">
        <ele>871</ele>
        <time>2026-05-25T09:12:03.000Z</time>
      </trkpt>
      <trkpt lat="42.93187" lon="1.20059">
        <ele>871</ele>
        <time>2026-05-25T09:12:04.000Z</time>
      </trkpt>
      <trkpt lat="42.93187" lon="1.20055">
        <ele>872</ele>
        <time>2026-05-25T09:12:05.000Z</time>
      </trkpt>
      <trkpt lat="42.93187" lon="1.2005">
        <ele>873</ele>
        <time>2026-05-25T09:12:06.000Z</time>
      </trkpt>
      <trkpt lat="42.93186" lon="1.20046">
        <ele>873</ele>
        <time>2026-05-25T09:12:07.000Z</time>
      </trkpt>
      <trkpt lat="42.93186" lon="1.20043">
        <ele>874</ele>
        <time>2026-05-25T09:12:08.000Z</time>
      </trkpt>
      <trkpt lat="42.93186" lon="1.20039">
        <ele>876</ele>
        <time>2026-05-25T09:12:09.000Z</time>
      </trkpt>
      <trkpt lat="42.93185" lon="1.20035">
        <ele>876</ele>
        <time>2026-05-25T09:12:10.000Z</time>
      </trkpt>
      <trkpt lat="42.93184" lon="1.20032">
        <ele>876</ele>
        <time>2026-05-25T09:12:11.000Z</time>
      </trkpt>
      <trkpt lat="42.93183" lon="1.20029">
        <ele>876</ele>
        <time>2026-05-25T09:12:12.000Z</time>
      </trkpt>
      <trkpt lat="42.93183" lon="1.20027">
        <ele>876</ele>
        <time>2026-05-25T09:12:13.000Z</time>
      </trkpt>
      <trkpt lat="42.93182" lon="1.20023">
        <ele>876</ele>
        <time>2026-05-25T09:12:14.000Z</time>
      </trkpt>
      <trkpt lat="42.93182" lon="1.2002">
        <ele>877</ele>
        <time>2026-05-25T09:12:15.000Z</time>
      </trkpt>
      <trkpt lat="42.93181" lon="1.20017">
        <ele>877</ele>
        <time>2026-05-25T09:12:16.000Z</time>
      </trkpt>
      <trkpt lat="42.9318" lon="1.20014">
        <ele>878</ele>
        <time>2026-05-25T09:12:17.000Z</time>
      </trkpt>
      <trkpt lat="42.93179" lon="1.20012">
        <ele>878</ele>
        <time>2026-05-25T09:12:18.000Z</time>
      </trkpt>
      <trkpt lat="42.93177" lon="1.20011">
        <ele>878</ele>
        <time>2026-05-25T09:12:19.000Z</time>
      </trkpt>
      <trkpt lat="42.93175" lon="1.20009">
        <ele>878</ele>
        <time>2026-05-25T09:12:20.000Z</time>
      </trkpt>
      <trkpt lat="42.93173" lon="1.20007">
        <ele>878</ele>
        <time>2026-05-25T09:12:21.000Z</time>
      </trkpt>
      <trkpt lat="42.93171" lon="1.20006">
        <ele>878</ele>
        <time>2026-05-25T09:12:22.000Z</time>
      </trkpt>
      <trkpt lat="42.93169" lon="1.20003">
        <ele>879</ele>
        <time>2026-05-25T09:12:23.000Z</time>
      </trkpt>
      <trkpt lat="42.93167" lon="1.20002">
        <ele>879</ele>
        <time>2026-05-25T09:12:24.000Z</time>
      </trkpt>
      <trkpt lat="42.93165" lon="1.2">
        <ele>879</ele>
        <time>2026-05-25T09:12:25.000Z</time>
      </trkpt>
      <trkpt lat="42.93163" lon="1.19998">
        <ele>879</ele>
        <time>2026-05-25T09:12:26.000Z</time>
      </trkpt>
      <trkpt lat="42.93163" lon="1.19995">
        <ele>879</ele>
        <time>2026-05-25T09:12:27.000Z</time>
      </trkpt>
      <trkpt lat="42.93162" lon="1.19993">
        <ele>880</ele>
        <time>2026-05-25T09:12:28.000Z</time>
      </trkpt>
      <trkpt lat="42.93161" lon="1.19991">
        <ele>881</ele>
        <time>2026-05-25T09:12:29.000Z</time>
      </trkpt>
      <trkpt lat="42.9316" lon="1.19989">
        <ele>880</ele>
        <time>2026-05-25T09:12:30.000Z</time>
      </trkpt>
      <trkpt lat="42.93158" lon="1.19988">
        <ele>880</ele>
        <time>2026-05-25T09:12:31.000Z</time>
      </trkpt>
      <trkpt lat="42.93157" lon="1.19985">
        <ele>880</ele>
        <time>2026-05-25T09:12:32.000Z</time>
      </trkpt>
      <trkpt lat="42.93155" lon="1.19983">
        <ele>880</ele>
        <time>2026-05-25T09:12:33.000Z</time>
      </trkpt>
      <trkpt lat="42.93154" lon="1.1998">
        <ele>880</ele>
        <time>2026-05-25T09:12:34.000Z</time>
      </trkpt>
      <trkpt lat="42.93153" lon="1.19978">
        <ele>880</ele>
        <time>2026-05-25T09:12:35.000Z</time>
      </trkpt>
      <trkpt lat="42.93152" lon="1.19976">
        <ele>881</ele>
        <time>2026-05-25T09:12:36.000Z</time>
      </trkpt>
      <trkpt lat="42.93151" lon="1.19973">
        <ele>881</ele>
        <time>2026-05-25T09:12:37.000Z</time>
      </trkpt>
      <trkpt lat="42.9315" lon="1.19971">
        <ele>881</ele>
        <time>2026-05-25T09:12:38.000Z</time>
      </trkpt>
      <trkpt lat="42.9315" lon="1.19968">
        <ele>882</ele>
        <time>2026-05-25T09:12:39.000Z</time>
      </trkpt>
      <trkpt lat="42.93149" lon="1.19965">
        <ele>883</ele>
        <time>2026-05-25T09:12:40.000Z</time>
      </trkpt>
      <trkpt lat="42.93148" lon="1.19962">
        <ele>883</ele>
        <time>2026-05-25T09:12:41.000Z</time>
      </trkpt>
      <trkpt lat="42.93147" lon="1.19959">
        <ele>883</ele>
        <time>2026-05-25T09:12:42.000Z</time>
      </trkpt>
      <trkpt lat="42.93145" lon="1.19955">
        <ele>884</ele>
        <time>2026-05-25T09:12:43.000Z</time>
      </trkpt>
      <trkpt lat="42.93144" lon="1.19952">
        <ele>885</ele>
        <time>2026-05-25T09:12:44.000Z</time>
      </trkpt>
      <trkpt lat="42.93142" lon="1.19949">
        <ele>886</ele>
        <time>2026-05-25T09:12:45.000Z</time>
      </trkpt>
      <trkpt lat="42.9314" lon="1.19946">
        <ele>886</ele>
        <time>2026-05-25T09:12:46.000Z</time>
      </trkpt>
      <trkpt lat="42.93139" lon="1.19943">
        <ele>886</ele>
        <time>2026-05-25T09:12:47.000Z</time>
      </trkpt>
      <trkpt lat="42.93138" lon="1.19941">
        <ele>886</ele>
        <time>2026-05-25T09:12:48.000Z</time>
      </trkpt>
      <trkpt lat="42.93136" lon="1.19937">
        <ele>887</ele>
        <time>2026-05-25T09:12:49.000Z</time>
      </trkpt>
      <trkpt lat="42.93134" lon="1.19935">
        <ele>887</ele>
        <time>2026-05-25T09:12:50.000Z</time>
      </trkpt>
      <trkpt lat="42.93133" lon="1.19932">
        <ele>887</ele>
        <time>2026-05-25T09:12:51.000Z</time>
      </trkpt>
      <trkpt lat="42.93132" lon="1.1993">
        <ele>887</ele>
        <time>2026-05-25T09:12:52.000Z</time>
      </trkpt>
      <trkpt lat="42.93131" lon="1.19927">
        <ele>887</ele>
        <time>2026-05-25T09:12:53.000Z</time>
      </trkpt>
      <trkpt lat="42.9313" lon="1.19924">
        <ele>888</ele>
        <time>2026-05-25T09:12:54.000Z</time>
      </trkpt>
      <trkpt lat="42.93129" lon="1.19921">
        <ele>888</ele>
        <time>2026-05-25T09:12:55.000Z</time>
      </trkpt>
      <trkpt lat="42.93128" lon="1.19918">
        <ele>889</ele>
        <time>2026-05-25T09:12:56.000Z</time>
      </trkpt>
      <trkpt lat="42.93127" lon="1.19916">
        <ele>890</ele>
        <time>2026-05-25T09:12:57.000Z</time>
      </trkpt>
      <trkpt lat="42.93126" lon="1.19914">
        <ele>890</ele>
        <time>2026-05-25T09:12:58.000Z</time>
      </trkpt>
      <trkpt lat="42.93125" lon="1.19911">
        <ele>890</ele>
        <time>2026-05-25T09:12:59.000Z</time>
      </trkpt>
      <trkpt lat="42.93124" lon="1.19908">
        <ele>891</ele>
        <time>2026-05-25T09:13:00.000Z</time>
      </trkpt>
      <trkpt lat="42.93123" lon="1.19905">
        <ele>892</ele>
        <time>2026-05-25T09:13:01.000Z</time>
      </trkpt>
      <trkpt lat="42.93121" lon="1.19903">
        <ele>893</ele>
        <time>2026-05-25T09:13:02.000Z</time>
      </trkpt>
      <trkpt lat="42.9312" lon="1.19901">
        <ele>894</ele>
        <time>2026-05-25T09:13:03.000Z</time>
      </trkpt>
      <trkpt lat="42.93119" lon="1.19898">
        <ele>894</ele>
        <time>2026-05-25T09:13:04.000Z</time>
      </trkpt>
      <trkpt lat="42.93117" lon="1.19896">
        <ele>894</ele>
        <time>2026-05-25T09:13:05.000Z</time>
      </trkpt>
      <trkpt lat="42.93116" lon="1.19893">
        <ele>894</ele>
        <time>2026-05-25T09:13:06.000Z</time>
      </trkpt>
      <trkpt lat="42.93114" lon="1.19891">
        <ele>894</ele>
        <time>2026-05-25T09:13:07.000Z</time>
      </trkpt>
      <trkpt lat="42.93112" lon="1.19888">
        <ele>893</ele>
        <time>2026-05-25T09:13:08.000Z</time>
      </trkpt>
      <trkpt lat="42.9311" lon="1.19885">
        <ele>894</ele>
        <time>2026-05-25T09:13:09.000Z</time>
      </trkpt>
      <trkpt lat="42.93109" lon="1.19883">
        <ele>894</ele>
        <time>2026-05-25T09:13:10.000Z</time>
      </trkpt>
      <trkpt lat="42.93107" lon="1.1988">
        <ele>895</ele>
        <time>2026-05-25T09:13:11.000Z</time>
      </trkpt>
      <trkpt lat="42.93106" lon="1.19877">
        <ele>895</ele>
        <time>2026-05-25T09:13:12.000Z</time>
      </trkpt>
      <trkpt lat="42.93104" lon="1.19874">
        <ele>897</ele>
        <time>2026-05-25T09:13:13.000Z</time>
      </trkpt>
      <trkpt lat="42.93102" lon="1.19872">
        <ele>897</ele>
        <time>2026-05-25T09:13:14.000Z</time>
      </trkpt>
      <trkpt lat="42.93101" lon="1.19869">
        <ele>898</ele>
        <time>2026-05-25T09:13:15.000Z</time>
      </trkpt>
      <trkpt lat="42.93099" lon="1.19867">
        <ele>898</ele>
        <time>2026-05-25T09:13:16.000Z</time>
      </trkpt>
      <trkpt lat="42.93097" lon="1.19865">
        <ele>897</ele>
        <time>2026-05-25T09:13:17.000Z</time>
      </trkpt>
      <trkpt lat="42.93095" lon="1.19863">
        <ele>897</ele>
        <time>2026-05-25T09:13:18.000Z</time>
      </trkpt>
      <trkpt lat="42.93094" lon="1.19862">
        <ele>897</ele>
        <time>2026-05-25T09:13:19.000Z</time>
      </trkpt>
      <trkpt lat="42.93092" lon="1.1986">
        <ele>897</ele>
        <time>2026-05-25T09:13:20.000Z</time>
      </trkpt>
      <trkpt lat="42.9309" lon="1.19858">
        <ele>897</ele>
        <time>2026-05-25T09:13:21.000Z</time>
      </trkpt>
      <trkpt lat="42.93088" lon="1.19857">
        <ele>897</ele>
        <time>2026-05-25T09:13:22.000Z</time>
      </trkpt>
      <trkpt lat="42.93086" lon="1.19856">
        <ele>898</ele>
        <time>2026-05-25T09:13:23.000Z</time>
      </trkpt>
      <trkpt lat="42.93085" lon="1.19853">
        <ele>897</ele>
        <time>2026-05-25T09:13:24.000Z</time>
      </trkpt>
      <trkpt lat="42.93082" lon="1.19851">
        <ele>897</ele>
        <time>2026-05-25T09:13:25.000Z</time>
      </trkpt>
      <trkpt lat="42.9308" lon="1.19849">
        <ele>898</ele>
        <time>2026-05-25T09:13:26.000Z</time>
      </trkpt>
      <trkpt lat="42.93078" lon="1.19846">
        <ele>898</ele>
        <time>2026-05-25T09:13:27.000Z</time>
      </trkpt>
      <trkpt lat="42.93076" lon="1.19844">
        <ele>898</ele>
        <time>2026-05-25T09:13:28.000Z</time>
      </trkpt>
      <trkpt lat="42.93075" lon="1.19842">
        <ele>898</ele>
        <time>2026-05-25T09:13:29.000Z</time>
      </trkpt>
      <trkpt lat="42.93073" lon="1.1984">
        <ele>899</ele>
        <time>2026-05-25T09:13:30.000Z</time>
      </trkpt>
      <trkpt lat="42.93072" lon="1.19837">
        <ele>900</ele>
        <time>2026-05-25T09:13:31.000Z</time>
      </trkpt>
      <trkpt lat="42.93071" lon="1.19836">
        <ele>900</ele>
        <time>2026-05-25T09:13:32.000Z</time>
      </trkpt>
      <trkpt lat="42.93069" lon="1.19834">
        <ele>901</ele>
        <time>2026-05-25T09:13:33.000Z</time>
      </trkpt>
      <trkpt lat="42.93068" lon="1.19833">
        <ele>900</ele>
        <time>2026-05-25T09:13:34.000Z</time>
      </trkpt>
      <trkpt lat="42.93067" lon="1.19831">
        <ele>901</ele>
        <time>2026-05-25T09:13:35.000Z</time>
      </trkpt>
      <trkpt lat="42.93066" lon="1.19829">
        <ele>901</ele>
        <time>2026-05-25T09:13:36.000Z</time>
      </trkpt>
      <trkpt lat="42.93065" lon="1.19827">
        <ele>901</ele>
        <time>2026-05-25T09:13:37.000Z</time>
      </trkpt>
      <trkpt lat="42.93064" lon="1.19825">
        <ele>900</ele>
        <time>2026-05-25T09:13:38.000Z</time>
      </trkpt>
      <trkpt lat="42.93064" lon="1.19822">
        <ele>901</ele>
        <time>2026-05-25T09:13:39.000Z</time>
      </trkpt>
      <trkpt lat="42.93063" lon="1.1982">
        <ele>901</ele>
        <time>2026-05-25T09:13:40.000Z</time>
      </trkpt>
      <trkpt lat="42.93063" lon="1.19818">
        <ele>902</ele>
        <time>2026-05-25T09:13:41.000Z</time>
      </trkpt>
      <trkpt lat="42.93062" lon="1.19816">
        <ele>902</ele>
        <time>2026-05-25T09:13:42.000Z</time>
      </trkpt>
      <trkpt lat="42.93062" lon="1.19814">
        <ele>903</ele>
        <time>2026-05-25T09:13:43.000Z</time>
      </trkpt>
      <trkpt lat="42.93063" lon="1.19811">
        <ele>903</ele>
        <time>2026-05-25T09:13:44.000Z</time>
      </trkpt>
      <trkpt lat="42.93063" lon="1.19808">
        <ele>904</ele>
        <time>2026-05-25T09:13:45.000Z</time>
      </trkpt>
      <trkpt lat="42.93064" lon="1.19804">
        <ele>905</ele>
        <time>2026-05-25T09:13:46.000Z</time>
      </trkpt>
      <trkpt lat="42.93064" lon="1.19801">
        <ele>905</ele>
        <time>2026-05-25T09:13:47.000Z</time>
      </trkpt>
      <trkpt lat="42.93065" lon="1.19799">
        <ele>905</ele>
        <time>2026-05-25T09:13:48.000Z</time>
      </trkpt>
      <trkpt lat="42.93066" lon="1.19796">
        <ele>906</ele>
        <time>2026-05-25T09:13:49.000Z</time>
      </trkpt>
      <trkpt lat="42.93065" lon="1.19794">
        <ele>906</ele>
        <time>2026-05-25T09:13:50.000Z</time>
      </trkpt>
      <trkpt lat="42.93065" lon="1.1979">
        <ele>906</ele>
        <time>2026-05-25T09:13:51.000Z</time>
      </trkpt>
      <trkpt lat="42.93066" lon="1.19787">
        <ele>908</ele>
        <time>2026-05-25T09:13:52.000Z</time>
      </trkpt>
      <trkpt lat="42.93066" lon="1.19784">
        <ele>909</ele>
        <time>2026-05-25T09:13:53.000Z</time>
      </trkpt>
      <trkpt lat="42.93067" lon="1.19781">
        <ele>909</ele>
        <time>2026-05-25T09:13:54.000Z</time>
      </trkpt>
      <trkpt lat="42.93068" lon="1.19778">
        <ele>908</ele>
        <time>2026-05-25T09:13:55.000Z</time>
      </trkpt>
      <trkpt lat="42.93068" lon="1.19775">
        <ele>909</ele>
        <time>2026-05-25T09:13:56.000Z</time>
      </trkpt>
      <trkpt lat="42.93067" lon="1.19773">
        <ele>908</ele>
        <time>2026-05-25T09:13:57.000Z</time>
      </trkpt>
      <trkpt lat="42.93066" lon="1.19771">
        <ele>908</ele>
        <time>2026-05-25T09:13:58.000Z</time>
      </trkpt>
      <trkpt lat="42.93065" lon="1.19768">
        <ele>907</ele>
        <time>2026-05-25T09:13:59.000Z</time>
      </trkpt>
      <trkpt lat="42.93064" lon="1.19764">
        <ele>906</ele>
        <time>2026-05-25T09:14:00.000Z</time>
      </trkpt>
      <trkpt lat="42.93064" lon="1.19761">
        <ele>907</ele>
        <time>2026-05-25T09:14:01.000Z</time>
      </trkpt>
      <trkpt lat="42.93063" lon="1.19758">
        <ele>906</ele>
        <time>2026-05-25T09:14:02.000Z</time>
      </trkpt>
      <trkpt lat="42.93063" lon="1.19755">
        <ele>905</ele>
        <time>2026-05-25T09:14:03.000Z</time>
      </trkpt>
      <trkpt lat="42.93062" lon="1.19753">
        <ele>905</ele>
        <time>2026-05-25T09:14:04.000Z</time>
      </trkpt>
      <trkpt lat="42.93061" lon="1.19749">
        <ele>904</ele>
        <time>2026-05-25T09:14:05.000Z</time>
      </trkpt>
      <trkpt lat="42.93059" lon="1.19746">
        <ele>904</ele>
        <time>2026-05-25T09:14:06.000Z</time>
      </trkpt>
      <trkpt lat="42.93057" lon="1.19743">
        <ele>904</ele>
        <time>2026-05-25T09:14:07.000Z</time>
      </trkpt>
      <trkpt lat="42.93056" lon="1.19741">
        <ele>904</ele>
        <time>2026-05-25T09:14:08.000Z</time>
      </trkpt>
      <trkpt lat="42.93054" lon="1.19739">
        <ele>903</ele>
        <time>2026-05-25T09:14:09.000Z</time>
      </trkpt>
      <trkpt lat="42.93052" lon="1.19736">
        <ele>903</ele>
        <time>2026-05-25T09:14:10.000Z</time>
      </trkpt>
      <trkpt lat="42.93049" lon="1.19733">
        <ele>903</ele>
        <time>2026-05-25T09:14:11.000Z</time>
      </trkpt>
      <trkpt lat="42.93046" lon="1.19731">
        <ele>902</ele>
        <time>2026-05-25T09:14:12.000Z</time>
      </trkpt>
      <trkpt lat="42.93045" lon="1.19728">
        <ele>903</ele>
        <time>2026-05-25T09:14:13.000Z</time>
      </trkpt>
      <trkpt lat="42.93043" lon="1.19726">
        <ele>903</ele>
        <time>2026-05-25T09:14:14.000Z</time>
      </trkpt>
      <trkpt lat="42.9304" lon="1.19724">
        <ele>902</ele>
        <time>2026-05-25T09:14:15.000Z</time>
      </trkpt>
      <trkpt lat="42.93038" lon="1.19722">
        <ele>902</ele>
        <time>2026-05-25T09:14:16.000Z</time>
      </trkpt>
      <trkpt lat="42.93035" lon="1.19719">
        <ele>902</ele>
        <time>2026-05-25T09:14:17.000Z</time>
      </trkpt>
      <trkpt lat="42.93032" lon="1.19717">
        <ele>903</ele>
        <time>2026-05-25T09:14:18.000Z</time>
      </trkpt>
      <trkpt lat="42.9303" lon="1.19715">
        <ele>902</ele>
        <time>2026-05-25T09:14:19.000Z</time>
      </trkpt>
      <trkpt lat="42.93028" lon="1.19713">
        <ele>903</ele>
        <time>2026-05-25T09:14:20.000Z</time>
      </trkpt>
      <trkpt lat="42.93026" lon="1.19712">
        <ele>904</ele>
        <time>2026-05-25T09:14:21.000Z</time>
      </trkpt>
      <trkpt lat="42.93023" lon="1.19711">
        <ele>904</ele>
        <time>2026-05-25T09:14:22.000Z</time>
      </trkpt>
      <trkpt lat="42.93021" lon="1.19709">
        <ele>904</ele>
        <time>2026-05-25T09:14:23.000Z</time>
      </trkpt>
      <trkpt lat="42.93017" lon="1.19707">
        <ele>905</ele>
        <time>2026-05-25T09:14:24.000Z</time>
      </trkpt>
      <trkpt lat="42.93014" lon="1.19704">
        <ele>904</ele>
        <time>2026-05-25T09:14:25.000Z</time>
      </trkpt>
      <trkpt lat="42.93011" lon="1.19701">
        <ele>905</ele>
        <time>2026-05-25T09:14:26.000Z</time>
      </trkpt>
      <trkpt lat="42.93008" lon="1.19699">
        <ele>904</ele>
        <time>2026-05-25T09:14:27.000Z</time>
      </trkpt>
      <trkpt lat="42.93005" lon="1.19696">
        <ele>904</ele>
        <time>2026-05-25T09:14:28.000Z</time>
      </trkpt>
      <trkpt lat="42.93002" lon="1.19693">
        <ele>904</ele>
        <time>2026-05-25T09:14:29.000Z</time>
      </trkpt>
      <trkpt lat="42.92999" lon="1.1969">
        <ele>905</ele>
        <time>2026-05-25T09:14:30.000Z</time>
      </trkpt>
      <trkpt lat="42.92997" lon="1.19687">
        <ele>905</ele>
        <time>2026-05-25T09:14:31.000Z</time>
      </trkpt>
      <trkpt lat="42.92994" lon="1.19684">
        <ele>906</ele>
        <time>2026-05-25T09:14:32.000Z</time>
      </trkpt>
      <trkpt lat="42.92992" lon="1.1968">
        <ele>906</ele>
        <time>2026-05-25T09:14:33.000Z</time>
      </trkpt>
      <trkpt lat="42.9299" lon="1.19677">
        <ele>906</ele>
        <time>2026-05-25T09:14:34.000Z</time>
      </trkpt>
      <trkpt lat="42.92987" lon="1.19674">
        <ele>906</ele>
        <time>2026-05-25T09:14:35.000Z</time>
      </trkpt>
      <trkpt lat="42.92986" lon="1.19671">
        <ele>906</ele>
        <time>2026-05-25T09:14:36.000Z</time>
      </trkpt>
      <trkpt lat="42.92986" lon="1.19666">
        <ele>906</ele>
        <time>2026-05-25T09:14:37.000Z</time>
      </trkpt>
      <trkpt lat="42.92985" lon="1.19662">
        <ele>907</ele>
        <time>2026-05-25T09:14:38.000Z</time>
      </trkpt>
      <trkpt lat="42.92986" lon="1.19658">
        <ele>907</ele>
        <time>2026-05-25T09:14:39.000Z</time>
      </trkpt>
      <trkpt lat="42.92986" lon="1.19655">
        <ele>908</ele>
        <time>2026-05-25T09:14:40.000Z</time>
      </trkpt>
      <trkpt lat="42.92987" lon="1.19651">
        <ele>909</ele>
        <time>2026-05-25T09:14:41.000Z</time>
      </trkpt>
      <trkpt lat="42.92988" lon="1.19647">
        <ele>910</ele>
        <time>2026-05-25T09:14:42.000Z</time>
      </trkpt>
      <trkpt lat="42.92989" lon="1.19641">
        <ele>911</ele>
        <time>2026-05-25T09:14:43.000Z</time>
      </trkpt>
      <trkpt lat="42.92989" lon="1.19636">
        <ele>914</ele>
        <time>2026-05-25T09:14:44.000Z</time>
      </trkpt>
      <trkpt lat="42.92989" lon="1.19632">
        <ele>915</ele>
        <time>2026-05-25T09:14:45.000Z</time>
      </trkpt>
      <trkpt lat="42.9299" lon="1.19628">
        <ele>916</ele>
        <time>2026-05-25T09:14:46.000Z</time>
      </trkpt>
      <trkpt lat="42.9299" lon="1.19624">
        <ele>918</ele>
        <time>2026-05-25T09:14:47.000Z</time>
      </trkpt>
      <trkpt lat="42.9299" lon="1.1962">
        <ele>919</ele>
        <time>2026-05-25T09:14:48.000Z</time>
      </trkpt>
      <trkpt lat="42.92991" lon="1.19616">
        <ele>921</ele>
        <time>2026-05-25T09:14:49.000Z</time>
      </trkpt>
      <trkpt lat="42.92991" lon="1.19613">
        <ele>921</ele>
        <time>2026-05-25T09:14:50.000Z</time>
      </trkpt>
      <trkpt lat="42.92992" lon="1.1961">
        <ele>922</ele>
        <time>2026-05-25T09:14:51.000Z</time>
      </trkpt>
      <trkpt lat="42.92993" lon="1.19608">
        <ele>922</ele>
        <time>2026-05-25T09:14:52.000Z</time>
      </trkpt>
      <trkpt lat="42.92993" lon="1.19603">
        <ele>923</ele>
        <time>2026-05-25T09:14:53.000Z</time>
      </trkpt>
      <trkpt lat="42.92993" lon="1.196">
        <ele>923</ele>
        <time>2026-05-25T09:14:54.000Z</time>
      </trkpt>
      <trkpt lat="42.92994" lon="1.19596">
        <ele>925</ele>
        <time>2026-05-25T09:14:55.000Z</time>
      </trkpt>
      <trkpt lat="42.92995" lon="1.19593">
        <ele>924</ele>
        <time>2026-05-25T09:14:56.000Z</time>
      </trkpt>
      <trkpt lat="42.92995" lon="1.1959">
        <ele>924</ele>
        <time>2026-05-25T09:14:57.000Z</time>
      </trkpt>
      <trkpt lat="42.92996" lon="1.19586">
        <ele>924</ele>
        <time>2026-05-25T09:14:58.000Z</time>
      </trkpt>
      <trkpt lat="42.92997" lon="1.19583">
        <ele>925</ele>
        <time>2026-05-25T09:14:59.000Z</time>
      </trkpt>
      <trkpt lat="42.92997" lon="1.19578">
        <ele>925</ele>
        <time>2026-05-25T09:15:00.000Z</time>
      </trkpt>
      <trkpt lat="42.92997" lon="1.19574">
        <ele>926</ele>
        <time>2026-05-25T09:15:01.000Z</time>
      </trkpt>
      <trkpt lat="42.92995" lon="1.19571">
        <ele>926</ele>
        <time>2026-05-25T09:15:02.000Z</time>
      </trkpt>
      <trkpt lat="42.92994" lon="1.19568">
        <ele>926</ele>
        <time>2026-05-25T09:15:03.000Z</time>
      </trkpt>
      <trkpt lat="42.92991" lon="1.19565">
        <ele>927</ele>
        <time>2026-05-25T09:15:04.000Z</time>
      </trkpt>
      <trkpt lat="42.92989" lon="1.19563">
        <ele>926</ele>
        <time>2026-05-25T09:15:05.000Z</time>
      </trkpt>
      <trkpt lat="42.92986" lon="1.19561">
        <ele>925</ele>
        <time>2026-05-25T09:15:06.000Z</time>
      </trkpt>
      <trkpt lat="42.92984" lon="1.19559">
        <ele>926</ele>
        <time>2026-05-25T09:15:07.000Z</time>
      </trkpt>
      <trkpt lat="42.92981" lon="1.19559">
        <ele>926</ele>
        <time>2026-05-25T09:15:08.000Z</time>
      </trkpt>
      <trkpt lat="42.92979" lon="1.19558">
        <ele>926</ele>
        <time>2026-05-25T09:15:09.000Z</time>
      </trkpt>
      <trkpt lat="42.92976" lon="1.19558">
        <ele>926</ele>
        <time>2026-05-25T09:15:10.000Z</time>
      </trkpt>
      <trkpt lat="42.92972" lon="1.19559">
        <ele>927</ele>
        <time>2026-05-25T09:15:11.000Z</time>
      </trkpt>
      <trkpt lat="42.92969" lon="1.19559">
        <ele>927</ele>
        <time>2026-05-25T09:15:12.000Z</time>
      </trkpt>
      <trkpt lat="42.92966" lon="1.1956">
        <ele>926</ele>
        <time>2026-05-25T09:15:13.000Z</time>
      </trkpt>
      <trkpt lat="42.92964" lon="1.19561">
        <ele>927</ele>
        <time>2026-05-25T09:15:14.000Z</time>
      </trkpt>
      <trkpt lat="42.92961" lon="1.19561">
        <ele>926</ele>
        <time>2026-05-25T09:15:15.000Z</time>
      </trkpt>
      <trkpt lat="42.92958" lon="1.19562">
        <ele>926</ele>
        <time>2026-05-25T09:15:16.000Z</time>
      </trkpt>
      <trkpt lat="42.92955" lon="1.19563">
        <ele>927</ele>
        <time>2026-05-25T09:15:17.000Z</time>
      </trkpt>
      <trkpt lat="42.92952" lon="1.19564">
        <ele>927</ele>
        <time>2026-05-25T09:15:18.000Z</time>
      </trkpt>
      <trkpt lat="42.92949" lon="1.19565">
        <ele>927</ele>
        <time>2026-05-25T09:15:19.000Z</time>
      </trkpt>
      <trkpt lat="42.92945" lon="1.19567">
        <ele>928</ele>
        <time>2026-05-25T09:15:20.000Z</time>
      </trkpt>
      <trkpt lat="42.92942" lon="1.19568">
        <ele>928</ele>
        <time>2026-05-25T09:15:21.000Z</time>
      </trkpt>
      <trkpt lat="42.92939" lon="1.19569">
        <ele>928</ele>
        <time>2026-05-25T09:15:22.000Z</time>
      </trkpt>
      <trkpt lat="42.92935" lon="1.19571">
        <ele>929</ele>
        <time>2026-05-25T09:15:23.000Z</time>
      </trkpt>
      <trkpt lat="42.92932" lon="1.19572">
        <ele>929</ele>
        <time>2026-05-25T09:15:24.000Z</time>
      </trkpt>
      <trkpt lat="42.92929" lon="1.19574">
        <ele>929</ele>
        <time>2026-05-25T09:15:25.000Z</time>
      </trkpt>
      <trkpt lat="42.92927" lon="1.19575">
        <ele>930</ele>
        <time>2026-05-25T09:15:26.000Z</time>
      </trkpt>
      <trkpt lat="42.92924" lon="1.19577">
        <ele>930</ele>
        <time>2026-05-25T09:15:27.000Z</time>
      </trkpt>
      <trkpt lat="42.92921" lon="1.19579">
        <ele>930</ele>
        <time>2026-05-25T09:15:28.000Z</time>
      </trkpt>
      <trkpt lat="42.92919" lon="1.1958">
        <ele>930</ele>
        <time>2026-05-25T09:15:29.000Z</time>
      </trkpt>
      <trkpt lat="42.92917" lon="1.19581">
        <ele>931</ele>
        <time>2026-05-25T09:15:30.000Z</time>
      </trkpt>
      <trkpt lat="42.92915" lon="1.19582">
        <ele>931</ele>
        <time>2026-05-25T09:15:31.000Z</time>
      </trkpt>
      <trkpt lat="42.92912" lon="1.19584">
        <ele>931</ele>
        <time>2026-05-25T09:15:32.000Z</time>
      </trkpt>
      <trkpt lat="42.92909" lon="1.19585">
        <ele>931</ele>
        <time>2026-05-25T09:15:33.000Z</time>
      </trkpt>
      <trkpt lat="42.92907" lon="1.19586">
        <ele>931</ele>
        <time>2026-05-25T09:15:34.000Z</time>
      </trkpt>
      <trkpt lat="42.92904" lon="1.19588">
        <ele>931</ele>
        <time>2026-05-25T09:15:35.000Z</time>
      </trkpt>
      <trkpt lat="42.92902" lon="1.19589">
        <ele>932</ele>
        <time>2026-05-25T09:15:36.000Z</time>
      </trkpt>
      <trkpt lat="42.92899" lon="1.19591">
        <ele>932</ele>
        <time>2026-05-25T09:15:37.000Z</time>
      </trkpt>
      <trkpt lat="42.92896" lon="1.19593">
        <ele>932</ele>
        <time>2026-05-25T09:15:38.000Z</time>
      </trkpt>
      <trkpt lat="42.92894" lon="1.19595">
        <ele>932</ele>
        <time>2026-05-25T09:15:39.000Z</time>
      </trkpt>
      <trkpt lat="42.92892" lon="1.19596">
        <ele>932</ele>
        <time>2026-05-25T09:15:40.000Z</time>
      </trkpt>
      <trkpt lat="42.9289" lon="1.19597">
        <ele>932</ele>
        <time>2026-05-25T09:15:41.000Z</time>
      </trkpt>
      <trkpt lat="42.92888" lon="1.19598">
        <ele>932</ele>
        <time>2026-05-25T09:15:42.000Z</time>
      </trkpt>
      <trkpt lat="42.92886" lon="1.196">
        <ele>932</ele>
        <time>2026-05-25T09:15:43.000Z</time>
      </trkpt>
      <trkpt lat="42.92883" lon="1.19601">
        <ele>933</ele>
        <time>2026-05-25T09:15:44.000Z</time>
      </trkpt>
      <trkpt lat="42.92881" lon="1.19603">
        <ele>933</ele>
        <time>2026-05-25T09:15:45.000Z</time>
      </trkpt>
      <trkpt lat="42.92879" lon="1.19606">
        <ele>934</ele>
        <time>2026-05-25T09:15:46.000Z</time>
      </trkpt>
      <trkpt lat="42.92877" lon="1.19608">
        <ele>934</ele>
        <time>2026-05-25T09:15:47.000Z</time>
      </trkpt>
      <trkpt lat="42.92875" lon="1.1961">
        <ele>935</ele>
        <time>2026-05-25T09:15:48.000Z</time>
      </trkpt>
      <trkpt lat="42.92873" lon="1.19612">
        <ele>935</ele>
        <time>2026-05-25T09:15:49.000Z</time>
      </trkpt>
      <trkpt lat="42.92871" lon="1.19615">
        <ele>935</ele>
        <time>2026-05-25T09:15:50.000Z</time>
      </trkpt>
      <trkpt lat="42.9287" lon="1.19618">
        <ele>935</ele>
        <time>2026-05-25T09:15:51.000Z</time>
      </trkpt>
      <trkpt lat="42.92868" lon="1.19621">
        <ele>936</ele>
        <time>2026-05-25T09:15:52.000Z</time>
      </trkpt>
      <trkpt lat="42.92866" lon="1.19624">
        <ele>936</ele>
        <time>2026-05-25T09:15:53.000Z</time>
      </trkpt>
      <trkpt lat="42.92864" lon="1.19627">
        <ele>936</ele>
        <time>2026-05-25T09:15:54.000Z</time>
      </trkpt>
      <trkpt lat="42.92862" lon="1.19629">
        <ele>937</ele>
        <time>2026-05-25T09:15:55.000Z</time>
      </trkpt>
      <trkpt lat="42.92861" lon="1.19633">
        <ele>937</ele>
        <time>2026-05-25T09:15:56.000Z</time>
      </trkpt>
      <trkpt lat="42.92859" lon="1.19635">
        <ele>937</ele>
        <time>2026-05-25T09:15:57.000Z</time>
      </trkpt>
      <trkpt lat="42.92857" lon="1.19638">
        <ele>938</ele>
        <time>2026-05-25T09:15:58.000Z</time>
      </trkpt>
      <trkpt lat="42.92856" lon="1.19642">
        <ele>938</ele>
        <time>2026-05-25T09:15:59.000Z</time>
      </trkpt>
      <trkpt lat="42.92855" lon="1.19644">
        <ele>938</ele>
        <time>2026-05-25T09:16:00.000Z</time>
      </trkpt>
      <trkpt lat="42.92852" lon="1.19646">
        <ele>939</ele>
        <time>2026-05-25T09:16:01.000Z</time>
      </trkpt>
      <trkpt lat="42.9285" lon="1.19648">
        <ele>939</ele>
        <time>2026-05-25T09:16:02.000Z</time>
      </trkpt>
      <trkpt lat="42.92848" lon="1.19651">
        <ele>939</ele>
        <time>2026-05-25T09:16:03.000Z</time>
      </trkpt>
      <trkpt lat="42.92846" lon="1.19653">
        <ele>939</ele>
        <time>2026-05-25T09:16:04.000Z</time>
      </trkpt>
      <trkpt lat="42.92844" lon="1.19656">
        <ele>939</ele>
        <time>2026-05-25T09:16:05.000Z</time>
      </trkpt>
      <trkpt lat="42.92842" lon="1.19658">
        <ele>939</ele>
        <time>2026-05-25T09:16:06.000Z</time>
      </trkpt>
      <trkpt lat="42.92839" lon="1.1966">
        <ele>940</ele>
        <time>2026-05-25T09:16:07.000Z</time>
      </trkpt>
      <trkpt lat="42.92837" lon="1.19662">
        <ele>939</ele>
        <time>2026-05-25T09:16:08.000Z</time>
      </trkpt>
      <trkpt lat="42.92835" lon="1.19664">
        <ele>940</ele>
        <time>2026-05-25T09:16:09.000Z</time>
      </trkpt>
      <trkpt lat="42.92833" lon="1.19667">
        <ele>940</ele>
        <time>2026-05-25T09:16:10.000Z</time>
      </trkpt>
      <trkpt lat="42.92831" lon="1.1967">
        <ele>941</ele>
        <time>2026-05-25T09:16:11.000Z</time>
      </trkpt>
      <trkpt lat="42.92829" lon="1.19672">
        <ele>941</ele>
        <time>2026-05-25T09:16:12.000Z</time>
      </trkpt>
      <trkpt lat="42.92828" lon="1.19675">
        <ele>942</ele>
        <time>2026-05-25T09:16:13.000Z</time>
      </trkpt>
      <trkpt lat="42.92826" lon="1.19678">
        <ele>942</ele>
        <time>2026-05-25T09:16:14.000Z</time>
      </trkpt>
      <trkpt lat="42.92825" lon="1.19681">
        <ele>942</ele>
        <time>2026-05-25T09:16:15.000Z</time>
      </trkpt>
      <trkpt lat="42.92823" lon="1.19683">
        <ele>943</ele>
        <time>2026-05-25T09:16:16.000Z</time>
      </trkpt>
      <trkpt lat="42.92821" lon="1.19686">
        <ele>943</ele>
        <time>2026-05-25T09:16:17.000Z</time>
      </trkpt>
      <trkpt lat="42.9282" lon="1.19688">
        <ele>944</ele>
        <time>2026-05-25T09:16:18.000Z</time>
      </trkpt>
      <trkpt lat="42.92818" lon="1.19689">
        <ele>945</ele>
        <time>2026-05-25T09:16:19.000Z</time>
      </trkpt>
      <trkpt lat="42.92816" lon="1.19691">
        <ele>945</ele>
        <time>2026-05-25T09:16:20.000Z</time>
      </trkpt>
      <trkpt lat="42.92815" lon="1.19694">
        <ele>944</ele>
        <time>2026-05-25T09:16:21.000Z</time>
      </trkpt>
      <trkpt lat="42.92813" lon="1.19696">
        <ele>945</ele>
        <time>2026-05-25T09:16:22.000Z</time>
      </trkpt>
      <trkpt lat="42.92811" lon="1.19699">
        <ele>946</ele>
        <time>2026-05-25T09:16:23.000Z</time>
      </trkpt>
      <trkpt lat="42.92809" lon="1.19702">
        <ele>946</ele>
        <time>2026-05-25T09:16:24.000Z</time>
      </trkpt>
      <trkpt lat="42.92807" lon="1.19704">
        <ele>947</ele>
        <time>2026-05-25T09:16:25.000Z</time>
      </trkpt>
      <trkpt lat="42.92805" lon="1.19706">
        <ele>947</ele>
        <time>2026-05-25T09:16:26.000Z</time>
      </trkpt>
      <trkpt lat="42.92804" lon="1.19709">
        <ele>948</ele>
        <time>2026-05-25T09:16:27.000Z</time>
      </trkpt>
      <trkpt lat="42.92801" lon="1.19712">
        <ele>948</ele>
        <time>2026-05-25T09:16:28.000Z</time>
      </trkpt>
      <trkpt lat="42.92799" lon="1.19714">
        <ele>949</ele>
        <time>2026-05-25T09:16:29.000Z</time>
      </trkpt>
      <trkpt lat="42.92798" lon="1.19716">
        <ele>949</ele>
        <time>2026-05-25T09:16:30.000Z</time>
      </trkpt>
      <trkpt lat="42.92796" lon="1.19719">
        <ele>949</ele>
        <time>2026-05-25T09:16:31.000Z</time>
      </trkpt>
      <trkpt lat="42.92795" lon="1.19721">
        <ele>949</ele>
        <time>2026-05-25T09:16:32.000Z</time>
      </trkpt>
      <trkpt lat="42.92793" lon="1.19723">
        <ele>949</ele>
        <time>2026-05-25T09:16:33.000Z</time>
      </trkpt>
      <trkpt lat="42.92791" lon="1.19725">
        <ele>950</ele>
        <time>2026-05-25T09:16:34.000Z</time>
      </trkpt>
      <trkpt lat="42.92789" lon="1.19727">
        <ele>950</ele>
        <time>2026-05-25T09:16:35.000Z</time>
      </trkpt>
      <trkpt lat="42.92788" lon="1.19731">
        <ele>950</ele>
        <time>2026-05-25T09:16:36.000Z</time>
      </trkpt>
      <trkpt lat="42.92786" lon="1.19733">
        <ele>950</ele>
        <time>2026-05-25T09:16:37.000Z</time>
      </trkpt>
      <trkpt lat="42.92784" lon="1.19736">
        <ele>951</ele>
        <time>2026-05-25T09:16:38.000Z</time>
      </trkpt>
      <trkpt lat="42.92783" lon="1.19738">
        <ele>951</ele>
        <time>2026-05-25T09:16:39.000Z</time>
      </trkpt>
      <trkpt lat="42.92781" lon="1.19741">
        <ele>952</ele>
        <time>2026-05-25T09:16:40.000Z</time>
      </trkpt>
      <trkpt lat="42.9278" lon="1.19743">
        <ele>953</ele>
        <time>2026-05-25T09:16:41.000Z</time>
      </trkpt>
      <trkpt lat="42.92778" lon="1.19746">
        <ele>953</ele>
        <time>2026-05-25T09:16:42.000Z</time>
      </trkpt>
      <trkpt lat="42.92776" lon="1.19749">
        <ele>952</ele>
        <time>2026-05-25T09:16:43.000Z</time>
      </trkpt>
      <trkpt lat="42.92774" lon="1.19752">
        <ele>953</ele>
        <time>2026-05-25T09:16:44.000Z</time>
      </trkpt>
      <trkpt lat="42.92772" lon="1.19755">
        <ele>953</ele>
        <time>2026-05-25T09:16:45.000Z</time>
      </trkpt>
      <trkpt lat="42.92771" lon="1.19758">
        <ele>953</ele>
        <time>2026-05-25T09:16:46.000Z</time>
      </trkpt>
      <trkpt lat="42.92769" lon="1.19761">
        <ele>953</ele>
        <time>2026-05-25T09:16:47.000Z</time>
      </trkpt>
      <trkpt lat="42.92768" lon="1.19764">
        <ele>953</ele>
        <time>2026-05-25T09:16:48.000Z</time>
      </trkpt>
      <trkpt lat="42.92767" lon="1.19768">
        <ele>954</ele>
        <time>2026-05-25T09:16:49.000Z</time>
      </trkpt>
      <trkpt lat="42.92767" lon="1.19771">
        <ele>954</ele>
        <time>2026-05-25T09:16:50.000Z</time>
      </trkpt>
      <trkpt lat="42.92766" lon="1.19775">
        <ele>954</ele>
        <time>2026-05-25T09:16:51.000Z</time>
      </trkpt>
      <trkpt lat="42.92766" lon="1.19779">
        <ele>954</ele>
        <time>2026-05-25T09:16:52.000Z</time>
      </trkpt>
      <trkpt lat="42.92766" lon="1.19783">
        <ele>955</ele>
        <time>2026-05-25T09:16:53.000Z</time>
      </trkpt>
      <trkpt lat="42.92765" lon="1.19787">
        <ele>954</ele>
        <time>2026-05-25T09:16:54.000Z</time>
      </trkpt>
      <trkpt lat="42.92764" lon="1.19791">
        <ele>955</ele>
        <time>2026-05-25T09:16:55.000Z</time>
      </trkpt>
      <trkpt lat="42.92763" lon="1.19794">
        <ele>955</ele>
        <time>2026-05-25T09:16:56.000Z</time>
      </trkpt>
      <trkpt lat="42.92763" lon="1.19797">
        <ele>955</ele>
        <time>2026-05-25T09:16:57.000Z</time>
      </trkpt>
      <trkpt lat="42.92762" lon="1.19801">
        <ele>955</ele>
        <time>2026-05-25T09:16:58.000Z</time>
      </trkpt>
      <trkpt lat="42.92762" lon="1.19805">
        <ele>955</ele>
        <time>2026-05-25T09:16:59.000Z</time>
      </trkpt>
      <trkpt lat="42.92761" lon="1.19808">
        <ele>956</ele>
        <time>2026-05-25T09:17:00.000Z</time>
      </trkpt>
      <trkpt lat="42.9276" lon="1.19812">
        <ele>957</ele>
        <time>2026-05-25T09:17:01.000Z</time>
      </trkpt>
      <trkpt lat="42.92758" lon="1.19816">
        <ele>957</ele>
        <time>2026-05-25T09:17:02.000Z</time>
      </trkpt>
      <trkpt lat="42.92756" lon="1.19818">
        <ele>957</ele>
        <time>2026-05-25T09:17:03.000Z</time>
      </trkpt>
      <trkpt lat="42.92755" lon="1.19821">
        <ele>957</ele>
        <time>2026-05-25T09:17:04.000Z</time>
      </trkpt>
      <trkpt lat="42.92754" lon="1.19825">
        <ele>957</ele>
        <time>2026-05-25T09:17:05.000Z</time>
      </trkpt>
      <trkpt lat="42.92753" lon="1.19827">
        <ele>957</ele>
        <time>2026-05-25T09:17:06.000Z</time>
      </trkpt>
      <trkpt lat="42.92753" lon="1.19829">
        <ele>958</ele>
        <time>2026-05-25T09:17:07.000Z</time>
      </trkpt>
      <trkpt lat="42.92752" lon="1.19832">
        <ele>957</ele>
        <time>2026-05-25T09:17:08.000Z</time>
      </trkpt>
      <trkpt lat="42.92751" lon="1.19835">
        <ele>957</ele>
        <time>2026-05-25T09:17:09.000Z</time>
      </trkpt>
      <trkpt lat="42.9275" lon="1.19838">
        <ele>958</ele>
        <time>2026-05-25T09:17:10.000Z</time>
      </trkpt>
      <trkpt lat="42.92749" lon="1.1984">
        <ele>958</ele>
        <time>2026-05-25T09:17:11.000Z</time>
      </trkpt>
      <trkpt lat="42.92748" lon="1.19843">
        <ele>958</ele>
        <time>2026-05-25T09:17:12.000Z</time>
      </trkpt>
      <trkpt lat="42.92746" lon="1.19847">
        <ele>958</ele>
        <time>2026-05-25T09:17:13.000Z</time>
      </trkpt>
      <trkpt lat="42.92745" lon="1.19851">
        <ele>959</ele>
        <time>2026-05-25T09:17:14.000Z</time>
      </trkpt>
      <trkpt lat="42.92744" lon="1.19855">
        <ele>959</ele>
        <time>2026-05-25T09:17:15.000Z</time>
      </trkpt>
      <trkpt lat="42.92742" lon="1.19859">
        <ele>959</ele>
        <time>2026-05-25T09:17:16.000Z</time>
      </trkpt>
      <trkpt lat="42.92742" lon="1.19863">
        <ele>959</ele>
        <time>2026-05-25T09:17:17.000Z</time>
      </trkpt>
      <trkpt lat="42.92741" lon="1.19866">
        <ele>958</ele>
        <time>2026-05-25T09:17:18.000Z</time>
      </trkpt>
      <trkpt lat="42.9274" lon="1.1987">
        <ele>959</ele>
        <time>2026-05-25T09:17:19.000Z</time>
      </trkpt>
      <trkpt lat="42.92739" lon="1.19872">
        <ele>959</ele>
        <time>2026-05-25T09:17:20.000Z</time>
      </trkpt>
      <trkpt lat="42.92737" lon="1.19875">
        <ele>960</ele>
        <time>2026-05-25T09:17:21.000Z</time>
      </trkpt>
      <trkpt lat="42.92736" lon="1.19878">
        <ele>960</ele>
        <time>2026-05-25T09:17:22.000Z</time>
      </trkpt>
      <trkpt lat="42.92735" lon="1.19881">
        <ele>960</ele>
        <time>2026-05-25T09:17:23.000Z</time>
      </trkpt>
      <trkpt lat="42.92733" lon="1.19884">
        <ele>960</ele>
        <time>2026-05-25T09:17:24.000Z</time>
      </trkpt>
      <trkpt lat="42.92732" lon="1.19887">
        <ele>961</ele>
        <time>2026-05-25T09:17:25.000Z</time>
      </trkpt>
      <trkpt lat="42.92731" lon="1.1989">
        <ele>960</ele>
        <time>2026-05-25T09:17:26.000Z</time>
      </trkpt>
      <trkpt lat="42.9273" lon="1.19892">
        <ele>961</ele>
        <time>2026-05-25T09:17:27.000Z</time>
      </trkpt>
      <trkpt lat="42.92728" lon="1.19895">
        <ele>961</ele>
        <time>2026-05-25T09:17:28.000Z</time>
      </trkpt>
      <trkpt lat="42.92727" lon="1.19898">
        <ele>962</ele>
        <time>2026-05-25T09:17:29.000Z</time>
      </trkpt>
      <trkpt lat="42.92726" lon="1.19901">
        <ele>962</ele>
        <time>2026-05-25T09:17:30.000Z</time>
      </trkpt>
      <trkpt lat="42.92725" lon="1.19905">
        <ele>962</ele>
        <time>2026-05-25T09:17:31.000Z</time>
      </trkpt>
      <trkpt lat="42.92724" lon="1.19908">
        <ele>962</ele>
        <time>2026-05-25T09:17:32.000Z</time>
      </trkpt>
      <trkpt lat="42.92724" lon="1.19911">
        <ele>962</ele>
        <time>2026-05-25T09:17:33.000Z</time>
      </trkpt>
      <trkpt lat="42.92722" lon="1.19915">
        <ele>962</ele>
        <time>2026-05-25T09:17:34.000Z</time>
      </trkpt>
      <trkpt lat="42.92721" lon="1.19918">
        <ele>963</ele>
        <time>2026-05-25T09:17:35.000Z</time>
      </trkpt>
      <trkpt lat="42.9272" lon="1.19921">
        <ele>962</ele>
        <time>2026-05-25T09:17:36.000Z</time>
      </trkpt>
      <trkpt lat="42.92719" lon="1.19925">
        <ele>963</ele>
        <time>2026-05-25T09:17:37.000Z</time>
      </trkpt>
      <trkpt lat="42.92718" lon="1.19928">
        <ele>963</ele>
        <time>2026-05-25T09:17:38.000Z</time>
      </trkpt>
      <trkpt lat="42.92717" lon="1.19931">
        <ele>964</ele>
        <time>2026-05-25T09:17:39.000Z</time>
      </trkpt>
      <trkpt lat="42.92715" lon="1.19933">
        <ele>964</ele>
        <time>2026-05-25T09:17:40.000Z</time>
      </trkpt>
      <trkpt lat="42.92713" lon="1.19936">
        <ele>964</ele>
        <time>2026-05-25T09:17:41.000Z</time>
      </trkpt>
      <trkpt lat="42.92711" lon="1.19938">
        <ele>965</ele>
        <time>2026-05-25T09:17:42.000Z</time>
      </trkpt>
      <trkpt lat="42.92709" lon="1.19941">
        <ele>965</ele>
        <time>2026-05-25T09:17:43.000Z</time>
      </trkpt>
      <trkpt lat="42.92708" lon="1.19944">
        <ele>965</ele>
        <time>2026-05-25T09:17:44.000Z</time>
      </trkpt>
      <trkpt lat="42.92707" lon="1.19947">
        <ele>965</ele>
        <time>2026-05-25T09:17:45.000Z</time>
      </trkpt>
      <trkpt lat="42.92705" lon="1.1995">
        <ele>966</ele>
        <time>2026-05-25T09:17:46.000Z</time>
      </trkpt>
      <trkpt lat="42.92704" lon="1.19953">
        <ele>967</ele>
        <time>2026-05-25T09:17:47.000Z</time>
      </trkpt>
      <trkpt lat="42.92703" lon="1.19956">
        <ele>967</ele>
        <time>2026-05-25T09:17:48.000Z</time>
      </trkpt>
      <trkpt lat="42.92702" lon="1.19959">
        <ele>968</ele>
        <time>2026-05-25T09:17:49.000Z</time>
      </trkpt>
      <trkpt lat="42.92701" lon="1.19962">
        <ele>967</ele>
        <time>2026-05-25T09:17:50.000Z</time>
      </trkpt>
      <trkpt lat="42.92699" lon="1.19966">
        <ele>968</ele>
        <time>2026-05-25T09:17:51.000Z</time>
      </trkpt>
      <trkpt lat="42.92698" lon="1.19968">
        <ele>969</ele>
        <time>2026-05-25T09:17:52.000Z</time>
      </trkpt>
      <trkpt lat="42.92697" lon="1.19971">
        <ele>969</ele>
        <time>2026-05-25T09:17:53.000Z</time>
      </trkpt>
      <trkpt lat="42.92696" lon="1.19974">
        <ele>969</ele>
        <time>2026-05-25T09:17:54.000Z</time>
      </trkpt>
      <trkpt lat="42.92695" lon="1.19976">
        <ele>970</ele>
        <time>2026-05-25T09:17:55.000Z</time>
      </trkpt>
      <trkpt lat="42.92694" lon="1.19979">
        <ele>970</ele>
        <time>2026-05-25T09:17:56.000Z</time>
      </trkpt>
      <trkpt lat="42.92694" lon="1.19983">
        <ele>970</ele>
        <time>2026-05-25T09:17:57.000Z</time>
      </trkpt>
      <trkpt lat="42.92694" lon="1.19986">
        <ele>971</ele>
        <time>2026-05-25T09:17:58.000Z</time>
      </trkpt>
      <trkpt lat="42.92693" lon="1.1999">
        <ele>971</ele>
        <time>2026-05-25T09:17:59.000Z</time>
      </trkpt>
      <trkpt lat="42.92693" lon="1.19993">
        <ele>971</ele>
        <time>2026-05-25T09:18:00.000Z</time>
      </trkpt>
      <trkpt lat="42.92693" lon="1.19997">
        <ele>971</ele>
        <time>2026-05-25T09:18:01.000Z</time>
      </trkpt>
      <trkpt lat="42.92693" lon="1.2">
        <ele>972</ele>
        <time>2026-05-25T09:18:02.000Z</time>
      </trkpt>
      <trkpt lat="42.92692" lon="1.20004">
        <ele>972</ele>
        <time>2026-05-25T09:18:03.000Z</time>
      </trkpt>
      <trkpt lat="42.92692" lon="1.20007">
        <ele>972</ele>
        <time>2026-05-25T09:18:04.000Z</time>
      </trkpt>
      <trkpt lat="42.92692" lon="1.20009">
        <ele>972</ele>
        <time>2026-05-25T09:18:05.000Z</time>
      </trkpt>
      <trkpt lat="42.92693" lon="1.20012">
        <ele>972</ele>
        <time>2026-05-25T09:18:06.000Z</time>
      </trkpt>
      <trkpt lat="42.92693" lon="1.20015">
        <ele>973</ele>
        <time>2026-05-25T09:18:07.000Z</time>
      </trkpt>
      <trkpt lat="42.92694" lon="1.20018">
        <ele>973</ele>
        <time>2026-05-25T09:18:08.000Z</time>
      </trkpt>
      <trkpt lat="42.92694" lon="1.20022">
        <ele>973</ele>
        <time>2026-05-25T09:18:09.000Z</time>
      </trkpt>
      <trkpt lat="42.92695" lon="1.20025">
        <ele>974</ele>
        <time>2026-05-25T09:18:10.000Z</time>
      </trkpt>
      <trkpt lat="42.92697" lon="1.20029">
        <ele>974</ele>
        <time>2026-05-25T09:18:11.000Z</time>
      </trkpt>
      <trkpt lat="42.92698" lon="1.20031">
        <ele>974</ele>
        <time>2026-05-25T09:18:12.000Z</time>
      </trkpt>
      <trkpt lat="42.92698" lon="1.20034">
        <ele>974</ele>
        <time>2026-05-25T09:18:13.000Z</time>
      </trkpt>
      <trkpt lat="42.92699" lon="1.20037">
        <ele>974</ele>
        <time>2026-05-25T09:18:14.000Z</time>
      </trkpt>
      <trkpt lat="42.92699" lon="1.2004">
        <ele>974</ele>
        <time>2026-05-25T09:18:15.000Z</time>
      </trkpt>
      <trkpt lat="42.92699" lon="1.20043">
        <ele>975</ele>
        <time>2026-05-25T09:18:16.000Z</time>
      </trkpt>
      <trkpt lat="42.927" lon="1.20046">
        <ele>975</ele>
        <time>2026-05-25T09:18:17.000Z</time>
      </trkpt>
      <trkpt lat="42.92701" lon="1.20049">
        <ele>975</ele>
        <time>2026-05-25T09:18:18.000Z</time>
      </trkpt>
      <trkpt lat="42.92702" lon="1.20052">
        <ele>975</ele>
        <time>2026-05-25T09:18:19.000Z</time>
      </trkpt>
      <trkpt lat="42.92704" lon="1.20055">
        <ele>976</ele>
        <time>2026-05-25T09:18:20.000Z</time>
      </trkpt>
      <trkpt lat="42.92705" lon="1.20057">
        <ele>976</ele>
        <time>2026-05-25T09:18:21.000Z</time>
      </trkpt>
      <trkpt lat="42.92705" lon="1.2006">
        <ele>977</ele>
        <time>2026-05-25T09:18:22.000Z</time>
      </trkpt>
      <trkpt lat="42.92706" lon="1.20064">
        <ele>977</ele>
        <time>2026-05-25T09:18:23.000Z</time>
      </trkpt>
      <trkpt lat="42.92707" lon="1.20067">
        <ele>976</ele>
        <time>2026-05-25T09:18:24.000Z</time>
      </trkpt>
      <trkpt lat="42.92707" lon="1.20071">
        <ele>976</ele>
        <time>2026-05-25T09:18:25.000Z</time>
      </trkpt>
      <trkpt lat="42.92708" lon="1.20074">
        <ele>977</ele>
        <time>2026-05-25T09:18:26.000Z</time>
      </trkpt>
      <trkpt lat="42.92708" lon="1.20078">
        <ele>977</ele>
        <time>2026-05-25T09:18:27.000Z</time>
      </trkpt>
      <trkpt lat="42.92708" lon="1.20081">
        <ele>977</ele>
        <time>2026-05-25T09:18:28.000Z</time>
      </trkpt>
      <trkpt lat="42.92708" lon="1.20085">
        <ele>977</ele>
        <time>2026-05-25T09:18:29.000Z</time>
      </trkpt>
      <trkpt lat="42.92708" lon="1.20089">
        <ele>978</ele>
        <time>2026-05-25T09:18:30.000Z</time>
      </trkpt>
      <trkpt lat="42.92707" lon="1.20092">
        <ele>978</ele>
        <time>2026-05-25T09:18:31.000Z</time>
      </trkpt>
      <trkpt lat="42.92707" lon="1.20096">
        <ele>978</ele>
        <time>2026-05-25T09:18:32.000Z</time>
      </trkpt>
      <trkpt lat="42.92706" lon="1.20099">
        <ele>979</ele>
        <time>2026-05-25T09:18:33.000Z</time>
      </trkpt>
      <trkpt lat="42.92705" lon="1.20103">
        <ele>979</ele>
        <time>2026-05-25T09:18:34.000Z</time>
      </trkpt>
      <trkpt lat="42.92705" lon="1.20106">
        <ele>979</ele>
        <time>2026-05-25T09:18:35.000Z</time>
      </trkpt>
      <trkpt lat="42.92704" lon="1.20109">
        <ele>979</ele>
        <time>2026-05-25T09:18:36.000Z</time>
      </trkpt>
      <trkpt lat="42.92703" lon="1.20112">
        <ele>980</ele>
        <time>2026-05-25T09:18:37.000Z</time>
      </trkpt>
      <trkpt lat="42.92702" lon="1.20115">
        <ele>980</ele>
        <time>2026-05-25T09:18:38.000Z</time>
      </trkpt>
      <trkpt lat="42.92701" lon="1.20118">
        <ele>980</ele>
        <time>2026-05-25T09:18:39.000Z</time>
      </trkpt>
      <trkpt lat="42.92699" lon="1.20122">
        <ele>980</ele>
        <time>2026-05-25T09:18:40.000Z</time>
      </trkpt>
      <trkpt lat="42.92699" lon="1.20125">
        <ele>981</ele>
        <time>2026-05-25T09:18:41.000Z</time>
      </trkpt>
      <trkpt lat="42.92698" lon="1.20129">
        <ele>981</ele>
        <time>2026-05-25T09:18:42.000Z</time>
      </trkpt>
      <trkpt lat="42.92696" lon="1.20133">
        <ele>981</ele>
        <time>2026-05-25T09:18:43.000Z</time>
      </trkpt>
      <trkpt lat="42.92695" lon="1.20136">
        <ele>982</ele>
        <time>2026-05-25T09:18:44.000Z</time>
      </trkpt>
      <trkpt lat="42.92695" lon="1.20139">
        <ele>983</ele>
        <time>2026-05-25T09:18:45.000Z</time>
      </trkpt>
      <trkpt lat="42.92693" lon="1.20142">
        <ele>983</ele>
        <time>2026-05-25T09:18:46.000Z</time>
      </trkpt>
      <trkpt lat="42.92692" lon="1.20145">
        <ele>983</ele>
        <time>2026-05-25T09:18:47.000Z</time>
      </trkpt>
      <trkpt lat="42.92691" lon="1.20149">
        <ele>983</ele>
        <time>2026-05-25T09:18:48.000Z</time>
      </trkpt>
      <trkpt lat="42.9269" lon="1.20152">
        <ele>983</ele>
        <time>2026-05-25T09:18:49.000Z</time>
      </trkpt>
      <trkpt lat="42.92689" lon="1.20155">
        <ele>984</ele>
        <time>2026-05-25T09:18:50.000Z</time>
      </trkpt>
      <trkpt lat="42.92688" lon="1.20158">
        <ele>984</ele>
        <time>2026-05-25T09:18:51.000Z</time>
      </trkpt>
      <trkpt lat="42.92687" lon="1.20161">
        <ele>984</ele>
        <time>2026-05-25T09:18:52.000Z</time>
      </trkpt>
      <trkpt lat="42.92687" lon="1.20164">
        <ele>985</ele>
        <time>2026-05-25T09:18:53.000Z</time>
      </trkpt>
      <trkpt lat="42.92687" lon="1.20166">
        <ele>985</ele>
        <time>2026-05-25T09:18:54.000Z</time>
      </trkpt>
      <trkpt lat="42.92686" lon="1.2017">
        <ele>985</ele>
        <time>2026-05-25T09:18:55.000Z</time>
      </trkpt>
      <trkpt lat="42.92686" lon="1.20173">
        <ele>985</ele>
        <time>2026-05-25T09:18:56.000Z</time>
      </trkpt>
      <trkpt lat="42.92686" lon="1.20176">
        <ele>986</ele>
        <time>2026-05-25T09:18:57.000Z</time>
      </trkpt>
      <trkpt lat="42.92686" lon="1.20179">
        <ele>986</ele>
        <time>2026-05-25T09:18:58.000Z</time>
      </trkpt>
      <trkpt lat="42.92686" lon="1.20183">
        <ele>987</ele>
        <time>2026-05-25T09:18:59.000Z</time>
      </trkpt>
      <trkpt lat="42.92687" lon="1.20186">
        <ele>987</ele>
        <time>2026-05-25T09:19:00.000Z</time>
      </trkpt>
      <trkpt lat="42.92688" lon="1.20189">
        <ele>987</ele>
        <time>2026-05-25T09:19:01.000Z</time>
      </trkpt>
      <trkpt lat="42.92689" lon="1.20192">
        <ele>987</ele>
        <time>2026-05-25T09:19:02.000Z</time>
      </trkpt>
      <trkpt lat="42.92691" lon="1.20194">
        <ele>987</ele>
        <time>2026-05-25T09:19:03.000Z</time>
      </trkpt>
      <trkpt lat="42.92693" lon="1.20197">
        <ele>987</ele>
        <time>2026-05-25T09:19:04.000Z</time>
      </trkpt>
      <trkpt lat="42.92694" lon="1.20199">
        <ele>988</ele>
        <time>2026-05-25T09:19:05.000Z</time>
      </trkpt>
      <trkpt lat="42.92696" lon="1.202">
        <ele>988</ele>
        <time>2026-05-25T09:19:06.000Z</time>
      </trkpt>
      <trkpt lat="42.92699" lon="1.20201">
        <ele>989</ele>
        <time>2026-05-25T09:19:07.000Z</time>
      </trkpt>
      <trkpt lat="42.92701" lon="1.20202">
        <ele>989</ele>
        <time>2026-05-25T09:19:08.000Z</time>
      </trkpt>
      <trkpt lat="42.92703" lon="1.20203">
        <ele>989</ele>
        <time>2026-05-25T09:19:09.000Z</time>
      </trkpt>
      <trkpt lat="42.92706" lon="1.20204">
        <ele>989</ele>
        <time>2026-05-25T09:19:10.000Z</time>
      </trkpt>
      <trkpt lat="42.92708" lon="1.20205">
        <ele>989</ele>
        <time>2026-05-25T09:19:11.000Z</time>
      </trkpt>
      <trkpt lat="42.9271" lon="1.20206">
        <ele>989</ele>
        <time>2026-05-25T09:19:12.000Z</time>
      </trkpt>
      <trkpt lat="42.92712" lon="1.20207">
        <ele>990</ele>
        <time>2026-05-25T09:19:13.000Z</time>
      </trkpt>
      <trkpt lat="42.92714" lon="1.20209">
        <ele>990</ele>
        <time>2026-05-25T09:19:14.000Z</time>
      </trkpt>
      <trkpt lat="42.92716" lon="1.20209">
        <ele>990</ele>
        <time>2026-05-25T09:19:15.000Z</time>
      </trkpt>
      <trkpt lat="42.92719" lon="1.2021">
        <ele>991</ele>
        <time>2026-05-25T09:19:16.000Z</time>
      </trkpt>
      <trkpt lat="42.92721" lon="1.20211">
        <ele>990</ele>
        <time>2026-05-25T09:19:17.000Z</time>
      </trkpt>
      <trkpt lat="42.92723" lon="1.20212">
        <ele>991</ele>
        <time>2026-05-25T09:19:18.000Z</time>
      </trkpt>
      <trkpt lat="42.92726" lon="1.20213">
        <ele>991</ele>
        <time>2026-05-25T09:19:19.000Z</time>
      </trkpt>
      <trkpt lat="42.92728" lon="1.20214">
        <ele>992</ele>
        <time>2026-05-25T09:19:20.000Z</time>
      </trkpt>
      <trkpt lat="42.9273" lon="1.20215">
        <ele>993</ele>
        <time>2026-05-25T09:19:21.000Z</time>
      </trkpt>
      <trkpt lat="42.92732" lon="1.20216">
        <ele>993</ele>
        <time>2026-05-25T09:19:22.000Z</time>
      </trkpt>
      <trkpt lat="42.92735" lon="1.20217">
        <ele>994</ele>
        <time>2026-05-25T09:19:23.000Z</time>
      </trkpt>
      <trkpt lat="42.92737" lon="1.20218">
        <ele>994</ele>
        <time>2026-05-25T09:19:24.000Z</time>
      </trkpt>
      <trkpt lat="42.92739" lon="1.20219">
        <ele>994</ele>
        <time>2026-05-25T09:19:25.000Z</time>
      </trkpt>
      <trkpt lat="42.92741" lon="1.20219">
        <ele>995</ele>
        <time>2026-05-25T09:19:26.000Z</time>
      </trkpt>
      <trkpt lat="42.92744" lon="1.2022">
        <ele>995</ele>
        <time>2026-05-25T09:19:27.000Z</time>
      </trkpt>
      <trkpt lat="42.92746" lon="1.20221">
        <ele>996</ele>
        <time>2026-05-25T09:19:28.000Z</time>
      </trkpt>
      <trkpt lat="42.92748" lon="1.20222">
        <ele>996</ele>
        <time>2026-05-25T09:19:29.000Z</time>
      </trkpt>
      <trkpt lat="42.92751" lon="1.20223">
        <ele>996</ele>
        <time>2026-05-25T09:19:30.000Z</time>
      </trkpt>
      <trkpt lat="42.92753" lon="1.20224">
        <ele>996</ele>
        <time>2026-05-25T09:19:31.000Z</time>
      </trkpt>
      <trkpt lat="42.92756" lon="1.20226">
        <ele>996</ele>
        <time>2026-05-25T09:19:32.000Z</time>
      </trkpt>
      <trkpt lat="42.92758" lon="1.20227">
        <ele>997</ele>
        <time>2026-05-25T09:19:33.000Z</time>
      </trkpt>
      <trkpt lat="42.9276" lon="1.20228">
        <ele>997</ele>
        <time>2026-05-25T09:19:34.000Z</time>
      </trkpt>
      <trkpt lat="42.92763" lon="1.20229">
        <ele>998</ele>
        <time>2026-05-25T09:19:35.000Z</time>
      </trkpt>
      <trkpt lat="42.92765" lon="1.2023">
        <ele>999</ele>
        <time>2026-05-25T09:19:36.000Z</time>
      </trkpt>
      <trkpt lat="42.92767" lon="1.20231">
        <ele>999</ele>
        <time>2026-05-25T09:19:37.000Z</time>
      </trkpt>
      <trkpt lat="42.9277" lon="1.20232">
        <ele>1000</ele>
        <time>2026-05-25T09:19:38.000Z</time>
      </trkpt>
      <trkpt lat="42.92772" lon="1.20233">
        <ele>1001</ele>
        <time>2026-05-25T09:19:39.000Z</time>
      </trkpt>
      <trkpt lat="42.92775" lon="1.20234">
        <ele>1001</ele>
        <time>2026-05-25T09:19:40.000Z</time>
      </trkpt>
      <trkpt lat="42.92778" lon="1.20236">
        <ele>1002</ele>
        <time>2026-05-25T09:19:41.000Z</time>
      </trkpt>
      <trkpt lat="42.9278" lon="1.20238">
        <ele>1001</ele>
        <time>2026-05-25T09:19:42.000Z</time>
      </trkpt>
      <trkpt lat="42.92782" lon="1.20238">
        <ele>1002</ele>
        <time>2026-05-25T09:19:43.000Z</time>
      </trkpt>
      <trkpt lat="42.92785" lon="1.20239">
        <ele>1002</ele>
        <time>2026-05-25T09:19:44.000Z</time>
      </trkpt>
      <trkpt lat="42.92787" lon="1.2024">
        <ele>1002</ele>
        <time>2026-05-25T09:19:45.000Z</time>
      </trkpt>
      <trkpt lat="42.9279" lon="1.20241">
        <ele>1003</ele>
        <time>2026-05-25T09:19:46.000Z</time>
      </trkpt>
      <trkpt lat="42.92792" lon="1.20242">
        <ele>1003</ele>
        <time>2026-05-25T09:19:47.000Z</time>
      </trkpt>
      <trkpt lat="42.92794" lon="1.20242">
        <ele>1004</ele>
        <time>2026-05-25T09:19:48.000Z</time>
      </trkpt>
      <trkpt lat="42.92797" lon="1.20243">
        <ele>1004</ele>
        <time>2026-05-25T09:19:49.000Z</time>
      </trkpt>
      <trkpt lat="42.92799" lon="1.20244">
        <ele>1004</ele>
        <time>2026-05-25T09:19:50.000Z</time>
      </trkpt>
      <trkpt lat="42.92801" lon="1.20246">
        <ele>1005</ele>
        <time>2026-05-25T09:19:51.000Z</time>
      </trkpt>
      <trkpt lat="42.92804" lon="1.20247">
        <ele>1005</ele>
        <time>2026-05-25T09:19:52.000Z</time>
      </trkpt>
      <trkpt lat="42.92805" lon="1.20248">
        <ele>1005</ele>
        <time>2026-05-25T09:19:53.000Z</time>
      </trkpt>
      <trkpt lat="42.92807" lon="1.20249">
        <ele>1005</ele>
        <time>2026-05-25T09:19:54.000Z</time>
      </trkpt>
      <trkpt lat="42.9281" lon="1.2025">
        <ele>1006</ele>
        <time>2026-05-25T09:19:55.000Z</time>
      </trkpt>
      <trkpt lat="42.92812" lon="1.20251">
        <ele>1006</ele>
        <time>2026-05-25T09:19:56.000Z</time>
      </trkpt>
      <trkpt lat="42.92814" lon="1.20252">
        <ele>1007</ele>
        <time>2026-05-25T09:19:57.000Z</time>
      </trkpt>
      <trkpt lat="42.92816" lon="1.20253">
        <ele>1007</ele>
        <time>2026-05-25T09:19:58.000Z</time>
      </trkpt>
      <trkpt lat="42.92818" lon="1.20255">
        <ele>1008</ele>
        <time>2026-05-25T09:19:59.000Z</time>
      </trkpt>
      <trkpt lat="42.92819" lon="1.20257">
        <ele>1008</ele>
        <time>2026-05-25T09:20:00.000Z</time>
      </trkpt>
      <trkpt lat="42.92821" lon="1.20258">
        <ele>1008</ele>
        <time>2026-05-25T09:20:01.000Z</time>
      </trkpt>
      <trkpt lat="42.92824" lon="1.2026">
        <ele>1009</ele>
        <time>2026-05-25T09:20:02.000Z</time>
      </trkpt>
      <trkpt lat="42.92826" lon="1.20261">
        <ele>1010</ele>
        <time>2026-05-25T09:20:03.000Z</time>
      </trkpt>
      <trkpt lat="42.92829" lon="1.20262">
        <ele>1010</ele>
        <time>2026-05-25T09:20:04.000Z</time>
      </trkpt>
      <trkpt lat="42.92831" lon="1.20264">
        <ele>1010</ele>
        <time>2026-05-25T09:20:05.000Z</time>
      </trkpt>
      <trkpt lat="42.92834" lon="1.20266">
        <ele>1010</ele>
        <time>2026-05-25T09:20:06.000Z</time>
      </trkpt>
      <trkpt lat="42.92836" lon="1.20268">
        <ele>1010</ele>
        <time>2026-05-25T09:20:07.000Z</time>
      </trkpt>
      <trkpt lat="42.92838" lon="1.2027">
        <ele>1011</ele>
        <time>2026-05-25T09:20:08.000Z</time>
      </trkpt>
      <trkpt lat="42.92839" lon="1.20273">
        <ele>1011</ele>
        <time>2026-05-25T09:20:09.000Z</time>
      </trkpt>
      <trkpt lat="42.92841" lon="1.20275">
        <ele>1012</ele>
        <time>2026-05-25T09:20:10.000Z</time>
      </trkpt>
      <trkpt lat="42.92843" lon="1.20277">
        <ele>1012</ele>
        <time>2026-05-25T09:20:11.000Z</time>
      </trkpt>
      <trkpt lat="42.92845" lon="1.2028">
        <ele>1012</ele>
        <time>2026-05-25T09:20:12.000Z</time>
      </trkpt>
      <trkpt lat="42.92847" lon="1.20283">
        <ele>1013</ele>
        <time>2026-05-25T09:20:13.000Z</time>
      </trkpt>
      <trkpt lat="42.92848" lon="1.20285">
        <ele>1013</ele>
        <time>2026-05-25T09:20:14.000Z</time>
      </trkpt>
      <trkpt lat="42.9285" lon="1.20288">
        <ele>1013</ele>
        <time>2026-05-25T09:20:15.000Z</time>
      </trkpt>
      <trkpt lat="42.92852" lon="1.2029">
        <ele>1013</ele>
        <time>2026-05-25T09:20:16.000Z</time>
      </trkpt>
      <trkpt lat="42.92853" lon="1.20293">
        <ele>1013</ele>
        <time>2026-05-25T09:20:17.000Z</time>
      </trkpt>
      <trkpt lat="42.92855" lon="1.20295">
        <ele>1014</ele>
        <time>2026-05-25T09:20:18.000Z</time>
      </trkpt>
      <trkpt lat="42.92857" lon="1.20298">
        <ele>1014</ele>
        <time>2026-05-25T09:20:19.000Z</time>
      </trkpt>
      <trkpt lat="42.92858" lon="1.203">
        <ele>1014</ele>
        <time>2026-05-25T09:20:20.000Z</time>
      </trkpt>
      <trkpt lat="42.9286" lon="1.20303">
        <ele>1013</ele>
        <time>2026-05-25T09:20:21.000Z</time>
      </trkpt>
      <trkpt lat="42.92861" lon="1.20306">
        <ele>1014</ele>
        <time>2026-05-25T09:20:22.000Z</time>
      </trkpt>
      <trkpt lat="42.92862" lon="1.20309">
        <ele>1014</ele>
        <time>2026-05-25T09:20:23.000Z</time>
      </trkpt>
      <trkpt lat="42.92863" lon="1.20312">
        <ele>1014</ele>
        <time>2026-05-25T09:20:24.000Z</time>
      </trkpt>
      <trkpt lat="42.92865" lon="1.20315">
        <ele>1015</ele>
        <time>2026-05-25T09:20:25.000Z</time>
      </trkpt>
      <trkpt lat="42.92867" lon="1.20317">
        <ele>1015</ele>
        <time>2026-05-25T09:20:26.000Z</time>
      </trkpt>
      <trkpt lat="42.92868" lon="1.2032">
        <ele>1016</ele>
        <time>2026-05-25T09:20:27.000Z</time>
      </trkpt>
      <trkpt lat="42.92869" lon="1.20323">
        <ele>1016</ele>
        <time>2026-05-25T09:20:28.000Z</time>
      </trkpt>
      <trkpt lat="42.9287" lon="1.20326">
        <ele>1016</ele>
        <time>2026-05-25T09:20:29.000Z</time>
      </trkpt>
      <trkpt lat="42.92872" lon="1.20329">
        <ele>1017</ele>
        <time>2026-05-25T09:20:30.000Z</time>
      </trkpt>
      <trkpt lat="42.92873" lon="1.20332">
        <ele>1017</ele>
        <time>2026-05-25T09:20:31.000Z</time>
      </trkpt>
      <trkpt lat="42.92874" lon="1.20335">
        <ele>1017</ele>
        <time>2026-05-25T09:20:32.000Z</time>
      </trkpt>
      <trkpt lat="42.92875" lon="1.20338">
        <ele>1018</ele>
        <time>2026-05-25T09:20:33.000Z</time>
      </trkpt>
      <trkpt lat="42.92877" lon="1.20341">
        <ele>1018</ele>
        <time>2026-05-25T09:20:34.000Z</time>
      </trkpt>
      <trkpt lat="42.92879" lon="1.20345">
        <ele>1018</ele>
        <time>2026-05-25T09:20:35.000Z</time>
      </trkpt>
      <trkpt lat="42.9288" lon="1.20347">
        <ele>1018</ele>
        <time>2026-05-25T09:20:36.000Z</time>
      </trkpt>
      <trkpt lat="42.92882" lon="1.2035">
        <ele>1018</ele>
        <time>2026-05-25T09:20:37.000Z</time>
      </trkpt>
      <trkpt lat="42.92884" lon="1.20352">
        <ele>1019</ele>
        <time>2026-05-25T09:20:38.000Z</time>
      </trkpt>
      <trkpt lat="42.92886" lon="1.20355">
        <ele>1019</ele>
        <time>2026-05-25T09:20:39.000Z</time>
      </trkpt>
      <trkpt lat="42.92887" lon="1.20357">
        <ele>1019</ele>
        <time>2026-05-25T09:20:40.000Z</time>
      </trkpt>
      <trkpt lat="42.92889" lon="1.2036">
        <ele>1020</ele>
        <time>2026-05-25T09:20:41.000Z</time>
      </trkpt>
      <trkpt lat="42.92891" lon="1.20362">
        <ele>1020</ele>
        <time>2026-05-25T09:20:42.000Z</time>
      </trkpt>
      <trkpt lat="42.92894" lon="1.20363">
        <ele>1021</ele>
        <time>2026-05-25T09:20:43.000Z</time>
      </trkpt>
      <trkpt lat="42.92896" lon="1.20364">
        <ele>1021</ele>
        <time>2026-05-25T09:20:44.000Z</time>
      </trkpt>
      <trkpt lat="42.92898" lon="1.20365">
        <ele>1022</ele>
        <time>2026-05-25T09:20:45.000Z</time>
      </trkpt>
      <trkpt lat="42.92901" lon="1.20365">
        <ele>1023</ele>
        <time>2026-05-25T09:20:46.000Z</time>
      </trkpt>
      <trkpt lat="42.92903" lon="1.20366">
        <ele>1023</ele>
        <time>2026-05-25T09:20:47.000Z</time>
      </trkpt>
      <trkpt lat="42.92905" lon="1.20366">
        <ele>1024</ele>
        <time>2026-05-25T09:20:48.000Z</time>
      </trkpt>
      <trkpt lat="42.92908" lon="1.20367">
        <ele>1024</ele>
        <time>2026-05-25T09:20:49.000Z</time>
      </trkpt>
      <trkpt lat="42.9291" lon="1.20368">
        <ele>1024</ele>
        <time>2026-05-25T09:20:50.000Z</time>
      </trkpt>
      <trkpt lat="42.92912" lon="1.20369">
        <ele>1025</ele>
        <time>2026-05-25T09:20:51.000Z</time>
      </trkpt>
      <trkpt lat="42.92914" lon="1.20369">
        <ele>1025</ele>
        <time>2026-05-25T09:20:52.000Z</time>
      </trkpt>
      <trkpt lat="42.92916" lon="1.20371">
        <ele>1025</ele>
        <time>2026-05-25T09:20:53.000Z</time>
      </trkpt>
      <trkpt lat="42.92919" lon="1.20372">
        <ele>1025</ele>
        <time>2026-05-25T09:20:54.000Z</time>
      </trkpt>
      <trkpt lat="42.92921" lon="1.20374">
        <ele>1025</ele>
        <time>2026-05-25T09:20:55.000Z</time>
      </trkpt>
      <trkpt lat="42.92923" lon="1.20376">
        <ele>1025</ele>
        <time>2026-05-25T09:20:56.000Z</time>
      </trkpt>
      <trkpt lat="42.92924" lon="1.20378">
        <ele>1025</ele>
        <time>2026-05-25T09:20:57.000Z</time>
      </trkpt>
      <trkpt lat="42.92927" lon="1.2038">
        <ele>1025</ele>
        <time>2026-05-25T09:20:58.000Z</time>
      </trkpt>
      <trkpt lat="42.92929" lon="1.20382">
        <ele>1026</ele>
        <time>2026-05-25T09:20:59.000Z</time>
      </trkpt>
      <trkpt lat="42.92931" lon="1.20384">
        <ele>1026</ele>
        <time>2026-05-25T09:21:00.000Z</time>
      </trkpt>
      <trkpt lat="42.92933" lon="1.20386">
        <ele>1026</ele>
        <time>2026-05-25T09:21:01.000Z</time>
      </trkpt>
      <trkpt lat="42.92935" lon="1.20388">
        <ele>1026</ele>
        <time>2026-05-25T09:21:02.000Z</time>
      </trkpt>
      <trkpt lat="42.92937" lon="1.2039">
        <ele>1026</ele>
        <time>2026-05-25T09:21:03.000Z</time>
      </trkpt>
      <trkpt lat="42.92939" lon="1.20392">
        <ele>1026</ele>
        <time>2026-05-25T09:21:04.000Z</time>
      </trkpt>
      <trkpt lat="42.92941" lon="1.20394">
        <ele>1026</ele>
        <time>2026-05-25T09:21:05.000Z</time>
      </trkpt>
      <trkpt lat="42.92943" lon="1.20396">
        <ele>1026</ele>
        <time>2026-05-25T09:21:06.000Z</time>
      </trkpt>
      <trkpt lat="42.92945" lon="1.20398">
        <ele>1027</ele>
        <time>2026-05-25T09:21:07.000Z</time>
      </trkpt>
      <trkpt lat="42.92947" lon="1.20399">
        <ele>1027</ele>
        <time>2026-05-25T09:21:08.000Z</time>
      </trkpt>
      <trkpt lat="42.92949" lon="1.20401">
        <ele>1027</ele>
        <time>2026-05-25T09:21:09.000Z</time>
      </trkpt>
      <trkpt lat="42.92951" lon="1.20402">
        <ele>1028</ele>
        <time>2026-05-25T09:21:10.000Z</time>
      </trkpt>
      <trkpt lat="42.92953" lon="1.20404">
        <ele>1028</ele>
        <time>2026-05-25T09:21:11.000Z</time>
      </trkpt>
      <trkpt lat="42.92955" lon="1.20407">
        <ele>1029</ele>
        <time>2026-05-25T09:21:12.000Z</time>
      </trkpt>
      <trkpt lat="42.92956" lon="1.2041">
        <ele>1029</ele>
        <time>2026-05-25T09:21:13.000Z</time>
      </trkpt>
      <trkpt lat="42.92958" lon="1.20414">
        <ele>1029</ele>
        <time>2026-05-25T09:21:14.000Z</time>
      </trkpt>
      <trkpt lat="42.9296" lon="1.20418">
        <ele>1029</ele>
        <time>2026-05-25T09:21:15.000Z</time>
      </trkpt>
      <trkpt lat="42.92962" lon="1.20422">
        <ele>1030</ele>
        <time>2026-05-25T09:21:16.000Z</time>
      </trkpt>
      <trkpt lat="42.92963" lon="1.20426">
        <ele>1030</ele>
        <time>2026-05-25T09:21:17.000Z</time>
      </trkpt>
      <trkpt lat="42.92965" lon="1.2043">
        <ele>1032</ele>
        <time>2026-05-25T09:21:18.000Z</time>
      </trkpt>
      <trkpt lat="42.92966" lon="1.20434">
        <ele>1032</ele>
        <time>2026-05-25T09:21:19.000Z</time>
      </trkpt>
      <trkpt lat="42.92968" lon="1.20439">
        <ele>1032</ele>
        <time>2026-05-25T09:21:20.000Z</time>
      </trkpt>
      <trkpt lat="42.92971" lon="1.20443">
        <ele>1032</ele>
        <time>2026-05-25T09:21:21.000Z</time>
      </trkpt>
      <trkpt lat="42.92973" lon="1.20448">
        <ele>1033</ele>
        <time>2026-05-25T09:21:22.000Z</time>
      </trkpt>
      <trkpt lat="42.92976" lon="1.20454">
        <ele>1033</ele>
        <time>2026-05-25T09:21:23.000Z</time>
      </trkpt>
      <trkpt lat="42.92978" lon="1.2046">
        <ele>1033</ele>
        <time>2026-05-25T09:21:24.000Z</time>
      </trkpt>
      <trkpt lat="42.9298" lon="1.20466">
        <ele>1034</ele>
        <time>2026-05-25T09:21:25.000Z</time>
      </trkpt>
      <trkpt lat="42.92983" lon="1.20473">
        <ele>1034</ele>
        <time>2026-05-25T09:21:26.000Z</time>
      </trkpt>
      <trkpt lat="42.92984" lon="1.2048">
        <ele>1035</ele>
        <time>2026-05-25T09:21:27.000Z</time>
      </trkpt>
      <trkpt lat="42.92985" lon="1.20488">
        <ele>1035</ele>
        <time>2026-05-25T09:21:28.000Z</time>
      </trkpt>
      <trkpt lat="42.92988" lon="1.20495">
        <ele>1034</ele>
        <time>2026-05-25T09:21:29.000Z</time>
      </trkpt>
      <trkpt lat="42.92992" lon="1.20503">
        <ele>1033</ele>
        <time>2026-05-25T09:21:30.000Z</time>
      </trkpt>
      <trkpt lat="42.92995" lon="1.20511">
        <ele>1033</ele>
        <time>2026-05-25T09:21:31.000Z</time>
      </trkpt>
      <trkpt lat="42.92997" lon="1.2052">
        <ele>1032</ele>
        <time>2026-05-25T09:21:32.000Z</time>
      </trkpt>
      <trkpt lat="42.93" lon="1.20528">
        <ele>1032</ele>
        <time>2026-05-25T09:21:33.000Z</time>
      </trkpt>
      <trkpt lat="42.93003" lon="1.20537">
        <ele>1032</ele>
        <time>2026-05-25T09:21:34.000Z</time>
      </trkpt>
      <trkpt lat="42.93007" lon="1.20546">
        <ele>1032</ele>
        <time>2026-05-25T09:21:35.000Z</time>
      </trkpt>
      <trkpt lat="42.93011" lon="1.20554">
        <ele>1031</ele>
        <time>2026-05-25T09:21:36.000Z</time>
      </trkpt>
      <trkpt lat="42.93016" lon="1.20563">
        <ele>1031</ele>
        <time>2026-05-25T09:21:37.000Z</time>
      </trkpt>
      <trkpt lat="42.9302" lon="1.20572">
        <ele>1031</ele>
        <time>2026-05-25T09:21:38.000Z</time>
      </trkpt>
      <trkpt lat="42.93025" lon="1.20581">
        <ele>1030</ele>
        <time>2026-05-25T09:21:39.000Z</time>
      </trkpt>
      <trkpt lat="42.93029" lon="1.20591">
        <ele>1029</ele>
        <time>2026-05-25T09:21:40.000Z</time>
      </trkpt>
      <trkpt lat="42.93033" lon="1.20603">
        <ele>1029</ele>
        <time>2026-05-25T09:21:41.000Z</time>
      </trkpt>
      <trkpt lat="42.93037" lon="1.20615">
        <ele>1028</ele>
        <time>2026-05-25T09:21:42.000Z</time>
      </trkpt>
      <trkpt lat="42.93041" lon="1.20629">
        <ele>1026</ele>
        <time>2026-05-25T09:21:43.000Z</time>
      </trkpt>
      <trkpt lat="42.93043" lon="1.20643">
        <ele>1025</ele>
        <time>2026-05-25T09:21:44.000Z</time>
      </trkpt>
      <trkpt lat="42.93044" lon="1.20659">
        <ele>1025</ele>
        <time>2026-05-25T09:21:45.000Z</time>
      </trkpt>
      <trkpt lat="42.93043" lon="1.20675">
        <ele>1025</ele>
        <time>2026-05-25T09:21:46.000Z</time>
      </trkpt>
      <trkpt lat="42.9304" lon="1.2069">
        <ele>1023</ele>
        <time>2026-05-25T09:21:47.000Z</time>
      </trkpt>
      <trkpt lat="42.93037" lon="1.20704">
        <ele>1023</ele>
        <time>2026-05-25T09:21:48.000Z</time>
      </trkpt>
      <trkpt lat="42.93034" lon="1.20717">
        <ele>1022</ele>
        <time>2026-05-25T09:21:49.000Z</time>
      </trkpt>
      <trkpt lat="42.93033" lon="1.20729">
        <ele>1022</ele>
        <time>2026-05-25T09:21:50.000Z</time>
      </trkpt>
      <trkpt lat="42.93031" lon="1.2074">
        <ele>1022</ele>
        <time>2026-05-25T09:21:51.000Z</time>
      </trkpt>
      <trkpt lat="42.93031" lon="1.20749">
        <ele>1022</ele>
        <time>2026-05-25T09:21:52.000Z</time>
      </trkpt>
      <trkpt lat="42.93029" lon="1.20755">
        <ele>1022</ele>
        <time>2026-05-25T09:21:53.000Z</time>
      </trkpt>
      <trkpt lat="42.93027" lon="1.20759">
        <ele>1021</ele>
        <time>2026-05-25T09:21:54.000Z</time>
      </trkpt>
      <trkpt lat="42.93026" lon="1.20762">
        <ele>1021</ele>
        <time>2026-05-25T09:21:55.000Z</time>
      </trkpt>
      <trkpt lat="42.93025" lon="1.20765">
        <ele>1021</ele>
        <time>2026-05-25T09:21:56.000Z</time>
      </trkpt>
      <trkpt lat="42.93024" lon="1.20767">
        <ele>1021</ele>
        <time>2026-05-25T09:21:57.000Z</time>
      </trkpt>
      <trkpt lat="42.93024" lon="1.2077">
        <ele>1021</ele>
        <time>2026-05-25T09:21:58.000Z</time>
      </trkpt>
      <trkpt lat="42.93024" lon="1.20773">
        <ele>1021</ele>
        <time>2026-05-25T09:21:59.000Z</time>
      </trkpt>
      <trkpt lat="42.93022" lon="1.20774">
        <ele>1021</ele>
        <time>2026-05-25T09:22:00.000Z</time>
      </trkpt>
      <trkpt lat="42.93022" lon="1.20776">
        <ele>1021</ele>
        <time>2026-05-25T09:22:01.000Z</time>
      </trkpt>
      <trkpt lat="42.93021" lon="1.20777">
        <ele>1021</ele>
        <time>2026-05-25T09:22:02.000Z</time>
      </trkpt>
      <trkpt lat="42.9302" lon="1.20779">
        <ele>1021</ele>
        <time>2026-05-25T09:22:03.000Z</time>
      </trkpt>
      <trkpt lat="42.93019" lon="1.2078">
        <ele>1021</ele>
        <time>2026-05-25T09:22:04.000Z</time>
      </trkpt>
      <trkpt lat="42.93017" lon="1.20782">
        <ele>1021</ele>
        <time>2026-05-25T09:22:05.000Z</time>
      </trkpt>
      <trkpt lat="42.93017" lon="1.20784">
        <ele>1021</ele>
        <time>2026-05-25T09:22:06.000Z</time>
      </trkpt>
      <trkpt lat="42.93017" lon="1.20785">
        <ele>1021</ele>
        <time>2026-05-25T09:22:07.000Z</time>
      </trkpt>
      <trkpt lat="42.93017" lon="1.20787">
        <ele>1022</ele>
        <time>2026-05-25T09:22:08.000Z</time>
      </trkpt>
      <trkpt lat="42.93015" lon="1.20788">
        <ele>1022</ele>
        <time>2026-05-25T09:22:09.000Z</time>
      </trkpt>
      <trkpt lat="42.93014" lon="1.20788">
        <ele>1022</ele>
        <time>2026-05-25T09:22:10.000Z</time>
      </trkpt>
      <trkpt lat="42.93013" lon="1.20789">
        <ele>1022</ele>
        <time>2026-05-25T09:22:11.000Z</time>
      </trkpt>
      <trkpt lat="42.93013" lon="1.2079">
        <ele>1022</ele>
        <time>2026-05-25T09:22:12.000Z</time>
      </trkpt>
      <trkpt lat="42.93012" lon="1.20792">
        <ele>1022</ele>
        <time>2026-05-25T09:22:13.000Z</time>
      </trkpt>
      <trkpt lat="42.93011" lon="1.20792">
        <ele>1022</ele>
        <time>2026-05-25T09:22:14.000Z</time>
      </trkpt>
      <trkpt lat="42.9301" lon="1.20794">
        <ele>1022</ele>
        <time>2026-05-25T09:22:15.000Z</time>
      </trkpt>
      <trkpt lat="42.93009" lon="1.20795">
        <ele>1022</ele>
        <time>2026-05-25T09:22:16.000Z</time>
      </trkpt>
      <trkpt lat="42.93007" lon="1.20796">
        <ele>1023</ele>
        <time>2026-05-25T09:22:17.000Z</time>
      </trkpt>
      <trkpt lat="42.93006" lon="1.20797">
        <ele>1023</ele>
        <time>2026-05-25T09:22:18.000Z</time>
      </trkpt>
      <trkpt lat="42.93004" lon="1.20798">
        <ele>1023</ele>
        <time>2026-05-25T09:22:19.000Z</time>
      </trkpt>
      <trkpt lat="42.93004" lon="1.20799">
        <ele>1023</ele>
        <time>2026-05-25T09:22:20.000Z</time>
      </trkpt>
      <trkpt lat="42.93003" lon="1.208">
        <ele>1024</ele>
        <time>2026-05-25T09:22:21.000Z</time>
      </trkpt>
      <trkpt lat="42.93002" lon="1.20801">
        <ele>1024</ele>
        <time>2026-05-25T09:22:22.000Z</time>
      </trkpt>
      <trkpt lat="42.93002" lon="1.20803">
        <ele>1025</ele>
        <time>2026-05-25T09:22:23.000Z</time>
      </trkpt>
      <trkpt lat="42.93001" lon="1.20804">
        <ele>1025</ele>
        <time>2026-05-25T09:22:24.000Z</time>
      </trkpt>
      <trkpt lat="42.93" lon="1.20807">
        <ele>1025</ele>
        <time>2026-05-25T09:22:25.000Z</time>
      </trkpt>
      <trkpt lat="42.92999" lon="1.20809">
        <ele>1025</ele>
        <time>2026-05-25T09:22:26.000Z</time>
      </trkpt>
      <trkpt lat="42.92998" lon="1.20811">
        <ele>1025</ele>
        <time>2026-05-25T09:22:27.000Z</time>
      </trkpt>
      <trkpt lat="42.92997" lon="1.20813">
        <ele>1026</ele>
        <time>2026-05-25T09:22:28.000Z</time>
      </trkpt>
      <trkpt lat="42.92996" lon="1.20815">
        <ele>1026</ele>
        <time>2026-05-25T09:22:29.000Z</time>
      </trkpt>
      <trkpt lat="42.92994" lon="1.20817">
        <ele>1026</ele>
        <time>2026-05-25T09:22:30.000Z</time>
      </trkpt>
      <trkpt lat="42.92994" lon="1.20819">
        <ele>1026</ele>
        <time>2026-05-25T09:22:31.000Z</time>
      </trkpt>
      <trkpt lat="42.92994" lon="1.20821">
        <ele>1027</ele>
        <time>2026-05-25T09:22:32.000Z</time>
      </trkpt>
      <trkpt lat="42.92994" lon="1.20823">
        <ele>1027</ele>
        <time>2026-05-25T09:22:33.000Z</time>
      </trkpt>
      <trkpt lat="42.92993" lon="1.20824">
        <ele>1027</ele>
        <time>2026-05-25T09:22:34.000Z</time>
      </trkpt>
      <trkpt lat="42.92992" lon="1.20825">
        <ele>1027</ele>
        <time>2026-05-25T09:22:35.000Z</time>
      </trkpt>
      <trkpt lat="42.92991" lon="1.20827">
        <ele>1027</ele>
        <time>2026-05-25T09:22:36.000Z</time>
      </trkpt>
      <trkpt lat="42.9299" lon="1.20829">
        <ele>1027</ele>
        <time>2026-05-25T09:22:37.000Z</time>
      </trkpt>
      <trkpt lat="42.92989" lon="1.2083">
        <ele>1028</ele>
        <time>2026-05-25T09:22:38.000Z</time>
      </trkpt>
      <trkpt lat="42.92988" lon="1.20832">
        <ele>1028</ele>
        <time>2026-05-25T09:22:39.000Z</time>
      </trkpt>
      <trkpt lat="42.92986" lon="1.20832">
        <ele>1028</ele>
        <time>2026-05-25T09:22:40.000Z</time>
      </trkpt>
      <trkpt lat="42.92985" lon="1.20834">
        <ele>1029</ele>
        <time>2026-05-25T09:22:41.000Z</time>
      </trkpt>
      <trkpt lat="42.92985" lon="1.20836">
        <ele>1029</ele>
        <time>2026-05-25T09:22:42.000Z</time>
      </trkpt>
      <trkpt lat="42.92984" lon="1.20839">
        <ele>1029</ele>
        <time>2026-05-25T09:22:43.000Z</time>
      </trkpt>
      <trkpt lat="42.92983" lon="1.20841">
        <ele>1029</ele>
        <time>2026-05-25T09:22:44.000Z</time>
      </trkpt>
      <trkpt lat="42.92983" lon="1.20843">
        <ele>1030</ele>
        <time>2026-05-25T09:22:45.000Z</time>
      </trkpt>
      <trkpt lat="42.92981" lon="1.20844">
        <ele>1030</ele>
        <time>2026-05-25T09:22:46.000Z</time>
      </trkpt>
      <trkpt lat="42.9298" lon="1.20845">
        <ele>1031</ele>
        <time>2026-05-25T09:22:47.000Z</time>
      </trkpt>
      <trkpt lat="42.92979" lon="1.20846">
        <ele>1032</ele>
        <time>2026-05-25T09:22:48.000Z</time>
      </trkpt>
      <trkpt lat="42.92978" lon="1.20848">
        <ele>1032</ele>
        <time>2026-05-25T09:22:49.000Z</time>
      </trkpt>
      <trkpt lat="42.92977" lon="1.2085">
        <ele>1032</ele>
        <time>2026-05-25T09:22:50.000Z</time>
      </trkpt>
      <trkpt lat="42.92976" lon="1.20852">
        <ele>1032</ele>
        <time>2026-05-25T09:22:51.000Z</time>
      </trkpt>
      <trkpt lat="42.92975" lon="1.20855">
        <ele>1033</ele>
        <time>2026-05-25T09:22:52.000Z</time>
      </trkpt>
      <trkpt lat="42.92974" lon="1.20858">
        <ele>1033</ele>
        <time>2026-05-25T09:22:53.000Z</time>
      </trkpt>
      <trkpt lat="42.92974" lon="1.20859">
        <ele>1033</ele>
        <time>2026-05-25T09:22:54.000Z</time>
      </trkpt>
      <trkpt lat="42.92974" lon="1.20861">
        <ele>1033</ele>
        <time>2026-05-25T09:22:55.000Z</time>
      </trkpt>
      <trkpt lat="42.92973" lon="1.20862">
        <ele>1033</ele>
        <time>2026-05-25T09:22:56.000Z</time>
      </trkpt>
      <trkpt lat="42.92973" lon="1.20864">
        <ele>1034</ele>
        <time>2026-05-25T09:22:57.000Z</time>
      </trkpt>
      <trkpt lat="42.92972" lon="1.20866">
        <ele>1034</ele>
        <time>2026-05-25T09:22:58.000Z</time>
      </trkpt>
      <trkpt lat="42.9297" lon="1.20866">
        <ele>1034</ele>
        <time>2026-05-25T09:22:59.000Z</time>
      </trkpt>
      <trkpt lat="42.9297" lon="1.20868">
        <ele>1035</ele>
        <time>2026-05-25T09:23:00.000Z</time>
      </trkpt>
      <trkpt lat="42.92968" lon="1.20869">
        <ele>1035</ele>
        <time>2026-05-25T09:23:01.000Z</time>
      </trkpt>
      <trkpt lat="42.92967" lon="1.20871">
        <ele>1035</ele>
        <time>2026-05-25T09:23:02.000Z</time>
      </trkpt>
      <trkpt lat="42.92965" lon="1.20873">
        <ele>1035</ele>
        <time>2026-05-25T09:23:03.000Z</time>
      </trkpt>
      <trkpt lat="42.92964" lon="1.20875">
        <ele>1036</ele>
        <time>2026-05-25T09:23:04.000Z</time>
      </trkpt>
      <trkpt lat="42.92964" lon="1.20876">
        <ele>1036</ele>
        <time>2026-05-25T09:23:05.000Z</time>
      </trkpt>
      <trkpt lat="42.92964" lon="1.20878">
        <ele>1036</ele>
        <time>2026-05-25T09:23:06.000Z</time>
      </trkpt>
      <trkpt lat="42.92963" lon="1.20878">
        <ele>1037</ele>
        <time>2026-05-25T09:23:07.000Z</time>
      </trkpt>
      <trkpt lat="42.92963" lon="1.2088">
        <ele>1037</ele>
        <time>2026-05-25T09:23:08.000Z</time>
      </trkpt>
      <trkpt lat="42.92962" lon="1.20882">
        <ele>1038</ele>
        <time>2026-05-25T09:23:09.000Z</time>
      </trkpt>
      <trkpt lat="42.92962" lon="1.20883">
        <ele>1038</ele>
        <time>2026-05-25T09:23:10.000Z</time>
      </trkpt>
      <trkpt lat="42.92962" lon="1.20884">
        <ele>1038</ele>
        <time>2026-05-25T09:23:11.000Z</time>
      </trkpt>
      <trkpt lat="42.92962" lon="1.20886">
        <ele>1040</ele>
        <time>2026-05-25T09:23:12.000Z</time>
      </trkpt>
      <trkpt lat="42.92961" lon="1.20888">
        <ele>1040</ele>
        <time>2026-05-25T09:23:13.000Z</time>
      </trkpt>
      <trkpt lat="42.92961" lon="1.20891">
        <ele>1041</ele>
        <time>2026-05-25T09:23:14.000Z</time>
      </trkpt>
      <trkpt lat="42.92961" lon="1.20892">
        <ele>1043</ele>
        <time>2026-05-25T09:23:15.000Z</time>
      </trkpt>
      <trkpt lat="42.92961" lon="1.20894">
        <ele>1043</ele>
        <time>2026-05-25T09:23:16.000Z</time>
      </trkpt>
      <trkpt lat="42.9296" lon="1.20896">
        <ele>1044</ele>
        <time>2026-05-25T09:23:17.000Z</time>
      </trkpt>
      <trkpt lat="42.9296" lon="1.20897">
        <ele>1044</ele>
        <time>2026-05-25T09:23:18.000Z</time>
      </trkpt>
      <trkpt lat="42.92959" lon="1.20898">
        <ele>1045</ele>
        <time>2026-05-25T09:23:19.000Z</time>
      </trkpt>
      <trkpt lat="42.92959" lon="1.20899">
        <ele>1046</ele>
        <time>2026-05-25T09:23:20.000Z</time>
      </trkpt>
      <trkpt lat="42.92958" lon="1.209">
        <ele>1047</ele>
        <time>2026-05-25T09:23:21.000Z</time>
      </trkpt>
      <trkpt lat="42.92957" lon="1.20902">
        <ele>1046</ele>
        <time>2026-05-25T09:23:22.000Z</time>
      </trkpt>
      <trkpt lat="42.92956" lon="1.20904">
        <ele>1046</ele>
        <time>2026-05-25T09:23:23.000Z</time>
      </trkpt>
      <trkpt lat="42.92955" lon="1.20906">
        <ele>1046</ele>
        <time>2026-05-25T09:23:24.000Z</time>
      </trkpt>
      <trkpt lat="42.92953" lon="1.20907">
        <ele>1047</ele>
        <time>2026-05-25T09:23:25.000Z</time>
      </trkpt>
      <trkpt lat="42.92952" lon="1.20907">
        <ele>1047</ele>
        <time>2026-05-25T09:23:26.000Z</time>
      </trkpt>
      <trkpt lat="42.92951" lon="1.20908">
        <ele>1047</ele>
        <time>2026-05-25T09:23:27.000Z</time>
      </trkpt>
      <trkpt lat="42.9295" lon="1.20909">
        <ele>1048</ele>
        <time>2026-05-25T09:23:28.000Z</time>
      </trkpt>
      <trkpt lat="42.92948" lon="1.2091">
        <ele>1049</ele>
        <time>2026-05-25T09:23:29.000Z</time>
      </trkpt>
      <trkpt lat="42.92947" lon="1.20911">
        <ele>1050</ele>
        <time>2026-05-25T09:23:30.000Z</time>
      </trkpt>
      <trkpt lat="42.92946" lon="1.20913">
        <ele>1052</ele>
        <time>2026-05-25T09:23:31.000Z</time>
      </trkpt>
      <trkpt lat="42.92946" lon="1.20916">
        <ele>1052</ele>
        <time>2026-05-25T09:23:32.000Z</time>
      </trkpt>
      <trkpt lat="42.92945" lon="1.20917">
        <ele>1052</ele>
        <time>2026-05-25T09:23:33.000Z</time>
      </trkpt>
      <trkpt lat="42.92944" lon="1.2092">
        <ele>1052</ele>
        <time>2026-05-25T09:23:34.000Z</time>
      </trkpt>
      <trkpt lat="42.92943" lon="1.20922">
        <ele>1053</ele>
        <time>2026-05-25T09:23:35.000Z</time>
      </trkpt>
      <trkpt lat="42.92941" lon="1.20925">
        <ele>1053</ele>
        <time>2026-05-25T09:23:36.000Z</time>
      </trkpt>
      <trkpt lat="42.9294" lon="1.20927">
        <ele>1054</ele>
        <time>2026-05-25T09:23:37.000Z</time>
      </trkpt>
      <trkpt lat="42.92939" lon="1.20929">
        <ele>1055</ele>
        <time>2026-05-25T09:23:38.000Z</time>
      </trkpt>
      <trkpt lat="42.92937" lon="1.20931">
        <ele>1056</ele>
        <time>2026-05-25T09:23:39.000Z</time>
      </trkpt>
      <trkpt lat="42.92935" lon="1.20934">
        <ele>1057</ele>
        <time>2026-05-25T09:23:40.000Z</time>
      </trkpt>
      <trkpt lat="42.92934" lon="1.20935">
        <ele>1057</ele>
        <time>2026-05-25T09:23:41.000Z</time>
      </trkpt>
      <trkpt lat="42.92934" lon="1.20938">
        <ele>1058</ele>
        <time>2026-05-25T09:23:42.000Z</time>
      </trkpt>
      <trkpt lat="42.92933" lon="1.20939">
        <ele>1058</ele>
        <time>2026-05-25T09:23:43.000Z</time>
      </trkpt>
      <trkpt lat="42.92932" lon="1.2094">
        <ele>1059</ele>
        <time>2026-05-25T09:23:44.000Z</time>
      </trkpt>
      <trkpt lat="42.92931" lon="1.20942">
        <ele>1060</ele>
        <time>2026-05-25T09:23:45.000Z</time>
      </trkpt>
      <trkpt lat="42.9293" lon="1.20943">
        <ele>1061</ele>
        <time>2026-05-25T09:23:46.000Z</time>
      </trkpt>
      <trkpt lat="42.92929" lon="1.20944">
        <ele>1062</ele>
        <time>2026-05-25T09:23:47.000Z</time>
      </trkpt>
      <trkpt lat="42.92928" lon="1.20946">
        <ele>1064</ele>
        <time>2026-05-25T09:23:48.000Z</time>
      </trkpt>
      <trkpt lat="42.92927" lon="1.20948">
        <ele>1065</ele>
        <time>2026-05-25T09:23:49.000Z</time>
      </trkpt>
      <trkpt lat="42.92926" lon="1.20949">
        <ele>1065</ele>
        <time>2026-05-25T09:23:50.000Z</time>
      </trkpt>
      <trkpt lat="42.92925" lon="1.20951">
        <ele>1066</ele>
        <time>2026-05-25T09:23:51.000Z</time>
      </trkpt>
      <trkpt lat="42.92924" lon="1.20952">
        <ele>1066</ele>
        <time>2026-05-25T09:23:52.000Z</time>
      </trkpt>
      <trkpt lat="42.92923" lon="1.20954">
        <ele>1066</ele>
        <time>2026-05-25T09:23:53.000Z</time>
      </trkpt>
      <trkpt lat="42.92922" lon="1.20956">
        <ele>1066</ele>
        <time>2026-05-25T09:23:54.000Z</time>
      </trkpt>
      <trkpt lat="42.92921" lon="1.20957">
        <ele>1066</ele>
        <time>2026-05-25T09:23:55.000Z</time>
      </trkpt>
      <trkpt lat="42.9292" lon="1.20959">
        <ele>1066</ele>
        <time>2026-05-25T09:23:56.000Z</time>
      </trkpt>
      <trkpt lat="42.92919" lon="1.20961">
        <ele>1066</ele>
        <time>2026-05-25T09:23:57.000Z</time>
      </trkpt>
      <trkpt lat="42.92918" lon="1.20963">
        <ele>1067</ele>
        <time>2026-05-25T09:23:58.000Z</time>
      </trkpt>
      <trkpt lat="42.92918" lon="1.20965">
        <ele>1068</ele>
        <time>2026-05-25T09:23:59.000Z</time>
      </trkpt>
      <trkpt lat="42.92917" lon="1.20966">
        <ele>1068</ele>
        <time>2026-05-25T09:24:00.000Z</time>
      </trkpt>
      <trkpt lat="42.92916" lon="1.20968">
        <ele>1069</ele>
        <time>2026-05-25T09:24:01.000Z</time>
      </trkpt>
      <trkpt lat="42.92915" lon="1.20969">
        <ele>1070</ele>
        <time>2026-05-25T09:24:02.000Z</time>
      </trkpt>
      <trkpt lat="42.92914" lon="1.20971">
        <ele>1070</ele>
        <time>2026-05-25T09:24:03.000Z</time>
      </trkpt>
      <trkpt lat="42.92913" lon="1.20973">
        <ele>1070</ele>
        <time>2026-05-25T09:24:04.000Z</time>
      </trkpt>
      <trkpt lat="42.92912" lon="1.20974">
        <ele>1071</ele>
        <time>2026-05-25T09:24:05.000Z</time>
      </trkpt>
      <trkpt lat="42.92911" lon="1.20976">
        <ele>1071</ele>
        <time>2026-05-25T09:24:06.000Z</time>
      </trkpt>
      <trkpt lat="42.9291" lon="1.20978">
        <ele>1071</ele>
        <time>2026-05-25T09:24:07.000Z</time>
      </trkpt>
      <trkpt lat="42.92909" lon="1.20981">
        <ele>1071</ele>
        <time>2026-05-25T09:24:08.000Z</time>
      </trkpt>
      <trkpt lat="42.92909" lon="1.20982">
        <ele>1071</ele>
        <time>2026-05-25T09:24:09.000Z</time>
      </trkpt>
      <trkpt lat="42.92908" lon="1.20983">
        <ele>1071</ele>
        <time>2026-05-25T09:24:10.000Z</time>
      </trkpt>
      <trkpt lat="42.92907" lon="1.20984">
        <ele>1071</ele>
        <time>2026-05-25T09:24:11.000Z</time>
      </trkpt>
      <trkpt lat="42.92907" lon="1.20986">
        <ele>1071</ele>
        <time>2026-05-25T09:24:12.000Z</time>
      </trkpt>
      <trkpt lat="42.92906" lon="1.20988">
        <ele>1070</ele>
        <time>2026-05-25T09:24:13.000Z</time>
      </trkpt>
      <trkpt lat="42.92905" lon="1.20989">
        <ele>1071</ele>
        <time>2026-05-25T09:24:14.000Z</time>
      </trkpt>
      <trkpt lat="42.92905" lon="1.20991">
        <ele>1072</ele>
        <time>2026-05-25T09:24:15.000Z</time>
      </trkpt>
      <trkpt lat="42.92904" lon="1.20993">
        <ele>1072</ele>
        <time>2026-05-25T09:24:16.000Z</time>
      </trkpt>
      <trkpt lat="42.92903" lon="1.20996">
        <ele>1072</ele>
        <time>2026-05-25T09:24:17.000Z</time>
      </trkpt>
      <trkpt lat="42.92902" lon="1.20999">
        <ele>1072</ele>
        <time>2026-05-25T09:24:18.000Z</time>
      </trkpt>
      <trkpt lat="42.92901" lon="1.21001">
        <ele>1072</ele>
        <time>2026-05-25T09:24:19.000Z</time>
      </trkpt>
      <trkpt lat="42.92901" lon="1.21003">
        <ele>1073</ele>
        <time>2026-05-25T09:24:20.000Z</time>
      </trkpt>
      <trkpt lat="42.929" lon="1.21005">
        <ele>1073</ele>
        <time>2026-05-25T09:24:21.000Z</time>
      </trkpt>
      <trkpt lat="42.929" lon="1.21007">
        <ele>1073</ele>
        <time>2026-05-25T09:24:22.000Z</time>
      </trkpt>
      <trkpt lat="42.92899" lon="1.21009">
        <ele>1074</ele>
        <time>2026-05-25T09:24:23.000Z</time>
      </trkpt>
      <trkpt lat="42.92899" lon="1.21011">
        <ele>1074</ele>
        <time>2026-05-25T09:24:24.000Z</time>
      </trkpt>
      <trkpt lat="42.92898" lon="1.21014">
        <ele>1075</ele>
        <time>2026-05-25T09:24:25.000Z</time>
      </trkpt>
      <trkpt lat="42.92897" lon="1.21016">
        <ele>1075</ele>
        <time>2026-05-25T09:24:26.000Z</time>
      </trkpt>
      <trkpt lat="42.92896" lon="1.21018">
        <ele>1076</ele>
        <time>2026-05-25T09:24:27.000Z</time>
      </trkpt>
      <trkpt lat="42.92896" lon="1.21021">
        <ele>1077</ele>
        <time>2026-05-25T09:24:28.000Z</time>
      </trkpt>
      <trkpt lat="42.92895" lon="1.21023">
        <ele>1077</ele>
        <time>2026-05-25T09:24:29.000Z</time>
      </trkpt>
      <trkpt lat="42.92895" lon="1.21026">
        <ele>1077</ele>
        <time>2026-05-25T09:24:30.000Z</time>
      </trkpt>
      <trkpt lat="42.92894" lon="1.21027">
        <ele>1076</ele>
        <time>2026-05-25T09:24:31.000Z</time>
      </trkpt>
      <trkpt lat="42.92894" lon="1.21029">
        <ele>1077</ele>
        <time>2026-05-25T09:24:32.000Z</time>
      </trkpt>
      <trkpt lat="42.92894" lon="1.2103">
        <ele>1077</ele>
        <time>2026-05-25T09:24:33.000Z</time>
      </trkpt>
      <trkpt lat="42.92893" lon="1.21031">
        <ele>1078</ele>
        <time>2026-05-25T09:24:34.000Z</time>
      </trkpt>
      <trkpt lat="42.92892" lon="1.21033">
        <ele>1078</ele>
        <time>2026-05-25T09:24:35.000Z</time>
      </trkpt>
      <trkpt lat="42.92891" lon="1.21034">
        <ele>1079</ele>
        <time>2026-05-25T09:24:36.000Z</time>
      </trkpt>
      <trkpt lat="42.9289" lon="1.21037">
        <ele>1079</ele>
        <time>2026-05-25T09:24:37.000Z</time>
      </trkpt>
      <trkpt lat="42.92889" lon="1.21039">
        <ele>1079</ele>
        <time>2026-05-25T09:24:38.000Z</time>
      </trkpt>
      <trkpt lat="42.92888" lon="1.21041">
        <ele>1080</ele>
        <time>2026-05-25T09:24:39.000Z</time>
      </trkpt>
      <trkpt lat="42.92887" lon="1.21043">
        <ele>1080</ele>
        <time>2026-05-25T09:24:40.000Z</time>
      </trkpt>
      <trkpt lat="42.92887" lon="1.21045">
        <ele>1080</ele>
        <time>2026-05-25T09:24:41.000Z</time>
      </trkpt>
      <trkpt lat="42.92886" lon="1.21047">
        <ele>1080</ele>
        <time>2026-05-25T09:24:42.000Z</time>
      </trkpt>
      <trkpt lat="42.92886" lon="1.21049">
        <ele>1081</ele>
        <time>2026-05-25T09:24:43.000Z</time>
      </trkpt>
      <trkpt lat="42.92886" lon="1.2105">
        <ele>1082</ele>
        <time>2026-05-25T09:24:44.000Z</time>
      </trkpt>
      <trkpt lat="42.92885" lon="1.21052">
        <ele>1082</ele>
        <time>2026-05-25T09:24:45.000Z</time>
      </trkpt>
      <trkpt lat="42.92884" lon="1.21054">
        <ele>1083</ele>
        <time>2026-05-25T09:24:46.000Z</time>
      </trkpt>
      <trkpt lat="42.92884" lon="1.21056">
        <ele>1083</ele>
        <time>2026-05-25T09:24:47.000Z</time>
      </trkpt>
      <trkpt lat="42.92883" lon="1.21058">
        <ele>1084</ele>
        <time>2026-05-25T09:24:48.000Z</time>
      </trkpt>
      <trkpt lat="42.92882" lon="1.2106">
        <ele>1084</ele>
        <time>2026-05-25T09:24:49.000Z</time>
      </trkpt>
      <trkpt lat="42.92881" lon="1.21062">
        <ele>1085</ele>
        <time>2026-05-25T09:24:50.000Z</time>
      </trkpt>
      <trkpt lat="42.9288" lon="1.21064">
        <ele>1085</ele>
        <time>2026-05-25T09:24:51.000Z</time>
      </trkpt>
      <trkpt lat="42.92879" lon="1.21065">
        <ele>1086</ele>
        <time>2026-05-25T09:24:52.000Z</time>
      </trkpt>
      <trkpt lat="42.92879" lon="1.21067">
        <ele>1086</ele>
        <time>2026-05-25T09:24:53.000Z</time>
      </trkpt>
      <trkpt lat="42.92878" lon="1.21069">
        <ele>1086</ele>
        <time>2026-05-25T09:24:54.000Z</time>
      </trkpt>
      <trkpt lat="42.92878" lon="1.21071">
        <ele>1086</ele>
        <time>2026-05-25T09:24:55.000Z</time>
      </trkpt>
      <trkpt lat="42.92877" lon="1.21072">
        <ele>1086</ele>
        <time>2026-05-25T09:24:56.000Z</time>
      </trkpt>
      <trkpt lat="42.92876" lon="1.21074">
        <ele>1087</ele>
        <time>2026-05-25T09:24:57.000Z</time>
      </trkpt>
      <trkpt lat="42.92875" lon="1.21077">
        <ele>1086</ele>
        <time>2026-05-25T09:24:58.000Z</time>
      </trkpt>
      <trkpt lat="42.92874" lon="1.21079">
        <ele>1087</ele>
        <time>2026-05-25T09:24:59.000Z</time>
      </trkpt>
      <trkpt lat="42.92873" lon="1.21081">
        <ele>1087</ele>
        <time>2026-05-25T09:25:00.000Z</time>
      </trkpt>
      <trkpt lat="42.92872" lon="1.21083">
        <ele>1087</ele>
        <time>2026-05-25T09:25:01.000Z</time>
      </trkpt>
      <trkpt lat="42.92871" lon="1.21085">
        <ele>1087</ele>
        <time>2026-05-25T09:25:02.000Z</time>
      </trkpt>
      <trkpt lat="42.9287" lon="1.21087">
        <ele>1087</ele>
        <time>2026-05-25T09:25:03.000Z</time>
      </trkpt>
      <trkpt lat="42.9287" lon="1.21089">
        <ele>1087</ele>
        <time>2026-05-25T09:25:04.000Z</time>
      </trkpt>
      <trkpt lat="42.9287" lon="1.21092">
        <ele>1086</ele>
        <time>2026-05-25T09:25:05.000Z</time>
      </trkpt>
      <trkpt lat="42.9287" lon="1.21094">
        <ele>1084</ele>
        <time>2026-05-25T09:25:06.000Z</time>
      </trkpt>
      <trkpt lat="42.9287" lon="1.21095">
        <ele>1085</ele>
        <time>2026-05-25T09:25:07.000Z</time>
      </trkpt>
      <trkpt lat="42.9287" lon="1.21096">
        <ele>1084</ele>
        <time>2026-05-25T09:25:08.000Z</time>
      </trkpt>
      <trkpt lat="42.9287" lon="1.21097">
        <ele>1083</ele>
        <time>2026-05-25T09:25:09.000Z</time>
      </trkpt>
      <trkpt lat="42.92869" lon="1.21098">
        <ele>1083</ele>
        <time>2026-05-25T09:25:10.000Z</time>
      </trkpt>
      <trkpt lat="42.92869" lon="1.21098">
        <ele>1083</ele>
        <time>2026-05-25T09:25:11.000Z</time>
      </trkpt>
      <trkpt lat="42.9287" lon="1.21099">
        <ele>1083</ele>
        <time>2026-05-25T09:25:12.000Z</time>
      </trkpt>
      <trkpt lat="42.92869" lon="1.21099">
        <ele>1083</ele>
        <time>2026-05-25T09:25:13.000Z</time>
      </trkpt>
      <trkpt lat="42.92869" lon="1.211">
        <ele>1083</ele>
        <time>2026-05-25T09:25:14.000Z</time>
      </trkpt>
      <trkpt lat="42.92868" lon="1.21099">
        <ele>1082</ele>
        <time>2026-05-25T09:25:15.000Z</time>
      </trkpt>
      <trkpt lat="42.92868" lon="1.21099">
        <ele>1082</ele>
        <time>2026-05-25T09:25:16.000Z</time>
      </trkpt>
      <trkpt lat="42.92868" lon="1.21099">
        <ele>1082</ele>
        <time>2026-05-25T09:25:17.000Z</time>
      </trkpt>
      <trkpt lat="42.92868" lon="1.21098">
        <ele>1081</ele>
        <time>2026-05-25T09:25:18.000Z</time>
      </trkpt>
      <trkpt lat="42.92867" lon="1.21108">
        <ele>1091</ele>
        <time>2026-05-25T09:26:32.000Z</time>
      </trkpt>
      <trkpt lat="42.92867" lon="1.21108">
        <ele>1090</ele>
        <time>2026-05-25T09:26:33.000Z</time>
      </trkpt>
      <trkpt lat="42.92867" lon="1.2111">
        <ele>1091</ele>
        <time>2026-05-25T09:26:34.000Z</time>
      </trkpt>
      <trkpt lat="42.92865" lon="1.21109">
        <ele>1093</ele>
        <time>2026-05-25T09:27:36.000Z</time>
      </trkpt>
      <trkpt lat="42.92865" lon="1.21109">
        <ele>1093</ele>
        <time>2026-05-25T09:27:37.000Z</time>
      </trkpt>
      <trkpt lat="42.92865" lon="1.21108">
        <ele>1094</ele>
        <time>2026-05-25T09:27:38.000Z</time>
      </trkpt>
      <trkpt lat="42.92864" lon="1.21114">
        <ele>1099</ele>
        <time>2026-05-25T09:27:56.000Z</time>
      </trkpt>
      <trkpt lat="42.92865" lon="1.21115">
        <ele>1100</ele>
        <time>2026-05-25T09:27:57.000Z</time>
      </trkpt>
      <trkpt lat="42.92865" lon="1.21115">
        <ele>1100</ele>
        <time>2026-05-25T09:27:58.000Z</time>
      </trkpt>
      <trkpt lat="42.92864" lon="1.21115">
        <ele>1100</ele>
        <time>2026-05-25T09:27:59.000Z</time>
      </trkpt>
      <trkpt lat="42.92864" lon="1.21113">
        <ele>1100</ele>
        <time>2026-05-25T09:28:00.000Z</time>
      </trkpt>
      <trkpt lat="42.92865" lon="1.21112">
        <ele>1100</ele>
        <time>2026-05-25T09:28:01.000Z</time>
      </trkpt>
      <trkpt lat="42.92865" lon="1.21112">
        <ele>1101</ele>
        <time>2026-05-25T09:28:02.000Z</time>
      </trkpt>
      <trkpt lat="42.92865" lon="1.21111">
        <ele>1101</ele>
        <time>2026-05-25T09:28:03.000Z</time>
      </trkpt>
      <trkpt lat="42.92865" lon="1.2111">
        <ele>1100</ele>
        <time>2026-05-25T09:28:04.000Z</time>
      </trkpt>
      <trkpt lat="42.92866" lon="1.21109">
        <ele>1099</ele>
        <time>2026-05-25T09:28:05.000Z</time>
      </trkpt>
      <trkpt lat="42.92866" lon="1.21108">
        <ele>1099</ele>
        <time>2026-05-25T09:28:06.000Z</time>
      </trkpt>
      <trkpt lat="42.92866" lon="1.21109">
        <ele>1099</ele>
        <time>2026-05-25T09:28:07.000Z</time>
      </trkpt>
      <trkpt lat="42.92866" lon="1.21108">
        <ele>1099</ele>
        <time>2026-05-25T09:28:08.000Z</time>
      </trkpt>
      <trkpt lat="42.92866" lon="1.21108">
        <ele>1099</ele>
        <time>2026-05-25T09:28:09.000Z</time>
      </trkpt>
      <trkpt lat="42.92866" lon="1.21108">
        <ele>1100</ele>
        <time>2026-05-25T09:28:10.000Z</time>
      </trkpt>
      <trkpt lat="42.92866" lon="1.21108">
        <ele>1101</ele>
        <time>2026-05-25T09:28:11.000Z</time>
      </trkpt>
      <trkpt lat="42.92866" lon="1.21107">
        <ele>1100</ele>
        <time>2026-05-25T09:28:12.000Z</time>
      </trkpt>
      <trkpt lat="42.92866" lon="1.21108">
        <ele>1100</ele>
        <time>2026-05-25T09:28:13.000Z</time>
      </trkpt>
      <trkpt lat="42.92866" lon="1.21108">
        <ele>1100</ele>
        <time>2026-05-25T09:28:14.000Z</time>
      </trkpt>
      <trkpt lat="42.92866" lon="1.21108">
        <ele>1099</ele>
        <time>2026-05-25T09:28:15.000Z</time>
      </trkpt>
      <trkpt lat="42.92867" lon="1.21108">
        <ele>1099</ele>
        <time>2026-05-25T09:28:16.000Z</time>
      </trkpt>
      <trkpt lat="42.92867" lon="1.21109">
        <ele>1098</ele>
        <time>2026-05-25T09:28:17.000Z</time>
      </trkpt>
      <trkpt lat="42.92868" lon="1.21107">
        <ele>1099</ele>
        <time>2026-05-25T09:29:02.000Z</time>
      </trkpt>
      <trkpt lat="42.92867" lon="1.21107">
        <ele>1098</ele>
        <time>2026-05-25T09:29:03.000Z</time>
      </trkpt>
      <trkpt lat="42.92868" lon="1.21108">
        <ele>1098</ele>
        <time>2026-05-25T09:29:04.000Z</time>
      </trkpt>
      <trkpt lat="42.92868" lon="1.21107">
        <ele>1098</ele>
        <time>2026-05-25T09:29:05.000Z</time>
      </trkpt>
      <trkpt lat="42.92868" lon="1.21107">
        <ele>1098</ele>
        <time>2026-05-25T09:29:06.000Z</time>
      </trkpt>
      <trkpt lat="42.92868" lon="1.21107">
        <ele>1098</ele>
        <time>2026-05-25T09:29:07.000Z</time>
      </trkpt>
      <trkpt lat="42.92868" lon="1.21108">
        <ele>1098</ele>
        <time>2026-05-25T09:29:08.000Z</time>
      </trkpt>
      <trkpt lat="42.92868" lon="1.21109">
        <ele>1099</ele>
        <time>2026-05-25T09:29:09.000Z</time>
      </trkpt>
      <trkpt lat="42.92867" lon="1.21109">
        <ele>1099</ele>
        <time>2026-05-25T09:29:10.000Z</time>
      </trkpt>
      <trkpt lat="42.92867" lon="1.21109">
        <ele>1099</ele>
        <time>2026-05-25T09:29:11.000Z</time>
      </trkpt>
      <trkpt lat="42.92868" lon="1.21109">
        <ele>1099</ele>
        <time>2026-05-25T09:29:12.000Z</time>
      </trkpt>
      <trkpt lat="42.92868" lon="1.21109">
        <ele>1099</ele>
        <time>2026-05-25T09:29:13.000Z</time>
      </trkpt>
      <trkpt lat="42.92869" lon="1.21108">
        <ele>1098</ele>
        <time>2026-05-25T09:29:14.000Z</time>
      </trkpt>
      <trkpt lat="42.92869" lon="1.21109">
        <ele>1098</ele>
        <time>2026-05-25T09:29:15.000Z</time>
      </trkpt>
      <trkpt lat="42.92869" lon="1.21109">
        <ele>1097</ele>
        <time>2026-05-25T09:29:16.000Z</time>
      </trkpt>
      <trkpt lat="42.92869" lon="1.2111">
        <ele>1097</ele>
        <time>2026-05-25T09:29:17.000Z</time>
      </trkpt>
      <trkpt lat="42.92868" lon="1.21111">
        <ele>1097</ele>
        <time>2026-05-25T09:29:18.000Z</time>
      </trkpt>
      <trkpt lat="42.92868" lon="1.21109">
        <ele>1097</ele>
        <time>2026-05-25T09:29:19.000Z</time>
      </trkpt>
      <trkpt lat="42.92868" lon="1.21108">
        <ele>1097</ele>
        <time>2026-05-25T09:29:20.000Z</time>
      </trkpt>
      <trkpt lat="42.92868" lon="1.21107">
        <ele>1096</ele>
        <time>2026-05-25T09:29:21.000Z</time>
      </trkpt>
      <trkpt lat="42.92866" lon="1.21105">
        <ele>1095</ele>
        <time>2026-05-25T09:29:22.000Z</time>
      </trkpt>
      <trkpt lat="42.92866" lon="1.21107">
        <ele>1096</ele>
        <time>2026-05-25T09:29:37.000Z</time>
      </trkpt>
      <trkpt lat="42.92866" lon="1.21108">
        <ele>1096</ele>
        <time>2026-05-25T09:29:38.000Z</time>
      </trkpt>
      <trkpt lat="42.92866" lon="1.21108">
        <ele>1096</ele>
        <time>2026-05-25T09:29:39.000Z</time>
      </trkpt>
      <trkpt lat="42.92866" lon="1.21108">
        <ele>1095</ele>
        <time>2026-05-25T09:29:40.000Z</time>
      </trkpt>
      <trkpt lat="42.92866" lon="1.21108">
        <ele>1095</ele>
        <time>2026-05-25T09:29:41.000Z</time>
      </trkpt>
      <trkpt lat="42.92866" lon="1.21109">
        <ele>1096</ele>
        <time>2026-05-25T09:29:42.000Z</time>
      </trkpt>
      <trkpt lat="42.92865" lon="1.21108">
        <ele>1096</ele>
        <time>2026-05-25T09:29:43.000Z</time>
      </trkpt>
      <trkpt lat="42.92865" lon="1.21107">
        <ele>1096</ele>
        <time>2026-05-25T09:29:44.000Z</time>
      </trkpt>
      <trkpt lat="42.92865" lon="1.21108">
        <ele>1096</ele>
        <time>2026-05-25T09:29:45.000Z</time>
      </trkpt>
      <trkpt lat="42.92865" lon="1.21108">
        <ele>1096</ele>
        <time>2026-05-25T09:29:46.000Z</time>
      </trkpt>
      <trkpt lat="42.92866" lon="1.2111">
        <ele>1097</ele>
        <time>2026-05-25T09:29:47.000Z</time>
      </trkpt>
      <trkpt lat="42.92868" lon="1.21112">
        <ele>1098</ele>
        <time>2026-05-25T09:29:48.000Z</time>
      </trkpt>
      <trkpt lat="42.92872" lon="1.21112">
        <ele>1099</ele>
        <time>2026-05-25T09:29:49.000Z</time>
      </trkpt>
      <trkpt lat="42.92875" lon="1.21113">
        <ele>1099</ele>
        <time>2026-05-25T09:29:50.000Z</time>
      </trkpt>
      <trkpt lat="42.92879" lon="1.21112">
        <ele>1099</ele>
        <time>2026-05-25T09:29:51.000Z</time>
      </trkpt>
      <trkpt lat="42.92883" lon="1.21113">
        <ele>1101</ele>
        <time>2026-05-25T09:29:52.000Z</time>
      </trkpt>
      <trkpt lat="42.92888" lon="1.21111">
        <ele>1102</ele>
        <time>2026-05-25T09:29:53.000Z</time>
      </trkpt>
      <trkpt lat="42.92893" lon="1.2111">
        <ele>1102</ele>
        <time>2026-05-25T09:29:54.000Z</time>
      </trkpt>
      <trkpt lat="42.92898" lon="1.21109">
        <ele>1102</ele>
        <time>2026-05-25T09:29:55.000Z</time>
      </trkpt>
      <trkpt lat="42.92904" lon="1.21109">
        <ele>1102</ele>
        <time>2026-05-25T09:29:56.000Z</time>
      </trkpt>
      <trkpt lat="42.92911" lon="1.2111">
        <ele>1101</ele>
        <time>2026-05-25T09:29:57.000Z</time>
      </trkpt>
      <trkpt lat="42.92917" lon="1.21112">
        <ele>1101</ele>
        <time>2026-05-25T09:29:58.000Z</time>
      </trkpt>
      <trkpt lat="42.92924" lon="1.21114">
        <ele>1101</ele>
        <time>2026-05-25T09:29:59.000Z</time>
      </trkpt>
      <trkpt lat="42.92931" lon="1.21116">
        <ele>1101</ele>
        <time>2026-05-25T09:30:00.000Z</time>
      </trkpt>
      <trkpt lat="42.92937" lon="1.21116">
        <ele>1101</ele>
        <time>2026-05-25T09:30:01.000Z</time>
      </trkpt>
      <trkpt lat="42.92943" lon="1.21117">
        <ele>1100</ele>
        <time>2026-05-25T09:30:02.000Z</time>
      </trkpt>
      <trkpt lat="42.92949" lon="1.21117">
        <ele>1100</ele>
        <time>2026-05-25T09:30:03.000Z</time>
      </trkpt>
      <trkpt lat="42.92954" lon="1.21118">
        <ele>1100</ele>
        <time>2026-05-25T09:30:04.000Z</time>
      </trkpt>
      <trkpt lat="42.92959" lon="1.21118">
        <ele>1100</ele>
        <time>2026-05-25T09:30:05.000Z</time>
      </trkpt>
      <trkpt lat="42.92963" lon="1.2112">
        <ele>1100</ele>
        <time>2026-05-25T09:30:06.000Z</time>
      </trkpt>
      <trkpt lat="42.92967" lon="1.21121">
        <ele>1100</ele>
        <time>2026-05-25T09:30:07.000Z</time>
      </trkpt>
      <trkpt lat="42.92972" lon="1.21122">
        <ele>1100</ele>
        <time>2026-05-25T09:30:08.000Z</time>
      </trkpt>
      <trkpt lat="42.92978" lon="1.21124">
        <ele>1100</ele>
        <time>2026-05-25T09:30:09.000Z</time>
      </trkpt>
      <trkpt lat="42.92982" lon="1.21127">
        <ele>1101</ele>
        <time>2026-05-25T09:30:10.000Z</time>
      </trkpt>
      <trkpt lat="42.92986" lon="1.21131">
        <ele>1100</ele>
        <time>2026-05-25T09:30:11.000Z</time>
      </trkpt>
      <trkpt lat="42.92989" lon="1.21134">
        <ele>1101</ele>
        <time>2026-05-25T09:30:12.000Z</time>
      </trkpt>
      <trkpt lat="42.92993" lon="1.21138">
        <ele>1101</ele>
        <time>2026-05-25T09:30:13.000Z</time>
      </trkpt>
      <trkpt lat="42.92996" lon="1.21142">
        <ele>1102</ele>
        <time>2026-05-25T09:30:14.000Z</time>
      </trkpt>
      <trkpt lat="42.93" lon="1.21147">
        <ele>1102</ele>
        <time>2026-05-25T09:30:15.000Z</time>
      </trkpt>
      <trkpt lat="42.93004" lon="1.21151">
        <ele>1103</ele>
        <time>2026-05-25T09:30:16.000Z</time>
      </trkpt>
      <trkpt lat="42.93008" lon="1.21155">
        <ele>1104</ele>
        <time>2026-05-25T09:30:17.000Z</time>
      </trkpt>
      <trkpt lat="42.93011" lon="1.21157">
        <ele>1104</ele>
        <time>2026-05-25T09:30:18.000Z</time>
      </trkpt>
      <trkpt lat="42.93014" lon="1.21159">
        <ele>1105</ele>
        <time>2026-05-25T09:30:19.000Z</time>
      </trkpt>
      <trkpt lat="42.93017" lon="1.21162">
        <ele>1105</ele>
        <time>2026-05-25T09:30:20.000Z</time>
      </trkpt>
      <trkpt lat="42.93022" lon="1.21166">
        <ele>1105</ele>
        <time>2026-05-25T09:30:21.000Z</time>
      </trkpt>
      <trkpt lat="42.93026" lon="1.21169">
        <ele>1104</ele>
        <time>2026-05-25T09:30:22.000Z</time>
      </trkpt>
      <trkpt lat="42.93031" lon="1.21173">
        <ele>1104</ele>
        <time>2026-05-25T09:30:23.000Z</time>
      </trkpt>
      <trkpt lat="42.93035" lon="1.21177">
        <ele>1104</ele>
        <time>2026-05-25T09:30:24.000Z</time>
      </trkpt>
      <trkpt lat="42.9304" lon="1.21181">
        <ele>1103</ele>
        <time>2026-05-25T09:30:25.000Z</time>
      </trkpt>
      <trkpt lat="42.93044" lon="1.21186">
        <ele>1102</ele>
        <time>2026-05-25T09:30:26.000Z</time>
      </trkpt>
      <trkpt lat="42.93048" lon="1.21191">
        <ele>1102</ele>
        <time>2026-05-25T09:30:27.000Z</time>
      </trkpt>
      <trkpt lat="42.93053" lon="1.21197">
        <ele>1102</ele>
        <time>2026-05-25T09:30:28.000Z</time>
      </trkpt>
      <trkpt lat="42.93056" lon="1.21202">
        <ele>1102</ele>
        <time>2026-05-25T09:30:29.000Z</time>
      </trkpt>
      <trkpt lat="42.93059" lon="1.21208">
        <ele>1102</ele>
        <time>2026-05-25T09:30:30.000Z</time>
      </trkpt>
      <trkpt lat="42.93062" lon="1.21212">
        <ele>1102</ele>
        <time>2026-05-25T09:30:31.000Z</time>
      </trkpt>
      <trkpt lat="42.93065" lon="1.21218">
        <ele>1102</ele>
        <time>2026-05-25T09:30:32.000Z</time>
      </trkpt>
      <trkpt lat="42.93068" lon="1.21222">
        <ele>1102</ele>
        <time>2026-05-25T09:30:33.000Z</time>
      </trkpt>
      <trkpt lat="42.9307" lon="1.21226">
        <ele>1102</ele>
        <time>2026-05-25T09:30:34.000Z</time>
      </trkpt>
      <trkpt lat="42.93073" lon="1.21231">
        <ele>1102</ele>
        <time>2026-05-25T09:30:35.000Z</time>
      </trkpt>
      <trkpt lat="42.93076" lon="1.21236">
        <ele>1102</ele>
        <time>2026-05-25T09:30:36.000Z</time>
      </trkpt>
      <trkpt lat="42.93078" lon="1.2124">
        <ele>1103</ele>
        <time>2026-05-25T09:30:37.000Z</time>
      </trkpt>
      <trkpt lat="42.93081" lon="1.21244">
        <ele>1103</ele>
        <time>2026-05-25T09:30:38.000Z</time>
      </trkpt>
      <trkpt lat="42.93083" lon="1.21246">
        <ele>1104</ele>
        <time>2026-05-25T09:30:39.000Z</time>
      </trkpt>
      <trkpt lat="42.93086" lon="1.21249">
        <ele>1105</ele>
        <time>2026-05-25T09:30:40.000Z</time>
      </trkpt>
      <trkpt lat="42.93088" lon="1.21253">
        <ele>1105</ele>
        <time>2026-05-25T09:30:41.000Z</time>
      </trkpt>
      <trkpt lat="42.9309" lon="1.21256">
        <ele>1105</ele>
        <time>2026-05-25T09:30:42.000Z</time>
      </trkpt>
      <trkpt lat="42.93092" lon="1.2126">
        <ele>1106</ele>
        <time>2026-05-25T09:30:43.000Z</time>
      </trkpt>
      <trkpt lat="42.93094" lon="1.21263">
        <ele>1107</ele>
        <time>2026-05-25T09:30:44.000Z</time>
      </trkpt>
      <trkpt lat="42.93097" lon="1.21266">
        <ele>1107</ele>
        <time>2026-05-25T09:30:45.000Z</time>
      </trkpt>
      <trkpt lat="42.93099" lon="1.21268">
        <ele>1108</ele>
        <time>2026-05-25T09:30:46.000Z</time>
      </trkpt>
      <trkpt lat="42.93101" lon="1.21271">
        <ele>1108</ele>
        <time>2026-05-25T09:30:47.000Z</time>
      </trkpt>
      <trkpt lat="42.93103" lon="1.21274">
        <ele>1108</ele>
        <time>2026-05-25T09:30:48.000Z</time>
      </trkpt>
      <trkpt lat="42.93105" lon="1.21278">
        <ele>1109</ele>
        <time>2026-05-25T09:30:49.000Z</time>
      </trkpt>
      <trkpt lat="42.93107" lon="1.21282">
        <ele>1109</ele>
        <time>2026-05-25T09:30:50.000Z</time>
      </trkpt>
      <trkpt lat="42.93109" lon="1.21285">
        <ele>1109</ele>
        <time>2026-05-25T09:30:51.000Z</time>
      </trkpt>
      <trkpt lat="42.93111" lon="1.21287">
        <ele>1110</ele>
        <time>2026-05-25T09:30:52.000Z</time>
      </trkpt>
      <trkpt lat="42.93113" lon="1.21289">
        <ele>1110</ele>
        <time>2026-05-25T09:30:53.000Z</time>
      </trkpt>
      <trkpt lat="42.93115" lon="1.21291">
        <ele>1110</ele>
        <time>2026-05-25T09:30:54.000Z</time>
      </trkpt>
      <trkpt lat="42.93117" lon="1.21293">
        <ele>1111</ele>
        <time>2026-05-25T09:30:55.000Z</time>
      </trkpt>
      <trkpt lat="42.93119" lon="1.21296">
        <ele>1111</ele>
        <time>2026-05-25T09:30:56.000Z</time>
      </trkpt>
      <trkpt lat="42.93121" lon="1.21299">
        <ele>1111</ele>
        <time>2026-05-25T09:30:57.000Z</time>
      </trkpt>
      <trkpt lat="42.93124" lon="1.21303">
        <ele>1111</ele>
        <time>2026-05-25T09:30:58.000Z</time>
      </trkpt>
      <trkpt lat="42.93126" lon="1.21306">
        <ele>1111</ele>
        <time>2026-05-25T09:30:59.000Z</time>
      </trkpt>
      <trkpt lat="42.93128" lon="1.21309">
        <ele>1111</ele>
        <time>2026-05-25T09:31:00.000Z</time>
      </trkpt>
      <trkpt lat="42.9313" lon="1.21313">
        <ele>1112</ele>
        <time>2026-05-25T09:31:01.000Z</time>
      </trkpt>
      <trkpt lat="42.93131" lon="1.21316">
        <ele>1112</ele>
        <time>2026-05-25T09:31:02.000Z</time>
      </trkpt>
      <trkpt lat="42.93133" lon="1.2132">
        <ele>1112</ele>
        <time>2026-05-25T09:31:03.000Z</time>
      </trkpt>
      <trkpt lat="42.93134" lon="1.21323">
        <ele>1112</ele>
        <time>2026-05-25T09:31:04.000Z</time>
      </trkpt>
      <trkpt lat="42.93136" lon="1.21325">
        <ele>1112</ele>
        <time>2026-05-25T09:31:05.000Z</time>
      </trkpt>
      <trkpt lat="42.93139" lon="1.21329">
        <ele>1113</ele>
        <time>2026-05-25T09:31:06.000Z</time>
      </trkpt>
      <trkpt lat="42.93143" lon="1.21332">
        <ele>1112</ele>
        <time>2026-05-25T09:31:07.000Z</time>
      </trkpt>
      <trkpt lat="42.93146" lon="1.21337">
        <ele>1111</ele>
        <time>2026-05-25T09:31:08.000Z</time>
      </trkpt>
      <trkpt lat="42.9315" lon="1.21342">
        <ele>1111</ele>
        <time>2026-05-25T09:31:09.000Z</time>
      </trkpt>
      <trkpt lat="42.93153" lon="1.21346">
        <ele>1111</ele>
        <time>2026-05-25T09:31:10.000Z</time>
      </trkpt>
      <trkpt lat="42.93157" lon="1.2135">
        <ele>1110</ele>
        <time>2026-05-25T09:31:11.000Z</time>
      </trkpt>
      <trkpt lat="42.93161" lon="1.21354">
        <ele>1109</ele>
        <time>2026-05-25T09:31:12.000Z</time>
      </trkpt>
      <trkpt lat="42.93165" lon="1.21357">
        <ele>1109</ele>
        <time>2026-05-25T09:31:13.000Z</time>
      </trkpt>
      <trkpt lat="42.93168" lon="1.21361">
        <ele>1108</ele>
        <time>2026-05-25T09:31:14.000Z</time>
      </trkpt>
      <trkpt lat="42.93173" lon="1.21365">
        <ele>1108</ele>
        <time>2026-05-25T09:31:15.000Z</time>
      </trkpt>
      <trkpt lat="42.93178" lon="1.2137">
        <ele>1107</ele>
        <time>2026-05-25T09:31:16.000Z</time>
      </trkpt>
      <trkpt lat="42.93183" lon="1.21374">
        <ele>1106</ele>
        <time>2026-05-25T09:31:17.000Z</time>
      </trkpt>
      <trkpt lat="42.93187" lon="1.21378">
        <ele>1105</ele>
        <time>2026-05-25T09:31:18.000Z</time>
      </trkpt>
      <trkpt lat="42.93191" lon="1.21382">
        <ele>1103</ele>
        <time>2026-05-25T09:31:19.000Z</time>
      </trkpt>
      <trkpt lat="42.93194" lon="1.21385">
        <ele>1102</ele>
        <time>2026-05-25T09:31:20.000Z</time>
      </trkpt>
      <trkpt lat="42.93197" lon="1.21389">
        <ele>1101</ele>
        <time>2026-05-25T09:31:21.000Z</time>
      </trkpt>
      <trkpt lat="42.93201" lon="1.21393">
        <ele>1100</ele>
        <time>2026-05-25T09:31:22.000Z</time>
      </trkpt>
      <trkpt lat="42.93205" lon="1.21399">
        <ele>1099</ele>
        <time>2026-05-25T09:31:23.000Z</time>
      </trkpt>
      <trkpt lat="42.93207" lon="1.21405">
        <ele>1098</ele>
        <time>2026-05-25T09:31:24.000Z</time>
      </trkpt>
      <trkpt lat="42.93209" lon="1.21411">
        <ele>1099</ele>
        <time>2026-05-25T09:31:25.000Z</time>
      </trkpt>
      <trkpt lat="42.9321" lon="1.21415">
        <ele>1097</ele>
        <time>2026-05-25T09:31:26.000Z</time>
      </trkpt>
      <trkpt lat="42.93212" lon="1.21421">
        <ele>1094</ele>
        <time>2026-05-25T09:31:27.000Z</time>
      </trkpt>
      <trkpt lat="42.93215" lon="1.21425">
        <ele>1093</ele>
        <time>2026-05-25T09:31:28.000Z</time>
      </trkpt>
      <trkpt lat="42.93218" lon="1.21431">
        <ele>1091</ele>
        <time>2026-05-25T09:31:29.000Z</time>
      </trkpt>
      <trkpt lat="42.93223" lon="1.21438">
        <ele>1088</ele>
        <time>2026-05-25T09:31:30.000Z</time>
      </trkpt>
      <trkpt lat="42.93228" lon="1.21445">
        <ele>1086</ele>
        <time>2026-05-25T09:31:31.000Z</time>
      </trkpt>
      <trkpt lat="42.93233" lon="1.2145">
        <ele>1083</ele>
        <time>2026-05-25T09:31:32.000Z</time>
      </trkpt>
      <trkpt lat="42.93239" lon="1.21454">
        <ele>1080</ele>
        <time>2026-05-25T09:31:33.000Z</time>
      </trkpt>
      <trkpt lat="42.93243" lon="1.2146">
        <ele>1079</ele>
        <time>2026-05-25T09:31:34.000Z</time>
      </trkpt>
      <trkpt lat="42.93242" lon="1.21467">
        <ele>1078</ele>
        <time>2026-05-25T09:31:35.000Z</time>
      </trkpt>
      <trkpt lat="42.9324" lon="1.21475">
        <ele>1078</ele>
        <time>2026-05-25T09:31:36.000Z</time>
      </trkpt>
      <trkpt lat="42.93242" lon="1.21482">
        <ele>1077</ele>
        <time>2026-05-25T09:31:37.000Z</time>
      </trkpt>
      <trkpt lat="42.93247" lon="1.21487">
        <ele>1076</ele>
        <time>2026-05-25T09:31:38.000Z</time>
      </trkpt>
      <trkpt lat="42.93252" lon="1.21487">
        <ele>1075</ele>
        <time>2026-05-25T09:31:39.000Z</time>
      </trkpt>
      <trkpt lat="42.93257" lon="1.21489">
        <ele>1073</ele>
        <time>2026-05-25T09:31:40.000Z</time>
      </trkpt>
      <trkpt lat="42.9326" lon="1.2149">
        <ele>1071</ele>
        <time>2026-05-25T09:31:41.000Z</time>
      </trkpt>
      <trkpt lat="42.93264" lon="1.21491">
        <ele>1071</ele>
        <time>2026-05-25T09:31:42.000Z</time>
      </trkpt>
      <trkpt lat="42.93269" lon="1.21494">
        <ele>1071</ele>
        <time>2026-05-25T09:31:43.000Z</time>
      </trkpt>
      <trkpt lat="42.93273" lon="1.21499">
        <ele>1071</ele>
        <time>2026-05-25T09:31:44.000Z</time>
      </trkpt>
      <trkpt lat="42.93276" lon="1.21506">
        <ele>1071</ele>
        <time>2026-05-25T09:31:45.000Z</time>
      </trkpt>
      <trkpt lat="42.93277" lon="1.21514">
        <ele>1071</ele>
        <time>2026-05-25T09:31:46.000Z</time>
      </trkpt>
      <trkpt lat="42.93278" lon="1.21521">
        <ele>1071</ele>
        <time>2026-05-25T09:31:47.000Z</time>
      </trkpt>
      <trkpt lat="42.93281" lon="1.21526">
        <ele>1072</ele>
        <time>2026-05-25T09:31:48.000Z</time>
      </trkpt>
      <trkpt lat="42.93284" lon="1.2153">
        <ele>1072</ele>
        <time>2026-05-25T09:31:49.000Z</time>
      </trkpt>
      <trkpt lat="42.93287" lon="1.21534">
        <ele>1072</ele>
        <time>2026-05-25T09:31:50.000Z</time>
      </trkpt>
      <trkpt lat="42.93291" lon="1.21541">
        <ele>1072</ele>
        <time>2026-05-25T09:31:51.000Z</time>
      </trkpt>
      <trkpt lat="42.93296" lon="1.21545">
        <ele>1072</ele>
        <time>2026-05-25T09:31:52.000Z</time>
      </trkpt>
      <trkpt lat="42.93298" lon="1.21547">
        <ele>1072</ele>
        <time>2026-05-25T09:31:53.000Z</time>
      </trkpt>
      <trkpt lat="42.93301" lon="1.2155">
        <ele>1071</ele>
        <time>2026-05-25T09:31:54.000Z</time>
      </trkpt>
      <trkpt lat="42.93303" lon="1.21553">
        <ele>1070</ele>
        <time>2026-05-25T09:31:55.000Z</time>
      </trkpt>
      <trkpt lat="42.93306" lon="1.21557">
        <ele>1070</ele>
        <time>2026-05-25T09:31:56.000Z</time>
      </trkpt>
      <trkpt lat="42.93308" lon="1.21561">
        <ele>1070</ele>
        <time>2026-05-25T09:31:57.000Z</time>
      </trkpt>
      <trkpt lat="42.93311" lon="1.21564">
        <ele>1070</ele>
        <time>2026-05-25T09:31:58.000Z</time>
      </trkpt>
      <trkpt lat="42.93314" lon="1.21567">
        <ele>1071</ele>
        <time>2026-05-25T09:31:59.000Z</time>
      </trkpt>
      <trkpt lat="42.93316" lon="1.21569">
        <ele>1071</ele>
        <time>2026-05-25T09:32:00.000Z</time>
      </trkpt>
      <trkpt lat="42.93317" lon="1.21572">
        <ele>1071</ele>
        <time>2026-05-25T09:32:01.000Z</time>
      </trkpt>
      <trkpt lat="42.93319" lon="1.21575">
        <ele>1072</ele>
        <time>2026-05-25T09:32:02.000Z</time>
      </trkpt>
      <trkpt lat="42.93321" lon="1.21578">
        <ele>1072</ele>
        <time>2026-05-25T09:32:03.000Z</time>
      </trkpt>
      <trkpt lat="42.93323" lon="1.21581">
        <ele>1073</ele>
        <time>2026-05-25T09:32:04.000Z</time>
      </trkpt>
      <trkpt lat="42.93325" lon="1.21582">
        <ele>1072</ele>
        <time>2026-05-25T09:32:05.000Z</time>
      </trkpt>
      <trkpt lat="42.93326" lon="1.21585">
        <ele>1073</ele>
        <time>2026-05-25T09:32:06.000Z</time>
      </trkpt>
      <trkpt lat="42.93328" lon="1.21587">
        <ele>1074</ele>
        <time>2026-05-25T09:32:07.000Z</time>
      </trkpt>
      <trkpt lat="42.93329" lon="1.21589">
        <ele>1074</ele>
        <time>2026-05-25T09:32:08.000Z</time>
      </trkpt>
      <trkpt lat="42.93331" lon="1.21591">
        <ele>1073</ele>
        <time>2026-05-25T09:32:09.000Z</time>
      </trkpt>
      <trkpt lat="42.93333" lon="1.21592">
        <ele>1073</ele>
        <time>2026-05-25T09:32:10.000Z</time>
      </trkpt>
      <trkpt lat="42.93335" lon="1.21593">
        <ele>1074</ele>
        <time>2026-05-25T09:32:11.000Z</time>
      </trkpt>
      <trkpt lat="42.93337" lon="1.21594">
        <ele>1075</ele>
        <time>2026-05-25T09:32:12.000Z</time>
      </trkpt>
      <trkpt lat="42.93338" lon="1.21596">
        <ele>1076</ele>
        <time>2026-05-25T09:32:13.000Z</time>
      </trkpt>
      <trkpt lat="42.93341" lon="1.21597">
        <ele>1077</ele>
        <time>2026-05-25T09:32:14.000Z</time>
      </trkpt>
      <trkpt lat="42.93343" lon="1.21598">
        <ele>1079</ele>
        <time>2026-05-25T09:32:15.000Z</time>
      </trkpt>
      <trkpt lat="42.93345" lon="1.21599">
        <ele>1080</ele>
        <time>2026-05-25T09:32:16.000Z</time>
      </trkpt>
      <trkpt lat="42.93347" lon="1.21601">
        <ele>1081</ele>
        <time>2026-05-25T09:32:17.000Z</time>
      </trkpt>
      <trkpt lat="42.93349" lon="1.21604">
        <ele>1081</ele>
        <time>2026-05-25T09:32:18.000Z</time>
      </trkpt>
      <trkpt lat="42.93351" lon="1.21607">
        <ele>1081</ele>
        <time>2026-05-25T09:32:19.000Z</time>
      </trkpt>
      <trkpt lat="42.93354" lon="1.21609">
        <ele>1082</ele>
        <time>2026-05-25T09:32:20.000Z</time>
      </trkpt>
      <trkpt lat="42.93357" lon="1.2161">
        <ele>1082</ele>
        <time>2026-05-25T09:32:21.000Z</time>
      </trkpt>
      <trkpt lat="42.93361" lon="1.21612">
        <ele>1081</ele>
        <time>2026-05-25T09:32:22.000Z</time>
      </trkpt>
      <trkpt lat="42.93363" lon="1.21614">
        <ele>1081</ele>
        <time>2026-05-25T09:32:23.000Z</time>
      </trkpt>
      <trkpt lat="42.93365" lon="1.21616">
        <ele>1081</ele>
        <time>2026-05-25T09:32:24.000Z</time>
      </trkpt>
      <trkpt lat="42.93367" lon="1.21619">
        <ele>1080</ele>
        <time>2026-05-25T09:32:25.000Z</time>
      </trkpt>
      <trkpt lat="42.9337" lon="1.21622">
        <ele>1080</ele>
        <time>2026-05-25T09:32:26.000Z</time>
      </trkpt>
      <trkpt lat="42.93372" lon="1.21624">
        <ele>1080</ele>
        <time>2026-05-25T09:32:27.000Z</time>
      </trkpt>
      <trkpt lat="42.93374" lon="1.21627">
        <ele>1080</ele>
        <time>2026-05-25T09:32:28.000Z</time>
      </trkpt>
      <trkpt lat="42.93376" lon="1.2163">
        <ele>1079</ele>
        <time>2026-05-25T09:32:29.000Z</time>
      </trkpt>
      <trkpt lat="42.93378" lon="1.21633">
        <ele>1079</ele>
        <time>2026-05-25T09:32:30.000Z</time>
      </trkpt>
      <trkpt lat="42.9338" lon="1.21637">
        <ele>1079</ele>
        <time>2026-05-25T09:32:31.000Z</time>
      </trkpt>
      <trkpt lat="42.93382" lon="1.21641">
        <ele>1080</ele>
        <time>2026-05-25T09:32:32.000Z</time>
      </trkpt>
      <trkpt lat="42.93384" lon="1.21646">
        <ele>1080</ele>
        <time>2026-05-25T09:32:33.000Z</time>
      </trkpt>
      <trkpt lat="42.93387" lon="1.21652">
        <ele>1080</ele>
        <time>2026-05-25T09:32:34.000Z</time>
      </trkpt>
      <trkpt lat="42.9339" lon="1.21659">
        <ele>1080</ele>
        <time>2026-05-25T09:32:35.000Z</time>
      </trkpt>
      <trkpt lat="42.93392" lon="1.21663">
        <ele>1078</ele>
        <time>2026-05-25T09:32:36.000Z</time>
      </trkpt>
      <trkpt lat="42.93396" lon="1.21669">
        <ele>1078</ele>
        <time>2026-05-25T09:32:37.000Z</time>
      </trkpt>
      <trkpt lat="42.93399" lon="1.21672">
        <ele>1078</ele>
        <time>2026-05-25T09:32:38.000Z</time>
      </trkpt>
      <trkpt lat="42.93401" lon="1.21675">
        <ele>1078</ele>
        <time>2026-05-25T09:32:39.000Z</time>
      </trkpt>
      <trkpt lat="42.93404" lon="1.21678">
        <ele>1078</ele>
        <time>2026-05-25T09:32:40.000Z</time>
      </trkpt>
      <trkpt lat="42.93406" lon="1.21682">
        <ele>1078</ele>
        <time>2026-05-25T09:32:41.000Z</time>
      </trkpt>
      <trkpt lat="42.93408" lon="1.21687">
        <ele>1078</ele>
        <time>2026-05-25T09:32:42.000Z</time>
      </trkpt>
      <trkpt lat="42.93411" lon="1.21692">
        <ele>1078</ele>
        <time>2026-05-25T09:32:43.000Z</time>
      </trkpt>
      <trkpt lat="42.93413" lon="1.21697">
        <ele>1078</ele>
        <time>2026-05-25T09:32:44.000Z</time>
      </trkpt>
      <trkpt lat="42.93416" lon="1.21702">
        <ele>1078</ele>
        <time>2026-05-25T09:32:45.000Z</time>
      </trkpt>
      <trkpt lat="42.93418" lon="1.2171">
        <ele>1078</ele>
        <time>2026-05-25T09:32:46.000Z</time>
      </trkpt>
      <trkpt lat="42.9342" lon="1.21717">
        <ele>1077</ele>
        <time>2026-05-25T09:32:47.000Z</time>
      </trkpt>
      <trkpt lat="42.93424" lon="1.21723">
        <ele>1077</ele>
        <time>2026-05-25T09:32:48.000Z</time>
      </trkpt>
      <trkpt lat="42.93427" lon="1.2173">
        <ele>1075</ele>
        <time>2026-05-25T09:32:49.000Z</time>
      </trkpt>
      <trkpt lat="42.9343" lon="1.21734">
        <ele>1075</ele>
        <time>2026-05-25T09:32:50.000Z</time>
      </trkpt>
      <trkpt lat="42.93432" lon="1.21739">
        <ele>1075</ele>
        <time>2026-05-25T09:32:51.000Z</time>
      </trkpt>
      <trkpt lat="42.93435" lon="1.21744">
        <ele>1074</ele>
        <time>2026-05-25T09:32:52.000Z</time>
      </trkpt>
      <trkpt lat="42.93438" lon="1.21747">
        <ele>1074</ele>
        <time>2026-05-25T09:32:53.000Z</time>
      </trkpt>
      <trkpt lat="42.93441" lon="1.21752">
        <ele>1074</ele>
        <time>2026-05-25T09:32:54.000Z</time>
      </trkpt>
      <trkpt lat="42.93445" lon="1.21757">
        <ele>1074</ele>
        <time>2026-05-25T09:32:55.000Z</time>
      </trkpt>
      <trkpt lat="42.93448" lon="1.21761">
        <ele>1074</ele>
        <time>2026-05-25T09:32:56.000Z</time>
      </trkpt>
      <trkpt lat="42.93451" lon="1.21766">
        <ele>1074</ele>
        <time>2026-05-25T09:32:57.000Z</time>
      </trkpt>
      <trkpt lat="42.93454" lon="1.21773">
        <ele>1072</ele>
        <time>2026-05-25T09:32:58.000Z</time>
      </trkpt>
      <trkpt lat="42.93459" lon="1.21779">
        <ele>1070</ele>
        <time>2026-05-25T09:32:59.000Z</time>
      </trkpt>
      <trkpt lat="42.93462" lon="1.21786">
        <ele>1069</ele>
        <time>2026-05-25T09:33:00.000Z</time>
      </trkpt>
      <trkpt lat="42.93463" lon="1.21794">
        <ele>1068</ele>
        <time>2026-05-25T09:33:01.000Z</time>
      </trkpt>
      <trkpt lat="42.93465" lon="1.21804">
        <ele>1067</ele>
        <time>2026-05-25T09:33:02.000Z</time>
      </trkpt>
      <trkpt lat="42.93469" lon="1.21815">
        <ele>1066</ele>
        <time>2026-05-25T09:33:03.000Z</time>
      </trkpt>
      <trkpt lat="42.93473" lon="1.21827">
        <ele>1065</ele>
        <time>2026-05-25T09:33:04.000Z</time>
      </trkpt>
      <trkpt lat="42.93475" lon="1.21837">
        <ele>1064</ele>
        <time>2026-05-25T09:33:05.000Z</time>
      </trkpt>
      <trkpt lat="42.93476" lon="1.21843">
        <ele>1063</ele>
        <time>2026-05-25T09:33:06.000Z</time>
      </trkpt>
      <trkpt lat="42.93476" lon="1.21848">
        <ele>1062</ele>
        <time>2026-05-25T09:33:07.000Z</time>
      </trkpt>
      <trkpt lat="42.93478" lon="1.21852">
        <ele>1063</ele>
        <time>2026-05-25T09:33:08.000Z</time>
      </trkpt>
      <trkpt lat="42.93478" lon="1.21856">
        <ele>1063</ele>
        <time>2026-05-25T09:33:09.000Z</time>
      </trkpt>
      <trkpt lat="42.93479" lon="1.2186">
        <ele>1063</ele>
        <time>2026-05-25T09:33:10.000Z</time>
      </trkpt>
      <trkpt lat="42.9348" lon="1.21863">
        <ele>1063</ele>
        <time>2026-05-25T09:33:11.000Z</time>
      </trkpt>
      <trkpt lat="42.93481" lon="1.21867">
        <ele>1062</ele>
        <time>2026-05-25T09:33:12.000Z</time>
      </trkpt>
      <trkpt lat="42.93482" lon="1.2187">
        <ele>1062</ele>
        <time>2026-05-25T09:33:13.000Z</time>
      </trkpt>
      <trkpt lat="42.93483" lon="1.21873">
        <ele>1062</ele>
        <time>2026-05-25T09:33:14.000Z</time>
      </trkpt>
      <trkpt lat="42.93484" lon="1.21876">
        <ele>1062</ele>
        <time>2026-05-25T09:33:15.000Z</time>
      </trkpt>
      <trkpt lat="42.93484" lon="1.2188">
        <ele>1062</ele>
        <time>2026-05-25T09:33:16.000Z</time>
      </trkpt>
      <trkpt lat="42.93484" lon="1.21883">
        <ele>1062</ele>
        <time>2026-05-25T09:33:17.000Z</time>
      </trkpt>
      <trkpt lat="42.93484" lon="1.21886">
        <ele>1063</ele>
        <time>2026-05-25T09:33:18.000Z</time>
      </trkpt>
      <trkpt lat="42.93484" lon="1.21889">
        <ele>1063</ele>
        <time>2026-05-25T09:33:19.000Z</time>
      </trkpt>
      <trkpt lat="42.93484" lon="1.21892">
        <ele>1063</ele>
        <time>2026-05-25T09:33:20.000Z</time>
      </trkpt>
      <trkpt lat="42.93483" lon="1.21894">
        <ele>1063</ele>
        <time>2026-05-25T09:33:21.000Z</time>
      </trkpt>
      <trkpt lat="42.93483" lon="1.21896">
        <ele>1062</ele>
        <time>2026-05-25T09:33:22.000Z</time>
      </trkpt>
      <trkpt lat="42.93482" lon="1.21897">
        <ele>1062</ele>
        <time>2026-05-25T09:33:23.000Z</time>
      </trkpt>
      <trkpt lat="42.93482" lon="1.21896">
        <ele>1061</ele>
        <time>2026-05-25T09:33:24.000Z</time>
      </trkpt>
      <trkpt lat="42.93482" lon="1.21898">
        <ele>1061</ele>
        <time>2026-05-25T09:33:25.000Z</time>
      </trkpt>
      <trkpt lat="42.93482" lon="1.21899">
        <ele>1061</ele>
        <time>2026-05-25T09:33:26.000Z</time>
      </trkpt>
      <trkpt lat="42.93481" lon="1.21902">
        <ele>1060</ele>
        <time>2026-05-25T09:33:27.000Z</time>
      </trkpt>
      <trkpt lat="42.93481" lon="1.21906">
        <ele>1059</ele>
        <time>2026-05-25T09:33:28.000Z</time>
      </trkpt>
      <trkpt lat="42.93482" lon="1.21909">
        <ele>1059</ele>
        <time>2026-05-25T09:33:29.000Z</time>
      </trkpt>
      <trkpt lat="42.93484" lon="1.21913">
        <ele>1058</ele>
        <time>2026-05-25T09:33:30.000Z</time>
      </trkpt>
      <trkpt lat="42.93486" lon="1.21917">
        <ele>1057</ele>
        <time>2026-05-25T09:33:31.000Z</time>
      </trkpt>
      <trkpt lat="42.93488" lon="1.2192">
        <ele>1057</ele>
        <time>2026-05-25T09:33:32.000Z</time>
      </trkpt>
      <trkpt lat="42.9349" lon="1.21923">
        <ele>1057</ele>
        <time>2026-05-25T09:33:33.000Z</time>
      </trkpt>
      <trkpt lat="42.93493" lon="1.21927">
        <ele>1056</ele>
        <time>2026-05-25T09:33:34.000Z</time>
      </trkpt>
      <trkpt lat="42.93495" lon="1.21932">
        <ele>1056</ele>
        <time>2026-05-25T09:33:35.000Z</time>
      </trkpt>
      <trkpt lat="42.93497" lon="1.21942">
        <ele>1056</ele>
        <time>2026-05-25T09:33:36.000Z</time>
      </trkpt>
      <trkpt lat="42.93496" lon="1.2195">
        <ele>1055</ele>
        <time>2026-05-25T09:33:37.000Z</time>
      </trkpt>
      <trkpt lat="42.93497" lon="1.21956">
        <ele>1055</ele>
        <time>2026-05-25T09:33:38.000Z</time>
      </trkpt>
      <trkpt lat="42.93498" lon="1.21961">
        <ele>1055</ele>
        <time>2026-05-25T09:33:39.000Z</time>
      </trkpt>
      <trkpt lat="42.93498" lon="1.21964">
        <ele>1054</ele>
        <time>2026-05-25T09:33:40.000Z</time>
      </trkpt>
      <trkpt lat="42.93497" lon="1.21968">
        <ele>1055</ele>
        <time>2026-05-25T09:33:41.000Z</time>
      </trkpt>
      <trkpt lat="42.93498" lon="1.21972">
        <ele>1056</ele>
        <time>2026-05-25T09:33:42.000Z</time>
      </trkpt>
      <trkpt lat="42.93499" lon="1.21979">
        <ele>1054</ele>
        <time>2026-05-25T09:33:43.000Z</time>
      </trkpt>
      <trkpt lat="42.93499" lon="1.21987">
        <ele>1053</ele>
        <time>2026-05-25T09:33:44.000Z</time>
      </trkpt>
      <trkpt lat="42.93497" lon="1.21998">
        <ele>1052</ele>
        <time>2026-05-25T09:33:45.000Z</time>
      </trkpt>
      <trkpt lat="42.93496" lon="1.22005">
        <ele>1051</ele>
        <time>2026-05-25T09:33:46.000Z</time>
      </trkpt>
      <trkpt lat="42.93495" lon="1.22012">
        <ele>1051</ele>
        <time>2026-05-25T09:33:47.000Z</time>
      </trkpt>
      <trkpt lat="42.93497" lon="1.22017">
        <ele>1051</ele>
        <time>2026-05-25T09:33:48.000Z</time>
      </trkpt>
      <trkpt lat="42.935" lon="1.22024">
        <ele>1050</ele>
        <time>2026-05-25T09:33:49.000Z</time>
      </trkpt>
      <trkpt lat="42.93503" lon="1.22029">
        <ele>1049</ele>
        <time>2026-05-25T09:33:50.000Z</time>
      </trkpt>
      <trkpt lat="42.93507" lon="1.22034">
        <ele>1049</ele>
        <time>2026-05-25T09:33:51.000Z</time>
      </trkpt>
      <trkpt lat="42.93511" lon="1.22041">
        <ele>1048</ele>
        <time>2026-05-25T09:33:52.000Z</time>
      </trkpt>
      <trkpt lat="42.93514" lon="1.22048">
        <ele>1047</ele>
        <time>2026-05-25T09:33:53.000Z</time>
      </trkpt>
      <trkpt lat="42.93519" lon="1.22051">
        <ele>1046</ele>
        <time>2026-05-25T09:33:54.000Z</time>
      </trkpt>
      <trkpt lat="42.93522" lon="1.22054">
        <ele>1045</ele>
        <time>2026-05-25T09:33:55.000Z</time>
      </trkpt>
      <trkpt lat="42.93523" lon="1.22059">
        <ele>1045</ele>
        <time>2026-05-25T09:33:56.000Z</time>
      </trkpt>
      <trkpt lat="42.93527" lon="1.22065">
        <ele>1043</ele>
        <time>2026-05-25T09:33:57.000Z</time>
      </trkpt>
      <trkpt lat="42.93532" lon="1.22066">
        <ele>1042</ele>
        <time>2026-05-25T09:33:58.000Z</time>
      </trkpt>
      <trkpt lat="42.93535" lon="1.22072">
        <ele>1041</ele>
        <time>2026-05-25T09:33:59.000Z</time>
      </trkpt>
      <trkpt lat="42.93538" lon="1.22076">
        <ele>1040</ele>
        <time>2026-05-25T09:34:00.000Z</time>
      </trkpt>
      <trkpt lat="42.93541" lon="1.22079">
        <ele>1040</ele>
        <time>2026-05-25T09:34:01.000Z</time>
      </trkpt>
      <trkpt lat="42.93542" lon="1.2208">
        <ele>1040</ele>
        <time>2026-05-25T09:34:02.000Z</time>
      </trkpt>
      <trkpt lat="42.93547" lon="1.22083">
        <ele>1040</ele>
        <time>2026-05-25T09:34:03.000Z</time>
      </trkpt>
      <trkpt lat="42.93551" lon="1.22087">
        <ele>1039</ele>
        <time>2026-05-25T09:34:04.000Z</time>
      </trkpt>
      <trkpt lat="42.93555" lon="1.22091">
        <ele>1039</ele>
        <time>2026-05-25T09:34:05.000Z</time>
      </trkpt>
      <trkpt lat="42.93558" lon="1.22096">
        <ele>1039</ele>
        <time>2026-05-25T09:34:06.000Z</time>
      </trkpt>
      <trkpt lat="42.93562" lon="1.22101">
        <ele>1036</ele>
        <time>2026-05-25T09:34:07.000Z</time>
      </trkpt>
      <trkpt lat="42.93566" lon="1.22105">
        <ele>1035</ele>
        <time>2026-05-25T09:34:08.000Z</time>
      </trkpt>
      <trkpt lat="42.9357" lon="1.2211">
        <ele>1034</ele>
        <time>2026-05-25T09:34:09.000Z</time>
      </trkpt>
      <trkpt lat="42.93573" lon="1.22114">
        <ele>1032</ele>
        <time>2026-05-25T09:34:10.000Z</time>
      </trkpt>
      <trkpt lat="42.93577" lon="1.22118">
        <ele>1031</ele>
        <time>2026-05-25T09:34:11.000Z</time>
      </trkpt>
      <trkpt lat="42.93582" lon="1.22124">
        <ele>1029</ele>
        <time>2026-05-25T09:34:12.000Z</time>
      </trkpt>
      <trkpt lat="42.93585" lon="1.22129">
        <ele>1027</ele>
        <time>2026-05-25T09:34:13.000Z</time>
      </trkpt>
      <trkpt lat="42.93587" lon="1.22136">
        <ele>1026</ele>
        <time>2026-05-25T09:34:14.000Z</time>
      </trkpt>
      <trkpt lat="42.93588" lon="1.22145">
        <ele>1024</ele>
        <time>2026-05-25T09:34:15.000Z</time>
      </trkpt>
      <trkpt lat="42.93588" lon="1.22151">
        <ele>1023</ele>
        <time>2026-05-25T09:34:16.000Z</time>
      </trkpt>
      <trkpt lat="42.9359" lon="1.22156">
        <ele>1022</ele>
        <time>2026-05-25T09:34:17.000Z</time>
      </trkpt>
      <trkpt lat="42.93592" lon="1.22159">
        <ele>1022</ele>
        <time>2026-05-25T09:34:18.000Z</time>
      </trkpt>
      <trkpt lat="42.93594" lon="1.22163">
        <ele>1021</ele>
        <time>2026-05-25T09:34:19.000Z</time>
      </trkpt>
      <trkpt lat="42.93595" lon="1.22166">
        <ele>1021</ele>
        <time>2026-05-25T09:34:20.000Z</time>
      </trkpt>
      <trkpt lat="42.93597" lon="1.22169">
        <ele>1022</ele>
        <time>2026-05-25T09:34:21.000Z</time>
      </trkpt>
      <trkpt lat="42.93599" lon="1.22172">
        <ele>1022</ele>
        <time>2026-05-25T09:34:22.000Z</time>
      </trkpt>
      <trkpt lat="42.93601" lon="1.22175">
        <ele>1023</ele>
        <time>2026-05-25T09:34:23.000Z</time>
      </trkpt>
      <trkpt lat="42.93603" lon="1.22179">
        <ele>1023</ele>
        <time>2026-05-25T09:34:24.000Z</time>
      </trkpt>
      <trkpt lat="42.93604" lon="1.22182">
        <ele>1023</ele>
        <time>2026-05-25T09:34:25.000Z</time>
      </trkpt>
      <trkpt lat="42.93605" lon="1.22187">
        <ele>1024</ele>
        <time>2026-05-25T09:34:26.000Z</time>
      </trkpt>
      <trkpt lat="42.93607" lon="1.2219">
        <ele>1024</ele>
        <time>2026-05-25T09:34:27.000Z</time>
      </trkpt>
      <trkpt lat="42.93609" lon="1.22194">
        <ele>1024</ele>
        <time>2026-05-25T09:34:28.000Z</time>
      </trkpt>
      <trkpt lat="42.93612" lon="1.22199">
        <ele>1024</ele>
        <time>2026-05-25T09:34:29.000Z</time>
      </trkpt>
      <trkpt lat="42.93615" lon="1.22204">
        <ele>1025</ele>
        <time>2026-05-25T09:34:30.000Z</time>
      </trkpt>
      <trkpt lat="42.93617" lon="1.22208">
        <ele>1025</ele>
        <time>2026-05-25T09:34:31.000Z</time>
      </trkpt>
      <trkpt lat="42.9362" lon="1.22212">
        <ele>1026</ele>
        <time>2026-05-25T09:34:32.000Z</time>
      </trkpt>
      <trkpt lat="42.93623" lon="1.22216">
        <ele>1026</ele>
        <time>2026-05-25T09:34:33.000Z</time>
      </trkpt>
      <trkpt lat="42.93626" lon="1.22221">
        <ele>1026</ele>
        <time>2026-05-25T09:34:34.000Z</time>
      </trkpt>
      <trkpt lat="42.93629" lon="1.22227">
        <ele>1026</ele>
        <time>2026-05-25T09:34:35.000Z</time>
      </trkpt>
      <trkpt lat="42.93633" lon="1.22235">
        <ele>1025</ele>
        <time>2026-05-25T09:34:36.000Z</time>
      </trkpt>
      <trkpt lat="42.93637" lon="1.22243">
        <ele>1025</ele>
        <time>2026-05-25T09:34:37.000Z</time>
      </trkpt>
      <trkpt lat="42.9364" lon="1.2225">
        <ele>1025</ele>
        <time>2026-05-25T09:34:38.000Z</time>
      </trkpt>
      <trkpt lat="42.93643" lon="1.22258">
        <ele>1025</ele>
        <time>2026-05-25T09:34:39.000Z</time>
      </trkpt>
      <trkpt lat="42.93646" lon="1.22266">
        <ele>1024</ele>
        <time>2026-05-25T09:34:40.000Z</time>
      </trkpt>
      <trkpt lat="42.93649" lon="1.22274">
        <ele>1023</ele>
        <time>2026-05-25T09:34:41.000Z</time>
      </trkpt>
      <trkpt lat="42.93652" lon="1.22283">
        <ele>1022</ele>
        <time>2026-05-25T09:34:42.000Z</time>
      </trkpt>
      <trkpt lat="42.93653" lon="1.2229">
        <ele>1020</ele>
        <time>2026-05-25T09:34:43.000Z</time>
      </trkpt>
      <trkpt lat="42.93657" lon="1.22297">
        <ele>1020</ele>
        <time>2026-05-25T09:34:44.000Z</time>
      </trkpt>
      <trkpt lat="42.9366" lon="1.223">
        <ele>1020</ele>
        <time>2026-05-25T09:34:45.000Z</time>
      </trkpt>
      <trkpt lat="42.93663" lon="1.22303">
        <ele>1020</ele>
        <time>2026-05-25T09:34:46.000Z</time>
      </trkpt>
      <trkpt lat="42.93667" lon="1.22305">
        <ele>1020</ele>
        <time>2026-05-25T09:34:47.000Z</time>
      </trkpt>
      <trkpt lat="42.93672" lon="1.22307">
        <ele>1020</ele>
        <time>2026-05-25T09:34:48.000Z</time>
      </trkpt>
      <trkpt lat="42.93676" lon="1.22309">
        <ele>1021</ele>
        <time>2026-05-25T09:34:49.000Z</time>
      </trkpt>
      <trkpt lat="42.9368" lon="1.2231">
        <ele>1021</ele>
        <time>2026-05-25T09:34:50.000Z</time>
      </trkpt>
      <trkpt lat="42.93683" lon="1.22311">
        <ele>1021</ele>
        <time>2026-05-25T09:34:51.000Z</time>
      </trkpt>
      <trkpt lat="42.93686" lon="1.22313">
        <ele>1021</ele>
        <time>2026-05-25T09:34:52.000Z</time>
      </trkpt>
      <trkpt lat="42.9369" lon="1.22315">
        <ele>1021</ele>
        <time>2026-05-25T09:34:53.000Z</time>
      </trkpt>
      <trkpt lat="42.93692" lon="1.22318">
        <ele>1022</ele>
        <time>2026-05-25T09:34:54.000Z</time>
      </trkpt>
      <trkpt lat="42.93694" lon="1.22321">
        <ele>1021</ele>
        <time>2026-05-25T09:34:55.000Z</time>
      </trkpt>
      <trkpt lat="42.93695" lon="1.22323">
        <ele>1021</ele>
        <time>2026-05-25T09:34:56.000Z</time>
      </trkpt>
      <trkpt lat="42.93697" lon="1.22322">
        <ele>1020</ele>
        <time>2026-05-25T09:34:57.000Z</time>
      </trkpt>
      <trkpt lat="42.93698" lon="1.2232">
        <ele>1020</ele>
        <time>2026-05-25T09:34:58.000Z</time>
      </trkpt>
      <trkpt lat="42.937" lon="1.22319">
        <ele>1020</ele>
        <time>2026-05-25T09:34:59.000Z</time>
      </trkpt>
      <trkpt lat="42.937" lon="1.22318">
        <ele>1019</ele>
        <time>2026-05-25T09:35:00.000Z</time>
      </trkpt>
      <trkpt lat="42.93698" lon="1.22318">
        <ele>1019</ele>
        <time>2026-05-25T09:35:01.000Z</time>
      </trkpt>
      <trkpt lat="42.93698" lon="1.22318">
        <ele>1019</ele>
        <time>2026-05-25T09:35:02.000Z</time>
      </trkpt>
      <trkpt lat="42.93698" lon="1.22318">
        <ele>1019</ele>
        <time>2026-05-25T09:35:03.000Z</time>
      </trkpt>
      <trkpt lat="42.93698" lon="1.22318">
        <ele>1019</ele>
        <time>2026-05-25T09:35:04.000Z</time>
      </trkpt>
      <trkpt lat="42.93699" lon="1.22318">
        <ele>1019</ele>
        <time>2026-05-25T09:35:05.000Z</time>
      </trkpt>
      <trkpt lat="42.93699" lon="1.2232">
        <ele>1018</ele>
        <time>2026-05-25T09:35:06.000Z</time>
      </trkpt>
      <trkpt lat="42.937" lon="1.22321">
        <ele>1018</ele>
        <time>2026-05-25T09:35:07.000Z</time>
      </trkpt>
      <trkpt lat="42.93702" lon="1.22322">
        <ele>1018</ele>
        <time>2026-05-25T09:35:08.000Z</time>
      </trkpt>
      <trkpt lat="42.93702" lon="1.22323">
        <ele>1017</ele>
        <time>2026-05-25T09:35:09.000Z</time>
      </trkpt>
      <trkpt lat="42.93703" lon="1.22323">
        <ele>1017</ele>
        <time>2026-05-25T09:35:10.000Z</time>
      </trkpt>
      <trkpt lat="42.93703" lon="1.22323">
        <ele>1017</ele>
        <time>2026-05-25T09:35:11.000Z</time>
      </trkpt>
      <trkpt lat="42.93703" lon="1.22323">
        <ele>1017</ele>
        <time>2026-05-25T09:35:12.000Z</time>
      </trkpt>
      <trkpt lat="42.93703" lon="1.22323">
        <ele>1017</ele>
        <time>2026-05-25T09:35:13.000Z</time>
      </trkpt>
      <trkpt lat="42.93704" lon="1.22322">
        <ele>1016</ele>
        <time>2026-05-25T09:35:14.000Z</time>
      </trkpt>
      <trkpt lat="42.93704" lon="1.22321">
        <ele>1016</ele>
        <time>2026-05-25T09:35:15.000Z</time>
      </trkpt>
      <trkpt lat="42.93706" lon="1.22321">
        <ele>1017</ele>
        <time>2026-05-25T09:35:40.000Z</time>
      </trkpt>
      <trkpt lat="42.93709" lon="1.22322">
        <ele>1017</ele>
        <time>2026-05-25T09:35:41.000Z</time>
      </trkpt>
      <trkpt lat="42.93712" lon="1.22323">
        <ele>1018</ele>
        <time>2026-05-25T09:35:42.000Z</time>
      </trkpt>
      <trkpt lat="42.93715" lon="1.22324">
        <ele>1018</ele>
        <time>2026-05-25T09:35:43.000Z</time>
      </trkpt>
      <trkpt lat="42.93718" lon="1.22326">
        <ele>1019</ele>
        <time>2026-05-25T09:35:44.000Z</time>
      </trkpt>
      <trkpt lat="42.93722" lon="1.22326">
        <ele>1019</ele>
        <time>2026-05-25T09:35:45.000Z</time>
      </trkpt>
      <trkpt lat="42.93727" lon="1.22327">
        <ele>1021</ele>
        <time>2026-05-25T09:35:46.000Z</time>
      </trkpt>
      <trkpt lat="42.93732" lon="1.22326">
        <ele>1021</ele>
        <time>2026-05-25T09:35:47.000Z</time>
      </trkpt>
      <trkpt lat="42.93738" lon="1.22327">
        <ele>1020</ele>
        <time>2026-05-25T09:35:48.000Z</time>
      </trkpt>
      <trkpt lat="42.93744" lon="1.22328">
        <ele>1020</ele>
        <time>2026-05-25T09:35:49.000Z</time>
      </trkpt>
      <trkpt lat="42.9375" lon="1.22329">
        <ele>1020</ele>
        <time>2026-05-25T09:35:50.000Z</time>
      </trkpt>
      <trkpt lat="42.93755" lon="1.22331">
        <ele>1019</ele>
        <time>2026-05-25T09:35:51.000Z</time>
      </trkpt>
      <trkpt lat="42.93761" lon="1.22333">
        <ele>1019</ele>
        <time>2026-05-25T09:35:52.000Z</time>
      </trkpt>
      <trkpt lat="42.93767" lon="1.22335">
        <ele>1020</ele>
        <time>2026-05-25T09:35:53.000Z</time>
      </trkpt>
      <trkpt lat="42.93774" lon="1.22337">
        <ele>1020</ele>
        <time>2026-05-25T09:35:54.000Z</time>
      </trkpt>
      <trkpt lat="42.9378" lon="1.22339">
        <ele>1020</ele>
        <time>2026-05-25T09:35:55.000Z</time>
      </trkpt>
      <trkpt lat="42.93787" lon="1.22339">
        <ele>1019</ele>
        <time>2026-05-25T09:35:56.000Z</time>
      </trkpt>
      <trkpt lat="42.93794" lon="1.22339">
        <ele>1020</ele>
        <time>2026-05-25T09:35:57.000Z</time>
      </trkpt>
      <trkpt lat="42.93801" lon="1.22339">
        <ele>1019</ele>
        <time>2026-05-25T09:35:58.000Z</time>
      </trkpt>
      <trkpt lat="42.93808" lon="1.22338">
        <ele>1019</ele>
        <time>2026-05-25T09:35:59.000Z</time>
      </trkpt>
      <trkpt lat="42.93814" lon="1.22339">
        <ele>1019</ele>
        <time>2026-05-25T09:36:00.000Z</time>
      </trkpt>
      <trkpt lat="42.93821" lon="1.22339">
        <ele>1019</ele>
        <time>2026-05-25T09:36:01.000Z</time>
      </trkpt>
      <trkpt lat="42.93828" lon="1.22339">
        <ele>1020</ele>
        <time>2026-05-25T09:36:02.000Z</time>
      </trkpt>
      <trkpt lat="42.93835" lon="1.22339">
        <ele>1020</ele>
        <time>2026-05-25T09:36:03.000Z</time>
      </trkpt>
      <trkpt lat="42.93841" lon="1.22338">
        <ele>1019</ele>
        <time>2026-05-25T09:36:04.000Z</time>
      </trkpt>
      <trkpt lat="42.93848" lon="1.22338">
        <ele>1018</ele>
        <time>2026-05-25T09:36:05.000Z</time>
      </trkpt>
      <trkpt lat="42.93854" lon="1.22336">
        <ele>1018</ele>
        <time>2026-05-25T09:36:06.000Z</time>
      </trkpt>
      <trkpt lat="42.9386" lon="1.22335">
        <ele>1018</ele>
        <time>2026-05-25T09:36:07.000Z</time>
      </trkpt>
      <trkpt lat="42.93866" lon="1.22334">
        <ele>1018</ele>
        <time>2026-05-25T09:36:08.000Z</time>
      </trkpt>
      <trkpt lat="42.93873" lon="1.22331">
        <ele>1018</ele>
        <time>2026-05-25T09:36:09.000Z</time>
      </trkpt>
      <trkpt lat="42.93879" lon="1.2233">
        <ele>1019</ele>
        <time>2026-05-25T09:36:10.000Z</time>
      </trkpt>
      <trkpt lat="42.93886" lon="1.22328">
        <ele>1019</ele>
        <time>2026-05-25T09:36:11.000Z</time>
      </trkpt>
      <trkpt lat="42.93893" lon="1.22325">
        <ele>1019</ele>
        <time>2026-05-25T09:36:12.000Z</time>
      </trkpt>
      <trkpt lat="42.93899" lon="1.22323">
        <ele>1019</ele>
        <time>2026-05-25T09:36:13.000Z</time>
      </trkpt>
      <trkpt lat="42.93906" lon="1.22321">
        <ele>1019</ele>
        <time>2026-05-25T09:36:14.000Z</time>
      </trkpt>
      <trkpt lat="42.93912" lon="1.2232">
        <ele>1018</ele>
        <time>2026-05-25T09:36:15.000Z</time>
      </trkpt>
      <trkpt lat="42.93917" lon="1.22319">
        <ele>1018</ele>
        <time>2026-05-25T09:36:16.000Z</time>
      </trkpt>
      <trkpt lat="42.93923" lon="1.22317">
        <ele>1017</ele>
        <time>2026-05-25T09:36:17.000Z</time>
      </trkpt>
      <trkpt lat="42.93929" lon="1.22316">
        <ele>1017</ele>
        <time>2026-05-25T09:36:18.000Z</time>
      </trkpt>
      <trkpt lat="42.93935" lon="1.22315">
        <ele>1016</ele>
        <time>2026-05-25T09:36:19.000Z</time>
      </trkpt>
      <trkpt lat="42.93941" lon="1.22314">
        <ele>1016</ele>
        <time>2026-05-25T09:36:20.000Z</time>
      </trkpt>
      <trkpt lat="42.93947" lon="1.22312">
        <ele>1014</ele>
        <time>2026-05-25T09:36:21.000Z</time>
      </trkpt>
      <trkpt lat="42.93952" lon="1.2231">
        <ele>1014</ele>
        <time>2026-05-25T09:36:22.000Z</time>
      </trkpt>
      <trkpt lat="42.93957" lon="1.22308">
        <ele>1013</ele>
        <time>2026-05-25T09:36:23.000Z</time>
      </trkpt>
      <trkpt lat="42.93962" lon="1.22306">
        <ele>1013</ele>
        <time>2026-05-25T09:36:24.000Z</time>
      </trkpt>
      <trkpt lat="42.93968" lon="1.22302">
        <ele>1013</ele>
        <time>2026-05-25T09:36:25.000Z</time>
      </trkpt>
      <trkpt lat="42.93972" lon="1.22299">
        <ele>1012</ele>
        <time>2026-05-25T09:36:26.000Z</time>
      </trkpt>
      <trkpt lat="42.93978" lon="1.22296">
        <ele>1011</ele>
        <time>2026-05-25T09:36:27.000Z</time>
      </trkpt>
      <trkpt lat="42.93983" lon="1.22292">
        <ele>1011</ele>
        <time>2026-05-25T09:36:28.000Z</time>
      </trkpt>
      <trkpt lat="42.93987" lon="1.22288">
        <ele>1011</ele>
        <time>2026-05-25T09:36:29.000Z</time>
      </trkpt>
      <trkpt lat="42.93992" lon="1.22284">
        <ele>1011</ele>
        <time>2026-05-25T09:36:30.000Z</time>
      </trkpt>
      <trkpt lat="42.93997" lon="1.22281">
        <ele>1010</ele>
        <time>2026-05-25T09:36:31.000Z</time>
      </trkpt>
      <trkpt lat="42.94001" lon="1.22277">
        <ele>1010</ele>
        <time>2026-05-25T09:36:32.000Z</time>
      </trkpt>
      <trkpt lat="42.94005" lon="1.22274">
        <ele>1010</ele>
        <time>2026-05-25T09:36:33.000Z</time>
      </trkpt>
      <trkpt lat="42.94009" lon="1.22271">
        <ele>1011</ele>
        <time>2026-05-25T09:36:34.000Z</time>
      </trkpt>
      <trkpt lat="42.94013" lon="1.22268">
        <ele>1011</ele>
        <time>2026-05-25T09:36:35.000Z</time>
      </trkpt>
      <trkpt lat="42.94018" lon="1.22265">
        <ele>1012</ele>
        <time>2026-05-25T09:36:36.000Z</time>
      </trkpt>
      <trkpt lat="42.94022" lon="1.22262">
        <ele>1012</ele>
        <time>2026-05-25T09:36:37.000Z</time>
      </trkpt>
      <trkpt lat="42.94026" lon="1.22261">
        <ele>1012</ele>
        <time>2026-05-25T09:36:38.000Z</time>
      </trkpt>
      <trkpt lat="42.9403" lon="1.2226">
        <ele>1014</ele>
        <time>2026-05-25T09:36:39.000Z</time>
      </trkpt>
      <trkpt lat="42.94034" lon="1.22258">
        <ele>1014</ele>
        <time>2026-05-25T09:36:40.000Z</time>
      </trkpt>
      <trkpt lat="42.94037" lon="1.22258">
        <ele>1015</ele>
        <time>2026-05-25T09:36:41.000Z</time>
      </trkpt>
      <trkpt lat="42.9404" lon="1.22257">
        <ele>1016</ele>
        <time>2026-05-25T09:36:42.000Z</time>
      </trkpt>
      <trkpt lat="42.94044" lon="1.22255">
        <ele>1017</ele>
        <time>2026-05-25T09:36:43.000Z</time>
      </trkpt>
      <trkpt lat="42.94048" lon="1.22254">
        <ele>1017</ele>
        <time>2026-05-25T09:36:44.000Z</time>
      </trkpt>
      <trkpt lat="42.94052" lon="1.22252">
        <ele>1018</ele>
        <time>2026-05-25T09:36:45.000Z</time>
      </trkpt>
      <trkpt lat="42.94057" lon="1.22251">
        <ele>1018</ele>
        <time>2026-05-25T09:36:46.000Z</time>
      </trkpt>
      <trkpt lat="42.94061" lon="1.22251">
        <ele>1019</ele>
        <time>2026-05-25T09:36:47.000Z</time>
      </trkpt>
      <trkpt lat="42.94064" lon="1.22251">
        <ele>1020</ele>
        <time>2026-05-25T09:36:48.000Z</time>
      </trkpt>
      <trkpt lat="42.94068" lon="1.22249">
        <ele>1021</ele>
        <time>2026-05-25T09:36:49.000Z</time>
      </trkpt>
      <trkpt lat="42.94072" lon="1.22249">
        <ele>1021</ele>
        <time>2026-05-25T09:36:50.000Z</time>
      </trkpt>
      <trkpt lat="42.94076" lon="1.22249">
        <ele>1021</ele>
        <time>2026-05-25T09:36:51.000Z</time>
      </trkpt>
      <trkpt lat="42.94079" lon="1.22248">
        <ele>1022</ele>
        <time>2026-05-25T09:36:52.000Z</time>
      </trkpt>
      <trkpt lat="42.94082" lon="1.22248">
        <ele>1023</ele>
        <time>2026-05-25T09:36:53.000Z</time>
      </trkpt>
      <trkpt lat="42.94086" lon="1.22248">
        <ele>1024</ele>
        <time>2026-05-25T09:36:54.000Z</time>
      </trkpt>
      <trkpt lat="42.94089" lon="1.22247">
        <ele>1025</ele>
        <time>2026-05-25T09:36:55.000Z</time>
      </trkpt>
      <trkpt lat="42.94093" lon="1.22246">
        <ele>1026</ele>
        <time>2026-05-25T09:36:56.000Z</time>
      </trkpt>
      <trkpt lat="42.94097" lon="1.22247">
        <ele>1027</ele>
        <time>2026-05-25T09:36:57.000Z</time>
      </trkpt>
      <trkpt lat="42.941" lon="1.22247">
        <ele>1027</ele>
        <time>2026-05-25T09:36:58.000Z</time>
      </trkpt>
      <trkpt lat="42.94105" lon="1.22246">
        <ele>1028</ele>
        <time>2026-05-25T09:36:59.000Z</time>
      </trkpt>
      <trkpt lat="42.94109" lon="1.22247">
        <ele>1027</ele>
        <time>2026-05-25T09:37:00.000Z</time>
      </trkpt>
      <trkpt lat="42.94112" lon="1.22247">
        <ele>1027</ele>
        <time>2026-05-25T09:37:01.000Z</time>
      </trkpt>
      <trkpt lat="42.94116" lon="1.22247">
        <ele>1027</ele>
        <time>2026-05-25T09:37:02.000Z</time>
      </trkpt>
      <trkpt lat="42.94121" lon="1.22247">
        <ele>1027</ele>
        <time>2026-05-25T09:37:03.000Z</time>
      </trkpt>
      <trkpt lat="42.94125" lon="1.22246">
        <ele>1027</ele>
        <time>2026-05-25T09:37:04.000Z</time>
      </trkpt>
      <trkpt lat="42.94129" lon="1.22246">
        <ele>1027</ele>
        <time>2026-05-25T09:37:05.000Z</time>
      </trkpt>
      <trkpt lat="42.94133" lon="1.22246">
        <ele>1028</ele>
        <time>2026-05-25T09:37:06.000Z</time>
      </trkpt>
      <trkpt lat="42.94138" lon="1.22246">
        <ele>1028</ele>
        <time>2026-05-25T09:37:07.000Z</time>
      </trkpt>
      <trkpt lat="42.94143" lon="1.22247">
        <ele>1028</ele>
        <time>2026-05-25T09:37:08.000Z</time>
      </trkpt>
      <trkpt lat="42.94147" lon="1.22247">
        <ele>1028</ele>
        <time>2026-05-25T09:37:09.000Z</time>
      </trkpt>
      <trkpt lat="42.94152" lon="1.22249">
        <ele>1029</ele>
        <time>2026-05-25T09:37:10.000Z</time>
      </trkpt>
      <trkpt lat="42.94156" lon="1.2225">
        <ele>1029</ele>
        <time>2026-05-25T09:37:11.000Z</time>
      </trkpt>
      <trkpt lat="42.9416" lon="1.22253">
        <ele>1030</ele>
        <time>2026-05-25T09:37:12.000Z</time>
      </trkpt>
      <trkpt lat="42.94165" lon="1.22253">
        <ele>1030</ele>
        <time>2026-05-25T09:37:13.000Z</time>
      </trkpt>
      <trkpt lat="42.9417" lon="1.22253">
        <ele>1030</ele>
        <time>2026-05-25T09:37:14.000Z</time>
      </trkpt>
      <trkpt lat="42.94174" lon="1.22253">
        <ele>1030</ele>
        <time>2026-05-25T09:37:15.000Z</time>
      </trkpt>
      <trkpt lat="42.94178" lon="1.22252">
        <ele>1030</ele>
        <time>2026-05-25T09:37:16.000Z</time>
      </trkpt>
      <trkpt lat="42.94182" lon="1.2225">
        <ele>1030</ele>
        <time>2026-05-25T09:37:17.000Z</time>
      </trkpt>
      <trkpt lat="42.94187" lon="1.22248">
        <ele>1030</ele>
        <time>2026-05-25T09:37:18.000Z</time>
      </trkpt>
      <trkpt lat="42.94189" lon="1.22246">
        <ele>1031</ele>
        <time>2026-05-25T09:37:19.000Z</time>
      </trkpt>
      <trkpt lat="42.94192" lon="1.22244">
        <ele>1032</ele>
        <time>2026-05-25T09:37:20.000Z</time>
      </trkpt>
      <trkpt lat="42.94195" lon="1.22242">
        <ele>1031</ele>
        <time>2026-05-25T09:37:21.000Z</time>
      </trkpt>
      <trkpt lat="42.94199" lon="1.2224">
        <ele>1031</ele>
        <time>2026-05-25T09:37:22.000Z</time>
      </trkpt>
      <trkpt lat="42.94202" lon="1.22238">
        <ele>1032</ele>
        <time>2026-05-25T09:37:23.000Z</time>
      </trkpt>
      <trkpt lat="42.94205" lon="1.22236">
        <ele>1032</ele>
        <time>2026-05-25T09:37:24.000Z</time>
      </trkpt>
      <trkpt lat="42.94208" lon="1.22236">
        <ele>1033</ele>
        <time>2026-05-25T09:37:25.000Z</time>
      </trkpt>
      <trkpt lat="42.94211" lon="1.22235">
        <ele>1034</ele>
        <time>2026-05-25T09:37:26.000Z</time>
      </trkpt>
      <trkpt lat="42.94214" lon="1.22234">
        <ele>1035</ele>
        <time>2026-05-25T09:37:27.000Z</time>
      </trkpt>
      <trkpt lat="42.94218" lon="1.22234">
        <ele>1036</ele>
        <time>2026-05-25T09:37:28.000Z</time>
      </trkpt>
      <trkpt lat="42.94222" lon="1.22233">
        <ele>1038</ele>
        <time>2026-05-25T09:37:29.000Z</time>
      </trkpt>
      <trkpt lat="42.94224" lon="1.22232">
        <ele>1039</ele>
        <time>2026-05-25T09:37:30.000Z</time>
      </trkpt>
      <trkpt lat="42.94228" lon="1.22232">
        <ele>1041</ele>
        <time>2026-05-25T09:37:31.000Z</time>
      </trkpt>
      <trkpt lat="42.94231" lon="1.22231">
        <ele>1043</ele>
        <time>2026-05-25T09:37:32.000Z</time>
      </trkpt>
      <trkpt lat="42.94234" lon="1.2223">
        <ele>1045</ele>
        <time>2026-05-25T09:37:33.000Z</time>
      </trkpt>
      <trkpt lat="42.94237" lon="1.22231">
        <ele>1046</ele>
        <time>2026-05-25T09:37:34.000Z</time>
      </trkpt>
      <trkpt lat="42.94239" lon="1.22231">
        <ele>1046</ele>
        <time>2026-05-25T09:37:35.000Z</time>
      </trkpt>
      <trkpt lat="42.94242" lon="1.22231">
        <ele>1046</ele>
        <time>2026-05-25T09:37:36.000Z</time>
      </trkpt>
      <trkpt lat="42.94244" lon="1.22231">
        <ele>1046</ele>
        <time>2026-05-25T09:37:37.000Z</time>
      </trkpt>
      <trkpt lat="42.94247" lon="1.22231">
        <ele>1045</ele>
        <time>2026-05-25T09:37:38.000Z</time>
      </trkpt>
      <trkpt lat="42.94251" lon="1.22231">
        <ele>1045</ele>
        <time>2026-05-25T09:37:39.000Z</time>
      </trkpt>
      <trkpt lat="42.94254" lon="1.22232">
        <ele>1045</ele>
        <time>2026-05-25T09:37:40.000Z</time>
      </trkpt>
      <trkpt lat="42.94258" lon="1.22233">
        <ele>1045</ele>
        <time>2026-05-25T09:37:41.000Z</time>
      </trkpt>
      <trkpt lat="42.94262" lon="1.22235">
        <ele>1045</ele>
        <time>2026-05-25T09:37:42.000Z</time>
      </trkpt>
      <trkpt lat="42.94267" lon="1.22238">
        <ele>1045</ele>
        <time>2026-05-25T09:37:43.000Z</time>
      </trkpt>
      <trkpt lat="42.94273" lon="1.22239">
        <ele>1046</ele>
        <time>2026-05-25T09:37:44.000Z</time>
      </trkpt>
      <trkpt lat="42.94278" lon="1.22243">
        <ele>1046</ele>
        <time>2026-05-25T09:37:45.000Z</time>
      </trkpt>
      <trkpt lat="42.94284" lon="1.22246">
        <ele>1046</ele>
        <time>2026-05-25T09:37:46.000Z</time>
      </trkpt>
      <trkpt lat="42.94289" lon="1.22249">
        <ele>1046</ele>
        <time>2026-05-25T09:37:47.000Z</time>
      </trkpt>
      <trkpt lat="42.94295" lon="1.22251">
        <ele>1046</ele>
        <time>2026-05-25T09:37:48.000Z</time>
      </trkpt>
      <trkpt lat="42.94301" lon="1.22254">
        <ele>1046</ele>
        <time>2026-05-25T09:37:49.000Z</time>
      </trkpt>
      <trkpt lat="42.94307" lon="1.22257">
        <ele>1046</ele>
        <time>2026-05-25T09:37:50.000Z</time>
      </trkpt>
      <trkpt lat="42.94314" lon="1.22261">
        <ele>1045</ele>
        <time>2026-05-25T09:37:51.000Z</time>
      </trkpt>
      <trkpt lat="42.94321" lon="1.22265">
        <ele>1045</ele>
        <time>2026-05-25T09:37:52.000Z</time>
      </trkpt>
      <trkpt lat="42.94326" lon="1.2227">
        <ele>1044</ele>
        <time>2026-05-25T09:37:53.000Z</time>
      </trkpt>
      <trkpt lat="42.94331" lon="1.22275">
        <ele>1043</ele>
        <time>2026-05-25T09:37:54.000Z</time>
      </trkpt>
      <trkpt lat="42.94336" lon="1.2228">
        <ele>1043</ele>
        <time>2026-05-25T09:37:55.000Z</time>
      </trkpt>
      <trkpt lat="42.94342" lon="1.22286">
        <ele>1042</ele>
        <time>2026-05-25T09:37:56.000Z</time>
      </trkpt>
      <trkpt lat="42.94346" lon="1.22292">
        <ele>1042</ele>
        <time>2026-05-25T09:37:57.000Z</time>
      </trkpt>
      <trkpt lat="42.94351" lon="1.22299">
        <ele>1041</ele>
        <time>2026-05-25T09:37:58.000Z</time>
      </trkpt>
      <trkpt lat="42.94355" lon="1.22306">
        <ele>1040</ele>
        <time>2026-05-25T09:37:59.000Z</time>
      </trkpt>
      <trkpt lat="42.94358" lon="1.22313">
        <ele>1040</ele>
        <time>2026-05-25T09:38:00.000Z</time>
      </trkpt>
      <trkpt lat="42.94362" lon="1.2232">
        <ele>1040</ele>
        <time>2026-05-25T09:38:01.000Z</time>
      </trkpt>
      <trkpt lat="42.94366" lon="1.22326">
        <ele>1040</ele>
        <time>2026-05-25T09:38:02.000Z</time>
      </trkpt>
      <trkpt lat="42.94369" lon="1.22331">
        <ele>1039</ele>
        <time>2026-05-25T09:38:03.000Z</time>
      </trkpt>
      <trkpt lat="42.94373" lon="1.22335">
        <ele>1040</ele>
        <time>2026-05-25T09:38:04.000Z</time>
      </trkpt>
      <trkpt lat="42.94379" lon="1.2234">
        <ele>1041</ele>
        <time>2026-05-25T09:38:05.000Z</time>
      </trkpt>
      <trkpt lat="42.94384" lon="1.22344">
        <ele>1041</ele>
        <time>2026-05-25T09:38:06.000Z</time>
      </trkpt>
      <trkpt lat="42.9439" lon="1.22346">
        <ele>1041</ele>
        <time>2026-05-25T09:38:07.000Z</time>
      </trkpt>
      <trkpt lat="42.94396" lon="1.22348">
        <ele>1041</ele>
        <time>2026-05-25T09:38:08.000Z</time>
      </trkpt>
      <trkpt lat="42.94402" lon="1.22349">
        <ele>1042</ele>
        <time>2026-05-25T09:38:09.000Z</time>
      </trkpt>
      <trkpt lat="42.94407" lon="1.22349">
        <ele>1042</ele>
        <time>2026-05-25T09:38:10.000Z</time>
      </trkpt>
      <trkpt lat="42.94412" lon="1.22349">
        <ele>1043</ele>
        <time>2026-05-25T09:38:11.000Z</time>
      </trkpt>
      <trkpt lat="42.94416" lon="1.22349">
        <ele>1044</ele>
        <time>2026-05-25T09:38:12.000Z</time>
      </trkpt>
      <trkpt lat="42.9442" lon="1.22347">
        <ele>1044</ele>
        <time>2026-05-25T09:38:13.000Z</time>
      </trkpt>
      <trkpt lat="42.94425" lon="1.22347">
        <ele>1044</ele>
        <time>2026-05-25T09:38:14.000Z</time>
      </trkpt>
      <trkpt lat="42.94429" lon="1.22346">
        <ele>1043</ele>
        <time>2026-05-25T09:38:15.000Z</time>
      </trkpt>
      <trkpt lat="42.94433" lon="1.22345">
        <ele>1042</ele>
        <time>2026-05-25T09:38:16.000Z</time>
      </trkpt>
      <trkpt lat="42.94437" lon="1.22344">
        <ele>1043</ele>
        <time>2026-05-25T09:38:17.000Z</time>
      </trkpt>
      <trkpt lat="42.94442" lon="1.22342">
        <ele>1043</ele>
        <time>2026-05-25T09:38:18.000Z</time>
      </trkpt>
      <trkpt lat="42.94447" lon="1.22343">
        <ele>1043</ele>
        <time>2026-05-25T09:38:19.000Z</time>
      </trkpt>
      <trkpt lat="42.94452" lon="1.22343">
        <ele>1043</ele>
        <time>2026-05-25T09:38:20.000Z</time>
      </trkpt>
      <trkpt lat="42.94456" lon="1.22344">
        <ele>1043</ele>
        <time>2026-05-25T09:38:21.000Z</time>
      </trkpt>
      <trkpt lat="42.9446" lon="1.22343">
        <ele>1043</ele>
        <time>2026-05-25T09:38:22.000Z</time>
      </trkpt>
      <trkpt lat="42.94465" lon="1.22341">
        <ele>1045</ele>
        <time>2026-05-25T09:38:23.000Z</time>
      </trkpt>
      <trkpt lat="42.9447" lon="1.22341">
        <ele>1045</ele>
        <time>2026-05-25T09:38:24.000Z</time>
      </trkpt>
      <trkpt lat="42.94475" lon="1.2234">
        <ele>1046</ele>
        <time>2026-05-25T09:38:25.000Z</time>
      </trkpt>
      <trkpt lat="42.94479" lon="1.22341">
        <ele>1048</ele>
        <time>2026-05-25T09:38:26.000Z</time>
      </trkpt>
      <trkpt lat="42.94484" lon="1.22342">
        <ele>1048</ele>
        <time>2026-05-25T09:38:27.000Z</time>
      </trkpt>
      <trkpt lat="42.9449" lon="1.22343">
        <ele>1049</ele>
        <time>2026-05-25T09:38:28.000Z</time>
      </trkpt>
      <trkpt lat="42.94497" lon="1.22348">
        <ele>1048</ele>
        <time>2026-05-25T09:38:29.000Z</time>
      </trkpt>
      <trkpt lat="42.94503" lon="1.2235">
        <ele>1048</ele>
        <time>2026-05-25T09:38:30.000Z</time>
      </trkpt>
      <trkpt lat="42.9451" lon="1.22353">
        <ele>1047</ele>
        <time>2026-05-25T09:38:31.000Z</time>
      </trkpt>
      <trkpt lat="42.94516" lon="1.22355">
        <ele>1046</ele>
        <time>2026-05-25T09:38:32.000Z</time>
      </trkpt>
      <trkpt lat="42.94522" lon="1.22358">
        <ele>1045</ele>
        <time>2026-05-25T09:38:33.000Z</time>
      </trkpt>
      <trkpt lat="42.94527" lon="1.2236">
        <ele>1044</ele>
        <time>2026-05-25T09:38:34.000Z</time>
      </trkpt>
      <trkpt lat="42.94533" lon="1.22362">
        <ele>1044</ele>
        <time>2026-05-25T09:38:35.000Z</time>
      </trkpt>
      <trkpt lat="42.9454" lon="1.22365">
        <ele>1042</ele>
        <time>2026-05-25T09:38:36.000Z</time>
      </trkpt>
      <trkpt lat="42.94546" lon="1.22368">
        <ele>1041</ele>
        <time>2026-05-25T09:38:37.000Z</time>
      </trkpt>
      <trkpt lat="42.94552" lon="1.2237">
        <ele>1040</ele>
        <time>2026-05-25T09:38:38.000Z</time>
      </trkpt>
      <trkpt lat="42.94559" lon="1.22371">
        <ele>1040</ele>
        <time>2026-05-25T09:38:39.000Z</time>
      </trkpt>
      <trkpt lat="42.94566" lon="1.22373">
        <ele>1038</ele>
        <time>2026-05-25T09:38:40.000Z</time>
      </trkpt>
      <trkpt lat="42.94573" lon="1.22374">
        <ele>1038</ele>
        <time>2026-05-25T09:38:41.000Z</time>
      </trkpt>
      <trkpt lat="42.9458" lon="1.22376">
        <ele>1038</ele>
        <time>2026-05-25T09:38:42.000Z</time>
      </trkpt>
      <trkpt lat="42.94589" lon="1.22376">
        <ele>1038</ele>
        <time>2026-05-25T09:38:43.000Z</time>
      </trkpt>
      <trkpt lat="42.94598" lon="1.22377">
        <ele>1037</ele>
        <time>2026-05-25T09:38:44.000Z</time>
      </trkpt>
      <trkpt lat="42.94607" lon="1.22379">
        <ele>1035</ele>
        <time>2026-05-25T09:38:45.000Z</time>
      </trkpt>
      <trkpt lat="42.94617" lon="1.22382">
        <ele>1034</ele>
        <time>2026-05-25T09:38:46.000Z</time>
      </trkpt>
      <trkpt lat="42.94628" lon="1.22386">
        <ele>1032</ele>
        <time>2026-05-25T09:38:47.000Z</time>
      </trkpt>
      <trkpt lat="42.94637" lon="1.22392">
        <ele>1030</ele>
        <time>2026-05-25T09:38:48.000Z</time>
      </trkpt>
      <trkpt lat="42.94645" lon="1.22399">
        <ele>1029</ele>
        <time>2026-05-25T09:38:49.000Z</time>
      </trkpt>
      <trkpt lat="42.94652" lon="1.22408">
        <ele>1028</ele>
        <time>2026-05-25T09:38:50.000Z</time>
      </trkpt>
      <trkpt lat="42.94657" lon="1.22418">
        <ele>1026</ele>
        <time>2026-05-25T09:38:51.000Z</time>
      </trkpt>
      <trkpt lat="42.94662" lon="1.22427">
        <ele>1025</ele>
        <time>2026-05-25T09:38:52.000Z</time>
      </trkpt>
      <trkpt lat="42.94665" lon="1.22437">
        <ele>1024</ele>
        <time>2026-05-25T09:38:53.000Z</time>
      </trkpt>
      <trkpt lat="42.94668" lon="1.22445">
        <ele>1023</ele>
        <time>2026-05-25T09:38:54.000Z</time>
      </trkpt>
      <trkpt lat="42.94669" lon="1.22453">
        <ele>1022</ele>
        <time>2026-05-25T09:38:55.000Z</time>
      </trkpt>
      <trkpt lat="42.94669" lon="1.22463">
        <ele>1021</ele>
        <time>2026-05-25T09:38:56.000Z</time>
      </trkpt>
      <trkpt lat="42.9467" lon="1.22473">
        <ele>1019</ele>
        <time>2026-05-25T09:38:57.000Z</time>
      </trkpt>
      <trkpt lat="42.9467" lon="1.22483">
        <ele>1019</ele>
        <time>2026-05-25T09:38:58.000Z</time>
      </trkpt>
      <trkpt lat="42.94671" lon="1.22491">
        <ele>1019</ele>
        <time>2026-05-25T09:38:59.000Z</time>
      </trkpt>
      <trkpt lat="42.94671" lon="1.22499">
        <ele>1018</ele>
        <time>2026-05-25T09:39:00.000Z</time>
      </trkpt>
      <trkpt lat="42.94672" lon="1.22507">
        <ele>1017</ele>
        <time>2026-05-25T09:39:01.000Z</time>
      </trkpt>
      <trkpt lat="42.94674" lon="1.22515">
        <ele>1017</ele>
        <time>2026-05-25T09:39:02.000Z</time>
      </trkpt>
      <trkpt lat="42.94675" lon="1.22522">
        <ele>1016</ele>
        <time>2026-05-25T09:39:03.000Z</time>
      </trkpt>
      <trkpt lat="42.94677" lon="1.22528">
        <ele>1015</ele>
        <time>2026-05-25T09:39:04.000Z</time>
      </trkpt>
      <trkpt lat="42.94678" lon="1.22534">
        <ele>1014</ele>
        <time>2026-05-25T09:39:05.000Z</time>
      </trkpt>
      <trkpt lat="42.94678" lon="1.22541">
        <ele>1014</ele>
        <time>2026-05-25T09:39:06.000Z</time>
      </trkpt>
      <trkpt lat="42.94678" lon="1.22549">
        <ele>1014</ele>
        <time>2026-05-25T09:39:07.000Z</time>
      </trkpt>
      <trkpt lat="42.94679" lon="1.22556">
        <ele>1013</ele>
        <time>2026-05-25T09:39:08.000Z</time>
      </trkpt>
      <trkpt lat="42.9468" lon="1.22563">
        <ele>1013</ele>
        <time>2026-05-25T09:39:09.000Z</time>
      </trkpt>
      <trkpt lat="42.9468" lon="1.22569">
        <ele>1013</ele>
        <time>2026-05-25T09:39:10.000Z</time>
      </trkpt>
      <trkpt lat="42.94681" lon="1.22577">
        <ele>1013</ele>
        <time>2026-05-25T09:39:11.000Z</time>
      </trkpt>
      <trkpt lat="42.94681" lon="1.22585">
        <ele>1013</ele>
        <time>2026-05-25T09:39:12.000Z</time>
      </trkpt>
      <trkpt lat="42.94683" lon="1.22593">
        <ele>1013</ele>
        <time>2026-05-25T09:39:13.000Z</time>
      </trkpt>
      <trkpt lat="42.94683" lon="1.226">
        <ele>1013</ele>
        <time>2026-05-25T09:39:14.000Z</time>
      </trkpt>
      <trkpt lat="42.94683" lon="1.22607">
        <ele>1014</ele>
        <time>2026-05-25T09:39:15.000Z</time>
      </trkpt>
      <trkpt lat="42.94684" lon="1.22615">
        <ele>1014</ele>
        <time>2026-05-25T09:39:16.000Z</time>
      </trkpt>
      <trkpt lat="42.94685" lon="1.22623">
        <ele>1014</ele>
        <time>2026-05-25T09:39:17.000Z</time>
      </trkpt>
      <trkpt lat="42.94684" lon="1.22631">
        <ele>1014</ele>
        <time>2026-05-25T09:39:18.000Z</time>
      </trkpt>
      <trkpt lat="42.94685" lon="1.22639">
        <ele>1015</ele>
        <time>2026-05-25T09:39:19.000Z</time>
      </trkpt>
      <trkpt lat="42.94686" lon="1.22648">
        <ele>1015</ele>
        <time>2026-05-25T09:39:20.000Z</time>
      </trkpt>
      <trkpt lat="42.94686" lon="1.22655">
        <ele>1015</ele>
        <time>2026-05-25T09:39:21.000Z</time>
      </trkpt>
      <trkpt lat="42.94687" lon="1.22663">
        <ele>1016</ele>
        <time>2026-05-25T09:39:22.000Z</time>
      </trkpt>
      <trkpt lat="42.94688" lon="1.22672">
        <ele>1016</ele>
        <time>2026-05-25T09:39:23.000Z</time>
      </trkpt>
      <trkpt lat="42.94687" lon="1.22681">
        <ele>1015</ele>
        <time>2026-05-25T09:39:24.000Z</time>
      </trkpt>
      <trkpt lat="42.94687" lon="1.22689">
        <ele>1015</ele>
        <time>2026-05-25T09:39:25.000Z</time>
      </trkpt>
      <trkpt lat="42.94688" lon="1.22698">
        <ele>1015</ele>
        <time>2026-05-25T09:39:26.000Z</time>
      </trkpt>
      <trkpt lat="42.94687" lon="1.22706">
        <ele>1014</ele>
        <time>2026-05-25T09:39:27.000Z</time>
      </trkpt>
      <trkpt lat="42.94687" lon="1.22714">
        <ele>1014</ele>
        <time>2026-05-25T09:39:28.000Z</time>
      </trkpt>
      <trkpt lat="42.94688" lon="1.22722">
        <ele>1014</ele>
        <time>2026-05-25T09:39:29.000Z</time>
      </trkpt>
      <trkpt lat="42.94688" lon="1.2273">
        <ele>1013</ele>
        <time>2026-05-25T09:39:30.000Z</time>
      </trkpt>
      <trkpt lat="42.94687" lon="1.22739">
        <ele>1013</ele>
        <time>2026-05-25T09:39:31.000Z</time>
      </trkpt>
      <trkpt lat="42.94686" lon="1.22748">
        <ele>1013</ele>
        <time>2026-05-25T09:39:32.000Z</time>
      </trkpt>
      <trkpt lat="42.94684" lon="1.22757">
        <ele>1013</ele>
        <time>2026-05-25T09:39:33.000Z</time>
      </trkpt>
      <trkpt lat="42.94681" lon="1.22765">
        <ele>1012</ele>
        <time>2026-05-25T09:39:34.000Z</time>
      </trkpt>
      <trkpt lat="42.94679" lon="1.22773">
        <ele>1012</ele>
        <time>2026-05-25T09:39:35.000Z</time>
      </trkpt>
      <trkpt lat="42.94676" lon="1.2278">
        <ele>1011</ele>
        <time>2026-05-25T09:39:36.000Z</time>
      </trkpt>
      <trkpt lat="42.94674" lon="1.22786">
        <ele>1010</ele>
        <time>2026-05-25T09:39:37.000Z</time>
      </trkpt>
      <trkpt lat="42.94669" lon="1.22791">
        <ele>1009</ele>
        <time>2026-05-25T09:39:38.000Z</time>
      </trkpt>
      <trkpt lat="42.94663" lon="1.22795">
        <ele>1009</ele>
        <time>2026-05-25T09:39:39.000Z</time>
      </trkpt>
      <trkpt lat="42.94657" lon="1.22798">
        <ele>1010</ele>
        <time>2026-05-25T09:39:40.000Z</time>
      </trkpt>
      <trkpt lat="42.94651" lon="1.22801">
        <ele>1011</ele>
        <time>2026-05-25T09:39:41.000Z</time>
      </trkpt>
      <trkpt lat="42.94647" lon="1.22804">
        <ele>1011</ele>
        <time>2026-05-25T09:39:42.000Z</time>
      </trkpt>
      <trkpt lat="42.94642" lon="1.22808">
        <ele>1012</ele>
        <time>2026-05-25T09:39:43.000Z</time>
      </trkpt>
      <trkpt lat="42.94637" lon="1.22812">
        <ele>1013</ele>
        <time>2026-05-25T09:39:44.000Z</time>
      </trkpt>
      <trkpt lat="42.94631" lon="1.22817">
        <ele>1013</ele>
        <time>2026-05-25T09:39:45.000Z</time>
      </trkpt>
      <trkpt lat="42.94625" lon="1.22821">
        <ele>1014</ele>
        <time>2026-05-25T09:39:46.000Z</time>
      </trkpt>
      <trkpt lat="42.9462" lon="1.22826">
        <ele>1016</ele>
        <time>2026-05-25T09:39:47.000Z</time>
      </trkpt>
      <trkpt lat="42.94615" lon="1.22832">
        <ele>1017</ele>
        <time>2026-05-25T09:39:48.000Z</time>
      </trkpt>
      <trkpt lat="42.94611" lon="1.22836">
        <ele>1017</ele>
        <time>2026-05-25T09:39:49.000Z</time>
      </trkpt>
      <trkpt lat="42.94611" lon="1.22839">
        <ele>1017</ele>
        <time>2026-05-25T09:39:50.000Z</time>
      </trkpt>
      <trkpt lat="42.9461" lon="1.2284">
        <ele>1017</ele>
        <time>2026-05-25T09:39:51.000Z</time>
      </trkpt>
      <trkpt lat="42.94609" lon="1.22842">
        <ele>1017</ele>
        <time>2026-05-25T09:39:52.000Z</time>
      </trkpt>
      <trkpt lat="42.94609" lon="1.22844">
        <ele>1017</ele>
        <time>2026-05-25T09:39:53.000Z</time>
      </trkpt>
      <trkpt lat="42.94609" lon="1.22847">
        <ele>1016</ele>
        <time>2026-05-25T09:39:54.000Z</time>
      </trkpt>
      <trkpt lat="42.94608" lon="1.22849">
        <ele>1017</ele>
        <time>2026-05-25T09:39:55.000Z</time>
      </trkpt>
      <trkpt lat="42.94607" lon="1.22852">
        <ele>1017</ele>
        <time>2026-05-25T09:39:56.000Z</time>
      </trkpt>
      <trkpt lat="42.94606" lon="1.22855">
        <ele>1018</ele>
        <time>2026-05-25T09:39:57.000Z</time>
      </trkpt>
      <trkpt lat="42.94604" lon="1.22857">
        <ele>1017</ele>
        <time>2026-05-25T09:39:58.000Z</time>
      </trkpt>
      <trkpt lat="42.94603" lon="1.2286">
        <ele>1017</ele>
        <time>2026-05-25T09:39:59.000Z</time>
      </trkpt>
      <trkpt lat="42.94602" lon="1.22863">
        <ele>1018</ele>
        <time>2026-05-25T09:40:00.000Z</time>
      </trkpt>
      <trkpt lat="42.946" lon="1.22866">
        <ele>1018</ele>
        <time>2026-05-25T09:40:01.000Z</time>
      </trkpt>
      <trkpt lat="42.94598" lon="1.22869">
        <ele>1018</ele>
        <time>2026-05-25T09:40:02.000Z</time>
      </trkpt>
      <trkpt lat="42.94597" lon="1.22873">
        <ele>1018</ele>
        <time>2026-05-25T09:40:03.000Z</time>
      </trkpt>
      <trkpt lat="42.94595" lon="1.22876">
        <ele>1018</ele>
        <time>2026-05-25T09:40:04.000Z</time>
      </trkpt>
      <trkpt lat="42.94594" lon="1.22879">
        <ele>1019</ele>
        <time>2026-05-25T09:40:05.000Z</time>
      </trkpt>
      <trkpt lat="42.94593" lon="1.22882">
        <ele>1018</ele>
        <time>2026-05-25T09:40:06.000Z</time>
      </trkpt>
      <trkpt lat="42.94591" lon="1.22885">
        <ele>1019</ele>
        <time>2026-05-25T09:40:07.000Z</time>
      </trkpt>
      <trkpt lat="42.9459" lon="1.22888">
        <ele>1019</ele>
        <time>2026-05-25T09:40:08.000Z</time>
      </trkpt>
      <trkpt lat="42.94588" lon="1.22891">
        <ele>1020</ele>
        <time>2026-05-25T09:40:09.000Z</time>
      </trkpt>
      <trkpt lat="42.94586" lon="1.22894">
        <ele>1020</ele>
        <time>2026-05-25T09:40:10.000Z</time>
      </trkpt>
      <trkpt lat="42.94584" lon="1.22896">
        <ele>1021</ele>
        <time>2026-05-25T09:40:11.000Z</time>
      </trkpt>
      <trkpt lat="42.94583" lon="1.22899">
        <ele>1021</ele>
        <time>2026-05-25T09:40:12.000Z</time>
      </trkpt>
      <trkpt lat="42.94581" lon="1.22902">
        <ele>1022</ele>
        <time>2026-05-25T09:40:13.000Z</time>
      </trkpt>
      <trkpt lat="42.94579" lon="1.22904">
        <ele>1021</ele>
        <time>2026-05-25T09:40:14.000Z</time>
      </trkpt>
      <trkpt lat="42.94576" lon="1.22907">
        <ele>1021</ele>
        <time>2026-05-25T09:40:15.000Z</time>
      </trkpt>
      <trkpt lat="42.94573" lon="1.22909">
        <ele>1021</ele>
        <time>2026-05-25T09:40:16.000Z</time>
      </trkpt>
      <trkpt lat="42.9457" lon="1.22911">
        <ele>1021</ele>
        <time>2026-05-25T09:40:17.000Z</time>
      </trkpt>
      <trkpt lat="42.94567" lon="1.22913">
        <ele>1021</ele>
        <time>2026-05-25T09:40:18.000Z</time>
      </trkpt>
      <trkpt lat="42.94564" lon="1.22914">
        <ele>1020</ele>
        <time>2026-05-25T09:40:19.000Z</time>
      </trkpt>
      <trkpt lat="42.9456" lon="1.22915">
        <ele>1020</ele>
        <time>2026-05-25T09:40:20.000Z</time>
      </trkpt>
      <trkpt lat="42.94558" lon="1.22917">
        <ele>1020</ele>
        <time>2026-05-25T09:40:21.000Z</time>
      </trkpt>
      <trkpt lat="42.94554" lon="1.22918">
        <ele>1020</ele>
        <time>2026-05-25T09:40:22.000Z</time>
      </trkpt>
      <trkpt lat="42.94551" lon="1.2292">
        <ele>1020</ele>
        <time>2026-05-25T09:40:23.000Z</time>
      </trkpt>
      <trkpt lat="42.94548" lon="1.22921">
        <ele>1020</ele>
        <time>2026-05-25T09:40:24.000Z</time>
      </trkpt>
      <trkpt lat="42.94546" lon="1.22922">
        <ele>1020</ele>
        <time>2026-05-25T09:40:25.000Z</time>
      </trkpt>
      <trkpt lat="42.94543" lon="1.22922">
        <ele>1019</ele>
        <time>2026-05-25T09:40:26.000Z</time>
      </trkpt>
      <trkpt lat="42.94541" lon="1.22923">
        <ele>1020</ele>
        <time>2026-05-25T09:40:27.000Z</time>
      </trkpt>
      <trkpt lat="42.94538" lon="1.22924">
        <ele>1020</ele>
        <time>2026-05-25T09:40:28.000Z</time>
      </trkpt>
      <trkpt lat="42.94536" lon="1.22926">
        <ele>1021</ele>
        <time>2026-05-25T09:40:29.000Z</time>
      </trkpt>
      <trkpt lat="42.94534" lon="1.22927">
        <ele>1022</ele>
        <time>2026-05-25T09:40:30.000Z</time>
      </trkpt>
      <trkpt lat="42.94532" lon="1.2293">
        <ele>1023</ele>
        <time>2026-05-25T09:40:31.000Z</time>
      </trkpt>
      <trkpt lat="42.9453" lon="1.22931">
        <ele>1023</ele>
        <time>2026-05-25T09:40:32.000Z</time>
      </trkpt>
      <trkpt lat="42.94528" lon="1.22933">
        <ele>1023</ele>
        <time>2026-05-25T09:40:33.000Z</time>
      </trkpt>
      <trkpt lat="42.94526" lon="1.22935">
        <ele>1023</ele>
        <time>2026-05-25T09:40:34.000Z</time>
      </trkpt>
      <trkpt lat="42.94524" lon="1.22937">
        <ele>1023</ele>
        <time>2026-05-25T09:40:35.000Z</time>
      </trkpt>
      <trkpt lat="42.94523" lon="1.22939">
        <ele>1023</ele>
        <time>2026-05-25T09:40:36.000Z</time>
      </trkpt>
      <trkpt lat="42.9452" lon="1.22941">
        <ele>1023</ele>
        <time>2026-05-25T09:40:37.000Z</time>
      </trkpt>
      <trkpt lat="42.94517" lon="1.22943">
        <ele>1023</ele>
        <time>2026-05-25T09:40:38.000Z</time>
      </trkpt>
      <trkpt lat="42.94514" lon="1.22945">
        <ele>1024</ele>
        <time>2026-05-25T09:40:39.000Z</time>
      </trkpt>
      <trkpt lat="42.94511" lon="1.22947">
        <ele>1023</ele>
        <time>2026-05-25T09:40:40.000Z</time>
      </trkpt>
      <trkpt lat="42.94508" lon="1.22948">
        <ele>1023</ele>
        <time>2026-05-25T09:40:41.000Z</time>
      </trkpt>
      <trkpt lat="42.94504" lon="1.22949">
        <ele>1023</ele>
        <time>2026-05-25T09:40:42.000Z</time>
      </trkpt>
      <trkpt lat="42.94501" lon="1.2295">
        <ele>1024</ele>
        <time>2026-05-25T09:40:43.000Z</time>
      </trkpt>
      <trkpt lat="42.94499" lon="1.2295">
        <ele>1024</ele>
        <time>2026-05-25T09:40:44.000Z</time>
      </trkpt>
      <trkpt lat="42.94496" lon="1.22951">
        <ele>1024</ele>
        <time>2026-05-25T09:40:45.000Z</time>
      </trkpt>
      <trkpt lat="42.94493" lon="1.22952">
        <ele>1025</ele>
        <time>2026-05-25T09:40:46.000Z</time>
      </trkpt>
      <trkpt lat="42.94491" lon="1.22954">
        <ele>1026</ele>
        <time>2026-05-25T09:40:47.000Z</time>
      </trkpt>
      <trkpt lat="42.94489" lon="1.22955">
        <ele>1026</ele>
        <time>2026-05-25T09:40:48.000Z</time>
      </trkpt>
      <trkpt lat="42.94487" lon="1.22956">
        <ele>1026</ele>
        <time>2026-05-25T09:40:49.000Z</time>
      </trkpt>
      <trkpt lat="42.94484" lon="1.22957">
        <ele>1027</ele>
        <time>2026-05-25T09:40:50.000Z</time>
      </trkpt>
      <trkpt lat="42.94482" lon="1.22959">
        <ele>1026</ele>
        <time>2026-05-25T09:40:51.000Z</time>
      </trkpt>
      <trkpt lat="42.9448" lon="1.22961">
        <ele>1026</ele>
        <time>2026-05-25T09:40:52.000Z</time>
      </trkpt>
      <trkpt lat="42.94478" lon="1.22963">
        <ele>1026</ele>
        <time>2026-05-25T09:40:53.000Z</time>
      </trkpt>
      <trkpt lat="42.94477" lon="1.22966">
        <ele>1026</ele>
        <time>2026-05-25T09:40:54.000Z</time>
      </trkpt>
      <trkpt lat="42.94474" lon="1.22969">
        <ele>1027</ele>
        <time>2026-05-25T09:40:55.000Z</time>
      </trkpt>
      <trkpt lat="42.94471" lon="1.22972">
        <ele>1027</ele>
        <time>2026-05-25T09:40:56.000Z</time>
      </trkpt>
      <trkpt lat="42.94469" lon="1.22974">
        <ele>1028</ele>
        <time>2026-05-25T09:40:57.000Z</time>
      </trkpt>
      <trkpt lat="42.94467" lon="1.22977">
        <ele>1028</ele>
        <time>2026-05-25T09:40:58.000Z</time>
      </trkpt>
      <trkpt lat="42.94465" lon="1.2298">
        <ele>1028</ele>
        <time>2026-05-25T09:40:59.000Z</time>
      </trkpt>
      <trkpt lat="42.94464" lon="1.22982">
        <ele>1028</ele>
        <time>2026-05-25T09:41:00.000Z</time>
      </trkpt>
      <trkpt lat="42.94463" lon="1.22984">
        <ele>1030</ele>
        <time>2026-05-25T09:41:01.000Z</time>
      </trkpt>
      <trkpt lat="42.94463" lon="1.22988">
        <ele>1030</ele>
        <time>2026-05-25T09:41:02.000Z</time>
      </trkpt>
      <trkpt lat="42.94461" lon="1.22991">
        <ele>1031</ele>
        <time>2026-05-25T09:41:03.000Z</time>
      </trkpt>
      <trkpt lat="42.94461" lon="1.22994">
        <ele>1030</ele>
        <time>2026-05-25T09:41:04.000Z</time>
      </trkpt>
      <trkpt lat="42.94461" lon="1.22998">
        <ele>1030</ele>
        <time>2026-05-25T09:41:05.000Z</time>
      </trkpt>
      <trkpt lat="42.94461" lon="1.23001">
        <ele>1030</ele>
        <time>2026-05-25T09:41:06.000Z</time>
      </trkpt>
      <trkpt lat="42.94461" lon="1.23004">
        <ele>1029</ele>
        <time>2026-05-25T09:41:07.000Z</time>
      </trkpt>
      <trkpt lat="42.94462" lon="1.23006">
        <ele>1029</ele>
        <time>2026-05-25T09:41:08.000Z</time>
      </trkpt>
      <trkpt lat="42.94462" lon="1.2301">
        <ele>1029</ele>
        <time>2026-05-25T09:41:09.000Z</time>
      </trkpt>
      <trkpt lat="42.94462" lon="1.23014">
        <ele>1030</ele>
        <time>2026-05-25T09:41:10.000Z</time>
      </trkpt>
      <trkpt lat="42.94461" lon="1.23018">
        <ele>1030</ele>
        <time>2026-05-25T09:41:11.000Z</time>
      </trkpt>
      <trkpt lat="42.94461" lon="1.23021">
        <ele>1030</ele>
        <time>2026-05-25T09:41:12.000Z</time>
      </trkpt>
      <trkpt lat="42.9446" lon="1.23024">
        <ele>1031</ele>
        <time>2026-05-25T09:41:13.000Z</time>
      </trkpt>
      <trkpt lat="42.9446" lon="1.23029">
        <ele>1030</ele>
        <time>2026-05-25T09:41:14.000Z</time>
      </trkpt>
      <trkpt lat="42.94459" lon="1.23031">
        <ele>1030</ele>
        <time>2026-05-25T09:41:15.000Z</time>
      </trkpt>
      <trkpt lat="42.94459" lon="1.23035">
        <ele>1030</ele>
        <time>2026-05-25T09:41:16.000Z</time>
      </trkpt>
      <trkpt lat="42.94459" lon="1.23039">
        <ele>1030</ele>
        <time>2026-05-25T09:41:17.000Z</time>
      </trkpt>
      <trkpt lat="42.94458" lon="1.23043">
        <ele>1031</ele>
        <time>2026-05-25T09:41:18.000Z</time>
      </trkpt>
      <trkpt lat="42.94458" lon="1.23047">
        <ele>1030</ele>
        <time>2026-05-25T09:41:19.000Z</time>
      </trkpt>
      <trkpt lat="42.94458" lon="1.2305">
        <ele>1031</ele>
        <time>2026-05-25T09:41:20.000Z</time>
      </trkpt>
      <trkpt lat="42.94458" lon="1.23054">
        <ele>1031</ele>
        <time>2026-05-25T09:41:21.000Z</time>
      </trkpt>
      <trkpt lat="42.94457" lon="1.23059">
        <ele>1031</ele>
        <time>2026-05-25T09:41:22.000Z</time>
      </trkpt>
      <trkpt lat="42.94456" lon="1.23062">
        <ele>1030</ele>
        <time>2026-05-25T09:41:23.000Z</time>
      </trkpt>
      <trkpt lat="42.94454" lon="1.23066">
        <ele>1031</ele>
        <time>2026-05-25T09:41:24.000Z</time>
      </trkpt>
      <trkpt lat="42.94453" lon="1.2307">
        <ele>1031</ele>
        <time>2026-05-25T09:41:25.000Z</time>
      </trkpt>
      <trkpt lat="42.94453" lon="1.23073">
        <ele>1032</ele>
        <time>2026-05-25T09:41:26.000Z</time>
      </trkpt>
      <trkpt lat="42.94451" lon="1.23074">
        <ele>1032</ele>
        <time>2026-05-25T09:41:27.000Z</time>
      </trkpt>
      <trkpt lat="42.9445" lon="1.23075">
        <ele>1033</ele>
        <time>2026-05-25T09:41:28.000Z</time>
      </trkpt>
      <trkpt lat="42.94448" lon="1.23078">
        <ele>1034</ele>
        <time>2026-05-25T09:41:29.000Z</time>
      </trkpt>
      <trkpt lat="42.94447" lon="1.2308">
        <ele>1034</ele>
        <time>2026-05-25T09:41:30.000Z</time>
      </trkpt>
      <trkpt lat="42.94446" lon="1.23083">
        <ele>1034</ele>
        <time>2026-05-25T09:41:31.000Z</time>
      </trkpt>
      <trkpt lat="42.94445" lon="1.23086">
        <ele>1035</ele>
        <time>2026-05-25T09:41:32.000Z</time>
      </trkpt>
      <trkpt lat="42.94443" lon="1.23088">
        <ele>1036</ele>
        <time>2026-05-25T09:41:33.000Z</time>
      </trkpt>
      <trkpt lat="42.94441" lon="1.2309">
        <ele>1036</ele>
        <time>2026-05-25T09:41:34.000Z</time>
      </trkpt>
      <trkpt lat="42.94438" lon="1.23092">
        <ele>1037</ele>
        <time>2026-05-25T09:41:35.000Z</time>
      </trkpt>
      <trkpt lat="42.94436" lon="1.23095">
        <ele>1037</ele>
        <time>2026-05-25T09:41:36.000Z</time>
      </trkpt>
      <trkpt lat="42.94434" lon="1.23097">
        <ele>1038</ele>
        <time>2026-05-25T09:41:37.000Z</time>
      </trkpt>
      <trkpt lat="42.94432" lon="1.23099">
        <ele>1038</ele>
        <time>2026-05-25T09:41:38.000Z</time>
      </trkpt>
      <trkpt lat="42.9443" lon="1.23101">
        <ele>1038</ele>
        <time>2026-05-25T09:41:39.000Z</time>
      </trkpt>
      <trkpt lat="42.94428" lon="1.23102">
        <ele>1038</ele>
        <time>2026-05-25T09:41:40.000Z</time>
      </trkpt>
      <trkpt lat="42.94425" lon="1.23104">
        <ele>1038</ele>
        <time>2026-05-25T09:41:41.000Z</time>
      </trkpt>
      <trkpt lat="42.94423" lon="1.23105">
        <ele>1038</ele>
        <time>2026-05-25T09:41:42.000Z</time>
      </trkpt>
      <trkpt lat="42.9442" lon="1.23106">
        <ele>1039</ele>
        <time>2026-05-25T09:41:43.000Z</time>
      </trkpt>
      <trkpt lat="42.94418" lon="1.23108">
        <ele>1039</ele>
        <time>2026-05-25T09:41:44.000Z</time>
      </trkpt>
      <trkpt lat="42.94416" lon="1.23109">
        <ele>1040</ele>
        <time>2026-05-25T09:41:45.000Z</time>
      </trkpt>
      <trkpt lat="42.94414" lon="1.2311">
        <ele>1041</ele>
        <time>2026-05-25T09:41:46.000Z</time>
      </trkpt>
      <trkpt lat="42.94412" lon="1.23111">
        <ele>1043</ele>
        <time>2026-05-25T09:41:47.000Z</time>
      </trkpt>
      <trkpt lat="42.94411" lon="1.2311">
        <ele>1043</ele>
        <time>2026-05-25T09:41:48.000Z</time>
      </trkpt>
      <trkpt lat="42.94409" lon="1.23111">
        <ele>1044</ele>
        <time>2026-05-25T09:41:49.000Z</time>
      </trkpt>
      <trkpt lat="42.94407" lon="1.2311">
        <ele>1043</ele>
        <time>2026-05-25T09:41:50.000Z</time>
      </trkpt>
      <trkpt lat="42.94406" lon="1.23111">
        <ele>1044</ele>
        <time>2026-05-25T09:41:51.000Z</time>
      </trkpt>
      <trkpt lat="42.94404" lon="1.23113">
        <ele>1045</ele>
        <time>2026-05-25T09:41:52.000Z</time>
      </trkpt>
      <trkpt lat="42.94403" lon="1.23114">
        <ele>1046</ele>
        <time>2026-05-25T09:41:53.000Z</time>
      </trkpt>
      <trkpt lat="42.944" lon="1.23117">
        <ele>1046</ele>
        <time>2026-05-25T09:41:54.000Z</time>
      </trkpt>
      <trkpt lat="42.94398" lon="1.23119">
        <ele>1047</ele>
        <time>2026-05-25T09:41:55.000Z</time>
      </trkpt>
      <trkpt lat="42.94396" lon="1.23121">
        <ele>1047</ele>
        <time>2026-05-25T09:41:56.000Z</time>
      </trkpt>
      <trkpt lat="42.94394" lon="1.23122">
        <ele>1048</ele>
        <time>2026-05-25T09:41:57.000Z</time>
      </trkpt>
      <trkpt lat="42.94391" lon="1.23125">
        <ele>1048</ele>
        <time>2026-05-25T09:41:58.000Z</time>
      </trkpt>
      <trkpt lat="42.94388" lon="1.23127">
        <ele>1048</ele>
        <time>2026-05-25T09:41:59.000Z</time>
      </trkpt>
      <trkpt lat="42.94386" lon="1.2313">
        <ele>1049</ele>
        <time>2026-05-25T09:42:00.000Z</time>
      </trkpt>
      <trkpt lat="42.94382" lon="1.23132">
        <ele>1049</ele>
        <time>2026-05-25T09:42:01.000Z</time>
      </trkpt>
      <trkpt lat="42.94379" lon="1.23134">
        <ele>1049</ele>
        <time>2026-05-25T09:42:02.000Z</time>
      </trkpt>
      <trkpt lat="42.94375" lon="1.23137">
        <ele>1049</ele>
        <time>2026-05-25T09:42:03.000Z</time>
      </trkpt>
      <trkpt lat="42.94373" lon="1.23141">
        <ele>1049</ele>
        <time>2026-05-25T09:42:04.000Z</time>
      </trkpt>
      <trkpt lat="42.94371" lon="1.23144">
        <ele>1049</ele>
        <time>2026-05-25T09:42:05.000Z</time>
      </trkpt>
      <trkpt lat="42.94369" lon="1.23146">
        <ele>1050</ele>
        <time>2026-05-25T09:42:06.000Z</time>
      </trkpt>
      <trkpt lat="42.94366" lon="1.23148">
        <ele>1050</ele>
        <time>2026-05-25T09:42:07.000Z</time>
      </trkpt>
      <trkpt lat="42.94364" lon="1.23151">
        <ele>1049</ele>
        <time>2026-05-25T09:42:08.000Z</time>
      </trkpt>
      <trkpt lat="42.94362" lon="1.23154">
        <ele>1049</ele>
        <time>2026-05-25T09:42:09.000Z</time>
      </trkpt>
      <trkpt lat="42.9436" lon="1.23156">
        <ele>1049</ele>
        <time>2026-05-25T09:42:10.000Z</time>
      </trkpt>
      <trkpt lat="42.94358" lon="1.23159">
        <ele>1049</ele>
        <time>2026-05-25T09:42:11.000Z</time>
      </trkpt>
      <trkpt lat="42.94356" lon="1.23162">
        <ele>1049</ele>
        <time>2026-05-25T09:42:12.000Z</time>
      </trkpt>
      <trkpt lat="42.94355" lon="1.23165">
        <ele>1050</ele>
        <time>2026-05-25T09:42:13.000Z</time>
      </trkpt>
      <trkpt lat="42.94354" lon="1.23169">
        <ele>1048</ele>
        <time>2026-05-25T09:42:14.000Z</time>
      </trkpt>
      <trkpt lat="42.94352" lon="1.23172">
        <ele>1048</ele>
        <time>2026-05-25T09:42:15.000Z</time>
      </trkpt>
      <trkpt lat="42.94351" lon="1.23175">
        <ele>1048</ele>
        <time>2026-05-25T09:42:16.000Z</time>
      </trkpt>
      <trkpt lat="42.9435" lon="1.23178">
        <ele>1048</ele>
        <time>2026-05-25T09:42:17.000Z</time>
      </trkpt>
      <trkpt lat="42.94349" lon="1.23181">
        <ele>1047</ele>
        <time>2026-05-25T09:42:18.000Z</time>
      </trkpt>
      <trkpt lat="42.94348" lon="1.23185">
        <ele>1048</ele>
        <time>2026-05-25T09:42:19.000Z</time>
      </trkpt>
      <trkpt lat="42.94347" lon="1.23188">
        <ele>1048</ele>
        <time>2026-05-25T09:42:20.000Z</time>
      </trkpt>
      <trkpt lat="42.94345" lon="1.2319">
        <ele>1048</ele>
        <time>2026-05-25T09:42:21.000Z</time>
      </trkpt>
      <trkpt lat="42.94342" lon="1.23193">
        <ele>1047</ele>
        <time>2026-05-25T09:42:22.000Z</time>
      </trkpt>
      <trkpt lat="42.9434" lon="1.23196">
        <ele>1047</ele>
        <time>2026-05-25T09:42:23.000Z</time>
      </trkpt>
      <trkpt lat="42.94337" lon="1.23199">
        <ele>1048</ele>
        <time>2026-05-25T09:42:24.000Z</time>
      </trkpt>
      <trkpt lat="42.94335" lon="1.23202">
        <ele>1048</ele>
        <time>2026-05-25T09:42:25.000Z</time>
      </trkpt>
      <trkpt lat="42.94332" lon="1.23205">
        <ele>1048</ele>
        <time>2026-05-25T09:42:26.000Z</time>
      </trkpt>
      <trkpt lat="42.9433" lon="1.23209">
        <ele>1048</ele>
        <time>2026-05-25T09:42:27.000Z</time>
      </trkpt>
      <trkpt lat="42.94329" lon="1.23212">
        <ele>1048</ele>
        <time>2026-05-25T09:42:28.000Z</time>
      </trkpt>
      <trkpt lat="42.94326" lon="1.23215">
        <ele>1049</ele>
        <time>2026-05-25T09:42:29.000Z</time>
      </trkpt>
      <trkpt lat="42.94325" lon="1.23217">
        <ele>1049</ele>
        <time>2026-05-25T09:42:30.000Z</time>
      </trkpt>
      <trkpt lat="42.94323" lon="1.2322">
        <ele>1049</ele>
        <time>2026-05-25T09:42:31.000Z</time>
      </trkpt>
      <trkpt lat="42.94322" lon="1.23223">
        <ele>1050</ele>
        <time>2026-05-25T09:42:32.000Z</time>
      </trkpt>
      <trkpt lat="42.94321" lon="1.23226">
        <ele>1050</ele>
        <time>2026-05-25T09:42:33.000Z</time>
      </trkpt>
      <trkpt lat="42.9432" lon="1.23229">
        <ele>1050</ele>
        <time>2026-05-25T09:42:34.000Z</time>
      </trkpt>
      <trkpt lat="42.94319" lon="1.23232">
        <ele>1051</ele>
        <time>2026-05-25T09:42:35.000Z</time>
      </trkpt>
      <trkpt lat="42.94318" lon="1.23236">
        <ele>1051</ele>
        <time>2026-05-25T09:42:36.000Z</time>
      </trkpt>
      <trkpt lat="42.94316" lon="1.23239">
        <ele>1051</ele>
        <time>2026-05-25T09:42:37.000Z</time>
      </trkpt>
      <trkpt lat="42.94315" lon="1.23243">
        <ele>1051</ele>
        <time>2026-05-25T09:42:38.000Z</time>
      </trkpt>
      <trkpt lat="42.94314" lon="1.23245">
        <ele>1050</ele>
        <time>2026-05-25T09:42:39.000Z</time>
      </trkpt>
      <trkpt lat="42.94314" lon="1.23249">
        <ele>1051</ele>
        <time>2026-05-25T09:42:40.000Z</time>
      </trkpt>
      <trkpt lat="42.94313" lon="1.23252">
        <ele>1051</ele>
        <time>2026-05-25T09:42:41.000Z</time>
      </trkpt>
      <trkpt lat="42.94313" lon="1.23256">
        <ele>1051</ele>
        <time>2026-05-25T09:42:42.000Z</time>
      </trkpt>
      <trkpt lat="42.94314" lon="1.23259">
        <ele>1051</ele>
        <time>2026-05-25T09:42:43.000Z</time>
      </trkpt>
      <trkpt lat="42.94314" lon="1.23263">
        <ele>1052</ele>
        <time>2026-05-25T09:42:44.000Z</time>
      </trkpt>
      <trkpt lat="42.94314" lon="1.23267">
        <ele>1051</ele>
        <time>2026-05-25T09:42:45.000Z</time>
      </trkpt>
      <trkpt lat="42.94315" lon="1.23271">
        <ele>1051</ele>
        <time>2026-05-25T09:42:46.000Z</time>
      </trkpt>
      <trkpt lat="42.94316" lon="1.23275">
        <ele>1051</ele>
        <time>2026-05-25T09:42:47.000Z</time>
      </trkpt>
      <trkpt lat="42.94317" lon="1.23277">
        <ele>1051</ele>
        <time>2026-05-25T09:42:48.000Z</time>
      </trkpt>
      <trkpt lat="42.94317" lon="1.23281">
        <ele>1052</ele>
        <time>2026-05-25T09:42:49.000Z</time>
      </trkpt>
      <trkpt lat="42.94318" lon="1.23284">
        <ele>1053</ele>
        <time>2026-05-25T09:42:50.000Z</time>
      </trkpt>
      <trkpt lat="42.94319" lon="1.23287">
        <ele>1053</ele>
        <time>2026-05-25T09:42:51.000Z</time>
      </trkpt>
      <trkpt lat="42.9432" lon="1.2329">
        <ele>1054</ele>
        <time>2026-05-25T09:42:52.000Z</time>
      </trkpt>
      <trkpt lat="42.94321" lon="1.23292">
        <ele>1054</ele>
        <time>2026-05-25T09:42:53.000Z</time>
      </trkpt>
      <trkpt lat="42.94323" lon="1.23296">
        <ele>1053</ele>
        <time>2026-05-25T09:42:54.000Z</time>
      </trkpt>
      <trkpt lat="42.94324" lon="1.23299">
        <ele>1053</ele>
        <time>2026-05-25T09:42:55.000Z</time>
      </trkpt>
      <trkpt lat="42.94325" lon="1.23303">
        <ele>1053</ele>
        <time>2026-05-25T09:42:56.000Z</time>
      </trkpt>
      <trkpt lat="42.94326" lon="1.23306">
        <ele>1053</ele>
        <time>2026-05-25T09:42:57.000Z</time>
      </trkpt>
      <trkpt lat="42.94328" lon="1.2331">
        <ele>1053</ele>
        <time>2026-05-25T09:42:58.000Z</time>
      </trkpt>
      <trkpt lat="42.94329" lon="1.23314">
        <ele>1053</ele>
        <time>2026-05-25T09:42:59.000Z</time>
      </trkpt>
      <trkpt lat="42.9433" lon="1.23317">
        <ele>1053</ele>
        <time>2026-05-25T09:43:00.000Z</time>
      </trkpt>
      <trkpt lat="42.94331" lon="1.2332">
        <ele>1053</ele>
        <time>2026-05-25T09:43:01.000Z</time>
      </trkpt>
      <trkpt lat="42.94332" lon="1.23323">
        <ele>1054</ele>
        <time>2026-05-25T09:43:02.000Z</time>
      </trkpt>
      <trkpt lat="42.94334" lon="1.23326">
        <ele>1055</ele>
        <time>2026-05-25T09:43:03.000Z</time>
      </trkpt>
      <trkpt lat="42.94335" lon="1.23329">
        <ele>1054</ele>
        <time>2026-05-25T09:43:04.000Z</time>
      </trkpt>
      <trkpt lat="42.94336" lon="1.23331">
        <ele>1055</ele>
        <time>2026-05-25T09:43:05.000Z</time>
      </trkpt>
      <trkpt lat="42.94338" lon="1.23334">
        <ele>1055</ele>
        <time>2026-05-25T09:43:06.000Z</time>
      </trkpt>
      <trkpt lat="42.94339" lon="1.23336">
        <ele>1055</ele>
        <time>2026-05-25T09:43:07.000Z</time>
      </trkpt>
      <trkpt lat="42.94341" lon="1.23338">
        <ele>1055</ele>
        <time>2026-05-25T09:43:08.000Z</time>
      </trkpt>
      <trkpt lat="42.94344" lon="1.2334">
        <ele>1055</ele>
        <time>2026-05-25T09:43:09.000Z</time>
      </trkpt>
      <trkpt lat="42.94346" lon="1.23343">
        <ele>1055</ele>
        <time>2026-05-25T09:43:10.000Z</time>
      </trkpt>
      <trkpt lat="42.94348" lon="1.23346">
        <ele>1056</ele>
        <time>2026-05-25T09:43:11.000Z</time>
      </trkpt>
      <trkpt lat="42.9435" lon="1.23348">
        <ele>1056</ele>
        <time>2026-05-25T09:43:12.000Z</time>
      </trkpt>
      <trkpt lat="42.94351" lon="1.23352">
        <ele>1057</ele>
        <time>2026-05-25T09:43:13.000Z</time>
      </trkpt>
      <trkpt lat="42.94351" lon="1.23356">
        <ele>1058</ele>
        <time>2026-05-25T09:43:14.000Z</time>
      </trkpt>
      <trkpt lat="42.94351" lon="1.23359">
        <ele>1058</ele>
        <time>2026-05-25T09:43:15.000Z</time>
      </trkpt>
      <trkpt lat="42.94352" lon="1.23364">
        <ele>1058</ele>
        <time>2026-05-25T09:43:16.000Z</time>
      </trkpt>
      <trkpt lat="42.94351" lon="1.23367">
        <ele>1059</ele>
        <time>2026-05-25T09:43:17.000Z</time>
      </trkpt>
      <trkpt lat="42.94351" lon="1.23372">
        <ele>1059</ele>
        <time>2026-05-25T09:43:18.000Z</time>
      </trkpt>
      <trkpt lat="42.94352" lon="1.23375">
        <ele>1060</ele>
        <time>2026-05-25T09:43:19.000Z</time>
      </trkpt>
      <trkpt lat="42.94352" lon="1.23379">
        <ele>1060</ele>
        <time>2026-05-25T09:43:20.000Z</time>
      </trkpt>
      <trkpt lat="42.94352" lon="1.23383">
        <ele>1061</ele>
        <time>2026-05-25T09:43:21.000Z</time>
      </trkpt>
      <trkpt lat="42.94352" lon="1.23387">
        <ele>1061</ele>
        <time>2026-05-25T09:43:22.000Z</time>
      </trkpt>
      <trkpt lat="42.94352" lon="1.23391">
        <ele>1062</ele>
        <time>2026-05-25T09:43:23.000Z</time>
      </trkpt>
      <trkpt lat="42.94353" lon="1.23394">
        <ele>1062</ele>
        <time>2026-05-25T09:43:24.000Z</time>
      </trkpt>
      <trkpt lat="42.94353" lon="1.23398">
        <ele>1062</ele>
        <time>2026-05-25T09:43:25.000Z</time>
      </trkpt>
      <trkpt lat="42.94354" lon="1.23401">
        <ele>1062</ele>
        <time>2026-05-25T09:43:26.000Z</time>
      </trkpt>
      <trkpt lat="42.94355" lon="1.23405">
        <ele>1062</ele>
        <time>2026-05-25T09:43:27.000Z</time>
      </trkpt>
      <trkpt lat="42.94356" lon="1.23407">
        <ele>1062</ele>
        <time>2026-05-25T09:43:28.000Z</time>
      </trkpt>
      <trkpt lat="42.94357" lon="1.2341">
        <ele>1062</ele>
        <time>2026-05-25T09:43:29.000Z</time>
      </trkpt>
      <trkpt lat="42.94358" lon="1.23414">
        <ele>1062</ele>
        <time>2026-05-25T09:43:30.000Z</time>
      </trkpt>
      <trkpt lat="42.94359" lon="1.23417">
        <ele>1063</ele>
        <time>2026-05-25T09:43:31.000Z</time>
      </trkpt>
      <trkpt lat="42.9436" lon="1.2342">
        <ele>1063</ele>
        <time>2026-05-25T09:43:32.000Z</time>
      </trkpt>
      <trkpt lat="42.94361" lon="1.23422">
        <ele>1064</ele>
        <time>2026-05-25T09:43:33.000Z</time>
      </trkpt>
      <trkpt lat="42.94362" lon="1.23425">
        <ele>1064</ele>
        <time>2026-05-25T09:43:34.000Z</time>
      </trkpt>
      <trkpt lat="42.94363" lon="1.23428">
        <ele>1064</ele>
        <time>2026-05-25T09:43:35.000Z</time>
      </trkpt>
      <trkpt lat="42.94364" lon="1.23431">
        <ele>1064</ele>
        <time>2026-05-25T09:43:36.000Z</time>
      </trkpt>
      <trkpt lat="42.94365" lon="1.23434">
        <ele>1064</ele>
        <time>2026-05-25T09:43:37.000Z</time>
      </trkpt>
      <trkpt lat="42.94366" lon="1.23437">
        <ele>1064</ele>
        <time>2026-05-25T09:43:38.000Z</time>
      </trkpt>
      <trkpt lat="42.94368" lon="1.2344">
        <ele>1065</ele>
        <time>2026-05-25T09:43:39.000Z</time>
      </trkpt>
      <trkpt lat="42.94369" lon="1.23444">
        <ele>1065</ele>
        <time>2026-05-25T09:43:40.000Z</time>
      </trkpt>
      <trkpt lat="42.9437" lon="1.23447">
        <ele>1065</ele>
        <time>2026-05-25T09:43:41.000Z</time>
      </trkpt>
      <trkpt lat="42.94372" lon="1.23451">
        <ele>1064</ele>
        <time>2026-05-25T09:43:42.000Z</time>
      </trkpt>
      <trkpt lat="42.94373" lon="1.23454">
        <ele>1064</ele>
        <time>2026-05-25T09:43:43.000Z</time>
      </trkpt>
      <trkpt lat="42.94375" lon="1.23457">
        <ele>1064</ele>
        <time>2026-05-25T09:43:44.000Z</time>
      </trkpt>
      <trkpt lat="42.94375" lon="1.23459">
        <ele>1065</ele>
        <time>2026-05-25T09:43:45.000Z</time>
      </trkpt>
      <trkpt lat="42.94376" lon="1.23462">
        <ele>1065</ele>
        <time>2026-05-25T09:43:46.000Z</time>
      </trkpt>
      <trkpt lat="42.94377" lon="1.23465">
        <ele>1065</ele>
        <time>2026-05-25T09:43:47.000Z</time>
      </trkpt>
      <trkpt lat="42.94378" lon="1.23468">
        <ele>1065</ele>
        <time>2026-05-25T09:43:48.000Z</time>
      </trkpt>
      <trkpt lat="42.9438" lon="1.2347">
        <ele>1066</ele>
        <time>2026-05-25T09:43:49.000Z</time>
      </trkpt>
      <trkpt lat="42.94381" lon="1.23472">
        <ele>1066</ele>
        <time>2026-05-25T09:43:50.000Z</time>
      </trkpt>
      <trkpt lat="42.94383" lon="1.23475">
        <ele>1066</ele>
        <time>2026-05-25T09:43:51.000Z</time>
      </trkpt>
      <trkpt lat="42.94384" lon="1.23478">
        <ele>1066</ele>
        <time>2026-05-25T09:43:52.000Z</time>
      </trkpt>
      <trkpt lat="42.94385" lon="1.23481">
        <ele>1067</ele>
        <time>2026-05-25T09:43:53.000Z</time>
      </trkpt>
      <trkpt lat="42.94386" lon="1.23484">
        <ele>1067</ele>
        <time>2026-05-25T09:43:54.000Z</time>
      </trkpt>
      <trkpt lat="42.94388" lon="1.23486">
        <ele>1069</ele>
        <time>2026-05-25T09:43:55.000Z</time>
      </trkpt>
      <trkpt lat="42.94389" lon="1.23488">
        <ele>1069</ele>
        <time>2026-05-25T09:43:56.000Z</time>
      </trkpt>
      <trkpt lat="42.9439" lon="1.23491">
        <ele>1070</ele>
        <time>2026-05-25T09:43:57.000Z</time>
      </trkpt>
      <trkpt lat="42.94392" lon="1.23493">
        <ele>1070</ele>
        <time>2026-05-25T09:43:58.000Z</time>
      </trkpt>
      <trkpt lat="42.94394" lon="1.23496">
        <ele>1071</ele>
        <time>2026-05-25T09:43:59.000Z</time>
      </trkpt>
      <trkpt lat="42.94395" lon="1.23499">
        <ele>1072</ele>
        <time>2026-05-25T09:44:00.000Z</time>
      </trkpt>
      <trkpt lat="42.94397" lon="1.23501">
        <ele>1073</ele>
        <time>2026-05-25T09:44:01.000Z</time>
      </trkpt>
      <trkpt lat="42.94399" lon="1.23503">
        <ele>1074</ele>
        <time>2026-05-25T09:44:02.000Z</time>
      </trkpt>
      <trkpt lat="42.94402" lon="1.23505">
        <ele>1074</ele>
        <time>2026-05-25T09:44:03.000Z</time>
      </trkpt>
      <trkpt lat="42.94404" lon="1.23506">
        <ele>1075</ele>
        <time>2026-05-25T09:44:04.000Z</time>
      </trkpt>
      <trkpt lat="42.94405" lon="1.23507">
        <ele>1076</ele>
        <time>2026-05-25T09:44:05.000Z</time>
      </trkpt>
      <trkpt lat="42.94408" lon="1.23509">
        <ele>1076</ele>
        <time>2026-05-25T09:44:06.000Z</time>
      </trkpt>
      <trkpt lat="42.9441" lon="1.2351">
        <ele>1076</ele>
        <time>2026-05-25T09:44:07.000Z</time>
      </trkpt>
      <trkpt lat="42.94412" lon="1.23511">
        <ele>1077</ele>
        <time>2026-05-25T09:44:08.000Z</time>
      </trkpt>
      <trkpt lat="42.94413" lon="1.23513">
        <ele>1077</ele>
        <time>2026-05-25T09:44:09.000Z</time>
      </trkpt>
      <trkpt lat="42.94415" lon="1.23514">
        <ele>1078</ele>
        <time>2026-05-25T09:44:10.000Z</time>
      </trkpt>
      <trkpt lat="42.94417" lon="1.23516">
        <ele>1079</ele>
        <time>2026-05-25T09:44:11.000Z</time>
      </trkpt>
      <trkpt lat="42.94419" lon="1.23516">
        <ele>1078</ele>
        <time>2026-05-25T09:44:12.000Z</time>
      </trkpt>
      <trkpt lat="42.94421" lon="1.23517">
        <ele>1079</ele>
        <time>2026-05-25T09:44:13.000Z</time>
      </trkpt>
      <trkpt lat="42.94423" lon="1.23519">
        <ele>1080</ele>
        <time>2026-05-25T09:44:14.000Z</time>
      </trkpt>
      <trkpt lat="42.94425" lon="1.2352">
        <ele>1080</ele>
        <time>2026-05-25T09:44:15.000Z</time>
      </trkpt>
      <trkpt lat="42.94428" lon="1.23521">
        <ele>1081</ele>
        <time>2026-05-25T09:44:16.000Z</time>
      </trkpt>
      <trkpt lat="42.9443" lon="1.23522">
        <ele>1081</ele>
        <time>2026-05-25T09:44:17.000Z</time>
      </trkpt>
      <trkpt lat="42.94433" lon="1.23523">
        <ele>1081</ele>
        <time>2026-05-25T09:44:18.000Z</time>
      </trkpt>
      <trkpt lat="42.94435" lon="1.23523">
        <ele>1080</ele>
        <time>2026-05-25T09:44:19.000Z</time>
      </trkpt>
      <trkpt lat="42.94437" lon="1.23524">
        <ele>1080</ele>
        <time>2026-05-25T09:44:20.000Z</time>
      </trkpt>
      <trkpt lat="42.94439" lon="1.23525">
        <ele>1080</ele>
        <time>2026-05-25T09:44:21.000Z</time>
      </trkpt>
      <trkpt lat="42.94441" lon="1.23526">
        <ele>1080</ele>
        <time>2026-05-25T09:44:22.000Z</time>
      </trkpt>
      <trkpt lat="42.94443" lon="1.23526">
        <ele>1081</ele>
        <time>2026-05-25T09:44:23.000Z</time>
      </trkpt>
      <trkpt lat="42.94446" lon="1.23526">
        <ele>1081</ele>
        <time>2026-05-25T09:44:24.000Z</time>
      </trkpt>
      <trkpt lat="42.94448" lon="1.23527">
        <ele>1081</ele>
        <time>2026-05-25T09:44:25.000Z</time>
      </trkpt>
      <trkpt lat="42.9445" lon="1.23528">
        <ele>1081</ele>
        <time>2026-05-25T09:44:26.000Z</time>
      </trkpt>
      <trkpt lat="42.94452" lon="1.23528">
        <ele>1082</ele>
        <time>2026-05-25T09:44:27.000Z</time>
      </trkpt>
      <trkpt lat="42.94454" lon="1.23529">
        <ele>1083</ele>
        <time>2026-05-25T09:44:28.000Z</time>
      </trkpt>
      <trkpt lat="42.94456" lon="1.2353">
        <ele>1083</ele>
        <time>2026-05-25T09:44:29.000Z</time>
      </trkpt>
      <trkpt lat="42.94457" lon="1.23531">
        <ele>1083</ele>
        <time>2026-05-25T09:44:30.000Z</time>
      </trkpt>
      <trkpt lat="42.9446" lon="1.23532">
        <ele>1084</ele>
        <time>2026-05-25T09:44:31.000Z</time>
      </trkpt>
      <trkpt lat="42.94462" lon="1.23533">
        <ele>1086</ele>
        <time>2026-05-25T09:44:32.000Z</time>
      </trkpt>
      <trkpt lat="42.94464" lon="1.23534">
        <ele>1086</ele>
        <time>2026-05-25T09:44:33.000Z</time>
      </trkpt>
      <trkpt lat="42.94467" lon="1.23536">
        <ele>1086</ele>
        <time>2026-05-25T09:44:34.000Z</time>
      </trkpt>
      <trkpt lat="42.94469" lon="1.23537">
        <ele>1086</ele>
        <time>2026-05-25T09:44:35.000Z</time>
      </trkpt>
      <trkpt lat="42.94471" lon="1.23539">
        <ele>1086</ele>
        <time>2026-05-25T09:44:36.000Z</time>
      </trkpt>
      <trkpt lat="42.94473" lon="1.23541">
        <ele>1086</ele>
        <time>2026-05-25T09:44:37.000Z</time>
      </trkpt>
      <trkpt lat="42.94475" lon="1.23543">
        <ele>1086</ele>
        <time>2026-05-25T09:44:38.000Z</time>
      </trkpt>
      <trkpt lat="42.94477" lon="1.23544">
        <ele>1086</ele>
        <time>2026-05-25T09:44:39.000Z</time>
      </trkpt>
      <trkpt lat="42.94479" lon="1.23545">
        <ele>1087</ele>
        <time>2026-05-25T09:44:40.000Z</time>
      </trkpt>
      <trkpt lat="42.94481" lon="1.23547">
        <ele>1088</ele>
        <time>2026-05-25T09:44:41.000Z</time>
      </trkpt>
      <trkpt lat="42.94483" lon="1.23548">
        <ele>1089</ele>
        <time>2026-05-25T09:44:42.000Z</time>
      </trkpt>
      <trkpt lat="42.94485" lon="1.2355">
        <ele>1090</ele>
        <time>2026-05-25T09:44:43.000Z</time>
      </trkpt>
      <trkpt lat="42.94487" lon="1.23552">
        <ele>1090</ele>
        <time>2026-05-25T09:44:44.000Z</time>
      </trkpt>
      <trkpt lat="42.9449" lon="1.23555">
        <ele>1091</ele>
        <time>2026-05-25T09:44:45.000Z</time>
      </trkpt>
      <trkpt lat="42.94492" lon="1.23556">
        <ele>1091</ele>
        <time>2026-05-25T09:44:46.000Z</time>
      </trkpt>
      <trkpt lat="42.94494" lon="1.23559">
        <ele>1092</ele>
        <time>2026-05-25T09:44:47.000Z</time>
      </trkpt>
      <trkpt lat="42.94497" lon="1.23561">
        <ele>1092</ele>
        <time>2026-05-25T09:44:48.000Z</time>
      </trkpt>
      <trkpt lat="42.94499" lon="1.23564">
        <ele>1092</ele>
        <time>2026-05-25T09:44:49.000Z</time>
      </trkpt>
      <trkpt lat="42.94502" lon="1.23567">
        <ele>1091</ele>
        <time>2026-05-25T09:44:50.000Z</time>
      </trkpt>
      <trkpt lat="42.94504" lon="1.23569">
        <ele>1091</ele>
        <time>2026-05-25T09:44:51.000Z</time>
      </trkpt>
      <trkpt lat="42.94506" lon="1.23572">
        <ele>1091</ele>
        <time>2026-05-25T09:44:52.000Z</time>
      </trkpt>
      <trkpt lat="42.94508" lon="1.23575">
        <ele>1091</ele>
        <time>2026-05-25T09:44:53.000Z</time>
      </trkpt>
      <trkpt lat="42.9451" lon="1.23577">
        <ele>1090</ele>
        <time>2026-05-25T09:44:54.000Z</time>
      </trkpt>
      <trkpt lat="42.94511" lon="1.2358">
        <ele>1089</ele>
        <time>2026-05-25T09:44:55.000Z</time>
      </trkpt>
      <trkpt lat="42.94512" lon="1.23583">
        <ele>1090</ele>
        <time>2026-05-25T09:44:56.000Z</time>
      </trkpt>
      <trkpt lat="42.94514" lon="1.23586">
        <ele>1090</ele>
        <time>2026-05-25T09:44:57.000Z</time>
      </trkpt>
      <trkpt lat="42.94516" lon="1.2359">
        <ele>1089</ele>
        <time>2026-05-25T09:44:58.000Z</time>
      </trkpt>
      <trkpt lat="42.94517" lon="1.23593">
        <ele>1089</ele>
        <time>2026-05-25T09:44:59.000Z</time>
      </trkpt>
      <trkpt lat="42.94518" lon="1.23596">
        <ele>1089</ele>
        <time>2026-05-25T09:45:00.000Z</time>
      </trkpt>
      <trkpt lat="42.94519" lon="1.23599">
        <ele>1089</ele>
        <time>2026-05-25T09:45:01.000Z</time>
      </trkpt>
      <trkpt lat="42.9452" lon="1.23603">
        <ele>1089</ele>
        <time>2026-05-25T09:45:02.000Z</time>
      </trkpt>
      <trkpt lat="42.94522" lon="1.23607">
        <ele>1089</ele>
        <time>2026-05-25T09:45:03.000Z</time>
      </trkpt>
      <trkpt lat="42.94524" lon="1.2361">
        <ele>1088</ele>
        <time>2026-05-25T09:45:04.000Z</time>
      </trkpt>
      <trkpt lat="42.94525" lon="1.23613">
        <ele>1088</ele>
        <time>2026-05-25T09:45:05.000Z</time>
      </trkpt>
      <trkpt lat="42.94526" lon="1.23616">
        <ele>1089</ele>
        <time>2026-05-25T09:45:06.000Z</time>
      </trkpt>
      <trkpt lat="42.94528" lon="1.23619">
        <ele>1088</ele>
        <time>2026-05-25T09:45:07.000Z</time>
      </trkpt>
      <trkpt lat="42.9453" lon="1.23622">
        <ele>1087</ele>
        <time>2026-05-25T09:45:08.000Z</time>
      </trkpt>
      <trkpt lat="42.94532" lon="1.23625">
        <ele>1087</ele>
        <time>2026-05-25T09:45:09.000Z</time>
      </trkpt>
      <trkpt lat="42.94533" lon="1.23629">
        <ele>1087</ele>
        <time>2026-05-25T09:45:10.000Z</time>
      </trkpt>
      <trkpt lat="42.94534" lon="1.23631">
        <ele>1087</ele>
        <time>2026-05-25T09:45:11.000Z</time>
      </trkpt>
      <trkpt lat="42.94536" lon="1.23634">
        <ele>1087</ele>
        <time>2026-05-25T09:45:12.000Z</time>
      </trkpt>
      <trkpt lat="42.94537" lon="1.23637">
        <ele>1087</ele>
        <time>2026-05-25T09:45:13.000Z</time>
      </trkpt>
      <trkpt lat="42.94538" lon="1.2364">
        <ele>1088</ele>
        <time>2026-05-25T09:45:14.000Z</time>
      </trkpt>
      <trkpt lat="42.94539" lon="1.23643">
        <ele>1088</ele>
        <time>2026-05-25T09:45:15.000Z</time>
      </trkpt>
      <trkpt lat="42.9454" lon="1.23647">
        <ele>1088</ele>
        <time>2026-05-25T09:45:16.000Z</time>
      </trkpt>
      <trkpt lat="42.94541" lon="1.2365">
        <ele>1088</ele>
        <time>2026-05-25T09:45:17.000Z</time>
      </trkpt>
      <trkpt lat="42.94542" lon="1.23652">
        <ele>1088</ele>
        <time>2026-05-25T09:45:18.000Z</time>
      </trkpt>
      <trkpt lat="42.94543" lon="1.23655">
        <ele>1088</ele>
        <time>2026-05-25T09:45:19.000Z</time>
      </trkpt>
      <trkpt lat="42.94544" lon="1.23656">
        <ele>1089</ele>
        <time>2026-05-25T09:45:20.000Z</time>
      </trkpt>
      <trkpt lat="42.94545" lon="1.23659">
        <ele>1091</ele>
        <time>2026-05-25T09:45:21.000Z</time>
      </trkpt>
      <trkpt lat="42.94546" lon="1.23662">
        <ele>1091</ele>
        <time>2026-05-25T09:45:22.000Z</time>
      </trkpt>
      <trkpt lat="42.94548" lon="1.23664">
        <ele>1091</ele>
        <time>2026-05-25T09:45:23.000Z</time>
      </trkpt>
      <trkpt lat="42.9455" lon="1.23669">
        <ele>1091</ele>
        <time>2026-05-25T09:45:24.000Z</time>
      </trkpt>
      <trkpt lat="42.94552" lon="1.23672">
        <ele>1091</ele>
        <time>2026-05-25T09:45:25.000Z</time>
      </trkpt>
      <trkpt lat="42.94553" lon="1.23674">
        <ele>1092</ele>
        <time>2026-05-25T09:45:26.000Z</time>
      </trkpt>
      <trkpt lat="42.94553" lon="1.23678">
        <ele>1093</ele>
        <time>2026-05-25T09:45:27.000Z</time>
      </trkpt>
      <trkpt lat="42.94553" lon="1.23681">
        <ele>1093</ele>
        <time>2026-05-25T09:45:28.000Z</time>
      </trkpt>
      <trkpt lat="42.94551" lon="1.23684">
        <ele>1093</ele>
        <time>2026-05-25T09:45:29.000Z</time>
      </trkpt>
      <trkpt lat="42.94549" lon="1.23686">
        <ele>1092</ele>
        <time>2026-05-25T09:45:30.000Z</time>
      </trkpt>
      <trkpt lat="42.94547" lon="1.23686">
        <ele>1091</ele>
        <time>2026-05-25T09:45:31.000Z</time>
      </trkpt>
      <trkpt lat="42.94545" lon="1.23684">
        <ele>1091</ele>
        <time>2026-05-25T09:45:32.000Z</time>
      </trkpt>
      <trkpt lat="42.94543" lon="1.23682">
        <ele>1090</ele>
        <time>2026-05-25T09:45:33.000Z</time>
      </trkpt>
      <trkpt lat="42.94542" lon="1.2368">
        <ele>1090</ele>
        <time>2026-05-25T09:45:34.000Z</time>
      </trkpt>
      <trkpt lat="42.94541" lon="1.23678">
        <ele>1089</ele>
        <time>2026-05-25T09:45:35.000Z</time>
      </trkpt>
      <trkpt lat="42.9454" lon="1.23676">
        <ele>1089</ele>
        <time>2026-05-25T09:45:36.000Z</time>
      </trkpt>
      <trkpt lat="42.94539" lon="1.23673">
        <ele>1088</ele>
        <time>2026-05-25T09:45:37.000Z</time>
      </trkpt>
      <trkpt lat="42.94538" lon="1.2367">
        <ele>1088</ele>
        <time>2026-05-25T09:45:38.000Z</time>
      </trkpt>
      <trkpt lat="42.94537" lon="1.23668">
        <ele>1088</ele>
        <time>2026-05-25T09:45:39.000Z</time>
      </trkpt>
      <trkpt lat="42.94536" lon="1.23666">
        <ele>1088</ele>
        <time>2026-05-25T09:45:40.000Z</time>
      </trkpt>
      <trkpt lat="42.94534" lon="1.23663">
        <ele>1088</ele>
        <time>2026-05-25T09:45:41.000Z</time>
      </trkpt>
      <trkpt lat="42.94532" lon="1.23661">
        <ele>1088</ele>
        <time>2026-05-25T09:45:42.000Z</time>
      </trkpt>
      <trkpt lat="42.94531" lon="1.23659">
        <ele>1089</ele>
        <time>2026-05-25T09:45:43.000Z</time>
      </trkpt>
      <trkpt lat="42.94529" lon="1.23657">
        <ele>1089</ele>
        <time>2026-05-25T09:45:44.000Z</time>
      </trkpt>
      <trkpt lat="42.94527" lon="1.23656">
        <ele>1088</ele>
        <time>2026-05-25T09:45:45.000Z</time>
      </trkpt>
      <trkpt lat="42.94526" lon="1.23654">
        <ele>1089</ele>
        <time>2026-05-25T09:45:46.000Z</time>
      </trkpt>
      <trkpt lat="42.94523" lon="1.23653">
        <ele>1090</ele>
        <time>2026-05-25T09:45:47.000Z</time>
      </trkpt>
      <trkpt lat="42.94521" lon="1.23651">
        <ele>1090</ele>
        <time>2026-05-25T09:45:48.000Z</time>
      </trkpt>
      <trkpt lat="42.94519" lon="1.23649">
        <ele>1091</ele>
        <time>2026-05-25T09:45:49.000Z</time>
      </trkpt>
      <trkpt lat="42.94517" lon="1.23647">
        <ele>1091</ele>
        <time>2026-05-25T09:45:50.000Z</time>
      </trkpt>
      <trkpt lat="42.94515" lon="1.23646">
        <ele>1092</ele>
        <time>2026-05-25T09:45:51.000Z</time>
      </trkpt>
      <trkpt lat="42.94513" lon="1.23644">
        <ele>1092</ele>
        <time>2026-05-25T09:45:52.000Z</time>
      </trkpt>
      <trkpt lat="42.94511" lon="1.23642">
        <ele>1093</ele>
        <time>2026-05-25T09:45:53.000Z</time>
      </trkpt>
      <trkpt lat="42.9451" lon="1.2364">
        <ele>1093</ele>
        <time>2026-05-25T09:45:54.000Z</time>
      </trkpt>
      <trkpt lat="42.94508" lon="1.23638">
        <ele>1094</ele>
        <time>2026-05-25T09:45:55.000Z</time>
      </trkpt>
      <trkpt lat="42.94506" lon="1.23637">
        <ele>1094</ele>
        <time>2026-05-25T09:45:56.000Z</time>
      </trkpt>
      <trkpt lat="42.94503" lon="1.23634">
        <ele>1094</ele>
        <time>2026-05-25T09:45:57.000Z</time>
      </trkpt>
      <trkpt lat="42.94502" lon="1.23632">
        <ele>1094</ele>
        <time>2026-05-25T09:45:58.000Z</time>
      </trkpt>
      <trkpt lat="42.94499" lon="1.2363">
        <ele>1095</ele>
        <time>2026-05-25T09:45:59.000Z</time>
      </trkpt>
      <trkpt lat="42.94498" lon="1.23627">
        <ele>1095</ele>
        <time>2026-05-25T09:46:00.000Z</time>
      </trkpt>
      <trkpt lat="42.94497" lon="1.23625">
        <ele>1096</ele>
        <time>2026-05-25T09:46:01.000Z</time>
      </trkpt>
      <trkpt lat="42.94496" lon="1.23622">
        <ele>1097</ele>
        <time>2026-05-25T09:46:02.000Z</time>
      </trkpt>
      <trkpt lat="42.94494" lon="1.2362">
        <ele>1096</ele>
        <time>2026-05-25T09:46:03.000Z</time>
      </trkpt>
      <trkpt lat="42.94493" lon="1.23617">
        <ele>1096</ele>
        <time>2026-05-25T09:46:04.000Z</time>
      </trkpt>
      <trkpt lat="42.94491" lon="1.23615">
        <ele>1097</ele>
        <time>2026-05-25T09:46:05.000Z</time>
      </trkpt>
      <trkpt lat="42.94489" lon="1.23613">
        <ele>1097</ele>
        <time>2026-05-25T09:46:06.000Z</time>
      </trkpt>
      <trkpt lat="42.94488" lon="1.23611">
        <ele>1097</ele>
        <time>2026-05-25T09:46:07.000Z</time>
      </trkpt>
      <trkpt lat="42.94486" lon="1.23609">
        <ele>1098</ele>
        <time>2026-05-25T09:46:08.000Z</time>
      </trkpt>
      <trkpt lat="42.94484" lon="1.23607">
        <ele>1097</ele>
        <time>2026-05-25T09:46:09.000Z</time>
      </trkpt>
      <trkpt lat="42.94482" lon="1.23606">
        <ele>1097</ele>
        <time>2026-05-25T09:46:10.000Z</time>
      </trkpt>
      <trkpt lat="42.9448" lon="1.23604">
        <ele>1097</ele>
        <time>2026-05-25T09:46:11.000Z</time>
      </trkpt>
      <trkpt lat="42.94477" lon="1.23604">
        <ele>1096</ele>
        <time>2026-05-25T09:46:12.000Z</time>
      </trkpt>
      <trkpt lat="42.94474" lon="1.23603">
        <ele>1097</ele>
        <time>2026-05-25T09:46:13.000Z</time>
      </trkpt>
      <trkpt lat="42.94472" lon="1.23602">
        <ele>1097</ele>
        <time>2026-05-25T09:46:14.000Z</time>
      </trkpt>
      <trkpt lat="42.9447" lon="1.23601">
        <ele>1097</ele>
        <time>2026-05-25T09:46:15.000Z</time>
      </trkpt>
      <trkpt lat="42.94468" lon="1.236">
        <ele>1097</ele>
        <time>2026-05-25T09:46:16.000Z</time>
      </trkpt>
      <trkpt lat="42.94465" lon="1.23599">
        <ele>1097</ele>
        <time>2026-05-25T09:46:17.000Z</time>
      </trkpt>
      <trkpt lat="42.94463" lon="1.23598">
        <ele>1097</ele>
        <time>2026-05-25T09:46:18.000Z</time>
      </trkpt>
      <trkpt lat="42.94461" lon="1.23597">
        <ele>1098</ele>
        <time>2026-05-25T09:46:19.000Z</time>
      </trkpt>
      <trkpt lat="42.94458" lon="1.23597">
        <ele>1099</ele>
        <time>2026-05-25T09:46:20.000Z</time>
      </trkpt>
      <trkpt lat="42.94455" lon="1.23597">
        <ele>1100</ele>
        <time>2026-05-25T09:46:21.000Z</time>
      </trkpt>
      <trkpt lat="42.94452" lon="1.23596">
        <ele>1099</ele>
        <time>2026-05-25T09:46:22.000Z</time>
      </trkpt>
      <trkpt lat="42.9445" lon="1.23595">
        <ele>1100</ele>
        <time>2026-05-25T09:46:23.000Z</time>
      </trkpt>
      <trkpt lat="42.94448" lon="1.23595">
        <ele>1100</ele>
        <time>2026-05-25T09:46:24.000Z</time>
      </trkpt>
      <trkpt lat="42.94445" lon="1.23595">
        <ele>1100</ele>
        <time>2026-05-25T09:46:25.000Z</time>
      </trkpt>
      <trkpt lat="42.94443" lon="1.23595">
        <ele>1100</ele>
        <time>2026-05-25T09:46:26.000Z</time>
      </trkpt>
      <trkpt lat="42.9444" lon="1.23595">
        <ele>1100</ele>
        <time>2026-05-25T09:46:27.000Z</time>
      </trkpt>
      <trkpt lat="42.94439" lon="1.23596">
        <ele>1100</ele>
        <time>2026-05-25T09:46:28.000Z</time>
      </trkpt>
      <trkpt lat="42.94436" lon="1.23595">
        <ele>1101</ele>
        <time>2026-05-25T09:46:29.000Z</time>
      </trkpt>
      <trkpt lat="42.94434" lon="1.23595">
        <ele>1101</ele>
        <time>2026-05-25T09:46:30.000Z</time>
      </trkpt>
      <trkpt lat="42.94432" lon="1.23595">
        <ele>1102</ele>
        <time>2026-05-25T09:46:31.000Z</time>
      </trkpt>
      <trkpt lat="42.94431" lon="1.23595">
        <ele>1103</ele>
        <time>2026-05-25T09:46:32.000Z</time>
      </trkpt>
      <trkpt lat="42.94429" lon="1.23595">
        <ele>1103</ele>
        <time>2026-05-25T09:46:33.000Z</time>
      </trkpt>
      <trkpt lat="42.94427" lon="1.23595">
        <ele>1104</ele>
        <time>2026-05-25T09:46:34.000Z</time>
      </trkpt>
      <trkpt lat="42.94425" lon="1.23596">
        <ele>1105</ele>
        <time>2026-05-25T09:46:35.000Z</time>
      </trkpt>
      <trkpt lat="42.94423" lon="1.23595">
        <ele>1105</ele>
        <time>2026-05-25T09:46:36.000Z</time>
      </trkpt>
      <trkpt lat="42.94422" lon="1.23595">
        <ele>1106</ele>
        <time>2026-05-25T09:46:37.000Z</time>
      </trkpt>
      <trkpt lat="42.9442" lon="1.23594">
        <ele>1105</ele>
        <time>2026-05-25T09:46:38.000Z</time>
      </trkpt>
      <trkpt lat="42.94418" lon="1.23594">
        <ele>1106</ele>
        <time>2026-05-25T09:46:39.000Z</time>
      </trkpt>
      <trkpt lat="42.94416" lon="1.23595">
        <ele>1106</ele>
        <time>2026-05-25T09:46:40.000Z</time>
      </trkpt>
      <trkpt lat="42.94414" lon="1.23594">
        <ele>1106</ele>
        <time>2026-05-25T09:46:41.000Z</time>
      </trkpt>
      <trkpt lat="42.94412" lon="1.23594">
        <ele>1107</ele>
        <time>2026-05-25T09:46:42.000Z</time>
      </trkpt>
      <trkpt lat="42.9441" lon="1.23593">
        <ele>1108</ele>
        <time>2026-05-25T09:46:43.000Z</time>
      </trkpt>
      <trkpt lat="42.94408" lon="1.23593">
        <ele>1109</ele>
        <time>2026-05-25T09:46:44.000Z</time>
      </trkpt>
      <trkpt lat="42.94406" lon="1.23592">
        <ele>1108</ele>
        <time>2026-05-25T09:46:45.000Z</time>
      </trkpt>
      <trkpt lat="42.94403" lon="1.23591">
        <ele>1109</ele>
        <time>2026-05-25T09:46:46.000Z</time>
      </trkpt>
      <trkpt lat="42.94401" lon="1.2359">
        <ele>1110</ele>
        <time>2026-05-25T09:46:47.000Z</time>
      </trkpt>
      <trkpt lat="42.94398" lon="1.23589">
        <ele>1110</ele>
        <time>2026-05-25T09:46:48.000Z</time>
      </trkpt>
      <trkpt lat="42.94395" lon="1.23588">
        <ele>1109</ele>
        <time>2026-05-25T09:46:49.000Z</time>
      </trkpt>
      <trkpt lat="42.94393" lon="1.23588">
        <ele>1110</ele>
        <time>2026-05-25T09:46:50.000Z</time>
      </trkpt>
      <trkpt lat="42.9439" lon="1.23587">
        <ele>1110</ele>
        <time>2026-05-25T09:46:51.000Z</time>
      </trkpt>
      <trkpt lat="42.94388" lon="1.23587">
        <ele>1110</ele>
        <time>2026-05-25T09:46:52.000Z</time>
      </trkpt>
      <trkpt lat="42.94385" lon="1.23586">
        <ele>1110</ele>
        <time>2026-05-25T09:46:53.000Z</time>
      </trkpt>
      <trkpt lat="42.94383" lon="1.23586">
        <ele>1110</ele>
        <time>2026-05-25T09:46:54.000Z</time>
      </trkpt>
      <trkpt lat="42.9438" lon="1.23585">
        <ele>1110</ele>
        <time>2026-05-25T09:46:55.000Z</time>
      </trkpt>
      <trkpt lat="42.94378" lon="1.23585">
        <ele>1109</ele>
        <time>2026-05-25T09:46:56.000Z</time>
      </trkpt>
      <trkpt lat="42.94375" lon="1.23584">
        <ele>1110</ele>
        <time>2026-05-25T09:46:57.000Z</time>
      </trkpt>
      <trkpt lat="42.94373" lon="1.23583">
        <ele>1110</ele>
        <time>2026-05-25T09:46:58.000Z</time>
      </trkpt>
      <trkpt lat="42.94371" lon="1.23582">
        <ele>1110</ele>
        <time>2026-05-25T09:46:59.000Z</time>
      </trkpt>
      <trkpt lat="42.94369" lon="1.23581">
        <ele>1110</ele>
        <time>2026-05-25T09:47:00.000Z</time>
      </trkpt>
      <trkpt lat="42.94367" lon="1.23579">
        <ele>1110</ele>
        <time>2026-05-25T09:47:01.000Z</time>
      </trkpt>
      <trkpt lat="42.94365" lon="1.23578">
        <ele>1110</ele>
        <time>2026-05-25T09:47:02.000Z</time>
      </trkpt>
      <trkpt lat="42.94363" lon="1.23575">
        <ele>1111</ele>
        <time>2026-05-25T09:47:03.000Z</time>
      </trkpt>
      <trkpt lat="42.94361" lon="1.23573">
        <ele>1111</ele>
        <time>2026-05-25T09:47:04.000Z</time>
      </trkpt>
      <trkpt lat="42.94359" lon="1.23572">
        <ele>1112</ele>
        <time>2026-05-25T09:47:05.000Z</time>
      </trkpt>
      <trkpt lat="42.94356" lon="1.23571">
        <ele>1111</ele>
        <time>2026-05-25T09:47:06.000Z</time>
      </trkpt>
      <trkpt lat="42.94354" lon="1.23569">
        <ele>1112</ele>
        <time>2026-05-25T09:47:07.000Z</time>
      </trkpt>
      <trkpt lat="42.94352" lon="1.23567">
        <ele>1112</ele>
        <time>2026-05-25T09:47:08.000Z</time>
      </trkpt>
      <trkpt lat="42.9435" lon="1.23566">
        <ele>1113</ele>
        <time>2026-05-25T09:47:09.000Z</time>
      </trkpt>
      <trkpt lat="42.94348" lon="1.23564">
        <ele>1113</ele>
        <time>2026-05-25T09:47:10.000Z</time>
      </trkpt>
      <trkpt lat="42.94346" lon="1.23562">
        <ele>1113</ele>
        <time>2026-05-25T09:47:11.000Z</time>
      </trkpt>
      <trkpt lat="42.94345" lon="1.2356">
        <ele>1114</ele>
        <time>2026-05-25T09:47:12.000Z</time>
      </trkpt>
      <trkpt lat="42.94344" lon="1.23558">
        <ele>1115</ele>
        <time>2026-05-25T09:47:13.000Z</time>
      </trkpt>
      <trkpt lat="42.94342" lon="1.23555">
        <ele>1115</ele>
        <time>2026-05-25T09:47:14.000Z</time>
      </trkpt>
      <trkpt lat="42.94341" lon="1.23553">
        <ele>1115</ele>
        <time>2026-05-25T09:47:15.000Z</time>
      </trkpt>
      <trkpt lat="42.9434" lon="1.2355">
        <ele>1116</ele>
        <time>2026-05-25T09:47:16.000Z</time>
      </trkpt>
      <trkpt lat="42.94339" lon="1.23547">
        <ele>1116</ele>
        <time>2026-05-25T09:47:17.000Z</time>
      </trkpt>
      <trkpt lat="42.94337" lon="1.23545">
        <ele>1116</ele>
        <time>2026-05-25T09:47:18.000Z</time>
      </trkpt>
      <trkpt lat="42.94336" lon="1.23542">
        <ele>1117</ele>
        <time>2026-05-25T09:47:19.000Z</time>
      </trkpt>
      <trkpt lat="42.94334" lon="1.2354">
        <ele>1117</ele>
        <time>2026-05-25T09:47:20.000Z</time>
      </trkpt>
      <trkpt lat="42.94332" lon="1.23538">
        <ele>1117</ele>
        <time>2026-05-25T09:47:21.000Z</time>
      </trkpt>
      <trkpt lat="42.94329" lon="1.23536">
        <ele>1117</ele>
        <time>2026-05-25T09:47:22.000Z</time>
      </trkpt>
      <trkpt lat="42.94327" lon="1.23533">
        <ele>1117</ele>
        <time>2026-05-25T09:47:23.000Z</time>
      </trkpt>
      <trkpt lat="42.94326" lon="1.2353">
        <ele>1117</ele>
        <time>2026-05-25T09:47:24.000Z</time>
      </trkpt>
      <trkpt lat="42.94324" lon="1.23528">
        <ele>1117</ele>
        <time>2026-05-25T09:47:25.000Z</time>
      </trkpt>
      <trkpt lat="42.94322" lon="1.23525">
        <ele>1117</ele>
        <time>2026-05-25T09:47:26.000Z</time>
      </trkpt>
      <trkpt lat="42.94321" lon="1.23523">
        <ele>1117</ele>
        <time>2026-05-25T09:47:27.000Z</time>
      </trkpt>
      <trkpt lat="42.94319" lon="1.2352">
        <ele>1118</ele>
        <time>2026-05-25T09:47:28.000Z</time>
      </trkpt>
      <trkpt lat="42.94317" lon="1.23518">
        <ele>1117</ele>
        <time>2026-05-25T09:47:29.000Z</time>
      </trkpt>
      <trkpt lat="42.94316" lon="1.23515">
        <ele>1117</ele>
        <time>2026-05-25T09:47:30.000Z</time>
      </trkpt>
      <trkpt lat="42.94314" lon="1.23512">
        <ele>1118</ele>
        <time>2026-05-25T09:47:31.000Z</time>
      </trkpt>
      <trkpt lat="42.94312" lon="1.2351">
        <ele>1118</ele>
        <time>2026-05-25T09:47:32.000Z</time>
      </trkpt>
      <trkpt lat="42.94311" lon="1.23507">
        <ele>1118</ele>
        <time>2026-05-25T09:47:33.000Z</time>
      </trkpt>
      <trkpt lat="42.94311" lon="1.23504">
        <ele>1118</ele>
        <time>2026-05-25T09:47:34.000Z</time>
      </trkpt>
      <trkpt lat="42.94309" lon="1.23501">
        <ele>1119</ele>
        <time>2026-05-25T09:47:35.000Z</time>
      </trkpt>
      <trkpt lat="42.94308" lon="1.235">
        <ele>1119</ele>
        <time>2026-05-25T09:47:36.000Z</time>
      </trkpt>
      <trkpt lat="42.94307" lon="1.23497">
        <ele>1119</ele>
        <time>2026-05-25T09:47:37.000Z</time>
      </trkpt>
      <trkpt lat="42.94306" lon="1.23494">
        <ele>1119</ele>
        <time>2026-05-25T09:47:38.000Z</time>
      </trkpt>
      <trkpt lat="42.94304" lon="1.23492">
        <ele>1120</ele>
        <time>2026-05-25T09:47:39.000Z</time>
      </trkpt>
      <trkpt lat="42.94303" lon="1.23489">
        <ele>1120</ele>
        <time>2026-05-25T09:47:40.000Z</time>
      </trkpt>
      <trkpt lat="42.94302" lon="1.23485">
        <ele>1120</ele>
        <time>2026-05-25T09:47:41.000Z</time>
      </trkpt>
      <trkpt lat="42.94301" lon="1.23482">
        <ele>1120</ele>
        <time>2026-05-25T09:47:42.000Z</time>
      </trkpt>
      <trkpt lat="42.94301" lon="1.23478">
        <ele>1120</ele>
        <time>2026-05-25T09:47:43.000Z</time>
      </trkpt>
      <trkpt lat="42.943" lon="1.23474">
        <ele>1120</ele>
        <time>2026-05-25T09:47:44.000Z</time>
      </trkpt>
      <trkpt lat="42.94299" lon="1.23471">
        <ele>1120</ele>
        <time>2026-05-25T09:47:45.000Z</time>
      </trkpt>
      <trkpt lat="42.94298" lon="1.23467">
        <ele>1120</ele>
        <time>2026-05-25T09:47:46.000Z</time>
      </trkpt>
      <trkpt lat="42.94296" lon="1.23465">
        <ele>1120</ele>
        <time>2026-05-25T09:47:47.000Z</time>
      </trkpt>
      <trkpt lat="42.94295" lon="1.23463">
        <ele>1120</ele>
        <time>2026-05-25T09:47:48.000Z</time>
      </trkpt>
      <trkpt lat="42.94294" lon="1.2346">
        <ele>1121</ele>
        <time>2026-05-25T09:47:49.000Z</time>
      </trkpt>
      <trkpt lat="42.94293" lon="1.23458">
        <ele>1121</ele>
        <time>2026-05-25T09:47:50.000Z</time>
      </trkpt>
      <trkpt lat="42.94291" lon="1.23455">
        <ele>1121</ele>
        <time>2026-05-25T09:47:51.000Z</time>
      </trkpt>
      <trkpt lat="42.94289" lon="1.23452">
        <ele>1121</ele>
        <time>2026-05-25T09:47:52.000Z</time>
      </trkpt>
      <trkpt lat="42.94288" lon="1.2345">
        <ele>1122</ele>
        <time>2026-05-25T09:47:53.000Z</time>
      </trkpt>
      <trkpt lat="42.94286" lon="1.23448">
        <ele>1122</ele>
        <time>2026-05-25T09:47:54.000Z</time>
      </trkpt>
      <trkpt lat="42.94286" lon="1.23446">
        <ele>1123</ele>
        <time>2026-05-25T09:47:55.000Z</time>
      </trkpt>
      <trkpt lat="42.94284" lon="1.23444">
        <ele>1123</ele>
        <time>2026-05-25T09:47:56.000Z</time>
      </trkpt>
      <trkpt lat="42.94283" lon="1.23442">
        <ele>1123</ele>
        <time>2026-05-25T09:47:57.000Z</time>
      </trkpt>
      <trkpt lat="42.94281" lon="1.23439">
        <ele>1123</ele>
        <time>2026-05-25T09:47:58.000Z</time>
      </trkpt>
      <trkpt lat="42.9428" lon="1.23436">
        <ele>1123</ele>
        <time>2026-05-25T09:47:59.000Z</time>
      </trkpt>
      <trkpt lat="42.9428" lon="1.23434">
        <ele>1123</ele>
        <time>2026-05-25T09:48:00.000Z</time>
      </trkpt>
      <trkpt lat="42.94279" lon="1.23431">
        <ele>1124</ele>
        <time>2026-05-25T09:48:01.000Z</time>
      </trkpt>
      <trkpt lat="42.94276" lon="1.2343">
        <ele>1125</ele>
        <time>2026-05-25T09:48:02.000Z</time>
      </trkpt>
      <trkpt lat="42.94273" lon="1.23428">
        <ele>1125</ele>
        <time>2026-05-25T09:48:03.000Z</time>
      </trkpt>
      <trkpt lat="42.9427" lon="1.23427">
        <ele>1126</ele>
        <time>2026-05-25T09:48:04.000Z</time>
      </trkpt>
      <trkpt lat="42.94267" lon="1.23425">
        <ele>1127</ele>
        <time>2026-05-25T09:48:05.000Z</time>
      </trkpt>
      <trkpt lat="42.94265" lon="1.23423">
        <ele>1127</ele>
        <time>2026-05-25T09:48:06.000Z</time>
      </trkpt>
      <trkpt lat="42.94262" lon="1.23422">
        <ele>1127</ele>
        <time>2026-05-25T09:48:07.000Z</time>
      </trkpt>
      <trkpt lat="42.9426" lon="1.2342">
        <ele>1127</ele>
        <time>2026-05-25T09:48:08.000Z</time>
      </trkpt>
      <trkpt lat="42.94258" lon="1.23418">
        <ele>1128</ele>
        <time>2026-05-25T09:48:09.000Z</time>
      </trkpt>
      <trkpt lat="42.94256" lon="1.23417">
        <ele>1129</ele>
        <time>2026-05-25T09:48:10.000Z</time>
      </trkpt>
      <trkpt lat="42.94253" lon="1.23416">
        <ele>1130</ele>
        <time>2026-05-25T09:48:11.000Z</time>
      </trkpt>
      <trkpt lat="42.94251" lon="1.23414">
        <ele>1131</ele>
        <time>2026-05-25T09:48:12.000Z</time>
      </trkpt>
      <trkpt lat="42.94249" lon="1.23412">
        <ele>1131</ele>
        <time>2026-05-25T09:48:13.000Z</time>
      </trkpt>
      <trkpt lat="42.94247" lon="1.2341">
        <ele>1133</ele>
        <time>2026-05-25T09:48:14.000Z</time>
      </trkpt>
      <trkpt lat="42.94246" lon="1.23408">
        <ele>1133</ele>
        <time>2026-05-25T09:48:15.000Z</time>
      </trkpt>
      <trkpt lat="42.94245" lon="1.23407">
        <ele>1134</ele>
        <time>2026-05-25T09:48:16.000Z</time>
      </trkpt>
      <trkpt lat="42.94244" lon="1.23405">
        <ele>1134</ele>
        <time>2026-05-25T09:48:17.000Z</time>
      </trkpt>
      <trkpt lat="42.94242" lon="1.23404">
        <ele>1134</ele>
        <time>2026-05-25T09:48:18.000Z</time>
      </trkpt>
      <trkpt lat="42.94241" lon="1.23402">
        <ele>1134</ele>
        <time>2026-05-25T09:48:19.000Z</time>
      </trkpt>
      <trkpt lat="42.94238" lon="1.23399">
        <ele>1134</ele>
        <time>2026-05-25T09:48:20.000Z</time>
      </trkpt>
      <trkpt lat="42.94237" lon="1.23397">
        <ele>1134</ele>
        <time>2026-05-25T09:48:21.000Z</time>
      </trkpt>
      <trkpt lat="42.94235" lon="1.23395">
        <ele>1135</ele>
        <time>2026-05-25T09:48:22.000Z</time>
      </trkpt>
      <trkpt lat="42.94233" lon="1.23393">
        <ele>1135</ele>
        <time>2026-05-25T09:48:23.000Z</time>
      </trkpt>
      <trkpt lat="42.9423" lon="1.23391">
        <ele>1136</ele>
        <time>2026-05-25T09:48:24.000Z</time>
      </trkpt>
      <trkpt lat="42.94228" lon="1.2339">
        <ele>1136</ele>
        <time>2026-05-25T09:48:25.000Z</time>
      </trkpt>
      <trkpt lat="42.94225" lon="1.23388">
        <ele>1136</ele>
        <time>2026-05-25T09:48:26.000Z</time>
      </trkpt>
      <trkpt lat="42.94223" lon="1.23386">
        <ele>1136</ele>
        <time>2026-05-25T09:48:27.000Z</time>
      </trkpt>
      <trkpt lat="42.9422" lon="1.23385">
        <ele>1136</ele>
        <time>2026-05-25T09:48:28.000Z</time>
      </trkpt>
      <trkpt lat="42.94218" lon="1.23384">
        <ele>1136</ele>
        <time>2026-05-25T09:48:29.000Z</time>
      </trkpt>
      <trkpt lat="42.94216" lon="1.23382">
        <ele>1136</ele>
        <time>2026-05-25T09:48:30.000Z</time>
      </trkpt>
      <trkpt lat="42.94214" lon="1.23381">
        <ele>1137</ele>
        <time>2026-05-25T09:48:31.000Z</time>
      </trkpt>
      <trkpt lat="42.94212" lon="1.2338">
        <ele>1138</ele>
        <time>2026-05-25T09:48:32.000Z</time>
      </trkpt>
      <trkpt lat="42.94209" lon="1.23378">
        <ele>1138</ele>
        <time>2026-05-25T09:48:33.000Z</time>
      </trkpt>
      <trkpt lat="42.94207" lon="1.23376">
        <ele>1138</ele>
        <time>2026-05-25T09:48:34.000Z</time>
      </trkpt>
      <trkpt lat="42.94206" lon="1.23375">
        <ele>1139</ele>
        <time>2026-05-25T09:48:35.000Z</time>
      </trkpt>
      <trkpt lat="42.94203" lon="1.23372">
        <ele>1138</ele>
        <time>2026-05-25T09:48:36.000Z</time>
      </trkpt>
      <trkpt lat="42.94201" lon="1.23371">
        <ele>1139</ele>
        <time>2026-05-25T09:48:37.000Z</time>
      </trkpt>
      <trkpt lat="42.94199" lon="1.23369">
        <ele>1139</ele>
        <time>2026-05-25T09:48:38.000Z</time>
      </trkpt>
      <trkpt lat="42.94197" lon="1.23367">
        <ele>1139</ele>
        <time>2026-05-25T09:48:39.000Z</time>
      </trkpt>
      <trkpt lat="42.94195" lon="1.23364">
        <ele>1139</ele>
        <time>2026-05-25T09:48:40.000Z</time>
      </trkpt>
      <trkpt lat="42.94193" lon="1.23362">
        <ele>1139</ele>
        <time>2026-05-25T09:48:41.000Z</time>
      </trkpt>
      <trkpt lat="42.94192" lon="1.23359">
        <ele>1140</ele>
        <time>2026-05-25T09:48:42.000Z</time>
      </trkpt>
      <trkpt lat="42.94191" lon="1.23357">
        <ele>1141</ele>
        <time>2026-05-25T09:48:43.000Z</time>
      </trkpt>
      <trkpt lat="42.9419" lon="1.23355">
        <ele>1140</ele>
        <time>2026-05-25T09:48:44.000Z</time>
      </trkpt>
      <trkpt lat="42.94189" lon="1.23353">
        <ele>1140</ele>
        <time>2026-05-25T09:48:45.000Z</time>
      </trkpt>
      <trkpt lat="42.94188" lon="1.2335">
        <ele>1141</ele>
        <time>2026-05-25T09:48:46.000Z</time>
      </trkpt>
      <trkpt lat="42.94187" lon="1.23347">
        <ele>1141</ele>
        <time>2026-05-25T09:48:47.000Z</time>
      </trkpt>
      <trkpt lat="42.94185" lon="1.23344">
        <ele>1141</ele>
        <time>2026-05-25T09:48:48.000Z</time>
      </trkpt>
      <trkpt lat="42.94184" lon="1.23341">
        <ele>1141</ele>
        <time>2026-05-25T09:48:49.000Z</time>
      </trkpt>
      <trkpt lat="42.94183" lon="1.2334">
        <ele>1141</ele>
        <time>2026-05-25T09:48:50.000Z</time>
      </trkpt>
      <trkpt lat="42.94183" lon="1.23338">
        <ele>1141</ele>
        <time>2026-05-25T09:48:51.000Z</time>
      </trkpt>
      <trkpt lat="42.94182" lon="1.23335">
        <ele>1141</ele>
        <time>2026-05-25T09:48:52.000Z</time>
      </trkpt>
      <trkpt lat="42.94181" lon="1.23333">
        <ele>1142</ele>
        <time>2026-05-25T09:48:53.000Z</time>
      </trkpt>
      <trkpt lat="42.94179" lon="1.2333">
        <ele>1142</ele>
        <time>2026-05-25T09:48:54.000Z</time>
      </trkpt>
      <trkpt lat="42.94178" lon="1.23327">
        <ele>1142</ele>
        <time>2026-05-25T09:48:55.000Z</time>
      </trkpt>
      <trkpt lat="42.94177" lon="1.23324">
        <ele>1143</ele>
        <time>2026-05-25T09:48:56.000Z</time>
      </trkpt>
      <trkpt lat="42.94176" lon="1.2332">
        <ele>1143</ele>
        <time>2026-05-25T09:48:57.000Z</time>
      </trkpt>
      <trkpt lat="42.94176" lon="1.23317">
        <ele>1143</ele>
        <time>2026-05-25T09:48:58.000Z</time>
      </trkpt>
      <trkpt lat="42.94174" lon="1.23314">
        <ele>1144</ele>
        <time>2026-05-25T09:48:59.000Z</time>
      </trkpt>
      <trkpt lat="42.94174" lon="1.23311">
        <ele>1143</ele>
        <time>2026-05-25T09:49:00.000Z</time>
      </trkpt>
      <trkpt lat="42.94174" lon="1.23307">
        <ele>1144</ele>
        <time>2026-05-25T09:49:01.000Z</time>
      </trkpt>
      <trkpt lat="42.94173" lon="1.23304">
        <ele>1144</ele>
        <time>2026-05-25T09:49:02.000Z</time>
      </trkpt>
      <trkpt lat="42.94172" lon="1.23301">
        <ele>1145</ele>
        <time>2026-05-25T09:49:03.000Z</time>
      </trkpt>
      <trkpt lat="42.94171" lon="1.23297">
        <ele>1144</ele>
        <time>2026-05-25T09:49:04.000Z</time>
      </trkpt>
      <trkpt lat="42.9417" lon="1.23294">
        <ele>1144</ele>
        <time>2026-05-25T09:49:05.000Z</time>
      </trkpt>
      <trkpt lat="42.94169" lon="1.2329">
        <ele>1144</ele>
        <time>2026-05-25T09:49:06.000Z</time>
      </trkpt>
      <trkpt lat="42.94168" lon="1.23286">
        <ele>1144</ele>
        <time>2026-05-25T09:49:07.000Z</time>
      </trkpt>
      <trkpt lat="42.94168" lon="1.23284">
        <ele>1144</ele>
        <time>2026-05-25T09:49:08.000Z</time>
      </trkpt>
      <trkpt lat="42.94168" lon="1.23281">
        <ele>1145</ele>
        <time>2026-05-25T09:49:09.000Z</time>
      </trkpt>
      <trkpt lat="42.94168" lon="1.23278">
        <ele>1145</ele>
        <time>2026-05-25T09:49:10.000Z</time>
      </trkpt>
      <trkpt lat="42.94168" lon="1.23274">
        <ele>1145</ele>
        <time>2026-05-25T09:49:11.000Z</time>
      </trkpt>
      <trkpt lat="42.94167" lon="1.23271">
        <ele>1146</ele>
        <time>2026-05-25T09:49:12.000Z</time>
      </trkpt>
      <trkpt lat="42.94167" lon="1.23267">
        <ele>1146</ele>
        <time>2026-05-25T09:49:13.000Z</time>
      </trkpt>
      <trkpt lat="42.94167" lon="1.23264">
        <ele>1146</ele>
        <time>2026-05-25T09:49:14.000Z</time>
      </trkpt>
      <trkpt lat="42.94168" lon="1.2326">
        <ele>1146</ele>
        <time>2026-05-25T09:49:15.000Z</time>
      </trkpt>
      <trkpt lat="42.94168" lon="1.23257">
        <ele>1147</ele>
        <time>2026-05-25T09:49:16.000Z</time>
      </trkpt>
      <trkpt lat="42.94167" lon="1.23253">
        <ele>1147</ele>
        <time>2026-05-25T09:49:17.000Z</time>
      </trkpt>
      <trkpt lat="42.94168" lon="1.2325">
        <ele>1147</ele>
        <time>2026-05-25T09:49:18.000Z</time>
      </trkpt>
      <trkpt lat="42.94168" lon="1.23245">
        <ele>1147</ele>
        <time>2026-05-25T09:49:19.000Z</time>
      </trkpt>
      <trkpt lat="42.94168" lon="1.23242">
        <ele>1146</ele>
        <time>2026-05-25T09:49:20.000Z</time>
      </trkpt>
      <trkpt lat="42.94169" lon="1.23239">
        <ele>1146</ele>
        <time>2026-05-25T09:49:21.000Z</time>
      </trkpt>
      <trkpt lat="42.94168" lon="1.23235">
        <ele>1145</ele>
        <time>2026-05-25T09:49:22.000Z</time>
      </trkpt>
      <trkpt lat="42.94169" lon="1.23232">
        <ele>1146</ele>
        <time>2026-05-25T09:49:23.000Z</time>
      </trkpt>
      <trkpt lat="42.94169" lon="1.23229">
        <ele>1146</ele>
        <time>2026-05-25T09:49:24.000Z</time>
      </trkpt>
      <trkpt lat="42.94169" lon="1.23226">
        <ele>1147</ele>
        <time>2026-05-25T09:49:25.000Z</time>
      </trkpt>
      <trkpt lat="42.9417" lon="1.23223">
        <ele>1148</ele>
        <time>2026-05-25T09:49:26.000Z</time>
      </trkpt>
      <trkpt lat="42.9417" lon="1.2322">
        <ele>1148</ele>
        <time>2026-05-25T09:49:27.000Z</time>
      </trkpt>
      <trkpt lat="42.94171" lon="1.23217">
        <ele>1149</ele>
        <time>2026-05-25T09:49:28.000Z</time>
      </trkpt>
      <trkpt lat="42.94171" lon="1.23214">
        <ele>1149</ele>
        <time>2026-05-25T09:49:29.000Z</time>
      </trkpt>
      <trkpt lat="42.94171" lon="1.23211">
        <ele>1150</ele>
        <time>2026-05-25T09:49:30.000Z</time>
      </trkpt>
      <trkpt lat="42.94171" lon="1.23208">
        <ele>1150</ele>
        <time>2026-05-25T09:49:31.000Z</time>
      </trkpt>
      <trkpt lat="42.94172" lon="1.23204">
        <ele>1150</ele>
        <time>2026-05-25T09:49:32.000Z</time>
      </trkpt>
      <trkpt lat="42.94172" lon="1.232">
        <ele>1150</ele>
        <time>2026-05-25T09:49:33.000Z</time>
      </trkpt>
      <trkpt lat="42.94172" lon="1.23198">
        <ele>1152</ele>
        <time>2026-05-25T09:49:34.000Z</time>
      </trkpt>
      <trkpt lat="42.94172" lon="1.23194">
        <ele>1151</ele>
        <time>2026-05-25T09:49:35.000Z</time>
      </trkpt>
      <trkpt lat="42.94173" lon="1.23191">
        <ele>1151</ele>
        <time>2026-05-25T09:49:36.000Z</time>
      </trkpt>
      <trkpt lat="42.94172" lon="1.23188">
        <ele>1152</ele>
        <time>2026-05-25T09:49:37.000Z</time>
      </trkpt>
      <trkpt lat="42.94173" lon="1.23184">
        <ele>1152</ele>
        <time>2026-05-25T09:49:38.000Z</time>
      </trkpt>
      <trkpt lat="42.94173" lon="1.23181">
        <ele>1153</ele>
        <time>2026-05-25T09:49:39.000Z</time>
      </trkpt>
      <trkpt lat="42.94172" lon="1.23177">
        <ele>1153</ele>
        <time>2026-05-25T09:49:40.000Z</time>
      </trkpt>
      <trkpt lat="42.94173" lon="1.23174">
        <ele>1152</ele>
        <time>2026-05-25T09:49:41.000Z</time>
      </trkpt>
      <trkpt lat="42.94173" lon="1.23171">
        <ele>1152</ele>
        <time>2026-05-25T09:49:42.000Z</time>
      </trkpt>
      <trkpt lat="42.94173" lon="1.23168">
        <ele>1152</ele>
        <time>2026-05-25T09:49:43.000Z</time>
      </trkpt>
      <trkpt lat="42.94173" lon="1.23165">
        <ele>1152</ele>
        <time>2026-05-25T09:49:44.000Z</time>
      </trkpt>
      <trkpt lat="42.94174" lon="1.23162">
        <ele>1152</ele>
        <time>2026-05-25T09:49:45.000Z</time>
      </trkpt>
      <trkpt lat="42.94174" lon="1.23159">
        <ele>1152</ele>
        <time>2026-05-25T09:49:46.000Z</time>
      </trkpt>
      <trkpt lat="42.94174" lon="1.23156">
        <ele>1153</ele>
        <time>2026-05-25T09:49:47.000Z</time>
      </trkpt>
      <trkpt lat="42.94174" lon="1.23153">
        <ele>1153</ele>
        <time>2026-05-25T09:49:48.000Z</time>
      </trkpt>
      <trkpt lat="42.94175" lon="1.2315">
        <ele>1154</ele>
        <time>2026-05-25T09:49:49.000Z</time>
      </trkpt>
      <trkpt lat="42.94175" lon="1.23147">
        <ele>1154</ele>
        <time>2026-05-25T09:49:50.000Z</time>
      </trkpt>
      <trkpt lat="42.94175" lon="1.23143">
        <ele>1154</ele>
        <time>2026-05-25T09:49:51.000Z</time>
      </trkpt>
      <trkpt lat="42.94175" lon="1.2314">
        <ele>1155</ele>
        <time>2026-05-25T09:49:52.000Z</time>
      </trkpt>
      <trkpt lat="42.94175" lon="1.23137">
        <ele>1156</ele>
        <time>2026-05-25T09:49:53.000Z</time>
      </trkpt>
      <trkpt lat="42.94176" lon="1.23134">
        <ele>1157</ele>
        <time>2026-05-25T09:49:54.000Z</time>
      </trkpt>
      <trkpt lat="42.94176" lon="1.23133">
        <ele>1157</ele>
        <time>2026-05-25T09:49:55.000Z</time>
      </trkpt>
      <trkpt lat="42.94176" lon="1.2313">
        <ele>1158</ele>
        <time>2026-05-25T09:49:56.000Z</time>
      </trkpt>
      <trkpt lat="42.94177" lon="1.23128">
        <ele>1159</ele>
        <time>2026-05-25T09:49:57.000Z</time>
      </trkpt>
      <trkpt lat="42.94177" lon="1.23125">
        <ele>1159</ele>
        <time>2026-05-25T09:49:58.000Z</time>
      </trkpt>
      <trkpt lat="42.94178" lon="1.23121">
        <ele>1160</ele>
        <time>2026-05-25T09:49:59.000Z</time>
      </trkpt>
      <trkpt lat="42.9418" lon="1.23118">
        <ele>1161</ele>
        <time>2026-05-25T09:50:00.000Z</time>
      </trkpt>
      <trkpt lat="42.94181" lon="1.23115">
        <ele>1161</ele>
        <time>2026-05-25T09:50:01.000Z</time>
      </trkpt>
      <trkpt lat="42.94182" lon="1.23112">
        <ele>1161</ele>
        <time>2026-05-25T09:50:02.000Z</time>
      </trkpt>
      <trkpt lat="42.94183" lon="1.23109">
        <ele>1160</ele>
        <time>2026-05-25T09:50:03.000Z</time>
      </trkpt>
      <trkpt lat="42.94184" lon="1.23107">
        <ele>1160</ele>
        <time>2026-05-25T09:50:04.000Z</time>
      </trkpt>
      <trkpt lat="42.94185" lon="1.23104">
        <ele>1160</ele>
        <time>2026-05-25T09:50:05.000Z</time>
      </trkpt>
      <trkpt lat="42.94186" lon="1.23101">
        <ele>1160</ele>
        <time>2026-05-25T09:50:06.000Z</time>
      </trkpt>
      <trkpt lat="42.94187" lon="1.23098">
        <ele>1160</ele>
        <time>2026-05-25T09:50:07.000Z</time>
      </trkpt>
      <trkpt lat="42.94188" lon="1.23095">
        <ele>1160</ele>
        <time>2026-05-25T09:50:08.000Z</time>
      </trkpt>
      <trkpt lat="42.9419" lon="1.23092">
        <ele>1160</ele>
        <time>2026-05-25T09:50:09.000Z</time>
      </trkpt>
      <trkpt lat="42.94191" lon="1.23089">
        <ele>1160</ele>
        <time>2026-05-25T09:50:10.000Z</time>
      </trkpt>
      <trkpt lat="42.94192" lon="1.23086">
        <ele>1160</ele>
        <time>2026-05-25T09:50:11.000Z</time>
      </trkpt>
      <trkpt lat="42.94193" lon="1.23083">
        <ele>1160</ele>
        <time>2026-05-25T09:50:12.000Z</time>
      </trkpt>
      <trkpt lat="42.94195" lon="1.2308">
        <ele>1161</ele>
        <time>2026-05-25T09:50:13.000Z</time>
      </trkpt>
      <trkpt lat="42.94196" lon="1.23078">
        <ele>1161</ele>
        <time>2026-05-25T09:50:14.000Z</time>
      </trkpt>
      <trkpt lat="42.94198" lon="1.23076">
        <ele>1161</ele>
        <time>2026-05-25T09:50:15.000Z</time>
      </trkpt>
      <trkpt lat="42.942" lon="1.23073">
        <ele>1161</ele>
        <time>2026-05-25T09:50:16.000Z</time>
      </trkpt>
      <trkpt lat="42.94201" lon="1.2307">
        <ele>1162</ele>
        <time>2026-05-25T09:50:17.000Z</time>
      </trkpt>
      <trkpt lat="42.94202" lon="1.23068">
        <ele>1161</ele>
        <time>2026-05-25T09:50:18.000Z</time>
      </trkpt>
      <trkpt lat="42.94203" lon="1.23066">
        <ele>1162</ele>
        <time>2026-05-25T09:50:19.000Z</time>
      </trkpt>
      <trkpt lat="42.94205" lon="1.23063">
        <ele>1162</ele>
        <time>2026-05-25T09:50:20.000Z</time>
      </trkpt>
      <trkpt lat="42.94205" lon="1.2306">
        <ele>1163</ele>
        <time>2026-05-25T09:50:21.000Z</time>
      </trkpt>
      <trkpt lat="42.94206" lon="1.23057">
        <ele>1163</ele>
        <time>2026-05-25T09:50:22.000Z</time>
      </trkpt>
      <trkpt lat="42.94207" lon="1.23054">
        <ele>1164</ele>
        <time>2026-05-25T09:50:23.000Z</time>
      </trkpt>
      <trkpt lat="42.94207" lon="1.2305">
        <ele>1164</ele>
        <time>2026-05-25T09:50:24.000Z</time>
      </trkpt>
      <trkpt lat="42.94208" lon="1.23047">
        <ele>1164</ele>
        <time>2026-05-25T09:50:25.000Z</time>
      </trkpt>
      <trkpt lat="42.94209" lon="1.23044">
        <ele>1165</ele>
        <time>2026-05-25T09:50:26.000Z</time>
      </trkpt>
      <trkpt lat="42.94209" lon="1.23041">
        <ele>1164</ele>
        <time>2026-05-25T09:50:27.000Z</time>
      </trkpt>
      <trkpt lat="42.9421" lon="1.23038">
        <ele>1164</ele>
        <time>2026-05-25T09:50:28.000Z</time>
      </trkpt>
      <trkpt lat="42.9421" lon="1.23035">
        <ele>1164</ele>
        <time>2026-05-25T09:50:29.000Z</time>
      </trkpt>
      <trkpt lat="42.9421" lon="1.23033">
        <ele>1165</ele>
        <time>2026-05-25T09:50:30.000Z</time>
      </trkpt>
      <trkpt lat="42.94212" lon="1.2303">
        <ele>1166</ele>
        <time>2026-05-25T09:50:31.000Z</time>
      </trkpt>
      <trkpt lat="42.94213" lon="1.23027">
        <ele>1166</ele>
        <time>2026-05-25T09:50:32.000Z</time>
      </trkpt>
      <trkpt lat="42.94213" lon="1.23024">
        <ele>1165</ele>
        <time>2026-05-25T09:50:33.000Z</time>
      </trkpt>
      <trkpt lat="42.94213" lon="1.23021">
        <ele>1165</ele>
        <time>2026-05-25T09:50:34.000Z</time>
      </trkpt>
      <trkpt lat="42.94213" lon="1.23019">
        <ele>1166</ele>
        <time>2026-05-25T09:50:35.000Z</time>
      </trkpt>
      <trkpt lat="42.94214" lon="1.23017">
        <ele>1167</ele>
        <time>2026-05-25T09:50:36.000Z</time>
      </trkpt>
      <trkpt lat="42.94214" lon="1.23016">
        <ele>1168</ele>
        <time>2026-05-25T09:50:37.000Z</time>
      </trkpt>
      <trkpt lat="42.94215" lon="1.23014">
        <ele>1169</ele>
        <time>2026-05-25T09:50:38.000Z</time>
      </trkpt>
      <trkpt lat="42.94215" lon="1.23011">
        <ele>1170</ele>
        <time>2026-05-25T09:50:39.000Z</time>
      </trkpt>
      <trkpt lat="42.94216" lon="1.23008">
        <ele>1171</ele>
        <time>2026-05-25T09:50:40.000Z</time>
      </trkpt>
      <trkpt lat="42.94216" lon="1.23006">
        <ele>1172</ele>
        <time>2026-05-25T09:50:41.000Z</time>
      </trkpt>
      <trkpt lat="42.94217" lon="1.23002">
        <ele>1173</ele>
        <time>2026-05-25T09:50:42.000Z</time>
      </trkpt>
      <trkpt lat="42.94218" lon="1.22999">
        <ele>1174</ele>
        <time>2026-05-25T09:50:43.000Z</time>
      </trkpt>
      <trkpt lat="42.94219" lon="1.22996">
        <ele>1174</ele>
        <time>2026-05-25T09:50:44.000Z</time>
      </trkpt>
      <trkpt lat="42.94219" lon="1.22993">
        <ele>1174</ele>
        <time>2026-05-25T09:50:45.000Z</time>
      </trkpt>
      <trkpt lat="42.9422" lon="1.2299">
        <ele>1174</ele>
        <time>2026-05-25T09:50:46.000Z</time>
      </trkpt>
      <trkpt lat="42.94221" lon="1.22988">
        <ele>1174</ele>
        <time>2026-05-25T09:50:47.000Z</time>
      </trkpt>
      <trkpt lat="42.94222" lon="1.22985">
        <ele>1174</ele>
        <time>2026-05-25T09:50:48.000Z</time>
      </trkpt>
      <trkpt lat="42.94224" lon="1.22982">
        <ele>1173</ele>
        <time>2026-05-25T09:50:49.000Z</time>
      </trkpt>
      <trkpt lat="42.94225" lon="1.22979">
        <ele>1173</ele>
        <time>2026-05-25T09:50:50.000Z</time>
      </trkpt>
      <trkpt lat="42.94227" lon="1.22977">
        <ele>1173</ele>
        <time>2026-05-25T09:50:51.000Z</time>
      </trkpt>
      <trkpt lat="42.94228" lon="1.22974">
        <ele>1173</ele>
        <time>2026-05-25T09:50:52.000Z</time>
      </trkpt>
      <trkpt lat="42.94229" lon="1.22971">
        <ele>1173</ele>
        <time>2026-05-25T09:50:53.000Z</time>
      </trkpt>
      <trkpt lat="42.9423" lon="1.22968">
        <ele>1174</ele>
        <time>2026-05-25T09:50:54.000Z</time>
      </trkpt>
      <trkpt lat="42.94231" lon="1.22964">
        <ele>1175</ele>
        <time>2026-05-25T09:50:55.000Z</time>
      </trkpt>
      <trkpt lat="42.94232" lon="1.22961">
        <ele>1175</ele>
        <time>2026-05-25T09:50:56.000Z</time>
      </trkpt>
      <trkpt lat="42.94234" lon="1.22958">
        <ele>1175</ele>
        <time>2026-05-25T09:50:57.000Z</time>
      </trkpt>
      <trkpt lat="42.94235" lon="1.22955">
        <ele>1175</ele>
        <time>2026-05-25T09:50:58.000Z</time>
      </trkpt>
      <trkpt lat="42.94236" lon="1.22952">
        <ele>1175</ele>
        <time>2026-05-25T09:50:59.000Z</time>
      </trkpt>
      <trkpt lat="42.94237" lon="1.22949">
        <ele>1175</ele>
        <time>2026-05-25T09:51:00.000Z</time>
      </trkpt>
      <trkpt lat="42.94238" lon="1.22946">
        <ele>1175</ele>
        <time>2026-05-25T09:51:01.000Z</time>
      </trkpt>
      <trkpt lat="42.94238" lon="1.22943">
        <ele>1175</ele>
        <time>2026-05-25T09:51:02.000Z</time>
      </trkpt>
      <trkpt lat="42.94238" lon="1.22941">
        <ele>1175</ele>
        <time>2026-05-25T09:51:03.000Z</time>
      </trkpt>
      <trkpt lat="42.94238" lon="1.22938">
        <ele>1176</ele>
        <time>2026-05-25T09:51:04.000Z</time>
      </trkpt>
      <trkpt lat="42.94239" lon="1.22935">
        <ele>1176</ele>
        <time>2026-05-25T09:51:05.000Z</time>
      </trkpt>
      <trkpt lat="42.9424" lon="1.22932">
        <ele>1176</ele>
        <time>2026-05-25T09:51:06.000Z</time>
      </trkpt>
      <trkpt lat="42.9424" lon="1.22928">
        <ele>1176</ele>
        <time>2026-05-25T09:51:07.000Z</time>
      </trkpt>
      <trkpt lat="42.94241" lon="1.22925">
        <ele>1176</ele>
        <time>2026-05-25T09:51:08.000Z</time>
      </trkpt>
      <trkpt lat="42.94242" lon="1.22923">
        <ele>1177</ele>
        <time>2026-05-25T09:51:09.000Z</time>
      </trkpt>
      <trkpt lat="42.94243" lon="1.2292">
        <ele>1177</ele>
        <time>2026-05-25T09:51:10.000Z</time>
      </trkpt>
      <trkpt lat="42.94243" lon="1.22917">
        <ele>1177</ele>
        <time>2026-05-25T09:51:11.000Z</time>
      </trkpt>
      <trkpt lat="42.94244" lon="1.22914">
        <ele>1178</ele>
        <time>2026-05-25T09:51:12.000Z</time>
      </trkpt>
      <trkpt lat="42.94245" lon="1.22911">
        <ele>1179</ele>
        <time>2026-05-25T09:51:13.000Z</time>
      </trkpt>
      <trkpt lat="42.94246" lon="1.22909">
        <ele>1179</ele>
        <time>2026-05-25T09:51:14.000Z</time>
      </trkpt>
      <trkpt lat="42.94246" lon="1.22906">
        <ele>1179</ele>
        <time>2026-05-25T09:51:15.000Z</time>
      </trkpt>
      <trkpt lat="42.94247" lon="1.22903">
        <ele>1180</ele>
        <time>2026-05-25T09:51:16.000Z</time>
      </trkpt>
      <trkpt lat="42.94247" lon="1.229">
        <ele>1180</ele>
        <time>2026-05-25T09:51:17.000Z</time>
      </trkpt>
      <trkpt lat="42.94248" lon="1.22897">
        <ele>1180</ele>
        <time>2026-05-25T09:51:18.000Z</time>
      </trkpt>
      <trkpt lat="42.94248" lon="1.22894">
        <ele>1179</ele>
        <time>2026-05-25T09:51:19.000Z</time>
      </trkpt>
      <trkpt lat="42.94249" lon="1.22891">
        <ele>1180</ele>
        <time>2026-05-25T09:51:20.000Z</time>
      </trkpt>
      <trkpt lat="42.9425" lon="1.22889">
        <ele>1180</ele>
        <time>2026-05-25T09:51:21.000Z</time>
      </trkpt>
      <trkpt lat="42.9425" lon="1.22887">
        <ele>1181</ele>
        <time>2026-05-25T09:51:22.000Z</time>
      </trkpt>
      <trkpt lat="42.94251" lon="1.22884">
        <ele>1182</ele>
        <time>2026-05-25T09:51:23.000Z</time>
      </trkpt>
      <trkpt lat="42.94252" lon="1.22882">
        <ele>1183</ele>
        <time>2026-05-25T09:51:24.000Z</time>
      </trkpt>
      <trkpt lat="42.94254" lon="1.2288">
        <ele>1184</ele>
        <time>2026-05-25T09:51:25.000Z</time>
      </trkpt>
      <trkpt lat="42.94255" lon="1.22876">
        <ele>1184</ele>
        <time>2026-05-25T09:51:26.000Z</time>
      </trkpt>
      <trkpt lat="42.94255" lon="1.22873">
        <ele>1184</ele>
        <time>2026-05-25T09:51:27.000Z</time>
      </trkpt>
      <trkpt lat="42.94256" lon="1.22871">
        <ele>1185</ele>
        <time>2026-05-25T09:51:28.000Z</time>
      </trkpt>
      <trkpt lat="42.94256" lon="1.22868">
        <ele>1185</ele>
        <time>2026-05-25T09:51:29.000Z</time>
      </trkpt>
      <trkpt lat="42.94257" lon="1.22865">
        <ele>1185</ele>
        <time>2026-05-25T09:51:30.000Z</time>
      </trkpt>
      <trkpt lat="42.94259" lon="1.22862">
        <ele>1186</ele>
        <time>2026-05-25T09:51:31.000Z</time>
      </trkpt>
      <trkpt lat="42.9426" lon="1.2286">
        <ele>1186</ele>
        <time>2026-05-25T09:51:32.000Z</time>
      </trkpt>
      <trkpt lat="42.94261" lon="1.22857">
        <ele>1187</ele>
        <time>2026-05-25T09:51:33.000Z</time>
      </trkpt>
      <trkpt lat="42.94262" lon="1.22854">
        <ele>1187</ele>
        <time>2026-05-25T09:51:34.000Z</time>
      </trkpt>
      <trkpt lat="42.94263" lon="1.2285">
        <ele>1187</ele>
        <time>2026-05-25T09:51:35.000Z</time>
      </trkpt>
      <trkpt lat="42.94264" lon="1.22847">
        <ele>1187</ele>
        <time>2026-05-25T09:51:36.000Z</time>
      </trkpt>
      <trkpt lat="42.94264" lon="1.22845">
        <ele>1187</ele>
        <time>2026-05-25T09:51:37.000Z</time>
      </trkpt>
      <trkpt lat="42.94265" lon="1.22842">
        <ele>1187</ele>
        <time>2026-05-25T09:51:38.000Z</time>
      </trkpt>
      <trkpt lat="42.94266" lon="1.22838">
        <ele>1187</ele>
        <time>2026-05-25T09:51:39.000Z</time>
      </trkpt>
      <trkpt lat="42.94266" lon="1.22836">
        <ele>1187</ele>
        <time>2026-05-25T09:51:40.000Z</time>
      </trkpt>
      <trkpt lat="42.94267" lon="1.22833">
        <ele>1188</ele>
        <time>2026-05-25T09:51:41.000Z</time>
      </trkpt>
      <trkpt lat="42.94267" lon="1.2283">
        <ele>1188</ele>
        <time>2026-05-25T09:51:42.000Z</time>
      </trkpt>
      <trkpt lat="42.94268" lon="1.22827">
        <ele>1188</ele>
        <time>2026-05-25T09:51:43.000Z</time>
      </trkpt>
      <trkpt lat="42.94269" lon="1.22824">
        <ele>1189</ele>
        <time>2026-05-25T09:51:44.000Z</time>
      </trkpt>
      <trkpt lat="42.9427" lon="1.2282">
        <ele>1188</ele>
        <time>2026-05-25T09:51:45.000Z</time>
      </trkpt>
      <trkpt lat="42.94271" lon="1.22817">
        <ele>1189</ele>
        <time>2026-05-25T09:51:46.000Z</time>
      </trkpt>
      <trkpt lat="42.94272" lon="1.22813">
        <ele>1189</ele>
        <time>2026-05-25T09:51:47.000Z</time>
      </trkpt>
      <trkpt lat="42.94273" lon="1.22809">
        <ele>1189</ele>
        <time>2026-05-25T09:51:48.000Z</time>
      </trkpt>
      <trkpt lat="42.94274" lon="1.22805">
        <ele>1188</ele>
        <time>2026-05-25T09:51:49.000Z</time>
      </trkpt>
      <trkpt lat="42.94275" lon="1.22801">
        <ele>1188</ele>
        <time>2026-05-25T09:51:50.000Z</time>
      </trkpt>
      <trkpt lat="42.94277" lon="1.22798">
        <ele>1188</ele>
        <time>2026-05-25T09:51:51.000Z</time>
      </trkpt>
      <trkpt lat="42.94278" lon="1.22794">
        <ele>1187</ele>
        <time>2026-05-25T09:51:52.000Z</time>
      </trkpt>
      <trkpt lat="42.9428" lon="1.2279">
        <ele>1187</ele>
        <time>2026-05-25T09:51:53.000Z</time>
      </trkpt>
      <trkpt lat="42.94281" lon="1.22785">
        <ele>1186</ele>
        <time>2026-05-25T09:51:54.000Z</time>
      </trkpt>
      <trkpt lat="42.94282" lon="1.22781">
        <ele>1186</ele>
        <time>2026-05-25T09:51:55.000Z</time>
      </trkpt>
      <trkpt lat="42.94284" lon="1.22777">
        <ele>1186</ele>
        <time>2026-05-25T09:51:56.000Z</time>
      </trkpt>
      <trkpt lat="42.94285" lon="1.22774">
        <ele>1186</ele>
        <time>2026-05-25T09:51:57.000Z</time>
      </trkpt>
      <trkpt lat="42.94286" lon="1.2277">
        <ele>1186</ele>
        <time>2026-05-25T09:51:58.000Z</time>
      </trkpt>
      <trkpt lat="42.94288" lon="1.22766">
        <ele>1186</ele>
        <time>2026-05-25T09:51:59.000Z</time>
      </trkpt>
      <trkpt lat="42.94289" lon="1.22763">
        <ele>1186</ele>
        <time>2026-05-25T09:52:00.000Z</time>
      </trkpt>
      <trkpt lat="42.9429" lon="1.22758">
        <ele>1186</ele>
        <time>2026-05-25T09:52:01.000Z</time>
      </trkpt>
      <trkpt lat="42.94291" lon="1.22755">
        <ele>1186</ele>
        <time>2026-05-25T09:52:02.000Z</time>
      </trkpt>
      <trkpt lat="42.94291" lon="1.22751">
        <ele>1186</ele>
        <time>2026-05-25T09:52:03.000Z</time>
      </trkpt>
      <trkpt lat="42.94292" lon="1.22746">
        <ele>1186</ele>
        <time>2026-05-25T09:52:04.000Z</time>
      </trkpt>
      <trkpt lat="42.94291" lon="1.22743">
        <ele>1186</ele>
        <time>2026-05-25T09:52:05.000Z</time>
      </trkpt>
      <trkpt lat="42.94288" lon="1.22741">
        <ele>1186</ele>
        <time>2026-05-25T09:52:06.000Z</time>
      </trkpt>
      <trkpt lat="42.94285" lon="1.22742">
        <ele>1186</ele>
        <time>2026-05-25T09:52:07.000Z</time>
      </trkpt>
      <trkpt lat="42.94283" lon="1.22743">
        <ele>1187</ele>
        <time>2026-05-25T09:52:08.000Z</time>
      </trkpt>
      <trkpt lat="42.94283" lon="1.22745">
        <ele>1188</ele>
        <time>2026-05-25T09:52:09.000Z</time>
      </trkpt>
      <trkpt lat="42.94283" lon="1.22747">
        <ele>1188</ele>
        <time>2026-05-25T09:52:10.000Z</time>
      </trkpt>
      <trkpt lat="42.94283" lon="1.2275">
        <ele>1188</ele>
        <time>2026-05-25T09:52:11.000Z</time>
      </trkpt>
      <trkpt lat="42.94283" lon="1.22752">
        <ele>1189</ele>
        <time>2026-05-25T09:52:12.000Z</time>
      </trkpt>
      <trkpt lat="42.94282" lon="1.22755">
        <ele>1189</ele>
        <time>2026-05-25T09:52:13.000Z</time>
      </trkpt>
      <trkpt lat="42.94281" lon="1.22758">
        <ele>1190</ele>
        <time>2026-05-25T09:52:14.000Z</time>
      </trkpt>
      <trkpt lat="42.9428" lon="1.22761">
        <ele>1190</ele>
        <time>2026-05-25T09:52:15.000Z</time>
      </trkpt>
      <trkpt lat="42.94279" lon="1.22764">
        <ele>1191</ele>
        <time>2026-05-25T09:52:16.000Z</time>
      </trkpt>
      <trkpt lat="42.94278" lon="1.22766">
        <ele>1191</ele>
        <time>2026-05-25T09:52:17.000Z</time>
      </trkpt>
      <trkpt lat="42.94277" lon="1.22769">
        <ele>1191</ele>
        <time>2026-05-25T09:52:18.000Z</time>
      </trkpt>
      <trkpt lat="42.94275" lon="1.22771">
        <ele>1192</ele>
        <time>2026-05-25T09:52:19.000Z</time>
      </trkpt>
      <trkpt lat="42.94275" lon="1.22774">
        <ele>1192</ele>
        <time>2026-05-25T09:52:20.000Z</time>
      </trkpt>
      <trkpt lat="42.94273" lon="1.22777">
        <ele>1192</ele>
        <time>2026-05-25T09:52:21.000Z</time>
      </trkpt>
      <trkpt lat="42.94272" lon="1.2278">
        <ele>1192</ele>
        <time>2026-05-25T09:52:22.000Z</time>
      </trkpt>
      <trkpt lat="42.94271" lon="1.22783">
        <ele>1193</ele>
        <time>2026-05-25T09:52:23.000Z</time>
      </trkpt>
      <trkpt lat="42.9427" lon="1.22786">
        <ele>1193</ele>
        <time>2026-05-25T09:52:24.000Z</time>
      </trkpt>
      <trkpt lat="42.94268" lon="1.22788">
        <ele>1193</ele>
        <time>2026-05-25T09:52:25.000Z</time>
      </trkpt>
      <trkpt lat="42.94267" lon="1.22791">
        <ele>1193</ele>
        <time>2026-05-25T09:52:26.000Z</time>
      </trkpt>
      <trkpt lat="42.94267" lon="1.22794">
        <ele>1194</ele>
        <time>2026-05-25T09:52:27.000Z</time>
      </trkpt>
      <trkpt lat="42.94266" lon="1.22796">
        <ele>1195</ele>
        <time>2026-05-25T09:52:28.000Z</time>
      </trkpt>
      <trkpt lat="42.94265" lon="1.228">
        <ele>1195</ele>
        <time>2026-05-25T09:52:29.000Z</time>
      </trkpt>
      <trkpt lat="42.94263" lon="1.22803">
        <ele>1195</ele>
        <time>2026-05-25T09:52:30.000Z</time>
      </trkpt>
      <trkpt lat="42.94262" lon="1.22805">
        <ele>1195</ele>
        <time>2026-05-25T09:52:31.000Z</time>
      </trkpt>
      <trkpt lat="42.94261" lon="1.22809">
        <ele>1196</ele>
        <time>2026-05-25T09:52:32.000Z</time>
      </trkpt>
      <trkpt lat="42.9426" lon="1.22811">
        <ele>1197</ele>
        <time>2026-05-25T09:52:33.000Z</time>
      </trkpt>
      <trkpt lat="42.94259" lon="1.22814">
        <ele>1198</ele>
        <time>2026-05-25T09:52:34.000Z</time>
      </trkpt>
      <trkpt lat="42.94257" lon="1.22816">
        <ele>1198</ele>
        <time>2026-05-25T09:52:35.000Z</time>
      </trkpt>
      <trkpt lat="42.94255" lon="1.22819">
        <ele>1199</ele>
        <time>2026-05-25T09:52:36.000Z</time>
      </trkpt>
      <trkpt lat="42.94255" lon="1.22821">
        <ele>1199</ele>
        <time>2026-05-25T09:52:37.000Z</time>
      </trkpt>
      <trkpt lat="42.94253" lon="1.22823">
        <ele>1199</ele>
        <time>2026-05-25T09:52:38.000Z</time>
      </trkpt>
      <trkpt lat="42.94251" lon="1.22825">
        <ele>1200</ele>
        <time>2026-05-25T09:52:39.000Z</time>
      </trkpt>
      <trkpt lat="42.9425" lon="1.22828">
        <ele>1200</ele>
        <time>2026-05-25T09:52:40.000Z</time>
      </trkpt>
      <trkpt lat="42.94249" lon="1.22831">
        <ele>1200</ele>
        <time>2026-05-25T09:52:41.000Z</time>
      </trkpt>
      <trkpt lat="42.94247" lon="1.22833">
        <ele>1201</ele>
        <time>2026-05-25T09:52:42.000Z</time>
      </trkpt>
      <trkpt lat="42.94246" lon="1.22836">
        <ele>1200</ele>
        <time>2026-05-25T09:52:43.000Z</time>
      </trkpt>
      <trkpt lat="42.94244" lon="1.22839">
        <ele>1200</ele>
        <time>2026-05-25T09:52:44.000Z</time>
      </trkpt>
      <trkpt lat="42.94243" lon="1.22842">
        <ele>1200</ele>
        <time>2026-05-25T09:52:45.000Z</time>
      </trkpt>
      <trkpt lat="42.94242" lon="1.22843">
        <ele>1201</ele>
        <time>2026-05-25T09:52:46.000Z</time>
      </trkpt>
      <trkpt lat="42.9424" lon="1.22845">
        <ele>1202</ele>
        <time>2026-05-25T09:52:47.000Z</time>
      </trkpt>
      <trkpt lat="42.94238" lon="1.22847">
        <ele>1201</ele>
        <time>2026-05-25T09:52:48.000Z</time>
      </trkpt>
      <trkpt lat="42.94238" lon="1.22849">
        <ele>1202</ele>
        <time>2026-05-25T09:52:49.000Z</time>
      </trkpt>
      <trkpt lat="42.94236" lon="1.22851">
        <ele>1202</ele>
        <time>2026-05-25T09:52:50.000Z</time>
      </trkpt>
      <trkpt lat="42.94235" lon="1.22855">
        <ele>1202</ele>
        <time>2026-05-25T09:52:51.000Z</time>
      </trkpt>
      <trkpt lat="42.94233" lon="1.22857">
        <ele>1202</ele>
        <time>2026-05-25T09:52:52.000Z</time>
      </trkpt>
      <trkpt lat="42.94231" lon="1.2286">
        <ele>1203</ele>
        <time>2026-05-25T09:52:53.000Z</time>
      </trkpt>
      <trkpt lat="42.94229" lon="1.22862">
        <ele>1203</ele>
        <time>2026-05-25T09:52:54.000Z</time>
      </trkpt>
      <trkpt lat="42.94227" lon="1.22865">
        <ele>1204</ele>
        <time>2026-05-25T09:52:55.000Z</time>
      </trkpt>
      <trkpt lat="42.94226" lon="1.22868">
        <ele>1205</ele>
        <time>2026-05-25T09:52:56.000Z</time>
      </trkpt>
      <trkpt lat="42.94224" lon="1.22871">
        <ele>1206</ele>
        <time>2026-05-25T09:52:57.000Z</time>
      </trkpt>
      <trkpt lat="42.94223" lon="1.22874">
        <ele>1207</ele>
        <time>2026-05-25T09:52:58.000Z</time>
      </trkpt>
      <trkpt lat="42.94222" lon="1.22877">
        <ele>1207</ele>
        <time>2026-05-25T09:52:59.000Z</time>
      </trkpt>
      <trkpt lat="42.94221" lon="1.2288">
        <ele>1208</ele>
        <time>2026-05-25T09:53:00.000Z</time>
      </trkpt>
      <trkpt lat="42.94219" lon="1.22882">
        <ele>1209</ele>
        <time>2026-05-25T09:53:01.000Z</time>
      </trkpt>
      <trkpt lat="42.94218" lon="1.22885">
        <ele>1209</ele>
        <time>2026-05-25T09:53:02.000Z</time>
      </trkpt>
      <trkpt lat="42.94217" lon="1.22888">
        <ele>1210</ele>
        <time>2026-05-25T09:53:03.000Z</time>
      </trkpt>
      <trkpt lat="42.94216" lon="1.2289">
        <ele>1210</ele>
        <time>2026-05-25T09:53:04.000Z</time>
      </trkpt>
      <trkpt lat="42.94215" lon="1.22893">
        <ele>1209</ele>
        <time>2026-05-25T09:53:05.000Z</time>
      </trkpt>
      <trkpt lat="42.94213" lon="1.22894">
        <ele>1209</ele>
        <time>2026-05-25T09:53:06.000Z</time>
      </trkpt>
      <trkpt lat="42.94212" lon="1.22897">
        <ele>1210</ele>
        <time>2026-05-25T09:53:07.000Z</time>
      </trkpt>
      <trkpt lat="42.94211" lon="1.22899">
        <ele>1209</ele>
        <time>2026-05-25T09:53:08.000Z</time>
      </trkpt>
      <trkpt lat="42.94209" lon="1.22902">
        <ele>1209</ele>
        <time>2026-05-25T09:53:09.000Z</time>
      </trkpt>
      <trkpt lat="42.94208" lon="1.22905">
        <ele>1210</ele>
        <time>2026-05-25T09:53:10.000Z</time>
      </trkpt>
      <trkpt lat="42.94207" lon="1.22908">
        <ele>1210</ele>
        <time>2026-05-25T09:53:11.000Z</time>
      </trkpt>
      <trkpt lat="42.94206" lon="1.22911">
        <ele>1211</ele>
        <time>2026-05-25T09:53:12.000Z</time>
      </trkpt>
      <trkpt lat="42.94204" lon="1.22914">
        <ele>1211</ele>
        <time>2026-05-25T09:53:13.000Z</time>
      </trkpt>
      <trkpt lat="42.94202" lon="1.22917">
        <ele>1211</ele>
        <time>2026-05-25T09:53:14.000Z</time>
      </trkpt>
      <trkpt lat="42.942" lon="1.2292">
        <ele>1211</ele>
        <time>2026-05-25T09:53:15.000Z</time>
      </trkpt>
      <trkpt lat="42.94199" lon="1.22922">
        <ele>1212</ele>
        <time>2026-05-25T09:53:16.000Z</time>
      </trkpt>
      <trkpt lat="42.94197" lon="1.22925">
        <ele>1212</ele>
        <time>2026-05-25T09:53:17.000Z</time>
      </trkpt>
      <trkpt lat="42.94195" lon="1.22927">
        <ele>1213</ele>
        <time>2026-05-25T09:53:18.000Z</time>
      </trkpt>
      <trkpt lat="42.94193" lon="1.22929">
        <ele>1214</ele>
        <time>2026-05-25T09:53:19.000Z</time>
      </trkpt>
      <trkpt lat="42.94191" lon="1.22931">
        <ele>1214</ele>
        <time>2026-05-25T09:53:20.000Z</time>
      </trkpt>
      <trkpt lat="42.9419" lon="1.22933">
        <ele>1214</ele>
        <time>2026-05-25T09:53:21.000Z</time>
      </trkpt>
      <trkpt lat="42.94188" lon="1.22936">
        <ele>1214</ele>
        <time>2026-05-25T09:53:22.000Z</time>
      </trkpt>
      <trkpt lat="42.94186" lon="1.22938">
        <ele>1214</ele>
        <time>2026-05-25T09:53:23.000Z</time>
      </trkpt>
      <trkpt lat="42.94184" lon="1.22941">
        <ele>1214</ele>
        <time>2026-05-25T09:53:24.000Z</time>
      </trkpt>
      <trkpt lat="42.94182" lon="1.22943">
        <ele>1215</ele>
        <time>2026-05-25T09:53:25.000Z</time>
      </trkpt>
      <trkpt lat="42.94181" lon="1.22945">
        <ele>1215</ele>
        <time>2026-05-25T09:53:26.000Z</time>
      </trkpt>
      <trkpt lat="42.94179" lon="1.22947">
        <ele>1216</ele>
        <time>2026-05-25T09:53:27.000Z</time>
      </trkpt>
      <trkpt lat="42.94177" lon="1.2295">
        <ele>1217</ele>
        <time>2026-05-25T09:53:28.000Z</time>
      </trkpt>
      <trkpt lat="42.94176" lon="1.22953">
        <ele>1218</ele>
        <time>2026-05-25T09:53:29.000Z</time>
      </trkpt>
      <trkpt lat="42.94175" lon="1.22955">
        <ele>1218</ele>
        <time>2026-05-25T09:53:30.000Z</time>
      </trkpt>
      <trkpt lat="42.94174" lon="1.22958">
        <ele>1219</ele>
        <time>2026-05-25T09:53:31.000Z</time>
      </trkpt>
      <trkpt lat="42.94172" lon="1.22961">
        <ele>1219</ele>
        <time>2026-05-25T09:53:32.000Z</time>
      </trkpt>
      <trkpt lat="42.9417" lon="1.22963">
        <ele>1219</ele>
        <time>2026-05-25T09:53:33.000Z</time>
      </trkpt>
      <trkpt lat="42.94169" lon="1.22966">
        <ele>1219</ele>
        <time>2026-05-25T09:53:34.000Z</time>
      </trkpt>
      <trkpt lat="42.94167" lon="1.22969">
        <ele>1218</ele>
        <time>2026-05-25T09:53:35.000Z</time>
      </trkpt>
      <trkpt lat="42.94165" lon="1.22973">
        <ele>1218</ele>
        <time>2026-05-25T09:53:36.000Z</time>
      </trkpt>
      <trkpt lat="42.94163" lon="1.22976">
        <ele>1219</ele>
        <time>2026-05-25T09:53:37.000Z</time>
      </trkpt>
      <trkpt lat="42.94162" lon="1.22978">
        <ele>1219</ele>
        <time>2026-05-25T09:53:38.000Z</time>
      </trkpt>
      <trkpt lat="42.94159" lon="1.22981">
        <ele>1219</ele>
        <time>2026-05-25T09:53:39.000Z</time>
      </trkpt>
      <trkpt lat="42.94157" lon="1.22984">
        <ele>1219</ele>
        <time>2026-05-25T09:53:40.000Z</time>
      </trkpt>
      <trkpt lat="42.94156" lon="1.22988">
        <ele>1220</ele>
        <time>2026-05-25T09:53:41.000Z</time>
      </trkpt>
      <trkpt lat="42.94154" lon="1.22989">
        <ele>1220</ele>
        <time>2026-05-25T09:53:42.000Z</time>
      </trkpt>
      <trkpt lat="42.94152" lon="1.22992">
        <ele>1220</ele>
        <time>2026-05-25T09:53:43.000Z</time>
      </trkpt>
      <trkpt lat="42.94151" lon="1.22995">
        <ele>1219</ele>
        <time>2026-05-25T09:53:44.000Z</time>
      </trkpt>
      <trkpt lat="42.9415" lon="1.22998">
        <ele>1219</ele>
        <time>2026-05-25T09:53:45.000Z</time>
      </trkpt>
      <trkpt lat="42.94148" lon="1.23001">
        <ele>1220</ele>
        <time>2026-05-25T09:53:46.000Z</time>
      </trkpt>
      <trkpt lat="42.94147" lon="1.23004">
        <ele>1220</ele>
        <time>2026-05-25T09:53:47.000Z</time>
      </trkpt>
      <trkpt lat="42.94145" lon="1.23006">
        <ele>1220</ele>
        <time>2026-05-25T09:53:48.000Z</time>
      </trkpt>
      <trkpt lat="42.94144" lon="1.2301">
        <ele>1219</ele>
        <time>2026-05-25T09:53:49.000Z</time>
      </trkpt>
      <trkpt lat="42.94143" lon="1.23013">
        <ele>1219</ele>
        <time>2026-05-25T09:53:50.000Z</time>
      </trkpt>
      <trkpt lat="42.94141" lon="1.23016">
        <ele>1220</ele>
        <time>2026-05-25T09:53:51.000Z</time>
      </trkpt>
      <trkpt lat="42.9414" lon="1.23019">
        <ele>1219</ele>
        <time>2026-05-25T09:53:52.000Z</time>
      </trkpt>
      <trkpt lat="42.94139" lon="1.23023">
        <ele>1219</ele>
        <time>2026-05-25T09:53:53.000Z</time>
      </trkpt>
      <trkpt lat="42.94138" lon="1.23027">
        <ele>1220</ele>
        <time>2026-05-25T09:53:54.000Z</time>
      </trkpt>
      <trkpt lat="42.94137" lon="1.23029">
        <ele>1221</ele>
        <time>2026-05-25T09:53:55.000Z</time>
      </trkpt>
      <trkpt lat="42.94136" lon="1.23032">
        <ele>1220</ele>
        <time>2026-05-25T09:53:56.000Z</time>
      </trkpt>
      <trkpt lat="42.94135" lon="1.23036">
        <ele>1220</ele>
        <time>2026-05-25T09:53:57.000Z</time>
      </trkpt>
      <trkpt lat="42.94134" lon="1.23038">
        <ele>1220</ele>
        <time>2026-05-25T09:53:58.000Z</time>
      </trkpt>
      <trkpt lat="42.94132" lon="1.23041">
        <ele>1221</ele>
        <time>2026-05-25T09:53:59.000Z</time>
      </trkpt>
      <trkpt lat="42.94131" lon="1.23045">
        <ele>1220</ele>
        <time>2026-05-25T09:54:00.000Z</time>
      </trkpt>
      <trkpt lat="42.9413" lon="1.23048">
        <ele>1220</ele>
        <time>2026-05-25T09:54:01.000Z</time>
      </trkpt>
      <trkpt lat="42.94128" lon="1.23051">
        <ele>1220</ele>
        <time>2026-05-25T09:54:02.000Z</time>
      </trkpt>
      <trkpt lat="42.94127" lon="1.23054">
        <ele>1221</ele>
        <time>2026-05-25T09:54:03.000Z</time>
      </trkpt>
      <trkpt lat="42.94125" lon="1.23056">
        <ele>1221</ele>
        <time>2026-05-25T09:54:04.000Z</time>
      </trkpt>
      <trkpt lat="42.94123" lon="1.23058">
        <ele>1221</ele>
        <time>2026-05-25T09:54:05.000Z</time>
      </trkpt>
      <trkpt lat="42.94122" lon="1.2306">
        <ele>1222</ele>
        <time>2026-05-25T09:54:06.000Z</time>
      </trkpt>
      <trkpt lat="42.9412" lon="1.23063">
        <ele>1222</ele>
        <time>2026-05-25T09:54:07.000Z</time>
      </trkpt>
      <trkpt lat="42.94119" lon="1.23065">
        <ele>1224</ele>
        <time>2026-05-25T09:54:08.000Z</time>
      </trkpt>
      <trkpt lat="42.94118" lon="1.23067">
        <ele>1225</ele>
        <time>2026-05-25T09:54:09.000Z</time>
      </trkpt>
      <trkpt lat="42.94117" lon="1.23069">
        <ele>1225</ele>
        <time>2026-05-25T09:54:10.000Z</time>
      </trkpt>
      <trkpt lat="42.94116" lon="1.23072">
        <ele>1226</ele>
        <time>2026-05-25T09:54:11.000Z</time>
      </trkpt>
      <trkpt lat="42.94115" lon="1.23075">
        <ele>1226</ele>
        <time>2026-05-25T09:54:12.000Z</time>
      </trkpt>
      <trkpt lat="42.94113" lon="1.23078">
        <ele>1226</ele>
        <time>2026-05-25T09:54:13.000Z</time>
      </trkpt>
      <trkpt lat="42.94111" lon="1.2308">
        <ele>1227</ele>
        <time>2026-05-25T09:54:14.000Z</time>
      </trkpt>
      <trkpt lat="42.9411" lon="1.23081">
        <ele>1228</ele>
        <time>2026-05-25T09:54:15.000Z</time>
      </trkpt>
      <trkpt lat="42.94108" lon="1.23084">
        <ele>1228</ele>
        <time>2026-05-25T09:54:16.000Z</time>
      </trkpt>
      <trkpt lat="42.94108" lon="1.23086">
        <ele>1229</ele>
        <time>2026-05-25T09:54:17.000Z</time>
      </trkpt>
      <trkpt lat="42.94107" lon="1.23089">
        <ele>1230</ele>
        <time>2026-05-25T09:54:18.000Z</time>
      </trkpt>
      <trkpt lat="42.94106" lon="1.23092">
        <ele>1231</ele>
        <time>2026-05-25T09:54:19.000Z</time>
      </trkpt>
      <trkpt lat="42.94105" lon="1.23094">
        <ele>1232</ele>
        <time>2026-05-25T09:54:20.000Z</time>
      </trkpt>
      <trkpt lat="42.94104" lon="1.23097">
        <ele>1233</ele>
        <time>2026-05-25T09:54:21.000Z</time>
      </trkpt>
      <trkpt lat="42.94103" lon="1.231">
        <ele>1233</ele>
        <time>2026-05-25T09:54:22.000Z</time>
      </trkpt>
      <trkpt lat="42.94101" lon="1.23102">
        <ele>1233</ele>
        <time>2026-05-25T09:54:23.000Z</time>
      </trkpt>
      <trkpt lat="42.941" lon="1.23105">
        <ele>1234</ele>
        <time>2026-05-25T09:54:24.000Z</time>
      </trkpt>
      <trkpt lat="42.941" lon="1.23106">
        <ele>1234</ele>
        <time>2026-05-25T09:54:25.000Z</time>
      </trkpt>
      <trkpt lat="42.94099" lon="1.23108">
        <ele>1234</ele>
        <time>2026-05-25T09:54:26.000Z</time>
      </trkpt>
      <trkpt lat="42.94098" lon="1.23111">
        <ele>1235</ele>
        <time>2026-05-25T09:54:27.000Z</time>
      </trkpt>
      <trkpt lat="42.94097" lon="1.23113">
        <ele>1235</ele>
        <time>2026-05-25T09:54:28.000Z</time>
      </trkpt>
      <trkpt lat="42.94097" lon="1.23117">
        <ele>1235</ele>
        <time>2026-05-25T09:54:29.000Z</time>
      </trkpt>
      <trkpt lat="42.94096" lon="1.2312">
        <ele>1235</ele>
        <time>2026-05-25T09:54:30.000Z</time>
      </trkpt>
      <trkpt lat="42.94096" lon="1.23122">
        <ele>1235</ele>
        <time>2026-05-25T09:54:31.000Z</time>
      </trkpt>
      <trkpt lat="42.94095" lon="1.23125">
        <ele>1235</ele>
        <time>2026-05-25T09:54:32.000Z</time>
      </trkpt>
      <trkpt lat="42.94095" lon="1.23129">
        <ele>1235</ele>
        <time>2026-05-25T09:54:33.000Z</time>
      </trkpt>
      <trkpt lat="42.94095" lon="1.23132">
        <ele>1235</ele>
        <time>2026-05-25T09:54:34.000Z</time>
      </trkpt>
      <trkpt lat="42.94094" lon="1.23135">
        <ele>1235</ele>
        <time>2026-05-25T09:54:35.000Z</time>
      </trkpt>
      <trkpt lat="42.94093" lon="1.23137">
        <ele>1235</ele>
        <time>2026-05-25T09:54:36.000Z</time>
      </trkpt>
      <trkpt lat="42.94092" lon="1.2314">
        <ele>1235</ele>
        <time>2026-05-25T09:54:37.000Z</time>
      </trkpt>
      <trkpt lat="42.94091" lon="1.23144">
        <ele>1235</ele>
        <time>2026-05-25T09:54:38.000Z</time>
      </trkpt>
      <trkpt lat="42.9409" lon="1.23147">
        <ele>1235</ele>
        <time>2026-05-25T09:54:39.000Z</time>
      </trkpt>
      <trkpt lat="42.94088" lon="1.2315">
        <ele>1234</ele>
        <time>2026-05-25T09:54:40.000Z</time>
      </trkpt>
      <trkpt lat="42.94087" lon="1.23153">
        <ele>1234</ele>
        <time>2026-05-25T09:54:41.000Z</time>
      </trkpt>
      <trkpt lat="42.94087" lon="1.23156">
        <ele>1235</ele>
        <time>2026-05-25T09:54:42.000Z</time>
      </trkpt>
      <trkpt lat="42.94086" lon="1.23159">
        <ele>1235</ele>
        <time>2026-05-25T09:54:43.000Z</time>
      </trkpt>
      <trkpt lat="42.94086" lon="1.23162">
        <ele>1236</ele>
        <time>2026-05-25T09:54:44.000Z</time>
      </trkpt>
      <trkpt lat="42.94085" lon="1.23164">
        <ele>1236</ele>
        <time>2026-05-25T09:54:45.000Z</time>
      </trkpt>
      <trkpt lat="42.94084" lon="1.23168">
        <ele>1236</ele>
        <time>2026-05-25T09:54:46.000Z</time>
      </trkpt>
      <trkpt lat="42.94083" lon="1.2317">
        <ele>1236</ele>
        <time>2026-05-25T09:54:47.000Z</time>
      </trkpt>
      <trkpt lat="42.94082" lon="1.23173">
        <ele>1236</ele>
        <time>2026-05-25T09:54:48.000Z</time>
      </trkpt>
      <trkpt lat="42.94081" lon="1.23175">
        <ele>1236</ele>
        <time>2026-05-25T09:54:49.000Z</time>
      </trkpt>
      <trkpt lat="42.9408" lon="1.23178">
        <ele>1236</ele>
        <time>2026-05-25T09:54:50.000Z</time>
      </trkpt>
      <trkpt lat="42.94078" lon="1.23181">
        <ele>1236</ele>
        <time>2026-05-25T09:54:51.000Z</time>
      </trkpt>
      <trkpt lat="42.94077" lon="1.23184">
        <ele>1236</ele>
        <time>2026-05-25T09:54:52.000Z</time>
      </trkpt>
      <trkpt lat="42.94076" lon="1.23187">
        <ele>1236</ele>
        <time>2026-05-25T09:54:53.000Z</time>
      </trkpt>
      <trkpt lat="42.94075" lon="1.2319">
        <ele>1236</ele>
        <time>2026-05-25T09:54:54.000Z</time>
      </trkpt>
      <trkpt lat="42.94074" lon="1.23193">
        <ele>1236</ele>
        <time>2026-05-25T09:54:55.000Z</time>
      </trkpt>
      <trkpt lat="42.94073" lon="1.23196">
        <ele>1235</ele>
        <time>2026-05-25T09:54:56.000Z</time>
      </trkpt>
      <trkpt lat="42.94072" lon="1.23199">
        <ele>1235</ele>
        <time>2026-05-25T09:54:57.000Z</time>
      </trkpt>
      <trkpt lat="42.94071" lon="1.23201">
        <ele>1235</ele>
        <time>2026-05-25T09:54:58.000Z</time>
      </trkpt>
      <trkpt lat="42.94071" lon="1.23203">
        <ele>1235</ele>
        <time>2026-05-25T09:54:59.000Z</time>
      </trkpt>
      <trkpt lat="42.94071" lon="1.23205">
        <ele>1236</ele>
        <time>2026-05-25T09:55:00.000Z</time>
      </trkpt>
      <trkpt lat="42.9407" lon="1.23208">
        <ele>1235</ele>
        <time>2026-05-25T09:55:01.000Z</time>
      </trkpt>
      <trkpt lat="42.94069" lon="1.2321">
        <ele>1235</ele>
        <time>2026-05-25T09:55:02.000Z</time>
      </trkpt>
      <trkpt lat="42.94068" lon="1.23213">
        <ele>1235</ele>
        <time>2026-05-25T09:55:03.000Z</time>
      </trkpt>
      <trkpt lat="42.94067" lon="1.23215">
        <ele>1235</ele>
        <time>2026-05-25T09:55:04.000Z</time>
      </trkpt>
      <trkpt lat="42.94067" lon="1.23217">
        <ele>1235</ele>
        <time>2026-05-25T09:55:05.000Z</time>
      </trkpt>
      <trkpt lat="42.94065" lon="1.23219">
        <ele>1235</ele>
        <time>2026-05-25T09:55:06.000Z</time>
      </trkpt>
      <trkpt lat="42.94064" lon="1.23221">
        <ele>1235</ele>
        <time>2026-05-25T09:55:07.000Z</time>
      </trkpt>
      <trkpt lat="42.94064" lon="1.23224">
        <ele>1235</ele>
        <time>2026-05-25T09:55:08.000Z</time>
      </trkpt>
      <trkpt lat="42.94063" lon="1.23226">
        <ele>1235</ele>
        <time>2026-05-25T09:55:09.000Z</time>
      </trkpt>
      <trkpt lat="42.94062" lon="1.23228">
        <ele>1236</ele>
        <time>2026-05-25T09:55:10.000Z</time>
      </trkpt>
      <trkpt lat="42.94062" lon="1.23229">
        <ele>1236</ele>
        <time>2026-05-25T09:55:11.000Z</time>
      </trkpt>
      <trkpt lat="42.94061" lon="1.23231">
        <ele>1237</ele>
        <time>2026-05-25T09:55:12.000Z</time>
      </trkpt>
      <trkpt lat="42.9406" lon="1.23234">
        <ele>1237</ele>
        <time>2026-05-25T09:55:13.000Z</time>
      </trkpt>
      <trkpt lat="42.9406" lon="1.23237">
        <ele>1238</ele>
        <time>2026-05-25T09:55:14.000Z</time>
      </trkpt>
      <trkpt lat="42.94059" lon="1.23239">
        <ele>1238</ele>
        <time>2026-05-25T09:55:15.000Z</time>
      </trkpt>
      <trkpt lat="42.94059" lon="1.23241">
        <ele>1238</ele>
        <time>2026-05-25T09:55:16.000Z</time>
      </trkpt>
      <trkpt lat="42.94059" lon="1.23243">
        <ele>1240</ele>
        <time>2026-05-25T09:55:17.000Z</time>
      </trkpt>
      <trkpt lat="42.9406" lon="1.23245">
        <ele>1241</ele>
        <time>2026-05-25T09:55:18.000Z</time>
      </trkpt>
      <trkpt lat="42.94059" lon="1.23247">
        <ele>1242</ele>
        <time>2026-05-25T09:55:19.000Z</time>
      </trkpt>
      <trkpt lat="42.94059" lon="1.23249">
        <ele>1242</ele>
        <time>2026-05-25T09:55:20.000Z</time>
      </trkpt>
      <trkpt lat="42.94059" lon="1.2325">
        <ele>1244</ele>
        <time>2026-05-25T09:55:21.000Z</time>
      </trkpt>
      <trkpt lat="42.94059" lon="1.23252">
        <ele>1244</ele>
        <time>2026-05-25T09:55:22.000Z</time>
      </trkpt>
      <trkpt lat="42.94059" lon="1.23255">
        <ele>1245</ele>
        <time>2026-05-25T09:55:23.000Z</time>
      </trkpt>
      <trkpt lat="42.94058" lon="1.23258">
        <ele>1246</ele>
        <time>2026-05-25T09:55:24.000Z</time>
      </trkpt>
      <trkpt lat="42.94058" lon="1.23261">
        <ele>1246</ele>
        <time>2026-05-25T09:55:25.000Z</time>
      </trkpt>
      <trkpt lat="42.94058" lon="1.23263">
        <ele>1245</ele>
        <time>2026-05-25T09:55:26.000Z</time>
      </trkpt>
      <trkpt lat="42.94057" lon="1.23267">
        <ele>1246</ele>
        <time>2026-05-25T09:55:27.000Z</time>
      </trkpt>
      <trkpt lat="42.94057" lon="1.23269">
        <ele>1247</ele>
        <time>2026-05-25T09:55:28.000Z</time>
      </trkpt>
      <trkpt lat="42.94057" lon="1.23271">
        <ele>1248</ele>
        <time>2026-05-25T09:55:29.000Z</time>
      </trkpt>
      <trkpt lat="42.94057" lon="1.23274">
        <ele>1248</ele>
        <time>2026-05-25T09:55:30.000Z</time>
      </trkpt>
      <trkpt lat="42.94056" lon="1.23276">
        <ele>1248</ele>
        <time>2026-05-25T09:55:31.000Z</time>
      </trkpt>
      <trkpt lat="42.94056" lon="1.23279">
        <ele>1249</ele>
        <time>2026-05-25T09:55:32.000Z</time>
      </trkpt>
      <trkpt lat="42.94056" lon="1.23282">
        <ele>1249</ele>
        <time>2026-05-25T09:55:33.000Z</time>
      </trkpt>
      <trkpt lat="42.94056" lon="1.23284">
        <ele>1249</ele>
        <time>2026-05-25T09:55:34.000Z</time>
      </trkpt>
      <trkpt lat="42.94056" lon="1.23287">
        <ele>1249</ele>
        <time>2026-05-25T09:55:35.000Z</time>
      </trkpt>
      <trkpt lat="42.94057" lon="1.23289">
        <ele>1250</ele>
        <time>2026-05-25T09:55:36.000Z</time>
      </trkpt>
      <trkpt lat="42.94057" lon="1.23292">
        <ele>1250</ele>
        <time>2026-05-25T09:55:37.000Z</time>
      </trkpt>
      <trkpt lat="42.94057" lon="1.23294">
        <ele>1250</ele>
        <time>2026-05-25T09:55:38.000Z</time>
      </trkpt>
      <trkpt lat="42.94057" lon="1.23297">
        <ele>1251</ele>
        <time>2026-05-25T09:55:39.000Z</time>
      </trkpt>
      <trkpt lat="42.94057" lon="1.23299">
        <ele>1251</ele>
        <time>2026-05-25T09:55:40.000Z</time>
      </trkpt>
      <trkpt lat="42.94057" lon="1.23301">
        <ele>1251</ele>
        <time>2026-05-25T09:55:41.000Z</time>
      </trkpt>
      <trkpt lat="42.94057" lon="1.23303">
        <ele>1251</ele>
        <time>2026-05-25T09:55:42.000Z</time>
      </trkpt>
      <trkpt lat="42.94057" lon="1.23305">
        <ele>1251</ele>
        <time>2026-05-25T09:55:43.000Z</time>
      </trkpt>
      <trkpt lat="42.94056" lon="1.23308">
        <ele>1252</ele>
        <time>2026-05-25T09:55:44.000Z</time>
      </trkpt>
      <trkpt lat="42.94057" lon="1.2331">
        <ele>1254</ele>
        <time>2026-05-25T09:55:45.000Z</time>
      </trkpt>
      <trkpt lat="42.94056" lon="1.23312">
        <ele>1253</ele>
        <time>2026-05-25T09:55:46.000Z</time>
      </trkpt>
      <trkpt lat="42.94056" lon="1.23315">
        <ele>1254</ele>
        <time>2026-05-25T09:55:47.000Z</time>
      </trkpt>
      <trkpt lat="42.94056" lon="1.23317">
        <ele>1254</ele>
        <time>2026-05-25T09:55:48.000Z</time>
      </trkpt>
      <trkpt lat="42.94056" lon="1.23319">
        <ele>1255</ele>
        <time>2026-05-25T09:55:49.000Z</time>
      </trkpt>
      <trkpt lat="42.94056" lon="1.23322">
        <ele>1255</ele>
        <time>2026-05-25T09:55:50.000Z</time>
      </trkpt>
      <trkpt lat="42.94057" lon="1.23325">
        <ele>1255</ele>
        <time>2026-05-25T09:55:51.000Z</time>
      </trkpt>
      <trkpt lat="42.94056" lon="1.23327">
        <ele>1256</ele>
        <time>2026-05-25T09:55:52.000Z</time>
      </trkpt>
      <trkpt lat="42.94056" lon="1.2333">
        <ele>1257</ele>
        <time>2026-05-25T09:55:53.000Z</time>
      </trkpt>
      <trkpt lat="42.94056" lon="1.23332">
        <ele>1257</ele>
        <time>2026-05-25T09:55:54.000Z</time>
      </trkpt>
      <trkpt lat="42.94055" lon="1.23335">
        <ele>1257</ele>
        <time>2026-05-25T09:55:55.000Z</time>
      </trkpt>
      <trkpt lat="42.94056" lon="1.23338">
        <ele>1257</ele>
        <time>2026-05-25T09:55:56.000Z</time>
      </trkpt>
      <trkpt lat="42.94056" lon="1.23341">
        <ele>1257</ele>
        <time>2026-05-25T09:55:57.000Z</time>
      </trkpt>
      <trkpt lat="42.94056" lon="1.23344">
        <ele>1257</ele>
        <time>2026-05-25T09:55:58.000Z</time>
      </trkpt>
      <trkpt lat="42.94056" lon="1.23346">
        <ele>1257</ele>
        <time>2026-05-25T09:55:59.000Z</time>
      </trkpt>
      <trkpt lat="42.94056" lon="1.23349">
        <ele>1257</ele>
        <time>2026-05-25T09:56:00.000Z</time>
      </trkpt>
      <trkpt lat="42.94056" lon="1.23352">
        <ele>1257</ele>
        <time>2026-05-25T09:56:01.000Z</time>
      </trkpt>
      <trkpt lat="42.94057" lon="1.23355">
        <ele>1257</ele>
        <time>2026-05-25T09:56:02.000Z</time>
      </trkpt>
      <trkpt lat="42.94057" lon="1.23357">
        <ele>1258</ele>
        <time>2026-05-25T09:56:03.000Z</time>
      </trkpt>
      <trkpt lat="42.94057" lon="1.23359">
        <ele>1258</ele>
        <time>2026-05-25T09:56:04.000Z</time>
      </trkpt>
      <trkpt lat="42.94058" lon="1.23362">
        <ele>1259</ele>
        <time>2026-05-25T09:56:05.000Z</time>
      </trkpt>
      <trkpt lat="42.94057" lon="1.23365">
        <ele>1259</ele>
        <time>2026-05-25T09:56:06.000Z</time>
      </trkpt>
      <trkpt lat="42.94058" lon="1.23367">
        <ele>1259</ele>
        <time>2026-05-25T09:56:07.000Z</time>
      </trkpt>
      <trkpt lat="42.94058" lon="1.23369">
        <ele>1259</ele>
        <time>2026-05-25T09:56:08.000Z</time>
      </trkpt>
      <trkpt lat="42.94058" lon="1.23372">
        <ele>1259</ele>
        <time>2026-05-25T09:56:09.000Z</time>
      </trkpt>
      <trkpt lat="42.94058" lon="1.23375">
        <ele>1259</ele>
        <time>2026-05-25T09:56:10.000Z</time>
      </trkpt>
      <trkpt lat="42.94058" lon="1.23378">
        <ele>1260</ele>
        <time>2026-05-25T09:56:11.000Z</time>
      </trkpt>
      <trkpt lat="42.94058" lon="1.23381">
        <ele>1259</ele>
        <time>2026-05-25T09:56:12.000Z</time>
      </trkpt>
      <trkpt lat="42.94057" lon="1.23383">
        <ele>1260</ele>
        <time>2026-05-25T09:56:13.000Z</time>
      </trkpt>
      <trkpt lat="42.94058" lon="1.23386">
        <ele>1260</ele>
        <time>2026-05-25T09:56:14.000Z</time>
      </trkpt>
      <trkpt lat="42.94058" lon="1.23389">
        <ele>1260</ele>
        <time>2026-05-25T09:56:15.000Z</time>
      </trkpt>
      <trkpt lat="42.94058" lon="1.23392">
        <ele>1260</ele>
        <time>2026-05-25T09:56:16.000Z</time>
      </trkpt>
      <trkpt lat="42.94057" lon="1.23395">
        <ele>1260</ele>
        <time>2026-05-25T09:56:17.000Z</time>
      </trkpt>
      <trkpt lat="42.94057" lon="1.23398">
        <ele>1260</ele>
        <time>2026-05-25T09:56:18.000Z</time>
      </trkpt>
      <trkpt lat="42.94058" lon="1.234">
        <ele>1260</ele>
        <time>2026-05-25T09:56:19.000Z</time>
      </trkpt>
      <trkpt lat="42.94058" lon="1.23402">
        <ele>1261</ele>
        <time>2026-05-25T09:56:20.000Z</time>
      </trkpt>
      <trkpt lat="42.94058" lon="1.23404">
        <ele>1261</ele>
        <time>2026-05-25T09:56:21.000Z</time>
      </trkpt>
      <trkpt lat="42.94058" lon="1.23407">
        <ele>1260</ele>
        <time>2026-05-25T09:56:22.000Z</time>
      </trkpt>
      <trkpt lat="42.94058" lon="1.23411">
        <ele>1260</ele>
        <time>2026-05-25T09:56:23.000Z</time>
      </trkpt>
      <trkpt lat="42.94058" lon="1.23413">
        <ele>1260</ele>
        <time>2026-05-25T09:56:24.000Z</time>
      </trkpt>
      <trkpt lat="42.94058" lon="1.23415">
        <ele>1260</ele>
        <time>2026-05-25T09:56:25.000Z</time>
      </trkpt>
      <trkpt lat="42.94059" lon="1.23418">
        <ele>1260</ele>
        <time>2026-05-25T09:56:26.000Z</time>
      </trkpt>
      <trkpt lat="42.94059" lon="1.2342">
        <ele>1260</ele>
        <time>2026-05-25T09:56:27.000Z</time>
      </trkpt>
      <trkpt lat="42.94059" lon="1.23423">
        <ele>1260</ele>
        <time>2026-05-25T09:56:28.000Z</time>
      </trkpt>
      <trkpt lat="42.94059" lon="1.23425">
        <ele>1261</ele>
        <time>2026-05-25T09:56:29.000Z</time>
      </trkpt>
      <trkpt lat="42.94059" lon="1.23427">
        <ele>1261</ele>
        <time>2026-05-25T09:56:30.000Z</time>
      </trkpt>
      <trkpt lat="42.9406" lon="1.2343">
        <ele>1261</ele>
        <time>2026-05-25T09:56:31.000Z</time>
      </trkpt>
      <trkpt lat="42.94059" lon="1.23433">
        <ele>1261</ele>
        <time>2026-05-25T09:56:32.000Z</time>
      </trkpt>
      <trkpt lat="42.94059" lon="1.23435">
        <ele>1261</ele>
        <time>2026-05-25T09:56:33.000Z</time>
      </trkpt>
      <trkpt lat="42.9406" lon="1.23438">
        <ele>1262</ele>
        <time>2026-05-25T09:56:34.000Z</time>
      </trkpt>
      <trkpt lat="42.94059" lon="1.2344">
        <ele>1262</ele>
        <time>2026-05-25T09:56:35.000Z</time>
      </trkpt>
      <trkpt lat="42.9406" lon="1.23442">
        <ele>1263</ele>
        <time>2026-05-25T09:56:36.000Z</time>
      </trkpt>
      <trkpt lat="42.9406" lon="1.23445">
        <ele>1263</ele>
        <time>2026-05-25T09:56:37.000Z</time>
      </trkpt>
      <trkpt lat="42.9406" lon="1.23447">
        <ele>1263</ele>
        <time>2026-05-25T09:56:38.000Z</time>
      </trkpt>
      <trkpt lat="42.94061" lon="1.23449">
        <ele>1263</ele>
        <time>2026-05-25T09:56:39.000Z</time>
      </trkpt>
      <trkpt lat="42.94061" lon="1.23452">
        <ele>1263</ele>
        <time>2026-05-25T09:56:40.000Z</time>
      </trkpt>
      <trkpt lat="42.94062" lon="1.23454">
        <ele>1263</ele>
        <time>2026-05-25T09:56:41.000Z</time>
      </trkpt>
      <trkpt lat="42.94062" lon="1.23456">
        <ele>1264</ele>
        <time>2026-05-25T09:56:42.000Z</time>
      </trkpt>
      <trkpt lat="42.94062" lon="1.23459">
        <ele>1264</ele>
        <time>2026-05-25T09:56:43.000Z</time>
      </trkpt>
      <trkpt lat="42.94062" lon="1.23461">
        <ele>1264</ele>
        <time>2026-05-25T09:56:44.000Z</time>
      </trkpt>
      <trkpt lat="42.94062" lon="1.23463">
        <ele>1264</ele>
        <time>2026-05-25T09:56:45.000Z</time>
      </trkpt>
      <trkpt lat="42.94062" lon="1.23465">
        <ele>1265</ele>
        <time>2026-05-25T09:56:46.000Z</time>
      </trkpt>
      <trkpt lat="42.94062" lon="1.23466">
        <ele>1265</ele>
        <time>2026-05-25T09:56:47.000Z</time>
      </trkpt>
      <trkpt lat="42.94063" lon="1.23468">
        <ele>1264</ele>
        <time>2026-05-25T09:56:48.000Z</time>
      </trkpt>
      <trkpt lat="42.94063" lon="1.23471">
        <ele>1264</ele>
        <time>2026-05-25T09:56:49.000Z</time>
      </trkpt>
      <trkpt lat="42.94063" lon="1.23473">
        <ele>1264</ele>
        <time>2026-05-25T09:56:50.000Z</time>
      </trkpt>
      <trkpt lat="42.94063" lon="1.23476">
        <ele>1264</ele>
        <time>2026-05-25T09:56:51.000Z</time>
      </trkpt>
      <trkpt lat="42.94063" lon="1.23479">
        <ele>1264</ele>
        <time>2026-05-25T09:56:52.000Z</time>
      </trkpt>
      <trkpt lat="42.94064" lon="1.23481">
        <ele>1264</ele>
        <time>2026-05-25T09:56:53.000Z</time>
      </trkpt>
      <trkpt lat="42.94064" lon="1.23484">
        <ele>1264</ele>
        <time>2026-05-25T09:56:54.000Z</time>
      </trkpt>
      <trkpt lat="42.94064" lon="1.23487">
        <ele>1265</ele>
        <time>2026-05-25T09:56:55.000Z</time>
      </trkpt>
      <trkpt lat="42.94064" lon="1.23489">
        <ele>1265</ele>
        <time>2026-05-25T09:56:56.000Z</time>
      </trkpt>
      <trkpt lat="42.94065" lon="1.23492">
        <ele>1266</ele>
        <time>2026-05-25T09:56:57.000Z</time>
      </trkpt>
      <trkpt lat="42.94065" lon="1.23494">
        <ele>1267</ele>
        <time>2026-05-25T09:56:58.000Z</time>
      </trkpt>
      <trkpt lat="42.94066" lon="1.23495">
        <ele>1267</ele>
        <time>2026-05-25T09:56:59.000Z</time>
      </trkpt>
      <trkpt lat="42.94067" lon="1.23497">
        <ele>1268</ele>
        <time>2026-05-25T09:57:00.000Z</time>
      </trkpt>
      <trkpt lat="42.94067" lon="1.23499">
        <ele>1267</ele>
        <time>2026-05-25T09:57:01.000Z</time>
      </trkpt>
      <trkpt lat="42.94068" lon="1.23502">
        <ele>1267</ele>
        <time>2026-05-25T09:57:02.000Z</time>
      </trkpt>
      <trkpt lat="42.94069" lon="1.23505">
        <ele>1267</ele>
        <time>2026-05-25T09:57:03.000Z</time>
      </trkpt>
      <trkpt lat="42.9407" lon="1.23507">
        <ele>1267</ele>
        <time>2026-05-25T09:57:04.000Z</time>
      </trkpt>
      <trkpt lat="42.94071" lon="1.23511">
        <ele>1266</ele>
        <time>2026-05-25T09:57:05.000Z</time>
      </trkpt>
      <trkpt lat="42.94073" lon="1.23513">
        <ele>1266</ele>
        <time>2026-05-25T09:57:06.000Z</time>
      </trkpt>
      <trkpt lat="42.94074" lon="1.23515">
        <ele>1265</ele>
        <time>2026-05-25T09:57:07.000Z</time>
      </trkpt>
      <trkpt lat="42.94075" lon="1.23518">
        <ele>1264</ele>
        <time>2026-05-25T09:57:08.000Z</time>
      </trkpt>
      <trkpt lat="42.94076" lon="1.2352">
        <ele>1264</ele>
        <time>2026-05-25T09:57:09.000Z</time>
      </trkpt>
      <trkpt lat="42.94077" lon="1.23523">
        <ele>1263</ele>
        <time>2026-05-25T09:57:10.000Z</time>
      </trkpt>
      <trkpt lat="42.94078" lon="1.23526">
        <ele>1263</ele>
        <time>2026-05-25T09:57:11.000Z</time>
      </trkpt>
      <trkpt lat="42.94079" lon="1.23528">
        <ele>1263</ele>
        <time>2026-05-25T09:57:12.000Z</time>
      </trkpt>
      <trkpt lat="42.9408" lon="1.2353">
        <ele>1263</ele>
        <time>2026-05-25T09:57:13.000Z</time>
      </trkpt>
      <trkpt lat="42.94081" lon="1.23532">
        <ele>1263</ele>
        <time>2026-05-25T09:57:14.000Z</time>
      </trkpt>
      <trkpt lat="42.94082" lon="1.23535">
        <ele>1262</ele>
        <time>2026-05-25T09:57:15.000Z</time>
      </trkpt>
      <trkpt lat="42.94083" lon="1.23538">
        <ele>1262</ele>
        <time>2026-05-25T09:57:16.000Z</time>
      </trkpt>
      <trkpt lat="42.94084" lon="1.2354">
        <ele>1262</ele>
        <time>2026-05-25T09:57:17.000Z</time>
      </trkpt>
      <trkpt lat="42.94084" lon="1.23542">
        <ele>1263</ele>
        <time>2026-05-25T09:57:18.000Z</time>
      </trkpt>
      <trkpt lat="42.94086" lon="1.23545">
        <ele>1263</ele>
        <time>2026-05-25T09:57:19.000Z</time>
      </trkpt>
      <trkpt lat="42.94087" lon="1.23547">
        <ele>1263</ele>
        <time>2026-05-25T09:57:20.000Z</time>
      </trkpt>
      <trkpt lat="42.94088" lon="1.23549">
        <ele>1263</ele>
        <time>2026-05-25T09:57:21.000Z</time>
      </trkpt>
      <trkpt lat="42.9409" lon="1.23551">
        <ele>1264</ele>
        <time>2026-05-25T09:57:22.000Z</time>
      </trkpt>
      <trkpt lat="42.94091" lon="1.23553">
        <ele>1263</ele>
        <time>2026-05-25T09:57:23.000Z</time>
      </trkpt>
      <trkpt lat="42.94092" lon="1.23555">
        <ele>1264</ele>
        <time>2026-05-25T09:57:24.000Z</time>
      </trkpt>
      <trkpt lat="42.94093" lon="1.23557">
        <ele>1263</ele>
        <time>2026-05-25T09:57:25.000Z</time>
      </trkpt>
      <trkpt lat="42.94094" lon="1.23559">
        <ele>1263</ele>
        <time>2026-05-25T09:57:26.000Z</time>
      </trkpt>
      <trkpt lat="42.94095" lon="1.23561">
        <ele>1264</ele>
        <time>2026-05-25T09:57:27.000Z</time>
      </trkpt>
      <trkpt lat="42.94096" lon="1.23563">
        <ele>1265</ele>
        <time>2026-05-25T09:57:28.000Z</time>
      </trkpt>
      <trkpt lat="42.94098" lon="1.23565">
        <ele>1264</ele>
        <time>2026-05-25T09:57:29.000Z</time>
      </trkpt>
      <trkpt lat="42.94099" lon="1.23566">
        <ele>1265</ele>
        <time>2026-05-25T09:57:30.000Z</time>
      </trkpt>
      <trkpt lat="42.941" lon="1.23569">
        <ele>1265</ele>
        <time>2026-05-25T09:57:31.000Z</time>
      </trkpt>
      <trkpt lat="42.94102" lon="1.23571">
        <ele>1265</ele>
        <time>2026-05-25T09:57:32.000Z</time>
      </trkpt>
      <trkpt lat="42.94103" lon="1.23573">
        <ele>1265</ele>
        <time>2026-05-25T09:57:33.000Z</time>
      </trkpt>
      <trkpt lat="42.94104" lon="1.23575">
        <ele>1265</ele>
        <time>2026-05-25T09:57:34.000Z</time>
      </trkpt>
      <trkpt lat="42.94106" lon="1.23576">
        <ele>1266</ele>
        <time>2026-05-25T09:57:35.000Z</time>
      </trkpt>
      <trkpt lat="42.94107" lon="1.23578">
        <ele>1266</ele>
        <time>2026-05-25T09:57:36.000Z</time>
      </trkpt>
      <trkpt lat="42.94108" lon="1.23579">
        <ele>1266</ele>
        <time>2026-05-25T09:57:37.000Z</time>
      </trkpt>
      <trkpt lat="42.94109" lon="1.23581">
        <ele>1267</ele>
        <time>2026-05-25T09:57:38.000Z</time>
      </trkpt>
      <trkpt lat="42.94111" lon="1.23583">
        <ele>1267</ele>
        <time>2026-05-25T09:57:39.000Z</time>
      </trkpt>
      <trkpt lat="42.94113" lon="1.23585">
        <ele>1267</ele>
        <time>2026-05-25T09:57:40.000Z</time>
      </trkpt>
      <trkpt lat="42.94114" lon="1.23587">
        <ele>1268</ele>
        <time>2026-05-25T09:57:41.000Z</time>
      </trkpt>
      <trkpt lat="42.94115" lon="1.23589">
        <ele>1268</ele>
        <time>2026-05-25T09:57:42.000Z</time>
      </trkpt>
      <trkpt lat="42.94117" lon="1.2359">
        <ele>1268</ele>
        <time>2026-05-25T09:57:43.000Z</time>
      </trkpt>
      <trkpt lat="42.94118" lon="1.23591">
        <ele>1269</ele>
        <time>2026-05-25T09:57:44.000Z</time>
      </trkpt>
      <trkpt lat="42.94119" lon="1.23593">
        <ele>1269</ele>
        <time>2026-05-25T09:57:45.000Z</time>
      </trkpt>
      <trkpt lat="42.9412" lon="1.23595">
        <ele>1269</ele>
        <time>2026-05-25T09:57:46.000Z</time>
      </trkpt>
      <trkpt lat="42.94121" lon="1.23597">
        <ele>1269</ele>
        <time>2026-05-25T09:57:47.000Z</time>
      </trkpt>
      <trkpt lat="42.94122" lon="1.23599">
        <ele>1270</ele>
        <time>2026-05-25T09:57:48.000Z</time>
      </trkpt>
      <trkpt lat="42.94124" lon="1.23599">
        <ele>1270</ele>
        <time>2026-05-25T09:57:49.000Z</time>
      </trkpt>
      <trkpt lat="42.94125" lon="1.236">
        <ele>1271</ele>
        <time>2026-05-25T09:57:50.000Z</time>
      </trkpt>
      <trkpt lat="42.94127" lon="1.23602">
        <ele>1272</ele>
        <time>2026-05-25T09:57:51.000Z</time>
      </trkpt>
      <trkpt lat="42.94128" lon="1.23603">
        <ele>1272</ele>
        <time>2026-05-25T09:57:52.000Z</time>
      </trkpt>
      <trkpt lat="42.94129" lon="1.23604">
        <ele>1272</ele>
        <time>2026-05-25T09:57:53.000Z</time>
      </trkpt>
      <trkpt lat="42.94131" lon="1.23606">
        <ele>1272</ele>
        <time>2026-05-25T09:57:54.000Z</time>
      </trkpt>
      <trkpt lat="42.94132" lon="1.23606">
        <ele>1273</ele>
        <time>2026-05-25T09:57:55.000Z</time>
      </trkpt>
      <trkpt lat="42.94134" lon="1.23607">
        <ele>1273</ele>
        <time>2026-05-25T09:57:56.000Z</time>
      </trkpt>
      <trkpt lat="42.94136" lon="1.23609">
        <ele>1274</ele>
        <time>2026-05-25T09:57:57.000Z</time>
      </trkpt>
      <trkpt lat="42.94138" lon="1.2361">
        <ele>1274</ele>
        <time>2026-05-25T09:57:58.000Z</time>
      </trkpt>
      <trkpt lat="42.94139" lon="1.23612">
        <ele>1274</ele>
        <time>2026-05-25T09:57:59.000Z</time>
      </trkpt>
      <trkpt lat="42.94141" lon="1.23614">
        <ele>1274</ele>
        <time>2026-05-25T09:58:00.000Z</time>
      </trkpt>
      <trkpt lat="42.94142" lon="1.23615">
        <ele>1274</ele>
        <time>2026-05-25T09:58:01.000Z</time>
      </trkpt>
      <trkpt lat="42.94144" lon="1.23618">
        <ele>1274</ele>
        <time>2026-05-25T09:58:02.000Z</time>
      </trkpt>
      <trkpt lat="42.94146" lon="1.2362">
        <ele>1274</ele>
        <time>2026-05-25T09:58:03.000Z</time>
      </trkpt>
      <trkpt lat="42.94148" lon="1.23622">
        <ele>1274</ele>
        <time>2026-05-25T09:58:04.000Z</time>
      </trkpt>
      <trkpt lat="42.94149" lon="1.23625">
        <ele>1273</ele>
        <time>2026-05-25T09:58:05.000Z</time>
      </trkpt>
      <trkpt lat="42.94151" lon="1.23629">
        <ele>1272</ele>
        <time>2026-05-25T09:58:06.000Z</time>
      </trkpt>
      <trkpt lat="42.94152" lon="1.23632">
        <ele>1272</ele>
        <time>2026-05-25T09:58:07.000Z</time>
      </trkpt>
      <trkpt lat="42.94153" lon="1.23635">
        <ele>1272</ele>
        <time>2026-05-25T09:58:08.000Z</time>
      </trkpt>
      <trkpt lat="42.94154" lon="1.23638">
        <ele>1271</ele>
        <time>2026-05-25T09:58:09.000Z</time>
      </trkpt>
      <trkpt lat="42.94155" lon="1.23641">
        <ele>1271</ele>
        <time>2026-05-25T09:58:10.000Z</time>
      </trkpt>
      <trkpt lat="42.94155" lon="1.23644">
        <ele>1271</ele>
        <time>2026-05-25T09:58:11.000Z</time>
      </trkpt>
      <trkpt lat="42.94155" lon="1.23646">
        <ele>1271</ele>
        <time>2026-05-25T09:58:12.000Z</time>
      </trkpt>
      <trkpt lat="42.94155" lon="1.23649">
        <ele>1271</ele>
        <time>2026-05-25T09:58:13.000Z</time>
      </trkpt>
      <trkpt lat="42.94156" lon="1.23652">
        <ele>1271</ele>
        <time>2026-05-25T09:58:14.000Z</time>
      </trkpt>
      <trkpt lat="42.94156" lon="1.23654">
        <ele>1271</ele>
        <time>2026-05-25T09:58:15.000Z</time>
      </trkpt>
      <trkpt lat="42.94156" lon="1.23657">
        <ele>1271</ele>
        <time>2026-05-25T09:58:16.000Z</time>
      </trkpt>
      <trkpt lat="42.94157" lon="1.2366">
        <ele>1271</ele>
        <time>2026-05-25T09:58:17.000Z</time>
      </trkpt>
      <trkpt lat="42.94157" lon="1.23662">
        <ele>1272</ele>
        <time>2026-05-25T09:58:18.000Z</time>
      </trkpt>
      <trkpt lat="42.94157" lon="1.23665">
        <ele>1272</ele>
        <time>2026-05-25T09:58:19.000Z</time>
      </trkpt>
      <trkpt lat="42.94157" lon="1.23667">
        <ele>1273</ele>
        <time>2026-05-25T09:58:20.000Z</time>
      </trkpt>
      <trkpt lat="42.94158" lon="1.2367">
        <ele>1273</ele>
        <time>2026-05-25T09:58:21.000Z</time>
      </trkpt>
      <trkpt lat="42.94158" lon="1.2367">
        <ele>1272</ele>
        <time>2026-05-25T09:58:22.000Z</time>
      </trkpt>
      <trkpt lat="42.94158" lon="1.2367">
        <ele>1272</ele>
        <time>2026-05-25T09:58:23.000Z</time>
      </trkpt>
      <trkpt lat="42.94159" lon="1.2367">
        <ele>1272</ele>
        <time>2026-05-25T09:58:24.000Z</time>
      </trkpt>
      <trkpt lat="42.94159" lon="1.23671">
        <ele>1272</ele>
        <time>2026-05-25T09:58:25.000Z</time>
      </trkpt>
      <trkpt lat="42.94159" lon="1.23678">
        <ele>1270</ele>
        <time>2026-05-25T09:59:07.000Z</time>
      </trkpt>
      <trkpt lat="42.94159" lon="1.23678">
        <ele>1270</ele>
        <time>2026-05-25T09:59:08.000Z</time>
      </trkpt>
      <trkpt lat="42.94159" lon="1.23677">
        <ele>1270</ele>
        <time>2026-05-25T09:59:09.000Z</time>
      </trkpt>
      <trkpt lat="42.9416" lon="1.23676">
        <ele>1270</ele>
        <time>2026-05-25T09:59:10.000Z</time>
      </trkpt>
      <trkpt lat="42.94159" lon="1.23677">
        <ele>1271</ele>
        <time>2026-05-25T09:59:44.000Z</time>
      </trkpt>
      <trkpt lat="42.94159" lon="1.23678">
        <ele>1271</ele>
        <time>2026-05-25T09:59:45.000Z</time>
      </trkpt>
      <trkpt lat="42.94158" lon="1.2368">
        <ele>1272</ele>
        <time>2026-05-25T09:59:46.000Z</time>
      </trkpt>
      <trkpt lat="42.94158" lon="1.23682">
        <ele>1273</ele>
        <time>2026-05-25T09:59:47.000Z</time>
      </trkpt>
      <trkpt lat="42.94158" lon="1.23685">
        <ele>1273</ele>
        <time>2026-05-25T09:59:48.000Z</time>
      </trkpt>
      <trkpt lat="42.94157" lon="1.23688">
        <ele>1273</ele>
        <time>2026-05-25T09:59:49.000Z</time>
      </trkpt>
      <trkpt lat="42.94157" lon="1.2369">
        <ele>1274</ele>
        <time>2026-05-25T09:59:50.000Z</time>
      </trkpt>
      <trkpt lat="42.94157" lon="1.23692">
        <ele>1274</ele>
        <time>2026-05-25T09:59:51.000Z</time>
      </trkpt>
      <trkpt lat="42.94158" lon="1.23694">
        <ele>1275</ele>
        <time>2026-05-25T09:59:52.000Z</time>
      </trkpt>
      <trkpt lat="42.94158" lon="1.23696">
        <ele>1276</ele>
        <time>2026-05-25T09:59:53.000Z</time>
      </trkpt>
      <trkpt lat="42.94158" lon="1.23697">
        <ele>1277</ele>
        <time>2026-05-25T09:59:54.000Z</time>
      </trkpt>
      <trkpt lat="42.94159" lon="1.237">
        <ele>1277</ele>
        <time>2026-05-25T09:59:55.000Z</time>
      </trkpt>
      <trkpt lat="42.9416" lon="1.23703">
        <ele>1278</ele>
        <time>2026-05-25T09:59:56.000Z</time>
      </trkpt>
      <trkpt lat="42.9416" lon="1.23706">
        <ele>1279</ele>
        <time>2026-05-25T09:59:57.000Z</time>
      </trkpt>
      <trkpt lat="42.94161" lon="1.23708">
        <ele>1279</ele>
        <time>2026-05-25T09:59:58.000Z</time>
      </trkpt>
      <trkpt lat="42.94161" lon="1.23711">
        <ele>1279</ele>
        <time>2026-05-25T09:59:59.000Z</time>
      </trkpt>
      <trkpt lat="42.94162" lon="1.23714">
        <ele>1281</ele>
        <time>2026-05-25T10:00:00.000Z</time>
      </trkpt>
      <trkpt lat="42.94163" lon="1.23717">
        <ele>1282</ele>
        <time>2026-05-25T10:00:01.000Z</time>
      </trkpt>
      <trkpt lat="42.94164" lon="1.23719">
        <ele>1282</ele>
        <time>2026-05-25T10:00:02.000Z</time>
      </trkpt>
      <trkpt lat="42.94165" lon="1.23721">
        <ele>1283</ele>
        <time>2026-05-25T10:00:03.000Z</time>
      </trkpt>
      <trkpt lat="42.94166" lon="1.23723">
        <ele>1284</ele>
        <time>2026-05-25T10:00:04.000Z</time>
      </trkpt>
      <trkpt lat="42.94167" lon="1.23726">
        <ele>1285</ele>
        <time>2026-05-25T10:00:05.000Z</time>
      </trkpt>
      <trkpt lat="42.94168" lon="1.23728">
        <ele>1285</ele>
        <time>2026-05-25T10:00:06.000Z</time>
      </trkpt>
      <trkpt lat="42.94169" lon="1.23731">
        <ele>1286</ele>
        <time>2026-05-25T10:00:07.000Z</time>
      </trkpt>
      <trkpt lat="42.9417" lon="1.23734">
        <ele>1286</ele>
        <time>2026-05-25T10:00:08.000Z</time>
      </trkpt>
      <trkpt lat="42.94171" lon="1.23738">
        <ele>1286</ele>
        <time>2026-05-25T10:00:09.000Z</time>
      </trkpt>
      <trkpt lat="42.94172" lon="1.23741">
        <ele>1286</ele>
        <time>2026-05-25T10:00:10.000Z</time>
      </trkpt>
      <trkpt lat="42.94173" lon="1.23745">
        <ele>1286</ele>
        <time>2026-05-25T10:00:11.000Z</time>
      </trkpt>
      <trkpt lat="42.94174" lon="1.23748">
        <ele>1286</ele>
        <time>2026-05-25T10:00:12.000Z</time>
      </trkpt>
      <trkpt lat="42.94175" lon="1.2375">
        <ele>1286</ele>
        <time>2026-05-25T10:00:13.000Z</time>
      </trkpt>
      <trkpt lat="42.94176" lon="1.23754">
        <ele>1287</ele>
        <time>2026-05-25T10:00:14.000Z</time>
      </trkpt>
      <trkpt lat="42.94177" lon="1.23757">
        <ele>1287</ele>
        <time>2026-05-25T10:00:15.000Z</time>
      </trkpt>
      <trkpt lat="42.94178" lon="1.2376">
        <ele>1287</ele>
        <time>2026-05-25T10:00:16.000Z</time>
      </trkpt>
      <trkpt lat="42.94179" lon="1.23764">
        <ele>1287</ele>
        <time>2026-05-25T10:00:17.000Z</time>
      </trkpt>
      <trkpt lat="42.94181" lon="1.23767">
        <ele>1286</ele>
        <time>2026-05-25T10:00:18.000Z</time>
      </trkpt>
      <trkpt lat="42.94182" lon="1.2377">
        <ele>1287</ele>
        <time>2026-05-25T10:00:19.000Z</time>
      </trkpt>
      <trkpt lat="42.94183" lon="1.23772">
        <ele>1287</ele>
        <time>2026-05-25T10:00:20.000Z</time>
      </trkpt>
      <trkpt lat="42.94184" lon="1.23774">
        <ele>1287</ele>
        <time>2026-05-25T10:00:21.000Z</time>
      </trkpt>
      <trkpt lat="42.94185" lon="1.23777">
        <ele>1288</ele>
        <time>2026-05-25T10:00:22.000Z</time>
      </trkpt>
      <trkpt lat="42.94187" lon="1.23779">
        <ele>1288</ele>
        <time>2026-05-25T10:00:23.000Z</time>
      </trkpt>
      <trkpt lat="42.94188" lon="1.23781">
        <ele>1288</ele>
        <time>2026-05-25T10:00:24.000Z</time>
      </trkpt>
      <trkpt lat="42.94189" lon="1.23784">
        <ele>1288</ele>
        <time>2026-05-25T10:00:25.000Z</time>
      </trkpt>
      <trkpt lat="42.9419" lon="1.23787">
        <ele>1288</ele>
        <time>2026-05-25T10:00:26.000Z</time>
      </trkpt>
      <trkpt lat="42.94191" lon="1.23789">
        <ele>1289</ele>
        <time>2026-05-25T10:00:27.000Z</time>
      </trkpt>
      <trkpt lat="42.94193" lon="1.23792">
        <ele>1289</ele>
        <time>2026-05-25T10:00:28.000Z</time>
      </trkpt>
      <trkpt lat="42.94194" lon="1.23794">
        <ele>1289</ele>
        <time>2026-05-25T10:00:29.000Z</time>
      </trkpt>
      <trkpt lat="42.94196" lon="1.23797">
        <ele>1289</ele>
        <time>2026-05-25T10:00:30.000Z</time>
      </trkpt>
      <trkpt lat="42.94197" lon="1.23799">
        <ele>1289</ele>
        <time>2026-05-25T10:00:31.000Z</time>
      </trkpt>
      <trkpt lat="42.94199" lon="1.23802">
        <ele>1289</ele>
        <time>2026-05-25T10:00:32.000Z</time>
      </trkpt>
      <trkpt lat="42.942" lon="1.23804">
        <ele>1290</ele>
        <time>2026-05-25T10:00:33.000Z</time>
      </trkpt>
      <trkpt lat="42.94201" lon="1.23806">
        <ele>1290</ele>
        <time>2026-05-25T10:00:34.000Z</time>
      </trkpt>
      <trkpt lat="42.94202" lon="1.23809">
        <ele>1291</ele>
        <time>2026-05-25T10:00:35.000Z</time>
      </trkpt>
      <trkpt lat="42.94204" lon="1.23811">
        <ele>1291</ele>
        <time>2026-05-25T10:00:36.000Z</time>
      </trkpt>
      <trkpt lat="42.94205" lon="1.23814">
        <ele>1292</ele>
        <time>2026-05-25T10:00:37.000Z</time>
      </trkpt>
      <trkpt lat="42.94206" lon="1.23816">
        <ele>1292</ele>
        <time>2026-05-25T10:00:38.000Z</time>
      </trkpt>
      <trkpt lat="42.94207" lon="1.23818">
        <ele>1292</ele>
        <time>2026-05-25T10:00:39.000Z</time>
      </trkpt>
      <trkpt lat="42.94209" lon="1.2382">
        <ele>1293</ele>
        <time>2026-05-25T10:00:40.000Z</time>
      </trkpt>
      <trkpt lat="42.94209" lon="1.23822">
        <ele>1294</ele>
        <time>2026-05-25T10:00:41.000Z</time>
      </trkpt>
      <trkpt lat="42.94211" lon="1.23824">
        <ele>1294</ele>
        <time>2026-05-25T10:00:42.000Z</time>
      </trkpt>
      <trkpt lat="42.94211" lon="1.23826">
        <ele>1294</ele>
        <time>2026-05-25T10:00:43.000Z</time>
      </trkpt>
      <trkpt lat="42.94212" lon="1.23828">
        <ele>1296</ele>
        <time>2026-05-25T10:00:44.000Z</time>
      </trkpt>
      <trkpt lat="42.94214" lon="1.2383">
        <ele>1297</ele>
        <time>2026-05-25T10:00:45.000Z</time>
      </trkpt>
      <trkpt lat="42.94215" lon="1.23833">
        <ele>1297</ele>
        <time>2026-05-25T10:00:46.000Z</time>
      </trkpt>
      <trkpt lat="42.94216" lon="1.23835">
        <ele>1298</ele>
        <time>2026-05-25T10:00:47.000Z</time>
      </trkpt>
      <trkpt lat="42.94218" lon="1.23839">
        <ele>1298</ele>
        <time>2026-05-25T10:00:48.000Z</time>
      </trkpt>
      <trkpt lat="42.94219" lon="1.23842">
        <ele>1298</ele>
        <time>2026-05-25T10:00:49.000Z</time>
      </trkpt>
      <trkpt lat="42.94221" lon="1.23846">
        <ele>1298</ele>
        <time>2026-05-25T10:00:50.000Z</time>
      </trkpt>
      <trkpt lat="42.94222" lon="1.23849">
        <ele>1298</ele>
        <time>2026-05-25T10:00:51.000Z</time>
      </trkpt>
      <trkpt lat="42.94223" lon="1.23852">
        <ele>1298</ele>
        <time>2026-05-25T10:00:52.000Z</time>
      </trkpt>
      <trkpt lat="42.94224" lon="1.23854">
        <ele>1298</ele>
        <time>2026-05-25T10:00:53.000Z</time>
      </trkpt>
      <trkpt lat="42.94225" lon="1.23857">
        <ele>1298</ele>
        <time>2026-05-25T10:00:54.000Z</time>
      </trkpt>
      <trkpt lat="42.94226" lon="1.2386">
        <ele>1298</ele>
        <time>2026-05-25T10:00:55.000Z</time>
      </trkpt>
      <trkpt lat="42.94227" lon="1.23863">
        <ele>1298</ele>
        <time>2026-05-25T10:00:56.000Z</time>
      </trkpt>
      <trkpt lat="42.94229" lon="1.23866">
        <ele>1299</ele>
        <time>2026-05-25T10:00:57.000Z</time>
      </trkpt>
      <trkpt lat="42.9423" lon="1.23869">
        <ele>1298</ele>
        <time>2026-05-25T10:00:58.000Z</time>
      </trkpt>
      <trkpt lat="42.94231" lon="1.23872">
        <ele>1298</ele>
        <time>2026-05-25T10:00:59.000Z</time>
      </trkpt>
      <trkpt lat="42.94232" lon="1.23875">
        <ele>1298</ele>
        <time>2026-05-25T10:01:00.000Z</time>
      </trkpt>
      <trkpt lat="42.94233" lon="1.23878">
        <ele>1298</ele>
        <time>2026-05-25T10:01:01.000Z</time>
      </trkpt>
      <trkpt lat="42.94234" lon="1.2388">
        <ele>1298</ele>
        <time>2026-05-25T10:01:02.000Z</time>
      </trkpt>
      <trkpt lat="42.94235" lon="1.23883">
        <ele>1298</ele>
        <time>2026-05-25T10:01:03.000Z</time>
      </trkpt>
      <trkpt lat="42.94236" lon="1.23886">
        <ele>1298</ele>
        <time>2026-05-25T10:01:04.000Z</time>
      </trkpt>
      <trkpt lat="42.94236" lon="1.23889">
        <ele>1298</ele>
        <time>2026-05-25T10:01:05.000Z</time>
      </trkpt>
      <trkpt lat="42.94237" lon="1.23892">
        <ele>1299</ele>
        <time>2026-05-25T10:01:06.000Z</time>
      </trkpt>
      <trkpt lat="42.94237" lon="1.23895">
        <ele>1299</ele>
        <time>2026-05-25T10:01:07.000Z</time>
      </trkpt>
      <trkpt lat="42.94238" lon="1.23898">
        <ele>1299</ele>
        <time>2026-05-25T10:01:08.000Z</time>
      </trkpt>
      <trkpt lat="42.94239" lon="1.23901">
        <ele>1299</ele>
        <time>2026-05-25T10:01:09.000Z</time>
      </trkpt>
      <trkpt lat="42.94239" lon="1.23905">
        <ele>1299</ele>
        <time>2026-05-25T10:01:10.000Z</time>
      </trkpt>
      <trkpt lat="42.9424" lon="1.23908">
        <ele>1298</ele>
        <time>2026-05-25T10:01:11.000Z</time>
      </trkpt>
      <trkpt lat="42.94241" lon="1.2391">
        <ele>1299</ele>
        <time>2026-05-25T10:01:12.000Z</time>
      </trkpt>
      <trkpt lat="42.94241" lon="1.23913">
        <ele>1300</ele>
        <time>2026-05-25T10:01:13.000Z</time>
      </trkpt>
      <trkpt lat="42.94242" lon="1.23917">
        <ele>1300</ele>
        <time>2026-05-25T10:01:14.000Z</time>
      </trkpt>
      <trkpt lat="42.94242" lon="1.2392">
        <ele>1300</ele>
        <time>2026-05-25T10:01:15.000Z</time>
      </trkpt>
      <trkpt lat="42.94243" lon="1.23924">
        <ele>1300</ele>
        <time>2026-05-25T10:01:16.000Z</time>
      </trkpt>
      <trkpt lat="42.94243" lon="1.23927">
        <ele>1300</ele>
        <time>2026-05-25T10:01:17.000Z</time>
      </trkpt>
      <trkpt lat="42.94244" lon="1.23932">
        <ele>1300</ele>
        <time>2026-05-25T10:01:18.000Z</time>
      </trkpt>
      <trkpt lat="42.94244" lon="1.23935">
        <ele>1300</ele>
        <time>2026-05-25T10:01:19.000Z</time>
      </trkpt>
      <trkpt lat="42.94244" lon="1.23939">
        <ele>1300</ele>
        <time>2026-05-25T10:01:20.000Z</time>
      </trkpt>
      <trkpt lat="42.94244" lon="1.23945">
        <ele>1300</ele>
        <time>2026-05-25T10:01:21.000Z</time>
      </trkpt>
      <trkpt lat="42.94245" lon="1.2395">
        <ele>1299</ele>
        <time>2026-05-25T10:01:22.000Z</time>
      </trkpt>
      <trkpt lat="42.94246" lon="1.23957">
        <ele>1299</ele>
        <time>2026-05-25T10:01:23.000Z</time>
      </trkpt>
      <trkpt lat="42.94245" lon="1.23964">
        <ele>1299</ele>
        <time>2026-05-25T10:01:24.000Z</time>
      </trkpt>
      <trkpt lat="42.94244" lon="1.23969">
        <ele>1299</ele>
        <time>2026-05-25T10:01:25.000Z</time>
      </trkpt>
      <trkpt lat="42.94243" lon="1.23975">
        <ele>1299</ele>
        <time>2026-05-25T10:01:26.000Z</time>
      </trkpt>
      <trkpt lat="42.94241" lon="1.23979">
        <ele>1299</ele>
        <time>2026-05-25T10:01:27.000Z</time>
      </trkpt>
      <trkpt lat="42.94239" lon="1.23984">
        <ele>1299</ele>
        <time>2026-05-25T10:01:28.000Z</time>
      </trkpt>
      <trkpt lat="42.94236" lon="1.23988">
        <ele>1299</ele>
        <time>2026-05-25T10:01:29.000Z</time>
      </trkpt>
      <trkpt lat="42.94234" lon="1.23993">
        <ele>1300</ele>
        <time>2026-05-25T10:01:30.000Z</time>
      </trkpt>
      <trkpt lat="42.94232" lon="1.23999">
        <ele>1300</ele>
        <time>2026-05-25T10:01:31.000Z</time>
      </trkpt>
      <trkpt lat="42.9423" lon="1.24002">
        <ele>1301</ele>
        <time>2026-05-25T10:01:32.000Z</time>
      </trkpt>
      <trkpt lat="42.94228" lon="1.24008">
        <ele>1301</ele>
        <time>2026-05-25T10:01:33.000Z</time>
      </trkpt>
      <trkpt lat="42.94226" lon="1.24014">
        <ele>1301</ele>
        <time>2026-05-25T10:01:34.000Z</time>
      </trkpt>
      <trkpt lat="42.94223" lon="1.2402">
        <ele>1301</ele>
        <time>2026-05-25T10:01:35.000Z</time>
      </trkpt>
      <trkpt lat="42.9422" lon="1.24026">
        <ele>1301</ele>
        <time>2026-05-25T10:01:36.000Z</time>
      </trkpt>
      <trkpt lat="42.94216" lon="1.24031">
        <ele>1300</ele>
        <time>2026-05-25T10:01:37.000Z</time>
      </trkpt>
      <trkpt lat="42.94211" lon="1.24035">
        <ele>1300</ele>
        <time>2026-05-25T10:01:38.000Z</time>
      </trkpt>
      <trkpt lat="42.94205" lon="1.24039">
        <ele>1299</ele>
        <time>2026-05-25T10:01:39.000Z</time>
      </trkpt>
      <trkpt lat="42.94198" lon="1.24043">
        <ele>1297</ele>
        <time>2026-05-25T10:01:40.000Z</time>
      </trkpt>
      <trkpt lat="42.94193" lon="1.24047">
        <ele>1296</ele>
        <time>2026-05-25T10:01:41.000Z</time>
      </trkpt>
      <trkpt lat="42.94187" lon="1.24052">
        <ele>1296</ele>
        <time>2026-05-25T10:01:42.000Z</time>
      </trkpt>
      <trkpt lat="42.94182" lon="1.24056">
        <ele>1295</ele>
        <time>2026-05-25T10:01:43.000Z</time>
      </trkpt>
      <trkpt lat="42.94176" lon="1.2406">
        <ele>1295</ele>
        <time>2026-05-25T10:01:44.000Z</time>
      </trkpt>
      <trkpt lat="42.94171" lon="1.24065">
        <ele>1294</ele>
        <time>2026-05-25T10:01:45.000Z</time>
      </trkpt>
      <trkpt lat="42.94165" lon="1.2407">
        <ele>1294</ele>
        <time>2026-05-25T10:01:46.000Z</time>
      </trkpt>
      <trkpt lat="42.9416" lon="1.24075">
        <ele>1294</ele>
        <time>2026-05-25T10:01:47.000Z</time>
      </trkpt>
      <trkpt lat="42.94154" lon="1.24081">
        <ele>1294</ele>
        <time>2026-05-25T10:01:48.000Z</time>
      </trkpt>
      <trkpt lat="42.94149" lon="1.24085">
        <ele>1294</ele>
        <time>2026-05-25T10:01:49.000Z</time>
      </trkpt>
      <trkpt lat="42.94144" lon="1.24091">
        <ele>1293</ele>
        <time>2026-05-25T10:01:50.000Z</time>
      </trkpt>
      <trkpt lat="42.9414" lon="1.24095">
        <ele>1293</ele>
        <time>2026-05-25T10:01:51.000Z</time>
      </trkpt>
      <trkpt lat="42.94135" lon="1.241">
        <ele>1292</ele>
        <time>2026-05-25T10:01:52.000Z</time>
      </trkpt>
      <trkpt lat="42.94129" lon="1.24105">
        <ele>1291</ele>
        <time>2026-05-25T10:01:53.000Z</time>
      </trkpt>
      <trkpt lat="42.94124" lon="1.24111">
        <ele>1291</ele>
        <time>2026-05-25T10:01:54.000Z</time>
      </trkpt>
      <trkpt lat="42.94119" lon="1.24117">
        <ele>1290</ele>
        <time>2026-05-25T10:01:55.000Z</time>
      </trkpt>
      <trkpt lat="42.94115" lon="1.24124">
        <ele>1289</ele>
        <time>2026-05-25T10:01:56.000Z</time>
      </trkpt>
      <trkpt lat="42.94112" lon="1.24131">
        <ele>1288</ele>
        <time>2026-05-25T10:01:57.000Z</time>
      </trkpt>
      <trkpt lat="42.94109" lon="1.2414">
        <ele>1289</ele>
        <time>2026-05-25T10:01:58.000Z</time>
      </trkpt>
      <trkpt lat="42.94107" lon="1.24149">
        <ele>1289</ele>
        <time>2026-05-25T10:01:59.000Z</time>
      </trkpt>
      <trkpt lat="42.94105" lon="1.24156">
        <ele>1289</ele>
        <time>2026-05-25T10:02:00.000Z</time>
      </trkpt>
      <trkpt lat="42.94104" lon="1.24165">
        <ele>1289</ele>
        <time>2026-05-25T10:02:01.000Z</time>
      </trkpt>
      <trkpt lat="42.94103" lon="1.24172">
        <ele>1289</ele>
        <time>2026-05-25T10:02:02.000Z</time>
      </trkpt>
      <trkpt lat="42.94101" lon="1.24181">
        <ele>1289</ele>
        <time>2026-05-25T10:02:03.000Z</time>
      </trkpt>
      <trkpt lat="42.94099" lon="1.24188">
        <ele>1288</ele>
        <time>2026-05-25T10:02:04.000Z</time>
      </trkpt>
      <trkpt lat="42.94097" lon="1.24194">
        <ele>1288</ele>
        <time>2026-05-25T10:02:05.000Z</time>
      </trkpt>
      <trkpt lat="42.94095" lon="1.24201">
        <ele>1288</ele>
        <time>2026-05-25T10:02:06.000Z</time>
      </trkpt>
      <trkpt lat="42.94092" lon="1.2421">
        <ele>1287</ele>
        <time>2026-05-25T10:02:07.000Z</time>
      </trkpt>
      <trkpt lat="42.9409" lon="1.24217">
        <ele>1286</ele>
        <time>2026-05-25T10:02:08.000Z</time>
      </trkpt>
      <trkpt lat="42.94088" lon="1.24225">
        <ele>1287</ele>
        <time>2026-05-25T10:02:09.000Z</time>
      </trkpt>
      <trkpt lat="42.94087" lon="1.24234">
        <ele>1286</ele>
        <time>2026-05-25T10:02:10.000Z</time>
      </trkpt>
      <trkpt lat="42.94086" lon="1.24243">
        <ele>1285</ele>
        <time>2026-05-25T10:02:11.000Z</time>
      </trkpt>
      <trkpt lat="42.94086" lon="1.24253">
        <ele>1284</ele>
        <time>2026-05-25T10:02:12.000Z</time>
      </trkpt>
      <trkpt lat="42.94086" lon="1.24262">
        <ele>1284</ele>
        <time>2026-05-25T10:02:13.000Z</time>
      </trkpt>
      <trkpt lat="42.94085" lon="1.24272">
        <ele>1284</ele>
        <time>2026-05-25T10:02:14.000Z</time>
      </trkpt>
      <trkpt lat="42.94085" lon="1.2428">
        <ele>1283</ele>
        <time>2026-05-25T10:02:15.000Z</time>
      </trkpt>
      <trkpt lat="42.94085" lon="1.2429">
        <ele>1283</ele>
        <time>2026-05-25T10:02:16.000Z</time>
      </trkpt>
      <trkpt lat="42.94085" lon="1.24297">
        <ele>1283</ele>
        <time>2026-05-25T10:02:17.000Z</time>
      </trkpt>
      <trkpt lat="42.94083" lon="1.24307">
        <ele>1283</ele>
        <time>2026-05-25T10:02:18.000Z</time>
      </trkpt>
      <trkpt lat="42.9408" lon="1.24315">
        <ele>1281</ele>
        <time>2026-05-25T10:02:19.000Z</time>
      </trkpt>
      <trkpt lat="42.94077" lon="1.24323">
        <ele>1281</ele>
        <time>2026-05-25T10:02:20.000Z</time>
      </trkpt>
      <trkpt lat="42.94074" lon="1.24331">
        <ele>1281</ele>
        <time>2026-05-25T10:02:21.000Z</time>
      </trkpt>
      <trkpt lat="42.9407" lon="1.24338">
        <ele>1281</ele>
        <time>2026-05-25T10:02:22.000Z</time>
      </trkpt>
      <trkpt lat="42.94067" lon="1.24345">
        <ele>1280</ele>
        <time>2026-05-25T10:02:23.000Z</time>
      </trkpt>
      <trkpt lat="42.94063" lon="1.24352">
        <ele>1280</ele>
        <time>2026-05-25T10:02:24.000Z</time>
      </trkpt>
      <trkpt lat="42.94058" lon="1.24357">
        <ele>1279</ele>
        <time>2026-05-25T10:02:25.000Z</time>
      </trkpt>
      <trkpt lat="42.94054" lon="1.24363">
        <ele>1278</ele>
        <time>2026-05-25T10:02:26.000Z</time>
      </trkpt>
      <trkpt lat="42.9405" lon="1.2437">
        <ele>1278</ele>
        <time>2026-05-25T10:02:27.000Z</time>
      </trkpt>
      <trkpt lat="42.94044" lon="1.24375">
        <ele>1277</ele>
        <time>2026-05-25T10:02:28.000Z</time>
      </trkpt>
      <trkpt lat="42.94038" lon="1.24378">
        <ele>1277</ele>
        <time>2026-05-25T10:02:29.000Z</time>
      </trkpt>
      <trkpt lat="42.94031" lon="1.24379">
        <ele>1275</ele>
        <time>2026-05-25T10:02:30.000Z</time>
      </trkpt>
      <trkpt lat="42.94026" lon="1.24378">
        <ele>1275</ele>
        <time>2026-05-25T10:02:31.000Z</time>
      </trkpt>
      <trkpt lat="42.94021" lon="1.24378">
        <ele>1275</ele>
        <time>2026-05-25T10:02:32.000Z</time>
      </trkpt>
      <trkpt lat="42.94017" lon="1.24379">
        <ele>1274</ele>
        <time>2026-05-25T10:02:33.000Z</time>
      </trkpt>
      <trkpt lat="42.94012" lon="1.24379">
        <ele>1273</ele>
        <time>2026-05-25T10:02:34.000Z</time>
      </trkpt>
      <trkpt lat="42.94008" lon="1.24381">
        <ele>1273</ele>
        <time>2026-05-25T10:02:35.000Z</time>
      </trkpt>
      <trkpt lat="42.94003" lon="1.24383">
        <ele>1272</ele>
        <time>2026-05-25T10:02:36.000Z</time>
      </trkpt>
      <trkpt lat="42.93999" lon="1.24382">
        <ele>1272</ele>
        <time>2026-05-25T10:02:37.000Z</time>
      </trkpt>
      <trkpt lat="42.93995" lon="1.24381">
        <ele>1272</ele>
        <time>2026-05-25T10:02:38.000Z</time>
      </trkpt>
      <trkpt lat="42.93988" lon="1.2438">
        <ele>1271</ele>
        <time>2026-05-25T10:02:39.000Z</time>
      </trkpt>
      <trkpt lat="42.93983" lon="1.2438">
        <ele>1271</ele>
        <time>2026-05-25T10:02:40.000Z</time>
      </trkpt>
      <trkpt lat="42.93977" lon="1.2438">
        <ele>1271</ele>
        <time>2026-05-25T10:02:41.000Z</time>
      </trkpt>
      <trkpt lat="42.93972" lon="1.24381">
        <ele>1271</ele>
        <time>2026-05-25T10:02:42.000Z</time>
      </trkpt>
      <trkpt lat="42.93967" lon="1.24383">
        <ele>1271</ele>
        <time>2026-05-25T10:02:43.000Z</time>
      </trkpt>
      <trkpt lat="42.93962" lon="1.24386">
        <ele>1271</ele>
        <time>2026-05-25T10:02:44.000Z</time>
      </trkpt>
      <trkpt lat="42.93956" lon="1.2439">
        <ele>1271</ele>
        <time>2026-05-25T10:02:45.000Z</time>
      </trkpt>
      <trkpt lat="42.9395" lon="1.24395">
        <ele>1271</ele>
        <time>2026-05-25T10:02:46.000Z</time>
      </trkpt>
      <trkpt lat="42.93944" lon="1.24399">
        <ele>1271</ele>
        <time>2026-05-25T10:02:47.000Z</time>
      </trkpt>
      <trkpt lat="42.93937" lon="1.24403">
        <ele>1271</ele>
        <time>2026-05-25T10:02:48.000Z</time>
      </trkpt>
      <trkpt lat="42.93931" lon="1.24407">
        <ele>1271</ele>
        <time>2026-05-25T10:02:49.000Z</time>
      </trkpt>
      <trkpt lat="42.93924" lon="1.24409">
        <ele>1271</ele>
        <time>2026-05-25T10:02:50.000Z</time>
      </trkpt>
      <trkpt lat="42.93917" lon="1.24408">
        <ele>1270</ele>
        <time>2026-05-25T10:02:51.000Z</time>
      </trkpt>
      <trkpt lat="42.9391" lon="1.24407">
        <ele>1270</ele>
        <time>2026-05-25T10:02:52.000Z</time>
      </trkpt>
      <trkpt lat="42.93904" lon="1.24404">
        <ele>1269</ele>
        <time>2026-05-25T10:02:53.000Z</time>
      </trkpt>
      <trkpt lat="42.93898" lon="1.24403">
        <ele>1270</ele>
        <time>2026-05-25T10:02:54.000Z</time>
      </trkpt>
      <trkpt lat="42.93892" lon="1.24403">
        <ele>1270</ele>
        <time>2026-05-25T10:02:55.000Z</time>
      </trkpt>
      <trkpt lat="42.93887" lon="1.24404">
        <ele>1270</ele>
        <time>2026-05-25T10:02:56.000Z</time>
      </trkpt>
      <trkpt lat="42.93883" lon="1.24408">
        <ele>1270</ele>
        <time>2026-05-25T10:02:57.000Z</time>
      </trkpt>
      <trkpt lat="42.93878" lon="1.24412">
        <ele>1270</ele>
        <time>2026-05-25T10:02:58.000Z</time>
      </trkpt>
      <trkpt lat="42.93875" lon="1.24416">
        <ele>1269</ele>
        <time>2026-05-25T10:02:59.000Z</time>
      </trkpt>
      <trkpt lat="42.93871" lon="1.24423">
        <ele>1269</ele>
        <time>2026-05-25T10:03:00.000Z</time>
      </trkpt>
      <trkpt lat="42.93866" lon="1.24429">
        <ele>1268</ele>
        <time>2026-05-25T10:03:01.000Z</time>
      </trkpt>
      <trkpt lat="42.93863" lon="1.24435">
        <ele>1269</ele>
        <time>2026-05-25T10:03:02.000Z</time>
      </trkpt>
      <trkpt lat="42.9386" lon="1.24441">
        <ele>1268</ele>
        <time>2026-05-25T10:03:03.000Z</time>
      </trkpt>
      <trkpt lat="42.93857" lon="1.24447">
        <ele>1268</ele>
        <time>2026-05-25T10:03:04.000Z</time>
      </trkpt>
      <trkpt lat="42.93852" lon="1.24453">
        <ele>1267</ele>
        <time>2026-05-25T10:03:05.000Z</time>
      </trkpt>
      <trkpt lat="42.93849" lon="1.24459">
        <ele>1266</ele>
        <time>2026-05-25T10:03:06.000Z</time>
      </trkpt>
      <trkpt lat="42.93846" lon="1.24465">
        <ele>1265</ele>
        <time>2026-05-25T10:03:07.000Z</time>
      </trkpt>
      <trkpt lat="42.93843" lon="1.24472">
        <ele>1264</ele>
        <time>2026-05-25T10:03:08.000Z</time>
      </trkpt>
      <trkpt lat="42.9384" lon="1.24478">
        <ele>1264</ele>
        <time>2026-05-25T10:03:09.000Z</time>
      </trkpt>
      <trkpt lat="42.93838" lon="1.24484">
        <ele>1264</ele>
        <time>2026-05-25T10:03:10.000Z</time>
      </trkpt>
      <trkpt lat="42.93835" lon="1.2449">
        <ele>1263</ele>
        <time>2026-05-25T10:03:11.000Z</time>
      </trkpt>
      <trkpt lat="42.93831" lon="1.24496">
        <ele>1262</ele>
        <time>2026-05-25T10:03:12.000Z</time>
      </trkpt>
      <trkpt lat="42.93829" lon="1.24503">
        <ele>1261</ele>
        <time>2026-05-25T10:03:13.000Z</time>
      </trkpt>
      <trkpt lat="42.93829" lon="1.24511">
        <ele>1261</ele>
        <time>2026-05-25T10:03:14.000Z</time>
      </trkpt>
      <trkpt lat="42.93828" lon="1.24519">
        <ele>1261</ele>
        <time>2026-05-25T10:03:15.000Z</time>
      </trkpt>
      <trkpt lat="42.93827" lon="1.24528">
        <ele>1260</ele>
        <time>2026-05-25T10:03:16.000Z</time>
      </trkpt>
      <trkpt lat="42.93826" lon="1.24537">
        <ele>1259</ele>
        <time>2026-05-25T10:03:17.000Z</time>
      </trkpt>
      <trkpt lat="42.93824" lon="1.24547">
        <ele>1258</ele>
        <time>2026-05-25T10:03:18.000Z</time>
      </trkpt>
      <trkpt lat="42.93823" lon="1.24557">
        <ele>1257</ele>
        <time>2026-05-25T10:03:19.000Z</time>
      </trkpt>
      <trkpt lat="42.93822" lon="1.24567">
        <ele>1257</ele>
        <time>2026-05-25T10:03:20.000Z</time>
      </trkpt>
      <trkpt lat="42.93822" lon="1.24576">
        <ele>1257</ele>
        <time>2026-05-25T10:03:21.000Z</time>
      </trkpt>
      <trkpt lat="42.93822" lon="1.24585">
        <ele>1257</ele>
        <time>2026-05-25T10:03:22.000Z</time>
      </trkpt>
      <trkpt lat="42.93824" lon="1.24594">
        <ele>1256</ele>
        <time>2026-05-25T10:03:23.000Z</time>
      </trkpt>
      <trkpt lat="42.93824" lon="1.24604">
        <ele>1256</ele>
        <time>2026-05-25T10:03:24.000Z</time>
      </trkpt>
      <trkpt lat="42.93824" lon="1.24613">
        <ele>1256</ele>
        <time>2026-05-25T10:03:25.000Z</time>
      </trkpt>
      <trkpt lat="42.93824" lon="1.24623">
        <ele>1254</ele>
        <time>2026-05-25T10:03:26.000Z</time>
      </trkpt>
      <trkpt lat="42.93823" lon="1.24634">
        <ele>1254</ele>
        <time>2026-05-25T10:03:27.000Z</time>
      </trkpt>
      <trkpt lat="42.93822" lon="1.24645">
        <ele>1253</ele>
        <time>2026-05-25T10:03:28.000Z</time>
      </trkpt>
      <trkpt lat="42.93821" lon="1.24656">
        <ele>1253</ele>
        <time>2026-05-25T10:03:29.000Z</time>
      </trkpt>
      <trkpt lat="42.9382" lon="1.24666">
        <ele>1252</ele>
        <time>2026-05-25T10:03:30.000Z</time>
      </trkpt>
      <trkpt lat="42.9382" lon="1.24676">
        <ele>1252</ele>
        <time>2026-05-25T10:03:31.000Z</time>
      </trkpt>
      <trkpt lat="42.9382" lon="1.24686">
        <ele>1252</ele>
        <time>2026-05-25T10:03:32.000Z</time>
      </trkpt>
      <trkpt lat="42.93818" lon="1.24694">
        <ele>1252</ele>
        <time>2026-05-25T10:03:33.000Z</time>
      </trkpt>
      <trkpt lat="42.93815" lon="1.24701">
        <ele>1251</ele>
        <time>2026-05-25T10:03:34.000Z</time>
      </trkpt>
      <trkpt lat="42.93811" lon="1.24709">
        <ele>1251</ele>
        <time>2026-05-25T10:03:35.000Z</time>
      </trkpt>
      <trkpt lat="42.93805" lon="1.24716">
        <ele>1250</ele>
        <time>2026-05-25T10:03:36.000Z</time>
      </trkpt>
      <trkpt lat="42.93799" lon="1.24721">
        <ele>1250</ele>
        <time>2026-05-25T10:03:37.000Z</time>
      </trkpt>
      <trkpt lat="42.93793" lon="1.24728">
        <ele>1249</ele>
        <time>2026-05-25T10:03:38.000Z</time>
      </trkpt>
      <trkpt lat="42.93788" lon="1.24735">
        <ele>1249</ele>
        <time>2026-05-25T10:03:39.000Z</time>
      </trkpt>
      <trkpt lat="42.93783" lon="1.24744">
        <ele>1249</ele>
        <time>2026-05-25T10:03:40.000Z</time>
      </trkpt>
      <trkpt lat="42.93779" lon="1.24753">
        <ele>1248</ele>
        <time>2026-05-25T10:03:41.000Z</time>
      </trkpt>
      <trkpt lat="42.93775" lon="1.24762">
        <ele>1247</ele>
        <time>2026-05-25T10:03:42.000Z</time>
      </trkpt>
      <trkpt lat="42.93771" lon="1.2477">
        <ele>1247</ele>
        <time>2026-05-25T10:03:43.000Z</time>
      </trkpt>
      <trkpt lat="42.93766" lon="1.24778">
        <ele>1247</ele>
        <time>2026-05-25T10:03:44.000Z</time>
      </trkpt>
      <trkpt lat="42.93763" lon="1.24784">
        <ele>1247</ele>
        <time>2026-05-25T10:03:45.000Z</time>
      </trkpt>
      <trkpt lat="42.93759" lon="1.2479">
        <ele>1247</ele>
        <time>2026-05-25T10:03:46.000Z</time>
      </trkpt>
      <trkpt lat="42.93754" lon="1.24797">
        <ele>1246</ele>
        <time>2026-05-25T10:03:47.000Z</time>
      </trkpt>
      <trkpt lat="42.93749" lon="1.24802">
        <ele>1246</ele>
        <time>2026-05-25T10:03:48.000Z</time>
      </trkpt>
      <trkpt lat="42.93746" lon="1.24808">
        <ele>1246</ele>
        <time>2026-05-25T10:03:49.000Z</time>
      </trkpt>
      <trkpt lat="42.93741" lon="1.24814">
        <ele>1246</ele>
        <time>2026-05-25T10:03:50.000Z</time>
      </trkpt>
      <trkpt lat="42.93736" lon="1.24819">
        <ele>1246</ele>
        <time>2026-05-25T10:03:51.000Z</time>
      </trkpt>
      <trkpt lat="42.93731" lon="1.24825">
        <ele>1246</ele>
        <time>2026-05-25T10:03:52.000Z</time>
      </trkpt>
      <trkpt lat="42.93725" lon="1.24832">
        <ele>1245</ele>
        <time>2026-05-25T10:03:53.000Z</time>
      </trkpt>
      <trkpt lat="42.93719" lon="1.24838">
        <ele>1244</ele>
        <time>2026-05-25T10:03:54.000Z</time>
      </trkpt>
      <trkpt lat="42.93713" lon="1.24844">
        <ele>1244</ele>
        <time>2026-05-25T10:03:55.000Z</time>
      </trkpt>
      <trkpt lat="42.93708" lon="1.24848">
        <ele>1245</ele>
        <time>2026-05-25T10:03:56.000Z</time>
      </trkpt>
      <trkpt lat="42.93704" lon="1.24852">
        <ele>1244</ele>
        <time>2026-05-25T10:03:57.000Z</time>
      </trkpt>
      <trkpt lat="42.93701" lon="1.24857">
        <ele>1244</ele>
        <time>2026-05-25T10:03:58.000Z</time>
      </trkpt>
      <trkpt lat="42.93697" lon="1.24861">
        <ele>1243</ele>
        <time>2026-05-25T10:03:59.000Z</time>
      </trkpt>
      <trkpt lat="42.93694" lon="1.24864">
        <ele>1243</ele>
        <time>2026-05-25T10:04:00.000Z</time>
      </trkpt>
      <trkpt lat="42.93692" lon="1.24868">
        <ele>1243</ele>
        <time>2026-05-25T10:04:01.000Z</time>
      </trkpt>
      <trkpt lat="42.9369" lon="1.24872">
        <ele>1243</ele>
        <time>2026-05-25T10:04:02.000Z</time>
      </trkpt>
      <trkpt lat="42.93688" lon="1.24875">
        <ele>1244</ele>
        <time>2026-05-25T10:04:03.000Z</time>
      </trkpt>
      <trkpt lat="42.93686" lon="1.24879">
        <ele>1244</ele>
        <time>2026-05-25T10:04:04.000Z</time>
      </trkpt>
      <trkpt lat="42.93685" lon="1.24882">
        <ele>1244</ele>
        <time>2026-05-25T10:04:05.000Z</time>
      </trkpt>
      <trkpt lat="42.93683" lon="1.24885">
        <ele>1245</ele>
        <time>2026-05-25T10:04:06.000Z</time>
      </trkpt>
      <trkpt lat="42.93681" lon="1.24889">
        <ele>1245</ele>
        <time>2026-05-25T10:04:07.000Z</time>
      </trkpt>
      <trkpt lat="42.93679" lon="1.24891">
        <ele>1245</ele>
        <time>2026-05-25T10:04:08.000Z</time>
      </trkpt>
      <trkpt lat="42.93677" lon="1.24894">
        <ele>1245</ele>
        <time>2026-05-25T10:04:09.000Z</time>
      </trkpt>
      <trkpt lat="42.93675" lon="1.24897">
        <ele>1245</ele>
        <time>2026-05-25T10:04:10.000Z</time>
      </trkpt>
      <trkpt lat="42.93674" lon="1.24901">
        <ele>1245</ele>
        <time>2026-05-25T10:04:11.000Z</time>
      </trkpt>
      <trkpt lat="42.93672" lon="1.24905">
        <ele>1245</ele>
        <time>2026-05-25T10:04:12.000Z</time>
      </trkpt>
      <trkpt lat="42.93671" lon="1.24908">
        <ele>1245</ele>
        <time>2026-05-25T10:04:13.000Z</time>
      </trkpt>
      <trkpt lat="42.93669" lon="1.24912">
        <ele>1246</ele>
        <time>2026-05-25T10:04:14.000Z</time>
      </trkpt>
      <trkpt lat="42.93668" lon="1.24915">
        <ele>1246</ele>
        <time>2026-05-25T10:04:15.000Z</time>
      </trkpt>
      <trkpt lat="42.93667" lon="1.24919">
        <ele>1247</ele>
        <time>2026-05-25T10:04:16.000Z</time>
      </trkpt>
      <trkpt lat="42.93666" lon="1.24923">
        <ele>1248</ele>
        <time>2026-05-25T10:04:17.000Z</time>
      </trkpt>
      <trkpt lat="42.93665" lon="1.24927">
        <ele>1249</ele>
        <time>2026-05-25T10:04:18.000Z</time>
      </trkpt>
      <trkpt lat="42.93663" lon="1.2493">
        <ele>1250</ele>
        <time>2026-05-25T10:04:19.000Z</time>
      </trkpt>
      <trkpt lat="42.93661" lon="1.24934">
        <ele>1250</ele>
        <time>2026-05-25T10:04:20.000Z</time>
      </trkpt>
      <trkpt lat="42.93659" lon="1.24938">
        <ele>1250</ele>
        <time>2026-05-25T10:04:21.000Z</time>
      </trkpt>
      <trkpt lat="42.93658" lon="1.24942">
        <ele>1251</ele>
        <time>2026-05-25T10:04:22.000Z</time>
      </trkpt>
      <trkpt lat="42.93657" lon="1.24945">
        <ele>1251</ele>
        <time>2026-05-25T10:04:23.000Z</time>
      </trkpt>
      <trkpt lat="42.93656" lon="1.24949">
        <ele>1251</ele>
        <time>2026-05-25T10:04:24.000Z</time>
      </trkpt>
      <trkpt lat="42.93654" lon="1.24952">
        <ele>1251</ele>
        <time>2026-05-25T10:04:25.000Z</time>
      </trkpt>
      <trkpt lat="42.93653" lon="1.24955">
        <ele>1251</ele>
        <time>2026-05-25T10:04:26.000Z</time>
      </trkpt>
      <trkpt lat="42.93652" lon="1.24959">
        <ele>1252</ele>
        <time>2026-05-25T10:04:27.000Z</time>
      </trkpt>
      <trkpt lat="42.9365" lon="1.24962">
        <ele>1251</ele>
        <time>2026-05-25T10:04:28.000Z</time>
      </trkpt>
      <trkpt lat="42.93649" lon="1.24966">
        <ele>1251</ele>
        <time>2026-05-25T10:04:29.000Z</time>
      </trkpt>
      <trkpt lat="42.93647" lon="1.24969">
        <ele>1250</ele>
        <time>2026-05-25T10:04:30.000Z</time>
      </trkpt>
      <trkpt lat="42.93646" lon="1.24972">
        <ele>1251</ele>
        <time>2026-05-25T10:04:31.000Z</time>
      </trkpt>
      <trkpt lat="42.93644" lon="1.24975">
        <ele>1251</ele>
        <time>2026-05-25T10:04:32.000Z</time>
      </trkpt>
      <trkpt lat="42.93642" lon="1.24978">
        <ele>1252</ele>
        <time>2026-05-25T10:04:33.000Z</time>
      </trkpt>
      <trkpt lat="42.9364" lon="1.24982">
        <ele>1251</ele>
        <time>2026-05-25T10:04:34.000Z</time>
      </trkpt>
      <trkpt lat="42.93639" lon="1.24986">
        <ele>1251</ele>
        <time>2026-05-25T10:04:35.000Z</time>
      </trkpt>
      <trkpt lat="42.93637" lon="1.24989">
        <ele>1251</ele>
        <time>2026-05-25T10:04:36.000Z</time>
      </trkpt>
      <trkpt lat="42.93636" lon="1.24993">
        <ele>1252</ele>
        <time>2026-05-25T10:04:37.000Z</time>
      </trkpt>
      <trkpt lat="42.93635" lon="1.24996">
        <ele>1252</ele>
        <time>2026-05-25T10:04:38.000Z</time>
      </trkpt>
      <trkpt lat="42.93633" lon="1.25">
        <ele>1251</ele>
        <time>2026-05-25T10:04:39.000Z</time>
      </trkpt>
      <trkpt lat="42.93632" lon="1.25005">
        <ele>1251</ele>
        <time>2026-05-25T10:04:40.000Z</time>
      </trkpt>
      <trkpt lat="42.9363" lon="1.25009">
        <ele>1251</ele>
        <time>2026-05-25T10:04:41.000Z</time>
      </trkpt>
      <trkpt lat="42.93628" lon="1.25012">
        <ele>1251</ele>
        <time>2026-05-25T10:04:42.000Z</time>
      </trkpt>
      <trkpt lat="42.93627" lon="1.25015">
        <ele>1251</ele>
        <time>2026-05-25T10:04:43.000Z</time>
      </trkpt>
      <trkpt lat="42.93626" lon="1.25018">
        <ele>1252</ele>
        <time>2026-05-25T10:04:44.000Z</time>
      </trkpt>
      <trkpt lat="42.93625" lon="1.25021">
        <ele>1253</ele>
        <time>2026-05-25T10:04:45.000Z</time>
      </trkpt>
      <trkpt lat="42.93624" lon="1.25023">
        <ele>1254</ele>
        <time>2026-05-25T10:04:46.000Z</time>
      </trkpt>
      <trkpt lat="42.93623" lon="1.25026">
        <ele>1255</ele>
        <time>2026-05-25T10:04:47.000Z</time>
      </trkpt>
      <trkpt lat="42.93621" lon="1.25028">
        <ele>1255</ele>
        <time>2026-05-25T10:04:48.000Z</time>
      </trkpt>
      <trkpt lat="42.9362" lon="1.25031">
        <ele>1256</ele>
        <time>2026-05-25T10:04:49.000Z</time>
      </trkpt>
      <trkpt lat="42.93618" lon="1.25033">
        <ele>1257</ele>
        <time>2026-05-25T10:04:50.000Z</time>
      </trkpt>
      <trkpt lat="42.93617" lon="1.25036">
        <ele>1257</ele>
        <time>2026-05-25T10:04:51.000Z</time>
      </trkpt>
      <trkpt lat="42.93615" lon="1.25039">
        <ele>1257</ele>
        <time>2026-05-25T10:04:52.000Z</time>
      </trkpt>
      <trkpt lat="42.93613" lon="1.25042">
        <ele>1257</ele>
        <time>2026-05-25T10:04:53.000Z</time>
      </trkpt>
      <trkpt lat="42.93612" lon="1.25045">
        <ele>1258</ele>
        <time>2026-05-25T10:04:54.000Z</time>
      </trkpt>
      <trkpt lat="42.93611" lon="1.25048">
        <ele>1258</ele>
        <time>2026-05-25T10:04:55.000Z</time>
      </trkpt>
      <trkpt lat="42.9361" lon="1.25051">
        <ele>1259</ele>
        <time>2026-05-25T10:04:56.000Z</time>
      </trkpt>
      <trkpt lat="42.9361" lon="1.25055">
        <ele>1259</ele>
        <time>2026-05-25T10:04:57.000Z</time>
      </trkpt>
      <trkpt lat="42.93609" lon="1.25057">
        <ele>1260</ele>
        <time>2026-05-25T10:04:58.000Z</time>
      </trkpt>
      <trkpt lat="42.93609" lon="1.2506">
        <ele>1261</ele>
        <time>2026-05-25T10:04:59.000Z</time>
      </trkpt>
      <trkpt lat="42.93609" lon="1.25063">
        <ele>1262</ele>
        <time>2026-05-25T10:05:00.000Z</time>
      </trkpt>
      <trkpt lat="42.93609" lon="1.25066">
        <ele>1263</ele>
        <time>2026-05-25T10:05:01.000Z</time>
      </trkpt>
      <trkpt lat="42.93608" lon="1.2507">
        <ele>1263</ele>
        <time>2026-05-25T10:05:02.000Z</time>
      </trkpt>
      <trkpt lat="42.93607" lon="1.25072">
        <ele>1264</ele>
        <time>2026-05-25T10:05:03.000Z</time>
      </trkpt>
      <trkpt lat="42.93606" lon="1.25074">
        <ele>1264</ele>
        <time>2026-05-25T10:05:04.000Z</time>
      </trkpt>
      <trkpt lat="42.93605" lon="1.25077">
        <ele>1264</ele>
        <time>2026-05-25T10:05:05.000Z</time>
      </trkpt>
      <trkpt lat="42.93605" lon="1.25081">
        <ele>1263</ele>
        <time>2026-05-25T10:05:06.000Z</time>
      </trkpt>
      <trkpt lat="42.93603" lon="1.25084">
        <ele>1263</ele>
        <time>2026-05-25T10:05:07.000Z</time>
      </trkpt>
      <trkpt lat="42.93602" lon="1.25088">
        <ele>1262</ele>
        <time>2026-05-25T10:05:08.000Z</time>
      </trkpt>
      <trkpt lat="42.93601" lon="1.25091">
        <ele>1262</ele>
        <time>2026-05-25T10:05:09.000Z</time>
      </trkpt>
      <trkpt lat="42.93601" lon="1.25094">
        <ele>1262</ele>
        <time>2026-05-25T10:05:10.000Z</time>
      </trkpt>
      <trkpt lat="42.93601" lon="1.25099">
        <ele>1263</ele>
        <time>2026-05-25T10:05:11.000Z</time>
      </trkpt>
      <trkpt lat="42.93601" lon="1.25101">
        <ele>1263</ele>
        <time>2026-05-25T10:05:12.000Z</time>
      </trkpt>
      <trkpt lat="42.93602" lon="1.25104">
        <ele>1264</ele>
        <time>2026-05-25T10:05:13.000Z</time>
      </trkpt>
      <trkpt lat="42.93602" lon="1.25106">
        <ele>1265</ele>
        <time>2026-05-25T10:05:14.000Z</time>
      </trkpt>
      <trkpt lat="42.93602" lon="1.2511">
        <ele>1266</ele>
        <time>2026-05-25T10:05:15.000Z</time>
      </trkpt>
      <trkpt lat="42.93602" lon="1.25113">
        <ele>1267</ele>
        <time>2026-05-25T10:05:16.000Z</time>
      </trkpt>
      <trkpt lat="42.93602" lon="1.25115">
        <ele>1268</ele>
        <time>2026-05-25T10:05:17.000Z</time>
      </trkpt>
      <trkpt lat="42.93601" lon="1.25118">
        <ele>1268</ele>
        <time>2026-05-25T10:05:18.000Z</time>
      </trkpt>
      <trkpt lat="42.93601" lon="1.25121">
        <ele>1269</ele>
        <time>2026-05-25T10:05:19.000Z</time>
      </trkpt>
      <trkpt lat="42.93601" lon="1.25123">
        <ele>1270</ele>
        <time>2026-05-25T10:05:20.000Z</time>
      </trkpt>
      <trkpt lat="42.93601" lon="1.25127">
        <ele>1270</ele>
        <time>2026-05-25T10:05:21.000Z</time>
      </trkpt>
      <trkpt lat="42.936" lon="1.25131">
        <ele>1270</ele>
        <time>2026-05-25T10:05:22.000Z</time>
      </trkpt>
      <trkpt lat="42.936" lon="1.25135">
        <ele>1270</ele>
        <time>2026-05-25T10:05:23.000Z</time>
      </trkpt>
      <trkpt lat="42.936" lon="1.25137">
        <ele>1270</ele>
        <time>2026-05-25T10:05:24.000Z</time>
      </trkpt>
      <trkpt lat="42.936" lon="1.2514">
        <ele>1270</ele>
        <time>2026-05-25T10:05:25.000Z</time>
      </trkpt>
      <trkpt lat="42.93599" lon="1.25143">
        <ele>1270</ele>
        <time>2026-05-25T10:05:26.000Z</time>
      </trkpt>
      <trkpt lat="42.93598" lon="1.25147">
        <ele>1270</ele>
        <time>2026-05-25T10:05:27.000Z</time>
      </trkpt>
      <trkpt lat="42.93598" lon="1.2515">
        <ele>1271</ele>
        <time>2026-05-25T10:05:28.000Z</time>
      </trkpt>
      <trkpt lat="42.93598" lon="1.25154">
        <ele>1272</ele>
        <time>2026-05-25T10:05:29.000Z</time>
      </trkpt>
      <trkpt lat="42.93598" lon="1.25158">
        <ele>1272</ele>
        <time>2026-05-25T10:05:30.000Z</time>
      </trkpt>
      <trkpt lat="42.93597" lon="1.25161">
        <ele>1273</ele>
        <time>2026-05-25T10:05:31.000Z</time>
      </trkpt>
      <trkpt lat="42.93596" lon="1.25164">
        <ele>1274</ele>
        <time>2026-05-25T10:05:32.000Z</time>
      </trkpt>
      <trkpt lat="42.93595" lon="1.25168">
        <ele>1274</ele>
        <time>2026-05-25T10:05:33.000Z</time>
      </trkpt>
      <trkpt lat="42.93595" lon="1.25172">
        <ele>1274</ele>
        <time>2026-05-25T10:05:34.000Z</time>
      </trkpt>
      <trkpt lat="42.93594" lon="1.25175">
        <ele>1273</ele>
        <time>2026-05-25T10:05:35.000Z</time>
      </trkpt>
      <trkpt lat="42.93595" lon="1.25178">
        <ele>1273</ele>
        <time>2026-05-25T10:05:36.000Z</time>
      </trkpt>
      <trkpt lat="42.93594" lon="1.2518">
        <ele>1274</ele>
        <time>2026-05-25T10:05:37.000Z</time>
      </trkpt>
      <trkpt lat="42.93594" lon="1.25183">
        <ele>1274</ele>
        <time>2026-05-25T10:05:38.000Z</time>
      </trkpt>
      <trkpt lat="42.93593" lon="1.25186">
        <ele>1274</ele>
        <time>2026-05-25T10:05:39.000Z</time>
      </trkpt>
      <trkpt lat="42.93591" lon="1.2519">
        <ele>1274</ele>
        <time>2026-05-25T10:05:40.000Z</time>
      </trkpt>
      <trkpt lat="42.9359" lon="1.25192">
        <ele>1274</ele>
        <time>2026-05-25T10:05:41.000Z</time>
      </trkpt>
      <trkpt lat="42.93589" lon="1.25196">
        <ele>1275</ele>
        <time>2026-05-25T10:05:42.000Z</time>
      </trkpt>
      <trkpt lat="42.93589" lon="1.25198">
        <ele>1274</ele>
        <time>2026-05-25T10:05:43.000Z</time>
      </trkpt>
      <trkpt lat="42.93588" lon="1.25202">
        <ele>1274</ele>
        <time>2026-05-25T10:05:44.000Z</time>
      </trkpt>
      <trkpt lat="42.93587" lon="1.25205">
        <ele>1274</ele>
        <time>2026-05-25T10:05:45.000Z</time>
      </trkpt>
      <trkpt lat="42.93587" lon="1.25207">
        <ele>1274</ele>
        <time>2026-05-25T10:05:46.000Z</time>
      </trkpt>
      <trkpt lat="42.93587" lon="1.25209">
        <ele>1274</ele>
        <time>2026-05-25T10:05:47.000Z</time>
      </trkpt>
      <trkpt lat="42.93586" lon="1.25212">
        <ele>1275</ele>
        <time>2026-05-25T10:05:48.000Z</time>
      </trkpt>
      <trkpt lat="42.93585" lon="1.25215">
        <ele>1274</ele>
        <time>2026-05-25T10:05:49.000Z</time>
      </trkpt>
      <trkpt lat="42.93584" lon="1.25218">
        <ele>1274</ele>
        <time>2026-05-25T10:05:50.000Z</time>
      </trkpt>
      <trkpt lat="42.93583" lon="1.2522">
        <ele>1274</ele>
        <time>2026-05-25T10:05:51.000Z</time>
      </trkpt>
      <trkpt lat="42.93582" lon="1.25223">
        <ele>1274</ele>
        <time>2026-05-25T10:05:52.000Z</time>
      </trkpt>
      <trkpt lat="42.93581" lon="1.25226">
        <ele>1274</ele>
        <time>2026-05-25T10:05:53.000Z</time>
      </trkpt>
      <trkpt lat="42.93579" lon="1.25228">
        <ele>1274</ele>
        <time>2026-05-25T10:05:54.000Z</time>
      </trkpt>
      <trkpt lat="42.93578" lon="1.2523">
        <ele>1274</ele>
        <time>2026-05-25T10:05:55.000Z</time>
      </trkpt>
      <trkpt lat="42.93577" lon="1.25232">
        <ele>1274</ele>
        <time>2026-05-25T10:05:56.000Z</time>
      </trkpt>
      <trkpt lat="42.93576" lon="1.25235">
        <ele>1274</ele>
        <time>2026-05-25T10:05:57.000Z</time>
      </trkpt>
      <trkpt lat="42.93575" lon="1.25237">
        <ele>1275</ele>
        <time>2026-05-25T10:05:58.000Z</time>
      </trkpt>
      <trkpt lat="42.93574" lon="1.2524">
        <ele>1275</ele>
        <time>2026-05-25T10:05:59.000Z</time>
      </trkpt>
      <trkpt lat="42.93574" lon="1.25243">
        <ele>1276</ele>
        <time>2026-05-25T10:06:00.000Z</time>
      </trkpt>
      <trkpt lat="42.93573" lon="1.25246">
        <ele>1276</ele>
        <time>2026-05-25T10:06:01.000Z</time>
      </trkpt>
      <trkpt lat="42.93572" lon="1.25248">
        <ele>1277</ele>
        <time>2026-05-25T10:06:02.000Z</time>
      </trkpt>
      <trkpt lat="42.93572" lon="1.25251">
        <ele>1277</ele>
        <time>2026-05-25T10:06:03.000Z</time>
      </trkpt>
      <trkpt lat="42.93572" lon="1.25253">
        <ele>1278</ele>
        <time>2026-05-25T10:06:04.000Z</time>
      </trkpt>
      <trkpt lat="42.93571" lon="1.25254">
        <ele>1279</ele>
        <time>2026-05-25T10:06:05.000Z</time>
      </trkpt>
      <trkpt lat="42.9357" lon="1.25257">
        <ele>1279</ele>
        <time>2026-05-25T10:06:06.000Z</time>
      </trkpt>
      <trkpt lat="42.93569" lon="1.25258">
        <ele>1279</ele>
        <time>2026-05-25T10:06:07.000Z</time>
      </trkpt>
      <trkpt lat="42.93568" lon="1.2526">
        <ele>1280</ele>
        <time>2026-05-25T10:06:08.000Z</time>
      </trkpt>
      <trkpt lat="42.93568" lon="1.25263">
        <ele>1280</ele>
        <time>2026-05-25T10:06:09.000Z</time>
      </trkpt>
      <trkpt lat="42.93568" lon="1.25265">
        <ele>1280</ele>
        <time>2026-05-25T10:06:10.000Z</time>
      </trkpt>
      <trkpt lat="42.93568" lon="1.25268">
        <ele>1280</ele>
        <time>2026-05-25T10:06:11.000Z</time>
      </trkpt>
      <trkpt lat="42.93568" lon="1.25271">
        <ele>1281</ele>
        <time>2026-05-25T10:06:12.000Z</time>
      </trkpt>
      <trkpt lat="42.93567" lon="1.25274">
        <ele>1282</ele>
        <time>2026-05-25T10:06:13.000Z</time>
      </trkpt>
      <trkpt lat="42.93566" lon="1.25277">
        <ele>1282</ele>
        <time>2026-05-25T10:06:14.000Z</time>
      </trkpt>
      <trkpt lat="42.93566" lon="1.2528">
        <ele>1282</ele>
        <time>2026-05-25T10:06:15.000Z</time>
      </trkpt>
      <trkpt lat="42.93566" lon="1.25283">
        <ele>1282</ele>
        <time>2026-05-25T10:06:16.000Z</time>
      </trkpt>
      <trkpt lat="42.93565" lon="1.25285">
        <ele>1281</ele>
        <time>2026-05-25T10:06:17.000Z</time>
      </trkpt>
      <trkpt lat="42.93565" lon="1.25289">
        <ele>1281</ele>
        <time>2026-05-25T10:06:18.000Z</time>
      </trkpt>
      <trkpt lat="42.93565" lon="1.25291">
        <ele>1282</ele>
        <time>2026-05-25T10:06:19.000Z</time>
      </trkpt>
      <trkpt lat="42.93564" lon="1.25294">
        <ele>1282</ele>
        <time>2026-05-25T10:06:20.000Z</time>
      </trkpt>
      <trkpt lat="42.93564" lon="1.25296">
        <ele>1282</ele>
        <time>2026-05-25T10:06:21.000Z</time>
      </trkpt>
      <trkpt lat="42.93564" lon="1.25298">
        <ele>1282</ele>
        <time>2026-05-25T10:06:22.000Z</time>
      </trkpt>
      <trkpt lat="42.93564" lon="1.25301">
        <ele>1282</ele>
        <time>2026-05-25T10:06:23.000Z</time>
      </trkpt>
      <trkpt lat="42.93563" lon="1.25303">
        <ele>1282</ele>
        <time>2026-05-25T10:06:24.000Z</time>
      </trkpt>
      <trkpt lat="42.93563" lon="1.25306">
        <ele>1282</ele>
        <time>2026-05-25T10:06:25.000Z</time>
      </trkpt>
      <trkpt lat="42.93563" lon="1.25308">
        <ele>1283</ele>
        <time>2026-05-25T10:06:26.000Z</time>
      </trkpt>
      <trkpt lat="42.93562" lon="1.25311">
        <ele>1283</ele>
        <time>2026-05-25T10:06:27.000Z</time>
      </trkpt>
      <trkpt lat="42.93562" lon="1.25314">
        <ele>1284</ele>
        <time>2026-05-25T10:06:28.000Z</time>
      </trkpt>
      <trkpt lat="42.93563" lon="1.25316">
        <ele>1285</ele>
        <time>2026-05-25T10:06:29.000Z</time>
      </trkpt>
      <trkpt lat="42.93563" lon="1.25318">
        <ele>1285</ele>
        <time>2026-05-25T10:06:30.000Z</time>
      </trkpt>
      <trkpt lat="42.93563" lon="1.2532">
        <ele>1285</ele>
        <time>2026-05-25T10:06:31.000Z</time>
      </trkpt>
      <trkpt lat="42.93563" lon="1.25324">
        <ele>1286</ele>
        <time>2026-05-25T10:06:32.000Z</time>
      </trkpt>
      <trkpt lat="42.93563" lon="1.25326">
        <ele>1286</ele>
        <time>2026-05-25T10:06:33.000Z</time>
      </trkpt>
      <trkpt lat="42.93562" lon="1.25329">
        <ele>1286</ele>
        <time>2026-05-25T10:06:34.000Z</time>
      </trkpt>
      <trkpt lat="42.93562" lon="1.25332">
        <ele>1287</ele>
        <time>2026-05-25T10:06:35.000Z</time>
      </trkpt>
      <trkpt lat="42.93562" lon="1.25335">
        <ele>1287</ele>
        <time>2026-05-25T10:06:36.000Z</time>
      </trkpt>
      <trkpt lat="42.93561" lon="1.25337">
        <ele>1287</ele>
        <time>2026-05-25T10:06:37.000Z</time>
      </trkpt>
      <trkpt lat="42.93561" lon="1.25341">
        <ele>1287</ele>
        <time>2026-05-25T10:06:38.000Z</time>
      </trkpt>
      <trkpt lat="42.9356" lon="1.25343">
        <ele>1286</ele>
        <time>2026-05-25T10:06:39.000Z</time>
      </trkpt>
      <trkpt lat="42.93559" lon="1.25345">
        <ele>1286</ele>
        <time>2026-05-25T10:06:40.000Z</time>
      </trkpt>
      <trkpt lat="42.93558" lon="1.25347">
        <ele>1286</ele>
        <time>2026-05-25T10:06:41.000Z</time>
      </trkpt>
      <trkpt lat="42.93558" lon="1.25349">
        <ele>1286</ele>
        <time>2026-05-25T10:06:42.000Z</time>
      </trkpt>
      <trkpt lat="42.93558" lon="1.25352">
        <ele>1286</ele>
        <time>2026-05-25T10:06:43.000Z</time>
      </trkpt>
      <trkpt lat="42.93558" lon="1.25354">
        <ele>1286</ele>
        <time>2026-05-25T10:06:44.000Z</time>
      </trkpt>
      <trkpt lat="42.93557" lon="1.25357">
        <ele>1286</ele>
        <time>2026-05-25T10:06:45.000Z</time>
      </trkpt>
      <trkpt lat="42.93557" lon="1.2536">
        <ele>1286</ele>
        <time>2026-05-25T10:06:46.000Z</time>
      </trkpt>
      <trkpt lat="42.93558" lon="1.25362">
        <ele>1286</ele>
        <time>2026-05-25T10:06:47.000Z</time>
      </trkpt>
      <trkpt lat="42.93558" lon="1.25364">
        <ele>1287</ele>
        <time>2026-05-25T10:06:48.000Z</time>
      </trkpt>
      <trkpt lat="42.93558" lon="1.25366">
        <ele>1287</ele>
        <time>2026-05-25T10:06:49.000Z</time>
      </trkpt>
      <trkpt lat="42.93559" lon="1.25369">
        <ele>1288</ele>
        <time>2026-05-25T10:06:50.000Z</time>
      </trkpt>
      <trkpt lat="42.93559" lon="1.25373">
        <ele>1288</ele>
        <time>2026-05-25T10:06:51.000Z</time>
      </trkpt>
      <trkpt lat="42.93559" lon="1.25375">
        <ele>1288</ele>
        <time>2026-05-25T10:06:52.000Z</time>
      </trkpt>
      <trkpt lat="42.93559" lon="1.25377">
        <ele>1288</ele>
        <time>2026-05-25T10:06:53.000Z</time>
      </trkpt>
      <trkpt lat="42.93559" lon="1.2538">
        <ele>1288</ele>
        <time>2026-05-25T10:06:54.000Z</time>
      </trkpt>
      <trkpt lat="42.93559" lon="1.25383">
        <ele>1289</ele>
        <time>2026-05-25T10:06:55.000Z</time>
      </trkpt>
      <trkpt lat="42.93559" lon="1.25384">
        <ele>1289</ele>
        <time>2026-05-25T10:06:56.000Z</time>
      </trkpt>
      <trkpt lat="42.93558" lon="1.25387">
        <ele>1289</ele>
        <time>2026-05-25T10:06:57.000Z</time>
      </trkpt>
      <trkpt lat="42.93559" lon="1.25389">
        <ele>1289</ele>
        <time>2026-05-25T10:06:58.000Z</time>
      </trkpt>
      <trkpt lat="42.93558" lon="1.2539">
        <ele>1290</ele>
        <time>2026-05-25T10:06:59.000Z</time>
      </trkpt>
      <trkpt lat="42.93558" lon="1.25392">
        <ele>1290</ele>
        <time>2026-05-25T10:07:00.000Z</time>
      </trkpt>
      <trkpt lat="42.93557" lon="1.25396">
        <ele>1291</ele>
        <time>2026-05-25T10:07:01.000Z</time>
      </trkpt>
      <trkpt lat="42.93557" lon="1.25398">
        <ele>1291</ele>
        <time>2026-05-25T10:07:02.000Z</time>
      </trkpt>
      <trkpt lat="42.93557" lon="1.25402">
        <ele>1290</ele>
        <time>2026-05-25T10:07:03.000Z</time>
      </trkpt>
      <trkpt lat="42.93556" lon="1.25405">
        <ele>1290</ele>
        <time>2026-05-25T10:07:04.000Z</time>
      </trkpt>
      <trkpt lat="42.93555" lon="1.25408">
        <ele>1289</ele>
        <time>2026-05-25T10:07:05.000Z</time>
      </trkpt>
      <trkpt lat="42.93555" lon="1.25412">
        <ele>1290</ele>
        <time>2026-05-25T10:07:06.000Z</time>
      </trkpt>
      <trkpt lat="42.93555" lon="1.25415">
        <ele>1290</ele>
        <time>2026-05-25T10:07:07.000Z</time>
      </trkpt>
      <trkpt lat="42.93556" lon="1.25417">
        <ele>1290</ele>
        <time>2026-05-25T10:07:08.000Z</time>
      </trkpt>
      <trkpt lat="42.93556" lon="1.2542">
        <ele>1290</ele>
        <time>2026-05-25T10:07:09.000Z</time>
      </trkpt>
      <trkpt lat="42.93555" lon="1.25423">
        <ele>1290</ele>
        <time>2026-05-25T10:07:10.000Z</time>
      </trkpt>
      <trkpt lat="42.93555" lon="1.25427">
        <ele>1291</ele>
        <time>2026-05-25T10:07:11.000Z</time>
      </trkpt>
      <trkpt lat="42.93555" lon="1.2543">
        <ele>1291</ele>
        <time>2026-05-25T10:07:12.000Z</time>
      </trkpt>
      <trkpt lat="42.93554" lon="1.25433">
        <ele>1292</ele>
        <time>2026-05-25T10:07:13.000Z</time>
      </trkpt>
      <trkpt lat="42.93554" lon="1.25437">
        <ele>1292</ele>
        <time>2026-05-25T10:07:14.000Z</time>
      </trkpt>
      <trkpt lat="42.93554" lon="1.25438">
        <ele>1292</ele>
        <time>2026-05-25T10:07:15.000Z</time>
      </trkpt>
      <trkpt lat="42.93553" lon="1.25441">
        <ele>1293</ele>
        <time>2026-05-25T10:07:16.000Z</time>
      </trkpt>
      <trkpt lat="42.93553" lon="1.25444">
        <ele>1294</ele>
        <time>2026-05-25T10:07:17.000Z</time>
      </trkpt>
      <trkpt lat="42.93552" lon="1.25445">
        <ele>1294</ele>
        <time>2026-05-25T10:07:18.000Z</time>
      </trkpt>
      <trkpt lat="42.93552" lon="1.25448">
        <ele>1296</ele>
        <time>2026-05-25T10:07:19.000Z</time>
      </trkpt>
      <trkpt lat="42.93551" lon="1.2545">
        <ele>1296</ele>
        <time>2026-05-25T10:07:20.000Z</time>
      </trkpt>
      <trkpt lat="42.9355" lon="1.25452">
        <ele>1297</ele>
        <time>2026-05-25T10:07:21.000Z</time>
      </trkpt>
      <trkpt lat="42.9355" lon="1.25455">
        <ele>1298</ele>
        <time>2026-05-25T10:07:22.000Z</time>
      </trkpt>
      <trkpt lat="42.93549" lon="1.25458">
        <ele>1299</ele>
        <time>2026-05-25T10:07:23.000Z</time>
      </trkpt>
      <trkpt lat="42.93548" lon="1.2546">
        <ele>1300</ele>
        <time>2026-05-25T10:07:24.000Z</time>
      </trkpt>
      <trkpt lat="42.93547" lon="1.25463">
        <ele>1299</ele>
        <time>2026-05-25T10:07:25.000Z</time>
      </trkpt>
      <trkpt lat="42.93546" lon="1.25465">
        <ele>1299</ele>
        <time>2026-05-25T10:07:26.000Z</time>
      </trkpt>
      <trkpt lat="42.93544" lon="1.25467">
        <ele>1299</ele>
        <time>2026-05-25T10:07:27.000Z</time>
      </trkpt>
      <trkpt lat="42.93543" lon="1.2547">
        <ele>1299</ele>
        <time>2026-05-25T10:07:28.000Z</time>
      </trkpt>
      <trkpt lat="42.93542" lon="1.25473">
        <ele>1299</ele>
        <time>2026-05-25T10:07:29.000Z</time>
      </trkpt>
      <trkpt lat="42.93542" lon="1.25475">
        <ele>1299</ele>
        <time>2026-05-25T10:07:30.000Z</time>
      </trkpt>
      <trkpt lat="42.93541" lon="1.25478">
        <ele>1299</ele>
        <time>2026-05-25T10:07:31.000Z</time>
      </trkpt>
      <trkpt lat="42.9354" lon="1.2548">
        <ele>1299</ele>
        <time>2026-05-25T10:07:32.000Z</time>
      </trkpt>
      <trkpt lat="42.93541" lon="1.25482">
        <ele>1299</ele>
        <time>2026-05-25T10:07:33.000Z</time>
      </trkpt>
      <trkpt lat="42.9354" lon="1.25485">
        <ele>1299</ele>
        <time>2026-05-25T10:07:34.000Z</time>
      </trkpt>
      <trkpt lat="42.9354" lon="1.25488">
        <ele>1299</ele>
        <time>2026-05-25T10:07:35.000Z</time>
      </trkpt>
      <trkpt lat="42.93539" lon="1.2549">
        <ele>1300</ele>
        <time>2026-05-25T10:07:36.000Z</time>
      </trkpt>
      <trkpt lat="42.93539" lon="1.25491">
        <ele>1301</ele>
        <time>2026-05-25T10:07:37.000Z</time>
      </trkpt>
      <trkpt lat="42.93539" lon="1.25493">
        <ele>1302</ele>
        <time>2026-05-25T10:07:38.000Z</time>
      </trkpt>
      <trkpt lat="42.9354" lon="1.25495">
        <ele>1303</ele>
        <time>2026-05-25T10:07:39.000Z</time>
      </trkpt>
      <trkpt lat="42.93539" lon="1.25497">
        <ele>1304</ele>
        <time>2026-05-25T10:07:40.000Z</time>
      </trkpt>
      <trkpt lat="42.93539" lon="1.255">
        <ele>1305</ele>
        <time>2026-05-25T10:07:41.000Z</time>
      </trkpt>
      <trkpt lat="42.93538" lon="1.25503">
        <ele>1306</ele>
        <time>2026-05-25T10:07:42.000Z</time>
      </trkpt>
      <trkpt lat="42.93538" lon="1.25506">
        <ele>1306</ele>
        <time>2026-05-25T10:07:43.000Z</time>
      </trkpt>
      <trkpt lat="42.93538" lon="1.25509">
        <ele>1305</ele>
        <time>2026-05-25T10:07:44.000Z</time>
      </trkpt>
      <trkpt lat="42.93538" lon="1.25512">
        <ele>1305</ele>
        <time>2026-05-25T10:07:45.000Z</time>
      </trkpt>
      <trkpt lat="42.93538" lon="1.25514">
        <ele>1304</ele>
        <time>2026-05-25T10:07:46.000Z</time>
      </trkpt>
      <trkpt lat="42.93538" lon="1.25516">
        <ele>1303</ele>
        <time>2026-05-25T10:07:47.000Z</time>
      </trkpt>
      <trkpt lat="42.93537" lon="1.25518">
        <ele>1303</ele>
        <time>2026-05-25T10:07:48.000Z</time>
      </trkpt>
      <trkpt lat="42.93537" lon="1.2552">
        <ele>1303</ele>
        <time>2026-05-25T10:07:49.000Z</time>
      </trkpt>
      <trkpt lat="42.93538" lon="1.25522">
        <ele>1303</ele>
        <time>2026-05-25T10:07:50.000Z</time>
      </trkpt>
      <trkpt lat="42.93538" lon="1.25525">
        <ele>1303</ele>
        <time>2026-05-25T10:07:51.000Z</time>
      </trkpt>
      <trkpt lat="42.93538" lon="1.25528">
        <ele>1302</ele>
        <time>2026-05-25T10:07:52.000Z</time>
      </trkpt>
      <trkpt lat="42.93539" lon="1.25531">
        <ele>1302</ele>
        <time>2026-05-25T10:07:53.000Z</time>
      </trkpt>
      <trkpt lat="42.93538" lon="1.25535">
        <ele>1302</ele>
        <time>2026-05-25T10:07:54.000Z</time>
      </trkpt>
      <trkpt lat="42.93538" lon="1.25538">
        <ele>1302</ele>
        <time>2026-05-25T10:07:55.000Z</time>
      </trkpt>
      <trkpt lat="42.93539" lon="1.2554">
        <ele>1303</ele>
        <time>2026-05-25T10:07:56.000Z</time>
      </trkpt>
      <trkpt lat="42.93539" lon="1.25542">
        <ele>1304</ele>
        <time>2026-05-25T10:07:57.000Z</time>
      </trkpt>
      <trkpt lat="42.9354" lon="1.25545">
        <ele>1305</ele>
        <time>2026-05-25T10:07:58.000Z</time>
      </trkpt>
      <trkpt lat="42.93541" lon="1.25548">
        <ele>1306</ele>
        <time>2026-05-25T10:07:59.000Z</time>
      </trkpt>
      <trkpt lat="42.93541" lon="1.25551">
        <ele>1307</ele>
        <time>2026-05-25T10:08:00.000Z</time>
      </trkpt>
      <trkpt lat="42.93542" lon="1.25554">
        <ele>1307</ele>
        <time>2026-05-25T10:08:01.000Z</time>
      </trkpt>
      <trkpt lat="42.93543" lon="1.25556">
        <ele>1307</ele>
        <time>2026-05-25T10:08:02.000Z</time>
      </trkpt>
      <trkpt lat="42.93545" lon="1.25559">
        <ele>1308</ele>
        <time>2026-05-25T10:08:03.000Z</time>
      </trkpt>
      <trkpt lat="42.93546" lon="1.25561">
        <ele>1308</ele>
        <time>2026-05-25T10:08:04.000Z</time>
      </trkpt>
      <trkpt lat="42.93547" lon="1.25564">
        <ele>1309</ele>
        <time>2026-05-25T10:08:05.000Z</time>
      </trkpt>
      <trkpt lat="42.93547" lon="1.25565">
        <ele>1309</ele>
        <time>2026-05-25T10:08:06.000Z</time>
      </trkpt>
      <trkpt lat="42.93548" lon="1.25568">
        <ele>1310</ele>
        <time>2026-05-25T10:08:07.000Z</time>
      </trkpt>
      <trkpt lat="42.93549" lon="1.25572">
        <ele>1310</ele>
        <time>2026-05-25T10:08:08.000Z</time>
      </trkpt>
      <trkpt lat="42.9355" lon="1.25575">
        <ele>1309</ele>
        <time>2026-05-25T10:08:09.000Z</time>
      </trkpt>
      <trkpt lat="42.9355" lon="1.25578">
        <ele>1309</ele>
        <time>2026-05-25T10:08:10.000Z</time>
      </trkpt>
      <trkpt lat="42.9355" lon="1.25581">
        <ele>1309</ele>
        <time>2026-05-25T10:08:11.000Z</time>
      </trkpt>
      <trkpt lat="42.93551" lon="1.25584">
        <ele>1309</ele>
        <time>2026-05-25T10:08:12.000Z</time>
      </trkpt>
      <trkpt lat="42.93551" lon="1.25586">
        <ele>1310</ele>
        <time>2026-05-25T10:08:13.000Z</time>
      </trkpt>
      <trkpt lat="42.93552" lon="1.2559">
        <ele>1309</ele>
        <time>2026-05-25T10:08:14.000Z</time>
      </trkpt>
      <trkpt lat="42.93552" lon="1.25594">
        <ele>1309</ele>
        <time>2026-05-25T10:08:15.000Z</time>
      </trkpt>
      <trkpt lat="42.93552" lon="1.25597">
        <ele>1309</ele>
        <time>2026-05-25T10:08:16.000Z</time>
      </trkpt>
      <trkpt lat="42.93553" lon="1.256">
        <ele>1308</ele>
        <time>2026-05-25T10:08:17.000Z</time>
      </trkpt>
      <trkpt lat="42.93553" lon="1.25603">
        <ele>1308</ele>
        <time>2026-05-25T10:08:18.000Z</time>
      </trkpt>
      <trkpt lat="42.93553" lon="1.25605">
        <ele>1309</ele>
        <time>2026-05-25T10:08:19.000Z</time>
      </trkpt>
      <trkpt lat="42.93553" lon="1.25609">
        <ele>1309</ele>
        <time>2026-05-25T10:08:20.000Z</time>
      </trkpt>
      <trkpt lat="42.93553" lon="1.25612">
        <ele>1309</ele>
        <time>2026-05-25T10:08:21.000Z</time>
      </trkpt>
      <trkpt lat="42.93554" lon="1.25615">
        <ele>1309</ele>
        <time>2026-05-25T10:08:22.000Z</time>
      </trkpt>
      <trkpt lat="42.93555" lon="1.25617">
        <ele>1308</ele>
        <time>2026-05-25T10:08:23.000Z</time>
      </trkpt>
      <trkpt lat="42.93554" lon="1.2562">
        <ele>1309</ele>
        <time>2026-05-25T10:08:24.000Z</time>
      </trkpt>
      <trkpt lat="42.93554" lon="1.25623">
        <ele>1308</ele>
        <time>2026-05-25T10:08:25.000Z</time>
      </trkpt>
      <trkpt lat="42.93554" lon="1.25625">
        <ele>1308</ele>
        <time>2026-05-25T10:08:26.000Z</time>
      </trkpt>
      <trkpt lat="42.93555" lon="1.25628">
        <ele>1308</ele>
        <time>2026-05-25T10:08:27.000Z</time>
      </trkpt>
      <trkpt lat="42.93555" lon="1.2563">
        <ele>1308</ele>
        <time>2026-05-25T10:08:28.000Z</time>
      </trkpt>
      <trkpt lat="42.93555" lon="1.25634">
        <ele>1309</ele>
        <time>2026-05-25T10:08:29.000Z</time>
      </trkpt>
      <trkpt lat="42.93555" lon="1.25637">
        <ele>1309</ele>
        <time>2026-05-25T10:08:30.000Z</time>
      </trkpt>
      <trkpt lat="42.93555" lon="1.2564">
        <ele>1309</ele>
        <time>2026-05-25T10:08:31.000Z</time>
      </trkpt>
      <trkpt lat="42.93555" lon="1.25643">
        <ele>1310</ele>
        <time>2026-05-25T10:08:32.000Z</time>
      </trkpt>
      <trkpt lat="42.93556" lon="1.25646">
        <ele>1309</ele>
        <time>2026-05-25T10:08:33.000Z</time>
      </trkpt>
      <trkpt lat="42.93556" lon="1.25649">
        <ele>1309</ele>
        <time>2026-05-25T10:08:34.000Z</time>
      </trkpt>
      <trkpt lat="42.93556" lon="1.25651">
        <ele>1310</ele>
        <time>2026-05-25T10:08:35.000Z</time>
      </trkpt>
      <trkpt lat="42.93557" lon="1.25654">
        <ele>1310</ele>
        <time>2026-05-25T10:08:36.000Z</time>
      </trkpt>
      <trkpt lat="42.93557" lon="1.25658">
        <ele>1311</ele>
        <time>2026-05-25T10:08:37.000Z</time>
      </trkpt>
      <trkpt lat="42.93558" lon="1.25662">
        <ele>1311</ele>
        <time>2026-05-25T10:08:38.000Z</time>
      </trkpt>
      <trkpt lat="42.93558" lon="1.25664">
        <ele>1312</ele>
        <time>2026-05-25T10:08:39.000Z</time>
      </trkpt>
      <trkpt lat="42.93559" lon="1.25666">
        <ele>1313</ele>
        <time>2026-05-25T10:08:40.000Z</time>
      </trkpt>
      <trkpt lat="42.93559" lon="1.25669">
        <ele>1315</ele>
        <time>2026-05-25T10:08:41.000Z</time>
      </trkpt>
      <trkpt lat="42.9356" lon="1.25671">
        <ele>1315</ele>
        <time>2026-05-25T10:08:42.000Z</time>
      </trkpt>
      <trkpt lat="42.93561" lon="1.25675">
        <ele>1315</ele>
        <time>2026-05-25T10:08:43.000Z</time>
      </trkpt>
      <trkpt lat="42.93561" lon="1.25678">
        <ele>1315</ele>
        <time>2026-05-25T10:08:44.000Z</time>
      </trkpt>
      <trkpt lat="42.93561" lon="1.25681">
        <ele>1316</ele>
        <time>2026-05-25T10:08:45.000Z</time>
      </trkpt>
      <trkpt lat="42.93562" lon="1.25683">
        <ele>1317</ele>
        <time>2026-05-25T10:08:46.000Z</time>
      </trkpt>
      <trkpt lat="42.93563" lon="1.25686">
        <ele>1317</ele>
        <time>2026-05-25T10:08:47.000Z</time>
      </trkpt>
      <trkpt lat="42.93564" lon="1.25688">
        <ele>1317</ele>
        <time>2026-05-25T10:08:48.000Z</time>
      </trkpt>
      <trkpt lat="42.93565" lon="1.25691">
        <ele>1317</ele>
        <time>2026-05-25T10:08:49.000Z</time>
      </trkpt>
      <trkpt lat="42.93566" lon="1.25694">
        <ele>1318</ele>
        <time>2026-05-25T10:08:50.000Z</time>
      </trkpt>
      <trkpt lat="42.93567" lon="1.25695">
        <ele>1319</ele>
        <time>2026-05-25T10:08:51.000Z</time>
      </trkpt>
      <trkpt lat="42.93567" lon="1.25697">
        <ele>1321</ele>
        <time>2026-05-25T10:08:52.000Z</time>
      </trkpt>
      <trkpt lat="42.93568" lon="1.257">
        <ele>1322</ele>
        <time>2026-05-25T10:08:53.000Z</time>
      </trkpt>
      <trkpt lat="42.93569" lon="1.25701">
        <ele>1323</ele>
        <time>2026-05-25T10:08:54.000Z</time>
      </trkpt>
      <trkpt lat="42.9357" lon="1.25704">
        <ele>1323</ele>
        <time>2026-05-25T10:08:55.000Z</time>
      </trkpt>
      <trkpt lat="42.93571" lon="1.25706">
        <ele>1323</ele>
        <time>2026-05-25T10:08:56.000Z</time>
      </trkpt>
      <trkpt lat="42.93572" lon="1.25708">
        <ele>1323</ele>
        <time>2026-05-25T10:08:57.000Z</time>
      </trkpt>
      <trkpt lat="42.93573" lon="1.25711">
        <ele>1323</ele>
        <time>2026-05-25T10:08:58.000Z</time>
      </trkpt>
      <trkpt lat="42.93574" lon="1.25713">
        <ele>1323</ele>
        <time>2026-05-25T10:08:59.000Z</time>
      </trkpt>
      <trkpt lat="42.93575" lon="1.25716">
        <ele>1323</ele>
        <time>2026-05-25T10:09:00.000Z</time>
      </trkpt>
      <trkpt lat="42.93576" lon="1.25718">
        <ele>1324</ele>
        <time>2026-05-25T10:09:01.000Z</time>
      </trkpt>
      <trkpt lat="42.93577" lon="1.25721">
        <ele>1325</ele>
        <time>2026-05-25T10:09:02.000Z</time>
      </trkpt>
      <trkpt lat="42.93578" lon="1.25723">
        <ele>1325</ele>
        <time>2026-05-25T10:09:03.000Z</time>
      </trkpt>
      <trkpt lat="42.93579" lon="1.25725">
        <ele>1326</ele>
        <time>2026-05-25T10:09:04.000Z</time>
      </trkpt>
      <trkpt lat="42.9358" lon="1.25726">
        <ele>1327</ele>
        <time>2026-05-25T10:09:05.000Z</time>
      </trkpt>
      <trkpt lat="42.93582" lon="1.25729">
        <ele>1327</ele>
        <time>2026-05-25T10:09:06.000Z</time>
      </trkpt>
      <trkpt lat="42.93583" lon="1.25731">
        <ele>1328</ele>
        <time>2026-05-25T10:09:07.000Z</time>
      </trkpt>
      <trkpt lat="42.93584" lon="1.25732">
        <ele>1329</ele>
        <time>2026-05-25T10:09:08.000Z</time>
      </trkpt>
      <trkpt lat="42.93585" lon="1.25734">
        <ele>1330</ele>
        <time>2026-05-25T10:09:09.000Z</time>
      </trkpt>
      <trkpt lat="42.93587" lon="1.25735">
        <ele>1331</ele>
        <time>2026-05-25T10:09:10.000Z</time>
      </trkpt>
      <trkpt lat="42.93588" lon="1.25737">
        <ele>1331</ele>
        <time>2026-05-25T10:09:11.000Z</time>
      </trkpt>
      <trkpt lat="42.93589" lon="1.25739">
        <ele>1332</ele>
        <time>2026-05-25T10:09:12.000Z</time>
      </trkpt>
      <trkpt lat="42.93589" lon="1.25741">
        <ele>1333</ele>
        <time>2026-05-25T10:09:13.000Z</time>
      </trkpt>
      <trkpt lat="42.9359" lon="1.25744">
        <ele>1334</ele>
        <time>2026-05-25T10:09:14.000Z</time>
      </trkpt>
      <trkpt lat="42.93592" lon="1.25746">
        <ele>1334</ele>
        <time>2026-05-25T10:09:15.000Z</time>
      </trkpt>
      <trkpt lat="42.93593" lon="1.25749">
        <ele>1335</ele>
        <time>2026-05-25T10:09:16.000Z</time>
      </trkpt>
      <trkpt lat="42.93594" lon="1.25752">
        <ele>1334</ele>
        <time>2026-05-25T10:09:17.000Z</time>
      </trkpt>
      <trkpt lat="42.93595" lon="1.25755">
        <ele>1335</ele>
        <time>2026-05-25T10:09:18.000Z</time>
      </trkpt>
      <trkpt lat="42.93596" lon="1.25758">
        <ele>1335</ele>
        <time>2026-05-25T10:09:19.000Z</time>
      </trkpt>
      <trkpt lat="42.93597" lon="1.25761">
        <ele>1336</ele>
        <time>2026-05-25T10:09:20.000Z</time>
      </trkpt>
      <trkpt lat="42.93598" lon="1.25764">
        <ele>1336</ele>
        <time>2026-05-25T10:09:21.000Z</time>
      </trkpt>
      <trkpt lat="42.936" lon="1.25766">
        <ele>1337</ele>
        <time>2026-05-25T10:09:22.000Z</time>
      </trkpt>
      <trkpt lat="42.93601" lon="1.25769">
        <ele>1337</ele>
        <time>2026-05-25T10:09:23.000Z</time>
      </trkpt>
      <trkpt lat="42.93602" lon="1.25772">
        <ele>1337</ele>
        <time>2026-05-25T10:09:24.000Z</time>
      </trkpt>
      <trkpt lat="42.93603" lon="1.25775">
        <ele>1337</ele>
        <time>2026-05-25T10:09:25.000Z</time>
      </trkpt>
      <trkpt lat="42.93604" lon="1.25779">
        <ele>1336</ele>
        <time>2026-05-25T10:09:26.000Z</time>
      </trkpt>
      <trkpt lat="42.93604" lon="1.25782">
        <ele>1336</ele>
        <time>2026-05-25T10:09:27.000Z</time>
      </trkpt>
      <trkpt lat="42.93604" lon="1.25784">
        <ele>1336</ele>
        <time>2026-05-25T10:09:28.000Z</time>
      </trkpt>
      <trkpt lat="42.93605" lon="1.25787">
        <ele>1336</ele>
        <time>2026-05-25T10:09:29.000Z</time>
      </trkpt>
      <trkpt lat="42.93606" lon="1.2579">
        <ele>1336</ele>
        <time>2026-05-25T10:09:30.000Z</time>
      </trkpt>
      <trkpt lat="42.93607" lon="1.25793">
        <ele>1335</ele>
        <time>2026-05-25T10:09:31.000Z</time>
      </trkpt>
      <trkpt lat="42.93608" lon="1.25796">
        <ele>1335</ele>
        <time>2026-05-25T10:09:32.000Z</time>
      </trkpt>
      <trkpt lat="42.93609" lon="1.25799">
        <ele>1334</ele>
        <time>2026-05-25T10:09:33.000Z</time>
      </trkpt>
      <trkpt lat="42.9361" lon="1.25802">
        <ele>1334</ele>
        <time>2026-05-25T10:09:34.000Z</time>
      </trkpt>
      <trkpt lat="42.93611" lon="1.25804">
        <ele>1334</ele>
        <time>2026-05-25T10:09:35.000Z</time>
      </trkpt>
      <trkpt lat="42.93612" lon="1.25806">
        <ele>1334</ele>
        <time>2026-05-25T10:09:36.000Z</time>
      </trkpt>
      <trkpt lat="42.93613" lon="1.25809">
        <ele>1335</ele>
        <time>2026-05-25T10:09:37.000Z</time>
      </trkpt>
      <trkpt lat="42.93614" lon="1.25813">
        <ele>1336</ele>
        <time>2026-05-25T10:09:38.000Z</time>
      </trkpt>
      <trkpt lat="42.93615" lon="1.25816">
        <ele>1335</ele>
        <time>2026-05-25T10:09:39.000Z</time>
      </trkpt>
      <trkpt lat="42.93617" lon="1.25818">
        <ele>1335</ele>
        <time>2026-05-25T10:09:40.000Z</time>
      </trkpt>
      <trkpt lat="42.93618" lon="1.25822">
        <ele>1334</ele>
        <time>2026-05-25T10:09:41.000Z</time>
      </trkpt>
      <trkpt lat="42.9362" lon="1.25823">
        <ele>1334</ele>
        <time>2026-05-25T10:09:42.000Z</time>
      </trkpt>
      <trkpt lat="42.93621" lon="1.25826">
        <ele>1334</ele>
        <time>2026-05-25T10:09:43.000Z</time>
      </trkpt>
      <trkpt lat="42.93622" lon="1.25828">
        <ele>1335</ele>
        <time>2026-05-25T10:09:44.000Z</time>
      </trkpt>
      <trkpt lat="42.93623" lon="1.25829">
        <ele>1336</ele>
        <time>2026-05-25T10:09:45.000Z</time>
      </trkpt>
      <trkpt lat="42.93625" lon="1.25832">
        <ele>1336</ele>
        <time>2026-05-25T10:09:46.000Z</time>
      </trkpt>
      <trkpt lat="42.93626" lon="1.25835">
        <ele>1336</ele>
        <time>2026-05-25T10:09:47.000Z</time>
      </trkpt>
      <trkpt lat="42.93627" lon="1.25837">
        <ele>1336</ele>
        <time>2026-05-25T10:09:48.000Z</time>
      </trkpt>
      <trkpt lat="42.93629" lon="1.25839">
        <ele>1336</ele>
        <time>2026-05-25T10:09:49.000Z</time>
      </trkpt>
      <trkpt lat="42.9363" lon="1.25841">
        <ele>1336</ele>
        <time>2026-05-25T10:09:50.000Z</time>
      </trkpt>
      <trkpt lat="42.93631" lon="1.25843">
        <ele>1335</ele>
        <time>2026-05-25T10:09:51.000Z</time>
      </trkpt>
      <trkpt lat="42.93632" lon="1.25844">
        <ele>1337</ele>
        <time>2026-05-25T10:09:52.000Z</time>
      </trkpt>
      <trkpt lat="42.93634" lon="1.25846">
        <ele>1336</ele>
        <time>2026-05-25T10:09:53.000Z</time>
      </trkpt>
      <trkpt lat="42.93635" lon="1.25849">
        <ele>1336</ele>
        <time>2026-05-25T10:09:54.000Z</time>
      </trkpt>
      <trkpt lat="42.93637" lon="1.25851">
        <ele>1336</ele>
        <time>2026-05-25T10:09:55.000Z</time>
      </trkpt>
      <trkpt lat="42.93638" lon="1.25855">
        <ele>1336</ele>
        <time>2026-05-25T10:09:56.000Z</time>
      </trkpt>
      <trkpt lat="42.9364" lon="1.25858">
        <ele>1336</ele>
        <time>2026-05-25T10:09:57.000Z</time>
      </trkpt>
      <trkpt lat="42.93641" lon="1.25859">
        <ele>1336</ele>
        <time>2026-05-25T10:09:58.000Z</time>
      </trkpt>
      <trkpt lat="42.93643" lon="1.25861">
        <ele>1336</ele>
        <time>2026-05-25T10:09:59.000Z</time>
      </trkpt>
      <trkpt lat="42.93644" lon="1.25864">
        <ele>1335</ele>
        <time>2026-05-25T10:10:00.000Z</time>
      </trkpt>
      <trkpt lat="42.93645" lon="1.25867">
        <ele>1335</ele>
        <time>2026-05-25T10:10:01.000Z</time>
      </trkpt>
      <trkpt lat="42.93647" lon="1.25869">
        <ele>1335</ele>
        <time>2026-05-25T10:10:02.000Z</time>
      </trkpt>
      <trkpt lat="42.93648" lon="1.25871">
        <ele>1335</ele>
        <time>2026-05-25T10:10:03.000Z</time>
      </trkpt>
      <trkpt lat="42.9365" lon="1.25874">
        <ele>1335</ele>
        <time>2026-05-25T10:10:04.000Z</time>
      </trkpt>
      <trkpt lat="42.93652" lon="1.25876">
        <ele>1334</ele>
        <time>2026-05-25T10:10:05.000Z</time>
      </trkpt>
      <trkpt lat="42.93653" lon="1.25879">
        <ele>1334</ele>
        <time>2026-05-25T10:10:06.000Z</time>
      </trkpt>
      <trkpt lat="42.93654" lon="1.25881">
        <ele>1334</ele>
        <time>2026-05-25T10:10:07.000Z</time>
      </trkpt>
      <trkpt lat="42.93656" lon="1.25884">
        <ele>1334</ele>
        <time>2026-05-25T10:10:08.000Z</time>
      </trkpt>
      <trkpt lat="42.93657" lon="1.25887">
        <ele>1334</ele>
        <time>2026-05-25T10:10:09.000Z</time>
      </trkpt>
      <trkpt lat="42.93658" lon="1.2589">
        <ele>1334</ele>
        <time>2026-05-25T10:10:10.000Z</time>
      </trkpt>
      <trkpt lat="42.9366" lon="1.25892">
        <ele>1334</ele>
        <time>2026-05-25T10:10:11.000Z</time>
      </trkpt>
      <trkpt lat="42.93661" lon="1.25894">
        <ele>1334</ele>
        <time>2026-05-25T10:10:12.000Z</time>
      </trkpt>
      <trkpt lat="42.93663" lon="1.25897">
        <ele>1334</ele>
        <time>2026-05-25T10:10:13.000Z</time>
      </trkpt>
      <trkpt lat="42.93665" lon="1.25898">
        <ele>1334</ele>
        <time>2026-05-25T10:10:14.000Z</time>
      </trkpt>
      <trkpt lat="42.93667" lon="1.259">
        <ele>1335</ele>
        <time>2026-05-25T10:10:15.000Z</time>
      </trkpt>
      <trkpt lat="42.93669" lon="1.25902">
        <ele>1334</ele>
        <time>2026-05-25T10:10:16.000Z</time>
      </trkpt>
      <trkpt lat="42.9367" lon="1.25904">
        <ele>1334</ele>
        <time>2026-05-25T10:10:17.000Z</time>
      </trkpt>
      <trkpt lat="42.93672" lon="1.25905">
        <ele>1334</ele>
        <time>2026-05-25T10:10:18.000Z</time>
      </trkpt>
      <trkpt lat="42.93675" lon="1.25907">
        <ele>1334</ele>
        <time>2026-05-25T10:10:19.000Z</time>
      </trkpt>
      <trkpt lat="42.93677" lon="1.25908">
        <ele>1334</ele>
        <time>2026-05-25T10:10:20.000Z</time>
      </trkpt>
      <trkpt lat="42.93679" lon="1.2591">
        <ele>1334</ele>
        <time>2026-05-25T10:10:21.000Z</time>
      </trkpt>
      <trkpt lat="42.93682" lon="1.25911">
        <ele>1332</ele>
        <time>2026-05-25T10:10:22.000Z</time>
      </trkpt>
      <trkpt lat="42.93684" lon="1.25912">
        <ele>1332</ele>
        <time>2026-05-25T10:10:23.000Z</time>
      </trkpt>
      <trkpt lat="42.93687" lon="1.25914">
        <ele>1332</ele>
        <time>2026-05-25T10:10:24.000Z</time>
      </trkpt>
      <trkpt lat="42.9369" lon="1.25916">
        <ele>1332</ele>
        <time>2026-05-25T10:10:25.000Z</time>
      </trkpt>
      <trkpt lat="42.93693" lon="1.25918">
        <ele>1332</ele>
        <time>2026-05-25T10:10:26.000Z</time>
      </trkpt>
      <trkpt lat="42.93695" lon="1.25919">
        <ele>1332</ele>
        <time>2026-05-25T10:10:27.000Z</time>
      </trkpt>
      <trkpt lat="42.93697" lon="1.25921">
        <ele>1333</ele>
        <time>2026-05-25T10:10:28.000Z</time>
      </trkpt>
      <trkpt lat="42.937" lon="1.25922">
        <ele>1333</ele>
        <time>2026-05-25T10:10:29.000Z</time>
      </trkpt>
      <trkpt lat="42.93702" lon="1.25924">
        <ele>1333</ele>
        <time>2026-05-25T10:10:30.000Z</time>
      </trkpt>
      <trkpt lat="42.93705" lon="1.25925">
        <ele>1334</ele>
        <time>2026-05-25T10:10:31.000Z</time>
      </trkpt>
      <trkpt lat="42.93708" lon="1.25926">
        <ele>1333</ele>
        <time>2026-05-25T10:10:32.000Z</time>
      </trkpt>
      <trkpt lat="42.93711" lon="1.25927">
        <ele>1333</ele>
        <time>2026-05-25T10:10:33.000Z</time>
      </trkpt>
      <trkpt lat="42.93713" lon="1.25927">
        <ele>1332</ele>
        <time>2026-05-25T10:10:34.000Z</time>
      </trkpt>
      <trkpt lat="42.93716" lon="1.25929">
        <ele>1332</ele>
        <time>2026-05-25T10:10:35.000Z</time>
      </trkpt>
      <trkpt lat="42.93718" lon="1.2593">
        <ele>1332</ele>
        <time>2026-05-25T10:10:36.000Z</time>
      </trkpt>
      <trkpt lat="42.93719" lon="1.25931">
        <ele>1332</ele>
        <time>2026-05-25T10:10:37.000Z</time>
      </trkpt>
      <trkpt lat="42.93721" lon="1.25933">
        <ele>1332</ele>
        <time>2026-05-25T10:10:38.000Z</time>
      </trkpt>
      <trkpt lat="42.93723" lon="1.25935">
        <ele>1331</ele>
        <time>2026-05-25T10:10:39.000Z</time>
      </trkpt>
      <trkpt lat="42.93725" lon="1.25937">
        <ele>1331</ele>
        <time>2026-05-25T10:10:40.000Z</time>
      </trkpt>
      <trkpt lat="42.93726" lon="1.25939">
        <ele>1331</ele>
        <time>2026-05-25T10:10:41.000Z</time>
      </trkpt>
      <trkpt lat="42.93727" lon="1.2594">
        <ele>1331</ele>
        <time>2026-05-25T10:10:42.000Z</time>
      </trkpt>
      <trkpt lat="42.93728" lon="1.25942">
        <ele>1330</ele>
        <time>2026-05-25T10:10:43.000Z</time>
      </trkpt>
      <trkpt lat="42.93729" lon="1.2594">
        <ele>1328</ele>
        <time>2026-05-25T10:11:15.000Z</time>
      </trkpt>
      <trkpt lat="42.93729" lon="1.25941">
        <ele>1327</ele>
        <time>2026-05-25T10:11:16.000Z</time>
      </trkpt>
      <trkpt lat="42.93729" lon="1.25943">
        <ele>1328</ele>
        <time>2026-05-25T10:11:17.000Z</time>
      </trkpt>
      <trkpt lat="42.93727" lon="1.25944">
        <ele>1327</ele>
        <time>2026-05-25T10:11:18.000Z</time>
      </trkpt>
      <trkpt lat="42.93726" lon="1.25944">
        <ele>1326</ele>
        <time>2026-05-25T10:11:19.000Z</time>
      </trkpt>
      <trkpt lat="42.93725" lon="1.25942">
        <ele>1326</ele>
        <time>2026-05-25T10:11:20.000Z</time>
      </trkpt>
      <trkpt lat="42.93725" lon="1.25938">
        <ele>1326</ele>
        <time>2026-05-25T10:11:21.000Z</time>
      </trkpt>
      <trkpt lat="42.93724" lon="1.25935">
        <ele>1326</ele>
        <time>2026-05-25T10:11:22.000Z</time>
      </trkpt>
      <trkpt lat="42.93722" lon="1.25932">
        <ele>1326</ele>
        <time>2026-05-25T10:11:23.000Z</time>
      </trkpt>
      <trkpt lat="42.9372" lon="1.25929">
        <ele>1326</ele>
        <time>2026-05-25T10:11:24.000Z</time>
      </trkpt>
      <trkpt lat="42.93717" lon="1.25927">
        <ele>1325</ele>
        <time>2026-05-25T10:11:25.000Z</time>
      </trkpt>
      <trkpt lat="42.93714" lon="1.25927">
        <ele>1325</ele>
        <time>2026-05-25T10:11:26.000Z</time>
      </trkpt>
      <trkpt lat="42.93709" lon="1.25926">
        <ele>1325</ele>
        <time>2026-05-25T10:11:27.000Z</time>
      </trkpt>
      <trkpt lat="42.93705" lon="1.25924">
        <ele>1325</ele>
        <time>2026-05-25T10:11:28.000Z</time>
      </trkpt>
      <trkpt lat="42.937" lon="1.25923">
        <ele>1326</ele>
        <time>2026-05-25T10:11:29.000Z</time>
      </trkpt>
      <trkpt lat="42.93695" lon="1.2592">
        <ele>1326</ele>
        <time>2026-05-25T10:11:30.000Z</time>
      </trkpt>
      <trkpt lat="42.93691" lon="1.25917">
        <ele>1326</ele>
        <time>2026-05-25T10:11:31.000Z</time>
      </trkpt>
      <trkpt lat="42.93687" lon="1.25914">
        <ele>1326</ele>
        <time>2026-05-25T10:11:32.000Z</time>
      </trkpt>
      <trkpt lat="42.93685" lon="1.25913">
        <ele>1327</ele>
        <time>2026-05-25T10:11:33.000Z</time>
      </trkpt>
      <trkpt lat="42.93682" lon="1.25913">
        <ele>1328</ele>
        <time>2026-05-25T10:11:34.000Z</time>
      </trkpt>
      <trkpt lat="42.9368" lon="1.25912">
        <ele>1328</ele>
        <time>2026-05-25T10:11:35.000Z</time>
      </trkpt>
      <trkpt lat="42.93678" lon="1.25911">
        <ele>1329</ele>
        <time>2026-05-25T10:11:36.000Z</time>
      </trkpt>
      <trkpt lat="42.93676" lon="1.25911">
        <ele>1330</ele>
        <time>2026-05-25T10:11:37.000Z</time>
      </trkpt>
      <trkpt lat="42.93674" lon="1.2591">
        <ele>1330</ele>
        <time>2026-05-25T10:11:38.000Z</time>
      </trkpt>
      <trkpt lat="42.93672" lon="1.25909">
        <ele>1331</ele>
        <time>2026-05-25T10:11:39.000Z</time>
      </trkpt>
      <trkpt lat="42.9367" lon="1.25907">
        <ele>1331</ele>
        <time>2026-05-25T10:11:40.000Z</time>
      </trkpt>
      <trkpt lat="42.93668" lon="1.25906">
        <ele>1331</ele>
        <time>2026-05-25T10:11:41.000Z</time>
      </trkpt>
      <trkpt lat="42.93666" lon="1.25904">
        <ele>1332</ele>
        <time>2026-05-25T10:11:42.000Z</time>
      </trkpt>
      <trkpt lat="42.93664" lon="1.25903">
        <ele>1332</ele>
        <time>2026-05-25T10:11:43.000Z</time>
      </trkpt>
      <trkpt lat="42.93663" lon="1.25902">
        <ele>1332</ele>
        <time>2026-05-25T10:11:44.000Z</time>
      </trkpt>
      <trkpt lat="42.93661" lon="1.25901">
        <ele>1332</ele>
        <time>2026-05-25T10:11:45.000Z</time>
      </trkpt>
      <trkpt lat="42.93659" lon="1.25899">
        <ele>1332</ele>
        <time>2026-05-25T10:11:46.000Z</time>
      </trkpt>
      <trkpt lat="42.93658" lon="1.25897">
        <ele>1333</ele>
        <time>2026-05-25T10:11:47.000Z</time>
      </trkpt>
      <trkpt lat="42.93656" lon="1.25895">
        <ele>1333</ele>
        <time>2026-05-25T10:11:48.000Z</time>
      </trkpt>
      <trkpt lat="42.93654" lon="1.25893">
        <ele>1333</ele>
        <time>2026-05-25T10:11:49.000Z</time>
      </trkpt>
      <trkpt lat="42.93652" lon="1.25892">
        <ele>1334</ele>
        <time>2026-05-25T10:11:50.000Z</time>
      </trkpt>
      <trkpt lat="42.9365" lon="1.25891">
        <ele>1334</ele>
        <time>2026-05-25T10:11:51.000Z</time>
      </trkpt>
      <trkpt lat="42.93648" lon="1.25889">
        <ele>1335</ele>
        <time>2026-05-25T10:11:52.000Z</time>
      </trkpt>
      <trkpt lat="42.93646" lon="1.25888">
        <ele>1335</ele>
        <time>2026-05-25T10:11:53.000Z</time>
      </trkpt>
      <trkpt lat="42.93644" lon="1.25886">
        <ele>1335</ele>
        <time>2026-05-25T10:11:54.000Z</time>
      </trkpt>
      <trkpt lat="42.93642" lon="1.25884">
        <ele>1336</ele>
        <time>2026-05-25T10:11:55.000Z</time>
      </trkpt>
      <trkpt lat="42.9364" lon="1.25883">
        <ele>1337</ele>
        <time>2026-05-25T10:11:56.000Z</time>
      </trkpt>
      <trkpt lat="42.93638" lon="1.25881">
        <ele>1337</ele>
        <time>2026-05-25T10:11:57.000Z</time>
      </trkpt>
      <trkpt lat="42.93636" lon="1.25878">
        <ele>1338</ele>
        <time>2026-05-25T10:11:58.000Z</time>
      </trkpt>
      <trkpt lat="42.93633" lon="1.25875">
        <ele>1338</ele>
        <time>2026-05-25T10:11:59.000Z</time>
      </trkpt>
      <trkpt lat="42.93631" lon="1.25873">
        <ele>1338</ele>
        <time>2026-05-25T10:12:00.000Z</time>
      </trkpt>
      <trkpt lat="42.93629" lon="1.2587">
        <ele>1339</ele>
        <time>2026-05-25T10:12:01.000Z</time>
      </trkpt>
      <trkpt lat="42.93627" lon="1.25868">
        <ele>1339</ele>
        <time>2026-05-25T10:12:02.000Z</time>
      </trkpt>
      <trkpt lat="42.93625" lon="1.25865">
        <ele>1339</ele>
        <time>2026-05-25T10:12:03.000Z</time>
      </trkpt>
      <trkpt lat="42.93623" lon="1.25863">
        <ele>1339</ele>
        <time>2026-05-25T10:12:04.000Z</time>
      </trkpt>
      <trkpt lat="42.93621" lon="1.2586">
        <ele>1339</ele>
        <time>2026-05-25T10:12:05.000Z</time>
      </trkpt>
      <trkpt lat="42.93619" lon="1.25857">
        <ele>1339</ele>
        <time>2026-05-25T10:12:06.000Z</time>
      </trkpt>
      <trkpt lat="42.93616" lon="1.25852">
        <ele>1339</ele>
        <time>2026-05-25T10:12:07.000Z</time>
      </trkpt>
      <trkpt lat="42.93614" lon="1.25849">
        <ele>1338</ele>
        <time>2026-05-25T10:12:08.000Z</time>
      </trkpt>
      <trkpt lat="42.93612" lon="1.25846">
        <ele>1339</ele>
        <time>2026-05-25T10:12:09.000Z</time>
      </trkpt>
      <trkpt lat="42.9361" lon="1.25843">
        <ele>1339</ele>
        <time>2026-05-25T10:12:10.000Z</time>
      </trkpt>
      <trkpt lat="42.93608" lon="1.25839">
        <ele>1339</ele>
        <time>2026-05-25T10:12:11.000Z</time>
      </trkpt>
      <trkpt lat="42.93606" lon="1.25835">
        <ele>1340</ele>
        <time>2026-05-25T10:12:12.000Z</time>
      </trkpt>
      <trkpt lat="42.93604" lon="1.25832">
        <ele>1340</ele>
        <time>2026-05-25T10:12:13.000Z</time>
      </trkpt>
      <trkpt lat="42.93602" lon="1.25828">
        <ele>1340</ele>
        <time>2026-05-25T10:12:14.000Z</time>
      </trkpt>
      <trkpt lat="42.93599" lon="1.25824">
        <ele>1340</ele>
        <time>2026-05-25T10:12:15.000Z</time>
      </trkpt>
      <trkpt lat="42.93596" lon="1.25822">
        <ele>1340</ele>
        <time>2026-05-25T10:12:16.000Z</time>
      </trkpt>
      <trkpt lat="42.93594" lon="1.25819">
        <ele>1340</ele>
        <time>2026-05-25T10:12:17.000Z</time>
      </trkpt>
      <trkpt lat="42.93591" lon="1.25816">
        <ele>1340</ele>
        <time>2026-05-25T10:12:18.000Z</time>
      </trkpt>
      <trkpt lat="42.9359" lon="1.25813">
        <ele>1340</ele>
        <time>2026-05-25T10:12:19.000Z</time>
      </trkpt>
      <trkpt lat="42.93588" lon="1.25809">
        <ele>1341</ele>
        <time>2026-05-25T10:12:20.000Z</time>
      </trkpt>
      <trkpt lat="42.93585" lon="1.25805">
        <ele>1341</ele>
        <time>2026-05-25T10:12:21.000Z</time>
      </trkpt>
      <trkpt lat="42.93583" lon="1.258">
        <ele>1341</ele>
        <time>2026-05-25T10:12:22.000Z</time>
      </trkpt>
      <trkpt lat="42.9358" lon="1.25797">
        <ele>1342</ele>
        <time>2026-05-25T10:12:23.000Z</time>
      </trkpt>
      <trkpt lat="42.93578" lon="1.25794">
        <ele>1343</ele>
        <time>2026-05-25T10:12:24.000Z</time>
      </trkpt>
      <trkpt lat="42.93576" lon="1.25791">
        <ele>1343</ele>
        <time>2026-05-25T10:12:25.000Z</time>
      </trkpt>
      <trkpt lat="42.93574" lon="1.25789">
        <ele>1343</ele>
        <time>2026-05-25T10:12:26.000Z</time>
      </trkpt>
      <trkpt lat="42.93571" lon="1.25786">
        <ele>1343</ele>
        <time>2026-05-25T10:12:27.000Z</time>
      </trkpt>
      <trkpt lat="42.93569" lon="1.25782">
        <ele>1343</ele>
        <time>2026-05-25T10:12:28.000Z</time>
      </trkpt>
      <trkpt lat="42.93568" lon="1.25779">
        <ele>1343</ele>
        <time>2026-05-25T10:12:29.000Z</time>
      </trkpt>
      <trkpt lat="42.93567" lon="1.25777">
        <ele>1343</ele>
        <time>2026-05-25T10:12:30.000Z</time>
      </trkpt>
      <trkpt lat="42.93565" lon="1.25774">
        <ele>1343</ele>
        <time>2026-05-25T10:12:31.000Z</time>
      </trkpt>
      <trkpt lat="42.93563" lon="1.25771">
        <ele>1343</ele>
        <time>2026-05-25T10:12:32.000Z</time>
      </trkpt>
      <trkpt lat="42.9356" lon="1.25768">
        <ele>1343</ele>
        <time>2026-05-25T10:12:33.000Z</time>
      </trkpt>
      <trkpt lat="42.93558" lon="1.25765">
        <ele>1343</ele>
        <time>2026-05-25T10:12:34.000Z</time>
      </trkpt>
      <trkpt lat="42.93557" lon="1.25763">
        <ele>1343</ele>
        <time>2026-05-25T10:12:35.000Z</time>
      </trkpt>
      <trkpt lat="42.93556" lon="1.25761">
        <ele>1344</ele>
        <time>2026-05-25T10:12:36.000Z</time>
      </trkpt>
      <trkpt lat="42.93555" lon="1.25757">
        <ele>1344</ele>
        <time>2026-05-25T10:12:37.000Z</time>
      </trkpt>
      <trkpt lat="42.93553" lon="1.25756">
        <ele>1344</ele>
        <time>2026-05-25T10:12:38.000Z</time>
      </trkpt>
      <trkpt lat="42.93552" lon="1.25753">
        <ele>1344</ele>
        <time>2026-05-25T10:12:39.000Z</time>
      </trkpt>
      <trkpt lat="42.9355" lon="1.25751">
        <ele>1344</ele>
        <time>2026-05-25T10:12:40.000Z</time>
      </trkpt>
      <trkpt lat="42.93548" lon="1.25749">
        <ele>1344</ele>
        <time>2026-05-25T10:12:41.000Z</time>
      </trkpt>
      <trkpt lat="42.93546" lon="1.25747">
        <ele>1344</ele>
        <time>2026-05-25T10:12:42.000Z</time>
      </trkpt>
      <trkpt lat="42.93544" lon="1.25744">
        <ele>1344</ele>
        <time>2026-05-25T10:12:43.000Z</time>
      </trkpt>
      <trkpt lat="42.93543" lon="1.25742">
        <ele>1344</ele>
        <time>2026-05-25T10:12:44.000Z</time>
      </trkpt>
      <trkpt lat="42.93541" lon="1.25739">
        <ele>1344</ele>
        <time>2026-05-25T10:12:45.000Z</time>
      </trkpt>
      <trkpt lat="42.93539" lon="1.25737">
        <ele>1344</ele>
        <time>2026-05-25T10:12:46.000Z</time>
      </trkpt>
      <trkpt lat="42.93537" lon="1.25734">
        <ele>1344</ele>
        <time>2026-05-25T10:12:47.000Z</time>
      </trkpt>
      <trkpt lat="42.93536" lon="1.25732">
        <ele>1344</ele>
        <time>2026-05-25T10:12:48.000Z</time>
      </trkpt>
      <trkpt lat="42.93534" lon="1.2573">
        <ele>1344</ele>
        <time>2026-05-25T10:12:49.000Z</time>
      </trkpt>
      <trkpt lat="42.93533" lon="1.25727">
        <ele>1344</ele>
        <time>2026-05-25T10:12:50.000Z</time>
      </trkpt>
      <trkpt lat="42.93531" lon="1.25724">
        <ele>1344</ele>
        <time>2026-05-25T10:12:51.000Z</time>
      </trkpt>
      <trkpt lat="42.9353" lon="1.25721">
        <ele>1345</ele>
        <time>2026-05-25T10:12:52.000Z</time>
      </trkpt>
      <trkpt lat="42.93528" lon="1.25719">
        <ele>1346</ele>
        <time>2026-05-25T10:12:53.000Z</time>
      </trkpt>
      <trkpt lat="42.93527" lon="1.25717">
        <ele>1348</ele>
        <time>2026-05-25T10:12:54.000Z</time>
      </trkpt>
      <trkpt lat="42.93527" lon="1.25715">
        <ele>1349</ele>
        <time>2026-05-25T10:12:55.000Z</time>
      </trkpt>
      <trkpt lat="42.93526" lon="1.25715">
        <ele>1349</ele>
        <time>2026-05-25T10:12:56.000Z</time>
      </trkpt>
      <trkpt lat="42.93526" lon="1.25713">
        <ele>1350</ele>
        <time>2026-05-25T10:12:57.000Z</time>
      </trkpt>
      <trkpt lat="42.93525" lon="1.25711">
        <ele>1350</ele>
        <time>2026-05-25T10:12:58.000Z</time>
      </trkpt>
      <trkpt lat="42.93524" lon="1.25709">
        <ele>1351</ele>
        <time>2026-05-25T10:12:59.000Z</time>
      </trkpt>
      <trkpt lat="42.93523" lon="1.25707">
        <ele>1351</ele>
        <time>2026-05-25T10:13:00.000Z</time>
      </trkpt>
      <trkpt lat="42.93523" lon="1.25704">
        <ele>1350</ele>
        <time>2026-05-25T10:13:01.000Z</time>
      </trkpt>
      <trkpt lat="42.93522" lon="1.25703">
        <ele>1352</ele>
        <time>2026-05-25T10:13:02.000Z</time>
      </trkpt>
      <trkpt lat="42.93522" lon="1.25701">
        <ele>1352</ele>
        <time>2026-05-25T10:13:03.000Z</time>
      </trkpt>
      <trkpt lat="42.93521" lon="1.25699">
        <ele>1352</ele>
        <time>2026-05-25T10:13:04.000Z</time>
      </trkpt>
      <trkpt lat="42.9352" lon="1.25697">
        <ele>1352</ele>
        <time>2026-05-25T10:13:05.000Z</time>
      </trkpt>
      <trkpt lat="42.93519" lon="1.25696">
        <ele>1352</ele>
        <time>2026-05-25T10:13:06.000Z</time>
      </trkpt>
      <trkpt lat="42.93518" lon="1.25694">
        <ele>1352</ele>
        <time>2026-05-25T10:13:07.000Z</time>
      </trkpt>
      <trkpt lat="42.93517" lon="1.25693">
        <ele>1352</ele>
        <time>2026-05-25T10:13:08.000Z</time>
      </trkpt>
      <trkpt lat="42.93516" lon="1.25691">
        <ele>1352</ele>
        <time>2026-05-25T10:13:09.000Z</time>
      </trkpt>
      <trkpt lat="42.93516" lon="1.25689">
        <ele>1352</ele>
        <time>2026-05-25T10:13:10.000Z</time>
      </trkpt>
      <trkpt lat="42.93514" lon="1.25687">
        <ele>1352</ele>
        <time>2026-05-25T10:13:11.000Z</time>
      </trkpt>
      <trkpt lat="42.93513" lon="1.25685">
        <ele>1352</ele>
        <time>2026-05-25T10:13:12.000Z</time>
      </trkpt>
      <trkpt lat="42.93513" lon="1.25683">
        <ele>1351</ele>
        <time>2026-05-25T10:13:13.000Z</time>
      </trkpt>
      <trkpt lat="42.93512" lon="1.25681">
        <ele>1351</ele>
        <time>2026-05-25T10:13:14.000Z</time>
      </trkpt>
      <trkpt lat="42.93512" lon="1.2568">
        <ele>1351</ele>
        <time>2026-05-25T10:13:15.000Z</time>
      </trkpt>
      <trkpt lat="42.93511" lon="1.25678">
        <ele>1351</ele>
        <time>2026-05-25T10:13:16.000Z</time>
      </trkpt>
      <trkpt lat="42.9351" lon="1.25675">
        <ele>1351</ele>
        <time>2026-05-25T10:13:17.000Z</time>
      </trkpt>
      <trkpt lat="42.93508" lon="1.25675">
        <ele>1351</ele>
        <time>2026-05-25T10:13:18.000Z</time>
      </trkpt>
      <trkpt lat="42.93508" lon="1.25674">
        <ele>1351</ele>
        <time>2026-05-25T10:13:19.000Z</time>
      </trkpt>
      <trkpt lat="42.93507" lon="1.25673">
        <ele>1350</ele>
        <time>2026-05-25T10:13:20.000Z</time>
      </trkpt>
      <trkpt lat="42.93505" lon="1.2567">
        <ele>1350</ele>
        <time>2026-05-25T10:13:21.000Z</time>
      </trkpt>
      <trkpt lat="42.93504" lon="1.25668">
        <ele>1350</ele>
        <time>2026-05-25T10:13:22.000Z</time>
      </trkpt>
      <trkpt lat="42.93503" lon="1.25665">
        <ele>1349</ele>
        <time>2026-05-25T10:13:23.000Z</time>
      </trkpt>
      <trkpt lat="42.93503" lon="1.25663">
        <ele>1350</ele>
        <time>2026-05-25T10:13:24.000Z</time>
      </trkpt>
      <trkpt lat="42.93503" lon="1.25661">
        <ele>1350</ele>
        <time>2026-05-25T10:13:25.000Z</time>
      </trkpt>
      <trkpt lat="42.93503" lon="1.2566">
        <ele>1350</ele>
        <time>2026-05-25T10:13:26.000Z</time>
      </trkpt>
      <trkpt lat="42.93501" lon="1.25658">
        <ele>1350</ele>
        <time>2026-05-25T10:13:27.000Z</time>
      </trkpt>
      <trkpt lat="42.935" lon="1.25657">
        <ele>1352</ele>
        <time>2026-05-25T10:13:28.000Z</time>
      </trkpt>
      <trkpt lat="42.93499" lon="1.25655">
        <ele>1352</ele>
        <time>2026-05-25T10:13:29.000Z</time>
      </trkpt>
      <trkpt lat="42.93497" lon="1.25653">
        <ele>1353</ele>
        <time>2026-05-25T10:13:30.000Z</time>
      </trkpt>
      <trkpt lat="42.93496" lon="1.25651">
        <ele>1354</ele>
        <time>2026-05-25T10:13:31.000Z</time>
      </trkpt>
      <trkpt lat="42.93495" lon="1.2565">
        <ele>1353</ele>
        <time>2026-05-25T10:13:32.000Z</time>
      </trkpt>
      <trkpt lat="42.93494" lon="1.25649">
        <ele>1353</ele>
        <time>2026-05-25T10:13:33.000Z</time>
      </trkpt>
      <trkpt lat="42.93493" lon="1.25648">
        <ele>1353</ele>
        <time>2026-05-25T10:13:34.000Z</time>
      </trkpt>
      <trkpt lat="42.93492" lon="1.25646">
        <ele>1353</ele>
        <time>2026-05-25T10:13:35.000Z</time>
      </trkpt>
      <trkpt lat="42.93491" lon="1.25644">
        <ele>1354</ele>
        <time>2026-05-25T10:13:36.000Z</time>
      </trkpt>
      <trkpt lat="42.93489" lon="1.25643">
        <ele>1354</ele>
        <time>2026-05-25T10:13:37.000Z</time>
      </trkpt>
      <trkpt lat="42.93488" lon="1.25641">
        <ele>1353</ele>
        <time>2026-05-25T10:13:38.000Z</time>
      </trkpt>
      <trkpt lat="42.93487" lon="1.25639">
        <ele>1354</ele>
        <time>2026-05-25T10:13:39.000Z</time>
      </trkpt>
      <trkpt lat="42.93486" lon="1.25637">
        <ele>1353</ele>
        <time>2026-05-25T10:13:40.000Z</time>
      </trkpt>
      <trkpt lat="42.93484" lon="1.25636">
        <ele>1353</ele>
        <time>2026-05-25T10:13:41.000Z</time>
      </trkpt>
      <trkpt lat="42.93483" lon="1.25634">
        <ele>1354</ele>
        <time>2026-05-25T10:13:42.000Z</time>
      </trkpt>
      <trkpt lat="42.93482" lon="1.25632">
        <ele>1355</ele>
        <time>2026-05-25T10:13:43.000Z</time>
      </trkpt>
      <trkpt lat="42.93481" lon="1.2563">
        <ele>1355</ele>
        <time>2026-05-25T10:13:44.000Z</time>
      </trkpt>
      <trkpt lat="42.93479" lon="1.25628">
        <ele>1355</ele>
        <time>2026-05-25T10:13:45.000Z</time>
      </trkpt>
      <trkpt lat="42.93477" lon="1.25626">
        <ele>1355</ele>
        <time>2026-05-25T10:13:46.000Z</time>
      </trkpt>
      <trkpt lat="42.93475" lon="1.25624">
        <ele>1355</ele>
        <time>2026-05-25T10:13:47.000Z</time>
      </trkpt>
      <trkpt lat="42.93473" lon="1.25623">
        <ele>1355</ele>
        <time>2026-05-25T10:13:48.000Z</time>
      </trkpt>
      <trkpt lat="42.93472" lon="1.25621">
        <ele>1355</ele>
        <time>2026-05-25T10:13:49.000Z</time>
      </trkpt>
      <trkpt lat="42.9347" lon="1.25619">
        <ele>1355</ele>
        <time>2026-05-25T10:13:50.000Z</time>
      </trkpt>
      <trkpt lat="42.93468" lon="1.25618">
        <ele>1355</ele>
        <time>2026-05-25T10:13:51.000Z</time>
      </trkpt>
      <trkpt lat="42.93467" lon="1.25617">
        <ele>1355</ele>
        <time>2026-05-25T10:13:52.000Z</time>
      </trkpt>
      <trkpt lat="42.93466" lon="1.25615">
        <ele>1356</ele>
        <time>2026-05-25T10:13:53.000Z</time>
      </trkpt>
      <trkpt lat="42.93465" lon="1.25613">
        <ele>1356</ele>
        <time>2026-05-25T10:13:54.000Z</time>
      </trkpt>
      <trkpt lat="42.93464" lon="1.25612">
        <ele>1356</ele>
        <time>2026-05-25T10:13:55.000Z</time>
      </trkpt>
      <trkpt lat="42.93463" lon="1.25611">
        <ele>1357</ele>
        <time>2026-05-25T10:13:56.000Z</time>
      </trkpt>
      <trkpt lat="42.93461" lon="1.2561">
        <ele>1356</ele>
        <time>2026-05-25T10:13:57.000Z</time>
      </trkpt>
      <trkpt lat="42.9346" lon="1.25609">
        <ele>1356</ele>
        <time>2026-05-25T10:13:58.000Z</time>
      </trkpt>
      <trkpt lat="42.93458" lon="1.25608">
        <ele>1356</ele>
        <time>2026-05-25T10:13:59.000Z</time>
      </trkpt>
      <trkpt lat="42.93458" lon="1.25606">
        <ele>1356</ele>
        <time>2026-05-25T10:14:00.000Z</time>
      </trkpt>
      <trkpt lat="42.93457" lon="1.25605">
        <ele>1356</ele>
        <time>2026-05-25T10:14:01.000Z</time>
      </trkpt>
      <trkpt lat="42.93456" lon="1.25604">
        <ele>1356</ele>
        <time>2026-05-25T10:14:02.000Z</time>
      </trkpt>
      <trkpt lat="42.93455" lon="1.25602">
        <ele>1356</ele>
        <time>2026-05-25T10:14:03.000Z</time>
      </trkpt>
      <trkpt lat="42.93455" lon="1.256">
        <ele>1356</ele>
        <time>2026-05-25T10:14:04.000Z</time>
      </trkpt>
      <trkpt lat="42.93454" lon="1.25599">
        <ele>1357</ele>
        <time>2026-05-25T10:14:05.000Z</time>
      </trkpt>
      <trkpt lat="42.93454" lon="1.25597">
        <ele>1358</ele>
        <time>2026-05-25T10:14:06.000Z</time>
      </trkpt>
      <trkpt lat="42.93453" lon="1.25597">
        <ele>1358</ele>
        <time>2026-05-25T10:14:07.000Z</time>
      </trkpt>
      <trkpt lat="42.93452" lon="1.25596">
        <ele>1358</ele>
        <time>2026-05-25T10:14:08.000Z</time>
      </trkpt>
      <trkpt lat="42.93451" lon="1.25595">
        <ele>1359</ele>
        <time>2026-05-25T10:14:09.000Z</time>
      </trkpt>
      <trkpt lat="42.9345" lon="1.25594">
        <ele>1359</ele>
        <time>2026-05-25T10:14:10.000Z</time>
      </trkpt>
      <trkpt lat="42.93449" lon="1.25593">
        <ele>1360</ele>
        <time>2026-05-25T10:14:11.000Z</time>
      </trkpt>
      <trkpt lat="42.93448" lon="1.25591">
        <ele>1361</ele>
        <time>2026-05-25T10:14:12.000Z</time>
      </trkpt>
      <trkpt lat="42.93448" lon="1.2559">
        <ele>1361</ele>
        <time>2026-05-25T10:14:13.000Z</time>
      </trkpt>
      <trkpt lat="42.93446" lon="1.25589">
        <ele>1360</ele>
        <time>2026-05-25T10:14:14.000Z</time>
      </trkpt>
      <trkpt lat="42.93445" lon="1.25587">
        <ele>1360</ele>
        <time>2026-05-25T10:14:15.000Z</time>
      </trkpt>
      <trkpt lat="42.93444" lon="1.25586">
        <ele>1362</ele>
        <time>2026-05-25T10:14:16.000Z</time>
      </trkpt>
      <trkpt lat="42.93443" lon="1.25585">
        <ele>1362</ele>
        <time>2026-05-25T10:14:17.000Z</time>
      </trkpt>
      <trkpt lat="42.93442" lon="1.25583">
        <ele>1362</ele>
        <time>2026-05-25T10:14:18.000Z</time>
      </trkpt>
      <trkpt lat="42.93441" lon="1.25581">
        <ele>1363</ele>
        <time>2026-05-25T10:14:19.000Z</time>
      </trkpt>
      <trkpt lat="42.9344" lon="1.25581">
        <ele>1364</ele>
        <time>2026-05-25T10:14:20.000Z</time>
      </trkpt>
      <trkpt lat="42.93439" lon="1.2558">
        <ele>1364</ele>
        <time>2026-05-25T10:14:21.000Z</time>
      </trkpt>
      <trkpt lat="42.93439" lon="1.25578">
        <ele>1365</ele>
        <time>2026-05-25T10:14:22.000Z</time>
      </trkpt>
      <trkpt lat="42.93438" lon="1.25577">
        <ele>1367</ele>
        <time>2026-05-25T10:14:23.000Z</time>
      </trkpt>
      <trkpt lat="42.93437" lon="1.25575">
        <ele>1367</ele>
        <time>2026-05-25T10:14:24.000Z</time>
      </trkpt>
      <trkpt lat="42.93437" lon="1.25572">
        <ele>1368</ele>
        <time>2026-05-25T10:14:25.000Z</time>
      </trkpt>
      <trkpt lat="42.93435" lon="1.25572">
        <ele>1368</ele>
        <time>2026-05-25T10:14:26.000Z</time>
      </trkpt>
      <trkpt lat="42.93434" lon="1.25571">
        <ele>1368</ele>
        <time>2026-05-25T10:14:27.000Z</time>
      </trkpt>
      <trkpt lat="42.93432" lon="1.25569">
        <ele>1368</ele>
        <time>2026-05-25T10:14:28.000Z</time>
      </trkpt>
      <trkpt lat="42.93432" lon="1.25567">
        <ele>1369</ele>
        <time>2026-05-25T10:14:29.000Z</time>
      </trkpt>
      <trkpt lat="42.93431" lon="1.25566">
        <ele>1370</ele>
        <time>2026-05-25T10:14:30.000Z</time>
      </trkpt>
      <trkpt lat="42.9343" lon="1.25564">
        <ele>1369</ele>
        <time>2026-05-25T10:14:31.000Z</time>
      </trkpt>
      <trkpt lat="42.93429" lon="1.25563">
        <ele>1371</ele>
        <time>2026-05-25T10:14:32.000Z</time>
      </trkpt>
      <trkpt lat="42.93428" lon="1.25561">
        <ele>1371</ele>
        <time>2026-05-25T10:14:33.000Z</time>
      </trkpt>
      <trkpt lat="42.93427" lon="1.2556">
        <ele>1372</ele>
        <time>2026-05-25T10:14:34.000Z</time>
      </trkpt>
      <trkpt lat="42.93427" lon="1.25558">
        <ele>1372</ele>
        <time>2026-05-25T10:14:35.000Z</time>
      </trkpt>
      <trkpt lat="42.93426" lon="1.25555">
        <ele>1373</ele>
        <time>2026-05-25T10:14:36.000Z</time>
      </trkpt>
      <trkpt lat="42.93424" lon="1.25554">
        <ele>1374</ele>
        <time>2026-05-25T10:14:37.000Z</time>
      </trkpt>
      <trkpt lat="42.93423" lon="1.25552">
        <ele>1375</ele>
        <time>2026-05-25T10:14:38.000Z</time>
      </trkpt>
      <trkpt lat="42.93422" lon="1.25552">
        <ele>1375</ele>
        <time>2026-05-25T10:14:39.000Z</time>
      </trkpt>
      <trkpt lat="42.9342" lon="1.2555">
        <ele>1374</ele>
        <time>2026-05-25T10:14:40.000Z</time>
      </trkpt>
      <trkpt lat="42.93419" lon="1.25548">
        <ele>1375</ele>
        <time>2026-05-25T10:14:41.000Z</time>
      </trkpt>
      <trkpt lat="42.93418" lon="1.25547">
        <ele>1375</ele>
        <time>2026-05-25T10:14:42.000Z</time>
      </trkpt>
      <trkpt lat="42.93416" lon="1.25545">
        <ele>1375</ele>
        <time>2026-05-25T10:14:43.000Z</time>
      </trkpt>
      <trkpt lat="42.93415" lon="1.25543">
        <ele>1374</ele>
        <time>2026-05-25T10:14:44.000Z</time>
      </trkpt>
      <trkpt lat="42.93413" lon="1.25541">
        <ele>1374</ele>
        <time>2026-05-25T10:14:45.000Z</time>
      </trkpt>
      <trkpt lat="42.93411" lon="1.25538">
        <ele>1374</ele>
        <time>2026-05-25T10:14:46.000Z</time>
      </trkpt>
      <trkpt lat="42.9341" lon="1.25535">
        <ele>1373</ele>
        <time>2026-05-25T10:14:47.000Z</time>
      </trkpt>
      <trkpt lat="42.93409" lon="1.25532">
        <ele>1372</ele>
        <time>2026-05-25T10:14:48.000Z</time>
      </trkpt>
      <trkpt lat="42.93407" lon="1.25531">
        <ele>1372</ele>
        <time>2026-05-25T10:14:49.000Z</time>
      </trkpt>
      <trkpt lat="42.93406" lon="1.25528">
        <ele>1372</ele>
        <time>2026-05-25T10:14:50.000Z</time>
      </trkpt>
      <trkpt lat="42.93405" lon="1.25526">
        <ele>1373</ele>
        <time>2026-05-25T10:14:51.000Z</time>
      </trkpt>
      <trkpt lat="42.93404" lon="1.25524">
        <ele>1373</ele>
        <time>2026-05-25T10:14:52.000Z</time>
      </trkpt>
      <trkpt lat="42.93403" lon="1.25521">
        <ele>1373</ele>
        <time>2026-05-25T10:14:53.000Z</time>
      </trkpt>
      <trkpt lat="42.93402" lon="1.25518">
        <ele>1373</ele>
        <time>2026-05-25T10:14:54.000Z</time>
      </trkpt>
      <trkpt lat="42.93401" lon="1.25516">
        <ele>1373</ele>
        <time>2026-05-25T10:14:55.000Z</time>
      </trkpt>
      <trkpt lat="42.93399" lon="1.25513">
        <ele>1372</ele>
        <time>2026-05-25T10:14:56.000Z</time>
      </trkpt>
      <trkpt lat="42.93398" lon="1.2551">
        <ele>1371</ele>
        <time>2026-05-25T10:14:57.000Z</time>
      </trkpt>
      <trkpt lat="42.93397" lon="1.25507">
        <ele>1370</ele>
        <time>2026-05-25T10:14:58.000Z</time>
      </trkpt>
      <trkpt lat="42.93397" lon="1.25506">
        <ele>1370</ele>
        <time>2026-05-25T10:14:59.000Z</time>
      </trkpt>
      <trkpt lat="42.93396" lon="1.25504">
        <ele>1369</ele>
        <time>2026-05-25T10:15:00.000Z</time>
      </trkpt>
      <trkpt lat="42.93396" lon="1.25501">
        <ele>1369</ele>
        <time>2026-05-25T10:15:01.000Z</time>
      </trkpt>
      <trkpt lat="42.93395" lon="1.25498">
        <ele>1369</ele>
        <time>2026-05-25T10:15:02.000Z</time>
      </trkpt>
      <trkpt lat="42.93394" lon="1.25496">
        <ele>1369</ele>
        <time>2026-05-25T10:15:03.000Z</time>
      </trkpt>
      <trkpt lat="42.93393" lon="1.25493">
        <ele>1368</ele>
        <time>2026-05-25T10:15:04.000Z</time>
      </trkpt>
      <trkpt lat="42.93393" lon="1.25488">
        <ele>1367</ele>
        <time>2026-05-25T10:15:05.000Z</time>
      </trkpt>
      <trkpt lat="42.93391" lon="1.25482">
        <ele>1366</ele>
        <time>2026-05-25T10:15:06.000Z</time>
      </trkpt>
      <trkpt lat="42.93389" lon="1.25477">
        <ele>1365</ele>
        <time>2026-05-25T10:15:07.000Z</time>
      </trkpt>
      <trkpt lat="42.93388" lon="1.2547">
        <ele>1363</ele>
        <time>2026-05-25T10:15:08.000Z</time>
      </trkpt>
      <trkpt lat="42.93386" lon="1.25463">
        <ele>1364</ele>
        <time>2026-05-25T10:15:09.000Z</time>
      </trkpt>
      <trkpt lat="42.93385" lon="1.25456">
        <ele>1364</ele>
        <time>2026-05-25T10:15:10.000Z</time>
      </trkpt>
      <trkpt lat="42.93386" lon="1.2545">
        <ele>1364</ele>
        <time>2026-05-25T10:15:11.000Z</time>
      </trkpt>
      <trkpt lat="42.93386" lon="1.25443">
        <ele>1365</ele>
        <time>2026-05-25T10:15:12.000Z</time>
      </trkpt>
      <trkpt lat="42.93386" lon="1.25437">
        <ele>1365</ele>
        <time>2026-05-25T10:15:13.000Z</time>
      </trkpt>
      <trkpt lat="42.93387" lon="1.2543">
        <ele>1365</ele>
        <time>2026-05-25T10:15:14.000Z</time>
      </trkpt>
      <trkpt lat="42.93388" lon="1.25423">
        <ele>1365</ele>
        <time>2026-05-25T10:15:15.000Z</time>
      </trkpt>
      <trkpt lat="42.93388" lon="1.25416">
        <ele>1364</ele>
        <time>2026-05-25T10:15:16.000Z</time>
      </trkpt>
      <trkpt lat="42.93388" lon="1.2541">
        <ele>1364</ele>
        <time>2026-05-25T10:15:17.000Z</time>
      </trkpt>
      <trkpt lat="42.93389" lon="1.25403">
        <ele>1364</ele>
        <time>2026-05-25T10:15:18.000Z</time>
      </trkpt>
      <trkpt lat="42.93388" lon="1.25396">
        <ele>1363</ele>
        <time>2026-05-25T10:15:19.000Z</time>
      </trkpt>
      <trkpt lat="42.93387" lon="1.2539">
        <ele>1363</ele>
        <time>2026-05-25T10:15:20.000Z</time>
      </trkpt>
      <trkpt lat="42.93386" lon="1.25384">
        <ele>1362</ele>
        <time>2026-05-25T10:15:21.000Z</time>
      </trkpt>
      <trkpt lat="42.93384" lon="1.25378">
        <ele>1362</ele>
        <time>2026-05-25T10:15:22.000Z</time>
      </trkpt>
      <trkpt lat="42.93383" lon="1.25371">
        <ele>1361</ele>
        <time>2026-05-25T10:15:23.000Z</time>
      </trkpt>
      <trkpt lat="42.93381" lon="1.25365">
        <ele>1361</ele>
        <time>2026-05-25T10:15:24.000Z</time>
      </trkpt>
      <trkpt lat="42.93379" lon="1.25358">
        <ele>1360</ele>
        <time>2026-05-25T10:15:25.000Z</time>
      </trkpt>
      <trkpt lat="42.93378" lon="1.25352">
        <ele>1360</ele>
        <time>2026-05-25T10:15:26.000Z</time>
      </trkpt>
      <trkpt lat="42.93376" lon="1.25346">
        <ele>1360</ele>
        <time>2026-05-25T10:15:27.000Z</time>
      </trkpt>
      <trkpt lat="42.93375" lon="1.25341">
        <ele>1360</ele>
        <time>2026-05-25T10:15:28.000Z</time>
      </trkpt>
      <trkpt lat="42.93374" lon="1.25336">
        <ele>1360</ele>
        <time>2026-05-25T10:15:29.000Z</time>
      </trkpt>
      <trkpt lat="42.93372" lon="1.25332">
        <ele>1361</ele>
        <time>2026-05-25T10:15:30.000Z</time>
      </trkpt>
      <trkpt lat="42.9337" lon="1.2533">
        <ele>1360</ele>
        <time>2026-05-25T10:15:31.000Z</time>
      </trkpt>
      <trkpt lat="42.93367" lon="1.25331">
        <ele>1360</ele>
        <time>2026-05-25T10:15:32.000Z</time>
      </trkpt>
      <trkpt lat="42.93364" lon="1.25334">
        <ele>1360</ele>
        <time>2026-05-25T10:15:33.000Z</time>
      </trkpt>
      <trkpt lat="42.9336" lon="1.25338">
        <ele>1360</ele>
        <time>2026-05-25T10:15:34.000Z</time>
      </trkpt>
      <trkpt lat="42.93357" lon="1.25342">
        <ele>1359</ele>
        <time>2026-05-25T10:15:35.000Z</time>
      </trkpt>
      <trkpt lat="42.93353" lon="1.25347">
        <ele>1358</ele>
        <time>2026-05-25T10:15:36.000Z</time>
      </trkpt>
      <trkpt lat="42.93349" lon="1.25353">
        <ele>1358</ele>
        <time>2026-05-25T10:15:37.000Z</time>
      </trkpt>
      <trkpt lat="42.93345" lon="1.25359">
        <ele>1357</ele>
        <time>2026-05-25T10:15:38.000Z</time>
      </trkpt>
      <trkpt lat="42.93342" lon="1.25364">
        <ele>1356</ele>
        <time>2026-05-25T10:15:39.000Z</time>
      </trkpt>
      <trkpt lat="42.93338" lon="1.25371">
        <ele>1354</ele>
        <time>2026-05-25T10:15:40.000Z</time>
      </trkpt>
      <trkpt lat="42.93335" lon="1.25376">
        <ele>1353</ele>
        <time>2026-05-25T10:15:41.000Z</time>
      </trkpt>
      <trkpt lat="42.93332" lon="1.2538">
        <ele>1353</ele>
        <time>2026-05-25T10:15:42.000Z</time>
      </trkpt>
      <trkpt lat="42.93328" lon="1.25387">
        <ele>1353</ele>
        <time>2026-05-25T10:15:43.000Z</time>
      </trkpt>
      <trkpt lat="42.93325" lon="1.25393">
        <ele>1352</ele>
        <time>2026-05-25T10:15:44.000Z</time>
      </trkpt>
      <trkpt lat="42.93321" lon="1.25399">
        <ele>1352</ele>
        <time>2026-05-25T10:15:45.000Z</time>
      </trkpt>
      <trkpt lat="42.93317" lon="1.25405">
        <ele>1351</ele>
        <time>2026-05-25T10:15:46.000Z</time>
      </trkpt>
      <trkpt lat="42.93314" lon="1.25412">
        <ele>1351</ele>
        <time>2026-05-25T10:15:47.000Z</time>
      </trkpt>
      <trkpt lat="42.93311" lon="1.25417">
        <ele>1350</ele>
        <time>2026-05-25T10:15:48.000Z</time>
      </trkpt>
      <trkpt lat="42.93308" lon="1.25424">
        <ele>1350</ele>
        <time>2026-05-25T10:15:49.000Z</time>
      </trkpt>
      <trkpt lat="42.93305" lon="1.25429">
        <ele>1348</ele>
        <time>2026-05-25T10:15:50.000Z</time>
      </trkpt>
      <trkpt lat="42.93302" lon="1.25435">
        <ele>1347</ele>
        <time>2026-05-25T10:15:51.000Z</time>
      </trkpt>
      <trkpt lat="42.93299" lon="1.25441">
        <ele>1346</ele>
        <time>2026-05-25T10:15:52.000Z</time>
      </trkpt>
      <trkpt lat="42.93296" lon="1.25446">
        <ele>1345</ele>
        <time>2026-05-25T10:15:53.000Z</time>
      </trkpt>
      <trkpt lat="42.93293" lon="1.25451">
        <ele>1344</ele>
        <time>2026-05-25T10:15:54.000Z</time>
      </trkpt>
      <trkpt lat="42.93291" lon="1.25457">
        <ele>1343</ele>
        <time>2026-05-25T10:15:55.000Z</time>
      </trkpt>
      <trkpt lat="42.93288" lon="1.25464">
        <ele>1342</ele>
        <time>2026-05-25T10:15:56.000Z</time>
      </trkpt>
      <trkpt lat="42.93285" lon="1.25472">
        <ele>1342</ele>
        <time>2026-05-25T10:15:57.000Z</time>
      </trkpt>
      <trkpt lat="42.93282" lon="1.2548">
        <ele>1342</ele>
        <time>2026-05-25T10:15:58.000Z</time>
      </trkpt>
      <trkpt lat="42.93279" lon="1.25487">
        <ele>1342</ele>
        <time>2026-05-25T10:15:59.000Z</time>
      </trkpt>
      <trkpt lat="42.93277" lon="1.25493">
        <ele>1342</ele>
        <time>2026-05-25T10:16:00.000Z</time>
      </trkpt>
      <trkpt lat="42.93275" lon="1.25501">
        <ele>1342</ele>
        <time>2026-05-25T10:16:01.000Z</time>
      </trkpt>
      <trkpt lat="42.93272" lon="1.25509">
        <ele>1342</ele>
        <time>2026-05-25T10:16:02.000Z</time>
      </trkpt>
      <trkpt lat="42.9327" lon="1.25515">
        <ele>1343</ele>
        <time>2026-05-25T10:16:03.000Z</time>
      </trkpt>
      <trkpt lat="42.93268" lon="1.25522">
        <ele>1343</ele>
        <time>2026-05-25T10:16:04.000Z</time>
      </trkpt>
      <trkpt lat="42.93266" lon="1.25529">
        <ele>1343</ele>
        <time>2026-05-25T10:16:05.000Z</time>
      </trkpt>
      <trkpt lat="42.93262" lon="1.25535">
        <ele>1343</ele>
        <time>2026-05-25T10:16:06.000Z</time>
      </trkpt>
      <trkpt lat="42.93258" lon="1.2554">
        <ele>1342</ele>
        <time>2026-05-25T10:16:07.000Z</time>
      </trkpt>
      <trkpt lat="42.93254" lon="1.25545">
        <ele>1342</ele>
        <time>2026-05-25T10:16:08.000Z</time>
      </trkpt>
      <trkpt lat="42.9325" lon="1.2555">
        <ele>1340</ele>
        <time>2026-05-25T10:16:09.000Z</time>
      </trkpt>
      <trkpt lat="42.93246" lon="1.25552">
        <ele>1339</ele>
        <time>2026-05-25T10:16:10.000Z</time>
      </trkpt>
      <trkpt lat="42.93241" lon="1.25554">
        <ele>1338</ele>
        <time>2026-05-25T10:16:11.000Z</time>
      </trkpt>
      <trkpt lat="42.93236" lon="1.25556">
        <ele>1337</ele>
        <time>2026-05-25T10:16:12.000Z</time>
      </trkpt>
      <trkpt lat="42.93232" lon="1.25558">
        <ele>1336</ele>
        <time>2026-05-25T10:16:13.000Z</time>
      </trkpt>
      <trkpt lat="42.93228" lon="1.25559">
        <ele>1335</ele>
        <time>2026-05-25T10:16:14.000Z</time>
      </trkpt>
      <trkpt lat="42.93224" lon="1.25559">
        <ele>1335</ele>
        <time>2026-05-25T10:16:15.000Z</time>
      </trkpt>
      <trkpt lat="42.93221" lon="1.25558">
        <ele>1334</ele>
        <time>2026-05-25T10:16:16.000Z</time>
      </trkpt>
      <trkpt lat="42.93219" lon="1.25557">
        <ele>1333</ele>
        <time>2026-05-25T10:16:17.000Z</time>
      </trkpt>
      <trkpt lat="42.93218" lon="1.25552">
        <ele>1332</ele>
        <time>2026-05-25T10:16:18.000Z</time>
      </trkpt>
      <trkpt lat="42.93216" lon="1.25546">
        <ele>1332</ele>
        <time>2026-05-25T10:16:19.000Z</time>
      </trkpt>
      <trkpt lat="42.93217" lon="1.25539">
        <ele>1332</ele>
        <time>2026-05-25T10:16:20.000Z</time>
      </trkpt>
      <trkpt lat="42.93217" lon="1.25533">
        <ele>1330</ele>
        <time>2026-05-25T10:16:21.000Z</time>
      </trkpt>
      <trkpt lat="42.93218" lon="1.25527">
        <ele>1329</ele>
        <time>2026-05-25T10:16:22.000Z</time>
      </trkpt>
      <trkpt lat="42.93218" lon="1.25519">
        <ele>1328</ele>
        <time>2026-05-25T10:16:23.000Z</time>
      </trkpt>
      <trkpt lat="42.9322" lon="1.25512">
        <ele>1327</ele>
        <time>2026-05-25T10:16:24.000Z</time>
      </trkpt>
      <trkpt lat="42.93221" lon="1.25506">
        <ele>1326</ele>
        <time>2026-05-25T10:16:25.000Z</time>
      </trkpt>
      <trkpt lat="42.93222" lon="1.25499">
        <ele>1325</ele>
        <time>2026-05-25T10:16:26.000Z</time>
      </trkpt>
      <trkpt lat="42.93222" lon="1.25492">
        <ele>1325</ele>
        <time>2026-05-25T10:16:27.000Z</time>
      </trkpt>
      <trkpt lat="42.93222" lon="1.25484">
        <ele>1325</ele>
        <time>2026-05-25T10:16:28.000Z</time>
      </trkpt>
      <trkpt lat="42.93221" lon="1.25476">
        <ele>1324</ele>
        <time>2026-05-25T10:16:29.000Z</time>
      </trkpt>
      <trkpt lat="42.93222" lon="1.25469">
        <ele>1322</ele>
        <time>2026-05-25T10:16:30.000Z</time>
      </trkpt>
      <trkpt lat="42.9322" lon="1.25463">
        <ele>1320</ele>
        <time>2026-05-25T10:16:31.000Z</time>
      </trkpt>
      <trkpt lat="42.93218" lon="1.25461">
        <ele>1318</ele>
        <time>2026-05-25T10:16:32.000Z</time>
      </trkpt>
      <trkpt lat="42.93217" lon="1.25462">
        <ele>1317</ele>
        <time>2026-05-25T10:16:33.000Z</time>
      </trkpt>
      <trkpt lat="42.93217" lon="1.25465">
        <ele>1315</ele>
        <time>2026-05-25T10:16:34.000Z</time>
      </trkpt>
      <trkpt lat="42.93216" lon="1.2547">
        <ele>1313</ele>
        <time>2026-05-25T10:16:35.000Z</time>
      </trkpt>
      <trkpt lat="42.93216" lon="1.25475">
        <ele>1310</ele>
        <time>2026-05-25T10:16:36.000Z</time>
      </trkpt>
      <trkpt lat="42.93216" lon="1.25482">
        <ele>1306</ele>
        <time>2026-05-25T10:16:37.000Z</time>
      </trkpt>
      <trkpt lat="42.93213" lon="1.25487">
        <ele>1303</ele>
        <time>2026-05-25T10:16:38.000Z</time>
      </trkpt>
      <trkpt lat="42.93209" lon="1.25495">
        <ele>1302</ele>
        <time>2026-05-25T10:16:39.000Z</time>
      </trkpt>
      <trkpt lat="42.93205" lon="1.255">
        <ele>1301</ele>
        <time>2026-05-25T10:16:40.000Z</time>
      </trkpt>
      <trkpt lat="42.93201" lon="1.25505">
        <ele>1300</ele>
        <time>2026-05-25T10:16:41.000Z</time>
      </trkpt>
      <trkpt lat="42.93196" lon="1.25509">
        <ele>1300</ele>
        <time>2026-05-25T10:16:42.000Z</time>
      </trkpt>
      <trkpt lat="42.9319" lon="1.25515">
        <ele>1299</ele>
        <time>2026-05-25T10:16:43.000Z</time>
      </trkpt>
      <trkpt lat="42.93185" lon="1.2552">
        <ele>1299</ele>
        <time>2026-05-25T10:16:44.000Z</time>
      </trkpt>
      <trkpt lat="42.9318" lon="1.25525">
        <ele>1298</ele>
        <time>2026-05-25T10:16:45.000Z</time>
      </trkpt>
      <trkpt lat="42.93174" lon="1.25529">
        <ele>1297</ele>
        <time>2026-05-25T10:16:46.000Z</time>
      </trkpt>
      <trkpt lat="42.93169" lon="1.25534">
        <ele>1297</ele>
        <time>2026-05-25T10:16:47.000Z</time>
      </trkpt>
      <trkpt lat="42.93164" lon="1.25538">
        <ele>1297</ele>
        <time>2026-05-25T10:16:48.000Z</time>
      </trkpt>
      <trkpt lat="42.9316" lon="1.25541">
        <ele>1297</ele>
        <time>2026-05-25T10:16:49.000Z</time>
      </trkpt>
      <trkpt lat="42.93155" lon="1.25542">
        <ele>1296</ele>
        <time>2026-05-25T10:16:50.000Z</time>
      </trkpt>
      <trkpt lat="42.93149" lon="1.25543">
        <ele>1296</ele>
        <time>2026-05-25T10:16:51.000Z</time>
      </trkpt>
      <trkpt lat="42.93143" lon="1.25545">
        <ele>1294</ele>
        <time>2026-05-25T10:16:52.000Z</time>
      </trkpt>
      <trkpt lat="42.93139" lon="1.25545">
        <ele>1294</ele>
        <time>2026-05-25T10:16:53.000Z</time>
      </trkpt>
      <trkpt lat="42.93135" lon="1.25544">
        <ele>1294</ele>
        <time>2026-05-25T10:16:54.000Z</time>
      </trkpt>
      <trkpt lat="42.93131" lon="1.25543">
        <ele>1294</ele>
        <time>2026-05-25T10:16:55.000Z</time>
      </trkpt>
      <trkpt lat="42.93126" lon="1.25541">
        <ele>1294</ele>
        <time>2026-05-25T10:16:56.000Z</time>
      </trkpt>
      <trkpt lat="42.93121" lon="1.25539">
        <ele>1293</ele>
        <time>2026-05-25T10:16:57.000Z</time>
      </trkpt>
      <trkpt lat="42.93117" lon="1.25537">
        <ele>1292</ele>
        <time>2026-05-25T10:16:58.000Z</time>
      </trkpt>
      <trkpt lat="42.93112" lon="1.25535">
        <ele>1292</ele>
        <time>2026-05-25T10:16:59.000Z</time>
      </trkpt>
      <trkpt lat="42.93105" lon="1.25534">
        <ele>1291</ele>
        <time>2026-05-25T10:17:00.000Z</time>
      </trkpt>
      <trkpt lat="42.93098" lon="1.25534">
        <ele>1291</ele>
        <time>2026-05-25T10:17:01.000Z</time>
      </trkpt>
      <trkpt lat="42.93092" lon="1.25536">
        <ele>1290</ele>
        <time>2026-05-25T10:17:02.000Z</time>
      </trkpt>
      <trkpt lat="42.93084" lon="1.25539">
        <ele>1289</ele>
        <time>2026-05-25T10:17:03.000Z</time>
      </trkpt>
      <trkpt lat="42.93078" lon="1.25543">
        <ele>1287</ele>
        <time>2026-05-25T10:17:04.000Z</time>
      </trkpt>
      <trkpt lat="42.93073" lon="1.25547">
        <ele>1285</ele>
        <time>2026-05-25T10:17:05.000Z</time>
      </trkpt>
      <trkpt lat="42.93068" lon="1.25551">
        <ele>1284</ele>
        <time>2026-05-25T10:17:06.000Z</time>
      </trkpt>
      <trkpt lat="42.93065" lon="1.25553">
        <ele>1283</ele>
        <time>2026-05-25T10:17:07.000Z</time>
      </trkpt>
      <trkpt lat="42.93062" lon="1.25556">
        <ele>1282</ele>
        <time>2026-05-25T10:17:08.000Z</time>
      </trkpt>
      <trkpt lat="42.9306" lon="1.25558">
        <ele>1282</ele>
        <time>2026-05-25T10:17:09.000Z</time>
      </trkpt>
      <trkpt lat="42.93058" lon="1.2556">
        <ele>1282</ele>
        <time>2026-05-25T10:17:10.000Z</time>
      </trkpt>
      <trkpt lat="42.93056" lon="1.25562">
        <ele>1281</ele>
        <time>2026-05-25T10:17:11.000Z</time>
      </trkpt>
      <trkpt lat="42.93054" lon="1.25564">
        <ele>1281</ele>
        <time>2026-05-25T10:17:12.000Z</time>
      </trkpt>
      <trkpt lat="42.93052" lon="1.25568">
        <ele>1281</ele>
        <time>2026-05-25T10:17:13.000Z</time>
      </trkpt>
      <trkpt lat="42.9305" lon="1.25572">
        <ele>1281</ele>
        <time>2026-05-25T10:17:14.000Z</time>
      </trkpt>
      <trkpt lat="42.93048" lon="1.25576">
        <ele>1280</ele>
        <time>2026-05-25T10:17:15.000Z</time>
      </trkpt>
      <trkpt lat="42.93046" lon="1.2558">
        <ele>1280</ele>
        <time>2026-05-25T10:17:16.000Z</time>
      </trkpt>
      <trkpt lat="42.93044" lon="1.25584">
        <ele>1279</ele>
        <time>2026-05-25T10:17:17.000Z</time>
      </trkpt>
      <trkpt lat="42.93041" lon="1.25589">
        <ele>1278</ele>
        <time>2026-05-25T10:17:18.000Z</time>
      </trkpt>
      <trkpt lat="42.93038" lon="1.25594">
        <ele>1278</ele>
        <time>2026-05-25T10:17:19.000Z</time>
      </trkpt>
      <trkpt lat="42.93037" lon="1.25598">
        <ele>1278</ele>
        <time>2026-05-25T10:17:20.000Z</time>
      </trkpt>
      <trkpt lat="42.93034" lon="1.25602">
        <ele>1278</ele>
        <time>2026-05-25T10:17:21.000Z</time>
      </trkpt>
      <trkpt lat="42.93032" lon="1.25606">
        <ele>1278</ele>
        <time>2026-05-25T10:17:22.000Z</time>
      </trkpt>
      <trkpt lat="42.9303" lon="1.2561">
        <ele>1278</ele>
        <time>2026-05-25T10:17:23.000Z</time>
      </trkpt>
      <trkpt lat="42.93028" lon="1.25613">
        <ele>1278</ele>
        <time>2026-05-25T10:17:24.000Z</time>
      </trkpt>
      <trkpt lat="42.93026" lon="1.25617">
        <ele>1278</ele>
        <time>2026-05-25T10:17:25.000Z</time>
      </trkpt>
      <trkpt lat="42.93024" lon="1.25621">
        <ele>1279</ele>
        <time>2026-05-25T10:17:26.000Z</time>
      </trkpt>
      <trkpt lat="42.93022" lon="1.25626">
        <ele>1279</ele>
        <time>2026-05-25T10:17:27.000Z</time>
      </trkpt>
      <trkpt lat="42.9302" lon="1.25629">
        <ele>1279</ele>
        <time>2026-05-25T10:17:28.000Z</time>
      </trkpt>
      <trkpt lat="42.93018" lon="1.25632">
        <ele>1280</ele>
        <time>2026-05-25T10:17:29.000Z</time>
      </trkpt>
      <trkpt lat="42.93018" lon="1.25636">
        <ele>1280</ele>
        <time>2026-05-25T10:17:30.000Z</time>
      </trkpt>
      <trkpt lat="42.93016" lon="1.25641">
        <ele>1280</ele>
        <time>2026-05-25T10:17:31.000Z</time>
      </trkpt>
      <trkpt lat="42.93014" lon="1.25646">
        <ele>1281</ele>
        <time>2026-05-25T10:17:32.000Z</time>
      </trkpt>
      <trkpt lat="42.93012" lon="1.25652">
        <ele>1282</ele>
        <time>2026-05-25T10:17:33.000Z</time>
      </trkpt>
      <trkpt lat="42.9301" lon="1.25658">
        <ele>1282</ele>
        <time>2026-05-25T10:17:34.000Z</time>
      </trkpt>
      <trkpt lat="42.93009" lon="1.25661">
        <ele>1282</ele>
        <time>2026-05-25T10:17:35.000Z</time>
      </trkpt>
      <trkpt lat="42.93007" lon="1.25667">
        <ele>1282</ele>
        <time>2026-05-25T10:17:36.000Z</time>
      </trkpt>
      <trkpt lat="42.93005" lon="1.25671">
        <ele>1283</ele>
        <time>2026-05-25T10:17:37.000Z</time>
      </trkpt>
      <trkpt lat="42.93004" lon="1.25677">
        <ele>1283</ele>
        <time>2026-05-25T10:17:38.000Z</time>
      </trkpt>
      <trkpt lat="42.93003" lon="1.25683">
        <ele>1283</ele>
        <time>2026-05-25T10:17:39.000Z</time>
      </trkpt>
      <trkpt lat="42.93002" lon="1.25689">
        <ele>1284</ele>
        <time>2026-05-25T10:17:40.000Z</time>
      </trkpt>
      <trkpt lat="42.93001" lon="1.25695">
        <ele>1284</ele>
        <time>2026-05-25T10:17:41.000Z</time>
      </trkpt>
      <trkpt lat="42.93" lon="1.257">
        <ele>1285</ele>
        <time>2026-05-25T10:17:42.000Z</time>
      </trkpt>
      <trkpt lat="42.93" lon="1.25706">
        <ele>1285</ele>
        <time>2026-05-25T10:17:43.000Z</time>
      </trkpt>
      <trkpt lat="42.93" lon="1.25711">
        <ele>1286</ele>
        <time>2026-05-25T10:17:44.000Z</time>
      </trkpt>
      <trkpt lat="42.93" lon="1.25717">
        <ele>1286</ele>
        <time>2026-05-25T10:17:45.000Z</time>
      </trkpt>
      <trkpt lat="42.93" lon="1.25723">
        <ele>1287</ele>
        <time>2026-05-25T10:17:46.000Z</time>
      </trkpt>
      <trkpt lat="42.93" lon="1.25728">
        <ele>1287</ele>
        <time>2026-05-25T10:17:47.000Z</time>
      </trkpt>
      <trkpt lat="42.93" lon="1.25734">
        <ele>1287</ele>
        <time>2026-05-25T10:17:48.000Z</time>
      </trkpt>
      <trkpt lat="42.93" lon="1.25739">
        <ele>1287</ele>
        <time>2026-05-25T10:17:49.000Z</time>
      </trkpt>
      <trkpt lat="42.92999" lon="1.25744">
        <ele>1288</ele>
        <time>2026-05-25T10:17:50.000Z</time>
      </trkpt>
      <trkpt lat="42.92998" lon="1.2575">
        <ele>1289</ele>
        <time>2026-05-25T10:17:51.000Z</time>
      </trkpt>
      <trkpt lat="42.92998" lon="1.25754">
        <ele>1289</ele>
        <time>2026-05-25T10:17:52.000Z</time>
      </trkpt>
      <trkpt lat="42.92998" lon="1.2576">
        <ele>1290</ele>
        <time>2026-05-25T10:17:53.000Z</time>
      </trkpt>
      <trkpt lat="42.92998" lon="1.25766">
        <ele>1290</ele>
        <time>2026-05-25T10:17:54.000Z</time>
      </trkpt>
      <trkpt lat="42.92998" lon="1.25773">
        <ele>1290</ele>
        <time>2026-05-25T10:17:55.000Z</time>
      </trkpt>
      <trkpt lat="42.92999" lon="1.25781">
        <ele>1289</ele>
        <time>2026-05-25T10:17:56.000Z</time>
      </trkpt>
      <trkpt lat="42.92999" lon="1.25787">
        <ele>1288</ele>
        <time>2026-05-25T10:17:57.000Z</time>
      </trkpt>
      <trkpt lat="42.93" lon="1.25792">
        <ele>1287</ele>
        <time>2026-05-25T10:17:58.000Z</time>
      </trkpt>
      <trkpt lat="42.93" lon="1.25798">
        <ele>1287</ele>
        <time>2026-05-25T10:17:59.000Z</time>
      </trkpt>
      <trkpt lat="42.93001" lon="1.25803">
        <ele>1287</ele>
        <time>2026-05-25T10:18:00.000Z</time>
      </trkpt>
      <trkpt lat="42.93003" lon="1.25808">
        <ele>1287</ele>
        <time>2026-05-25T10:18:01.000Z</time>
      </trkpt>
      <trkpt lat="42.93004" lon="1.25814">
        <ele>1286</ele>
        <time>2026-05-25T10:18:02.000Z</time>
      </trkpt>
      <trkpt lat="42.93005" lon="1.25819">
        <ele>1286</ele>
        <time>2026-05-25T10:18:03.000Z</time>
      </trkpt>
      <trkpt lat="42.93006" lon="1.25823">
        <ele>1286</ele>
        <time>2026-05-25T10:18:04.000Z</time>
      </trkpt>
      <trkpt lat="42.93008" lon="1.25829">
        <ele>1286</ele>
        <time>2026-05-25T10:18:05.000Z</time>
      </trkpt>
      <trkpt lat="42.93009" lon="1.25834">
        <ele>1286</ele>
        <time>2026-05-25T10:18:06.000Z</time>
      </trkpt>
      <trkpt lat="42.9301" lon="1.25839">
        <ele>1286</ele>
        <time>2026-05-25T10:18:07.000Z</time>
      </trkpt>
      <trkpt lat="42.93012" lon="1.25844">
        <ele>1286</ele>
        <time>2026-05-25T10:18:08.000Z</time>
      </trkpt>
      <trkpt lat="42.93014" lon="1.25848">
        <ele>1287</ele>
        <time>2026-05-25T10:18:09.000Z</time>
      </trkpt>
      <trkpt lat="42.93015" lon="1.25853">
        <ele>1287</ele>
        <time>2026-05-25T10:18:10.000Z</time>
      </trkpt>
      <trkpt lat="42.93017" lon="1.25858">
        <ele>1287</ele>
        <time>2026-05-25T10:18:11.000Z</time>
      </trkpt>
      <trkpt lat="42.93019" lon="1.25862">
        <ele>1287</ele>
        <time>2026-05-25T10:18:12.000Z</time>
      </trkpt>
      <trkpt lat="42.9302" lon="1.25866">
        <ele>1287</ele>
        <time>2026-05-25T10:18:13.000Z</time>
      </trkpt>
      <trkpt lat="42.93021" lon="1.2587">
        <ele>1288</ele>
        <time>2026-05-25T10:18:14.000Z</time>
      </trkpt>
      <trkpt lat="42.93022" lon="1.25877">
        <ele>1288</ele>
        <time>2026-05-25T10:18:15.000Z</time>
      </trkpt>
      <trkpt lat="42.93024" lon="1.25882">
        <ele>1289</ele>
        <time>2026-05-25T10:18:16.000Z</time>
      </trkpt>
      <trkpt lat="42.93026" lon="1.25888">
        <ele>1288</ele>
        <time>2026-05-25T10:18:17.000Z</time>
      </trkpt>
      <trkpt lat="42.93027" lon="1.25894">
        <ele>1288</ele>
        <time>2026-05-25T10:18:18.000Z</time>
      </trkpt>
      <trkpt lat="42.93029" lon="1.25899">
        <ele>1289</ele>
        <time>2026-05-25T10:18:19.000Z</time>
      </trkpt>
      <trkpt lat="42.93031" lon="1.25906">
        <ele>1288</ele>
        <time>2026-05-25T10:18:20.000Z</time>
      </trkpt>
      <trkpt lat="42.93031" lon="1.2591">
        <ele>1289</ele>
        <time>2026-05-25T10:18:21.000Z</time>
      </trkpt>
      <trkpt lat="42.93032" lon="1.25913">
        <ele>1290</ele>
        <time>2026-05-25T10:18:22.000Z</time>
      </trkpt>
      <trkpt lat="42.93033" lon="1.25917">
        <ele>1291</ele>
        <time>2026-05-25T10:18:23.000Z</time>
      </trkpt>
      <trkpt lat="42.93033" lon="1.25922">
        <ele>1293</ele>
        <time>2026-05-25T10:18:24.000Z</time>
      </trkpt>
      <trkpt lat="42.93034" lon="1.25925">
        <ele>1295</ele>
        <time>2026-05-25T10:18:25.000Z</time>
      </trkpt>
      <trkpt lat="42.93034" lon="1.25928">
        <ele>1298</ele>
        <time>2026-05-25T10:18:26.000Z</time>
      </trkpt>
      <trkpt lat="42.93034" lon="1.25932">
        <ele>1301</ele>
        <time>2026-05-25T10:18:27.000Z</time>
      </trkpt>
      <trkpt lat="42.93034" lon="1.25936">
        <ele>1304</ele>
        <time>2026-05-25T10:18:28.000Z</time>
      </trkpt>
      <trkpt lat="42.93034" lon="1.25942">
        <ele>1307</ele>
        <time>2026-05-25T10:18:29.000Z</time>
      </trkpt>
      <trkpt lat="42.93034" lon="1.25946">
        <ele>1310</ele>
        <time>2026-05-25T10:18:30.000Z</time>
      </trkpt>
      <trkpt lat="42.93034" lon="1.25951">
        <ele>1313</ele>
        <time>2026-05-25T10:18:31.000Z</time>
      </trkpt>
      <trkpt lat="42.93035" lon="1.25957">
        <ele>1316</ele>
        <time>2026-05-25T10:18:32.000Z</time>
      </trkpt>
      <trkpt lat="42.93036" lon="1.25963">
        <ele>1317</ele>
        <time>2026-05-25T10:18:33.000Z</time>
      </trkpt>
      <trkpt lat="42.93038" lon="1.25971">
        <ele>1317</ele>
        <time>2026-05-25T10:18:34.000Z</time>
      </trkpt>
      <trkpt lat="42.93041" lon="1.25978">
        <ele>1317</ele>
        <time>2026-05-25T10:18:35.000Z</time>
      </trkpt>
      <trkpt lat="42.93042" lon="1.25986">
        <ele>1316</ele>
        <time>2026-05-25T10:18:36.000Z</time>
      </trkpt>
      <trkpt lat="42.93043" lon="1.25994">
        <ele>1315</ele>
        <time>2026-05-25T10:18:37.000Z</time>
      </trkpt>
      <trkpt lat="42.93045" lon="1.26002">
        <ele>1313</ele>
        <time>2026-05-25T10:18:38.000Z</time>
      </trkpt>
      <trkpt lat="42.93046" lon="1.26009">
        <ele>1312</ele>
        <time>2026-05-25T10:18:39.000Z</time>
      </trkpt>
      <trkpt lat="42.93047" lon="1.26016">
        <ele>1310</ele>
        <time>2026-05-25T10:18:40.000Z</time>
      </trkpt>
      <trkpt lat="42.93048" lon="1.26021">
        <ele>1309</ele>
        <time>2026-05-25T10:18:41.000Z</time>
      </trkpt>
      <trkpt lat="42.93048" lon="1.26028">
        <ele>1308</ele>
        <time>2026-05-25T10:18:42.000Z</time>
      </trkpt>
      <trkpt lat="42.93049" lon="1.26035">
        <ele>1306</ele>
        <time>2026-05-25T10:18:43.000Z</time>
      </trkpt>
      <trkpt lat="42.9305" lon="1.26043">
        <ele>1305</ele>
        <time>2026-05-25T10:18:44.000Z</time>
      </trkpt>
      <trkpt lat="42.93051" lon="1.2605">
        <ele>1305</ele>
        <time>2026-05-25T10:18:45.000Z</time>
      </trkpt>
      <trkpt lat="42.93051" lon="1.26057">
        <ele>1304</ele>
        <time>2026-05-25T10:18:46.000Z</time>
      </trkpt>
      <trkpt lat="42.93052" lon="1.26064">
        <ele>1303</ele>
        <time>2026-05-25T10:18:47.000Z</time>
      </trkpt>
      <trkpt lat="42.93052" lon="1.2607">
        <ele>1302</ele>
        <time>2026-05-25T10:18:48.000Z</time>
      </trkpt>
      <trkpt lat="42.93053" lon="1.26076">
        <ele>1301</ele>
        <time>2026-05-25T10:18:49.000Z</time>
      </trkpt>
      <trkpt lat="42.93053" lon="1.26081">
        <ele>1301</ele>
        <time>2026-05-25T10:18:50.000Z</time>
      </trkpt>
      <trkpt lat="42.93054" lon="1.26087">
        <ele>1300</ele>
        <time>2026-05-25T10:18:51.000Z</time>
      </trkpt>
      <trkpt lat="42.93055" lon="1.26093">
        <ele>1300</ele>
        <time>2026-05-25T10:18:52.000Z</time>
      </trkpt>
      <trkpt lat="42.93056" lon="1.26101">
        <ele>1300</ele>
        <time>2026-05-25T10:18:53.000Z</time>
      </trkpt>
      <trkpt lat="42.93057" lon="1.26107">
        <ele>1299</ele>
        <time>2026-05-25T10:18:54.000Z</time>
      </trkpt>
      <trkpt lat="42.93059" lon="1.26113">
        <ele>1299</ele>
        <time>2026-05-25T10:18:55.000Z</time>
      </trkpt>
      <trkpt lat="42.9306" lon="1.2612">
        <ele>1298</ele>
        <time>2026-05-25T10:18:56.000Z</time>
      </trkpt>
      <trkpt lat="42.93061" lon="1.26127">
        <ele>1298</ele>
        <time>2026-05-25T10:18:57.000Z</time>
      </trkpt>
      <trkpt lat="42.93062" lon="1.26133">
        <ele>1298</ele>
        <time>2026-05-25T10:18:58.000Z</time>
      </trkpt>
      <trkpt lat="42.93062" lon="1.26139">
        <ele>1298</ele>
        <time>2026-05-25T10:18:59.000Z</time>
      </trkpt>
      <trkpt lat="42.93063" lon="1.26145">
        <ele>1298</ele>
        <time>2026-05-25T10:19:00.000Z</time>
      </trkpt>
      <trkpt lat="42.93064" lon="1.26151">
        <ele>1298</ele>
        <time>2026-05-25T10:19:01.000Z</time>
      </trkpt>
      <trkpt lat="42.93064" lon="1.26158">
        <ele>1298</ele>
        <time>2026-05-25T10:19:02.000Z</time>
      </trkpt>
      <trkpt lat="42.93065" lon="1.26164">
        <ele>1297</ele>
        <time>2026-05-25T10:19:03.000Z</time>
      </trkpt>
      <trkpt lat="42.93066" lon="1.2617">
        <ele>1297</ele>
        <time>2026-05-25T10:19:04.000Z</time>
      </trkpt>
      <trkpt lat="42.93067" lon="1.26177">
        <ele>1296</ele>
        <time>2026-05-25T10:19:05.000Z</time>
      </trkpt>
      <trkpt lat="42.9307" lon="1.26183">
        <ele>1295</ele>
        <time>2026-05-25T10:19:06.000Z</time>
      </trkpt>
      <trkpt lat="42.93073" lon="1.26189">
        <ele>1295</ele>
        <time>2026-05-25T10:19:07.000Z</time>
      </trkpt>
      <trkpt lat="42.93077" lon="1.26194">
        <ele>1294</ele>
        <time>2026-05-25T10:19:08.000Z</time>
      </trkpt>
      <trkpt lat="42.9308" lon="1.262">
        <ele>1294</ele>
        <time>2026-05-25T10:19:09.000Z</time>
      </trkpt>
      <trkpt lat="42.93085" lon="1.26204">
        <ele>1294</ele>
        <time>2026-05-25T10:19:10.000Z</time>
      </trkpt>
      <trkpt lat="42.9309" lon="1.26205">
        <ele>1295</ele>
        <time>2026-05-25T10:19:11.000Z</time>
      </trkpt>
      <trkpt lat="42.93095" lon="1.26208">
        <ele>1295</ele>
        <time>2026-05-25T10:19:12.000Z</time>
      </trkpt>
      <trkpt lat="42.931" lon="1.26209">
        <ele>1295</ele>
        <time>2026-05-25T10:19:13.000Z</time>
      </trkpt>
      <trkpt lat="42.93105" lon="1.2621">
        <ele>1295</ele>
        <time>2026-05-25T10:19:14.000Z</time>
      </trkpt>
      <trkpt lat="42.93111" lon="1.26212">
        <ele>1295</ele>
        <time>2026-05-25T10:19:15.000Z</time>
      </trkpt>
      <trkpt lat="42.93116" lon="1.26213">
        <ele>1295</ele>
        <time>2026-05-25T10:19:16.000Z</time>
      </trkpt>
      <trkpt lat="42.93122" lon="1.26215">
        <ele>1295</ele>
        <time>2026-05-25T10:19:17.000Z</time>
      </trkpt>
      <trkpt lat="42.93127" lon="1.26217">
        <ele>1295</ele>
        <time>2026-05-25T10:19:18.000Z</time>
      </trkpt>
      <trkpt lat="42.93132" lon="1.26221">
        <ele>1295</ele>
        <time>2026-05-25T10:19:19.000Z</time>
      </trkpt>
      <trkpt lat="42.93137" lon="1.26225">
        <ele>1295</ele>
        <time>2026-05-25T10:19:20.000Z</time>
      </trkpt>
      <trkpt lat="42.93142" lon="1.26229">
        <ele>1296</ele>
        <time>2026-05-25T10:19:21.000Z</time>
      </trkpt>
      <trkpt lat="42.93147" lon="1.26233">
        <ele>1296</ele>
        <time>2026-05-25T10:19:22.000Z</time>
      </trkpt>
      <trkpt lat="42.93151" lon="1.26239">
        <ele>1296</ele>
        <time>2026-05-25T10:19:23.000Z</time>
      </trkpt>
      <trkpt lat="42.93154" lon="1.26246">
        <ele>1296</ele>
        <time>2026-05-25T10:19:24.000Z</time>
      </trkpt>
      <trkpt lat="42.93158" lon="1.26253">
        <ele>1295</ele>
        <time>2026-05-25T10:19:25.000Z</time>
      </trkpt>
      <trkpt lat="42.93161" lon="1.26261">
        <ele>1295</ele>
        <time>2026-05-25T10:19:26.000Z</time>
      </trkpt>
      <trkpt lat="42.93164" lon="1.26269">
        <ele>1295</ele>
        <time>2026-05-25T10:19:27.000Z</time>
      </trkpt>
      <trkpt lat="42.93167" lon="1.26277">
        <ele>1295</ele>
        <time>2026-05-25T10:19:28.000Z</time>
      </trkpt>
      <trkpt lat="42.93169" lon="1.26284">
        <ele>1294</ele>
        <time>2026-05-25T10:19:29.000Z</time>
      </trkpt>
      <trkpt lat="42.93169" lon="1.26292">
        <ele>1293</ele>
        <time>2026-05-25T10:19:30.000Z</time>
      </trkpt>
      <trkpt lat="42.93169" lon="1.263">
        <ele>1292</ele>
        <time>2026-05-25T10:19:31.000Z</time>
      </trkpt>
      <trkpt lat="42.93169" lon="1.26307">
        <ele>1291</ele>
        <time>2026-05-25T10:19:32.000Z</time>
      </trkpt>
      <trkpt lat="42.93169" lon="1.26316">
        <ele>1290</ele>
        <time>2026-05-25T10:19:33.000Z</time>
      </trkpt>
      <trkpt lat="42.93169" lon="1.26323">
        <ele>1289</ele>
        <time>2026-05-25T10:19:34.000Z</time>
      </trkpt>
      <trkpt lat="42.93169" lon="1.26332">
        <ele>1289</ele>
        <time>2026-05-25T10:19:35.000Z</time>
      </trkpt>
      <trkpt lat="42.93168" lon="1.2634">
        <ele>1288</ele>
        <time>2026-05-25T10:19:36.000Z</time>
      </trkpt>
      <trkpt lat="42.93168" lon="1.26349">
        <ele>1287</ele>
        <time>2026-05-25T10:19:37.000Z</time>
      </trkpt>
      <trkpt lat="42.93171" lon="1.26357">
        <ele>1286</ele>
        <time>2026-05-25T10:19:38.000Z</time>
      </trkpt>
      <trkpt lat="42.93176" lon="1.26362">
        <ele>1285</ele>
        <time>2026-05-25T10:19:39.000Z</time>
      </trkpt>
      <trkpt lat="42.93182" lon="1.26365">
        <ele>1285</ele>
        <time>2026-05-25T10:19:40.000Z</time>
      </trkpt>
      <trkpt lat="42.93189" lon="1.26367">
        <ele>1284</ele>
        <time>2026-05-25T10:19:41.000Z</time>
      </trkpt>
      <trkpt lat="42.93195" lon="1.26371">
        <ele>1284</ele>
        <time>2026-05-25T10:19:42.000Z</time>
      </trkpt>
      <trkpt lat="42.93201" lon="1.26376">
        <ele>1283</ele>
        <time>2026-05-25T10:19:43.000Z</time>
      </trkpt>
      <trkpt lat="42.93205" lon="1.26381">
        <ele>1283</ele>
        <time>2026-05-25T10:19:44.000Z</time>
      </trkpt>
      <trkpt lat="42.93209" lon="1.26388">
        <ele>1283</ele>
        <time>2026-05-25T10:19:45.000Z</time>
      </trkpt>
      <trkpt lat="42.93212" lon="1.26395">
        <ele>1283</ele>
        <time>2026-05-25T10:19:46.000Z</time>
      </trkpt>
      <trkpt lat="42.93215" lon="1.26403">
        <ele>1283</ele>
        <time>2026-05-25T10:19:47.000Z</time>
      </trkpt>
      <trkpt lat="42.93216" lon="1.2641">
        <ele>1283</ele>
        <time>2026-05-25T10:19:48.000Z</time>
      </trkpt>
      <trkpt lat="42.93216" lon="1.26417">
        <ele>1282</ele>
        <time>2026-05-25T10:19:49.000Z</time>
      </trkpt>
      <trkpt lat="42.93213" lon="1.26425">
        <ele>1283</ele>
        <time>2026-05-25T10:19:50.000Z</time>
      </trkpt>
      <trkpt lat="42.93211" lon="1.26433">
        <ele>1282</ele>
        <time>2026-05-25T10:19:51.000Z</time>
      </trkpt>
      <trkpt lat="42.93208" lon="1.26441">
        <ele>1282</ele>
        <time>2026-05-25T10:19:52.000Z</time>
      </trkpt>
      <trkpt lat="42.93207" lon="1.26447">
        <ele>1281</ele>
        <time>2026-05-25T10:19:53.000Z</time>
      </trkpt>
      <trkpt lat="42.93204" lon="1.26453">
        <ele>1282</ele>
        <time>2026-05-25T10:19:54.000Z</time>
      </trkpt>
      <trkpt lat="42.93202" lon="1.2646">
        <ele>1281</ele>
        <time>2026-05-25T10:19:55.000Z</time>
      </trkpt>
      <trkpt lat="42.932" lon="1.26465">
        <ele>1282</ele>
        <time>2026-05-25T10:19:56.000Z</time>
      </trkpt>
      <trkpt lat="42.93198" lon="1.26471">
        <ele>1283</ele>
        <time>2026-05-25T10:19:57.000Z</time>
      </trkpt>
      <trkpt lat="42.93194" lon="1.26476">
        <ele>1284</ele>
        <time>2026-05-25T10:19:58.000Z</time>
      </trkpt>
      <trkpt lat="42.93192" lon="1.26484">
        <ele>1285</ele>
        <time>2026-05-25T10:19:59.000Z</time>
      </trkpt>
      <trkpt lat="42.93189" lon="1.26492">
        <ele>1285</ele>
        <time>2026-05-25T10:20:00.000Z</time>
      </trkpt>
      <trkpt lat="42.93187" lon="1.265">
        <ele>1285</ele>
        <time>2026-05-25T10:20:01.000Z</time>
      </trkpt>
      <trkpt lat="42.93185" lon="1.26507">
        <ele>1285</ele>
        <time>2026-05-25T10:20:02.000Z</time>
      </trkpt>
      <trkpt lat="42.93183" lon="1.26513">
        <ele>1286</ele>
        <time>2026-05-25T10:20:03.000Z</time>
      </trkpt>
      <trkpt lat="42.93182" lon="1.26517">
        <ele>1286</ele>
        <time>2026-05-25T10:20:04.000Z</time>
      </trkpt>
      <trkpt lat="42.9318" lon="1.26523">
        <ele>1287</ele>
        <time>2026-05-25T10:20:05.000Z</time>
      </trkpt>
      <trkpt lat="42.93179" lon="1.2653">
        <ele>1287</ele>
        <time>2026-05-25T10:20:06.000Z</time>
      </trkpt>
      <trkpt lat="42.93177" lon="1.26536">
        <ele>1288</ele>
        <time>2026-05-25T10:20:07.000Z</time>
      </trkpt>
      <trkpt lat="42.93175" lon="1.26542">
        <ele>1289</ele>
        <time>2026-05-25T10:20:08.000Z</time>
      </trkpt>
      <trkpt lat="42.93174" lon="1.26549">
        <ele>1289</ele>
        <time>2026-05-25T10:20:09.000Z</time>
      </trkpt>
      <trkpt lat="42.93173" lon="1.26556">
        <ele>1289</ele>
        <time>2026-05-25T10:20:10.000Z</time>
      </trkpt>
      <trkpt lat="42.93172" lon="1.26564">
        <ele>1290</ele>
        <time>2026-05-25T10:20:11.000Z</time>
      </trkpt>
      <trkpt lat="42.93171" lon="1.26571">
        <ele>1290</ele>
        <time>2026-05-25T10:20:12.000Z</time>
      </trkpt>
      <trkpt lat="42.9317" lon="1.26578">
        <ele>1290</ele>
        <time>2026-05-25T10:20:13.000Z</time>
      </trkpt>
      <trkpt lat="42.93168" lon="1.26584">
        <ele>1291</ele>
        <time>2026-05-25T10:20:14.000Z</time>
      </trkpt>
      <trkpt lat="42.93167" lon="1.26591">
        <ele>1291</ele>
        <time>2026-05-25T10:20:15.000Z</time>
      </trkpt>
      <trkpt lat="42.93167" lon="1.26599">
        <ele>1291</ele>
        <time>2026-05-25T10:20:16.000Z</time>
      </trkpt>
      <trkpt lat="42.93166" lon="1.26606">
        <ele>1291</ele>
        <time>2026-05-25T10:20:17.000Z</time>
      </trkpt>
      <trkpt lat="42.93165" lon="1.26613">
        <ele>1291</ele>
        <time>2026-05-25T10:20:18.000Z</time>
      </trkpt>
      <trkpt lat="42.93164" lon="1.2662">
        <ele>1291</ele>
        <time>2026-05-25T10:20:19.000Z</time>
      </trkpt>
      <trkpt lat="42.93163" lon="1.26626">
        <ele>1292</ele>
        <time>2026-05-25T10:20:20.000Z</time>
      </trkpt>
      <trkpt lat="42.93163" lon="1.26634">
        <ele>1292</ele>
        <time>2026-05-25T10:20:21.000Z</time>
      </trkpt>
      <trkpt lat="42.93163" lon="1.26642">
        <ele>1291</ele>
        <time>2026-05-25T10:20:22.000Z</time>
      </trkpt>
      <trkpt lat="42.93163" lon="1.26648">
        <ele>1291</ele>
        <time>2026-05-25T10:20:23.000Z</time>
      </trkpt>
      <trkpt lat="42.93163" lon="1.26655">
        <ele>1291</ele>
        <time>2026-05-25T10:20:24.000Z</time>
      </trkpt>
      <trkpt lat="42.93163" lon="1.26662">
        <ele>1291</ele>
        <time>2026-05-25T10:20:25.000Z</time>
      </trkpt>
      <trkpt lat="42.93164" lon="1.26669">
        <ele>1291</ele>
        <time>2026-05-25T10:20:26.000Z</time>
      </trkpt>
      <trkpt lat="42.93165" lon="1.26677">
        <ele>1290</ele>
        <time>2026-05-25T10:20:27.000Z</time>
      </trkpt>
      <trkpt lat="42.93166" lon="1.26684">
        <ele>1290</ele>
        <time>2026-05-25T10:20:28.000Z</time>
      </trkpt>
      <trkpt lat="42.93167" lon="1.2669">
        <ele>1290</ele>
        <time>2026-05-25T10:20:29.000Z</time>
      </trkpt>
      <trkpt lat="42.93169" lon="1.26696">
        <ele>1290</ele>
        <time>2026-05-25T10:20:30.000Z</time>
      </trkpt>
      <trkpt lat="42.93172" lon="1.26702">
        <ele>1290</ele>
        <time>2026-05-25T10:20:31.000Z</time>
      </trkpt>
      <trkpt lat="42.93175" lon="1.26708">
        <ele>1290</ele>
        <time>2026-05-25T10:20:32.000Z</time>
      </trkpt>
      <trkpt lat="42.93178" lon="1.26713">
        <ele>1290</ele>
        <time>2026-05-25T10:20:33.000Z</time>
      </trkpt>
      <trkpt lat="42.93181" lon="1.26718">
        <ele>1291</ele>
        <time>2026-05-25T10:20:34.000Z</time>
      </trkpt>
      <trkpt lat="42.93184" lon="1.26722">
        <ele>1291</ele>
        <time>2026-05-25T10:20:35.000Z</time>
      </trkpt>
      <trkpt lat="42.93187" lon="1.26726">
        <ele>1291</ele>
        <time>2026-05-25T10:20:36.000Z</time>
      </trkpt>
      <trkpt lat="42.9319" lon="1.2673">
        <ele>1291</ele>
        <time>2026-05-25T10:20:37.000Z</time>
      </trkpt>
      <trkpt lat="42.93192" lon="1.26733">
        <ele>1292</ele>
        <time>2026-05-25T10:20:38.000Z</time>
      </trkpt>
      <trkpt lat="42.93193" lon="1.26737">
        <ele>1292</ele>
        <time>2026-05-25T10:20:39.000Z</time>
      </trkpt>
      <trkpt lat="42.93195" lon="1.26742">
        <ele>1292</ele>
        <time>2026-05-25T10:20:40.000Z</time>
      </trkpt>
      <trkpt lat="42.93199" lon="1.26746">
        <ele>1293</ele>
        <time>2026-05-25T10:20:41.000Z</time>
      </trkpt>
      <trkpt lat="42.93204" lon="1.26751">
        <ele>1293</ele>
        <time>2026-05-25T10:20:42.000Z</time>
      </trkpt>
      <trkpt lat="42.9321" lon="1.26755">
        <ele>1294</ele>
        <time>2026-05-25T10:20:43.000Z</time>
      </trkpt>
      <trkpt lat="42.93215" lon="1.26755">
        <ele>1294</ele>
        <time>2026-05-25T10:20:44.000Z</time>
      </trkpt>
      <trkpt lat="42.9322" lon="1.26755">
        <ele>1293</ele>
        <time>2026-05-25T10:20:45.000Z</time>
      </trkpt>
      <trkpt lat="42.93225" lon="1.26754">
        <ele>1293</ele>
        <time>2026-05-25T10:20:46.000Z</time>
      </trkpt>
      <trkpt lat="42.93229" lon="1.26752">
        <ele>1294</ele>
        <time>2026-05-25T10:20:47.000Z</time>
      </trkpt>
      <trkpt lat="42.93233" lon="1.26748">
        <ele>1295</ele>
        <time>2026-05-25T10:20:48.000Z</time>
      </trkpt>
      <trkpt lat="42.93237" lon="1.26744">
        <ele>1296</ele>
        <time>2026-05-25T10:20:49.000Z</time>
      </trkpt>
      <trkpt lat="42.93242" lon="1.2674">
        <ele>1297</ele>
        <time>2026-05-25T10:20:50.000Z</time>
      </trkpt>
      <trkpt lat="42.93246" lon="1.26734">
        <ele>1298</ele>
        <time>2026-05-25T10:20:51.000Z</time>
      </trkpt>
      <trkpt lat="42.93251" lon="1.26729">
        <ele>1298</ele>
        <time>2026-05-25T10:20:52.000Z</time>
      </trkpt>
      <trkpt lat="42.93256" lon="1.26725">
        <ele>1298</ele>
        <time>2026-05-25T10:20:53.000Z</time>
      </trkpt>
      <trkpt lat="42.93261" lon="1.26722">
        <ele>1299</ele>
        <time>2026-05-25T10:20:54.000Z</time>
      </trkpt>
      <trkpt lat="42.93267" lon="1.26718">
        <ele>1299</ele>
        <time>2026-05-25T10:20:55.000Z</time>
      </trkpt>
      <trkpt lat="42.93273" lon="1.26713">
        <ele>1298</ele>
        <time>2026-05-25T10:20:56.000Z</time>
      </trkpt>
      <trkpt lat="42.93279" lon="1.26709">
        <ele>1297</ele>
        <time>2026-05-25T10:20:57.000Z</time>
      </trkpt>
      <trkpt lat="42.93284" lon="1.26704">
        <ele>1297</ele>
        <time>2026-05-25T10:20:58.000Z</time>
      </trkpt>
      <trkpt lat="42.93289" lon="1.267">
        <ele>1297</ele>
        <time>2026-05-25T10:20:59.000Z</time>
      </trkpt>
      <trkpt lat="42.93295" lon="1.26696">
        <ele>1297</ele>
        <time>2026-05-25T10:21:00.000Z</time>
      </trkpt>
      <trkpt lat="42.93301" lon="1.26691">
        <ele>1295</ele>
        <time>2026-05-25T10:21:01.000Z</time>
      </trkpt>
      <trkpt lat="42.93306" lon="1.26686">
        <ele>1295</ele>
        <time>2026-05-25T10:21:02.000Z</time>
      </trkpt>
      <trkpt lat="42.93311" lon="1.26682">
        <ele>1294</ele>
        <time>2026-05-25T10:21:03.000Z</time>
      </trkpt>
      <trkpt lat="42.93316" lon="1.26677">
        <ele>1295</ele>
        <time>2026-05-25T10:21:04.000Z</time>
      </trkpt>
      <trkpt lat="42.93321" lon="1.26674">
        <ele>1295</ele>
        <time>2026-05-25T10:21:05.000Z</time>
      </trkpt>
      <trkpt lat="42.93326" lon="1.26671">
        <ele>1295</ele>
        <time>2026-05-25T10:21:06.000Z</time>
      </trkpt>
      <trkpt lat="42.93331" lon="1.26667">
        <ele>1295</ele>
        <time>2026-05-25T10:21:07.000Z</time>
      </trkpt>
      <trkpt lat="42.93336" lon="1.26663">
        <ele>1294</ele>
        <time>2026-05-25T10:21:08.000Z</time>
      </trkpt>
      <trkpt lat="42.93341" lon="1.26661">
        <ele>1295</ele>
        <time>2026-05-25T10:21:09.000Z</time>
      </trkpt>
      <trkpt lat="42.93346" lon="1.26661">
        <ele>1294</ele>
        <time>2026-05-25T10:21:10.000Z</time>
      </trkpt>
      <trkpt lat="42.93352" lon="1.26663">
        <ele>1294</ele>
        <time>2026-05-25T10:21:11.000Z</time>
      </trkpt>
      <trkpt lat="42.93356" lon="1.26667">
        <ele>1294</ele>
        <time>2026-05-25T10:21:12.000Z</time>
      </trkpt>
      <trkpt lat="42.93359" lon="1.26673">
        <ele>1293</ele>
        <time>2026-05-25T10:21:13.000Z</time>
      </trkpt>
      <trkpt lat="42.93362" lon="1.26678">
        <ele>1293</ele>
        <time>2026-05-25T10:21:14.000Z</time>
      </trkpt>
      <trkpt lat="42.93363" lon="1.26684">
        <ele>1292</ele>
        <time>2026-05-25T10:21:15.000Z</time>
      </trkpt>
      <trkpt lat="42.93363" lon="1.26689">
        <ele>1292</ele>
        <time>2026-05-25T10:21:16.000Z</time>
      </trkpt>
      <trkpt lat="42.93364" lon="1.26695">
        <ele>1292</ele>
        <time>2026-05-25T10:21:17.000Z</time>
      </trkpt>
      <trkpt lat="42.93364" lon="1.26703">
        <ele>1291</ele>
        <time>2026-05-25T10:21:18.000Z</time>
      </trkpt>
      <trkpt lat="42.93365" lon="1.26711">
        <ele>1291</ele>
        <time>2026-05-25T10:21:19.000Z</time>
      </trkpt>
      <trkpt lat="42.93368" lon="1.26719">
        <ele>1291</ele>
        <time>2026-05-25T10:21:20.000Z</time>
      </trkpt>
      <trkpt lat="42.9337" lon="1.26727">
        <ele>1291</ele>
        <time>2026-05-25T10:21:21.000Z</time>
      </trkpt>
      <trkpt lat="42.93371" lon="1.26734">
        <ele>1291</ele>
        <time>2026-05-25T10:21:22.000Z</time>
      </trkpt>
      <trkpt lat="42.93375" lon="1.26741">
        <ele>1291</ele>
        <time>2026-05-25T10:21:23.000Z</time>
      </trkpt>
      <trkpt lat="42.93379" lon="1.26747">
        <ele>1290</ele>
        <time>2026-05-25T10:21:24.000Z</time>
      </trkpt>
      <trkpt lat="42.93384" lon="1.26751">
        <ele>1290</ele>
        <time>2026-05-25T10:21:25.000Z</time>
      </trkpt>
      <trkpt lat="42.93389" lon="1.26754">
        <ele>1290</ele>
        <time>2026-05-25T10:21:26.000Z</time>
      </trkpt>
      <trkpt lat="42.93395" lon="1.26755">
        <ele>1290</ele>
        <time>2026-05-25T10:21:27.000Z</time>
      </trkpt>
      <trkpt lat="42.93401" lon="1.26758">
        <ele>1290</ele>
        <time>2026-05-25T10:21:28.000Z</time>
      </trkpt>
      <trkpt lat="42.93407" lon="1.2676">
        <ele>1290</ele>
        <time>2026-05-25T10:21:29.000Z</time>
      </trkpt>
      <trkpt lat="42.93413" lon="1.26763">
        <ele>1291</ele>
        <time>2026-05-25T10:21:30.000Z</time>
      </trkpt>
      <trkpt lat="42.93419" lon="1.26766">
        <ele>1291</ele>
        <time>2026-05-25T10:21:31.000Z</time>
      </trkpt>
      <trkpt lat="42.93425" lon="1.26768">
        <ele>1291</ele>
        <time>2026-05-25T10:21:32.000Z</time>
      </trkpt>
      <trkpt lat="42.93432" lon="1.26771">
        <ele>1290</ele>
        <time>2026-05-25T10:21:33.000Z</time>
      </trkpt>
      <trkpt lat="42.93439" lon="1.26774">
        <ele>1290</ele>
        <time>2026-05-25T10:21:34.000Z</time>
      </trkpt>
      <trkpt lat="42.93444" lon="1.2678">
        <ele>1289</ele>
        <time>2026-05-25T10:21:35.000Z</time>
      </trkpt>
      <trkpt lat="42.9345" lon="1.26787">
        <ele>1288</ele>
        <time>2026-05-25T10:21:36.000Z</time>
      </trkpt>
      <trkpt lat="42.93454" lon="1.26793">
        <ele>1288</ele>
        <time>2026-05-25T10:21:37.000Z</time>
      </trkpt>
      <trkpt lat="42.93459" lon="1.26801">
        <ele>1287</ele>
        <time>2026-05-25T10:21:38.000Z</time>
      </trkpt>
      <trkpt lat="42.93462" lon="1.2681">
        <ele>1287</ele>
        <time>2026-05-25T10:21:39.000Z</time>
      </trkpt>
      <trkpt lat="42.93465" lon="1.26817">
        <ele>1287</ele>
        <time>2026-05-25T10:21:40.000Z</time>
      </trkpt>
      <trkpt lat="42.93467" lon="1.26825">
        <ele>1287</ele>
        <time>2026-05-25T10:21:41.000Z</time>
      </trkpt>
      <trkpt lat="42.93469" lon="1.26833">
        <ele>1287</ele>
        <time>2026-05-25T10:21:42.000Z</time>
      </trkpt>
      <trkpt lat="42.93469" lon="1.2684">
        <ele>1287</ele>
        <time>2026-05-25T10:21:43.000Z</time>
      </trkpt>
      <trkpt lat="42.9347" lon="1.26848">
        <ele>1287</ele>
        <time>2026-05-25T10:21:44.000Z</time>
      </trkpt>
      <trkpt lat="42.9347" lon="1.26855">
        <ele>1287</ele>
        <time>2026-05-25T10:21:45.000Z</time>
      </trkpt>
      <trkpt lat="42.9347" lon="1.26862">
        <ele>1288</ele>
        <time>2026-05-25T10:21:46.000Z</time>
      </trkpt>
      <trkpt lat="42.9347" lon="1.26869">
        <ele>1288</ele>
        <time>2026-05-25T10:21:47.000Z</time>
      </trkpt>
      <trkpt lat="42.9347" lon="1.26876">
        <ele>1287</ele>
        <time>2026-05-25T10:21:48.000Z</time>
      </trkpt>
      <trkpt lat="42.9347" lon="1.26883">
        <ele>1287</ele>
        <time>2026-05-25T10:21:49.000Z</time>
      </trkpt>
      <trkpt lat="42.93469" lon="1.26889">
        <ele>1287</ele>
        <time>2026-05-25T10:21:50.000Z</time>
      </trkpt>
      <trkpt lat="42.93468" lon="1.26895">
        <ele>1287</ele>
        <time>2026-05-25T10:21:51.000Z</time>
      </trkpt>
      <trkpt lat="42.93467" lon="1.26901">
        <ele>1287</ele>
        <time>2026-05-25T10:21:52.000Z</time>
      </trkpt>
      <trkpt lat="42.93466" lon="1.26907">
        <ele>1288</ele>
        <time>2026-05-25T10:21:53.000Z</time>
      </trkpt>
      <trkpt lat="42.93465" lon="1.26915">
        <ele>1288</ele>
        <time>2026-05-25T10:21:54.000Z</time>
      </trkpt>
      <trkpt lat="42.93465" lon="1.26923">
        <ele>1288</ele>
        <time>2026-05-25T10:21:55.000Z</time>
      </trkpt>
      <trkpt lat="42.93465" lon="1.26931">
        <ele>1287</ele>
        <time>2026-05-25T10:21:56.000Z</time>
      </trkpt>
      <trkpt lat="42.93466" lon="1.26938">
        <ele>1287</ele>
        <time>2026-05-25T10:21:57.000Z</time>
      </trkpt>
      <trkpt lat="42.93464" lon="1.26944">
        <ele>1287</ele>
        <time>2026-05-25T10:21:58.000Z</time>
      </trkpt>
      <trkpt lat="42.93464" lon="1.26952">
        <ele>1286</ele>
        <time>2026-05-25T10:21:59.000Z</time>
      </trkpt>
      <trkpt lat="42.93464" lon="1.2696">
        <ele>1286</ele>
        <time>2026-05-25T10:22:00.000Z</time>
      </trkpt>
      <trkpt lat="42.93464" lon="1.26968">
        <ele>1286</ele>
        <time>2026-05-25T10:22:01.000Z</time>
      </trkpt>
      <trkpt lat="42.93463" lon="1.26974">
        <ele>1286</ele>
        <time>2026-05-25T10:22:02.000Z</time>
      </trkpt>
      <trkpt lat="42.93462" lon="1.26982">
        <ele>1286</ele>
        <time>2026-05-25T10:22:03.000Z</time>
      </trkpt>
      <trkpt lat="42.93462" lon="1.26988">
        <ele>1286</ele>
        <time>2026-05-25T10:22:04.000Z</time>
      </trkpt>
      <trkpt lat="42.93463" lon="1.26996">
        <ele>1287</ele>
        <time>2026-05-25T10:22:05.000Z</time>
      </trkpt>
      <trkpt lat="42.93463" lon="1.27002">
        <ele>1286</ele>
        <time>2026-05-25T10:22:06.000Z</time>
      </trkpt>
      <trkpt lat="42.93465" lon="1.27009">
        <ele>1287</ele>
        <time>2026-05-25T10:22:07.000Z</time>
      </trkpt>
      <trkpt lat="42.93468" lon="1.27015">
        <ele>1286</ele>
        <time>2026-05-25T10:22:08.000Z</time>
      </trkpt>
      <trkpt lat="42.93471" lon="1.2702">
        <ele>1287</ele>
        <time>2026-05-25T10:22:09.000Z</time>
      </trkpt>
      <trkpt lat="42.93474" lon="1.27025">
        <ele>1287</ele>
        <time>2026-05-25T10:22:10.000Z</time>
      </trkpt>
      <trkpt lat="42.93476" lon="1.27031">
        <ele>1288</ele>
        <time>2026-05-25T10:22:11.000Z</time>
      </trkpt>
      <trkpt lat="42.93478" lon="1.27036">
        <ele>1288</ele>
        <time>2026-05-25T10:22:12.000Z</time>
      </trkpt>
      <trkpt lat="42.9348" lon="1.27043">
        <ele>1289</ele>
        <time>2026-05-25T10:22:13.000Z</time>
      </trkpt>
      <trkpt lat="42.93482" lon="1.27049">
        <ele>1289</ele>
        <time>2026-05-25T10:22:14.000Z</time>
      </trkpt>
      <trkpt lat="42.93484" lon="1.27055">
        <ele>1290</ele>
        <time>2026-05-25T10:22:15.000Z</time>
      </trkpt>
      <trkpt lat="42.93486" lon="1.2706">
        <ele>1290</ele>
        <time>2026-05-25T10:22:16.000Z</time>
      </trkpt>
      <trkpt lat="42.93489" lon="1.27065">
        <ele>1290</ele>
        <time>2026-05-25T10:22:17.000Z</time>
      </trkpt>
      <trkpt lat="42.93491" lon="1.2707">
        <ele>1290</ele>
        <time>2026-05-25T10:22:18.000Z</time>
      </trkpt>
      <trkpt lat="42.93495" lon="1.27075">
        <ele>1291</ele>
        <time>2026-05-25T10:22:19.000Z</time>
      </trkpt>
      <trkpt lat="42.93498" lon="1.2708">
        <ele>1291</ele>
        <time>2026-05-25T10:22:20.000Z</time>
      </trkpt>
      <trkpt lat="42.93502" lon="1.27084">
        <ele>1291</ele>
        <time>2026-05-25T10:22:21.000Z</time>
      </trkpt>
      <trkpt lat="42.93506" lon="1.27089">
        <ele>1291</ele>
        <time>2026-05-25T10:22:22.000Z</time>
      </trkpt>
      <trkpt lat="42.93509" lon="1.27093">
        <ele>1291</ele>
        <time>2026-05-25T10:22:23.000Z</time>
      </trkpt>
      <trkpt lat="42.93512" lon="1.27097">
        <ele>1290</ele>
        <time>2026-05-25T10:22:24.000Z</time>
      </trkpt>
      <trkpt lat="42.93514" lon="1.271">
        <ele>1290</ele>
        <time>2026-05-25T10:22:25.000Z</time>
      </trkpt>
      <trkpt lat="42.93515" lon="1.27105">
        <ele>1290</ele>
        <time>2026-05-25T10:22:26.000Z</time>
      </trkpt>
      <trkpt lat="42.93515" lon="1.2711">
        <ele>1290</ele>
        <time>2026-05-25T10:22:27.000Z</time>
      </trkpt>
      <trkpt lat="42.93515" lon="1.27115">
        <ele>1290</ele>
        <time>2026-05-25T10:22:28.000Z</time>
      </trkpt>
      <trkpt lat="42.93516" lon="1.27123">
        <ele>1291</ele>
        <time>2026-05-25T10:22:29.000Z</time>
      </trkpt>
      <trkpt lat="42.93515" lon="1.27131">
        <ele>1291</ele>
        <time>2026-05-25T10:22:30.000Z</time>
      </trkpt>
      <trkpt lat="42.93513" lon="1.27139">
        <ele>1291</ele>
        <time>2026-05-25T10:22:31.000Z</time>
      </trkpt>
      <trkpt lat="42.93511" lon="1.27147">
        <ele>1291</ele>
        <time>2026-05-25T10:22:32.000Z</time>
      </trkpt>
      <trkpt lat="42.93509" lon="1.27154">
        <ele>1291</ele>
        <time>2026-05-25T10:22:33.000Z</time>
      </trkpt>
      <trkpt lat="42.93508" lon="1.27161">
        <ele>1291</ele>
        <time>2026-05-25T10:22:34.000Z</time>
      </trkpt>
      <trkpt lat="42.93506" lon="1.27168">
        <ele>1291</ele>
        <time>2026-05-25T10:22:35.000Z</time>
      </trkpt>
      <trkpt lat="42.93504" lon="1.27176">
        <ele>1290</ele>
        <time>2026-05-25T10:22:36.000Z</time>
      </trkpt>
      <trkpt lat="42.93504" lon="1.27185">
        <ele>1290</ele>
        <time>2026-05-25T10:22:37.000Z</time>
      </trkpt>
      <trkpt lat="42.93504" lon="1.27193">
        <ele>1290</ele>
        <time>2026-05-25T10:22:38.000Z</time>
      </trkpt>
      <trkpt lat="42.93504" lon="1.272">
        <ele>1291</ele>
        <time>2026-05-25T10:22:39.000Z</time>
      </trkpt>
      <trkpt lat="42.93506" lon="1.27208">
        <ele>1291</ele>
        <time>2026-05-25T10:22:40.000Z</time>
      </trkpt>
      <trkpt lat="42.93508" lon="1.27217">
        <ele>1290</ele>
        <time>2026-05-25T10:22:41.000Z</time>
      </trkpt>
      <trkpt lat="42.93511" lon="1.27224">
        <ele>1290</ele>
        <time>2026-05-25T10:22:42.000Z</time>
      </trkpt>
      <trkpt lat="42.93514" lon="1.27232">
        <ele>1290</ele>
        <time>2026-05-25T10:22:43.000Z</time>
      </trkpt>
      <trkpt lat="42.93517" lon="1.27239">
        <ele>1289</ele>
        <time>2026-05-25T10:22:44.000Z</time>
      </trkpt>
      <trkpt lat="42.93519" lon="1.27247">
        <ele>1289</ele>
        <time>2026-05-25T10:22:45.000Z</time>
      </trkpt>
      <trkpt lat="42.93522" lon="1.27254">
        <ele>1289</ele>
        <time>2026-05-25T10:22:46.000Z</time>
      </trkpt>
      <trkpt lat="42.93525" lon="1.27262">
        <ele>1289</ele>
        <time>2026-05-25T10:22:47.000Z</time>
      </trkpt>
      <trkpt lat="42.93528" lon="1.2727">
        <ele>1289</ele>
        <time>2026-05-25T10:22:48.000Z</time>
      </trkpt>
      <trkpt lat="42.93529" lon="1.27279">
        <ele>1289</ele>
        <time>2026-05-25T10:22:49.000Z</time>
      </trkpt>
      <trkpt lat="42.93531" lon="1.27286">
        <ele>1289</ele>
        <time>2026-05-25T10:22:50.000Z</time>
      </trkpt>
      <trkpt lat="42.93531" lon="1.27295">
        <ele>1289</ele>
        <time>2026-05-25T10:22:51.000Z</time>
      </trkpt>
      <trkpt lat="42.93532" lon="1.27304">
        <ele>1288</ele>
        <time>2026-05-25T10:22:52.000Z</time>
      </trkpt>
      <trkpt lat="42.93532" lon="1.27312">
        <ele>1288</ele>
        <time>2026-05-25T10:22:53.000Z</time>
      </trkpt>
      <trkpt lat="42.93532" lon="1.27319">
        <ele>1289</ele>
        <time>2026-05-25T10:22:54.000Z</time>
      </trkpt>
      <trkpt lat="42.93532" lon="1.27326">
        <ele>1289</ele>
        <time>2026-05-25T10:22:55.000Z</time>
      </trkpt>
      <trkpt lat="42.93532" lon="1.27335">
        <ele>1289</ele>
        <time>2026-05-25T10:22:56.000Z</time>
      </trkpt>
      <trkpt lat="42.93533" lon="1.27343">
        <ele>1289</ele>
        <time>2026-05-25T10:22:57.000Z</time>
      </trkpt>
      <trkpt lat="42.93532" lon="1.27351">
        <ele>1291</ele>
        <time>2026-05-25T10:22:58.000Z</time>
      </trkpt>
      <trkpt lat="42.93532" lon="1.27358">
        <ele>1292</ele>
        <time>2026-05-25T10:22:59.000Z</time>
      </trkpt>
      <trkpt lat="42.93531" lon="1.27365">
        <ele>1292</ele>
        <time>2026-05-25T10:23:00.000Z</time>
      </trkpt>
      <trkpt lat="42.93533" lon="1.27374">
        <ele>1292</ele>
        <time>2026-05-25T10:23:01.000Z</time>
      </trkpt>
      <trkpt lat="42.93533" lon="1.27383">
        <ele>1291</ele>
        <time>2026-05-25T10:23:02.000Z</time>
      </trkpt>
      <trkpt lat="42.93533" lon="1.27391">
        <ele>1291</ele>
        <time>2026-05-25T10:23:03.000Z</time>
      </trkpt>
      <trkpt lat="42.93534" lon="1.27398">
        <ele>1291</ele>
        <time>2026-05-25T10:23:04.000Z</time>
      </trkpt>
      <trkpt lat="42.93534" lon="1.27406">
        <ele>1291</ele>
        <time>2026-05-25T10:23:05.000Z</time>
      </trkpt>
      <trkpt lat="42.93534" lon="1.27414">
        <ele>1290</ele>
        <time>2026-05-25T10:23:06.000Z</time>
      </trkpt>
      <trkpt lat="42.93533" lon="1.2742">
        <ele>1291</ele>
        <time>2026-05-25T10:23:07.000Z</time>
      </trkpt>
      <trkpt lat="42.93531" lon="1.27427">
        <ele>1291</ele>
        <time>2026-05-25T10:23:08.000Z</time>
      </trkpt>
      <trkpt lat="42.93528" lon="1.27433">
        <ele>1291</ele>
        <time>2026-05-25T10:23:09.000Z</time>
      </trkpt>
      <trkpt lat="42.93525" lon="1.27437">
        <ele>1293</ele>
        <time>2026-05-25T10:23:10.000Z</time>
      </trkpt>
      <trkpt lat="42.93522" lon="1.27443">
        <ele>1294</ele>
        <time>2026-05-25T10:23:11.000Z</time>
      </trkpt>
      <trkpt lat="42.93519" lon="1.2745">
        <ele>1294</ele>
        <time>2026-05-25T10:23:12.000Z</time>
      </trkpt>
      <trkpt lat="42.93515" lon="1.27456">
        <ele>1294</ele>
        <time>2026-05-25T10:23:13.000Z</time>
      </trkpt>
      <trkpt lat="42.93511" lon="1.27462">
        <ele>1295</ele>
        <time>2026-05-25T10:23:14.000Z</time>
      </trkpt>
      <trkpt lat="42.93507" lon="1.27467">
        <ele>1295</ele>
        <time>2026-05-25T10:23:15.000Z</time>
      </trkpt>
      <trkpt lat="42.93503" lon="1.27473">
        <ele>1295</ele>
        <time>2026-05-25T10:23:16.000Z</time>
      </trkpt>
      <trkpt lat="42.93499" lon="1.2748">
        <ele>1295</ele>
        <time>2026-05-25T10:23:17.000Z</time>
      </trkpt>
      <trkpt lat="42.93495" lon="1.27487">
        <ele>1294</ele>
        <time>2026-05-25T10:23:18.000Z</time>
      </trkpt>
      <trkpt lat="42.93491" lon="1.27494">
        <ele>1294</ele>
        <time>2026-05-25T10:23:19.000Z</time>
      </trkpt>
      <trkpt lat="42.93487" lon="1.275">
        <ele>1293</ele>
        <time>2026-05-25T10:23:20.000Z</time>
      </trkpt>
      <trkpt lat="42.93483" lon="1.27505">
        <ele>1293</ele>
        <time>2026-05-25T10:23:21.000Z</time>
      </trkpt>
      <trkpt lat="42.93479" lon="1.27511">
        <ele>1293</ele>
        <time>2026-05-25T10:23:22.000Z</time>
      </trkpt>
      <trkpt lat="42.93474" lon="1.27517">
        <ele>1293</ele>
        <time>2026-05-25T10:23:23.000Z</time>
      </trkpt>
      <trkpt lat="42.9347" lon="1.27522">
        <ele>1293</ele>
        <time>2026-05-25T10:23:24.000Z</time>
      </trkpt>
      <trkpt lat="42.93466" lon="1.27527">
        <ele>1292</ele>
        <time>2026-05-25T10:23:25.000Z</time>
      </trkpt>
      <trkpt lat="42.93462" lon="1.27533">
        <ele>1292</ele>
        <time>2026-05-25T10:23:26.000Z</time>
      </trkpt>
      <trkpt lat="42.93457" lon="1.27539">
        <ele>1293</ele>
        <time>2026-05-25T10:23:27.000Z</time>
      </trkpt>
      <trkpt lat="42.93454" lon="1.27545">
        <ele>1293</ele>
        <time>2026-05-25T10:23:28.000Z</time>
      </trkpt>
      <trkpt lat="42.9345" lon="1.27553">
        <ele>1293</ele>
        <time>2026-05-25T10:23:29.000Z</time>
      </trkpt>
      <trkpt lat="42.93447" lon="1.2756">
        <ele>1293</ele>
        <time>2026-05-25T10:23:30.000Z</time>
      </trkpt>
      <trkpt lat="42.93443" lon="1.27568">
        <ele>1292</ele>
        <time>2026-05-25T10:23:31.000Z</time>
      </trkpt>
      <trkpt lat="42.9344" lon="1.27575">
        <ele>1292</ele>
        <time>2026-05-25T10:23:32.000Z</time>
      </trkpt>
      <trkpt lat="42.93438" lon="1.2758">
        <ele>1292</ele>
        <time>2026-05-25T10:23:33.000Z</time>
      </trkpt>
      <trkpt lat="42.93435" lon="1.27585">
        <ele>1292</ele>
        <time>2026-05-25T10:23:34.000Z</time>
      </trkpt>
      <trkpt lat="42.93432" lon="1.27591">
        <ele>1293</ele>
        <time>2026-05-25T10:23:35.000Z</time>
      </trkpt>
      <trkpt lat="42.93429" lon="1.27597">
        <ele>1293</ele>
        <time>2026-05-25T10:23:36.000Z</time>
      </trkpt>
      <trkpt lat="42.93426" lon="1.27602">
        <ele>1293</ele>
        <time>2026-05-25T10:23:37.000Z</time>
      </trkpt>
      <trkpt lat="42.93422" lon="1.27607">
        <ele>1294</ele>
        <time>2026-05-25T10:23:38.000Z</time>
      </trkpt>
      <trkpt lat="42.93418" lon="1.27612">
        <ele>1295</ele>
        <time>2026-05-25T10:23:39.000Z</time>
      </trkpt>
      <trkpt lat="42.93415" lon="1.27616">
        <ele>1295</ele>
        <time>2026-05-25T10:23:40.000Z</time>
      </trkpt>
      <trkpt lat="42.93411" lon="1.2762">
        <ele>1295</ele>
        <time>2026-05-25T10:23:41.000Z</time>
      </trkpt>
      <trkpt lat="42.93406" lon="1.27622">
        <ele>1295</ele>
        <time>2026-05-25T10:23:42.000Z</time>
      </trkpt>
      <trkpt lat="42.93401" lon="1.27627">
        <ele>1295</ele>
        <time>2026-05-25T10:23:43.000Z</time>
      </trkpt>
      <trkpt lat="42.93396" lon="1.27631">
        <ele>1295</ele>
        <time>2026-05-25T10:23:44.000Z</time>
      </trkpt>
      <trkpt lat="42.9339" lon="1.27637">
        <ele>1294</ele>
        <time>2026-05-25T10:23:45.000Z</time>
      </trkpt>
      <trkpt lat="42.93385" lon="1.27642">
        <ele>1293</ele>
        <time>2026-05-25T10:23:46.000Z</time>
      </trkpt>
      <trkpt lat="42.93378" lon="1.27648">
        <ele>1292</ele>
        <time>2026-05-25T10:23:47.000Z</time>
      </trkpt>
      <trkpt lat="42.93373" lon="1.27653">
        <ele>1292</ele>
        <time>2026-05-25T10:23:48.000Z</time>
      </trkpt>
      <trkpt lat="42.93368" lon="1.27658">
        <ele>1291</ele>
        <time>2026-05-25T10:23:49.000Z</time>
      </trkpt>
      <trkpt lat="42.93363" lon="1.27663">
        <ele>1291</ele>
        <time>2026-05-25T10:23:50.000Z</time>
      </trkpt>
      <trkpt lat="42.93357" lon="1.27668">
        <ele>1291</ele>
        <time>2026-05-25T10:23:51.000Z</time>
      </trkpt>
      <trkpt lat="42.93353" lon="1.27672">
        <ele>1292</ele>
        <time>2026-05-25T10:23:52.000Z</time>
      </trkpt>
      <trkpt lat="42.93348" lon="1.27677">
        <ele>1292</ele>
        <time>2026-05-25T10:23:53.000Z</time>
      </trkpt>
      <trkpt lat="42.93344" lon="1.27682">
        <ele>1292</ele>
        <time>2026-05-25T10:23:54.000Z</time>
      </trkpt>
      <trkpt lat="42.9334" lon="1.27686">
        <ele>1292</ele>
        <time>2026-05-25T10:23:55.000Z</time>
      </trkpt>
      <trkpt lat="42.93335" lon="1.27691">
        <ele>1293</ele>
        <time>2026-05-25T10:23:56.000Z</time>
      </trkpt>
      <trkpt lat="42.93331" lon="1.27695">
        <ele>1293</ele>
        <time>2026-05-25T10:23:57.000Z</time>
      </trkpt>
      <trkpt lat="42.93326" lon="1.27699">
        <ele>1292</ele>
        <time>2026-05-25T10:23:58.000Z</time>
      </trkpt>
      <trkpt lat="42.93322" lon="1.27702">
        <ele>1292</ele>
        <time>2026-05-25T10:23:59.000Z</time>
      </trkpt>
      <trkpt lat="42.93317" lon="1.27707">
        <ele>1292</ele>
        <time>2026-05-25T10:24:00.000Z</time>
      </trkpt>
      <trkpt lat="42.93313" lon="1.27712">
        <ele>1293</ele>
        <time>2026-05-25T10:24:01.000Z</time>
      </trkpt>
      <trkpt lat="42.93308" lon="1.27717">
        <ele>1293</ele>
        <time>2026-05-25T10:24:02.000Z</time>
      </trkpt>
      <trkpt lat="42.93304" lon="1.27722">
        <ele>1293</ele>
        <time>2026-05-25T10:24:03.000Z</time>
      </trkpt>
      <trkpt lat="42.933" lon="1.27725">
        <ele>1294</ele>
        <time>2026-05-25T10:24:04.000Z</time>
      </trkpt>
      <trkpt lat="42.93297" lon="1.27729">
        <ele>1296</ele>
        <time>2026-05-25T10:24:05.000Z</time>
      </trkpt>
      <trkpt lat="42.93293" lon="1.27734">
        <ele>1297</ele>
        <time>2026-05-25T10:24:06.000Z</time>
      </trkpt>
      <trkpt lat="42.93289" lon="1.27738">
        <ele>1297</ele>
        <time>2026-05-25T10:24:07.000Z</time>
      </trkpt>
      <trkpt lat="42.93284" lon="1.27742">
        <ele>1298</ele>
        <time>2026-05-25T10:24:08.000Z</time>
      </trkpt>
      <trkpt lat="42.9328" lon="1.27746">
        <ele>1298</ele>
        <time>2026-05-25T10:24:09.000Z</time>
      </trkpt>
      <trkpt lat="42.93277" lon="1.27752">
        <ele>1299</ele>
        <time>2026-05-25T10:24:10.000Z</time>
      </trkpt>
      <trkpt lat="42.93273" lon="1.27757">
        <ele>1300</ele>
        <time>2026-05-25T10:24:11.000Z</time>
      </trkpt>
      <trkpt lat="42.93269" lon="1.27764">
        <ele>1301</ele>
        <time>2026-05-25T10:24:12.000Z</time>
      </trkpt>
      <trkpt lat="42.93266" lon="1.27771">
        <ele>1302</ele>
        <time>2026-05-25T10:24:13.000Z</time>
      </trkpt>
      <trkpt lat="42.93263" lon="1.27777">
        <ele>1303</ele>
        <time>2026-05-25T10:24:14.000Z</time>
      </trkpt>
      <trkpt lat="42.93259" lon="1.27783">
        <ele>1303</ele>
        <time>2026-05-25T10:24:15.000Z</time>
      </trkpt>
      <trkpt lat="42.93256" lon="1.27789">
        <ele>1304</ele>
        <time>2026-05-25T10:24:16.000Z</time>
      </trkpt>
      <trkpt lat="42.93253" lon="1.27794">
        <ele>1305</ele>
        <time>2026-05-25T10:24:17.000Z</time>
      </trkpt>
      <trkpt lat="42.93249" lon="1.27799">
        <ele>1305</ele>
        <time>2026-05-25T10:24:18.000Z</time>
      </trkpt>
      <trkpt lat="42.93246" lon="1.27804">
        <ele>1305</ele>
        <time>2026-05-25T10:24:19.000Z</time>
      </trkpt>
      <trkpt lat="42.93242" lon="1.27809">
        <ele>1304</ele>
        <time>2026-05-25T10:24:20.000Z</time>
      </trkpt>
      <trkpt lat="42.93238" lon="1.27815">
        <ele>1304</ele>
        <time>2026-05-25T10:24:21.000Z</time>
      </trkpt>
      <trkpt lat="42.93233" lon="1.27819">
        <ele>1303</ele>
        <time>2026-05-25T10:24:22.000Z</time>
      </trkpt>
      <trkpt lat="42.93229" lon="1.27823">
        <ele>1303</ele>
        <time>2026-05-25T10:24:23.000Z</time>
      </trkpt>
      <trkpt lat="42.93224" lon="1.27828">
        <ele>1303</ele>
        <time>2026-05-25T10:24:24.000Z</time>
      </trkpt>
      <trkpt lat="42.93219" lon="1.27832">
        <ele>1302</ele>
        <time>2026-05-25T10:24:25.000Z</time>
      </trkpt>
      <trkpt lat="42.93213" lon="1.27836">
        <ele>1301</ele>
        <time>2026-05-25T10:24:26.000Z</time>
      </trkpt>
      <trkpt lat="42.93208" lon="1.2784">
        <ele>1300</ele>
        <time>2026-05-25T10:24:27.000Z</time>
      </trkpt>
      <trkpt lat="42.93203" lon="1.27843">
        <ele>1299</ele>
        <time>2026-05-25T10:24:28.000Z</time>
      </trkpt>
      <trkpt lat="42.93198" lon="1.27847">
        <ele>1298</ele>
        <time>2026-05-25T10:24:29.000Z</time>
      </trkpt>
      <trkpt lat="42.93193" lon="1.27851">
        <ele>1296</ele>
        <time>2026-05-25T10:24:30.000Z</time>
      </trkpt>
      <trkpt lat="42.93189" lon="1.27855">
        <ele>1295</ele>
        <time>2026-05-25T10:24:31.000Z</time>
      </trkpt>
      <trkpt lat="42.93184" lon="1.27858">
        <ele>1295</ele>
        <time>2026-05-25T10:24:32.000Z</time>
      </trkpt>
      <trkpt lat="42.9318" lon="1.2786">
        <ele>1295</ele>
        <time>2026-05-25T10:24:33.000Z</time>
      </trkpt>
      <trkpt lat="42.93177" lon="1.27863">
        <ele>1295</ele>
        <time>2026-05-25T10:24:34.000Z</time>
      </trkpt>
      <trkpt lat="42.93173" lon="1.27866">
        <ele>1295</ele>
        <time>2026-05-25T10:24:35.000Z</time>
      </trkpt>
      <trkpt lat="42.9317" lon="1.27868">
        <ele>1294</ele>
        <time>2026-05-25T10:24:36.000Z</time>
      </trkpt>
      <trkpt lat="42.93167" lon="1.2787">
        <ele>1294</ele>
        <time>2026-05-25T10:24:37.000Z</time>
      </trkpt>
      <trkpt lat="42.93163" lon="1.27872">
        <ele>1293</ele>
        <time>2026-05-25T10:24:38.000Z</time>
      </trkpt>
      <trkpt lat="42.9316" lon="1.27873">
        <ele>1294</ele>
        <time>2026-05-25T10:24:39.000Z</time>
      </trkpt>
      <trkpt lat="42.93157" lon="1.27875">
        <ele>1295</ele>
        <time>2026-05-25T10:24:40.000Z</time>
      </trkpt>
      <trkpt lat="42.93154" lon="1.27877">
        <ele>1295</ele>
        <time>2026-05-25T10:24:41.000Z</time>
      </trkpt>
      <trkpt lat="42.93151" lon="1.2788">
        <ele>1296</ele>
        <time>2026-05-25T10:24:42.000Z</time>
      </trkpt>
      <trkpt lat="42.93148" lon="1.27884">
        <ele>1296</ele>
        <time>2026-05-25T10:24:43.000Z</time>
      </trkpt>
      <trkpt lat="42.93144" lon="1.27887">
        <ele>1296</ele>
        <time>2026-05-25T10:24:44.000Z</time>
      </trkpt>
      <trkpt lat="42.93141" lon="1.2789">
        <ele>1296</ele>
        <time>2026-05-25T10:24:45.000Z</time>
      </trkpt>
      <trkpt lat="42.93139" lon="1.27892">
        <ele>1297</ele>
        <time>2026-05-25T10:24:46.000Z</time>
      </trkpt>
      <trkpt lat="42.93136" lon="1.27894">
        <ele>1298</ele>
        <time>2026-05-25T10:24:47.000Z</time>
      </trkpt>
      <trkpt lat="42.93134" lon="1.27895">
        <ele>1300</ele>
        <time>2026-05-25T10:24:48.000Z</time>
      </trkpt>
      <trkpt lat="42.93132" lon="1.27897">
        <ele>1300</ele>
        <time>2026-05-25T10:24:49.000Z</time>
      </trkpt>
      <trkpt lat="42.93129" lon="1.27899">
        <ele>1301</ele>
        <time>2026-05-25T10:24:50.000Z</time>
      </trkpt>
      <trkpt lat="42.93127" lon="1.279">
        <ele>1301</ele>
        <time>2026-05-25T10:24:51.000Z</time>
      </trkpt>
      <trkpt lat="42.93125" lon="1.27902">
        <ele>1302</ele>
        <time>2026-05-25T10:24:52.000Z</time>
      </trkpt>
      <trkpt lat="42.93122" lon="1.27904">
        <ele>1302</ele>
        <time>2026-05-25T10:24:53.000Z</time>
      </trkpt>
      <trkpt lat="42.9312" lon="1.27906">
        <ele>1303</ele>
        <time>2026-05-25T10:24:54.000Z</time>
      </trkpt>
      <trkpt lat="42.93117" lon="1.27908">
        <ele>1304</ele>
        <time>2026-05-25T10:24:55.000Z</time>
      </trkpt>
      <trkpt lat="42.93115" lon="1.27911">
        <ele>1304</ele>
        <time>2026-05-25T10:24:56.000Z</time>
      </trkpt>
      <trkpt lat="42.93113" lon="1.27914">
        <ele>1304</ele>
        <time>2026-05-25T10:24:57.000Z</time>
      </trkpt>
      <trkpt lat="42.9311" lon="1.27915">
        <ele>1304</ele>
        <time>2026-05-25T10:24:58.000Z</time>
      </trkpt>
      <trkpt lat="42.93108" lon="1.27916">
        <ele>1304</ele>
        <time>2026-05-25T10:24:59.000Z</time>
      </trkpt>
      <trkpt lat="42.93105" lon="1.27918">
        <ele>1305</ele>
        <time>2026-05-25T10:25:00.000Z</time>
      </trkpt>
      <trkpt lat="42.93102" lon="1.2792">
        <ele>1305</ele>
        <time>2026-05-25T10:25:01.000Z</time>
      </trkpt>
      <trkpt lat="42.931" lon="1.27923">
        <ele>1306</ele>
        <time>2026-05-25T10:25:02.000Z</time>
      </trkpt>
      <trkpt lat="42.93097" lon="1.27926">
        <ele>1307</ele>
        <time>2026-05-25T10:25:03.000Z</time>
      </trkpt>
      <trkpt lat="42.93093" lon="1.2793">
        <ele>1308</ele>
        <time>2026-05-25T10:25:04.000Z</time>
      </trkpt>
      <trkpt lat="42.9309" lon="1.27934">
        <ele>1308</ele>
        <time>2026-05-25T10:25:05.000Z</time>
      </trkpt>
      <trkpt lat="42.93087" lon="1.27938">
        <ele>1308</ele>
        <time>2026-05-25T10:25:06.000Z</time>
      </trkpt>
      <trkpt lat="42.93083" lon="1.27939">
        <ele>1308</ele>
        <time>2026-05-25T10:25:07.000Z</time>
      </trkpt>
      <trkpt lat="42.9308" lon="1.27941">
        <ele>1308</ele>
        <time>2026-05-25T10:25:08.000Z</time>
      </trkpt>
      <trkpt lat="42.93076" lon="1.27942">
        <ele>1309</ele>
        <time>2026-05-25T10:25:09.000Z</time>
      </trkpt>
      <trkpt lat="42.93072" lon="1.27942">
        <ele>1310</ele>
        <time>2026-05-25T10:25:10.000Z</time>
      </trkpt>
      <trkpt lat="42.93069" lon="1.27943">
        <ele>1311</ele>
        <time>2026-05-25T10:25:11.000Z</time>
      </trkpt>
      <trkpt lat="42.93066" lon="1.27945">
        <ele>1312</ele>
        <time>2026-05-25T10:25:12.000Z</time>
      </trkpt>
      <trkpt lat="42.93062" lon="1.27947">
        <ele>1312</ele>
        <time>2026-05-25T10:25:13.000Z</time>
      </trkpt>
      <trkpt lat="42.9306" lon="1.27948">
        <ele>1314</ele>
        <time>2026-05-25T10:25:14.000Z</time>
      </trkpt>
      <trkpt lat="42.93057" lon="1.2795">
        <ele>1316</ele>
        <time>2026-05-25T10:25:15.000Z</time>
      </trkpt>
      <trkpt lat="42.93055" lon="1.27951">
        <ele>1317</ele>
        <time>2026-05-25T10:25:16.000Z</time>
      </trkpt>
      <trkpt lat="42.93052" lon="1.27953">
        <ele>1319</ele>
        <time>2026-05-25T10:25:17.000Z</time>
      </trkpt>
      <trkpt lat="42.93049" lon="1.27954">
        <ele>1320</ele>
        <time>2026-05-25T10:25:18.000Z</time>
      </trkpt>
      <trkpt lat="42.93047" lon="1.27957">
        <ele>1321</ele>
        <time>2026-05-25T10:25:19.000Z</time>
      </trkpt>
      <trkpt lat="42.93045" lon="1.27959">
        <ele>1322</ele>
        <time>2026-05-25T10:25:20.000Z</time>
      </trkpt>
      <trkpt lat="42.93043" lon="1.27962">
        <ele>1322</ele>
        <time>2026-05-25T10:25:21.000Z</time>
      </trkpt>
      <trkpt lat="42.9304" lon="1.27964">
        <ele>1323</ele>
        <time>2026-05-25T10:25:22.000Z</time>
      </trkpt>
      <trkpt lat="42.93037" lon="1.27967">
        <ele>1323</ele>
        <time>2026-05-25T10:25:23.000Z</time>
      </trkpt>
      <trkpt lat="42.93034" lon="1.27971">
        <ele>1324</ele>
        <time>2026-05-25T10:25:24.000Z</time>
      </trkpt>
      <trkpt lat="42.93031" lon="1.27974">
        <ele>1325</ele>
        <time>2026-05-25T10:25:25.000Z</time>
      </trkpt>
      <trkpt lat="42.93027" lon="1.27978">
        <ele>1324</ele>
        <time>2026-05-25T10:25:26.000Z</time>
      </trkpt>
      <trkpt lat="42.93023" lon="1.27981">
        <ele>1324</ele>
        <time>2026-05-25T10:25:27.000Z</time>
      </trkpt>
      <trkpt lat="42.93019" lon="1.27985">
        <ele>1323</ele>
        <time>2026-05-25T10:25:28.000Z</time>
      </trkpt>
      <trkpt lat="42.93016" lon="1.27988">
        <ele>1323</ele>
        <time>2026-05-25T10:25:29.000Z</time>
      </trkpt>
      <trkpt lat="42.93012" lon="1.27992">
        <ele>1323</ele>
        <time>2026-05-25T10:25:30.000Z</time>
      </trkpt>
      <trkpt lat="42.93008" lon="1.27994">
        <ele>1323</ele>
        <time>2026-05-25T10:25:31.000Z</time>
      </trkpt>
      <trkpt lat="42.93003" lon="1.27996">
        <ele>1323</ele>
        <time>2026-05-25T10:25:32.000Z</time>
      </trkpt>
      <trkpt lat="42.92999" lon="1.27999">
        <ele>1323</ele>
        <time>2026-05-25T10:25:33.000Z</time>
      </trkpt>
      <trkpt lat="42.92995" lon="1.28001">
        <ele>1323</ele>
        <time>2026-05-25T10:25:34.000Z</time>
      </trkpt>
      <trkpt lat="42.9299" lon="1.28003">
        <ele>1323</ele>
        <time>2026-05-25T10:25:35.000Z</time>
      </trkpt>
      <trkpt lat="42.92986" lon="1.28006">
        <ele>1322</ele>
        <time>2026-05-25T10:25:36.000Z</time>
      </trkpt>
      <trkpt lat="42.92983" lon="1.2801">
        <ele>1322</ele>
        <time>2026-05-25T10:25:37.000Z</time>
      </trkpt>
      <trkpt lat="42.9298" lon="1.28014">
        <ele>1322</ele>
        <time>2026-05-25T10:25:38.000Z</time>
      </trkpt>
      <trkpt lat="42.92976" lon="1.28017">
        <ele>1321</ele>
        <time>2026-05-25T10:25:39.000Z</time>
      </trkpt>
      <trkpt lat="42.92972" lon="1.2802">
        <ele>1321</ele>
        <time>2026-05-25T10:25:40.000Z</time>
      </trkpt>
      <trkpt lat="42.92969" lon="1.28023">
        <ele>1321</ele>
        <time>2026-05-25T10:25:41.000Z</time>
      </trkpt>
      <trkpt lat="42.92966" lon="1.28025">
        <ele>1321</ele>
        <time>2026-05-25T10:25:42.000Z</time>
      </trkpt>
      <trkpt lat="42.92963" lon="1.28027">
        <ele>1322</ele>
        <time>2026-05-25T10:25:43.000Z</time>
      </trkpt>
      <trkpt lat="42.9296" lon="1.28029">
        <ele>1322</ele>
        <time>2026-05-25T10:25:44.000Z</time>
      </trkpt>
      <trkpt lat="42.92957" lon="1.28031">
        <ele>1323</ele>
        <time>2026-05-25T10:25:45.000Z</time>
      </trkpt>
      <trkpt lat="42.92953" lon="1.28033">
        <ele>1323</ele>
        <time>2026-05-25T10:25:46.000Z</time>
      </trkpt>
      <trkpt lat="42.9295" lon="1.28035">
        <ele>1323</ele>
        <time>2026-05-25T10:25:47.000Z</time>
      </trkpt>
      <trkpt lat="42.92947" lon="1.28038">
        <ele>1323</ele>
        <time>2026-05-25T10:25:48.000Z</time>
      </trkpt>
      <trkpt lat="42.92944" lon="1.28041">
        <ele>1323</ele>
        <time>2026-05-25T10:25:49.000Z</time>
      </trkpt>
      <trkpt lat="42.92942" lon="1.28045">
        <ele>1322</ele>
        <time>2026-05-25T10:25:50.000Z</time>
      </trkpt>
      <trkpt lat="42.92939" lon="1.28048">
        <ele>1322</ele>
        <time>2026-05-25T10:25:51.000Z</time>
      </trkpt>
      <trkpt lat="42.92936" lon="1.28052">
        <ele>1322</ele>
        <time>2026-05-25T10:25:52.000Z</time>
      </trkpt>
      <trkpt lat="42.92932" lon="1.28055">
        <ele>1322</ele>
        <time>2026-05-25T10:25:53.000Z</time>
      </trkpt>
      <trkpt lat="42.92928" lon="1.28059">
        <ele>1321</ele>
        <time>2026-05-25T10:25:54.000Z</time>
      </trkpt>
      <trkpt lat="42.92926" lon="1.28062">
        <ele>1321</ele>
        <time>2026-05-25T10:25:55.000Z</time>
      </trkpt>
      <trkpt lat="42.92923" lon="1.28065">
        <ele>1322</ele>
        <time>2026-05-25T10:25:56.000Z</time>
      </trkpt>
      <trkpt lat="42.92921" lon="1.28069">
        <ele>1322</ele>
        <time>2026-05-25T10:25:57.000Z</time>
      </trkpt>
      <trkpt lat="42.92918" lon="1.28072">
        <ele>1322</ele>
        <time>2026-05-25T10:25:58.000Z</time>
      </trkpt>
      <trkpt lat="42.92916" lon="1.28077">
        <ele>1322</ele>
        <time>2026-05-25T10:25:59.000Z</time>
      </trkpt>
      <trkpt lat="42.92913" lon="1.2808">
        <ele>1322</ele>
        <time>2026-05-25T10:26:00.000Z</time>
      </trkpt>
      <trkpt lat="42.92911" lon="1.28083">
        <ele>1323</ele>
        <time>2026-05-25T10:26:01.000Z</time>
      </trkpt>
      <trkpt lat="42.92908" lon="1.28086">
        <ele>1324</ele>
        <time>2026-05-25T10:26:02.000Z</time>
      </trkpt>
      <trkpt lat="42.92906" lon="1.2809">
        <ele>1324</ele>
        <time>2026-05-25T10:26:03.000Z</time>
      </trkpt>
      <trkpt lat="42.92904" lon="1.28093">
        <ele>1325</ele>
        <time>2026-05-25T10:26:04.000Z</time>
      </trkpt>
      <trkpt lat="42.92902" lon="1.28097">
        <ele>1326</ele>
        <time>2026-05-25T10:26:05.000Z</time>
      </trkpt>
      <trkpt lat="42.929" lon="1.28101">
        <ele>1326</ele>
        <time>2026-05-25T10:26:06.000Z</time>
      </trkpt>
      <trkpt lat="42.92897" lon="1.28105">
        <ele>1327</ele>
        <time>2026-05-25T10:26:07.000Z</time>
      </trkpt>
      <trkpt lat="42.92895" lon="1.28109">
        <ele>1328</ele>
        <time>2026-05-25T10:26:08.000Z</time>
      </trkpt>
      <trkpt lat="42.92892" lon="1.28112">
        <ele>1329</ele>
        <time>2026-05-25T10:26:09.000Z</time>
      </trkpt>
      <trkpt lat="42.9289" lon="1.28115">
        <ele>1331</ele>
        <time>2026-05-25T10:26:10.000Z</time>
      </trkpt>
      <trkpt lat="42.92887" lon="1.28119">
        <ele>1331</ele>
        <time>2026-05-25T10:26:11.000Z</time>
      </trkpt>
      <trkpt lat="42.92885" lon="1.28123">
        <ele>1333</ele>
        <time>2026-05-25T10:26:12.000Z</time>
      </trkpt>
      <trkpt lat="42.92882" lon="1.28126">
        <ele>1333</ele>
        <time>2026-05-25T10:26:13.000Z</time>
      </trkpt>
      <trkpt lat="42.9288" lon="1.28129">
        <ele>1334</ele>
        <time>2026-05-25T10:26:14.000Z</time>
      </trkpt>
      <trkpt lat="42.92878" lon="1.28133">
        <ele>1335</ele>
        <time>2026-05-25T10:26:15.000Z</time>
      </trkpt>
      <trkpt lat="42.92876" lon="1.28137">
        <ele>1335</ele>
        <time>2026-05-25T10:26:16.000Z</time>
      </trkpt>
      <trkpt lat="42.92873" lon="1.28141">
        <ele>1334</ele>
        <time>2026-05-25T10:26:17.000Z</time>
      </trkpt>
      <trkpt lat="42.92871" lon="1.28145">
        <ele>1335</ele>
        <time>2026-05-25T10:26:18.000Z</time>
      </trkpt>
      <trkpt lat="42.92868" lon="1.28149">
        <ele>1335</ele>
        <time>2026-05-25T10:26:19.000Z</time>
      </trkpt>
      <trkpt lat="42.92866" lon="1.28153">
        <ele>1335</ele>
        <time>2026-05-25T10:26:20.000Z</time>
      </trkpt>
      <trkpt lat="42.92863" lon="1.28155">
        <ele>1335</ele>
        <time>2026-05-25T10:26:21.000Z</time>
      </trkpt>
      <trkpt lat="42.9286" lon="1.28157">
        <ele>1335</ele>
        <time>2026-05-25T10:26:22.000Z</time>
      </trkpt>
      <trkpt lat="42.92858" lon="1.28161">
        <ele>1335</ele>
        <time>2026-05-25T10:26:23.000Z</time>
      </trkpt>
      <trkpt lat="42.92855" lon="1.28165">
        <ele>1336</ele>
        <time>2026-05-25T10:26:24.000Z</time>
      </trkpt>
      <trkpt lat="42.92852" lon="1.2817">
        <ele>1336</ele>
        <time>2026-05-25T10:26:25.000Z</time>
      </trkpt>
      <trkpt lat="42.9285" lon="1.28174">
        <ele>1336</ele>
        <time>2026-05-25T10:26:26.000Z</time>
      </trkpt>
      <trkpt lat="42.92848" lon="1.28177">
        <ele>1336</ele>
        <time>2026-05-25T10:26:27.000Z</time>
      </trkpt>
      <trkpt lat="42.92845" lon="1.28181">
        <ele>1336</ele>
        <time>2026-05-25T10:26:28.000Z</time>
      </trkpt>
      <trkpt lat="42.92844" lon="1.28186">
        <ele>1337</ele>
        <time>2026-05-25T10:26:29.000Z</time>
      </trkpt>
      <trkpt lat="42.92841" lon="1.28189">
        <ele>1338</ele>
        <time>2026-05-25T10:26:30.000Z</time>
      </trkpt>
      <trkpt lat="42.92839" lon="1.28192">
        <ele>1338</ele>
        <time>2026-05-25T10:26:31.000Z</time>
      </trkpt>
      <trkpt lat="42.92836" lon="1.28195">
        <ele>1339</ele>
        <time>2026-05-25T10:26:32.000Z</time>
      </trkpt>
      <trkpt lat="42.92834" lon="1.28198">
        <ele>1340</ele>
        <time>2026-05-25T10:26:33.000Z</time>
      </trkpt>
      <trkpt lat="42.92832" lon="1.28202">
        <ele>1339</ele>
        <time>2026-05-25T10:26:34.000Z</time>
      </trkpt>
      <trkpt lat="42.92829" lon="1.28207">
        <ele>1339</ele>
        <time>2026-05-25T10:26:35.000Z</time>
      </trkpt>
      <trkpt lat="42.92827" lon="1.2821">
        <ele>1340</ele>
        <time>2026-05-25T10:26:36.000Z</time>
      </trkpt>
      <trkpt lat="42.92826" lon="1.28214">
        <ele>1340</ele>
        <time>2026-05-25T10:26:37.000Z</time>
      </trkpt>
      <trkpt lat="42.92824" lon="1.28219">
        <ele>1340</ele>
        <time>2026-05-25T10:26:38.000Z</time>
      </trkpt>
      <trkpt lat="42.92822" lon="1.28223">
        <ele>1340</ele>
        <time>2026-05-25T10:26:39.000Z</time>
      </trkpt>
      <trkpt lat="42.92819" lon="1.28228">
        <ele>1339</ele>
        <time>2026-05-25T10:26:40.000Z</time>
      </trkpt>
      <trkpt lat="42.92816" lon="1.28231">
        <ele>1339</ele>
        <time>2026-05-25T10:26:41.000Z</time>
      </trkpt>
      <trkpt lat="42.92814" lon="1.28235">
        <ele>1339</ele>
        <time>2026-05-25T10:26:42.000Z</time>
      </trkpt>
      <trkpt lat="42.92811" lon="1.28238">
        <ele>1340</ele>
        <time>2026-05-25T10:26:43.000Z</time>
      </trkpt>
      <trkpt lat="42.92809" lon="1.28241">
        <ele>1340</ele>
        <time>2026-05-25T10:26:44.000Z</time>
      </trkpt>
      <trkpt lat="42.92807" lon="1.28244">
        <ele>1339</ele>
        <time>2026-05-25T10:26:45.000Z</time>
      </trkpt>
      <trkpt lat="42.92804" lon="1.28247">
        <ele>1339</ele>
        <time>2026-05-25T10:26:46.000Z</time>
      </trkpt>
      <trkpt lat="42.92801" lon="1.28251">
        <ele>1339</ele>
        <time>2026-05-25T10:26:47.000Z</time>
      </trkpt>
      <trkpt lat="42.92798" lon="1.28253">
        <ele>1339</ele>
        <time>2026-05-25T10:26:48.000Z</time>
      </trkpt>
      <trkpt lat="42.92796" lon="1.28256">
        <ele>1339</ele>
        <time>2026-05-25T10:26:49.000Z</time>
      </trkpt>
      <trkpt lat="42.92793" lon="1.28258">
        <ele>1338</ele>
        <time>2026-05-25T10:26:50.000Z</time>
      </trkpt>
      <trkpt lat="42.9279" lon="1.28262">
        <ele>1337</ele>
        <time>2026-05-25T10:26:51.000Z</time>
      </trkpt>
      <trkpt lat="42.92787" lon="1.28265">
        <ele>1337</ele>
        <time>2026-05-25T10:26:52.000Z</time>
      </trkpt>
      <trkpt lat="42.92784" lon="1.28267">
        <ele>1337</ele>
        <time>2026-05-25T10:26:53.000Z</time>
      </trkpt>
      <trkpt lat="42.92781" lon="1.28269">
        <ele>1337</ele>
        <time>2026-05-25T10:26:54.000Z</time>
      </trkpt>
      <trkpt lat="42.92778" lon="1.28272">
        <ele>1337</ele>
        <time>2026-05-25T10:26:55.000Z</time>
      </trkpt>
      <trkpt lat="42.92776" lon="1.28274">
        <ele>1336</ele>
        <time>2026-05-25T10:26:56.000Z</time>
      </trkpt>
      <trkpt lat="42.92773" lon="1.28276">
        <ele>1335</ele>
        <time>2026-05-25T10:26:57.000Z</time>
      </trkpt>
      <trkpt lat="42.9277" lon="1.28279">
        <ele>1335</ele>
        <time>2026-05-25T10:26:58.000Z</time>
      </trkpt>
      <trkpt lat="42.92767" lon="1.28281">
        <ele>1334</ele>
        <time>2026-05-25T10:26:59.000Z</time>
      </trkpt>
      <trkpt lat="42.92764" lon="1.28283">
        <ele>1333</ele>
        <time>2026-05-25T10:27:00.000Z</time>
      </trkpt>
      <trkpt lat="42.92761" lon="1.28285">
        <ele>1332</ele>
        <time>2026-05-25T10:27:01.000Z</time>
      </trkpt>
      <trkpt lat="42.92758" lon="1.28288">
        <ele>1332</ele>
        <time>2026-05-25T10:27:02.000Z</time>
      </trkpt>
      <trkpt lat="42.92755" lon="1.2829">
        <ele>1332</ele>
        <time>2026-05-25T10:27:03.000Z</time>
      </trkpt>
      <trkpt lat="42.92752" lon="1.28294">
        <ele>1332</ele>
        <time>2026-05-25T10:27:04.000Z</time>
      </trkpt>
      <trkpt lat="42.9275" lon="1.28296">
        <ele>1332</ele>
        <time>2026-05-25T10:27:05.000Z</time>
      </trkpt>
      <trkpt lat="42.92747" lon="1.28299">
        <ele>1332</ele>
        <time>2026-05-25T10:27:06.000Z</time>
      </trkpt>
      <trkpt lat="42.92745" lon="1.28301">
        <ele>1333</ele>
        <time>2026-05-25T10:27:07.000Z</time>
      </trkpt>
      <trkpt lat="42.92741" lon="1.28304">
        <ele>1332</ele>
        <time>2026-05-25T10:27:08.000Z</time>
      </trkpt>
      <trkpt lat="42.92738" lon="1.28307">
        <ele>1332</ele>
        <time>2026-05-25T10:27:09.000Z</time>
      </trkpt>
      <trkpt lat="42.92735" lon="1.28309">
        <ele>1332</ele>
        <time>2026-05-25T10:27:10.000Z</time>
      </trkpt>
      <trkpt lat="42.92732" lon="1.28311">
        <ele>1332</ele>
        <time>2026-05-25T10:27:11.000Z</time>
      </trkpt>
      <trkpt lat="42.92729" lon="1.28313">
        <ele>1333</ele>
        <time>2026-05-25T10:27:12.000Z</time>
      </trkpt>
      <trkpt lat="42.92727" lon="1.28315">
        <ele>1333</ele>
        <time>2026-05-25T10:27:13.000Z</time>
      </trkpt>
      <trkpt lat="42.92724" lon="1.28316">
        <ele>1333</ele>
        <time>2026-05-25T10:27:14.000Z</time>
      </trkpt>
      <trkpt lat="42.92722" lon="1.28318">
        <ele>1333</ele>
        <time>2026-05-25T10:27:15.000Z</time>
      </trkpt>
      <trkpt lat="42.92719" lon="1.28319">
        <ele>1333</ele>
        <time>2026-05-25T10:27:16.000Z</time>
      </trkpt>
      <trkpt lat="42.92716" lon="1.28321">
        <ele>1333</ele>
        <time>2026-05-25T10:27:17.000Z</time>
      </trkpt>
      <trkpt lat="42.92713" lon="1.28322">
        <ele>1333</ele>
        <time>2026-05-25T10:27:18.000Z</time>
      </trkpt>
      <trkpt lat="42.9271" lon="1.28324">
        <ele>1334</ele>
        <time>2026-05-25T10:27:19.000Z</time>
      </trkpt>
      <trkpt lat="42.92707" lon="1.28325">
        <ele>1333</ele>
        <time>2026-05-25T10:27:20.000Z</time>
      </trkpt>
      <trkpt lat="42.92704" lon="1.28327">
        <ele>1333</ele>
        <time>2026-05-25T10:27:21.000Z</time>
      </trkpt>
      <trkpt lat="42.92701" lon="1.28328">
        <ele>1333</ele>
        <time>2026-05-25T10:27:22.000Z</time>
      </trkpt>
      <trkpt lat="42.92698" lon="1.2833">
        <ele>1332</ele>
        <time>2026-05-25T10:27:23.000Z</time>
      </trkpt>
      <trkpt lat="42.92694" lon="1.2833">
        <ele>1333</ele>
        <time>2026-05-25T10:27:24.000Z</time>
      </trkpt>
      <trkpt lat="42.92691" lon="1.28333">
        <ele>1333</ele>
        <time>2026-05-25T10:27:25.000Z</time>
      </trkpt>
      <trkpt lat="42.92688" lon="1.28335">
        <ele>1333</ele>
        <time>2026-05-25T10:27:26.000Z</time>
      </trkpt>
      <trkpt lat="42.92685" lon="1.28338">
        <ele>1334</ele>
        <time>2026-05-25T10:27:27.000Z</time>
      </trkpt>
      <trkpt lat="42.92682" lon="1.28341">
        <ele>1334</ele>
        <time>2026-05-25T10:27:28.000Z</time>
      </trkpt>
      <trkpt lat="42.92679" lon="1.28344">
        <ele>1335</ele>
        <time>2026-05-25T10:27:29.000Z</time>
      </trkpt>
      <trkpt lat="42.92676" lon="1.28348">
        <ele>1335</ele>
        <time>2026-05-25T10:27:30.000Z</time>
      </trkpt>
      <trkpt lat="42.92673" lon="1.28351">
        <ele>1335</ele>
        <time>2026-05-25T10:27:31.000Z</time>
      </trkpt>
      <trkpt lat="42.9267" lon="1.28354">
        <ele>1335</ele>
        <time>2026-05-25T10:27:32.000Z</time>
      </trkpt>
      <trkpt lat="42.92667" lon="1.28357">
        <ele>1335</ele>
        <time>2026-05-25T10:27:33.000Z</time>
      </trkpt>
      <trkpt lat="42.92664" lon="1.28359">
        <ele>1336</ele>
        <time>2026-05-25T10:27:34.000Z</time>
      </trkpt>
      <trkpt lat="42.92661" lon="1.28362">
        <ele>1336</ele>
        <time>2026-05-25T10:27:35.000Z</time>
      </trkpt>
      <trkpt lat="42.92658" lon="1.28365">
        <ele>1336</ele>
        <time>2026-05-25T10:27:36.000Z</time>
      </trkpt>
      <trkpt lat="42.92655" lon="1.28367">
        <ele>1337</ele>
        <time>2026-05-25T10:27:37.000Z</time>
      </trkpt>
      <trkpt lat="42.92652" lon="1.28369">
        <ele>1337</ele>
        <time>2026-05-25T10:27:38.000Z</time>
      </trkpt>
      <trkpt lat="42.92649" lon="1.28372">
        <ele>1338</ele>
        <time>2026-05-25T10:27:39.000Z</time>
      </trkpt>
      <trkpt lat="42.92647" lon="1.28375">
        <ele>1339</ele>
        <time>2026-05-25T10:27:40.000Z</time>
      </trkpt>
      <trkpt lat="42.92645" lon="1.28377">
        <ele>1339</ele>
        <time>2026-05-25T10:27:41.000Z</time>
      </trkpt>
      <trkpt lat="42.92641" lon="1.28381">
        <ele>1340</ele>
        <time>2026-05-25T10:27:42.000Z</time>
      </trkpt>
      <trkpt lat="42.92638" lon="1.28384">
        <ele>1340</ele>
        <time>2026-05-25T10:27:43.000Z</time>
      </trkpt>
      <trkpt lat="42.92636" lon="1.28387">
        <ele>1340</ele>
        <time>2026-05-25T10:27:44.000Z</time>
      </trkpt>
      <trkpt lat="42.92633" lon="1.2839">
        <ele>1340</ele>
        <time>2026-05-25T10:27:45.000Z</time>
      </trkpt>
      <trkpt lat="42.9263" lon="1.28394">
        <ele>1340</ele>
        <time>2026-05-25T10:27:46.000Z</time>
      </trkpt>
      <trkpt lat="42.92627" lon="1.28397">
        <ele>1340</ele>
        <time>2026-05-25T10:27:47.000Z</time>
      </trkpt>
      <trkpt lat="42.92624" lon="1.28398">
        <ele>1340</ele>
        <time>2026-05-25T10:27:48.000Z</time>
      </trkpt>
      <trkpt lat="42.92621" lon="1.28401">
        <ele>1340</ele>
        <time>2026-05-25T10:27:49.000Z</time>
      </trkpt>
      <trkpt lat="42.92618" lon="1.28403">
        <ele>1340</ele>
        <time>2026-05-25T10:27:50.000Z</time>
      </trkpt>
      <trkpt lat="42.92615" lon="1.28406">
        <ele>1340</ele>
        <time>2026-05-25T10:27:51.000Z</time>
      </trkpt>
      <trkpt lat="42.92613" lon="1.28409">
        <ele>1340</ele>
        <time>2026-05-25T10:27:52.000Z</time>
      </trkpt>
      <trkpt lat="42.9261" lon="1.28413">
        <ele>1340</ele>
        <time>2026-05-25T10:27:53.000Z</time>
      </trkpt>
      <trkpt lat="42.92608" lon="1.28417">
        <ele>1340</ele>
        <time>2026-05-25T10:27:54.000Z</time>
      </trkpt>
      <trkpt lat="42.92605" lon="1.2842">
        <ele>1340</ele>
        <time>2026-05-25T10:27:55.000Z</time>
      </trkpt>
      <trkpt lat="42.92603" lon="1.28424">
        <ele>1340</ele>
        <time>2026-05-25T10:27:56.000Z</time>
      </trkpt>
      <trkpt lat="42.92599" lon="1.28427">
        <ele>1340</ele>
        <time>2026-05-25T10:27:57.000Z</time>
      </trkpt>
      <trkpt lat="42.92596" lon="1.28431">
        <ele>1339</ele>
        <time>2026-05-25T10:27:58.000Z</time>
      </trkpt>
      <trkpt lat="42.92594" lon="1.28435">
        <ele>1339</ele>
        <time>2026-05-25T10:27:59.000Z</time>
      </trkpt>
      <trkpt lat="42.92593" lon="1.28438">
        <ele>1339</ele>
        <time>2026-05-25T10:28:00.000Z</time>
      </trkpt>
      <trkpt lat="42.9259" lon="1.28442">
        <ele>1339</ele>
        <time>2026-05-25T10:28:01.000Z</time>
      </trkpt>
      <trkpt lat="42.92587" lon="1.28446">
        <ele>1339</ele>
        <time>2026-05-25T10:28:02.000Z</time>
      </trkpt>
      <trkpt lat="42.92583" lon="1.2845">
        <ele>1338</ele>
        <time>2026-05-25T10:28:03.000Z</time>
      </trkpt>
      <trkpt lat="42.92581" lon="1.28454">
        <ele>1339</ele>
        <time>2026-05-25T10:28:04.000Z</time>
      </trkpt>
      <trkpt lat="42.9258" lon="1.28457">
        <ele>1339</ele>
        <time>2026-05-25T10:28:05.000Z</time>
      </trkpt>
      <trkpt lat="42.92577" lon="1.2846">
        <ele>1339</ele>
        <time>2026-05-25T10:28:06.000Z</time>
      </trkpt>
      <trkpt lat="42.92575" lon="1.28464">
        <ele>1340</ele>
        <time>2026-05-25T10:28:07.000Z</time>
      </trkpt>
      <trkpt lat="42.92573" lon="1.28467">
        <ele>1340</ele>
        <time>2026-05-25T10:28:08.000Z</time>
      </trkpt>
      <trkpt lat="42.92571" lon="1.2847">
        <ele>1341</ele>
        <time>2026-05-25T10:28:09.000Z</time>
      </trkpt>
      <trkpt lat="42.92568" lon="1.28474">
        <ele>1341</ele>
        <time>2026-05-25T10:28:10.000Z</time>
      </trkpt>
      <trkpt lat="42.92566" lon="1.28478">
        <ele>1342</ele>
        <time>2026-05-25T10:28:11.000Z</time>
      </trkpt>
      <trkpt lat="42.92564" lon="1.28482">
        <ele>1343</ele>
        <time>2026-05-25T10:28:12.000Z</time>
      </trkpt>
      <trkpt lat="42.92562" lon="1.28486">
        <ele>1344</ele>
        <time>2026-05-25T10:28:13.000Z</time>
      </trkpt>
      <trkpt lat="42.92559" lon="1.2849">
        <ele>1344</ele>
        <time>2026-05-25T10:28:14.000Z</time>
      </trkpt>
      <trkpt lat="42.92557" lon="1.28494">
        <ele>1345</ele>
        <time>2026-05-25T10:28:15.000Z</time>
      </trkpt>
      <trkpt lat="42.92554" lon="1.28499">
        <ele>1345</ele>
        <time>2026-05-25T10:28:16.000Z</time>
      </trkpt>
      <trkpt lat="42.92551" lon="1.28504">
        <ele>1345</ele>
        <time>2026-05-25T10:28:17.000Z</time>
      </trkpt>
      <trkpt lat="42.92549" lon="1.28509">
        <ele>1346</ele>
        <time>2026-05-25T10:28:18.000Z</time>
      </trkpt>
      <trkpt lat="42.92546" lon="1.28514">
        <ele>1346</ele>
        <time>2026-05-25T10:28:19.000Z</time>
      </trkpt>
      <trkpt lat="42.92544" lon="1.28519">
        <ele>1346</ele>
        <time>2026-05-25T10:28:20.000Z</time>
      </trkpt>
      <trkpt lat="42.92541" lon="1.28521">
        <ele>1346</ele>
        <time>2026-05-25T10:28:21.000Z</time>
      </trkpt>
      <trkpt lat="42.92539" lon="1.28526">
        <ele>1346</ele>
        <time>2026-05-25T10:28:22.000Z</time>
      </trkpt>
      <trkpt lat="42.92535" lon="1.2853">
        <ele>1346</ele>
        <time>2026-05-25T10:28:23.000Z</time>
      </trkpt>
      <trkpt lat="42.92533" lon="1.28535">
        <ele>1347</ele>
        <time>2026-05-25T10:28:24.000Z</time>
      </trkpt>
      <trkpt lat="42.92531" lon="1.28539">
        <ele>1347</ele>
        <time>2026-05-25T10:28:25.000Z</time>
      </trkpt>
      <trkpt lat="42.92529" lon="1.28543">
        <ele>1348</ele>
        <time>2026-05-25T10:28:26.000Z</time>
      </trkpt>
      <trkpt lat="42.92527" lon="1.28547">
        <ele>1348</ele>
        <time>2026-05-25T10:28:27.000Z</time>
      </trkpt>
      <trkpt lat="42.92525" lon="1.28552">
        <ele>1348</ele>
        <time>2026-05-25T10:28:28.000Z</time>
      </trkpt>
      <trkpt lat="42.92522" lon="1.28557">
        <ele>1348</ele>
        <time>2026-05-25T10:28:29.000Z</time>
      </trkpt>
      <trkpt lat="42.9252" lon="1.28561">
        <ele>1349</ele>
        <time>2026-05-25T10:28:30.000Z</time>
      </trkpt>
      <trkpt lat="42.92518" lon="1.28565">
        <ele>1350</ele>
        <time>2026-05-25T10:28:31.000Z</time>
      </trkpt>
      <trkpt lat="42.92516" lon="1.28569">
        <ele>1351</ele>
        <time>2026-05-25T10:28:32.000Z</time>
      </trkpt>
      <trkpt lat="42.92514" lon="1.28574">
        <ele>1351</ele>
        <time>2026-05-25T10:28:33.000Z</time>
      </trkpt>
      <trkpt lat="42.92512" lon="1.28579">
        <ele>1352</ele>
        <time>2026-05-25T10:28:34.000Z</time>
      </trkpt>
      <trkpt lat="42.9251" lon="1.28584">
        <ele>1353</ele>
        <time>2026-05-25T10:28:35.000Z</time>
      </trkpt>
      <trkpt lat="42.92509" lon="1.2859">
        <ele>1354</ele>
        <time>2026-05-25T10:28:36.000Z</time>
      </trkpt>
      <trkpt lat="42.92507" lon="1.28596">
        <ele>1355</ele>
        <time>2026-05-25T10:28:37.000Z</time>
      </trkpt>
      <trkpt lat="42.92505" lon="1.28601">
        <ele>1357</ele>
        <time>2026-05-25T10:28:38.000Z</time>
      </trkpt>
      <trkpt lat="42.92504" lon="1.28605">
        <ele>1358</ele>
        <time>2026-05-25T10:28:39.000Z</time>
      </trkpt>
      <trkpt lat="42.92503" lon="1.28611">
        <ele>1359</ele>
        <time>2026-05-25T10:28:40.000Z</time>
      </trkpt>
      <trkpt lat="42.92502" lon="1.28618">
        <ele>1359</ele>
        <time>2026-05-25T10:28:41.000Z</time>
      </trkpt>
      <trkpt lat="42.92501" lon="1.28624">
        <ele>1359</ele>
        <time>2026-05-25T10:28:42.000Z</time>
      </trkpt>
      <trkpt lat="42.92499" lon="1.28629">
        <ele>1360</ele>
        <time>2026-05-25T10:28:43.000Z</time>
      </trkpt>
      <trkpt lat="42.92498" lon="1.28635">
        <ele>1360</ele>
        <time>2026-05-25T10:28:44.000Z</time>
      </trkpt>
      <trkpt lat="42.92498" lon="1.28641">
        <ele>1359</ele>
        <time>2026-05-25T10:28:45.000Z</time>
      </trkpt>
      <trkpt lat="42.92498" lon="1.28647">
        <ele>1358</ele>
        <time>2026-05-25T10:28:46.000Z</time>
      </trkpt>
      <trkpt lat="42.92497" lon="1.28652">
        <ele>1359</ele>
        <time>2026-05-25T10:28:47.000Z</time>
      </trkpt>
      <trkpt lat="42.92497" lon="1.28657">
        <ele>1359</ele>
        <time>2026-05-25T10:28:48.000Z</time>
      </trkpt>
      <trkpt lat="42.92497" lon="1.28663">
        <ele>1359</ele>
        <time>2026-05-25T10:28:49.000Z</time>
      </trkpt>
      <trkpt lat="42.92496" lon="1.28668">
        <ele>1359</ele>
        <time>2026-05-25T10:28:50.000Z</time>
      </trkpt>
      <trkpt lat="42.92495" lon="1.28672">
        <ele>1359</ele>
        <time>2026-05-25T10:28:51.000Z</time>
      </trkpt>
      <trkpt lat="42.92495" lon="1.28678">
        <ele>1358</ele>
        <time>2026-05-25T10:28:52.000Z</time>
      </trkpt>
      <trkpt lat="42.92494" lon="1.28683">
        <ele>1357</ele>
        <time>2026-05-25T10:28:53.000Z</time>
      </trkpt>
      <trkpt lat="42.92493" lon="1.28689">
        <ele>1356</ele>
        <time>2026-05-25T10:28:54.000Z</time>
      </trkpt>
      <trkpt lat="42.92492" lon="1.28695">
        <ele>1356</ele>
        <time>2026-05-25T10:28:55.000Z</time>
      </trkpt>
      <trkpt lat="42.92492" lon="1.287">
        <ele>1355</ele>
        <time>2026-05-25T10:28:56.000Z</time>
      </trkpt>
      <trkpt lat="42.92492" lon="1.28705">
        <ele>1354</ele>
        <time>2026-05-25T10:28:57.000Z</time>
      </trkpt>
      <trkpt lat="42.92492" lon="1.28709">
        <ele>1354</ele>
        <time>2026-05-25T10:28:58.000Z</time>
      </trkpt>
      <trkpt lat="42.92492" lon="1.28714">
        <ele>1354</ele>
        <time>2026-05-25T10:28:59.000Z</time>
      </trkpt>
      <trkpt lat="42.92493" lon="1.28717">
        <ele>1353</ele>
        <time>2026-05-25T10:29:00.000Z</time>
      </trkpt>
      <trkpt lat="42.92494" lon="1.28721">
        <ele>1353</ele>
        <time>2026-05-25T10:29:01.000Z</time>
      </trkpt>
      <trkpt lat="42.92495" lon="1.28725">
        <ele>1353</ele>
        <time>2026-05-25T10:29:02.000Z</time>
      </trkpt>
      <trkpt lat="42.92495" lon="1.28729">
        <ele>1352</ele>
        <time>2026-05-25T10:29:03.000Z</time>
      </trkpt>
      <trkpt lat="42.92496" lon="1.28734">
        <ele>1352</ele>
        <time>2026-05-25T10:29:04.000Z</time>
      </trkpt>
      <trkpt lat="42.92496" lon="1.28737">
        <ele>1352</ele>
        <time>2026-05-25T10:29:05.000Z</time>
      </trkpt>
      <trkpt lat="42.92497" lon="1.28741">
        <ele>1352</ele>
        <time>2026-05-25T10:29:06.000Z</time>
      </trkpt>
      <trkpt lat="42.92499" lon="1.28743">
        <ele>1352</ele>
        <time>2026-05-25T10:29:07.000Z</time>
      </trkpt>
      <trkpt lat="42.92501" lon="1.28745">
        <ele>1352</ele>
        <time>2026-05-25T10:29:08.000Z</time>
      </trkpt>
      <trkpt lat="42.92503" lon="1.28747">
        <ele>1351</ele>
        <time>2026-05-25T10:29:09.000Z</time>
      </trkpt>
      <trkpt lat="42.92505" lon="1.28748">
        <ele>1351</ele>
        <time>2026-05-25T10:29:10.000Z</time>
      </trkpt>
      <trkpt lat="42.92507" lon="1.28749">
        <ele>1351</ele>
        <time>2026-05-25T10:29:11.000Z</time>
      </trkpt>
      <trkpt lat="42.92509" lon="1.28749">
        <ele>1351</ele>
        <time>2026-05-25T10:29:12.000Z</time>
      </trkpt>
      <trkpt lat="42.92511" lon="1.28749">
        <ele>1351</ele>
        <time>2026-05-25T10:29:13.000Z</time>
      </trkpt>
      <trkpt lat="42.92514" lon="1.28749">
        <ele>1351</ele>
        <time>2026-05-25T10:29:14.000Z</time>
      </trkpt>
      <trkpt lat="42.92516" lon="1.28748">
        <ele>1351</ele>
        <time>2026-05-25T10:29:15.000Z</time>
      </trkpt>
      <trkpt lat="42.92518" lon="1.28748">
        <ele>1351</ele>
        <time>2026-05-25T10:29:16.000Z</time>
      </trkpt>
      <trkpt lat="42.9252" lon="1.28748">
        <ele>1352</ele>
        <time>2026-05-25T10:29:17.000Z</time>
      </trkpt>
      <trkpt lat="42.92522" lon="1.28747">
        <ele>1352</ele>
        <time>2026-05-25T10:29:18.000Z</time>
      </trkpt>
      <trkpt lat="42.92524" lon="1.28746">
        <ele>1352</ele>
        <time>2026-05-25T10:29:19.000Z</time>
      </trkpt>
      <trkpt lat="42.92525" lon="1.28746">
        <ele>1353</ele>
        <time>2026-05-25T10:29:20.000Z</time>
      </trkpt>
      <trkpt lat="42.92527" lon="1.28746">
        <ele>1353</ele>
        <time>2026-05-25T10:29:21.000Z</time>
      </trkpt>
      <trkpt lat="42.92529" lon="1.28746">
        <ele>1353</ele>
        <time>2026-05-25T10:29:22.000Z</time>
      </trkpt>
      <trkpt lat="42.92531" lon="1.28746">
        <ele>1353</ele>
        <time>2026-05-25T10:29:23.000Z</time>
      </trkpt>
      <trkpt lat="42.92533" lon="1.28746">
        <ele>1354</ele>
        <time>2026-05-25T10:29:24.000Z</time>
      </trkpt>
      <trkpt lat="42.92535" lon="1.28745">
        <ele>1354</ele>
        <time>2026-05-25T10:29:25.000Z</time>
      </trkpt>
      <trkpt lat="42.92537" lon="1.28746">
        <ele>1355</ele>
        <time>2026-05-25T10:29:26.000Z</time>
      </trkpt>
      <trkpt lat="42.92539" lon="1.28746">
        <ele>1355</ele>
        <time>2026-05-25T10:29:27.000Z</time>
      </trkpt>
      <trkpt lat="42.92541" lon="1.28746">
        <ele>1355</ele>
        <time>2026-05-25T10:29:28.000Z</time>
      </trkpt>
      <trkpt lat="42.92542" lon="1.28746">
        <ele>1356</ele>
        <time>2026-05-25T10:29:29.000Z</time>
      </trkpt>
      <trkpt lat="42.92544" lon="1.28747">
        <ele>1356</ele>
        <time>2026-05-25T10:29:30.000Z</time>
      </trkpt>
      <trkpt lat="42.92546" lon="1.28747">
        <ele>1356</ele>
        <time>2026-05-25T10:29:31.000Z</time>
      </trkpt>
      <trkpt lat="42.92548" lon="1.28747">
        <ele>1357</ele>
        <time>2026-05-25T10:29:32.000Z</time>
      </trkpt>
      <trkpt lat="42.92549" lon="1.28747">
        <ele>1357</ele>
        <time>2026-05-25T10:29:33.000Z</time>
      </trkpt>
      <trkpt lat="42.92551" lon="1.28747">
        <ele>1358</ele>
        <time>2026-05-25T10:29:34.000Z</time>
      </trkpt>
      <trkpt lat="42.92553" lon="1.28747">
        <ele>1358</ele>
        <time>2026-05-25T10:29:35.000Z</time>
      </trkpt>
      <trkpt lat="42.92555" lon="1.28747">
        <ele>1358</ele>
        <time>2026-05-25T10:29:36.000Z</time>
      </trkpt>
      <trkpt lat="42.92557" lon="1.28746">
        <ele>1358</ele>
        <time>2026-05-25T10:29:37.000Z</time>
      </trkpt>
      <trkpt lat="42.92559" lon="1.28746">
        <ele>1358</ele>
        <time>2026-05-25T10:29:38.000Z</time>
      </trkpt>
      <trkpt lat="42.92561" lon="1.28746">
        <ele>1359</ele>
        <time>2026-05-25T10:29:39.000Z</time>
      </trkpt>
      <trkpt lat="42.92563" lon="1.28745">
        <ele>1359</ele>
        <time>2026-05-25T10:29:40.000Z</time>
      </trkpt>
      <trkpt lat="42.92564" lon="1.28746">
        <ele>1360</ele>
        <time>2026-05-25T10:29:41.000Z</time>
      </trkpt>
      <trkpt lat="42.92566" lon="1.28746">
        <ele>1360</ele>
        <time>2026-05-25T10:29:42.000Z</time>
      </trkpt>
      <trkpt lat="42.92568" lon="1.28746">
        <ele>1360</ele>
        <time>2026-05-25T10:29:43.000Z</time>
      </trkpt>
      <trkpt lat="42.92571" lon="1.28746">
        <ele>1360</ele>
        <time>2026-05-25T10:29:44.000Z</time>
      </trkpt>
      <trkpt lat="42.92573" lon="1.28746">
        <ele>1360</ele>
        <time>2026-05-25T10:29:45.000Z</time>
      </trkpt>
      <trkpt lat="42.92575" lon="1.28746">
        <ele>1360</ele>
        <time>2026-05-25T10:29:46.000Z</time>
      </trkpt>
      <trkpt lat="42.92576" lon="1.28745">
        <ele>1360</ele>
        <time>2026-05-25T10:29:47.000Z</time>
      </trkpt>
      <trkpt lat="42.92579" lon="1.28745">
        <ele>1361</ele>
        <time>2026-05-25T10:29:48.000Z</time>
      </trkpt>
      <trkpt lat="42.9258" lon="1.28744">
        <ele>1361</ele>
        <time>2026-05-25T10:29:49.000Z</time>
      </trkpt>
      <trkpt lat="42.92583" lon="1.28745">
        <ele>1360</ele>
        <time>2026-05-25T10:29:50.000Z</time>
      </trkpt>
      <trkpt lat="42.92585" lon="1.28744">
        <ele>1361</ele>
        <time>2026-05-25T10:29:51.000Z</time>
      </trkpt>
      <trkpt lat="42.92586" lon="1.28745">
        <ele>1361</ele>
        <time>2026-05-25T10:29:52.000Z</time>
      </trkpt>
      <trkpt lat="42.92588" lon="1.28745">
        <ele>1362</ele>
        <time>2026-05-25T10:29:53.000Z</time>
      </trkpt>
      <trkpt lat="42.9259" lon="1.28745">
        <ele>1362</ele>
        <time>2026-05-25T10:29:54.000Z</time>
      </trkpt>
      <trkpt lat="42.92591" lon="1.28746">
        <ele>1362</ele>
        <time>2026-05-25T10:29:55.000Z</time>
      </trkpt>
      <trkpt lat="42.92593" lon="1.28746">
        <ele>1363</ele>
        <time>2026-05-25T10:29:56.000Z</time>
      </trkpt>
      <trkpt lat="42.92595" lon="1.28746">
        <ele>1363</ele>
        <time>2026-05-25T10:29:57.000Z</time>
      </trkpt>
      <trkpt lat="42.92597" lon="1.28746">
        <ele>1363</ele>
        <time>2026-05-25T10:29:58.000Z</time>
      </trkpt>
      <trkpt lat="42.92599" lon="1.28746">
        <ele>1364</ele>
        <time>2026-05-25T10:29:59.000Z</time>
      </trkpt>
      <trkpt lat="42.92601" lon="1.28745">
        <ele>1364</ele>
        <time>2026-05-25T10:30:00.000Z</time>
      </trkpt>
      <trkpt lat="42.92603" lon="1.28745">
        <ele>1364</ele>
        <time>2026-05-25T10:30:01.000Z</time>
      </trkpt>
      <trkpt lat="42.92605" lon="1.28745">
        <ele>1365</ele>
        <time>2026-05-25T10:30:02.000Z</time>
      </trkpt>
      <trkpt lat="42.92607" lon="1.28745">
        <ele>1366</ele>
        <time>2026-05-25T10:30:03.000Z</time>
      </trkpt>
      <trkpt lat="42.92609" lon="1.28745">
        <ele>1366</ele>
        <time>2026-05-25T10:30:04.000Z</time>
      </trkpt>
      <trkpt lat="42.92611" lon="1.28745">
        <ele>1366</ele>
        <time>2026-05-25T10:30:05.000Z</time>
      </trkpt>
      <trkpt lat="42.92613" lon="1.28746">
        <ele>1367</ele>
        <time>2026-05-25T10:30:06.000Z</time>
      </trkpt>
      <trkpt lat="42.92615" lon="1.28746">
        <ele>1368</ele>
        <time>2026-05-25T10:30:07.000Z</time>
      </trkpt>
      <trkpt lat="42.92616" lon="1.28747">
        <ele>1368</ele>
        <time>2026-05-25T10:30:08.000Z</time>
      </trkpt>
      <trkpt lat="42.92618" lon="1.28747">
        <ele>1369</ele>
        <time>2026-05-25T10:30:09.000Z</time>
      </trkpt>
      <trkpt lat="42.9262" lon="1.28748">
        <ele>1369</ele>
        <time>2026-05-25T10:30:10.000Z</time>
      </trkpt>
      <trkpt lat="42.92622" lon="1.28748">
        <ele>1369</ele>
        <time>2026-05-25T10:30:11.000Z</time>
      </trkpt>
      <trkpt lat="42.92623" lon="1.28749">
        <ele>1370</ele>
        <time>2026-05-25T10:30:12.000Z</time>
      </trkpt>
      <trkpt lat="42.92625" lon="1.28748">
        <ele>1370</ele>
        <time>2026-05-25T10:30:13.000Z</time>
      </trkpt>
      <trkpt lat="42.92627" lon="1.28748">
        <ele>1371</ele>
        <time>2026-05-25T10:30:14.000Z</time>
      </trkpt>
      <trkpt lat="42.92629" lon="1.28748">
        <ele>1371</ele>
        <time>2026-05-25T10:30:15.000Z</time>
      </trkpt>
      <trkpt lat="42.92632" lon="1.28748">
        <ele>1371</ele>
        <time>2026-05-25T10:30:16.000Z</time>
      </trkpt>
      <trkpt lat="42.92634" lon="1.28748">
        <ele>1371</ele>
        <time>2026-05-25T10:30:17.000Z</time>
      </trkpt>
      <trkpt lat="42.92636" lon="1.28749">
        <ele>1373</ele>
        <time>2026-05-25T10:30:18.000Z</time>
      </trkpt>
      <trkpt lat="42.92638" lon="1.28749">
        <ele>1373</ele>
        <time>2026-05-25T10:30:19.000Z</time>
      </trkpt>
      <trkpt lat="42.9264" lon="1.28749">
        <ele>1373</ele>
        <time>2026-05-25T10:30:20.000Z</time>
      </trkpt>
      <trkpt lat="42.92641" lon="1.2875">
        <ele>1375</ele>
        <time>2026-05-25T10:30:21.000Z</time>
      </trkpt>
      <trkpt lat="42.92643" lon="1.28749">
        <ele>1375</ele>
        <time>2026-05-25T10:30:22.000Z</time>
      </trkpt>
      <trkpt lat="42.92645" lon="1.28749">
        <ele>1375</ele>
        <time>2026-05-25T10:30:23.000Z</time>
      </trkpt>
      <trkpt lat="42.92647" lon="1.28749">
        <ele>1376</ele>
        <time>2026-05-25T10:30:24.000Z</time>
      </trkpt>
      <trkpt lat="42.92649" lon="1.28748">
        <ele>1376</ele>
        <time>2026-05-25T10:30:25.000Z</time>
      </trkpt>
      <trkpt lat="42.92651" lon="1.28749">
        <ele>1376</ele>
        <time>2026-05-25T10:30:26.000Z</time>
      </trkpt>
      <trkpt lat="42.92653" lon="1.28749">
        <ele>1377</ele>
        <time>2026-05-25T10:30:27.000Z</time>
      </trkpt>
      <trkpt lat="42.92655" lon="1.28749">
        <ele>1378</ele>
        <time>2026-05-25T10:30:28.000Z</time>
      </trkpt>
      <trkpt lat="42.92657" lon="1.28748">
        <ele>1378</ele>
        <time>2026-05-25T10:30:29.000Z</time>
      </trkpt>
      <trkpt lat="42.92659" lon="1.28747">
        <ele>1378</ele>
        <time>2026-05-25T10:30:30.000Z</time>
      </trkpt>
      <trkpt lat="42.92661" lon="1.28747">
        <ele>1378</ele>
        <time>2026-05-25T10:30:31.000Z</time>
      </trkpt>
      <trkpt lat="42.92663" lon="1.28748">
        <ele>1378</ele>
        <time>2026-05-25T10:30:32.000Z</time>
      </trkpt>
      <trkpt lat="42.92665" lon="1.28748">
        <ele>1378</ele>
        <time>2026-05-25T10:30:33.000Z</time>
      </trkpt>
      <trkpt lat="42.92668" lon="1.28748">
        <ele>1379</ele>
        <time>2026-05-25T10:30:34.000Z</time>
      </trkpt>
      <trkpt lat="42.92669" lon="1.28749">
        <ele>1379</ele>
        <time>2026-05-25T10:30:35.000Z</time>
      </trkpt>
      <trkpt lat="42.92671" lon="1.28749">
        <ele>1379</ele>
        <time>2026-05-25T10:30:36.000Z</time>
      </trkpt>
      <trkpt lat="42.92673" lon="1.28749">
        <ele>1379</ele>
        <time>2026-05-25T10:30:37.000Z</time>
      </trkpt>
      <trkpt lat="42.92675" lon="1.28749">
        <ele>1380</ele>
        <time>2026-05-25T10:30:38.000Z</time>
      </trkpt>
      <trkpt lat="42.92677" lon="1.28749">
        <ele>1381</ele>
        <time>2026-05-25T10:30:39.000Z</time>
      </trkpt>
      <trkpt lat="42.92679" lon="1.2875">
        <ele>1381</ele>
        <time>2026-05-25T10:30:40.000Z</time>
      </trkpt>
      <trkpt lat="42.92681" lon="1.28751">
        <ele>1381</ele>
        <time>2026-05-25T10:30:41.000Z</time>
      </trkpt>
      <trkpt lat="42.92682" lon="1.28752">
        <ele>1382</ele>
        <time>2026-05-25T10:30:42.000Z</time>
      </trkpt>
      <trkpt lat="42.92683" lon="1.28753">
        <ele>1382</ele>
        <time>2026-05-25T10:30:43.000Z</time>
      </trkpt>
      <trkpt lat="42.92684" lon="1.28754">
        <ele>1382</ele>
        <time>2026-05-25T10:30:44.000Z</time>
      </trkpt>
      <trkpt lat="42.92686" lon="1.28755">
        <ele>1382</ele>
        <time>2026-05-25T10:30:45.000Z</time>
      </trkpt>
      <trkpt lat="42.92686" lon="1.28756">
        <ele>1382</ele>
        <time>2026-05-25T10:30:46.000Z</time>
      </trkpt>
      <trkpt lat="42.92687" lon="1.28757">
        <ele>1383</ele>
        <time>2026-05-25T10:30:47.000Z</time>
      </trkpt>
      <trkpt lat="42.92688" lon="1.28759">
        <ele>1384</ele>
        <time>2026-05-25T10:30:48.000Z</time>
      </trkpt>
      <trkpt lat="42.92689" lon="1.28761">
        <ele>1384</ele>
        <time>2026-05-25T10:30:49.000Z</time>
      </trkpt>
      <trkpt lat="42.9269" lon="1.28762">
        <ele>1385</ele>
        <time>2026-05-25T10:30:50.000Z</time>
      </trkpt>
      <trkpt lat="42.92691" lon="1.28763">
        <ele>1385</ele>
        <time>2026-05-25T10:30:51.000Z</time>
      </trkpt>
      <trkpt lat="42.92693" lon="1.28765">
        <ele>1385</ele>
        <time>2026-05-25T10:30:52.000Z</time>
      </trkpt>
      <trkpt lat="42.92694" lon="1.28767">
        <ele>1385</ele>
        <time>2026-05-25T10:30:53.000Z</time>
      </trkpt>
      <trkpt lat="42.92695" lon="1.28768">
        <ele>1385</ele>
        <time>2026-05-25T10:30:54.000Z</time>
      </trkpt>
      <trkpt lat="42.92697" lon="1.2877">
        <ele>1386</ele>
        <time>2026-05-25T10:30:55.000Z</time>
      </trkpt>
      <trkpt lat="42.92699" lon="1.28771">
        <ele>1386</ele>
        <time>2026-05-25T10:30:56.000Z</time>
      </trkpt>
      <trkpt lat="42.927" lon="1.28771">
        <ele>1386</ele>
        <time>2026-05-25T10:30:57.000Z</time>
      </trkpt>
      <trkpt lat="42.92702" lon="1.28773">
        <ele>1386</ele>
        <time>2026-05-25T10:30:58.000Z</time>
      </trkpt>
      <trkpt lat="42.92703" lon="1.28774">
        <ele>1386</ele>
        <time>2026-05-25T10:30:59.000Z</time>
      </trkpt>
      <trkpt lat="42.92704" lon="1.28776">
        <ele>1387</ele>
        <time>2026-05-25T10:31:00.000Z</time>
      </trkpt>
      <trkpt lat="42.92705" lon="1.28778">
        <ele>1386</ele>
        <time>2026-05-25T10:31:01.000Z</time>
      </trkpt>
      <trkpt lat="42.92706" lon="1.28779">
        <ele>1386</ele>
        <time>2026-05-25T10:31:02.000Z</time>
      </trkpt>
      <trkpt lat="42.92708" lon="1.28781">
        <ele>1386</ele>
        <time>2026-05-25T10:31:03.000Z</time>
      </trkpt>
      <trkpt lat="42.92709" lon="1.28782">
        <ele>1386</ele>
        <time>2026-05-25T10:31:04.000Z</time>
      </trkpt>
      <trkpt lat="42.92711" lon="1.28783">
        <ele>1386</ele>
        <time>2026-05-25T10:31:05.000Z</time>
      </trkpt>
      <trkpt lat="42.92712" lon="1.28784">
        <ele>1386</ele>
        <time>2026-05-25T10:31:06.000Z</time>
      </trkpt>
      <trkpt lat="42.92713" lon="1.28785">
        <ele>1387</ele>
        <time>2026-05-25T10:31:07.000Z</time>
      </trkpt>
      <trkpt lat="42.92714" lon="1.28787">
        <ele>1387</ele>
        <time>2026-05-25T10:31:08.000Z</time>
      </trkpt>
      <trkpt lat="42.92716" lon="1.28788">
        <ele>1386</ele>
        <time>2026-05-25T10:31:09.000Z</time>
      </trkpt>
      <trkpt lat="42.92717" lon="1.2879">
        <ele>1387</ele>
        <time>2026-05-25T10:31:10.000Z</time>
      </trkpt>
      <trkpt lat="42.92718" lon="1.28791">
        <ele>1387</ele>
        <time>2026-05-25T10:31:11.000Z</time>
      </trkpt>
      <trkpt lat="42.92719" lon="1.28793">
        <ele>1387</ele>
        <time>2026-05-25T10:31:12.000Z</time>
      </trkpt>
      <trkpt lat="42.92721" lon="1.28794">
        <ele>1387</ele>
        <time>2026-05-25T10:31:13.000Z</time>
      </trkpt>
      <trkpt lat="42.92723" lon="1.28795">
        <ele>1388</ele>
        <time>2026-05-25T10:31:14.000Z</time>
      </trkpt>
      <trkpt lat="42.92724" lon="1.28797">
        <ele>1388</ele>
        <time>2026-05-25T10:31:15.000Z</time>
      </trkpt>
      <trkpt lat="42.92725" lon="1.28798">
        <ele>1389</ele>
        <time>2026-05-25T10:31:16.000Z</time>
      </trkpt>
      <trkpt lat="42.92726" lon="1.28799">
        <ele>1389</ele>
        <time>2026-05-25T10:31:17.000Z</time>
      </trkpt>
      <trkpt lat="42.92728" lon="1.288">
        <ele>1389</ele>
        <time>2026-05-25T10:31:18.000Z</time>
      </trkpt>
      <trkpt lat="42.92729" lon="1.28802">
        <ele>1390</ele>
        <time>2026-05-25T10:31:19.000Z</time>
      </trkpt>
      <trkpt lat="42.9273" lon="1.28803">
        <ele>1390</ele>
        <time>2026-05-25T10:31:20.000Z</time>
      </trkpt>
      <trkpt lat="42.92731" lon="1.28805">
        <ele>1390</ele>
        <time>2026-05-25T10:31:21.000Z</time>
      </trkpt>
      <trkpt lat="42.92732" lon="1.28806">
        <ele>1390</ele>
        <time>2026-05-25T10:31:22.000Z</time>
      </trkpt>
      <trkpt lat="42.92734" lon="1.28808">
        <ele>1390</ele>
        <time>2026-05-25T10:31:23.000Z</time>
      </trkpt>
      <trkpt lat="42.92735" lon="1.2881">
        <ele>1391</ele>
        <time>2026-05-25T10:31:24.000Z</time>
      </trkpt>
      <trkpt lat="42.92736" lon="1.28811">
        <ele>1391</ele>
        <time>2026-05-25T10:31:25.000Z</time>
      </trkpt>
      <trkpt lat="42.92736" lon="1.28813">
        <ele>1392</ele>
        <time>2026-05-25T10:31:26.000Z</time>
      </trkpt>
      <trkpt lat="42.92738" lon="1.28814">
        <ele>1392</ele>
        <time>2026-05-25T10:31:27.000Z</time>
      </trkpt>
      <trkpt lat="42.92739" lon="1.28815">
        <ele>1393</ele>
        <time>2026-05-25T10:31:28.000Z</time>
      </trkpt>
      <trkpt lat="42.9274" lon="1.28817">
        <ele>1393</ele>
        <time>2026-05-25T10:31:29.000Z</time>
      </trkpt>
      <trkpt lat="42.92741" lon="1.28818">
        <ele>1393</ele>
        <time>2026-05-25T10:31:30.000Z</time>
      </trkpt>
      <trkpt lat="42.92743" lon="1.2882">
        <ele>1393</ele>
        <time>2026-05-25T10:31:31.000Z</time>
      </trkpt>
      <trkpt lat="42.92744" lon="1.28821">
        <ele>1393</ele>
        <time>2026-05-25T10:31:32.000Z</time>
      </trkpt>
      <trkpt lat="42.92745" lon="1.28822">
        <ele>1393</ele>
        <time>2026-05-25T10:31:33.000Z</time>
      </trkpt>
      <trkpt lat="42.92746" lon="1.28824">
        <ele>1393</ele>
        <time>2026-05-25T10:31:34.000Z</time>
      </trkpt>
      <trkpt lat="42.92748" lon="1.28826">
        <ele>1394</ele>
        <time>2026-05-25T10:31:35.000Z</time>
      </trkpt>
      <trkpt lat="42.92749" lon="1.28827">
        <ele>1394</ele>
        <time>2026-05-25T10:31:36.000Z</time>
      </trkpt>
      <trkpt lat="42.9275" lon="1.28829">
        <ele>1394</ele>
        <time>2026-05-25T10:31:37.000Z</time>
      </trkpt>
      <trkpt lat="42.92752" lon="1.2883">
        <ele>1394</ele>
        <time>2026-05-25T10:31:38.000Z</time>
      </trkpt>
      <trkpt lat="42.92754" lon="1.28833">
        <ele>1394</ele>
        <time>2026-05-25T10:31:39.000Z</time>
      </trkpt>
      <trkpt lat="42.92755" lon="1.28835">
        <ele>1395</ele>
        <time>2026-05-25T10:31:40.000Z</time>
      </trkpt>
      <trkpt lat="42.92757" lon="1.28836">
        <ele>1395</ele>
        <time>2026-05-25T10:31:41.000Z</time>
      </trkpt>
      <trkpt lat="42.92758" lon="1.28837">
        <ele>1395</ele>
        <time>2026-05-25T10:31:42.000Z</time>
      </trkpt>
      <trkpt lat="42.9276" lon="1.2884">
        <ele>1396</ele>
        <time>2026-05-25T10:31:43.000Z</time>
      </trkpt>
      <trkpt lat="42.92761" lon="1.28842">
        <ele>1396</ele>
        <time>2026-05-25T10:31:44.000Z</time>
      </trkpt>
      <trkpt lat="42.92763" lon="1.28844">
        <ele>1397</ele>
        <time>2026-05-25T10:31:45.000Z</time>
      </trkpt>
      <trkpt lat="42.92764" lon="1.28846">
        <ele>1397</ele>
        <time>2026-05-25T10:31:46.000Z</time>
      </trkpt>
      <trkpt lat="42.92766" lon="1.28847">
        <ele>1397</ele>
        <time>2026-05-25T10:31:47.000Z</time>
      </trkpt>
      <trkpt lat="42.92767" lon="1.28849">
        <ele>1398</ele>
        <time>2026-05-25T10:31:48.000Z</time>
      </trkpt>
      <trkpt lat="42.92769" lon="1.28851">
        <ele>1398</ele>
        <time>2026-05-25T10:31:49.000Z</time>
      </trkpt>
      <trkpt lat="42.9277" lon="1.28852">
        <ele>1398</ele>
        <time>2026-05-25T10:31:50.000Z</time>
      </trkpt>
      <trkpt lat="42.92772" lon="1.28853">
        <ele>1399</ele>
        <time>2026-05-25T10:31:51.000Z</time>
      </trkpt>
      <trkpt lat="42.92774" lon="1.28855">
        <ele>1399</ele>
        <time>2026-05-25T10:31:52.000Z</time>
      </trkpt>
      <trkpt lat="42.92775" lon="1.28857">
        <ele>1399</ele>
        <time>2026-05-25T10:31:53.000Z</time>
      </trkpt>
      <trkpt lat="42.92776" lon="1.28859">
        <ele>1399</ele>
        <time>2026-05-25T10:31:54.000Z</time>
      </trkpt>
      <trkpt lat="42.92778" lon="1.2886">
        <ele>1400</ele>
        <time>2026-05-25T10:31:55.000Z</time>
      </trkpt>
      <trkpt lat="42.9278" lon="1.28862">
        <ele>1400</ele>
        <time>2026-05-25T10:31:56.000Z</time>
      </trkpt>
      <trkpt lat="42.92781" lon="1.28864">
        <ele>1401</ele>
        <time>2026-05-25T10:31:57.000Z</time>
      </trkpt>
      <trkpt lat="42.92783" lon="1.28865">
        <ele>1401</ele>
        <time>2026-05-25T10:31:58.000Z</time>
      </trkpt>
      <trkpt lat="42.92784" lon="1.28867">
        <ele>1402</ele>
        <time>2026-05-25T10:31:59.000Z</time>
      </trkpt>
      <trkpt lat="42.92786" lon="1.28867">
        <ele>1402</ele>
        <time>2026-05-25T10:32:00.000Z</time>
      </trkpt>
      <trkpt lat="42.92787" lon="1.28868">
        <ele>1403</ele>
        <time>2026-05-25T10:32:01.000Z</time>
      </trkpt>
      <trkpt lat="42.92789" lon="1.28869">
        <ele>1403</ele>
        <time>2026-05-25T10:32:02.000Z</time>
      </trkpt>
      <trkpt lat="42.92791" lon="1.2887">
        <ele>1403</ele>
        <time>2026-05-25T10:32:03.000Z</time>
      </trkpt>
      <trkpt lat="42.92792" lon="1.28871">
        <ele>1404</ele>
        <time>2026-05-25T10:32:04.000Z</time>
      </trkpt>
      <trkpt lat="42.92794" lon="1.28873">
        <ele>1404</ele>
        <time>2026-05-25T10:32:05.000Z</time>
      </trkpt>
      <trkpt lat="42.92795" lon="1.28874">
        <ele>1405</ele>
        <time>2026-05-25T10:32:06.000Z</time>
      </trkpt>
      <trkpt lat="42.92797" lon="1.28875">
        <ele>1405</ele>
        <time>2026-05-25T10:32:07.000Z</time>
      </trkpt>
      <trkpt lat="42.92799" lon="1.28876">
        <ele>1405</ele>
        <time>2026-05-25T10:32:08.000Z</time>
      </trkpt>
      <trkpt lat="42.92801" lon="1.28877">
        <ele>1406</ele>
        <time>2026-05-25T10:32:09.000Z</time>
      </trkpt>
      <trkpt lat="42.92802" lon="1.28878">
        <ele>1406</ele>
        <time>2026-05-25T10:32:10.000Z</time>
      </trkpt>
      <trkpt lat="42.92804" lon="1.28879">
        <ele>1407</ele>
        <time>2026-05-25T10:32:11.000Z</time>
      </trkpt>
      <trkpt lat="42.92805" lon="1.2888">
        <ele>1408</ele>
        <time>2026-05-25T10:32:12.000Z</time>
      </trkpt>
      <trkpt lat="42.92807" lon="1.28881">
        <ele>1408</ele>
        <time>2026-05-25T10:32:13.000Z</time>
      </trkpt>
      <trkpt lat="42.92809" lon="1.28882">
        <ele>1409</ele>
        <time>2026-05-25T10:32:14.000Z</time>
      </trkpt>
      <trkpt lat="42.9281" lon="1.28883">
        <ele>1409</ele>
        <time>2026-05-25T10:32:15.000Z</time>
      </trkpt>
      <trkpt lat="42.92812" lon="1.28884">
        <ele>1409</ele>
        <time>2026-05-25T10:32:16.000Z</time>
      </trkpt>
      <trkpt lat="42.92814" lon="1.28885">
        <ele>1410</ele>
        <time>2026-05-25T10:32:17.000Z</time>
      </trkpt>
      <trkpt lat="42.92816" lon="1.28887">
        <ele>1410</ele>
        <time>2026-05-25T10:32:18.000Z</time>
      </trkpt>
      <trkpt lat="42.92817" lon="1.28888">
        <ele>1410</ele>
        <time>2026-05-25T10:32:19.000Z</time>
      </trkpt>
      <trkpt lat="42.92819" lon="1.2889">
        <ele>1411</ele>
        <time>2026-05-25T10:32:20.000Z</time>
      </trkpt>
      <trkpt lat="42.92821" lon="1.2889">
        <ele>1412</ele>
        <time>2026-05-25T10:32:21.000Z</time>
      </trkpt>
      <trkpt lat="42.92823" lon="1.28891">
        <ele>1411</ele>
        <time>2026-05-25T10:32:22.000Z</time>
      </trkpt>
      <trkpt lat="42.92825" lon="1.28892">
        <ele>1412</ele>
        <time>2026-05-25T10:32:23.000Z</time>
      </trkpt>
      <trkpt lat="42.92826" lon="1.28893">
        <ele>1412</ele>
        <time>2026-05-25T10:32:24.000Z</time>
      </trkpt>
      <trkpt lat="42.92828" lon="1.28895">
        <ele>1412</ele>
        <time>2026-05-25T10:32:25.000Z</time>
      </trkpt>
      <trkpt lat="42.9283" lon="1.28896">
        <ele>1413</ele>
        <time>2026-05-25T10:32:26.000Z</time>
      </trkpt>
      <trkpt lat="42.92832" lon="1.28897">
        <ele>1413</ele>
        <time>2026-05-25T10:32:27.000Z</time>
      </trkpt>
      <trkpt lat="42.92833" lon="1.28898">
        <ele>1414</ele>
        <time>2026-05-25T10:32:28.000Z</time>
      </trkpt>
      <trkpt lat="42.92835" lon="1.28899">
        <ele>1415</ele>
        <time>2026-05-25T10:32:29.000Z</time>
      </trkpt>
      <trkpt lat="42.92836" lon="1.28899">
        <ele>1415</ele>
        <time>2026-05-25T10:32:30.000Z</time>
      </trkpt>
      <trkpt lat="42.92838" lon="1.289">
        <ele>1416</ele>
        <time>2026-05-25T10:32:31.000Z</time>
      </trkpt>
      <trkpt lat="42.92839" lon="1.289">
        <ele>1417</ele>
        <time>2026-05-25T10:32:32.000Z</time>
      </trkpt>
      <trkpt lat="42.92841" lon="1.28901">
        <ele>1417</ele>
        <time>2026-05-25T10:32:33.000Z</time>
      </trkpt>
      <trkpt lat="42.92843" lon="1.28902">
        <ele>1417</ele>
        <time>2026-05-25T10:32:34.000Z</time>
      </trkpt>
      <trkpt lat="42.92845" lon="1.28903">
        <ele>1418</ele>
        <time>2026-05-25T10:32:35.000Z</time>
      </trkpt>
      <trkpt lat="42.92846" lon="1.28904">
        <ele>1418</ele>
        <time>2026-05-25T10:32:36.000Z</time>
      </trkpt>
      <trkpt lat="42.92848" lon="1.28905">
        <ele>1419</ele>
        <time>2026-05-25T10:32:37.000Z</time>
      </trkpt>
      <trkpt lat="42.9285" lon="1.28906">
        <ele>1419</ele>
        <time>2026-05-25T10:32:38.000Z</time>
      </trkpt>
      <trkpt lat="42.92852" lon="1.28907">
        <ele>1419</ele>
        <time>2026-05-25T10:32:39.000Z</time>
      </trkpt>
      <trkpt lat="42.92855" lon="1.28907">
        <ele>1419</ele>
        <time>2026-05-25T10:32:40.000Z</time>
      </trkpt>
      <trkpt lat="42.92856" lon="1.28908">
        <ele>1419</ele>
        <time>2026-05-25T10:32:41.000Z</time>
      </trkpt>
      <trkpt lat="42.92858" lon="1.28908">
        <ele>1420</ele>
        <time>2026-05-25T10:32:42.000Z</time>
      </trkpt>
      <trkpt lat="42.9286" lon="1.28909">
        <ele>1419</ele>
        <time>2026-05-25T10:32:43.000Z</time>
      </trkpt>
      <trkpt lat="42.92862" lon="1.2891">
        <ele>1420</ele>
        <time>2026-05-25T10:32:44.000Z</time>
      </trkpt>
      <trkpt lat="42.92864" lon="1.2891">
        <ele>1420</ele>
        <time>2026-05-25T10:32:45.000Z</time>
      </trkpt>
      <trkpt lat="42.92866" lon="1.2891">
        <ele>1420</ele>
        <time>2026-05-25T10:32:46.000Z</time>
      </trkpt>
      <trkpt lat="42.92867" lon="1.28911">
        <ele>1421</ele>
        <time>2026-05-25T10:32:47.000Z</time>
      </trkpt>
      <trkpt lat="42.92869" lon="1.28912">
        <ele>1421</ele>
        <time>2026-05-25T10:32:48.000Z</time>
      </trkpt>
      <trkpt lat="42.92871" lon="1.28913">
        <ele>1422</ele>
        <time>2026-05-25T10:32:49.000Z</time>
      </trkpt>
      <trkpt lat="42.92873" lon="1.28913">
        <ele>1422</ele>
        <time>2026-05-25T10:32:50.000Z</time>
      </trkpt>
      <trkpt lat="42.92874" lon="1.28913">
        <ele>1423</ele>
        <time>2026-05-25T10:32:51.000Z</time>
      </trkpt>
      <trkpt lat="42.92876" lon="1.28913">
        <ele>1423</ele>
        <time>2026-05-25T10:32:52.000Z</time>
      </trkpt>
      <trkpt lat="42.92877" lon="1.28913">
        <ele>1423</ele>
        <time>2026-05-25T10:32:53.000Z</time>
      </trkpt>
      <trkpt lat="42.92877" lon="1.28913">
        <ele>1422</ele>
        <time>2026-05-25T10:32:54.000Z</time>
      </trkpt>
      <trkpt lat="42.92877" lon="1.28912">
        <ele>1422</ele>
        <time>2026-05-25T10:32:55.000Z</time>
      </trkpt>
      <trkpt lat="42.92877" lon="1.28912">
        <ele>1422</ele>
        <time>2026-05-25T10:32:56.000Z</time>
      </trkpt>
      <trkpt lat="42.92877" lon="1.28912">
        <ele>1423</ele>
        <time>2026-05-25T10:32:57.000Z</time>
      </trkpt>
      <trkpt lat="42.92877" lon="1.28911">
        <ele>1423</ele>
        <time>2026-05-25T10:32:58.000Z</time>
      </trkpt>
      <trkpt lat="42.92877" lon="1.28911">
        <ele>1422</ele>
        <time>2026-05-25T10:32:59.000Z</time>
      </trkpt>
      <trkpt lat="42.92877" lon="1.2891">
        <ele>1422</ele>
        <time>2026-05-25T10:33:00.000Z</time>
      </trkpt>
      <trkpt lat="42.92877" lon="1.2891">
        <ele>1422</ele>
        <time>2026-05-25T10:33:01.000Z</time>
      </trkpt>
      <trkpt lat="42.92877" lon="1.28911">
        <ele>1423</ele>
        <time>2026-05-25T10:33:02.000Z</time>
      </trkpt>
      <trkpt lat="42.92877" lon="1.28911">
        <ele>1423</ele>
        <time>2026-05-25T10:33:03.000Z</time>
      </trkpt>
      <trkpt lat="42.92878" lon="1.28913">
        <ele>1424</ele>
        <time>2026-05-25T10:33:17.000Z</time>
      </trkpt>
      <trkpt lat="42.92877" lon="1.28913">
        <ele>1423</ele>
        <time>2026-05-25T10:33:18.000Z</time>
      </trkpt>
      <trkpt lat="42.92877" lon="1.28913">
        <ele>1423</ele>
        <time>2026-05-25T10:33:19.000Z</time>
      </trkpt>
      <trkpt lat="42.92876" lon="1.28914">
        <ele>1423</ele>
        <time>2026-05-25T10:33:20.000Z</time>
      </trkpt>
      <trkpt lat="42.92876" lon="1.28913">
        <ele>1424</ele>
        <time>2026-05-25T10:33:21.000Z</time>
      </trkpt>
      <trkpt lat="42.92875" lon="1.28912">
        <ele>1425</ele>
        <time>2026-05-25T10:33:22.000Z</time>
      </trkpt>
      <trkpt lat="42.92875" lon="1.28912">
        <ele>1425</ele>
        <time>2026-05-25T10:33:23.000Z</time>
      </trkpt>
      <trkpt lat="42.92875" lon="1.28911">
        <ele>1424</ele>
        <time>2026-05-25T10:33:24.000Z</time>
      </trkpt>
      <trkpt lat="42.92875" lon="1.28912">
        <ele>1424</ele>
        <time>2026-05-25T10:33:43.000Z</time>
      </trkpt>
      <trkpt lat="42.92875" lon="1.28911">
        <ele>1423</ele>
        <time>2026-05-25T10:33:44.000Z</time>
      </trkpt>
      <trkpt lat="42.92874" lon="1.28911">
        <ele>1422</ele>
        <time>2026-05-25T10:33:45.000Z</time>
      </trkpt>
      <trkpt lat="42.92875" lon="1.28911">
        <ele>1423</ele>
        <time>2026-05-25T10:33:46.000Z</time>
      </trkpt>
      <trkpt lat="42.92875" lon="1.28912">
        <ele>1423</ele>
        <time>2026-05-25T10:33:47.000Z</time>
      </trkpt>
      <trkpt lat="42.92875" lon="1.28912">
        <ele>1423</ele>
        <time>2026-05-25T10:33:48.000Z</time>
      </trkpt>
      <trkpt lat="42.92875" lon="1.28913">
        <ele>1423</ele>
        <time>2026-05-25T10:33:49.000Z</time>
      </trkpt>
      <trkpt lat="42.92875" lon="1.28914">
        <ele>1422</ele>
        <time>2026-05-25T10:33:50.000Z</time>
      </trkpt>
      <trkpt lat="42.92876" lon="1.28915">
        <ele>1423</ele>
        <time>2026-05-25T10:33:51.000Z</time>
      </trkpt>
      <trkpt lat="42.92876" lon="1.28915">
        <ele>1422</ele>
        <time>2026-05-25T10:33:52.000Z</time>
      </trkpt>
      <trkpt lat="42.92876" lon="1.28915">
        <ele>1422</ele>
        <time>2026-05-25T10:33:53.000Z</time>
      </trkpt>
      <trkpt lat="42.92877" lon="1.28914">
        <ele>1422</ele>
        <time>2026-05-25T10:33:54.000Z</time>
      </trkpt>
      <trkpt lat="42.92877" lon="1.28915">
        <ele>1422</ele>
        <time>2026-05-25T10:33:55.000Z</time>
      </trkpt>
      <trkpt lat="42.92877" lon="1.28915">
        <ele>1422</ele>
        <time>2026-05-25T10:33:56.000Z</time>
      </trkpt>
      <trkpt lat="42.92877" lon="1.28915">
        <ele>1423</ele>
        <time>2026-05-25T10:33:57.000Z</time>
      </trkpt>
      <trkpt lat="42.92877" lon="1.28915">
        <ele>1423</ele>
        <time>2026-05-25T10:33:58.000Z</time>
      </trkpt>
      <trkpt lat="42.92876" lon="1.28915">
        <ele>1424</ele>
        <time>2026-05-25T10:33:59.000Z</time>
      </trkpt>
      <trkpt lat="42.92876" lon="1.28915">
        <ele>1424</ele>
        <time>2026-05-25T10:34:00.000Z</time>
      </trkpt>
      <trkpt lat="42.92876" lon="1.28915">
        <ele>1424</ele>
        <time>2026-05-25T10:34:01.000Z</time>
      </trkpt>
      <trkpt lat="42.92875" lon="1.28914">
        <ele>1424</ele>
        <time>2026-05-25T10:34:02.000Z</time>
      </trkpt>
      <trkpt lat="42.92874" lon="1.28913">
        <ele>1424</ele>
        <time>2026-05-25T10:34:03.000Z</time>
      </trkpt>
      <trkpt lat="42.92874" lon="1.28912">
        <ele>1424</ele>
        <time>2026-05-25T10:34:04.000Z</time>
      </trkpt>
      <trkpt lat="42.92874" lon="1.28912">
        <ele>1424</ele>
        <time>2026-05-25T10:34:05.000Z</time>
      </trkpt>
      <trkpt lat="42.92874" lon="1.28912">
        <ele>1423</ele>
        <time>2026-05-25T10:34:06.000Z</time>
      </trkpt>
      <trkpt lat="42.92874" lon="1.28911">
        <ele>1423</ele>
        <time>2026-05-25T10:34:07.000Z</time>
      </trkpt>
      <trkpt lat="42.92874" lon="1.2891">
        <ele>1422</ele>
        <time>2026-05-25T10:34:08.000Z</time>
      </trkpt>
      <trkpt lat="42.92874" lon="1.28909">
        <ele>1422</ele>
        <time>2026-05-25T10:34:09.000Z</time>
      </trkpt>
      <trkpt lat="42.92873" lon="1.2891">
        <ele>1422</ele>
        <time>2026-05-25T10:34:10.000Z</time>
      </trkpt>
      <trkpt lat="42.92873" lon="1.28911">
        <ele>1422</ele>
        <time>2026-05-25T10:34:11.000Z</time>
      </trkpt>
      <trkpt lat="42.92874" lon="1.28912">
        <ele>1422</ele>
        <time>2026-05-25T10:34:12.000Z</time>
      </trkpt>
      <trkpt lat="42.92874" lon="1.28913">
        <ele>1423</ele>
        <time>2026-05-25T10:34:13.000Z</time>
      </trkpt>
      <trkpt lat="42.92875" lon="1.28914">
        <ele>1423</ele>
        <time>2026-05-25T10:34:14.000Z</time>
      </trkpt>
      <trkpt lat="42.92875" lon="1.28914">
        <ele>1423</ele>
        <time>2026-05-25T10:34:15.000Z</time>
      </trkpt>
      <trkpt lat="42.92876" lon="1.28915">
        <ele>1423</ele>
        <time>2026-05-25T10:34:16.000Z</time>
      </trkpt>
      <trkpt lat="42.92876" lon="1.28914">
        <ele>1423</ele>
        <time>2026-05-25T10:34:17.000Z</time>
      </trkpt>
      <trkpt lat="42.92877" lon="1.28914">
        <ele>1423</ele>
        <time>2026-05-25T10:34:18.000Z</time>
      </trkpt>
      <trkpt lat="42.92877" lon="1.28914">
        <ele>1422</ele>
        <time>2026-05-25T10:34:19.000Z</time>
      </trkpt>
      <trkpt lat="42.92877" lon="1.28915">
        <ele>1423</ele>
        <time>2026-05-25T10:34:20.000Z</time>
      </trkpt>
      <trkpt lat="42.92877" lon="1.28914">
        <ele>1423</ele>
        <time>2026-05-25T10:34:21.000Z</time>
      </trkpt>
      <trkpt lat="42.92877" lon="1.28913">
        <ele>1424</ele>
        <time>2026-05-25T10:34:22.000Z</time>
      </trkpt>
      <trkpt lat="42.92875" lon="1.28912">
        <ele>1424</ele>
        <time>2026-05-25T10:35:02.000Z</time>
      </trkpt>
      <trkpt lat="42.92876" lon="1.28913">
        <ele>1424</ele>
        <time>2026-05-25T10:35:03.000Z</time>
      </trkpt>
      <trkpt lat="42.92876" lon="1.28914">
        <ele>1425</ele>
        <time>2026-05-25T10:35:04.000Z</time>
      </trkpt>
      <trkpt lat="42.92877" lon="1.28917">
        <ele>1424</ele>
        <time>2026-05-25T10:35:25.000Z</time>
      </trkpt>
      <trkpt lat="42.92878" lon="1.28919">
        <ele>1424</ele>
        <time>2026-05-25T10:35:26.000Z</time>
      </trkpt>
      <trkpt lat="42.92877" lon="1.28923">
        <ele>1423</ele>
        <time>2026-05-25T10:35:27.000Z</time>
      </trkpt>
      <trkpt lat="42.92876" lon="1.28927">
        <ele>1423</ele>
        <time>2026-05-25T10:35:28.000Z</time>
      </trkpt>
      <trkpt lat="42.92876" lon="1.2893">
        <ele>1423</ele>
        <time>2026-05-25T10:35:29.000Z</time>
      </trkpt>
      <trkpt lat="42.92876" lon="1.28935">
        <ele>1423</ele>
        <time>2026-05-25T10:35:30.000Z</time>
      </trkpt>
      <trkpt lat="42.92877" lon="1.2894">
        <ele>1422</ele>
        <time>2026-05-25T10:35:31.000Z</time>
      </trkpt>
      <trkpt lat="42.92877" lon="1.28945">
        <ele>1422</ele>
        <time>2026-05-25T10:35:32.000Z</time>
      </trkpt>
      <trkpt lat="42.92877" lon="1.28951">
        <ele>1420</ele>
        <time>2026-05-25T10:35:33.000Z</time>
      </trkpt>
      <trkpt lat="42.92878" lon="1.28958">
        <ele>1420</ele>
        <time>2026-05-25T10:35:34.000Z</time>
      </trkpt>
      <trkpt lat="42.92879" lon="1.28964">
        <ele>1419</ele>
        <time>2026-05-25T10:35:35.000Z</time>
      </trkpt>
      <trkpt lat="42.9288" lon="1.28972">
        <ele>1420</ele>
        <time>2026-05-25T10:35:36.000Z</time>
      </trkpt>
      <trkpt lat="42.92881" lon="1.28979">
        <ele>1419</ele>
        <time>2026-05-25T10:35:37.000Z</time>
      </trkpt>
      <trkpt lat="42.92884" lon="1.28986">
        <ele>1419</ele>
        <time>2026-05-25T10:35:38.000Z</time>
      </trkpt>
      <trkpt lat="42.92886" lon="1.28992">
        <ele>1418</ele>
        <time>2026-05-25T10:35:39.000Z</time>
      </trkpt>
      <trkpt lat="42.92889" lon="1.28996">
        <ele>1418</ele>
        <time>2026-05-25T10:35:40.000Z</time>
      </trkpt>
      <trkpt lat="42.92891" lon="1.29">
        <ele>1418</ele>
        <time>2026-05-25T10:35:41.000Z</time>
      </trkpt>
      <trkpt lat="42.92892" lon="1.29003">
        <ele>1418</ele>
        <time>2026-05-25T10:35:42.000Z</time>
      </trkpt>
      <trkpt lat="42.92894" lon="1.29006">
        <ele>1418</ele>
        <time>2026-05-25T10:35:43.000Z</time>
      </trkpt>
      <trkpt lat="42.92897" lon="1.29008">
        <ele>1418</ele>
        <time>2026-05-25T10:35:44.000Z</time>
      </trkpt>
      <trkpt lat="42.929" lon="1.2901">
        <ele>1417</ele>
        <time>2026-05-25T10:35:45.000Z</time>
      </trkpt>
      <trkpt lat="42.92903" lon="1.29013">
        <ele>1417</ele>
        <time>2026-05-25T10:35:46.000Z</time>
      </trkpt>
      <trkpt lat="42.92905" lon="1.29016">
        <ele>1416</ele>
        <time>2026-05-25T10:35:47.000Z</time>
      </trkpt>
      <trkpt lat="42.92908" lon="1.29021">
        <ele>1414</ele>
        <time>2026-05-25T10:35:48.000Z</time>
      </trkpt>
      <trkpt lat="42.92909" lon="1.29027">
        <ele>1414</ele>
        <time>2026-05-25T10:35:49.000Z</time>
      </trkpt>
      <trkpt lat="42.9291" lon="1.29033">
        <ele>1413</ele>
        <time>2026-05-25T10:35:50.000Z</time>
      </trkpt>
      <trkpt lat="42.92912" lon="1.2904">
        <ele>1412</ele>
        <time>2026-05-25T10:35:51.000Z</time>
      </trkpt>
      <trkpt lat="42.92914" lon="1.29047">
        <ele>1411</ele>
        <time>2026-05-25T10:35:52.000Z</time>
      </trkpt>
      <trkpt lat="42.92915" lon="1.29051">
        <ele>1411</ele>
        <time>2026-05-25T10:35:53.000Z</time>
      </trkpt>
      <trkpt lat="42.92916" lon="1.29055">
        <ele>1411</ele>
        <time>2026-05-25T10:35:54.000Z</time>
      </trkpt>
      <trkpt lat="42.92917" lon="1.2906">
        <ele>1411</ele>
        <time>2026-05-25T10:35:55.000Z</time>
      </trkpt>
      <trkpt lat="42.92917" lon="1.29063">
        <ele>1411</ele>
        <time>2026-05-25T10:35:56.000Z</time>
      </trkpt>
      <trkpt lat="42.92917" lon="1.29064">
        <ele>1411</ele>
        <time>2026-05-25T10:35:57.000Z</time>
      </trkpt>
      <trkpt lat="42.92918" lon="1.29064">
        <ele>1411</ele>
        <time>2026-05-25T10:35:58.000Z</time>
      </trkpt>
      <trkpt lat="42.92918" lon="1.29063">
        <ele>1410</ele>
        <time>2026-05-25T10:35:59.000Z</time>
      </trkpt>
      <trkpt lat="42.92918" lon="1.29062">
        <ele>1411</ele>
        <time>2026-05-25T10:36:00.000Z</time>
      </trkpt>
      <trkpt lat="42.92918" lon="1.29062">
        <ele>1411</ele>
        <time>2026-05-25T10:36:01.000Z</time>
      </trkpt>
      <trkpt lat="42.92918" lon="1.29062">
        <ele>1411</ele>
        <time>2026-05-25T10:36:02.000Z</time>
      </trkpt>
      <trkpt lat="42.92918" lon="1.29062">
        <ele>1411</ele>
        <time>2026-05-25T10:36:03.000Z</time>
      </trkpt>
      <trkpt lat="42.92918" lon="1.29062">
        <ele>1411</ele>
        <time>2026-05-25T10:36:04.000Z</time>
      </trkpt>
      <trkpt lat="42.92918" lon="1.29062">
        <ele>1411</ele>
        <time>2026-05-25T10:36:05.000Z</time>
      </trkpt>
      <trkpt lat="42.92918" lon="1.29062">
        <ele>1411</ele>
        <time>2026-05-25T10:36:06.000Z</time>
      </trkpt>
      <trkpt lat="42.92918" lon="1.29062">
        <ele>1411</ele>
        <time>2026-05-25T10:36:07.000Z</time>
      </trkpt>
      <trkpt lat="42.92917" lon="1.29063">
        <ele>1411</ele>
        <time>2026-05-25T10:36:08.000Z</time>
      </trkpt>
      <trkpt lat="42.92918" lon="1.29065">
        <ele>1411</ele>
        <time>2026-05-25T10:36:09.000Z</time>
      </trkpt>
      <trkpt lat="42.92918" lon="1.29067">
        <ele>1411</ele>
        <time>2026-05-25T10:36:10.000Z</time>
      </trkpt>
      <trkpt lat="42.92919" lon="1.29072">
        <ele>1412</ele>
        <time>2026-05-25T10:36:11.000Z</time>
      </trkpt>
      <trkpt lat="42.92921" lon="1.29076">
        <ele>1413</ele>
        <time>2026-05-25T10:36:12.000Z</time>
      </trkpt>
      <trkpt lat="42.92923" lon="1.29084">
        <ele>1413</ele>
        <time>2026-05-25T10:36:13.000Z</time>
      </trkpt>
      <trkpt lat="42.92928" lon="1.29096">
        <ele>1412</ele>
        <time>2026-05-25T10:36:14.000Z</time>
      </trkpt>
      <trkpt lat="42.92932" lon="1.29108">
        <ele>1410</ele>
        <time>2026-05-25T10:36:15.000Z</time>
      </trkpt>
      <trkpt lat="42.92936" lon="1.29119">
        <ele>1408</ele>
        <time>2026-05-25T10:36:16.000Z</time>
      </trkpt>
      <trkpt lat="42.92939" lon="1.29129">
        <ele>1406</ele>
        <time>2026-05-25T10:36:17.000Z</time>
      </trkpt>
      <trkpt lat="42.92943" lon="1.29141">
        <ele>1404</ele>
        <time>2026-05-25T10:36:18.000Z</time>
      </trkpt>
      <trkpt lat="42.92945" lon="1.29154">
        <ele>1403</ele>
        <time>2026-05-25T10:36:19.000Z</time>
      </trkpt>
      <trkpt lat="42.92947" lon="1.29168">
        <ele>1402</ele>
        <time>2026-05-25T10:36:20.000Z</time>
      </trkpt>
      <trkpt lat="42.92948" lon="1.29179">
        <ele>1402</ele>
        <time>2026-05-25T10:36:21.000Z</time>
      </trkpt>
      <trkpt lat="42.9295" lon="1.29188">
        <ele>1401</ele>
        <time>2026-05-25T10:36:22.000Z</time>
      </trkpt>
      <trkpt lat="42.92952" lon="1.29195">
        <ele>1401</ele>
        <time>2026-05-25T10:36:23.000Z</time>
      </trkpt>
      <trkpt lat="42.92954" lon="1.29201">
        <ele>1401</ele>
        <time>2026-05-25T10:36:24.000Z</time>
      </trkpt>
      <trkpt lat="42.92955" lon="1.29207">
        <ele>1400</ele>
        <time>2026-05-25T10:36:25.000Z</time>
      </trkpt>
      <trkpt lat="42.92956" lon="1.29213">
        <ele>1401</ele>
        <time>2026-05-25T10:36:26.000Z</time>
      </trkpt>
      <trkpt lat="42.92958" lon="1.29218">
        <ele>1400</ele>
        <time>2026-05-25T10:36:27.000Z</time>
      </trkpt>
      <trkpt lat="42.9296" lon="1.29223">
        <ele>1400</ele>
        <time>2026-05-25T10:36:28.000Z</time>
      </trkpt>
      <trkpt lat="42.92961" lon="1.29227">
        <ele>1400</ele>
        <time>2026-05-25T10:36:29.000Z</time>
      </trkpt>
      <trkpt lat="42.92962" lon="1.29231">
        <ele>1399</ele>
        <time>2026-05-25T10:36:30.000Z</time>
      </trkpt>
      <trkpt lat="42.92962" lon="1.29237">
        <ele>1399</ele>
        <time>2026-05-25T10:36:31.000Z</time>
      </trkpt>
      <trkpt lat="42.92962" lon="1.29243">
        <ele>1399</ele>
        <time>2026-05-25T10:36:32.000Z</time>
      </trkpt>
      <trkpt lat="42.92963" lon="1.29249">
        <ele>1399</ele>
        <time>2026-05-25T10:36:33.000Z</time>
      </trkpt>
      <trkpt lat="42.92967" lon="1.29252">
        <ele>1399</ele>
        <time>2026-05-25T10:36:34.000Z</time>
      </trkpt>
      <trkpt lat="42.92972" lon="1.29257">
        <ele>1399</ele>
        <time>2026-05-25T10:36:35.000Z</time>
      </trkpt>
      <trkpt lat="42.92977" lon="1.2926">
        <ele>1399</ele>
        <time>2026-05-25T10:36:36.000Z</time>
      </trkpt>
      <trkpt lat="42.92982" lon="1.29264">
        <ele>1399</ele>
        <time>2026-05-25T10:36:37.000Z</time>
      </trkpt>
      <trkpt lat="42.92986" lon="1.29268">
        <ele>1399</ele>
        <time>2026-05-25T10:36:38.000Z</time>
      </trkpt>
      <trkpt lat="42.9299" lon="1.29272">
        <ele>1400</ele>
        <time>2026-05-25T10:36:39.000Z</time>
      </trkpt>
      <trkpt lat="42.92993" lon="1.29276">
        <ele>1401</ele>
        <time>2026-05-25T10:36:40.000Z</time>
      </trkpt>
      <trkpt lat="42.92995" lon="1.29279">
        <ele>1401</ele>
        <time>2026-05-25T10:36:41.000Z</time>
      </trkpt>
      <trkpt lat="42.92996" lon="1.29283">
        <ele>1402</ele>
        <time>2026-05-25T10:36:42.000Z</time>
      </trkpt>
      <trkpt lat="42.92998" lon="1.29287">
        <ele>1402</ele>
        <time>2026-05-25T10:36:43.000Z</time>
      </trkpt>
      <trkpt lat="42.93" lon="1.2929">
        <ele>1402</ele>
        <time>2026-05-25T10:36:44.000Z</time>
      </trkpt>
      <trkpt lat="42.93001" lon="1.29295">
        <ele>1403</ele>
        <time>2026-05-25T10:36:45.000Z</time>
      </trkpt>
      <trkpt lat="42.93004" lon="1.293">
        <ele>1403</ele>
        <time>2026-05-25T10:36:46.000Z</time>
      </trkpt>
      <trkpt lat="42.93008" lon="1.29306">
        <ele>1403</ele>
        <time>2026-05-25T10:36:47.000Z</time>
      </trkpt>
      <trkpt lat="42.93011" lon="1.29311">
        <ele>1403</ele>
        <time>2026-05-25T10:36:48.000Z</time>
      </trkpt>
      <trkpt lat="42.93015" lon="1.29317">
        <ele>1402</ele>
        <time>2026-05-25T10:36:49.000Z</time>
      </trkpt>
      <trkpt lat="42.93019" lon="1.29324">
        <ele>1401</ele>
        <time>2026-05-25T10:36:50.000Z</time>
      </trkpt>
      <trkpt lat="42.93023" lon="1.29331">
        <ele>1401</ele>
        <time>2026-05-25T10:36:51.000Z</time>
      </trkpt>
      <trkpt lat="42.93027" lon="1.29338">
        <ele>1401</ele>
        <time>2026-05-25T10:36:52.000Z</time>
      </trkpt>
      <trkpt lat="42.9303" lon="1.29344">
        <ele>1401</ele>
        <time>2026-05-25T10:36:53.000Z</time>
      </trkpt>
      <trkpt lat="42.93034" lon="1.29349">
        <ele>1401</ele>
        <time>2026-05-25T10:36:54.000Z</time>
      </trkpt>
      <trkpt lat="42.93038" lon="1.29354">
        <ele>1401</ele>
        <time>2026-05-25T10:36:55.000Z</time>
      </trkpt>
      <trkpt lat="42.93042" lon="1.29359">
        <ele>1401</ele>
        <time>2026-05-25T10:36:56.000Z</time>
      </trkpt>
      <trkpt lat="42.93045" lon="1.29363">
        <ele>1401</ele>
        <time>2026-05-25T10:36:57.000Z</time>
      </trkpt>
      <trkpt lat="42.93048" lon="1.29367">
        <ele>1402</ele>
        <time>2026-05-25T10:36:58.000Z</time>
      </trkpt>
      <trkpt lat="42.93051" lon="1.2937">
        <ele>1403</ele>
        <time>2026-05-25T10:36:59.000Z</time>
      </trkpt>
      <trkpt lat="42.93054" lon="1.29375">
        <ele>1403</ele>
        <time>2026-05-25T10:37:00.000Z</time>
      </trkpt>
      <trkpt lat="42.93057" lon="1.29379">
        <ele>1403</ele>
        <time>2026-05-25T10:37:01.000Z</time>
      </trkpt>
      <trkpt lat="42.9306" lon="1.29384">
        <ele>1405</ele>
        <time>2026-05-25T10:37:02.000Z</time>
      </trkpt>
      <trkpt lat="42.93064" lon="1.29389">
        <ele>1406</ele>
        <time>2026-05-25T10:37:03.000Z</time>
      </trkpt>
      <trkpt lat="42.93066" lon="1.29393">
        <ele>1408</ele>
        <time>2026-05-25T10:37:04.000Z</time>
      </trkpt>
      <trkpt lat="42.93068" lon="1.29397">
        <ele>1410</ele>
        <time>2026-05-25T10:37:05.000Z</time>
      </trkpt>
      <trkpt lat="42.93072" lon="1.29401">
        <ele>1411</ele>
        <time>2026-05-25T10:37:06.000Z</time>
      </trkpt>
      <trkpt lat="42.93076" lon="1.29405">
        <ele>1412</ele>
        <time>2026-05-25T10:37:07.000Z</time>
      </trkpt>
      <trkpt lat="42.9308" lon="1.2941">
        <ele>1413</ele>
        <time>2026-05-25T10:37:08.000Z</time>
      </trkpt>
      <trkpt lat="42.93084" lon="1.29415">
        <ele>1414</ele>
        <time>2026-05-25T10:37:09.000Z</time>
      </trkpt>
      <trkpt lat="42.93088" lon="1.29421">
        <ele>1415</ele>
        <time>2026-05-25T10:37:10.000Z</time>
      </trkpt>
      <trkpt lat="42.93092" lon="1.29425">
        <ele>1415</ele>
        <time>2026-05-25T10:37:11.000Z</time>
      </trkpt>
      <trkpt lat="42.93097" lon="1.29431">
        <ele>1415</ele>
        <time>2026-05-25T10:37:12.000Z</time>
      </trkpt>
      <trkpt lat="42.93102" lon="1.29437">
        <ele>1415</ele>
        <time>2026-05-25T10:37:13.000Z</time>
      </trkpt>
      <trkpt lat="42.93106" lon="1.29442">
        <ele>1414</ele>
        <time>2026-05-25T10:37:14.000Z</time>
      </trkpt>
      <trkpt lat="42.93111" lon="1.29447">
        <ele>1413</ele>
        <time>2026-05-25T10:37:15.000Z</time>
      </trkpt>
      <trkpt lat="42.93113" lon="1.29452">
        <ele>1413</ele>
        <time>2026-05-25T10:37:16.000Z</time>
      </trkpt>
      <trkpt lat="42.93116" lon="1.29456">
        <ele>1414</ele>
        <time>2026-05-25T10:37:17.000Z</time>
      </trkpt>
      <trkpt lat="42.93118" lon="1.29461">
        <ele>1414</ele>
        <time>2026-05-25T10:37:18.000Z</time>
      </trkpt>
      <trkpt lat="42.93121" lon="1.29466">
        <ele>1414</ele>
        <time>2026-05-25T10:37:19.000Z</time>
      </trkpt>
      <trkpt lat="42.93124" lon="1.29472">
        <ele>1414</ele>
        <time>2026-05-25T10:37:20.000Z</time>
      </trkpt>
      <trkpt lat="42.93127" lon="1.29478">
        <ele>1414</ele>
        <time>2026-05-25T10:37:21.000Z</time>
      </trkpt>
      <trkpt lat="42.9313" lon="1.29483">
        <ele>1415</ele>
        <time>2026-05-25T10:37:22.000Z</time>
      </trkpt>
      <trkpt lat="42.93134" lon="1.29489">
        <ele>1415</ele>
        <time>2026-05-25T10:37:23.000Z</time>
      </trkpt>
      <trkpt lat="42.93137" lon="1.29495">
        <ele>1414</ele>
        <time>2026-05-25T10:37:24.000Z</time>
      </trkpt>
      <trkpt lat="42.93141" lon="1.29502">
        <ele>1413</ele>
        <time>2026-05-25T10:37:25.000Z</time>
      </trkpt>
      <trkpt lat="42.93144" lon="1.2951">
        <ele>1411</ele>
        <time>2026-05-25T10:37:26.000Z</time>
      </trkpt>
      <trkpt lat="42.93146" lon="1.29517">
        <ele>1410</ele>
        <time>2026-05-25T10:37:27.000Z</time>
      </trkpt>
      <trkpt lat="42.93149" lon="1.29524">
        <ele>1410</ele>
        <time>2026-05-25T10:37:28.000Z</time>
      </trkpt>
      <trkpt lat="42.93152" lon="1.29532">
        <ele>1409</ele>
        <time>2026-05-25T10:37:29.000Z</time>
      </trkpt>
      <trkpt lat="42.93155" lon="1.29539">
        <ele>1408</ele>
        <time>2026-05-25T10:37:30.000Z</time>
      </trkpt>
      <trkpt lat="42.93157" lon="1.29548">
        <ele>1408</ele>
        <time>2026-05-25T10:37:31.000Z</time>
      </trkpt>
      <trkpt lat="42.9316" lon="1.29555">
        <ele>1407</ele>
        <time>2026-05-25T10:37:32.000Z</time>
      </trkpt>
      <trkpt lat="42.93163" lon="1.29562">
        <ele>1406</ele>
        <time>2026-05-25T10:37:33.000Z</time>
      </trkpt>
      <trkpt lat="42.93166" lon="1.2957">
        <ele>1406</ele>
        <time>2026-05-25T10:37:34.000Z</time>
      </trkpt>
      <trkpt lat="42.93169" lon="1.29579">
        <ele>1405</ele>
        <time>2026-05-25T10:37:35.000Z</time>
      </trkpt>
      <trkpt lat="42.93172" lon="1.29587">
        <ele>1404</ele>
        <time>2026-05-25T10:37:36.000Z</time>
      </trkpt>
      <trkpt lat="42.93174" lon="1.29595">
        <ele>1402</ele>
        <time>2026-05-25T10:37:37.000Z</time>
      </trkpt>
      <trkpt lat="42.93176" lon="1.29606">
        <ele>1400</ele>
        <time>2026-05-25T10:37:38.000Z</time>
      </trkpt>
      <trkpt lat="42.93179" lon="1.29616">
        <ele>1399</ele>
        <time>2026-05-25T10:37:39.000Z</time>
      </trkpt>
      <trkpt lat="42.93182" lon="1.29625">
        <ele>1398</ele>
        <time>2026-05-25T10:37:40.000Z</time>
      </trkpt>
      <trkpt lat="42.93184" lon="1.29634">
        <ele>1396</ele>
        <time>2026-05-25T10:37:41.000Z</time>
      </trkpt>
      <trkpt lat="42.93186" lon="1.29642">
        <ele>1395</ele>
        <time>2026-05-25T10:37:42.000Z</time>
      </trkpt>
      <trkpt lat="42.93187" lon="1.2965">
        <ele>1394</ele>
        <time>2026-05-25T10:37:43.000Z</time>
      </trkpt>
      <trkpt lat="42.93188" lon="1.29658">
        <ele>1393</ele>
        <time>2026-05-25T10:37:44.000Z</time>
      </trkpt>
      <trkpt lat="42.93188" lon="1.29665">
        <ele>1392</ele>
        <time>2026-05-25T10:37:45.000Z</time>
      </trkpt>
      <trkpt lat="42.93187" lon="1.29673">
        <ele>1391</ele>
        <time>2026-05-25T10:37:46.000Z</time>
      </trkpt>
      <trkpt lat="42.93186" lon="1.29681">
        <ele>1390</ele>
        <time>2026-05-25T10:37:47.000Z</time>
      </trkpt>
      <trkpt lat="42.93185" lon="1.2969">
        <ele>1389</ele>
        <time>2026-05-25T10:37:48.000Z</time>
      </trkpt>
      <trkpt lat="42.93186" lon="1.297">
        <ele>1387</ele>
        <time>2026-05-25T10:37:49.000Z</time>
      </trkpt>
      <trkpt lat="42.93186" lon="1.29712">
        <ele>1386</ele>
        <time>2026-05-25T10:37:50.000Z</time>
      </trkpt>
      <trkpt lat="42.93187" lon="1.29723">
        <ele>1385</ele>
        <time>2026-05-25T10:37:51.000Z</time>
      </trkpt>
      <trkpt lat="42.93188" lon="1.29735">
        <ele>1384</ele>
        <time>2026-05-25T10:37:52.000Z</time>
      </trkpt>
      <trkpt lat="42.93188" lon="1.29747">
        <ele>1383</ele>
        <time>2026-05-25T10:37:53.000Z</time>
      </trkpt>
      <trkpt lat="42.93187" lon="1.29759">
        <ele>1382</ele>
        <time>2026-05-25T10:37:54.000Z</time>
      </trkpt>
      <trkpt lat="42.93187" lon="1.29771">
        <ele>1381</ele>
        <time>2026-05-25T10:37:55.000Z</time>
      </trkpt>
      <trkpt lat="42.93188" lon="1.29782">
        <ele>1379</ele>
        <time>2026-05-25T10:37:56.000Z</time>
      </trkpt>
      <trkpt lat="42.93189" lon="1.29794">
        <ele>1378</ele>
        <time>2026-05-25T10:37:57.000Z</time>
      </trkpt>
      <trkpt lat="42.9319" lon="1.29805">
        <ele>1377</ele>
        <time>2026-05-25T10:37:58.000Z</time>
      </trkpt>
      <trkpt lat="42.93191" lon="1.29815">
        <ele>1376</ele>
        <time>2026-05-25T10:37:59.000Z</time>
      </trkpt>
      <trkpt lat="42.93193" lon="1.29825">
        <ele>1374</ele>
        <time>2026-05-25T10:38:00.000Z</time>
      </trkpt>
      <trkpt lat="42.93195" lon="1.29834">
        <ele>1373</ele>
        <time>2026-05-25T10:38:01.000Z</time>
      </trkpt>
      <trkpt lat="42.93197" lon="1.29844">
        <ele>1372</ele>
        <time>2026-05-25T10:38:02.000Z</time>
      </trkpt>
      <trkpt lat="42.932" lon="1.29854">
        <ele>1370</ele>
        <time>2026-05-25T10:38:03.000Z</time>
      </trkpt>
      <trkpt lat="42.93203" lon="1.29864">
        <ele>1369</ele>
        <time>2026-05-25T10:38:04.000Z</time>
      </trkpt>
      <trkpt lat="42.93204" lon="1.29875">
        <ele>1368</ele>
        <time>2026-05-25T10:38:05.000Z</time>
      </trkpt>
      <trkpt lat="42.93204" lon="1.29886">
        <ele>1367</ele>
        <time>2026-05-25T10:38:06.000Z</time>
      </trkpt>
      <trkpt lat="42.93205" lon="1.29895">
        <ele>1367</ele>
        <time>2026-05-25T10:38:07.000Z</time>
      </trkpt>
      <trkpt lat="42.93205" lon="1.29905">
        <ele>1366</ele>
        <time>2026-05-25T10:38:08.000Z</time>
      </trkpt>
      <trkpt lat="42.93205" lon="1.29914">
        <ele>1366</ele>
        <time>2026-05-25T10:38:09.000Z</time>
      </trkpt>
      <trkpt lat="42.93206" lon="1.29924">
        <ele>1365</ele>
        <time>2026-05-25T10:38:10.000Z</time>
      </trkpt>
      <trkpt lat="42.93207" lon="1.29932">
        <ele>1365</ele>
        <time>2026-05-25T10:38:11.000Z</time>
      </trkpt>
      <trkpt lat="42.93208" lon="1.29939">
        <ele>1365</ele>
        <time>2026-05-25T10:38:12.000Z</time>
      </trkpt>
      <trkpt lat="42.93209" lon="1.29946">
        <ele>1365</ele>
        <time>2026-05-25T10:38:13.000Z</time>
      </trkpt>
      <trkpt lat="42.93209" lon="1.29953">
        <ele>1365</ele>
        <time>2026-05-25T10:38:14.000Z</time>
      </trkpt>
      <trkpt lat="42.9321" lon="1.2996">
        <ele>1365</ele>
        <time>2026-05-25T10:38:15.000Z</time>
      </trkpt>
      <trkpt lat="42.93211" lon="1.29967">
        <ele>1365</ele>
        <time>2026-05-25T10:38:16.000Z</time>
      </trkpt>
      <trkpt lat="42.93211" lon="1.29973">
        <ele>1366</ele>
        <time>2026-05-25T10:38:17.000Z</time>
      </trkpt>
      <trkpt lat="42.93211" lon="1.29979">
        <ele>1366</ele>
        <time>2026-05-25T10:38:18.000Z</time>
      </trkpt>
      <trkpt lat="42.9321" lon="1.29984">
        <ele>1365</ele>
        <time>2026-05-25T10:38:19.000Z</time>
      </trkpt>
      <trkpt lat="42.9321" lon="1.29989">
        <ele>1365</ele>
        <time>2026-05-25T10:38:20.000Z</time>
      </trkpt>
      <trkpt lat="42.93211" lon="1.29995">
        <ele>1366</ele>
        <time>2026-05-25T10:38:21.000Z</time>
      </trkpt>
      <trkpt lat="42.93211" lon="1.3">
        <ele>1366</ele>
        <time>2026-05-25T10:38:22.000Z</time>
      </trkpt>
      <trkpt lat="42.93212" lon="1.30006">
        <ele>1365</ele>
        <time>2026-05-25T10:38:23.000Z</time>
      </trkpt>
      <trkpt lat="42.93213" lon="1.30011">
        <ele>1365</ele>
        <time>2026-05-25T10:38:24.000Z</time>
      </trkpt>
      <trkpt lat="42.93214" lon="1.30016">
        <ele>1366</ele>
        <time>2026-05-25T10:38:25.000Z</time>
      </trkpt>
      <trkpt lat="42.93215" lon="1.30021">
        <ele>1366</ele>
        <time>2026-05-25T10:38:26.000Z</time>
      </trkpt>
      <trkpt lat="42.93216" lon="1.30025">
        <ele>1366</ele>
        <time>2026-05-25T10:38:27.000Z</time>
      </trkpt>
      <trkpt lat="42.93217" lon="1.3003">
        <ele>1366</ele>
        <time>2026-05-25T10:38:28.000Z</time>
      </trkpt>
      <trkpt lat="42.93217" lon="1.30034">
        <ele>1366</ele>
        <time>2026-05-25T10:38:29.000Z</time>
      </trkpt>
      <trkpt lat="42.93218" lon="1.3004">
        <ele>1366</ele>
        <time>2026-05-25T10:38:30.000Z</time>
      </trkpt>
      <trkpt lat="42.93219" lon="1.30045">
        <ele>1366</ele>
        <time>2026-05-25T10:38:31.000Z</time>
      </trkpt>
      <trkpt lat="42.9322" lon="1.3005">
        <ele>1365</ele>
        <time>2026-05-25T10:38:32.000Z</time>
      </trkpt>
      <trkpt lat="42.93221" lon="1.30056">
        <ele>1365</ele>
        <time>2026-05-25T10:38:33.000Z</time>
      </trkpt>
      <trkpt lat="42.93222" lon="1.30061">
        <ele>1365</ele>
        <time>2026-05-25T10:38:34.000Z</time>
      </trkpt>
      <trkpt lat="42.93222" lon="1.30066">
        <ele>1365</ele>
        <time>2026-05-25T10:38:35.000Z</time>
      </trkpt>
      <trkpt lat="42.93222" lon="1.3007">
        <ele>1366</ele>
        <time>2026-05-25T10:38:36.000Z</time>
      </trkpt>
      <trkpt lat="42.93222" lon="1.30075">
        <ele>1366</ele>
        <time>2026-05-25T10:38:37.000Z</time>
      </trkpt>
      <trkpt lat="42.93222" lon="1.30079">
        <ele>1366</ele>
        <time>2026-05-25T10:38:38.000Z</time>
      </trkpt>
      <trkpt lat="42.93222" lon="1.30083">
        <ele>1366</ele>
        <time>2026-05-25T10:38:39.000Z</time>
      </trkpt>
      <trkpt lat="42.93221" lon="1.30088">
        <ele>1367</ele>
        <time>2026-05-25T10:38:40.000Z</time>
      </trkpt>
      <trkpt lat="42.93221" lon="1.30093">
        <ele>1367</ele>
        <time>2026-05-25T10:38:41.000Z</time>
      </trkpt>
      <trkpt lat="42.9322" lon="1.30098">
        <ele>1367</ele>
        <time>2026-05-25T10:38:42.000Z</time>
      </trkpt>
      <trkpt lat="42.93221" lon="1.30104">
        <ele>1367</ele>
        <time>2026-05-25T10:38:43.000Z</time>
      </trkpt>
      <trkpt lat="42.93221" lon="1.3011">
        <ele>1368</ele>
        <time>2026-05-25T10:38:44.000Z</time>
      </trkpt>
      <trkpt lat="42.93221" lon="1.30115">
        <ele>1368</ele>
        <time>2026-05-25T10:38:45.000Z</time>
      </trkpt>
      <trkpt lat="42.9322" lon="1.30121">
        <ele>1368</ele>
        <time>2026-05-25T10:38:46.000Z</time>
      </trkpt>
      <trkpt lat="42.9322" lon="1.30126">
        <ele>1368</ele>
        <time>2026-05-25T10:38:47.000Z</time>
      </trkpt>
      <trkpt lat="42.9322" lon="1.30132">
        <ele>1369</ele>
        <time>2026-05-25T10:38:48.000Z</time>
      </trkpt>
      <trkpt lat="42.9322" lon="1.30136">
        <ele>1369</ele>
        <time>2026-05-25T10:38:49.000Z</time>
      </trkpt>
      <trkpt lat="42.9322" lon="1.30141">
        <ele>1369</ele>
        <time>2026-05-25T10:38:50.000Z</time>
      </trkpt>
      <trkpt lat="42.9322" lon="1.30144">
        <ele>1370</ele>
        <time>2026-05-25T10:38:51.000Z</time>
      </trkpt>
      <trkpt lat="42.9322" lon="1.30148">
        <ele>1371</ele>
        <time>2026-05-25T10:38:52.000Z</time>
      </trkpt>
      <trkpt lat="42.9322" lon="1.30151">
        <ele>1371</ele>
        <time>2026-05-25T10:38:53.000Z</time>
      </trkpt>
      <trkpt lat="42.93219" lon="1.30154">
        <ele>1372</ele>
        <time>2026-05-25T10:38:54.000Z</time>
      </trkpt>
      <trkpt lat="42.93219" lon="1.30158">
        <ele>1373</ele>
        <time>2026-05-25T10:38:55.000Z</time>
      </trkpt>
      <trkpt lat="42.93218" lon="1.30162">
        <ele>1373</ele>
        <time>2026-05-25T10:38:56.000Z</time>
      </trkpt>
      <trkpt lat="42.93218" lon="1.30166">
        <ele>1374</ele>
        <time>2026-05-25T10:38:57.000Z</time>
      </trkpt>
      <trkpt lat="42.93217" lon="1.30169">
        <ele>1374</ele>
        <time>2026-05-25T10:38:58.000Z</time>
      </trkpt>
      <trkpt lat="42.93216" lon="1.30173">
        <ele>1374</ele>
        <time>2026-05-25T10:38:59.000Z</time>
      </trkpt>
      <trkpt lat="42.93215" lon="1.30177">
        <ele>1374</ele>
        <time>2026-05-25T10:39:00.000Z</time>
      </trkpt>
      <trkpt lat="42.93214" lon="1.30182">
        <ele>1374</ele>
        <time>2026-05-25T10:39:01.000Z</time>
      </trkpt>
      <trkpt lat="42.93214" lon="1.30186">
        <ele>1374</ele>
        <time>2026-05-25T10:39:02.000Z</time>
      </trkpt>
      <trkpt lat="42.93212" lon="1.30191">
        <ele>1374</ele>
        <time>2026-05-25T10:39:03.000Z</time>
      </trkpt>
      <trkpt lat="42.9321" lon="1.30196">
        <ele>1374</ele>
        <time>2026-05-25T10:39:04.000Z</time>
      </trkpt>
      <trkpt lat="42.93208" lon="1.30203">
        <ele>1374</ele>
        <time>2026-05-25T10:39:05.000Z</time>
      </trkpt>
      <trkpt lat="42.93206" lon="1.30208">
        <ele>1374</ele>
        <time>2026-05-25T10:39:06.000Z</time>
      </trkpt>
      <trkpt lat="42.93206" lon="1.30214">
        <ele>1373</ele>
        <time>2026-05-25T10:39:07.000Z</time>
      </trkpt>
      <trkpt lat="42.93204" lon="1.30221">
        <ele>1372</ele>
        <time>2026-05-25T10:39:08.000Z</time>
      </trkpt>
      <trkpt lat="42.93202" lon="1.30227">
        <ele>1372</ele>
        <time>2026-05-25T10:39:09.000Z</time>
      </trkpt>
      <trkpt lat="42.93201" lon="1.30235">
        <ele>1371</ele>
        <time>2026-05-25T10:39:10.000Z</time>
      </trkpt>
      <trkpt lat="42.93199" lon="1.30242">
        <ele>1371</ele>
        <time>2026-05-25T10:39:11.000Z</time>
      </trkpt>
      <trkpt lat="42.93197" lon="1.3025">
        <ele>1370</ele>
        <time>2026-05-25T10:39:12.000Z</time>
      </trkpt>
      <trkpt lat="42.93196" lon="1.30257">
        <ele>1370</ele>
        <time>2026-05-25T10:39:13.000Z</time>
      </trkpt>
      <trkpt lat="42.93195" lon="1.30266">
        <ele>1370</ele>
        <time>2026-05-25T10:39:14.000Z</time>
      </trkpt>
      <trkpt lat="42.93194" lon="1.30274">
        <ele>1370</ele>
        <time>2026-05-25T10:39:15.000Z</time>
      </trkpt>
      <trkpt lat="42.93192" lon="1.30281">
        <ele>1370</ele>
        <time>2026-05-25T10:39:16.000Z</time>
      </trkpt>
      <trkpt lat="42.9319" lon="1.30286">
        <ele>1370</ele>
        <time>2026-05-25T10:39:17.000Z</time>
      </trkpt>
      <trkpt lat="42.93188" lon="1.30293">
        <ele>1371</ele>
        <time>2026-05-25T10:39:18.000Z</time>
      </trkpt>
      <trkpt lat="42.93186" lon="1.30298">
        <ele>1371</ele>
        <time>2026-05-25T10:39:19.000Z</time>
      </trkpt>
      <trkpt lat="42.93185" lon="1.30302">
        <ele>1372</ele>
        <time>2026-05-25T10:39:20.000Z</time>
      </trkpt>
      <trkpt lat="42.93183" lon="1.30306">
        <ele>1373</ele>
        <time>2026-05-25T10:39:21.000Z</time>
      </trkpt>
      <trkpt lat="42.93182" lon="1.3031">
        <ele>1373</ele>
        <time>2026-05-25T10:39:22.000Z</time>
      </trkpt>
      <trkpt lat="42.9318" lon="1.30314">
        <ele>1373</ele>
        <time>2026-05-25T10:39:23.000Z</time>
      </trkpt>
      <trkpt lat="42.93178" lon="1.3032">
        <ele>1374</ele>
        <time>2026-05-25T10:39:24.000Z</time>
      </trkpt>
      <trkpt lat="42.93177" lon="1.30326">
        <ele>1373</ele>
        <time>2026-05-25T10:39:25.000Z</time>
      </trkpt>
      <trkpt lat="42.93177" lon="1.30332">
        <ele>1372</ele>
        <time>2026-05-25T10:39:26.000Z</time>
      </trkpt>
      <trkpt lat="42.93176" lon="1.30338">
        <ele>1373</ele>
        <time>2026-05-25T10:39:27.000Z</time>
      </trkpt>
      <trkpt lat="42.93175" lon="1.30341">
        <ele>1373</ele>
        <time>2026-05-25T10:39:28.000Z</time>
      </trkpt>
      <trkpt lat="42.93175" lon="1.30344">
        <ele>1373</ele>
        <time>2026-05-25T10:39:29.000Z</time>
      </trkpt>
      <trkpt lat="42.93175" lon="1.30348">
        <ele>1374</ele>
        <time>2026-05-25T10:39:30.000Z</time>
      </trkpt>
      <trkpt lat="42.93174" lon="1.30351">
        <ele>1375</ele>
        <time>2026-05-25T10:39:31.000Z</time>
      </trkpt>
      <trkpt lat="42.93173" lon="1.30354">
        <ele>1376</ele>
        <time>2026-05-25T10:39:32.000Z</time>
      </trkpt>
      <trkpt lat="42.93171" lon="1.30357">
        <ele>1378</ele>
        <time>2026-05-25T10:39:33.000Z</time>
      </trkpt>
      <trkpt lat="42.9317" lon="1.3036">
        <ele>1379</ele>
        <time>2026-05-25T10:39:34.000Z</time>
      </trkpt>
      <trkpt lat="42.93168" lon="1.30364">
        <ele>1381</ele>
        <time>2026-05-25T10:39:35.000Z</time>
      </trkpt>
      <trkpt lat="42.93166" lon="1.30368">
        <ele>1383</ele>
        <time>2026-05-25T10:39:36.000Z</time>
      </trkpt>
      <trkpt lat="42.93164" lon="1.30371">
        <ele>1384</ele>
        <time>2026-05-25T10:39:37.000Z</time>
      </trkpt>
      <trkpt lat="42.93163" lon="1.30375">
        <ele>1386</ele>
        <time>2026-05-25T10:39:38.000Z</time>
      </trkpt>
      <trkpt lat="42.93161" lon="1.30378">
        <ele>1386</ele>
        <time>2026-05-25T10:39:39.000Z</time>
      </trkpt>
      <trkpt lat="42.9316" lon="1.30382">
        <ele>1387</ele>
        <time>2026-05-25T10:39:40.000Z</time>
      </trkpt>
      <trkpt lat="42.93159" lon="1.30386">
        <ele>1388</ele>
        <time>2026-05-25T10:39:41.000Z</time>
      </trkpt>
      <trkpt lat="42.93158" lon="1.3039">
        <ele>1390</ele>
        <time>2026-05-25T10:39:42.000Z</time>
      </trkpt>
      <trkpt lat="42.93157" lon="1.30392">
        <ele>1391</ele>
        <time>2026-05-25T10:39:43.000Z</time>
      </trkpt>
      <trkpt lat="42.93156" lon="1.30397">
        <ele>1393</ele>
        <time>2026-05-25T10:39:44.000Z</time>
      </trkpt>
      <trkpt lat="42.93154" lon="1.30401">
        <ele>1395</ele>
        <time>2026-05-25T10:39:45.000Z</time>
      </trkpt>
      <trkpt lat="42.93152" lon="1.30404">
        <ele>1396</ele>
        <time>2026-05-25T10:39:46.000Z</time>
      </trkpt>
      <trkpt lat="42.93151" lon="1.30409">
        <ele>1397</ele>
        <time>2026-05-25T10:39:47.000Z</time>
      </trkpt>
      <trkpt lat="42.9315" lon="1.30413">
        <ele>1397</ele>
        <time>2026-05-25T10:39:48.000Z</time>
      </trkpt>
      <trkpt lat="42.93149" lon="1.30416">
        <ele>1398</ele>
        <time>2026-05-25T10:39:49.000Z</time>
      </trkpt>
      <trkpt lat="42.93148" lon="1.3042">
        <ele>1399</ele>
        <time>2026-05-25T10:39:50.000Z</time>
      </trkpt>
      <trkpt lat="42.93147" lon="1.30425">
        <ele>1401</ele>
        <time>2026-05-25T10:39:51.000Z</time>
      </trkpt>
      <trkpt lat="42.93146" lon="1.3043">
        <ele>1402</ele>
        <time>2026-05-25T10:39:52.000Z</time>
      </trkpt>
      <trkpt lat="42.93144" lon="1.30435">
        <ele>1403</ele>
        <time>2026-05-25T10:39:53.000Z</time>
      </trkpt>
      <trkpt lat="42.93143" lon="1.3044">
        <ele>1403</ele>
        <time>2026-05-25T10:39:54.000Z</time>
      </trkpt>
      <trkpt lat="42.93141" lon="1.30445">
        <ele>1402</ele>
        <time>2026-05-25T10:39:55.000Z</time>
      </trkpt>
      <trkpt lat="42.9314" lon="1.30449">
        <ele>1402</ele>
        <time>2026-05-25T10:39:56.000Z</time>
      </trkpt>
      <trkpt lat="42.93138" lon="1.30451">
        <ele>1402</ele>
        <time>2026-05-25T10:39:57.000Z</time>
      </trkpt>
      <trkpt lat="42.93137" lon="1.30453">
        <ele>1402</ele>
        <time>2026-05-25T10:39:58.000Z</time>
      </trkpt>
      <trkpt lat="42.93135" lon="1.30457">
        <ele>1403</ele>
        <time>2026-05-25T10:39:59.000Z</time>
      </trkpt>
      <trkpt lat="42.93134" lon="1.3046">
        <ele>1403</ele>
        <time>2026-05-25T10:40:00.000Z</time>
      </trkpt>
      <trkpt lat="42.93132" lon="1.30463">
        <ele>1404</ele>
        <time>2026-05-25T10:40:01.000Z</time>
      </trkpt>
      <trkpt lat="42.93131" lon="1.30466">
        <ele>1404</ele>
        <time>2026-05-25T10:40:02.000Z</time>
      </trkpt>
      <trkpt lat="42.93131" lon="1.30468">
        <ele>1404</ele>
        <time>2026-05-25T10:40:03.000Z</time>
      </trkpt>
      <trkpt lat="42.9313" lon="1.3047">
        <ele>1404</ele>
        <time>2026-05-25T10:40:04.000Z</time>
      </trkpt>
      <trkpt lat="42.93129" lon="1.30472">
        <ele>1404</ele>
        <time>2026-05-25T10:40:05.000Z</time>
      </trkpt>
      <trkpt lat="42.93128" lon="1.30475">
        <ele>1404</ele>
        <time>2026-05-25T10:40:06.000Z</time>
      </trkpt>
      <trkpt lat="42.93128" lon="1.30478">
        <ele>1404</ele>
        <time>2026-05-25T10:40:07.000Z</time>
      </trkpt>
      <trkpt lat="42.93127" lon="1.30481">
        <ele>1403</ele>
        <time>2026-05-25T10:40:08.000Z</time>
      </trkpt>
      <trkpt lat="42.93126" lon="1.30485">
        <ele>1402</ele>
        <time>2026-05-25T10:40:09.000Z</time>
      </trkpt>
      <trkpt lat="42.93125" lon="1.30487">
        <ele>1402</ele>
        <time>2026-05-25T10:40:10.000Z</time>
      </trkpt>
      <trkpt lat="42.93124" lon="1.3049">
        <ele>1401</ele>
        <time>2026-05-25T10:40:11.000Z</time>
      </trkpt>
      <trkpt lat="42.93123" lon="1.30493">
        <ele>1401</ele>
        <time>2026-05-25T10:40:12.000Z</time>
      </trkpt>
      <trkpt lat="42.93123" lon="1.30495">
        <ele>1400</ele>
        <time>2026-05-25T10:40:13.000Z</time>
      </trkpt>
      <trkpt lat="42.93122" lon="1.30498">
        <ele>1400</ele>
        <time>2026-05-25T10:40:14.000Z</time>
      </trkpt>
      <trkpt lat="42.93122" lon="1.30502">
        <ele>1400</ele>
        <time>2026-05-25T10:40:15.000Z</time>
      </trkpt>
      <trkpt lat="42.9312" lon="1.30506">
        <ele>1399</ele>
        <time>2026-05-25T10:40:16.000Z</time>
      </trkpt>
      <trkpt lat="42.93119" lon="1.30511">
        <ele>1399</ele>
        <time>2026-05-25T10:40:17.000Z</time>
      </trkpt>
      <trkpt lat="42.93118" lon="1.30516">
        <ele>1398</ele>
        <time>2026-05-25T10:40:18.000Z</time>
      </trkpt>
      <trkpt lat="42.93116" lon="1.30522">
        <ele>1398</ele>
        <time>2026-05-25T10:40:19.000Z</time>
      </trkpt>
      <trkpt lat="42.93115" lon="1.30528">
        <ele>1396</ele>
        <time>2026-05-25T10:40:20.000Z</time>
      </trkpt>
      <trkpt lat="42.93113" lon="1.30534">
        <ele>1395</ele>
        <time>2026-05-25T10:40:21.000Z</time>
      </trkpt>
      <trkpt lat="42.93112" lon="1.30541">
        <ele>1394</ele>
        <time>2026-05-25T10:40:22.000Z</time>
      </trkpt>
      <trkpt lat="42.93111" lon="1.30547">
        <ele>1392</ele>
        <time>2026-05-25T10:40:23.000Z</time>
      </trkpt>
      <trkpt lat="42.93112" lon="1.30553">
        <ele>1390</ele>
        <time>2026-05-25T10:40:24.000Z</time>
      </trkpt>
      <trkpt lat="42.93112" lon="1.30559">
        <ele>1389</ele>
        <time>2026-05-25T10:40:25.000Z</time>
      </trkpt>
      <trkpt lat="42.93113" lon="1.30565">
        <ele>1388</ele>
        <time>2026-05-25T10:40:26.000Z</time>
      </trkpt>
      <trkpt lat="42.93114" lon="1.30573">
        <ele>1388</ele>
        <time>2026-05-25T10:40:27.000Z</time>
      </trkpt>
      <trkpt lat="42.93114" lon="1.30581">
        <ele>1387</ele>
        <time>2026-05-25T10:40:28.000Z</time>
      </trkpt>
      <trkpt lat="42.93114" lon="1.30588">
        <ele>1387</ele>
        <time>2026-05-25T10:40:29.000Z</time>
      </trkpt>
      <trkpt lat="42.93115" lon="1.30596">
        <ele>1386</ele>
        <time>2026-05-25T10:40:30.000Z</time>
      </trkpt>
      <trkpt lat="42.93117" lon="1.30603">
        <ele>1385</ele>
        <time>2026-05-25T10:40:31.000Z</time>
      </trkpt>
      <trkpt lat="42.9312" lon="1.3061">
        <ele>1384</ele>
        <time>2026-05-25T10:40:32.000Z</time>
      </trkpt>
      <trkpt lat="42.93123" lon="1.30617">
        <ele>1383</ele>
        <time>2026-05-25T10:40:33.000Z</time>
      </trkpt>
      <trkpt lat="42.93126" lon="1.30624">
        <ele>1382</ele>
        <time>2026-05-25T10:40:34.000Z</time>
      </trkpt>
      <trkpt lat="42.93129" lon="1.30629">
        <ele>1381</ele>
        <time>2026-05-25T10:40:35.000Z</time>
      </trkpt>
      <trkpt lat="42.93133" lon="1.30637">
        <ele>1380</ele>
        <time>2026-05-25T10:40:36.000Z</time>
      </trkpt>
      <trkpt lat="42.93137" lon="1.30645">
        <ele>1379</ele>
        <time>2026-05-25T10:40:37.000Z</time>
      </trkpt>
      <trkpt lat="42.93141" lon="1.30653">
        <ele>1379</ele>
        <time>2026-05-25T10:40:38.000Z</time>
      </trkpt>
      <trkpt lat="42.93145" lon="1.30662">
        <ele>1378</ele>
        <time>2026-05-25T10:40:39.000Z</time>
      </trkpt>
      <trkpt lat="42.93149" lon="1.3067">
        <ele>1377</ele>
        <time>2026-05-25T10:40:40.000Z</time>
      </trkpt>
      <trkpt lat="42.93153" lon="1.30678">
        <ele>1376</ele>
        <time>2026-05-25T10:40:41.000Z</time>
      </trkpt>
      <trkpt lat="42.93157" lon="1.30685">
        <ele>1375</ele>
        <time>2026-05-25T10:40:42.000Z</time>
      </trkpt>
      <trkpt lat="42.93162" lon="1.30692">
        <ele>1374</ele>
        <time>2026-05-25T10:40:43.000Z</time>
      </trkpt>
      <trkpt lat="42.93165" lon="1.30698">
        <ele>1373</ele>
        <time>2026-05-25T10:40:44.000Z</time>
      </trkpt>
      <trkpt lat="42.93169" lon="1.30705">
        <ele>1372</ele>
        <time>2026-05-25T10:40:45.000Z</time>
      </trkpt>
      <trkpt lat="42.93172" lon="1.30714">
        <ele>1371</ele>
        <time>2026-05-25T10:40:46.000Z</time>
      </trkpt>
      <trkpt lat="42.93178" lon="1.30723">
        <ele>1369</ele>
        <time>2026-05-25T10:40:47.000Z</time>
      </trkpt>
      <trkpt lat="42.93181" lon="1.30732">
        <ele>1368</ele>
        <time>2026-05-25T10:40:48.000Z</time>
      </trkpt>
      <trkpt lat="42.93183" lon="1.30742">
        <ele>1368</ele>
        <time>2026-05-25T10:40:49.000Z</time>
      </trkpt>
      <trkpt lat="42.93186" lon="1.30752">
        <ele>1367</ele>
        <time>2026-05-25T10:40:50.000Z</time>
      </trkpt>
      <trkpt lat="42.93188" lon="1.30762">
        <ele>1366</ele>
        <time>2026-05-25T10:40:51.000Z</time>
      </trkpt>
      <trkpt lat="42.9319" lon="1.30769">
        <ele>1367</ele>
        <time>2026-05-25T10:40:52.000Z</time>
      </trkpt>
      <trkpt lat="42.93192" lon="1.30773">
        <ele>1366</ele>
        <time>2026-05-25T10:40:53.000Z</time>
      </trkpt>
      <trkpt lat="42.93193" lon="1.30779">
        <ele>1365</ele>
        <time>2026-05-25T10:40:54.000Z</time>
      </trkpt>
      <trkpt lat="42.93195" lon="1.30783">
        <ele>1364</ele>
        <time>2026-05-25T10:40:55.000Z</time>
      </trkpt>
      <trkpt lat="42.93198" lon="1.30788">
        <ele>1363</ele>
        <time>2026-05-25T10:40:56.000Z</time>
      </trkpt>
      <trkpt lat="42.932" lon="1.30794">
        <ele>1362</ele>
        <time>2026-05-25T10:40:57.000Z</time>
      </trkpt>
      <trkpt lat="42.93203" lon="1.30799">
        <ele>1363</ele>
        <time>2026-05-25T10:40:58.000Z</time>
      </trkpt>
      <trkpt lat="42.93206" lon="1.30804">
        <ele>1362</ele>
        <time>2026-05-25T10:40:59.000Z</time>
      </trkpt>
      <trkpt lat="42.93209" lon="1.30809">
        <ele>1360</ele>
        <time>2026-05-25T10:41:00.000Z</time>
      </trkpt>
      <trkpt lat="42.93213" lon="1.30813">
        <ele>1360</ele>
        <time>2026-05-25T10:41:01.000Z</time>
      </trkpt>
      <trkpt lat="42.93218" lon="1.30818">
        <ele>1360</ele>
        <time>2026-05-25T10:41:02.000Z</time>
      </trkpt>
      <trkpt lat="42.93222" lon="1.30823">
        <ele>1360</ele>
        <time>2026-05-25T10:41:03.000Z</time>
      </trkpt>
      <trkpt lat="42.93225" lon="1.30828">
        <ele>1360</ele>
        <time>2026-05-25T10:41:04.000Z</time>
      </trkpt>
      <trkpt lat="42.93229" lon="1.30833">
        <ele>1360</ele>
        <time>2026-05-25T10:41:05.000Z</time>
      </trkpt>
      <trkpt lat="42.93233" lon="1.30838">
        <ele>1359</ele>
        <time>2026-05-25T10:41:06.000Z</time>
      </trkpt>
      <trkpt lat="42.93236" lon="1.30843">
        <ele>1359</ele>
        <time>2026-05-25T10:41:07.000Z</time>
      </trkpt>
      <trkpt lat="42.93238" lon="1.30847">
        <ele>1358</ele>
        <time>2026-05-25T10:41:08.000Z</time>
      </trkpt>
      <trkpt lat="42.93241" lon="1.30851">
        <ele>1358</ele>
        <time>2026-05-25T10:41:09.000Z</time>
      </trkpt>
      <trkpt lat="42.93243" lon="1.30855">
        <ele>1358</ele>
        <time>2026-05-25T10:41:10.000Z</time>
      </trkpt>
      <trkpt lat="42.93244" lon="1.30861">
        <ele>1358</ele>
        <time>2026-05-25T10:41:11.000Z</time>
      </trkpt>
      <trkpt lat="42.93248" lon="1.30867">
        <ele>1358</ele>
        <time>2026-05-25T10:41:12.000Z</time>
      </trkpt>
      <trkpt lat="42.93251" lon="1.30873">
        <ele>1359</ele>
        <time>2026-05-25T10:41:13.000Z</time>
      </trkpt>
      <trkpt lat="42.93254" lon="1.30879">
        <ele>1358</ele>
        <time>2026-05-25T10:41:14.000Z</time>
      </trkpt>
      <trkpt lat="42.93257" lon="1.30885">
        <ele>1358</ele>
        <time>2026-05-25T10:41:15.000Z</time>
      </trkpt>
      <trkpt lat="42.93261" lon="1.3089">
        <ele>1358</ele>
        <time>2026-05-25T10:41:16.000Z</time>
      </trkpt>
      <trkpt lat="42.93265" lon="1.30896">
        <ele>1357</ele>
        <time>2026-05-25T10:41:17.000Z</time>
      </trkpt>
      <trkpt lat="42.93269" lon="1.30902">
        <ele>1357</ele>
        <time>2026-05-25T10:41:18.000Z</time>
      </trkpt>
      <trkpt lat="42.93274" lon="1.30908">
        <ele>1358</ele>
        <time>2026-05-25T10:41:19.000Z</time>
      </trkpt>
      <trkpt lat="42.93278" lon="1.30912">
        <ele>1357</ele>
        <time>2026-05-25T10:41:20.000Z</time>
      </trkpt>
      <trkpt lat="42.93282" lon="1.30918">
        <ele>1357</ele>
        <time>2026-05-25T10:41:21.000Z</time>
      </trkpt>
      <trkpt lat="42.93286" lon="1.30924">
        <ele>1356</ele>
        <time>2026-05-25T10:41:22.000Z</time>
      </trkpt>
      <trkpt lat="42.9329" lon="1.30932">
        <ele>1355</ele>
        <time>2026-05-25T10:41:23.000Z</time>
      </trkpt>
      <trkpt lat="42.93296" lon="1.3094">
        <ele>1354</ele>
        <time>2026-05-25T10:41:24.000Z</time>
      </trkpt>
      <trkpt lat="42.933" lon="1.30948">
        <ele>1353</ele>
        <time>2026-05-25T10:41:25.000Z</time>
      </trkpt>
      <trkpt lat="42.93304" lon="1.30955">
        <ele>1352</ele>
        <time>2026-05-25T10:41:26.000Z</time>
      </trkpt>
      <trkpt lat="42.93307" lon="1.30963">
        <ele>1350</ele>
        <time>2026-05-25T10:41:27.000Z</time>
      </trkpt>
      <trkpt lat="42.9331" lon="1.3097">
        <ele>1349</ele>
        <time>2026-05-25T10:41:28.000Z</time>
      </trkpt>
      <trkpt lat="42.93312" lon="1.30981">
        <ele>1347</ele>
        <time>2026-05-25T10:41:29.000Z</time>
      </trkpt>
      <trkpt lat="42.93314" lon="1.30992">
        <ele>1345</ele>
        <time>2026-05-25T10:41:30.000Z</time>
      </trkpt>
      <trkpt lat="42.93315" lon="1.31001">
        <ele>1343</ele>
        <time>2026-05-25T10:41:31.000Z</time>
      </trkpt>
      <trkpt lat="42.93317" lon="1.31012">
        <ele>1342</ele>
        <time>2026-05-25T10:41:32.000Z</time>
      </trkpt>
      <trkpt lat="42.93319" lon="1.31022">
        <ele>1341</ele>
        <time>2026-05-25T10:41:33.000Z</time>
      </trkpt>
      <trkpt lat="42.93321" lon="1.31031">
        <ele>1340</ele>
        <time>2026-05-25T10:41:34.000Z</time>
      </trkpt>
      <trkpt lat="42.93322" lon="1.3104">
        <ele>1339</ele>
        <time>2026-05-25T10:41:35.000Z</time>
      </trkpt>
      <trkpt lat="42.93323" lon="1.31049">
        <ele>1338</ele>
        <time>2026-05-25T10:41:36.000Z</time>
      </trkpt>
      <trkpt lat="42.93323" lon="1.31057">
        <ele>1336</ele>
        <time>2026-05-25T10:41:37.000Z</time>
      </trkpt>
      <trkpt lat="42.93323" lon="1.31065">
        <ele>1335</ele>
        <time>2026-05-25T10:41:38.000Z</time>
      </trkpt>
      <trkpt lat="42.93324" lon="1.31072">
        <ele>1333</ele>
        <time>2026-05-25T10:41:39.000Z</time>
      </trkpt>
      <trkpt lat="42.93324" lon="1.31078">
        <ele>1331</ele>
        <time>2026-05-25T10:41:40.000Z</time>
      </trkpt>
      <trkpt lat="42.93325" lon="1.31087">
        <ele>1329</ele>
        <time>2026-05-25T10:41:41.000Z</time>
      </trkpt>
      <trkpt lat="42.93326" lon="1.31096">
        <ele>1328</ele>
        <time>2026-05-25T10:41:42.000Z</time>
      </trkpt>
      <trkpt lat="42.93327" lon="1.31106">
        <ele>1326</ele>
        <time>2026-05-25T10:41:43.000Z</time>
      </trkpt>
      <trkpt lat="42.93327" lon="1.31116">
        <ele>1324</ele>
        <time>2026-05-25T10:41:44.000Z</time>
      </trkpt>
      <trkpt lat="42.93326" lon="1.31123">
        <ele>1324</ele>
        <time>2026-05-25T10:41:45.000Z</time>
      </trkpt>
      <trkpt lat="42.93325" lon="1.31133">
        <ele>1323</ele>
        <time>2026-05-25T10:41:46.000Z</time>
      </trkpt>
      <trkpt lat="42.93324" lon="1.31141">
        <ele>1323</ele>
        <time>2026-05-25T10:41:47.000Z</time>
      </trkpt>
      <trkpt lat="42.93324" lon="1.31151">
        <ele>1323</ele>
        <time>2026-05-25T10:41:48.000Z</time>
      </trkpt>
      <trkpt lat="42.93325" lon="1.3116">
        <ele>1322</ele>
        <time>2026-05-25T10:41:49.000Z</time>
      </trkpt>
      <trkpt lat="42.93325" lon="1.3117">
        <ele>1322</ele>
        <time>2026-05-25T10:41:50.000Z</time>
      </trkpt>
      <trkpt lat="42.93325" lon="1.3118">
        <ele>1321</ele>
        <time>2026-05-25T10:41:51.000Z</time>
      </trkpt>
      <trkpt lat="42.93325" lon="1.31189">
        <ele>1320</ele>
        <time>2026-05-25T10:41:52.000Z</time>
      </trkpt>
      <trkpt lat="42.93323" lon="1.31199">
        <ele>1319</ele>
        <time>2026-05-25T10:41:53.000Z</time>
      </trkpt>
      <trkpt lat="42.93323" lon="1.31207">
        <ele>1318</ele>
        <time>2026-05-25T10:41:54.000Z</time>
      </trkpt>
      <trkpt lat="42.93322" lon="1.31216">
        <ele>1318</ele>
        <time>2026-05-25T10:41:55.000Z</time>
      </trkpt>
      <trkpt lat="42.93322" lon="1.31224">
        <ele>1318</ele>
        <time>2026-05-25T10:41:56.000Z</time>
      </trkpt>
      <trkpt lat="42.93321" lon="1.31232">
        <ele>1317</ele>
        <time>2026-05-25T10:41:57.000Z</time>
      </trkpt>
      <trkpt lat="42.93321" lon="1.31239">
        <ele>1317</ele>
        <time>2026-05-25T10:41:58.000Z</time>
      </trkpt>
      <trkpt lat="42.93319" lon="1.31244">
        <ele>1317</ele>
        <time>2026-05-25T10:41:59.000Z</time>
      </trkpt>
      <trkpt lat="42.93318" lon="1.31248">
        <ele>1318</ele>
        <time>2026-05-25T10:42:00.000Z</time>
      </trkpt>
      <trkpt lat="42.93318" lon="1.31251">
        <ele>1319</ele>
        <time>2026-05-25T10:42:01.000Z</time>
      </trkpt>
      <trkpt lat="42.93316" lon="1.31253">
        <ele>1320</ele>
        <time>2026-05-25T10:42:02.000Z</time>
      </trkpt>
      <trkpt lat="42.93315" lon="1.31257">
        <ele>1320</ele>
        <time>2026-05-25T10:42:03.000Z</time>
      </trkpt>
      <trkpt lat="42.93314" lon="1.31261">
        <ele>1321</ele>
        <time>2026-05-25T10:42:04.000Z</time>
      </trkpt>
      <trkpt lat="42.93314" lon="1.31266">
        <ele>1323</ele>
        <time>2026-05-25T10:42:05.000Z</time>
      </trkpt>
      <trkpt lat="42.93313" lon="1.31272">
        <ele>1323</ele>
        <time>2026-05-25T10:42:06.000Z</time>
      </trkpt>
      <trkpt lat="42.93313" lon="1.31278">
        <ele>1323</ele>
        <time>2026-05-25T10:42:07.000Z</time>
      </trkpt>
      <trkpt lat="42.93311" lon="1.31283">
        <ele>1324</ele>
        <time>2026-05-25T10:42:08.000Z</time>
      </trkpt>
      <trkpt lat="42.9331" lon="1.3129">
        <ele>1323</ele>
        <time>2026-05-25T10:42:09.000Z</time>
      </trkpt>
      <trkpt lat="42.9331" lon="1.31296">
        <ele>1323</ele>
        <time>2026-05-25T10:42:10.000Z</time>
      </trkpt>
      <trkpt lat="42.93309" lon="1.31304">
        <ele>1323</ele>
        <time>2026-05-25T10:42:11.000Z</time>
      </trkpt>
      <trkpt lat="42.93309" lon="1.3131">
        <ele>1324</ele>
        <time>2026-05-25T10:42:12.000Z</time>
      </trkpt>
      <trkpt lat="42.93309" lon="1.31317">
        <ele>1324</ele>
        <time>2026-05-25T10:42:13.000Z</time>
      </trkpt>
      <trkpt lat="42.9331" lon="1.31323">
        <ele>1324</ele>
        <time>2026-05-25T10:42:14.000Z</time>
      </trkpt>
      <trkpt lat="42.9331" lon="1.31331">
        <ele>1323</ele>
        <time>2026-05-25T10:42:15.000Z</time>
      </trkpt>
      <trkpt lat="42.9331" lon="1.31338">
        <ele>1324</ele>
        <time>2026-05-25T10:42:16.000Z</time>
      </trkpt>
      <trkpt lat="42.93309" lon="1.31345">
        <ele>1324</ele>
        <time>2026-05-25T10:42:17.000Z</time>
      </trkpt>
      <trkpt lat="42.93307" lon="1.31354">
        <ele>1323</ele>
        <time>2026-05-25T10:42:18.000Z</time>
      </trkpt>
      <trkpt lat="42.93305" lon="1.31362">
        <ele>1324</ele>
        <time>2026-05-25T10:42:19.000Z</time>
      </trkpt>
      <trkpt lat="42.93304" lon="1.31371">
        <ele>1325</ele>
        <time>2026-05-25T10:42:20.000Z</time>
      </trkpt>
      <trkpt lat="42.93304" lon="1.3138">
        <ele>1325</ele>
        <time>2026-05-25T10:42:21.000Z</time>
      </trkpt>
      <trkpt lat="42.93303" lon="1.31389">
        <ele>1324</ele>
        <time>2026-05-25T10:42:22.000Z</time>
      </trkpt>
      <trkpt lat="42.93303" lon="1.314">
        <ele>1324</ele>
        <time>2026-05-25T10:42:23.000Z</time>
      </trkpt>
      <trkpt lat="42.93303" lon="1.31411">
        <ele>1323</ele>
        <time>2026-05-25T10:42:24.000Z</time>
      </trkpt>
      <trkpt lat="42.93304" lon="1.31422">
        <ele>1321</ele>
        <time>2026-05-25T10:42:25.000Z</time>
      </trkpt>
      <trkpt lat="42.93305" lon="1.31432">
        <ele>1320</ele>
        <time>2026-05-25T10:42:26.000Z</time>
      </trkpt>
      <trkpt lat="42.93306" lon="1.31441">
        <ele>1319</ele>
        <time>2026-05-25T10:42:27.000Z</time>
      </trkpt>
      <trkpt lat="42.93307" lon="1.31451">
        <ele>1319</ele>
        <time>2026-05-25T10:42:28.000Z</time>
      </trkpt>
      <trkpt lat="42.93308" lon="1.3146">
        <ele>1318</ele>
        <time>2026-05-25T10:42:29.000Z</time>
      </trkpt>
      <trkpt lat="42.93308" lon="1.31469">
        <ele>1317</ele>
        <time>2026-05-25T10:42:30.000Z</time>
      </trkpt>
      <trkpt lat="42.93309" lon="1.31477">
        <ele>1317</ele>
        <time>2026-05-25T10:42:31.000Z</time>
      </trkpt>
      <trkpt lat="42.9331" lon="1.31485">
        <ele>1316</ele>
        <time>2026-05-25T10:42:32.000Z</time>
      </trkpt>
      <trkpt lat="42.9331" lon="1.31492">
        <ele>1316</ele>
        <time>2026-05-25T10:42:33.000Z</time>
      </trkpt>
      <trkpt lat="42.9331" lon="1.31499">
        <ele>1316</ele>
        <time>2026-05-25T10:42:34.000Z</time>
      </trkpt>
      <trkpt lat="42.93311" lon="1.31506">
        <ele>1317</ele>
        <time>2026-05-25T10:42:35.000Z</time>
      </trkpt>
      <trkpt lat="42.9331" lon="1.31513">
        <ele>1317</ele>
        <time>2026-05-25T10:42:36.000Z</time>
      </trkpt>
      <trkpt lat="42.9331" lon="1.3152">
        <ele>1318</ele>
        <time>2026-05-25T10:42:37.000Z</time>
      </trkpt>
      <trkpt lat="42.93311" lon="1.31527">
        <ele>1318</ele>
        <time>2026-05-25T10:42:38.000Z</time>
      </trkpt>
      <trkpt lat="42.93312" lon="1.31533">
        <ele>1317</ele>
        <time>2026-05-25T10:42:39.000Z</time>
      </trkpt>
      <trkpt lat="42.93312" lon="1.31538">
        <ele>1317</ele>
        <time>2026-05-25T10:42:40.000Z</time>
      </trkpt>
      <trkpt lat="42.93312" lon="1.31542">
        <ele>1317</ele>
        <time>2026-05-25T10:42:41.000Z</time>
      </trkpt>
      <trkpt lat="42.93313" lon="1.31547">
        <ele>1318</ele>
        <time>2026-05-25T10:42:42.000Z</time>
      </trkpt>
      <trkpt lat="42.93313" lon="1.31551">
        <ele>1319</ele>
        <time>2026-05-25T10:42:43.000Z</time>
      </trkpt>
      <trkpt lat="42.93314" lon="1.31555">
        <ele>1319</ele>
        <time>2026-05-25T10:42:44.000Z</time>
      </trkpt>
      <trkpt lat="42.93316" lon="1.31559">
        <ele>1319</ele>
        <time>2026-05-25T10:42:45.000Z</time>
      </trkpt>
      <trkpt lat="42.93316" lon="1.31563">
        <ele>1320</ele>
        <time>2026-05-25T10:42:46.000Z</time>
      </trkpt>
      <trkpt lat="42.93317" lon="1.31566">
        <ele>1321</ele>
        <time>2026-05-25T10:42:47.000Z</time>
      </trkpt>
      <trkpt lat="42.93318" lon="1.3157">
        <ele>1322</ele>
        <time>2026-05-25T10:42:48.000Z</time>
      </trkpt>
      <trkpt lat="42.93319" lon="1.31573">
        <ele>1323</ele>
        <time>2026-05-25T10:42:49.000Z</time>
      </trkpt>
      <trkpt lat="42.93319" lon="1.31576">
        <ele>1324</ele>
        <time>2026-05-25T10:42:50.000Z</time>
      </trkpt>
      <trkpt lat="42.93319" lon="1.31579">
        <ele>1325</ele>
        <time>2026-05-25T10:42:51.000Z</time>
      </trkpt>
      <trkpt lat="42.93319" lon="1.31582">
        <ele>1326</ele>
        <time>2026-05-25T10:42:52.000Z</time>
      </trkpt>
      <trkpt lat="42.93318" lon="1.31585">
        <ele>1327</ele>
        <time>2026-05-25T10:42:53.000Z</time>
      </trkpt>
      <trkpt lat="42.93318" lon="1.31588">
        <ele>1328</ele>
        <time>2026-05-25T10:42:54.000Z</time>
      </trkpt>
      <trkpt lat="42.93318" lon="1.31592">
        <ele>1329</ele>
        <time>2026-05-25T10:42:55.000Z</time>
      </trkpt>
      <trkpt lat="42.93318" lon="1.31595">
        <ele>1331</ele>
        <time>2026-05-25T10:42:56.000Z</time>
      </trkpt>
      <trkpt lat="42.93317" lon="1.31598">
        <ele>1332</ele>
        <time>2026-05-25T10:42:57.000Z</time>
      </trkpt>
      <trkpt lat="42.93317" lon="1.31601">
        <ele>1333</ele>
        <time>2026-05-25T10:42:58.000Z</time>
      </trkpt>
      <trkpt lat="42.93317" lon="1.31604">
        <ele>1333</ele>
        <time>2026-05-25T10:42:59.000Z</time>
      </trkpt>
      <trkpt lat="42.93317" lon="1.31607">
        <ele>1334</ele>
        <time>2026-05-25T10:43:00.000Z</time>
      </trkpt>
      <trkpt lat="42.93317" lon="1.31611">
        <ele>1335</ele>
        <time>2026-05-25T10:43:01.000Z</time>
      </trkpt>
      <trkpt lat="42.93317" lon="1.31614">
        <ele>1335</ele>
        <time>2026-05-25T10:43:02.000Z</time>
      </trkpt>
      <trkpt lat="42.93317" lon="1.31617">
        <ele>1336</ele>
        <time>2026-05-25T10:43:03.000Z</time>
      </trkpt>
      <trkpt lat="42.93317" lon="1.3162">
        <ele>1336</ele>
        <time>2026-05-25T10:43:04.000Z</time>
      </trkpt>
      <trkpt lat="42.93318" lon="1.31624">
        <ele>1337</ele>
        <time>2026-05-25T10:43:05.000Z</time>
      </trkpt>
      <trkpt lat="42.93317" lon="1.31628">
        <ele>1337</ele>
        <time>2026-05-25T10:43:06.000Z</time>
      </trkpt>
      <trkpt lat="42.93318" lon="1.31632">
        <ele>1337</ele>
        <time>2026-05-25T10:43:07.000Z</time>
      </trkpt>
      <trkpt lat="42.93318" lon="1.31636">
        <ele>1337</ele>
        <time>2026-05-25T10:43:08.000Z</time>
      </trkpt>
      <trkpt lat="42.93319" lon="1.3164">
        <ele>1338</ele>
        <time>2026-05-25T10:43:09.000Z</time>
      </trkpt>
      <trkpt lat="42.93318" lon="1.31644">
        <ele>1338</ele>
        <time>2026-05-25T10:43:10.000Z</time>
      </trkpt>
      <trkpt lat="42.93318" lon="1.31648">
        <ele>1338</ele>
        <time>2026-05-25T10:43:11.000Z</time>
      </trkpt>
      <trkpt lat="42.93318" lon="1.31652">
        <ele>1338</ele>
        <time>2026-05-25T10:43:12.000Z</time>
      </trkpt>
      <trkpt lat="42.93318" lon="1.31656">
        <ele>1338</ele>
        <time>2026-05-25T10:43:13.000Z</time>
      </trkpt>
      <trkpt lat="42.93318" lon="1.3166">
        <ele>1338</ele>
        <time>2026-05-25T10:43:14.000Z</time>
      </trkpt>
      <trkpt lat="42.93318" lon="1.31664">
        <ele>1339</ele>
        <time>2026-05-25T10:43:15.000Z</time>
      </trkpt>
      <trkpt lat="42.93318" lon="1.31668">
        <ele>1340</ele>
        <time>2026-05-25T10:43:16.000Z</time>
      </trkpt>
      <trkpt lat="42.93318" lon="1.31672">
        <ele>1339</ele>
        <time>2026-05-25T10:43:17.000Z</time>
      </trkpt>
      <trkpt lat="42.93318" lon="1.31676">
        <ele>1339</ele>
        <time>2026-05-25T10:43:18.000Z</time>
      </trkpt>
      <trkpt lat="42.93318" lon="1.3168">
        <ele>1338</ele>
        <time>2026-05-25T10:43:19.000Z</time>
      </trkpt>
      <trkpt lat="42.93318" lon="1.31684">
        <ele>1338</ele>
        <time>2026-05-25T10:43:20.000Z</time>
      </trkpt>
      <trkpt lat="42.93318" lon="1.31689">
        <ele>1338</ele>
        <time>2026-05-25T10:43:21.000Z</time>
      </trkpt>
      <trkpt lat="42.93318" lon="1.31694">
        <ele>1337</ele>
        <time>2026-05-25T10:43:22.000Z</time>
      </trkpt>
      <trkpt lat="42.93318" lon="1.31699">
        <ele>1336</ele>
        <time>2026-05-25T10:43:23.000Z</time>
      </trkpt>
      <trkpt lat="42.93317" lon="1.31703">
        <ele>1336</ele>
        <time>2026-05-25T10:43:24.000Z</time>
      </trkpt>
      <trkpt lat="42.93317" lon="1.31708">
        <ele>1335</ele>
        <time>2026-05-25T10:43:25.000Z</time>
      </trkpt>
      <trkpt lat="42.93317" lon="1.31711">
        <ele>1335</ele>
        <time>2026-05-25T10:43:26.000Z</time>
      </trkpt>
      <trkpt lat="42.93317" lon="1.31715">
        <ele>1335</ele>
        <time>2026-05-25T10:43:27.000Z</time>
      </trkpt>
      <trkpt lat="42.93318" lon="1.31718">
        <ele>1334</ele>
        <time>2026-05-25T10:43:28.000Z</time>
      </trkpt>
      <trkpt lat="42.93318" lon="1.31722">
        <ele>1334</ele>
        <time>2026-05-25T10:43:29.000Z</time>
      </trkpt>
      <trkpt lat="42.93318" lon="1.31726">
        <ele>1335</ele>
        <time>2026-05-25T10:43:30.000Z</time>
      </trkpt>
      <trkpt lat="42.93319" lon="1.31731">
        <ele>1335</ele>
        <time>2026-05-25T10:43:31.000Z</time>
      </trkpt>
      <trkpt lat="42.93319" lon="1.31735">
        <ele>1335</ele>
        <time>2026-05-25T10:43:32.000Z</time>
      </trkpt>
      <trkpt lat="42.93318" lon="1.31739">
        <ele>1335</ele>
        <time>2026-05-25T10:43:33.000Z</time>
      </trkpt>
      <trkpt lat="42.93318" lon="1.31744">
        <ele>1335</ele>
        <time>2026-05-25T10:43:34.000Z</time>
      </trkpt>
      <trkpt lat="42.93318" lon="1.31749">
        <ele>1336</ele>
        <time>2026-05-25T10:43:35.000Z</time>
      </trkpt>
      <trkpt lat="42.93318" lon="1.31755">
        <ele>1336</ele>
        <time>2026-05-25T10:43:36.000Z</time>
      </trkpt>
      <trkpt lat="42.93317" lon="1.31762">
        <ele>1335</ele>
        <time>2026-05-25T10:43:37.000Z</time>
      </trkpt>
      <trkpt lat="42.93317" lon="1.31769">
        <ele>1335</ele>
        <time>2026-05-25T10:43:38.000Z</time>
      </trkpt>
      <trkpt lat="42.93316" lon="1.31775">
        <ele>1334</ele>
        <time>2026-05-25T10:43:39.000Z</time>
      </trkpt>
      <trkpt lat="42.93317" lon="1.3178">
        <ele>1334</ele>
        <time>2026-05-25T10:43:40.000Z</time>
      </trkpt>
      <trkpt lat="42.93318" lon="1.31786">
        <ele>1333</ele>
        <time>2026-05-25T10:43:41.000Z</time>
      </trkpt>
      <trkpt lat="42.93318" lon="1.31792">
        <ele>1333</ele>
        <time>2026-05-25T10:43:42.000Z</time>
      </trkpt>
      <trkpt lat="42.93319" lon="1.31798">
        <ele>1333</ele>
        <time>2026-05-25T10:43:43.000Z</time>
      </trkpt>
      <trkpt lat="42.9332" lon="1.31804">
        <ele>1333</ele>
        <time>2026-05-25T10:43:44.000Z</time>
      </trkpt>
      <trkpt lat="42.93322" lon="1.31811">
        <ele>1333</ele>
        <time>2026-05-25T10:43:45.000Z</time>
      </trkpt>
      <trkpt lat="42.93322" lon="1.31817">
        <ele>1334</ele>
        <time>2026-05-25T10:43:46.000Z</time>
      </trkpt>
      <trkpt lat="42.93323" lon="1.31824">
        <ele>1333</ele>
        <time>2026-05-25T10:43:47.000Z</time>
      </trkpt>
      <trkpt lat="42.93324" lon="1.31833">
        <ele>1332</ele>
        <time>2026-05-25T10:43:48.000Z</time>
      </trkpt>
      <trkpt lat="42.93326" lon="1.3184">
        <ele>1332</ele>
        <time>2026-05-25T10:43:49.000Z</time>
      </trkpt>
      <trkpt lat="42.93328" lon="1.31848">
        <ele>1332</ele>
        <time>2026-05-25T10:43:50.000Z</time>
      </trkpt>
      <trkpt lat="42.93329" lon="1.31857">
        <ele>1331</ele>
        <time>2026-05-25T10:43:51.000Z</time>
      </trkpt>
      <trkpt lat="42.93331" lon="1.31866">
        <ele>1331</ele>
        <time>2026-05-25T10:43:52.000Z</time>
      </trkpt>
      <trkpt lat="42.93332" lon="1.31875">
        <ele>1331</ele>
        <time>2026-05-25T10:43:53.000Z</time>
      </trkpt>
      <trkpt lat="42.93332" lon="1.31883">
        <ele>1332</ele>
        <time>2026-05-25T10:43:54.000Z</time>
      </trkpt>
      <trkpt lat="42.93332" lon="1.31892">
        <ele>1331</ele>
        <time>2026-05-25T10:43:55.000Z</time>
      </trkpt>
      <trkpt lat="42.93331" lon="1.31901">
        <ele>1330</ele>
        <time>2026-05-25T10:43:56.000Z</time>
      </trkpt>
      <trkpt lat="42.93331" lon="1.31909">
        <ele>1330</ele>
        <time>2026-05-25T10:43:57.000Z</time>
      </trkpt>
      <trkpt lat="42.93331" lon="1.31917">
        <ele>1328</ele>
        <time>2026-05-25T10:43:58.000Z</time>
      </trkpt>
      <trkpt lat="42.93331" lon="1.31924">
        <ele>1328</ele>
        <time>2026-05-25T10:43:59.000Z</time>
      </trkpt>
      <trkpt lat="42.93331" lon="1.31932">
        <ele>1327</ele>
        <time>2026-05-25T10:44:00.000Z</time>
      </trkpt>
      <trkpt lat="42.93331" lon="1.31941">
        <ele>1327</ele>
        <time>2026-05-25T10:44:01.000Z</time>
      </trkpt>
      <trkpt lat="42.93331" lon="1.31951">
        <ele>1326</ele>
        <time>2026-05-25T10:44:02.000Z</time>
      </trkpt>
      <trkpt lat="42.93332" lon="1.31961">
        <ele>1325</ele>
        <time>2026-05-25T10:44:03.000Z</time>
      </trkpt>
      <trkpt lat="42.93332" lon="1.31969">
        <ele>1324</ele>
        <time>2026-05-25T10:44:04.000Z</time>
      </trkpt>
      <trkpt lat="42.93333" lon="1.31979">
        <ele>1323</ele>
        <time>2026-05-25T10:44:05.000Z</time>
      </trkpt>
      <trkpt lat="42.93333" lon="1.31989">
        <ele>1323</ele>
        <time>2026-05-25T10:44:06.000Z</time>
      </trkpt>
      <trkpt lat="42.93332" lon="1.31998">
        <ele>1323</ele>
        <time>2026-05-25T10:44:07.000Z</time>
      </trkpt>
      <trkpt lat="42.93332" lon="1.32008">
        <ele>1322</ele>
        <time>2026-05-25T10:44:08.000Z</time>
      </trkpt>
      <trkpt lat="42.93331" lon="1.32017">
        <ele>1321</ele>
        <time>2026-05-25T10:44:09.000Z</time>
      </trkpt>
      <trkpt lat="42.9333" lon="1.32025">
        <ele>1321</ele>
        <time>2026-05-25T10:44:10.000Z</time>
      </trkpt>
      <trkpt lat="42.9333" lon="1.32032">
        <ele>1321</ele>
        <time>2026-05-25T10:44:11.000Z</time>
      </trkpt>
      <trkpt lat="42.93328" lon="1.32039">
        <ele>1321</ele>
        <time>2026-05-25T10:44:12.000Z</time>
      </trkpt>
      <trkpt lat="42.93328" lon="1.32047">
        <ele>1321</ele>
        <time>2026-05-25T10:44:13.000Z</time>
      </trkpt>
      <trkpt lat="42.93327" lon="1.32055">
        <ele>1321</ele>
        <time>2026-05-25T10:44:14.000Z</time>
      </trkpt>
      <trkpt lat="42.93326" lon="1.32063">
        <ele>1320</ele>
        <time>2026-05-25T10:44:15.000Z</time>
      </trkpt>
      <trkpt lat="42.93326" lon="1.3207">
        <ele>1320</ele>
        <time>2026-05-25T10:44:16.000Z</time>
      </trkpt>
      <trkpt lat="42.93325" lon="1.32078">
        <ele>1319</ele>
        <time>2026-05-25T10:44:17.000Z</time>
      </trkpt>
      <trkpt lat="42.93323" lon="1.32086">
        <ele>1319</ele>
        <time>2026-05-25T10:44:18.000Z</time>
      </trkpt>
      <trkpt lat="42.93323" lon="1.32095">
        <ele>1318</ele>
        <time>2026-05-25T10:44:19.000Z</time>
      </trkpt>
      <trkpt lat="42.93322" lon="1.32104">
        <ele>1318</ele>
        <time>2026-05-25T10:44:20.000Z</time>
      </trkpt>
      <trkpt lat="42.93321" lon="1.32113">
        <ele>1317</ele>
        <time>2026-05-25T10:44:21.000Z</time>
      </trkpt>
      <trkpt lat="42.9332" lon="1.32122">
        <ele>1316</ele>
        <time>2026-05-25T10:44:22.000Z</time>
      </trkpt>
      <trkpt lat="42.93318" lon="1.32132">
        <ele>1314</ele>
        <time>2026-05-25T10:44:23.000Z</time>
      </trkpt>
      <trkpt lat="42.93317" lon="1.32143">
        <ele>1312</ele>
        <time>2026-05-25T10:44:24.000Z</time>
      </trkpt>
      <trkpt lat="42.93314" lon="1.32154">
        <ele>1311</ele>
        <time>2026-05-25T10:44:25.000Z</time>
      </trkpt>
      <trkpt lat="42.93312" lon="1.32165">
        <ele>1310</ele>
        <time>2026-05-25T10:44:26.000Z</time>
      </trkpt>
      <trkpt lat="42.9331" lon="1.32177">
        <ele>1309</ele>
        <time>2026-05-25T10:44:27.000Z</time>
      </trkpt>
      <trkpt lat="42.93309" lon="1.32191">
        <ele>1307</ele>
        <time>2026-05-25T10:44:28.000Z</time>
      </trkpt>
      <trkpt lat="42.93308" lon="1.32203">
        <ele>1306</ele>
        <time>2026-05-25T10:44:29.000Z</time>
      </trkpt>
      <trkpt lat="42.93307" lon="1.32215">
        <ele>1304</ele>
        <time>2026-05-25T10:44:30.000Z</time>
      </trkpt>
      <trkpt lat="42.93306" lon="1.32227">
        <ele>1303</ele>
        <time>2026-05-25T10:44:31.000Z</time>
      </trkpt>
      <trkpt lat="42.93306" lon="1.32241">
        <ele>1301</ele>
        <time>2026-05-25T10:44:32.000Z</time>
      </trkpt>
      <trkpt lat="42.93305" lon="1.32254">
        <ele>1300</ele>
        <time>2026-05-25T10:44:33.000Z</time>
      </trkpt>
      <trkpt lat="42.93305" lon="1.32268">
        <ele>1298</ele>
        <time>2026-05-25T10:44:34.000Z</time>
      </trkpt>
      <trkpt lat="42.93304" lon="1.32282">
        <ele>1297</ele>
        <time>2026-05-25T10:44:35.000Z</time>
      </trkpt>
      <trkpt lat="42.93302" lon="1.32297">
        <ele>1296</ele>
        <time>2026-05-25T10:44:36.000Z</time>
      </trkpt>
      <trkpt lat="42.93301" lon="1.32311">
        <ele>1295</ele>
        <time>2026-05-25T10:44:37.000Z</time>
      </trkpt>
      <trkpt lat="42.933" lon="1.32325">
        <ele>1295</ele>
        <time>2026-05-25T10:44:38.000Z</time>
      </trkpt>
      <trkpt lat="42.93299" lon="1.32339">
        <ele>1295</ele>
        <time>2026-05-25T10:44:39.000Z</time>
      </trkpt>
      <trkpt lat="42.933" lon="1.32352">
        <ele>1294</ele>
        <time>2026-05-25T10:44:40.000Z</time>
      </trkpt>
      <trkpt lat="42.93299" lon="1.32366">
        <ele>1294</ele>
        <time>2026-05-25T10:44:41.000Z</time>
      </trkpt>
      <trkpt lat="42.93298" lon="1.32378">
        <ele>1294</ele>
        <time>2026-05-25T10:44:42.000Z</time>
      </trkpt>
      <trkpt lat="42.93297" lon="1.32389">
        <ele>1294</ele>
        <time>2026-05-25T10:44:43.000Z</time>
      </trkpt>
      <trkpt lat="42.93297" lon="1.32401">
        <ele>1294</ele>
        <time>2026-05-25T10:44:44.000Z</time>
      </trkpt>
      <trkpt lat="42.93295" lon="1.32412">
        <ele>1295</ele>
        <time>2026-05-25T10:44:45.000Z</time>
      </trkpt>
      <trkpt lat="42.93294" lon="1.32421">
        <ele>1295</ele>
        <time>2026-05-25T10:44:46.000Z</time>
      </trkpt>
      <trkpt lat="42.93293" lon="1.32427">
        <ele>1295</ele>
        <time>2026-05-25T10:44:47.000Z</time>
      </trkpt>
      <trkpt lat="42.93291" lon="1.32431">
        <ele>1296</ele>
        <time>2026-05-25T10:44:48.000Z</time>
      </trkpt>
      <trkpt lat="42.9329" lon="1.32433">
        <ele>1296</ele>
        <time>2026-05-25T10:44:49.000Z</time>
      </trkpt>
      <trkpt lat="42.93289" lon="1.32434">
        <ele>1296</ele>
        <time>2026-05-25T10:44:50.000Z</time>
      </trkpt>
      <trkpt lat="42.93288" lon="1.32436">
        <ele>1296</ele>
        <time>2026-05-25T10:44:51.000Z</time>
      </trkpt>
      <trkpt lat="42.93287" lon="1.32437">
        <ele>1297</ele>
        <time>2026-05-25T10:44:52.000Z</time>
      </trkpt>
      <trkpt lat="42.93288" lon="1.32439">
        <ele>1298</ele>
        <time>2026-05-25T10:44:53.000Z</time>
      </trkpt>
      <trkpt lat="42.93289" lon="1.32441">
        <ele>1298</ele>
        <time>2026-05-25T10:44:54.000Z</time>
      </trkpt>
      <trkpt lat="42.9329" lon="1.32444">
        <ele>1298</ele>
        <time>2026-05-25T10:44:55.000Z</time>
      </trkpt>
      <trkpt lat="42.9329" lon="1.32446">
        <ele>1299</ele>
        <time>2026-05-25T10:44:56.000Z</time>
      </trkpt>
      <trkpt lat="42.93289" lon="1.32449">
        <ele>1299</ele>
        <time>2026-05-25T10:44:57.000Z</time>
      </trkpt>
      <trkpt lat="42.93289" lon="1.3245">
        <ele>1300</ele>
        <time>2026-05-25T10:44:58.000Z</time>
      </trkpt>
      <trkpt lat="42.93288" lon="1.32453">
        <ele>1300</ele>
        <time>2026-05-25T10:44:59.000Z</time>
      </trkpt>
      <trkpt lat="42.93287" lon="1.32455">
        <ele>1300</ele>
        <time>2026-05-25T10:45:00.000Z</time>
      </trkpt>
      <trkpt lat="42.93287" lon="1.32457">
        <ele>1301</ele>
        <time>2026-05-25T10:45:01.000Z</time>
      </trkpt>
      <trkpt lat="42.93286" lon="1.3246">
        <ele>1301</ele>
        <time>2026-05-25T10:45:02.000Z</time>
      </trkpt>
      <trkpt lat="42.93285" lon="1.32462">
        <ele>1301</ele>
        <time>2026-05-25T10:45:03.000Z</time>
      </trkpt>
      <trkpt lat="42.93285" lon="1.32462">
        <ele>1301</ele>
        <time>2026-05-25T10:45:04.000Z</time>
      </trkpt>
      <trkpt lat="42.93286" lon="1.32461">
        <ele>1302</ele>
        <time>2026-05-25T10:45:05.000Z</time>
      </trkpt>
      <trkpt lat="42.93286" lon="1.32461">
        <ele>1302</ele>
        <time>2026-05-25T10:45:06.000Z</time>
      </trkpt>
      <trkpt lat="42.93286" lon="1.32461">
        <ele>1302</ele>
        <time>2026-05-25T10:45:07.000Z</time>
      </trkpt>
      <trkpt lat="42.93286" lon="1.32461">
        <ele>1302</ele>
        <time>2026-05-25T10:45:08.000Z</time>
      </trkpt>
      <trkpt lat="42.93286" lon="1.32463">
        <ele>1302</ele>
        <time>2026-05-25T10:45:09.000Z</time>
      </trkpt>
      <trkpt lat="42.93287" lon="1.32463">
        <ele>1302</ele>
        <time>2026-05-25T10:45:10.000Z</time>
      </trkpt>
      <trkpt lat="42.93287" lon="1.32464">
        <ele>1302</ele>
        <time>2026-05-25T10:45:11.000Z</time>
      </trkpt>
      <trkpt lat="42.93286" lon="1.32465">
        <ele>1302</ele>
        <time>2026-05-25T10:45:12.000Z</time>
      </trkpt>
      <trkpt lat="42.93287" lon="1.32465">
        <ele>1302</ele>
        <time>2026-05-25T10:45:13.000Z</time>
      </trkpt>
      <trkpt lat="42.93287" lon="1.32464">
        <ele>1302</ele>
        <time>2026-05-25T10:45:14.000Z</time>
      </trkpt>
      <trkpt lat="42.93287" lon="1.32465">
        <ele>1302</ele>
        <time>2026-05-25T10:45:15.000Z</time>
      </trkpt>
      <trkpt lat="42.93287" lon="1.32464">
        <ele>1301</ele>
        <time>2026-05-25T10:45:16.000Z</time>
      </trkpt>
      <trkpt lat="42.93288" lon="1.32464">
        <ele>1301</ele>
        <time>2026-05-25T10:45:17.000Z</time>
      </trkpt>
      <trkpt lat="42.93288" lon="1.32465">
        <ele>1302</ele>
        <time>2026-05-25T10:45:18.000Z</time>
      </trkpt>
      <trkpt lat="42.93288" lon="1.32465">
        <ele>1301</ele>
        <time>2026-05-25T10:45:19.000Z</time>
      </trkpt>
      <trkpt lat="42.93288" lon="1.32464">
        <ele>1301</ele>
        <time>2026-05-25T10:45:20.000Z</time>
      </trkpt>
      <trkpt lat="42.93287" lon="1.32465">
        <ele>1301</ele>
        <time>2026-05-25T10:45:21.000Z</time>
      </trkpt>
      <trkpt lat="42.93286" lon="1.32465">
        <ele>1302</ele>
        <time>2026-05-25T10:45:22.000Z</time>
      </trkpt>
      <trkpt lat="42.93286" lon="1.32466">
        <ele>1302</ele>
        <time>2026-05-25T10:45:23.000Z</time>
      </trkpt>
      <trkpt lat="42.93285" lon="1.32466">
        <ele>1301</ele>
        <time>2026-05-25T10:45:24.000Z</time>
      </trkpt>
      <trkpt lat="42.93284" lon="1.32467">
        <ele>1301</ele>
        <time>2026-05-25T10:45:25.000Z</time>
      </trkpt>
      <trkpt lat="42.93284" lon="1.32468">
        <ele>1301</ele>
        <time>2026-05-25T10:45:26.000Z</time>
      </trkpt>
      <trkpt lat="42.93283" lon="1.32471">
        <ele>1300</ele>
        <time>2026-05-25T10:45:27.000Z</time>
      </trkpt>
      <trkpt lat="42.93283" lon="1.32473">
        <ele>1300</ele>
        <time>2026-05-25T10:45:28.000Z</time>
      </trkpt>
      <trkpt lat="42.93283" lon="1.32474">
        <ele>1299</ele>
        <time>2026-05-25T10:45:29.000Z</time>
      </trkpt>
      <trkpt lat="42.93283" lon="1.32473">
        <ele>1299</ele>
        <time>2026-05-25T10:45:30.000Z</time>
      </trkpt>
      <trkpt lat="42.93282" lon="1.32474">
        <ele>1299</ele>
        <time>2026-05-25T10:45:31.000Z</time>
      </trkpt>
      <trkpt lat="42.93282" lon="1.32474">
        <ele>1299</ele>
        <time>2026-05-25T10:45:32.000Z</time>
      </trkpt>
      <trkpt lat="42.93283" lon="1.32473">
        <ele>1299</ele>
        <time>2026-05-25T10:45:33.000Z</time>
      </trkpt>
      <trkpt lat="42.93283" lon="1.32473">
        <ele>1299</ele>
        <time>2026-05-25T10:45:34.000Z</time>
      </trkpt>
      <trkpt lat="42.93282" lon="1.32473">
        <ele>1298</ele>
        <time>2026-05-25T10:45:35.000Z</time>
      </trkpt>
      <trkpt lat="42.93282" lon="1.32475">
        <ele>1298</ele>
        <time>2026-05-25T10:45:36.000Z</time>
      </trkpt>
      <trkpt lat="42.93282" lon="1.32474">
        <ele>1298</ele>
        <time>2026-05-25T10:45:37.000Z</time>
      </trkpt>
      <trkpt lat="42.93282" lon="1.32474">
        <ele>1298</ele>
        <time>2026-05-25T10:45:38.000Z</time>
      </trkpt>
      <trkpt lat="42.93283" lon="1.32474">
        <ele>1298</ele>
        <time>2026-05-25T10:45:39.000Z</time>
      </trkpt>
      <trkpt lat="42.93284" lon="1.32474">
        <ele>1297</ele>
        <time>2026-05-25T10:45:40.000Z</time>
      </trkpt>
      <trkpt lat="42.93284" lon="1.32473">
        <ele>1297</ele>
        <time>2026-05-25T10:45:41.000Z</time>
      </trkpt>
      <trkpt lat="42.93284" lon="1.32473">
        <ele>1297</ele>
        <time>2026-05-25T10:45:42.000Z</time>
      </trkpt>
      <trkpt lat="42.93283" lon="1.32473">
        <ele>1298</ele>
        <time>2026-05-25T10:45:43.000Z</time>
      </trkpt>
      <trkpt lat="42.93283" lon="1.32473">
        <ele>1297</ele>
        <time>2026-05-25T10:45:44.000Z</time>
      </trkpt>
      <trkpt lat="42.93283" lon="1.32473">
        <ele>1297</ele>
        <time>2026-05-25T10:45:45.000Z</time>
      </trkpt>
      <trkpt lat="42.93283" lon="1.32472">
        <ele>1297</ele>
        <time>2026-05-25T10:45:46.000Z</time>
      </trkpt>
      <trkpt lat="42.93283" lon="1.32472">
        <ele>1297</ele>
        <time>2026-05-25T10:45:47.000Z</time>
      </trkpt>
      <trkpt lat="42.93282" lon="1.3247">
        <ele>1297</ele>
        <time>2026-05-25T10:45:48.000Z</time>
      </trkpt>
      <trkpt lat="42.93282" lon="1.3247">
        <ele>1298</ele>
        <time>2026-05-25T10:45:49.000Z</time>
      </trkpt>
      <trkpt lat="42.93282" lon="1.3247">
        <ele>1298</ele>
        <time>2026-05-25T10:45:50.000Z</time>
      </trkpt>
      <trkpt lat="42.93281" lon="1.3247">
        <ele>1298</ele>
        <time>2026-05-25T10:45:51.000Z</time>
      </trkpt>
      <trkpt lat="42.93282" lon="1.3247">
        <ele>1297</ele>
        <time>2026-05-25T10:45:52.000Z</time>
      </trkpt>
      <trkpt lat="42.93283" lon="1.3247">
        <ele>1296</ele>
        <time>2026-05-25T10:45:53.000Z</time>
      </trkpt>
      <trkpt lat="42.93284" lon="1.3247">
        <ele>1296</ele>
        <time>2026-05-25T10:46:07.000Z</time>
      </trkpt>
      <trkpt lat="42.93284" lon="1.3247">
        <ele>1296</ele>
        <time>2026-05-25T10:46:08.000Z</time>
      </trkpt>
      <trkpt lat="42.93284" lon="1.32469">
        <ele>1296</ele>
        <time>2026-05-25T10:46:09.000Z</time>
      </trkpt>
      <trkpt lat="42.93284" lon="1.32469">
        <ele>1296</ele>
        <time>2026-05-25T10:46:10.000Z</time>
      </trkpt>
      <trkpt lat="42.93283" lon="1.3247">
        <ele>1296</ele>
        <time>2026-05-25T10:46:11.000Z</time>
      </trkpt>
      <trkpt lat="42.93283" lon="1.32471">
        <ele>1297</ele>
        <time>2026-05-25T10:46:12.000Z</time>
      </trkpt>
      <trkpt lat="42.93282" lon="1.32471">
        <ele>1296</ele>
        <time>2026-05-25T10:46:13.000Z</time>
      </trkpt>
      <trkpt lat="42.93282" lon="1.3247">
        <ele>1296</ele>
        <time>2026-05-25T10:46:14.000Z</time>
      </trkpt>
      <trkpt lat="42.93282" lon="1.32469">
        <ele>1296</ele>
        <time>2026-05-25T10:47:18.000Z</time>
      </trkpt>
      <trkpt lat="42.93283" lon="1.32469">
        <ele>1296</ele>
        <time>2026-05-25T10:47:19.000Z</time>
      </trkpt>
      <trkpt lat="42.93283" lon="1.32468">
        <ele>1297</ele>
        <time>2026-05-25T10:47:20.000Z</time>
      </trkpt>
      <trkpt lat="42.93284" lon="1.32469">
        <ele>1298</ele>
        <time>2026-05-25T10:47:21.000Z</time>
      </trkpt>
      <trkpt lat="42.93285" lon="1.32469">
        <ele>1297</ele>
        <time>2026-05-25T10:47:22.000Z</time>
      </trkpt>
      <trkpt lat="42.93285" lon="1.3247">
        <ele>1298</ele>
        <time>2026-05-25T10:47:23.000Z</time>
      </trkpt>
      <trkpt lat="42.93285" lon="1.32471">
        <ele>1298</ele>
        <time>2026-05-25T10:47:24.000Z</time>
      </trkpt>
      <trkpt lat="42.93284" lon="1.32471">
        <ele>1299</ele>
        <time>2026-05-25T10:47:25.000Z</time>
      </trkpt>
      <trkpt lat="42.93283" lon="1.32471">
        <ele>1299</ele>
        <time>2026-05-25T10:47:26.000Z</time>
      </trkpt>
      <trkpt lat="42.93283" lon="1.32471">
        <ele>1299</ele>
        <time>2026-05-25T10:47:27.000Z</time>
      </trkpt>
      <trkpt lat="42.93283" lon="1.3247">
        <ele>1299</ele>
        <time>2026-05-25T10:47:28.000Z</time>
      </trkpt>
      <trkpt lat="42.93283" lon="1.3247">
        <ele>1299</ele>
        <time>2026-05-25T10:47:29.000Z</time>
      </trkpt>
      <trkpt lat="42.93284" lon="1.3247">
        <ele>1299</ele>
        <time>2026-05-25T10:47:30.000Z</time>
      </trkpt>
      <trkpt lat="42.93283" lon="1.3247">
        <ele>1298</ele>
        <time>2026-05-25T10:48:27.000Z</time>
      </trkpt>
      <trkpt lat="42.93283" lon="1.3247">
        <ele>1298</ele>
        <time>2026-05-25T10:48:28.000Z</time>
      </trkpt>
      <trkpt lat="42.93284" lon="1.3247">
        <ele>1298</ele>
        <time>2026-05-25T10:48:29.000Z</time>
      </trkpt>
      <trkpt lat="42.93283" lon="1.32466">
        <ele>1300</ele>
        <time>2026-05-25T10:49:15.000Z</time>
      </trkpt>
      <trkpt lat="42.93283" lon="1.32467">
        <ele>1300</ele>
        <time>2026-05-25T10:49:16.000Z</time>
      </trkpt>
      <trkpt lat="42.93282" lon="1.32468">
        <ele>1300</ele>
        <time>2026-05-25T10:49:17.000Z</time>
      </trkpt>
      <trkpt lat="42.93283" lon="1.32469">
        <ele>1299</ele>
        <time>2026-05-25T10:49:33.000Z</time>
      </trkpt>
      <trkpt lat="42.93283" lon="1.32469">
        <ele>1299</ele>
        <time>2026-05-25T10:49:34.000Z</time>
      </trkpt>
      <trkpt lat="42.93283" lon="1.3247">
        <ele>1298</ele>
        <time>2026-05-25T10:49:35.000Z</time>
      </trkpt>
      <trkpt lat="42.93283" lon="1.3247">
        <ele>1297</ele>
        <time>2026-05-25T10:49:36.000Z</time>
      </trkpt>
      <trkpt lat="42.93283" lon="1.32469">
        <ele>1296</ele>
        <time>2026-05-25T10:50:02.000Z</time>
      </trkpt>
      <trkpt lat="42.93283" lon="1.32469">
        <ele>1296</ele>
        <time>2026-05-25T10:50:03.000Z</time>
      </trkpt>
      <trkpt lat="42.93284" lon="1.32469">
        <ele>1296</ele>
        <time>2026-05-25T10:50:04.000Z</time>
      </trkpt>
      <trkpt lat="42.93285" lon="1.32468">
        <ele>1296</ele>
        <time>2026-05-25T10:50:05.000Z</time>
      </trkpt>
      <trkpt lat="42.93286" lon="1.32466">
        <ele>1296</ele>
        <time>2026-05-25T10:50:06.000Z</time>
      </trkpt>
      <trkpt lat="42.93288" lon="1.32464">
        <ele>1296</ele>
        <time>2026-05-25T10:50:07.000Z</time>
      </trkpt>
      <trkpt lat="42.9329" lon="1.32461">
        <ele>1296</ele>
        <time>2026-05-25T10:50:08.000Z</time>
      </trkpt>
      <trkpt lat="42.9329" lon="1.32458">
        <ele>1296</ele>
        <time>2026-05-25T10:50:09.000Z</time>
      </trkpt>
      <trkpt lat="42.93291" lon="1.32454">
        <ele>1297</ele>
        <time>2026-05-25T10:50:10.000Z</time>
      </trkpt>
      <trkpt lat="42.93291" lon="1.32452">
        <ele>1297</ele>
        <time>2026-05-25T10:50:11.000Z</time>
      </trkpt>
      <trkpt lat="42.93291" lon="1.32449">
        <ele>1296</ele>
        <time>2026-05-25T10:50:12.000Z</time>
      </trkpt>
      <trkpt lat="42.9329" lon="1.32446">
        <ele>1297</ele>
        <time>2026-05-25T10:50:13.000Z</time>
      </trkpt>
      <trkpt lat="42.93289" lon="1.32444">
        <ele>1297</ele>
        <time>2026-05-25T10:50:14.000Z</time>
      </trkpt>
      <trkpt lat="42.93288" lon="1.32443">
        <ele>1297</ele>
        <time>2026-05-25T10:50:15.000Z</time>
      </trkpt>
      <trkpt lat="42.93287" lon="1.32442">
        <ele>1298</ele>
        <time>2026-05-25T10:50:16.000Z</time>
      </trkpt>
      <trkpt lat="42.93287" lon="1.32439">
        <ele>1296</ele>
        <time>2026-05-25T10:50:17.000Z</time>
      </trkpt>
      <trkpt lat="42.93288" lon="1.32436">
        <ele>1297</ele>
        <time>2026-05-25T10:50:18.000Z</time>
      </trkpt>
      <trkpt lat="42.93288" lon="1.32434">
        <ele>1297</ele>
        <time>2026-05-25T10:50:19.000Z</time>
      </trkpt>
      <trkpt lat="42.9329" lon="1.32432">
        <ele>1296</ele>
        <time>2026-05-25T10:50:20.000Z</time>
      </trkpt>
      <trkpt lat="42.93291" lon="1.32428">
        <ele>1296</ele>
        <time>2026-05-25T10:50:21.000Z</time>
      </trkpt>
      <trkpt lat="42.93292" lon="1.32423">
        <ele>1296</ele>
        <time>2026-05-25T10:50:22.000Z</time>
      </trkpt>
      <trkpt lat="42.93293" lon="1.32418">
        <ele>1295</ele>
        <time>2026-05-25T10:50:23.000Z</time>
      </trkpt>
      <trkpt lat="42.93294" lon="1.32412">
        <ele>1296</ele>
        <time>2026-05-25T10:50:24.000Z</time>
      </trkpt>
      <trkpt lat="42.93295" lon="1.32406">
        <ele>1296</ele>
        <time>2026-05-25T10:50:25.000Z</time>
      </trkpt>
      <trkpt lat="42.93296" lon="1.32399">
        <ele>1295</ele>
        <time>2026-05-25T10:50:26.000Z</time>
      </trkpt>
      <trkpt lat="42.93297" lon="1.32391">
        <ele>1295</ele>
        <time>2026-05-25T10:50:27.000Z</time>
      </trkpt>
      <trkpt lat="42.93297" lon="1.32383">
        <ele>1295</ele>
        <time>2026-05-25T10:50:28.000Z</time>
      </trkpt>
      <trkpt lat="42.93297" lon="1.32376">
        <ele>1295</ele>
        <time>2026-05-25T10:50:29.000Z</time>
      </trkpt>
      <trkpt lat="42.93298" lon="1.32368">
        <ele>1295</ele>
        <time>2026-05-25T10:50:30.000Z</time>
      </trkpt>
      <trkpt lat="42.93299" lon="1.32361">
        <ele>1295</ele>
        <time>2026-05-25T10:50:31.000Z</time>
      </trkpt>
      <trkpt lat="42.93298" lon="1.32354">
        <ele>1295</ele>
        <time>2026-05-25T10:50:32.000Z</time>
      </trkpt>
      <trkpt lat="42.93298" lon="1.32349">
        <ele>1295</ele>
        <time>2026-05-25T10:50:33.000Z</time>
      </trkpt>
      <trkpt lat="42.93298" lon="1.32343">
        <ele>1295</ele>
        <time>2026-05-25T10:50:34.000Z</time>
      </trkpt>
      <trkpt lat="42.93298" lon="1.32339">
        <ele>1295</ele>
        <time>2026-05-25T10:50:35.000Z</time>
      </trkpt>
      <trkpt lat="42.93298" lon="1.32336">
        <ele>1295</ele>
        <time>2026-05-25T10:50:36.000Z</time>
      </trkpt>
      <trkpt lat="42.93298" lon="1.32332">
        <ele>1295</ele>
        <time>2026-05-25T10:50:37.000Z</time>
      </trkpt>
      <trkpt lat="42.93299" lon="1.32328">
        <ele>1295</ele>
        <time>2026-05-25T10:50:38.000Z</time>
      </trkpt>
      <trkpt lat="42.93299" lon="1.32324">
        <ele>1296</ele>
        <time>2026-05-25T10:50:39.000Z</time>
      </trkpt>
      <trkpt lat="42.93299" lon="1.32319">
        <ele>1296</ele>
        <time>2026-05-25T10:50:40.000Z</time>
      </trkpt>
      <trkpt lat="42.93299" lon="1.32315">
        <ele>1296</ele>
        <time>2026-05-25T10:50:41.000Z</time>
      </trkpt>
      <trkpt lat="42.93299" lon="1.3231">
        <ele>1296</ele>
        <time>2026-05-25T10:50:42.000Z</time>
      </trkpt>
      <trkpt lat="42.93299" lon="1.32304">
        <ele>1296</ele>
        <time>2026-05-25T10:50:43.000Z</time>
      </trkpt>
      <trkpt lat="42.93299" lon="1.32298">
        <ele>1296</ele>
        <time>2026-05-25T10:50:44.000Z</time>
      </trkpt>
      <trkpt lat="42.93299" lon="1.32294">
        <ele>1297</ele>
        <time>2026-05-25T10:50:45.000Z</time>
      </trkpt>
      <trkpt lat="42.933" lon="1.32288">
        <ele>1297</ele>
        <time>2026-05-25T10:50:46.000Z</time>
      </trkpt>
      <trkpt lat="42.93301" lon="1.32283">
        <ele>1297</ele>
        <time>2026-05-25T10:50:47.000Z</time>
      </trkpt>
      <trkpt lat="42.93301" lon="1.32278">
        <ele>1297</ele>
        <time>2026-05-25T10:50:48.000Z</time>
      </trkpt>
      <trkpt lat="42.93301" lon="1.32274">
        <ele>1297</ele>
        <time>2026-05-25T10:50:49.000Z</time>
      </trkpt>
      <trkpt lat="42.93302" lon="1.32269">
        <ele>1297</ele>
        <time>2026-05-25T10:50:50.000Z</time>
      </trkpt>
      <trkpt lat="42.93302" lon="1.32265">
        <ele>1298</ele>
        <time>2026-05-25T10:50:51.000Z</time>
      </trkpt>
      <trkpt lat="42.93303" lon="1.32261">
        <ele>1298</ele>
        <time>2026-05-25T10:50:52.000Z</time>
      </trkpt>
      <trkpt lat="42.93304" lon="1.32257">
        <ele>1298</ele>
        <time>2026-05-25T10:50:53.000Z</time>
      </trkpt>
      <trkpt lat="42.93304" lon="1.32252">
        <ele>1298</ele>
        <time>2026-05-25T10:50:54.000Z</time>
      </trkpt>
      <trkpt lat="42.93304" lon="1.32248">
        <ele>1298</ele>
        <time>2026-05-25T10:50:55.000Z</time>
      </trkpt>
      <trkpt lat="42.93305" lon="1.32243">
        <ele>1298</ele>
        <time>2026-05-25T10:50:56.000Z</time>
      </trkpt>
      <trkpt lat="42.93305" lon="1.32239">
        <ele>1299</ele>
        <time>2026-05-25T10:50:57.000Z</time>
      </trkpt>
      <trkpt lat="42.93306" lon="1.32235">
        <ele>1299</ele>
        <time>2026-05-25T10:50:58.000Z</time>
      </trkpt>
      <trkpt lat="42.93306" lon="1.32231">
        <ele>1299</ele>
        <time>2026-05-25T10:50:59.000Z</time>
      </trkpt>
      <trkpt lat="42.93306" lon="1.32227">
        <ele>1300</ele>
        <time>2026-05-25T10:51:00.000Z</time>
      </trkpt>
      <trkpt lat="42.93307" lon="1.32223">
        <ele>1300</ele>
        <time>2026-05-25T10:51:01.000Z</time>
      </trkpt>
      <trkpt lat="42.93307" lon="1.3222">
        <ele>1300</ele>
        <time>2026-05-25T10:51:02.000Z</time>
      </trkpt>
      <trkpt lat="42.93307" lon="1.32216">
        <ele>1301</ele>
        <time>2026-05-25T10:51:03.000Z</time>
      </trkpt>
      <trkpt lat="42.93308" lon="1.32213">
        <ele>1301</ele>
        <time>2026-05-25T10:51:04.000Z</time>
      </trkpt>
      <trkpt lat="42.93308" lon="1.32209">
        <ele>1302</ele>
        <time>2026-05-25T10:51:05.000Z</time>
      </trkpt>
      <trkpt lat="42.93308" lon="1.32205">
        <ele>1302</ele>
        <time>2026-05-25T10:51:06.000Z</time>
      </trkpt>
      <trkpt lat="42.93309" lon="1.32202">
        <ele>1302</ele>
        <time>2026-05-25T10:51:07.000Z</time>
      </trkpt>
      <trkpt lat="42.93309" lon="1.32199">
        <ele>1303</ele>
        <time>2026-05-25T10:51:08.000Z</time>
      </trkpt>
      <trkpt lat="42.93309" lon="1.32196">
        <ele>1303</ele>
        <time>2026-05-25T10:51:09.000Z</time>
      </trkpt>
      <trkpt lat="42.9331" lon="1.32192">
        <ele>1304</ele>
        <time>2026-05-25T10:51:10.000Z</time>
      </trkpt>
      <trkpt lat="42.93311" lon="1.32189">
        <ele>1304</ele>
        <time>2026-05-25T10:51:11.000Z</time>
      </trkpt>
      <trkpt lat="42.93311" lon="1.32185">
        <ele>1305</ele>
        <time>2026-05-25T10:51:12.000Z</time>
      </trkpt>
      <trkpt lat="42.93312" lon="1.32182">
        <ele>1305</ele>
        <time>2026-05-25T10:51:13.000Z</time>
      </trkpt>
      <trkpt lat="42.93312" lon="1.32178">
        <ele>1305</ele>
        <time>2026-05-25T10:51:14.000Z</time>
      </trkpt>
      <trkpt lat="42.93313" lon="1.32174">
        <ele>1305</ele>
        <time>2026-05-25T10:51:15.000Z</time>
      </trkpt>
      <trkpt lat="42.93314" lon="1.3217">
        <ele>1305</ele>
        <time>2026-05-25T10:51:16.000Z</time>
      </trkpt>
      <trkpt lat="42.93314" lon="1.32167">
        <ele>1305</ele>
        <time>2026-05-25T10:51:17.000Z</time>
      </trkpt>
      <trkpt lat="42.93315" lon="1.32164">
        <ele>1305</ele>
        <time>2026-05-25T10:51:18.000Z</time>
      </trkpt>
      <trkpt lat="42.93315" lon="1.32161">
        <ele>1306</ele>
        <time>2026-05-25T10:51:19.000Z</time>
      </trkpt>
      <trkpt lat="42.93315" lon="1.32158">
        <ele>1306</ele>
        <time>2026-05-25T10:51:20.000Z</time>
      </trkpt>
      <trkpt lat="42.93316" lon="1.32154">
        <ele>1306</ele>
        <time>2026-05-25T10:51:21.000Z</time>
      </trkpt>
      <trkpt lat="42.93316" lon="1.32151">
        <ele>1306</ele>
        <time>2026-05-25T10:51:22.000Z</time>
      </trkpt>
      <trkpt lat="42.93317" lon="1.32147">
        <ele>1307</ele>
        <time>2026-05-25T10:51:23.000Z</time>
      </trkpt>
      <trkpt lat="42.93317" lon="1.32144">
        <ele>1307</ele>
        <time>2026-05-25T10:51:24.000Z</time>
      </trkpt>
      <trkpt lat="42.93318" lon="1.3214">
        <ele>1307</ele>
        <time>2026-05-25T10:51:25.000Z</time>
      </trkpt>
      <trkpt lat="42.93319" lon="1.32137">
        <ele>1308</ele>
        <time>2026-05-25T10:51:26.000Z</time>
      </trkpt>
      <trkpt lat="42.93319" lon="1.32134">
        <ele>1308</ele>
        <time>2026-05-25T10:51:27.000Z</time>
      </trkpt>
      <trkpt lat="42.9332" lon="1.32131">
        <ele>1309</ele>
        <time>2026-05-25T10:51:28.000Z</time>
      </trkpt>
      <trkpt lat="42.93321" lon="1.32127">
        <ele>1309</ele>
        <time>2026-05-25T10:51:29.000Z</time>
      </trkpt>
      <trkpt lat="42.93321" lon="1.32124">
        <ele>1309</ele>
        <time>2026-05-25T10:51:30.000Z</time>
      </trkpt>
      <trkpt lat="42.93322" lon="1.3212">
        <ele>1309</ele>
        <time>2026-05-25T10:51:31.000Z</time>
      </trkpt>
      <trkpt lat="42.93322" lon="1.32117">
        <ele>1309</ele>
        <time>2026-05-25T10:51:32.000Z</time>
      </trkpt>
      <trkpt lat="42.93322" lon="1.32113">
        <ele>1309</ele>
        <time>2026-05-25T10:51:33.000Z</time>
      </trkpt>
      <trkpt lat="42.93323" lon="1.3211">
        <ele>1309</ele>
        <time>2026-05-25T10:51:34.000Z</time>
      </trkpt>
      <trkpt lat="42.93323" lon="1.32107">
        <ele>1309</ele>
        <time>2026-05-25T10:51:35.000Z</time>
      </trkpt>
      <trkpt lat="42.93323" lon="1.32103">
        <ele>1309</ele>
        <time>2026-05-25T10:51:36.000Z</time>
      </trkpt>
      <trkpt lat="42.93324" lon="1.321">
        <ele>1310</ele>
        <time>2026-05-25T10:51:37.000Z</time>
      </trkpt>
      <trkpt lat="42.93324" lon="1.32097">
        <ele>1310</ele>
        <time>2026-05-25T10:51:38.000Z</time>
      </trkpt>
      <trkpt lat="42.93325" lon="1.32094">
        <ele>1310</ele>
        <time>2026-05-25T10:51:39.000Z</time>
      </trkpt>
      <trkpt lat="42.93325" lon="1.3209">
        <ele>1310</ele>
        <time>2026-05-25T10:51:40.000Z</time>
      </trkpt>
      <trkpt lat="42.93325" lon="1.32087">
        <ele>1311</ele>
        <time>2026-05-25T10:51:41.000Z</time>
      </trkpt>
      <trkpt lat="42.93326" lon="1.32083">
        <ele>1311</ele>
        <time>2026-05-25T10:51:42.000Z</time>
      </trkpt>
      <trkpt lat="42.93326" lon="1.32079">
        <ele>1311</ele>
        <time>2026-05-25T10:51:43.000Z</time>
      </trkpt>
      <trkpt lat="42.93327" lon="1.32075">
        <ele>1311</ele>
        <time>2026-05-25T10:51:44.000Z</time>
      </trkpt>
      <trkpt lat="42.93328" lon="1.32071">
        <ele>1311</ele>
        <time>2026-05-25T10:51:45.000Z</time>
      </trkpt>
      <trkpt lat="42.93329" lon="1.32067">
        <ele>1311</ele>
        <time>2026-05-25T10:51:46.000Z</time>
      </trkpt>
      <trkpt lat="42.9333" lon="1.32063">
        <ele>1311</ele>
        <time>2026-05-25T10:51:47.000Z</time>
      </trkpt>
      <trkpt lat="42.9333" lon="1.32058">
        <ele>1312</ele>
        <time>2026-05-25T10:51:48.000Z</time>
      </trkpt>
      <trkpt lat="42.93331" lon="1.32053">
        <ele>1312</ele>
        <time>2026-05-25T10:51:49.000Z</time>
      </trkpt>
      <trkpt lat="42.93332" lon="1.32048">
        <ele>1312</ele>
        <time>2026-05-25T10:51:50.000Z</time>
      </trkpt>
      <trkpt lat="42.93332" lon="1.32042">
        <ele>1312</ele>
        <time>2026-05-25T10:51:51.000Z</time>
      </trkpt>
      <trkpt lat="42.93333" lon="1.32035">
        <ele>1312</ele>
        <time>2026-05-25T10:51:52.000Z</time>
      </trkpt>
      <trkpt lat="42.93334" lon="1.3203">
        <ele>1312</ele>
        <time>2026-05-25T10:51:53.000Z</time>
      </trkpt>
      <trkpt lat="42.93334" lon="1.32024">
        <ele>1313</ele>
        <time>2026-05-25T10:51:54.000Z</time>
      </trkpt>
      <trkpt lat="42.93334" lon="1.32019">
        <ele>1313</ele>
        <time>2026-05-25T10:51:55.000Z</time>
      </trkpt>
      <trkpt lat="42.93334" lon="1.32013">
        <ele>1314</ele>
        <time>2026-05-25T10:51:56.000Z</time>
      </trkpt>
      <trkpt lat="42.93335" lon="1.32008">
        <ele>1314</ele>
        <time>2026-05-25T10:51:57.000Z</time>
      </trkpt>
      <trkpt lat="42.93335" lon="1.32003">
        <ele>1314</ele>
        <time>2026-05-25T10:51:58.000Z</time>
      </trkpt>
      <trkpt lat="42.93334" lon="1.31997">
        <ele>1315</ele>
        <time>2026-05-25T10:51:59.000Z</time>
      </trkpt>
      <trkpt lat="42.93334" lon="1.31992">
        <ele>1315</ele>
        <time>2026-05-25T10:52:00.000Z</time>
      </trkpt>
      <trkpt lat="42.93334" lon="1.31987">
        <ele>1315</ele>
        <time>2026-05-25T10:52:01.000Z</time>
      </trkpt>
      <trkpt lat="42.93334" lon="1.31982">
        <ele>1316</ele>
        <time>2026-05-25T10:52:02.000Z</time>
      </trkpt>
      <trkpt lat="42.93335" lon="1.31978">
        <ele>1316</ele>
        <time>2026-05-25T10:52:03.000Z</time>
      </trkpt>
      <trkpt lat="42.93335" lon="1.31973">
        <ele>1317</ele>
        <time>2026-05-25T10:52:04.000Z</time>
      </trkpt>
      <trkpt lat="42.93335" lon="1.31969">
        <ele>1317</ele>
        <time>2026-05-25T10:52:05.000Z</time>
      </trkpt>
      <trkpt lat="42.93335" lon="1.31964">
        <ele>1317</ele>
        <time>2026-05-25T10:52:06.000Z</time>
      </trkpt>
      <trkpt lat="42.93334" lon="1.3196">
        <ele>1318</ele>
        <time>2026-05-25T10:52:07.000Z</time>
      </trkpt>
      <trkpt lat="42.93334" lon="1.31956">
        <ele>1318</ele>
        <time>2026-05-25T10:52:08.000Z</time>
      </trkpt>
      <trkpt lat="42.93334" lon="1.31952">
        <ele>1318</ele>
        <time>2026-05-25T10:52:09.000Z</time>
      </trkpt>
      <trkpt lat="42.93333" lon="1.31947">
        <ele>1319</ele>
        <time>2026-05-25T10:52:10.000Z</time>
      </trkpt>
      <trkpt lat="42.93333" lon="1.31942">
        <ele>1319</ele>
        <time>2026-05-25T10:52:11.000Z</time>
      </trkpt>
      <trkpt lat="42.93333" lon="1.31937">
        <ele>1319</ele>
        <time>2026-05-25T10:52:12.000Z</time>
      </trkpt>
      <trkpt lat="42.93333" lon="1.31932">
        <ele>1319</ele>
        <time>2026-05-25T10:52:13.000Z</time>
      </trkpt>
      <trkpt lat="42.93333" lon="1.31926">
        <ele>1320</ele>
        <time>2026-05-25T10:52:14.000Z</time>
      </trkpt>
      <trkpt lat="42.93333" lon="1.31921">
        <ele>1320</ele>
        <time>2026-05-25T10:52:15.000Z</time>
      </trkpt>
      <trkpt lat="42.93334" lon="1.31915">
        <ele>1320</ele>
        <time>2026-05-25T10:52:16.000Z</time>
      </trkpt>
      <trkpt lat="42.93334" lon="1.31909">
        <ele>1320</ele>
        <time>2026-05-25T10:52:17.000Z</time>
      </trkpt>
      <trkpt lat="42.93335" lon="1.31902">
        <ele>1320</ele>
        <time>2026-05-25T10:52:18.000Z</time>
      </trkpt>
      <trkpt lat="42.93335" lon="1.31896">
        <ele>1319</ele>
        <time>2026-05-25T10:52:19.000Z</time>
      </trkpt>
      <trkpt lat="42.93334" lon="1.31889">
        <ele>1319</ele>
        <time>2026-05-25T10:52:20.000Z</time>
      </trkpt>
      <trkpt lat="42.93334" lon="1.31883">
        <ele>1320</ele>
        <time>2026-05-25T10:52:21.000Z</time>
      </trkpt>
      <trkpt lat="42.93333" lon="1.31877">
        <ele>1320</ele>
        <time>2026-05-25T10:52:22.000Z</time>
      </trkpt>
      <trkpt lat="42.93333" lon="1.31871">
        <ele>1320</ele>
        <time>2026-05-25T10:52:23.000Z</time>
      </trkpt>
      <trkpt lat="42.93332" lon="1.31866">
        <ele>1320</ele>
        <time>2026-05-25T10:52:24.000Z</time>
      </trkpt>
      <trkpt lat="42.93331" lon="1.31861">
        <ele>1321</ele>
        <time>2026-05-25T10:52:25.000Z</time>
      </trkpt>
      <trkpt lat="42.93331" lon="1.31856">
        <ele>1320</ele>
        <time>2026-05-25T10:52:26.000Z</time>
      </trkpt>
      <trkpt lat="42.9333" lon="1.31851">
        <ele>1320</ele>
        <time>2026-05-25T10:52:27.000Z</time>
      </trkpt>
      <trkpt lat="42.93329" lon="1.31845">
        <ele>1321</ele>
        <time>2026-05-25T10:52:28.000Z</time>
      </trkpt>
      <trkpt lat="42.93328" lon="1.3184">
        <ele>1321</ele>
        <time>2026-05-25T10:52:29.000Z</time>
      </trkpt>
      <trkpt lat="42.93327" lon="1.31836">
        <ele>1321</ele>
        <time>2026-05-25T10:52:30.000Z</time>
      </trkpt>
      <trkpt lat="42.93326" lon="1.31833">
        <ele>1321</ele>
        <time>2026-05-25T10:52:31.000Z</time>
      </trkpt>
      <trkpt lat="42.93325" lon="1.31829">
        <ele>1321</ele>
        <time>2026-05-25T10:52:32.000Z</time>
      </trkpt>
      <trkpt lat="42.93324" lon="1.31825">
        <ele>1321</ele>
        <time>2026-05-25T10:52:33.000Z</time>
      </trkpt>
      <trkpt lat="42.93323" lon="1.31821">
        <ele>1322</ele>
        <time>2026-05-25T10:52:34.000Z</time>
      </trkpt>
      <trkpt lat="42.93322" lon="1.31818">
        <ele>1322</ele>
        <time>2026-05-25T10:52:35.000Z</time>
      </trkpt>
      <trkpt lat="42.93322" lon="1.31814">
        <ele>1323</ele>
        <time>2026-05-25T10:52:36.000Z</time>
      </trkpt>
      <trkpt lat="42.93321" lon="1.31809">
        <ele>1322</ele>
        <time>2026-05-25T10:52:37.000Z</time>
      </trkpt>
      <trkpt lat="42.93321" lon="1.31805">
        <ele>1322</ele>
        <time>2026-05-25T10:52:38.000Z</time>
      </trkpt>
      <trkpt lat="42.9332" lon="1.31801">
        <ele>1322</ele>
        <time>2026-05-25T10:52:39.000Z</time>
      </trkpt>
      <trkpt lat="42.93319" lon="1.31798">
        <ele>1323</ele>
        <time>2026-05-25T10:52:40.000Z</time>
      </trkpt>
      <trkpt lat="42.93318" lon="1.31794">
        <ele>1323</ele>
        <time>2026-05-25T10:52:41.000Z</time>
      </trkpt>
      <trkpt lat="42.93318" lon="1.31789">
        <ele>1323</ele>
        <time>2026-05-25T10:52:42.000Z</time>
      </trkpt>
      <trkpt lat="42.93317" lon="1.31784">
        <ele>1323</ele>
        <time>2026-05-25T10:52:43.000Z</time>
      </trkpt>
      <trkpt lat="42.93318" lon="1.31778">
        <ele>1323</ele>
        <time>2026-05-25T10:52:44.000Z</time>
      </trkpt>
      <trkpt lat="42.93318" lon="1.31772">
        <ele>1323</ele>
        <time>2026-05-25T10:52:45.000Z</time>
      </trkpt>
      <trkpt lat="42.93319" lon="1.31765">
        <ele>1324</ele>
        <time>2026-05-25T10:52:46.000Z</time>
      </trkpt>
      <trkpt lat="42.9332" lon="1.31757">
        <ele>1324</ele>
        <time>2026-05-25T10:52:47.000Z</time>
      </trkpt>
      <trkpt lat="42.9332" lon="1.3175">
        <ele>1324</ele>
        <time>2026-05-25T10:52:48.000Z</time>
      </trkpt>
      <trkpt lat="42.9332" lon="1.31742">
        <ele>1325</ele>
        <time>2026-05-25T10:52:49.000Z</time>
      </trkpt>
      <trkpt lat="42.9332" lon="1.31735">
        <ele>1325</ele>
        <time>2026-05-25T10:52:50.000Z</time>
      </trkpt>
      <trkpt lat="42.93321" lon="1.31727">
        <ele>1324</ele>
        <time>2026-05-25T10:52:51.000Z</time>
      </trkpt>
      <trkpt lat="42.93321" lon="1.31719">
        <ele>1324</ele>
        <time>2026-05-25T10:52:52.000Z</time>
      </trkpt>
      <trkpt lat="42.93321" lon="1.3171">
        <ele>1324</ele>
        <time>2026-05-25T10:52:53.000Z</time>
      </trkpt>
      <trkpt lat="42.93321" lon="1.31701">
        <ele>1323</ele>
        <time>2026-05-25T10:52:54.000Z</time>
      </trkpt>
      <trkpt lat="42.93321" lon="1.31691">
        <ele>1323</ele>
        <time>2026-05-25T10:52:55.000Z</time>
      </trkpt>
      <trkpt lat="42.93321" lon="1.31681">
        <ele>1323</ele>
        <time>2026-05-25T10:52:56.000Z</time>
      </trkpt>
      <trkpt lat="42.93321" lon="1.31671">
        <ele>1322</ele>
        <time>2026-05-25T10:52:57.000Z</time>
      </trkpt>
      <trkpt lat="42.93321" lon="1.31661">
        <ele>1322</ele>
        <time>2026-05-25T10:52:58.000Z</time>
      </trkpt>
      <trkpt lat="42.93321" lon="1.31649">
        <ele>1321</ele>
        <time>2026-05-25T10:52:59.000Z</time>
      </trkpt>
      <trkpt lat="42.93321" lon="1.31639">
        <ele>1320</ele>
        <time>2026-05-25T10:53:00.000Z</time>
      </trkpt>
      <trkpt lat="42.93321" lon="1.31628">
        <ele>1320</ele>
        <time>2026-05-25T10:53:01.000Z</time>
      </trkpt>
      <trkpt lat="42.93321" lon="1.31617">
        <ele>1319</ele>
        <time>2026-05-25T10:53:02.000Z</time>
      </trkpt>
      <trkpt lat="42.93321" lon="1.31606">
        <ele>1318</ele>
        <time>2026-05-25T10:53:03.000Z</time>
      </trkpt>
      <trkpt lat="42.93321" lon="1.31594">
        <ele>1318</ele>
        <time>2026-05-25T10:53:04.000Z</time>
      </trkpt>
      <trkpt lat="42.9332" lon="1.31582">
        <ele>1317</ele>
        <time>2026-05-25T10:53:05.000Z</time>
      </trkpt>
      <trkpt lat="42.9332" lon="1.31568">
        <ele>1317</ele>
        <time>2026-05-25T10:53:06.000Z</time>
      </trkpt>
      <trkpt lat="42.93319" lon="1.31554">
        <ele>1316</ele>
        <time>2026-05-25T10:53:07.000Z</time>
      </trkpt>
      <trkpt lat="42.93317" lon="1.3154">
        <ele>1315</ele>
        <time>2026-05-25T10:53:08.000Z</time>
      </trkpt>
      <trkpt lat="42.93315" lon="1.31526">
        <ele>1314</ele>
        <time>2026-05-25T10:53:09.000Z</time>
      </trkpt>
      <trkpt lat="42.93314" lon="1.31511">
        <ele>1313</ele>
        <time>2026-05-25T10:53:10.000Z</time>
      </trkpt>
      <trkpt lat="42.93313" lon="1.31496">
        <ele>1313</ele>
        <time>2026-05-25T10:53:11.000Z</time>
      </trkpt>
      <trkpt lat="42.93312" lon="1.31482">
        <ele>1312</ele>
        <time>2026-05-25T10:53:12.000Z</time>
      </trkpt>
      <trkpt lat="42.93311" lon="1.31469">
        <ele>1312</ele>
        <time>2026-05-25T10:53:13.000Z</time>
      </trkpt>
      <trkpt lat="42.93311" lon="1.31456">
        <ele>1312</ele>
        <time>2026-05-25T10:53:14.000Z</time>
      </trkpt>
      <trkpt lat="42.9331" lon="1.31444">
        <ele>1312</ele>
        <time>2026-05-25T10:53:15.000Z</time>
      </trkpt>
      <trkpt lat="42.9331" lon="1.31431">
        <ele>1312</ele>
        <time>2026-05-25T10:53:16.000Z</time>
      </trkpt>
      <trkpt lat="42.93309" lon="1.3142">
        <ele>1311</ele>
        <time>2026-05-25T10:53:17.000Z</time>
      </trkpt>
      <trkpt lat="42.93309" lon="1.3141">
        <ele>1311</ele>
        <time>2026-05-25T10:53:18.000Z</time>
      </trkpt>
      <trkpt lat="42.93309" lon="1.31401">
        <ele>1311</ele>
        <time>2026-05-25T10:53:19.000Z</time>
      </trkpt>
      <trkpt lat="42.93309" lon="1.31392">
        <ele>1311</ele>
        <time>2026-05-25T10:53:20.000Z</time>
      </trkpt>
      <trkpt lat="42.93308" lon="1.31382">
        <ele>1311</ele>
        <time>2026-05-25T10:53:21.000Z</time>
      </trkpt>
      <trkpt lat="42.93308" lon="1.31375">
        <ele>1311</ele>
        <time>2026-05-25T10:53:22.000Z</time>
      </trkpt>
      <trkpt lat="42.93308" lon="1.3137">
        <ele>1311</ele>
        <time>2026-05-25T10:53:23.000Z</time>
      </trkpt>
      <trkpt lat="42.93308" lon="1.31365">
        <ele>1310</ele>
        <time>2026-05-25T10:53:24.000Z</time>
      </trkpt>
      <trkpt lat="42.93308" lon="1.3136">
        <ele>1310</ele>
        <time>2026-05-25T10:53:25.000Z</time>
      </trkpt>
      <trkpt lat="42.93309" lon="1.31356">
        <ele>1310</ele>
        <time>2026-05-25T10:53:26.000Z</time>
      </trkpt>
      <trkpt lat="42.93309" lon="1.31353">
        <ele>1311</ele>
        <time>2026-05-25T10:53:27.000Z</time>
      </trkpt>
      <trkpt lat="42.9331" lon="1.31349">
        <ele>1312</ele>
        <time>2026-05-25T10:53:28.000Z</time>
      </trkpt>
      <trkpt lat="42.9331" lon="1.31344">
        <ele>1313</ele>
        <time>2026-05-25T10:53:29.000Z</time>
      </trkpt>
      <trkpt lat="42.93311" lon="1.31338">
        <ele>1313</ele>
        <time>2026-05-25T10:53:30.000Z</time>
      </trkpt>
      <trkpt lat="42.93311" lon="1.31332">
        <ele>1313</ele>
        <time>2026-05-25T10:53:31.000Z</time>
      </trkpt>
      <trkpt lat="42.93312" lon="1.31325">
        <ele>1312</ele>
        <time>2026-05-25T10:53:32.000Z</time>
      </trkpt>
      <trkpt lat="42.93312" lon="1.31318">
        <ele>1312</ele>
        <time>2026-05-25T10:53:33.000Z</time>
      </trkpt>
      <trkpt lat="42.93313" lon="1.31312">
        <ele>1312</ele>
        <time>2026-05-25T10:53:34.000Z</time>
      </trkpt>
      <trkpt lat="42.93312" lon="1.31304">
        <ele>1312</ele>
        <time>2026-05-25T10:53:35.000Z</time>
      </trkpt>
      <trkpt lat="42.93313" lon="1.31297">
        <ele>1312</ele>
        <time>2026-05-25T10:53:36.000Z</time>
      </trkpt>
      <trkpt lat="42.93314" lon="1.3129">
        <ele>1312</ele>
        <time>2026-05-25T10:53:37.000Z</time>
      </trkpt>
      <trkpt lat="42.93315" lon="1.31283">
        <ele>1311</ele>
        <time>2026-05-25T10:53:38.000Z</time>
      </trkpt>
      <trkpt lat="42.93316" lon="1.31276">
        <ele>1310</ele>
        <time>2026-05-25T10:53:39.000Z</time>
      </trkpt>
      <trkpt lat="42.93317" lon="1.31268">
        <ele>1309</ele>
        <time>2026-05-25T10:53:40.000Z</time>
      </trkpt>
      <trkpt lat="42.93318" lon="1.3126">
        <ele>1309</ele>
        <time>2026-05-25T10:53:41.000Z</time>
      </trkpt>
      <trkpt lat="42.9332" lon="1.31251">
        <ele>1309</ele>
        <time>2026-05-25T10:53:42.000Z</time>
      </trkpt>
      <trkpt lat="42.93322" lon="1.31241">
        <ele>1310</ele>
        <time>2026-05-25T10:53:43.000Z</time>
      </trkpt>
      <trkpt lat="42.93324" lon="1.31232">
        <ele>1309</ele>
        <time>2026-05-25T10:53:44.000Z</time>
      </trkpt>
      <trkpt lat="42.93324" lon="1.31222">
        <ele>1309</ele>
        <time>2026-05-25T10:53:45.000Z</time>
      </trkpt>
      <trkpt lat="42.93325" lon="1.31213">
        <ele>1310</ele>
        <time>2026-05-25T10:53:46.000Z</time>
      </trkpt>
      <trkpt lat="42.93325" lon="1.31204">
        <ele>1310</ele>
        <time>2026-05-25T10:53:47.000Z</time>
      </trkpt>
      <trkpt lat="42.93325" lon="1.31197">
        <ele>1310</ele>
        <time>2026-05-25T10:53:48.000Z</time>
      </trkpt>
      <trkpt lat="42.93325" lon="1.31191">
        <ele>1310</ele>
        <time>2026-05-25T10:53:49.000Z</time>
      </trkpt>
      <trkpt lat="42.93325" lon="1.31187">
        <ele>1310</ele>
        <time>2026-05-25T10:53:50.000Z</time>
      </trkpt>
      <trkpt lat="42.93326" lon="1.31183">
        <ele>1310</ele>
        <time>2026-05-25T10:53:51.000Z</time>
      </trkpt>
      <trkpt lat="42.93326" lon="1.31179">
        <ele>1311</ele>
        <time>2026-05-25T10:53:52.000Z</time>
      </trkpt>
      <trkpt lat="42.93326" lon="1.31174">
        <ele>1310</ele>
        <time>2026-05-25T10:53:53.000Z</time>
      </trkpt>
      <trkpt lat="42.93326" lon="1.3117">
        <ele>1310</ele>
        <time>2026-05-25T10:53:54.000Z</time>
      </trkpt>
      <trkpt lat="42.93326" lon="1.31167">
        <ele>1311</ele>
        <time>2026-05-25T10:53:55.000Z</time>
      </trkpt>
      <trkpt lat="42.93326" lon="1.31163">
        <ele>1311</ele>
        <time>2026-05-25T10:53:56.000Z</time>
      </trkpt>
      <trkpt lat="42.93326" lon="1.31159">
        <ele>1311</ele>
        <time>2026-05-25T10:53:57.000Z</time>
      </trkpt>
      <trkpt lat="42.93326" lon="1.31156">
        <ele>1311</ele>
        <time>2026-05-25T10:53:58.000Z</time>
      </trkpt>
      <trkpt lat="42.93325" lon="1.31153">
        <ele>1311</ele>
        <time>2026-05-25T10:53:59.000Z</time>
      </trkpt>
      <trkpt lat="42.93324" lon="1.31149">
        <ele>1311</ele>
        <time>2026-05-25T10:54:00.000Z</time>
      </trkpt>
      <trkpt lat="42.93324" lon="1.31146">
        <ele>1312</ele>
        <time>2026-05-25T10:54:01.000Z</time>
      </trkpt>
      <trkpt lat="42.93323" lon="1.31143">
        <ele>1312</ele>
        <time>2026-05-25T10:54:02.000Z</time>
      </trkpt>
      <trkpt lat="42.93323" lon="1.3114">
        <ele>1312</ele>
        <time>2026-05-25T10:54:03.000Z</time>
      </trkpt>
      <trkpt lat="42.93323" lon="1.31137">
        <ele>1312</ele>
        <time>2026-05-25T10:54:04.000Z</time>
      </trkpt>
      <trkpt lat="42.93323" lon="1.31134">
        <ele>1312</ele>
        <time>2026-05-25T10:54:05.000Z</time>
      </trkpt>
      <trkpt lat="42.93323" lon="1.31131">
        <ele>1313</ele>
        <time>2026-05-25T10:54:06.000Z</time>
      </trkpt>
      <trkpt lat="42.93323" lon="1.31128">
        <ele>1313</ele>
        <time>2026-05-25T10:54:07.000Z</time>
      </trkpt>
      <trkpt lat="42.93323" lon="1.31126">
        <ele>1314</ele>
        <time>2026-05-25T10:54:08.000Z</time>
      </trkpt>
      <trkpt lat="42.93323" lon="1.31125">
        <ele>1314</ele>
        <time>2026-05-25T10:54:09.000Z</time>
      </trkpt>
      <trkpt lat="42.93323" lon="1.31123">
        <ele>1314</ele>
        <time>2026-05-25T10:54:10.000Z</time>
      </trkpt>
      <trkpt lat="42.93323" lon="1.31121">
        <ele>1314</ele>
        <time>2026-05-25T10:54:11.000Z</time>
      </trkpt>
      <trkpt lat="42.93323" lon="1.31119">
        <ele>1314</ele>
        <time>2026-05-25T10:54:12.000Z</time>
      </trkpt>
      <trkpt lat="42.93323" lon="1.31118">
        <ele>1314</ele>
        <time>2026-05-25T10:54:13.000Z</time>
      </trkpt>
      <trkpt lat="42.93322" lon="1.31116">
        <ele>1314</ele>
        <time>2026-05-25T10:54:14.000Z</time>
      </trkpt>
      <trkpt lat="42.93322" lon="1.31113">
        <ele>1315</ele>
        <time>2026-05-25T10:54:15.000Z</time>
      </trkpt>
      <trkpt lat="42.93322" lon="1.31111">
        <ele>1315</ele>
        <time>2026-05-25T10:54:16.000Z</time>
      </trkpt>
      <trkpt lat="42.93322" lon="1.3111">
        <ele>1315</ele>
        <time>2026-05-25T10:54:17.000Z</time>
      </trkpt>
      <trkpt lat="42.93321" lon="1.31108">
        <ele>1315</ele>
        <time>2026-05-25T10:54:18.000Z</time>
      </trkpt>
      <trkpt lat="42.93321" lon="1.31106">
        <ele>1315</ele>
        <time>2026-05-25T10:54:19.000Z</time>
      </trkpt>
      <trkpt lat="42.93321" lon="1.31104">
        <ele>1316</ele>
        <time>2026-05-25T10:54:20.000Z</time>
      </trkpt>
      <trkpt lat="42.93321" lon="1.31101">
        <ele>1316</ele>
        <time>2026-05-25T10:54:21.000Z</time>
      </trkpt>
      <trkpt lat="42.93321" lon="1.311">
        <ele>1317</ele>
        <time>2026-05-25T10:54:22.000Z</time>
      </trkpt>
      <trkpt lat="42.9332" lon="1.31098">
        <ele>1318</ele>
        <time>2026-05-25T10:54:23.000Z</time>
      </trkpt>
      <trkpt lat="42.9332" lon="1.31096">
        <ele>1319</ele>
        <time>2026-05-25T10:54:24.000Z</time>
      </trkpt>
      <trkpt lat="42.9332" lon="1.31094">
        <ele>1319</ele>
        <time>2026-05-25T10:54:25.000Z</time>
      </trkpt>
      <trkpt lat="42.9332" lon="1.31092">
        <ele>1320</ele>
        <time>2026-05-25T10:54:26.000Z</time>
      </trkpt>
      <trkpt lat="42.9332" lon="1.31089">
        <ele>1320</ele>
        <time>2026-05-25T10:54:27.000Z</time>
      </trkpt>
      <trkpt lat="42.9332" lon="1.31087">
        <ele>1321</ele>
        <time>2026-05-25T10:54:28.000Z</time>
      </trkpt>
      <trkpt lat="42.93319" lon="1.31085">
        <ele>1321</ele>
        <time>2026-05-25T10:54:29.000Z</time>
      </trkpt>
      <trkpt lat="42.93319" lon="1.31083">
        <ele>1322</ele>
        <time>2026-05-25T10:54:30.000Z</time>
      </trkpt>
      <trkpt lat="42.93319" lon="1.3108">
        <ele>1322</ele>
        <time>2026-05-25T10:54:31.000Z</time>
      </trkpt>
      <trkpt lat="42.93319" lon="1.31077">
        <ele>1322</ele>
        <time>2026-05-25T10:54:32.000Z</time>
      </trkpt>
      <trkpt lat="42.9332" lon="1.31074">
        <ele>1323</ele>
        <time>2026-05-25T10:54:33.000Z</time>
      </trkpt>
      <trkpt lat="42.9332" lon="1.31071">
        <ele>1324</ele>
        <time>2026-05-25T10:54:34.000Z</time>
      </trkpt>
      <trkpt lat="42.9332" lon="1.31067">
        <ele>1325</ele>
        <time>2026-05-25T10:54:35.000Z</time>
      </trkpt>
      <trkpt lat="42.9332" lon="1.31065">
        <ele>1326</ele>
        <time>2026-05-25T10:54:36.000Z</time>
      </trkpt>
      <trkpt lat="42.9332" lon="1.31063">
        <ele>1327</ele>
        <time>2026-05-25T10:54:37.000Z</time>
      </trkpt>
      <trkpt lat="42.9332" lon="1.3106">
        <ele>1328</ele>
        <time>2026-05-25T10:54:38.000Z</time>
      </trkpt>
      <trkpt lat="42.93321" lon="1.31058">
        <ele>1328</ele>
        <time>2026-05-25T10:54:39.000Z</time>
      </trkpt>
      <trkpt lat="42.93321" lon="1.31056">
        <ele>1328</ele>
        <time>2026-05-25T10:54:40.000Z</time>
      </trkpt>
      <trkpt lat="42.93321" lon="1.31053">
        <ele>1329</ele>
        <time>2026-05-25T10:54:41.000Z</time>
      </trkpt>
      <trkpt lat="42.93321" lon="1.3105">
        <ele>1329</ele>
        <time>2026-05-25T10:54:42.000Z</time>
      </trkpt>
      <trkpt lat="42.93321" lon="1.31047">
        <ele>1329</ele>
        <time>2026-05-25T10:54:43.000Z</time>
      </trkpt>
      <trkpt lat="42.93321" lon="1.31045">
        <ele>1329</ele>
        <time>2026-05-25T10:54:44.000Z</time>
      </trkpt>
      <trkpt lat="42.9332" lon="1.31042">
        <ele>1330</ele>
        <time>2026-05-25T10:54:45.000Z</time>
      </trkpt>
      <trkpt lat="42.9332" lon="1.3104">
        <ele>1330</ele>
        <time>2026-05-25T10:54:46.000Z</time>
      </trkpt>
      <trkpt lat="42.9332" lon="1.31038">
        <ele>1331</ele>
        <time>2026-05-25T10:54:47.000Z</time>
      </trkpt>
      <trkpt lat="42.93319" lon="1.31036">
        <ele>1331</ele>
        <time>2026-05-25T10:54:48.000Z</time>
      </trkpt>
      <trkpt lat="42.93319" lon="1.31035">
        <ele>1332</ele>
        <time>2026-05-25T10:54:49.000Z</time>
      </trkpt>
      <trkpt lat="42.93319" lon="1.31033">
        <ele>1332</ele>
        <time>2026-05-25T10:54:50.000Z</time>
      </trkpt>
      <trkpt lat="42.93319" lon="1.31032">
        <ele>1332</ele>
        <time>2026-05-25T10:54:51.000Z</time>
      </trkpt>
      <trkpt lat="42.93318" lon="1.31031">
        <ele>1332</ele>
        <time>2026-05-25T10:54:52.000Z</time>
      </trkpt>
      <trkpt lat="42.93317" lon="1.31029">
        <ele>1333</ele>
        <time>2026-05-25T10:54:53.000Z</time>
      </trkpt>
      <trkpt lat="42.93317" lon="1.31027">
        <ele>1333</ele>
        <time>2026-05-25T10:54:54.000Z</time>
      </trkpt>
      <trkpt lat="42.93316" lon="1.31025">
        <ele>1333</ele>
        <time>2026-05-25T10:54:55.000Z</time>
      </trkpt>
      <trkpt lat="42.93315" lon="1.31023">
        <ele>1333</ele>
        <time>2026-05-25T10:54:56.000Z</time>
      </trkpt>
      <trkpt lat="42.93315" lon="1.31021">
        <ele>1333</ele>
        <time>2026-05-25T10:54:57.000Z</time>
      </trkpt>
      <trkpt lat="42.93315" lon="1.31019">
        <ele>1333</ele>
        <time>2026-05-25T10:54:58.000Z</time>
      </trkpt>
      <trkpt lat="42.93314" lon="1.31018">
        <ele>1334</ele>
        <time>2026-05-25T10:54:59.000Z</time>
      </trkpt>
      <trkpt lat="42.93314" lon="1.31016">
        <ele>1334</ele>
        <time>2026-05-25T10:55:00.000Z</time>
      </trkpt>
      <trkpt lat="42.93313" lon="1.31013">
        <ele>1334</ele>
        <time>2026-05-25T10:55:01.000Z</time>
      </trkpt>
      <trkpt lat="42.93313" lon="1.31012">
        <ele>1334</ele>
        <time>2026-05-25T10:55:02.000Z</time>
      </trkpt>
      <trkpt lat="42.93313" lon="1.3101">
        <ele>1334</ele>
        <time>2026-05-25T10:55:03.000Z</time>
      </trkpt>
      <trkpt lat="42.93313" lon="1.31008">
        <ele>1335</ele>
        <time>2026-05-25T10:55:04.000Z</time>
      </trkpt>
      <trkpt lat="42.93312" lon="1.31006">
        <ele>1335</ele>
        <time>2026-05-25T10:55:05.000Z</time>
      </trkpt>
      <trkpt lat="42.93312" lon="1.31004">
        <ele>1335</ele>
        <time>2026-05-25T10:55:06.000Z</time>
      </trkpt>
      <trkpt lat="42.93312" lon="1.31002">
        <ele>1335</ele>
        <time>2026-05-25T10:55:07.000Z</time>
      </trkpt>
      <trkpt lat="42.93311" lon="1.31001">
        <ele>1336</ele>
        <time>2026-05-25T10:55:08.000Z</time>
      </trkpt>
      <trkpt lat="42.93311" lon="1.30999">
        <ele>1337</ele>
        <time>2026-05-25T10:55:09.000Z</time>
      </trkpt>
      <trkpt lat="42.93311" lon="1.30997">
        <ele>1337</ele>
        <time>2026-05-25T10:55:10.000Z</time>
      </trkpt>
      <trkpt lat="42.9331" lon="1.30995">
        <ele>1337</ele>
        <time>2026-05-25T10:55:11.000Z</time>
      </trkpt>
      <trkpt lat="42.9331" lon="1.30993">
        <ele>1338</ele>
        <time>2026-05-25T10:55:12.000Z</time>
      </trkpt>
      <trkpt lat="42.93309" lon="1.30991">
        <ele>1338</ele>
        <time>2026-05-25T10:55:13.000Z</time>
      </trkpt>
      <trkpt lat="42.93308" lon="1.3099">
        <ele>1339</ele>
        <time>2026-05-25T10:55:14.000Z</time>
      </trkpt>
      <trkpt lat="42.93308" lon="1.30988">
        <ele>1339</ele>
        <time>2026-05-25T10:55:15.000Z</time>
      </trkpt>
      <trkpt lat="42.93307" lon="1.30987">
        <ele>1340</ele>
        <time>2026-05-25T10:55:16.000Z</time>
      </trkpt>
      <trkpt lat="42.93306" lon="1.30985">
        <ele>1340</ele>
        <time>2026-05-25T10:55:17.000Z</time>
      </trkpt>
      <trkpt lat="42.93306" lon="1.30984">
        <ele>1342</ele>
        <time>2026-05-25T10:55:18.000Z</time>
      </trkpt>
      <trkpt lat="42.93305" lon="1.30983">
        <ele>1342</ele>
        <time>2026-05-25T10:55:19.000Z</time>
      </trkpt>
      <trkpt lat="42.93305" lon="1.30981">
        <ele>1343</ele>
        <time>2026-05-25T10:55:20.000Z</time>
      </trkpt>
      <trkpt lat="42.93304" lon="1.3098">
        <ele>1343</ele>
        <time>2026-05-25T10:55:21.000Z</time>
      </trkpt>
      <trkpt lat="42.93303" lon="1.30979">
        <ele>1344</ele>
        <time>2026-05-25T10:55:22.000Z</time>
      </trkpt>
      <trkpt lat="42.93303" lon="1.30976">
        <ele>1345</ele>
        <time>2026-05-25T10:55:23.000Z</time>
      </trkpt>
      <trkpt lat="42.93302" lon="1.30975">
        <ele>1346</ele>
        <time>2026-05-25T10:55:24.000Z</time>
      </trkpt>
      <trkpt lat="42.93301" lon="1.30974">
        <ele>1347</ele>
        <time>2026-05-25T10:55:25.000Z</time>
      </trkpt>
      <trkpt lat="42.933" lon="1.30972">
        <ele>1348</ele>
        <time>2026-05-25T10:55:26.000Z</time>
      </trkpt>
      <trkpt lat="42.933" lon="1.30971">
        <ele>1349</ele>
        <time>2026-05-25T10:55:27.000Z</time>
      </trkpt>
      <trkpt lat="42.93299" lon="1.3097">
        <ele>1350</ele>
        <time>2026-05-25T10:55:28.000Z</time>
      </trkpt>
      <trkpt lat="42.93297" lon="1.30968">
        <ele>1350</ele>
        <time>2026-05-25T10:55:29.000Z</time>
      </trkpt>
      <trkpt lat="42.93296" lon="1.30968">
        <ele>1350</ele>
        <time>2026-05-25T10:55:30.000Z</time>
      </trkpt>
      <trkpt lat="42.93295" lon="1.30966">
        <ele>1350</ele>
        <time>2026-05-25T10:55:31.000Z</time>
      </trkpt>
      <trkpt lat="42.93294" lon="1.30964">
        <ele>1349</ele>
        <time>2026-05-25T10:55:32.000Z</time>
      </trkpt>
      <trkpt lat="42.93293" lon="1.30962">
        <ele>1349</ele>
        <time>2026-05-25T10:55:33.000Z</time>
      </trkpt>
      <trkpt lat="42.93292" lon="1.30961">
        <ele>1349</ele>
        <time>2026-05-25T10:55:34.000Z</time>
      </trkpt>
      <trkpt lat="42.9329" lon="1.30958">
        <ele>1349</ele>
        <time>2026-05-25T10:55:35.000Z</time>
      </trkpt>
      <trkpt lat="42.93289" lon="1.30955">
        <ele>1349</ele>
        <time>2026-05-25T10:55:36.000Z</time>
      </trkpt>
      <trkpt lat="42.93288" lon="1.30953">
        <ele>1349</ele>
        <time>2026-05-25T10:55:37.000Z</time>
      </trkpt>
      <trkpt lat="42.93288" lon="1.3095">
        <ele>1349</ele>
        <time>2026-05-25T10:55:38.000Z</time>
      </trkpt>
      <trkpt lat="42.93287" lon="1.30947">
        <ele>1349</ele>
        <time>2026-05-25T10:55:39.000Z</time>
      </trkpt>
      <trkpt lat="42.93287" lon="1.30944">
        <ele>1349</ele>
        <time>2026-05-25T10:55:40.000Z</time>
      </trkpt>
      <trkpt lat="42.93286" lon="1.3094">
        <ele>1350</ele>
        <time>2026-05-25T10:55:41.000Z</time>
      </trkpt>
      <trkpt lat="42.93286" lon="1.30938">
        <ele>1351</ele>
        <time>2026-05-25T10:55:42.000Z</time>
      </trkpt>
      <trkpt lat="42.93285" lon="1.30935">
        <ele>1352</ele>
        <time>2026-05-25T10:55:43.000Z</time>
      </trkpt>
      <trkpt lat="42.93284" lon="1.30933">
        <ele>1353</ele>
        <time>2026-05-25T10:55:44.000Z</time>
      </trkpt>
      <trkpt lat="42.93284" lon="1.30931">
        <ele>1354</ele>
        <time>2026-05-25T10:55:45.000Z</time>
      </trkpt>
      <trkpt lat="42.93283" lon="1.30929">
        <ele>1354</ele>
        <time>2026-05-25T10:55:46.000Z</time>
      </trkpt>
      <trkpt lat="42.93282" lon="1.30928">
        <ele>1354</ele>
        <time>2026-05-25T10:55:47.000Z</time>
      </trkpt>
      <trkpt lat="42.93281" lon="1.30927">
        <ele>1354</ele>
        <time>2026-05-25T10:55:48.000Z</time>
      </trkpt>
      <trkpt lat="42.9328" lon="1.30925">
        <ele>1355</ele>
        <time>2026-05-25T10:55:49.000Z</time>
      </trkpt>
      <trkpt lat="42.93279" lon="1.30924">
        <ele>1355</ele>
        <time>2026-05-25T10:55:50.000Z</time>
      </trkpt>
      <trkpt lat="42.93278" lon="1.30922">
        <ele>1356</ele>
        <time>2026-05-25T10:55:51.000Z</time>
      </trkpt>
      <trkpt lat="42.93276" lon="1.30921">
        <ele>1356</ele>
        <time>2026-05-25T10:55:52.000Z</time>
      </trkpt>
      <trkpt lat="42.93275" lon="1.3092">
        <ele>1357</ele>
        <time>2026-05-25T10:55:53.000Z</time>
      </trkpt>
      <trkpt lat="42.93273" lon="1.30919">
        <ele>1358</ele>
        <time>2026-05-25T10:55:54.000Z</time>
      </trkpt>
      <trkpt lat="42.93272" lon="1.30917">
        <ele>1358</ele>
        <time>2026-05-25T10:55:55.000Z</time>
      </trkpt>
      <trkpt lat="42.9327" lon="1.30915">
        <ele>1358</ele>
        <time>2026-05-25T10:55:56.000Z</time>
      </trkpt>
      <trkpt lat="42.93268" lon="1.30912">
        <ele>1359</ele>
        <time>2026-05-25T10:55:57.000Z</time>
      </trkpt>
      <trkpt lat="42.93266" lon="1.3091">
        <ele>1360</ele>
        <time>2026-05-25T10:55:58.000Z</time>
      </trkpt>
      <trkpt lat="42.93266" lon="1.30907">
        <ele>1359</ele>
        <time>2026-05-25T10:55:59.000Z</time>
      </trkpt>
      <trkpt lat="42.93264" lon="1.30904">
        <ele>1359</ele>
        <time>2026-05-25T10:56:00.000Z</time>
      </trkpt>
      <trkpt lat="42.93264" lon="1.30903">
        <ele>1359</ele>
        <time>2026-05-25T10:56:01.000Z</time>
      </trkpt>
      <trkpt lat="42.93262" lon="1.30901">
        <ele>1359</ele>
        <time>2026-05-25T10:56:02.000Z</time>
      </trkpt>
      <trkpt lat="42.93261" lon="1.30898">
        <ele>1360</ele>
        <time>2026-05-25T10:56:03.000Z</time>
      </trkpt>
      <trkpt lat="42.93259" lon="1.30897">
        <ele>1360</ele>
        <time>2026-05-25T10:56:04.000Z</time>
      </trkpt>
      <trkpt lat="42.93256" lon="1.30895">
        <ele>1359</ele>
        <time>2026-05-25T10:56:05.000Z</time>
      </trkpt>
      <trkpt lat="42.93254" lon="1.30892">
        <ele>1359</ele>
        <time>2026-05-25T10:56:06.000Z</time>
      </trkpt>
      <trkpt lat="42.93252" lon="1.3089">
        <ele>1359</ele>
        <time>2026-05-25T10:56:07.000Z</time>
      </trkpt>
      <trkpt lat="42.93249" lon="1.30887">
        <ele>1359</ele>
        <time>2026-05-25T10:56:08.000Z</time>
      </trkpt>
      <trkpt lat="42.93248" lon="1.30883">
        <ele>1359</ele>
        <time>2026-05-25T10:56:09.000Z</time>
      </trkpt>
      <trkpt lat="42.93246" lon="1.30879">
        <ele>1360</ele>
        <time>2026-05-25T10:56:10.000Z</time>
      </trkpt>
      <trkpt lat="42.93244" lon="1.30875">
        <ele>1359</ele>
        <time>2026-05-25T10:56:11.000Z</time>
      </trkpt>
      <trkpt lat="42.93243" lon="1.30871">
        <ele>1359</ele>
        <time>2026-05-25T10:56:12.000Z</time>
      </trkpt>
      <trkpt lat="42.93242" lon="1.30868">
        <ele>1359</ele>
        <time>2026-05-25T10:56:13.000Z</time>
      </trkpt>
      <trkpt lat="42.93241" lon="1.30864">
        <ele>1359</ele>
        <time>2026-05-25T10:56:14.000Z</time>
      </trkpt>
      <trkpt lat="42.93239" lon="1.30861">
        <ele>1359</ele>
        <time>2026-05-25T10:56:15.000Z</time>
      </trkpt>
      <trkpt lat="42.93237" lon="1.30856">
        <ele>1359</ele>
        <time>2026-05-25T10:56:16.000Z</time>
      </trkpt>
      <trkpt lat="42.93234" lon="1.30853">
        <ele>1358</ele>
        <time>2026-05-25T10:56:17.000Z</time>
      </trkpt>
      <trkpt lat="42.93232" lon="1.30849">
        <ele>1358</ele>
        <time>2026-05-25T10:56:18.000Z</time>
      </trkpt>
      <trkpt lat="42.9323" lon="1.30845">
        <ele>1358</ele>
        <time>2026-05-25T10:56:19.000Z</time>
      </trkpt>
      <trkpt lat="42.93228" lon="1.30841">
        <ele>1359</ele>
        <time>2026-05-25T10:56:20.000Z</time>
      </trkpt>
      <trkpt lat="42.93226" lon="1.30837">
        <ele>1359</ele>
        <time>2026-05-25T10:56:21.000Z</time>
      </trkpt>
      <trkpt lat="42.93225" lon="1.30833">
        <ele>1359</ele>
        <time>2026-05-25T10:56:22.000Z</time>
      </trkpt>
      <trkpt lat="42.93222" lon="1.3083">
        <ele>1359</ele>
        <time>2026-05-25T10:56:23.000Z</time>
      </trkpt>
      <trkpt lat="42.9322" lon="1.30828">
        <ele>1359</ele>
        <time>2026-05-25T10:56:24.000Z</time>
      </trkpt>
      <trkpt lat="42.93217" lon="1.30825">
        <ele>1359</ele>
        <time>2026-05-25T10:56:25.000Z</time>
      </trkpt>
      <trkpt lat="42.93215" lon="1.30822">
        <ele>1359</ele>
        <time>2026-05-25T10:56:26.000Z</time>
      </trkpt>
      <trkpt lat="42.93212" lon="1.30819">
        <ele>1359</ele>
        <time>2026-05-25T10:56:27.000Z</time>
      </trkpt>
      <trkpt lat="42.93209" lon="1.30815">
        <ele>1359</ele>
        <time>2026-05-25T10:56:28.000Z</time>
      </trkpt>
      <trkpt lat="42.93207" lon="1.30812">
        <ele>1360</ele>
        <time>2026-05-25T10:56:29.000Z</time>
      </trkpt>
      <trkpt lat="42.93206" lon="1.30808">
        <ele>1360</ele>
        <time>2026-05-25T10:56:30.000Z</time>
      </trkpt>
      <trkpt lat="42.93204" lon="1.30804">
        <ele>1360</ele>
        <time>2026-05-25T10:56:31.000Z</time>
      </trkpt>
      <trkpt lat="42.93202" lon="1.308">
        <ele>1359</ele>
        <time>2026-05-25T10:56:32.000Z</time>
      </trkpt>
      <trkpt lat="42.932" lon="1.30795">
        <ele>1359</ele>
        <time>2026-05-25T10:56:33.000Z</time>
      </trkpt>
      <trkpt lat="42.93198" lon="1.30791">
        <ele>1359</ele>
        <time>2026-05-25T10:56:34.000Z</time>
      </trkpt>
      <trkpt lat="42.93195" lon="1.30787">
        <ele>1359</ele>
        <time>2026-05-25T10:56:35.000Z</time>
      </trkpt>
      <trkpt lat="42.93194" lon="1.30782">
        <ele>1358</ele>
        <time>2026-05-25T10:56:36.000Z</time>
      </trkpt>
      <trkpt lat="42.93193" lon="1.30775">
        <ele>1358</ele>
        <time>2026-05-25T10:56:37.000Z</time>
      </trkpt>
      <trkpt lat="42.93191" lon="1.30767">
        <ele>1358</ele>
        <time>2026-05-25T10:56:38.000Z</time>
      </trkpt>
      <trkpt lat="42.93189" lon="1.30759">
        <ele>1358</ele>
        <time>2026-05-25T10:56:39.000Z</time>
      </trkpt>
      <trkpt lat="42.93187" lon="1.30753">
        <ele>1356</ele>
        <time>2026-05-25T10:56:40.000Z</time>
      </trkpt>
      <trkpt lat="42.93186" lon="1.30749">
        <ele>1357</ele>
        <time>2026-05-25T10:56:41.000Z</time>
      </trkpt>
      <trkpt lat="42.93185" lon="1.30746">
        <ele>1357</ele>
        <time>2026-05-25T10:56:42.000Z</time>
      </trkpt>
      <trkpt lat="42.93184" lon="1.30742">
        <ele>1358</ele>
        <time>2026-05-25T10:56:43.000Z</time>
      </trkpt>
      <trkpt lat="42.93183" lon="1.30738">
        <ele>1358</ele>
        <time>2026-05-25T10:56:44.000Z</time>
      </trkpt>
      <trkpt lat="42.93182" lon="1.30734">
        <ele>1358</ele>
        <time>2026-05-25T10:56:45.000Z</time>
      </trkpt>
      <trkpt lat="42.93181" lon="1.3073">
        <ele>1358</ele>
        <time>2026-05-25T10:56:46.000Z</time>
      </trkpt>
      <trkpt lat="42.9318" lon="1.30726">
        <ele>1358</ele>
        <time>2026-05-25T10:56:47.000Z</time>
      </trkpt>
      <trkpt lat="42.93178" lon="1.30722">
        <ele>1358</ele>
        <time>2026-05-25T10:56:48.000Z</time>
      </trkpt>
      <trkpt lat="42.93177" lon="1.30719">
        <ele>1358</ele>
        <time>2026-05-25T10:56:49.000Z</time>
      </trkpt>
      <trkpt lat="42.93176" lon="1.30716">
        <ele>1358</ele>
        <time>2026-05-25T10:56:50.000Z</time>
      </trkpt>
      <trkpt lat="42.93175" lon="1.30713">
        <ele>1358</ele>
        <time>2026-05-25T10:56:51.000Z</time>
      </trkpt>
      <trkpt lat="42.93173" lon="1.3071">
        <ele>1358</ele>
        <time>2026-05-25T10:56:52.000Z</time>
      </trkpt>
      <trkpt lat="42.93172" lon="1.30707">
        <ele>1358</ele>
        <time>2026-05-25T10:56:53.000Z</time>
      </trkpt>
      <trkpt lat="42.93171" lon="1.30705">
        <ele>1358</ele>
        <time>2026-05-25T10:56:54.000Z</time>
      </trkpt>
      <trkpt lat="42.9317" lon="1.30703">
        <ele>1359</ele>
        <time>2026-05-25T10:56:55.000Z</time>
      </trkpt>
      <trkpt lat="42.93169" lon="1.30701">
        <ele>1359</ele>
        <time>2026-05-25T10:56:56.000Z</time>
      </trkpt>
      <trkpt lat="42.93168" lon="1.30699">
        <ele>1358</ele>
        <time>2026-05-25T10:56:57.000Z</time>
      </trkpt>
      <trkpt lat="42.93167" lon="1.30697">
        <ele>1359</ele>
        <time>2026-05-25T10:56:58.000Z</time>
      </trkpt>
      <trkpt lat="42.93165" lon="1.30696">
        <ele>1359</ele>
        <time>2026-05-25T10:56:59.000Z</time>
      </trkpt>
      <trkpt lat="42.93165" lon="1.30695">
        <ele>1359</ele>
        <time>2026-05-25T10:57:00.000Z</time>
      </trkpt>
      <trkpt lat="42.93164" lon="1.30693">
        <ele>1359</ele>
        <time>2026-05-25T10:57:01.000Z</time>
      </trkpt>
      <trkpt lat="42.93163" lon="1.30692">
        <ele>1359</ele>
        <time>2026-05-25T10:57:02.000Z</time>
      </trkpt>
      <trkpt lat="42.93162" lon="1.30691">
        <ele>1359</ele>
        <time>2026-05-25T10:57:03.000Z</time>
      </trkpt>
      <trkpt lat="42.93161" lon="1.30689">
        <ele>1359</ele>
        <time>2026-05-25T10:57:04.000Z</time>
      </trkpt>
      <trkpt lat="42.9316" lon="1.30688">
        <ele>1359</ele>
        <time>2026-05-25T10:57:05.000Z</time>
      </trkpt>
      <trkpt lat="42.93159" lon="1.30687">
        <ele>1360</ele>
        <time>2026-05-25T10:57:06.000Z</time>
      </trkpt>
      <trkpt lat="42.93159" lon="1.30685">
        <ele>1361</ele>
        <time>2026-05-25T10:57:07.000Z</time>
      </trkpt>
      <trkpt lat="42.93157" lon="1.30684">
        <ele>1361</ele>
        <time>2026-05-25T10:57:08.000Z</time>
      </trkpt>
      <trkpt lat="42.93156" lon="1.30682">
        <ele>1361</ele>
        <time>2026-05-25T10:57:09.000Z</time>
      </trkpt>
      <trkpt lat="42.93155" lon="1.30681">
        <ele>1361</ele>
        <time>2026-05-25T10:57:10.000Z</time>
      </trkpt>
      <trkpt lat="42.93154" lon="1.30679">
        <ele>1362</ele>
        <time>2026-05-25T10:57:11.000Z</time>
      </trkpt>
      <trkpt lat="42.93153" lon="1.30678">
        <ele>1362</ele>
        <time>2026-05-25T10:57:12.000Z</time>
      </trkpt>
      <trkpt lat="42.93152" lon="1.30677">
        <ele>1362</ele>
        <time>2026-05-25T10:57:13.000Z</time>
      </trkpt>
      <trkpt lat="42.93151" lon="1.30675">
        <ele>1363</ele>
        <time>2026-05-25T10:57:14.000Z</time>
      </trkpt>
      <trkpt lat="42.93151" lon="1.30673">
        <ele>1364</ele>
        <time>2026-05-25T10:57:15.000Z</time>
      </trkpt>
      <trkpt lat="42.9315" lon="1.30671">
        <ele>1364</ele>
        <time>2026-05-25T10:57:16.000Z</time>
      </trkpt>
      <trkpt lat="42.93149" lon="1.3067">
        <ele>1364</ele>
        <time>2026-05-25T10:57:17.000Z</time>
      </trkpt>
      <trkpt lat="42.93148" lon="1.30668">
        <ele>1364</ele>
        <time>2026-05-25T10:57:18.000Z</time>
      </trkpt>
      <trkpt lat="42.93147" lon="1.30667">
        <ele>1364</ele>
        <time>2026-05-25T10:57:19.000Z</time>
      </trkpt>
      <trkpt lat="42.93146" lon="1.30665">
        <ele>1365</ele>
        <time>2026-05-25T10:57:20.000Z</time>
      </trkpt>
      <trkpt lat="42.93145" lon="1.30664">
        <ele>1365</ele>
        <time>2026-05-25T10:57:21.000Z</time>
      </trkpt>
      <trkpt lat="42.93144" lon="1.30663">
        <ele>1366</ele>
        <time>2026-05-25T10:57:22.000Z</time>
      </trkpt>
      <trkpt lat="42.93144" lon="1.30661">
        <ele>1366</ele>
        <time>2026-05-25T10:57:23.000Z</time>
      </trkpt>
      <trkpt lat="42.93143" lon="1.3066">
        <ele>1366</ele>
        <time>2026-05-25T10:57:24.000Z</time>
      </trkpt>
      <trkpt lat="42.93142" lon="1.30659">
        <ele>1367</ele>
        <time>2026-05-25T10:57:25.000Z</time>
      </trkpt>
      <trkpt lat="42.93141" lon="1.30657">
        <ele>1367</ele>
        <time>2026-05-25T10:57:26.000Z</time>
      </trkpt>
      <trkpt lat="42.9314" lon="1.30655">
        <ele>1367</ele>
        <time>2026-05-25T10:57:27.000Z</time>
      </trkpt>
      <trkpt lat="42.93139" lon="1.30653">
        <ele>1367</ele>
        <time>2026-05-25T10:57:28.000Z</time>
      </trkpt>
      <trkpt lat="42.93138" lon="1.3065">
        <ele>1367</ele>
        <time>2026-05-25T10:57:29.000Z</time>
      </trkpt>
      <trkpt lat="42.93137" lon="1.30648">
        <ele>1367</ele>
        <time>2026-05-25T10:57:30.000Z</time>
      </trkpt>
      <trkpt lat="42.93137" lon="1.30646">
        <ele>1367</ele>
        <time>2026-05-25T10:57:31.000Z</time>
      </trkpt>
      <trkpt lat="42.93136" lon="1.30645">
        <ele>1367</ele>
        <time>2026-05-25T10:57:32.000Z</time>
      </trkpt>
      <trkpt lat="42.93135" lon="1.30644">
        <ele>1367</ele>
        <time>2026-05-25T10:57:33.000Z</time>
      </trkpt>
      <trkpt lat="42.93134" lon="1.30642">
        <ele>1367</ele>
        <time>2026-05-25T10:57:34.000Z</time>
      </trkpt>
      <trkpt lat="42.93132" lon="1.3064">
        <ele>1368</ele>
        <time>2026-05-25T10:57:35.000Z</time>
      </trkpt>
      <trkpt lat="42.93132" lon="1.30638">
        <ele>1369</ele>
        <time>2026-05-25T10:57:36.000Z</time>
      </trkpt>
      <trkpt lat="42.93131" lon="1.30637">
        <ele>1369</ele>
        <time>2026-05-25T10:57:37.000Z</time>
      </trkpt>
      <trkpt lat="42.93129" lon="1.30636">
        <ele>1369</ele>
        <time>2026-05-25T10:57:38.000Z</time>
      </trkpt>
      <trkpt lat="42.93129" lon="1.30636">
        <ele>1369</ele>
        <time>2026-05-25T10:57:39.000Z</time>
      </trkpt>
      <trkpt lat="42.93129" lon="1.30634">
        <ele>1370</ele>
        <time>2026-05-25T10:57:40.000Z</time>
      </trkpt>
      <trkpt lat="42.93128" lon="1.30632">
        <ele>1370</ele>
        <time>2026-05-25T10:57:41.000Z</time>
      </trkpt>
      <trkpt lat="42.93127" lon="1.3063">
        <ele>1371</ele>
        <time>2026-05-25T10:57:42.000Z</time>
      </trkpt>
      <trkpt lat="42.93126" lon="1.30629">
        <ele>1371</ele>
        <time>2026-05-25T10:57:43.000Z</time>
      </trkpt>
      <trkpt lat="42.93125" lon="1.30627">
        <ele>1372</ele>
        <time>2026-05-25T10:57:44.000Z</time>
      </trkpt>
      <trkpt lat="42.93123" lon="1.30626">
        <ele>1372</ele>
        <time>2026-05-25T10:57:45.000Z</time>
      </trkpt>
      <trkpt lat="42.93123" lon="1.30624">
        <ele>1372</ele>
        <time>2026-05-25T10:57:46.000Z</time>
      </trkpt>
      <trkpt lat="42.93122" lon="1.30622">
        <ele>1373</ele>
        <time>2026-05-25T10:57:47.000Z</time>
      </trkpt>
      <trkpt lat="42.9312" lon="1.3062">
        <ele>1373</ele>
        <time>2026-05-25T10:57:48.000Z</time>
      </trkpt>
      <trkpt lat="42.93119" lon="1.30618">
        <ele>1374</ele>
        <time>2026-05-25T10:57:49.000Z</time>
      </trkpt>
      <trkpt lat="42.93119" lon="1.30616">
        <ele>1375</ele>
        <time>2026-05-25T10:57:50.000Z</time>
      </trkpt>
      <trkpt lat="42.93118" lon="1.30615">
        <ele>1375</ele>
        <time>2026-05-25T10:57:51.000Z</time>
      </trkpt>
      <trkpt lat="42.93117" lon="1.30614">
        <ele>1375</ele>
        <time>2026-05-25T10:57:52.000Z</time>
      </trkpt>
      <trkpt lat="42.93116" lon="1.30611">
        <ele>1376</ele>
        <time>2026-05-25T10:57:53.000Z</time>
      </trkpt>
      <trkpt lat="42.93116" lon="1.30608">
        <ele>1377</ele>
        <time>2026-05-25T10:57:54.000Z</time>
      </trkpt>
      <trkpt lat="42.93116" lon="1.30606">
        <ele>1378</ele>
        <time>2026-05-25T10:57:55.000Z</time>
      </trkpt>
      <trkpt lat="42.93116" lon="1.30603">
        <ele>1378</ele>
        <time>2026-05-25T10:57:56.000Z</time>
      </trkpt>
      <trkpt lat="42.93116" lon="1.30602">
        <ele>1379</ele>
        <time>2026-05-25T10:57:57.000Z</time>
      </trkpt>
      <trkpt lat="42.93115" lon="1.306">
        <ele>1380</ele>
        <time>2026-05-25T10:57:58.000Z</time>
      </trkpt>
      <trkpt lat="42.93114" lon="1.30599">
        <ele>1381</ele>
        <time>2026-05-25T10:57:59.000Z</time>
      </trkpt>
      <trkpt lat="42.93114" lon="1.30596">
        <ele>1381</ele>
        <time>2026-05-25T10:58:00.000Z</time>
      </trkpt>
      <trkpt lat="42.93113" lon="1.30595">
        <ele>1381</ele>
        <time>2026-05-25T10:58:01.000Z</time>
      </trkpt>
      <trkpt lat="42.93113" lon="1.30593">
        <ele>1382</ele>
        <time>2026-05-25T10:58:02.000Z</time>
      </trkpt>
      <trkpt lat="42.93112" lon="1.30591">
        <ele>1381</ele>
        <time>2026-05-25T10:58:03.000Z</time>
      </trkpt>
      <trkpt lat="42.93112" lon="1.30589">
        <ele>1380</ele>
        <time>2026-05-25T10:58:04.000Z</time>
      </trkpt>
      <trkpt lat="42.93112" lon="1.30586">
        <ele>1380</ele>
        <time>2026-05-25T10:58:05.000Z</time>
      </trkpt>
      <trkpt lat="42.93112" lon="1.30583">
        <ele>1379</ele>
        <time>2026-05-25T10:58:06.000Z</time>
      </trkpt>
      <trkpt lat="42.93112" lon="1.30581">
        <ele>1379</ele>
        <time>2026-05-25T10:58:07.000Z</time>
      </trkpt>
      <trkpt lat="42.93112" lon="1.30578">
        <ele>1380</ele>
        <time>2026-05-25T10:58:08.000Z</time>
      </trkpt>
      <trkpt lat="42.93113" lon="1.30575">
        <ele>1380</ele>
        <time>2026-05-25T10:58:09.000Z</time>
      </trkpt>
      <trkpt lat="42.93113" lon="1.30571">
        <ele>1381</ele>
        <time>2026-05-25T10:58:10.000Z</time>
      </trkpt>
      <trkpt lat="42.93113" lon="1.30568">
        <ele>1381</ele>
        <time>2026-05-25T10:58:11.000Z</time>
      </trkpt>
      <trkpt lat="42.93113" lon="1.30565">
        <ele>1382</ele>
        <time>2026-05-25T10:58:12.000Z</time>
      </trkpt>
      <trkpt lat="42.93114" lon="1.30561">
        <ele>1383</ele>
        <time>2026-05-25T10:58:13.000Z</time>
      </trkpt>
      <trkpt lat="42.93114" lon="1.30557">
        <ele>1383</ele>
        <time>2026-05-25T10:58:14.000Z</time>
      </trkpt>
      <trkpt lat="42.93115" lon="1.30552">
        <ele>1382</ele>
        <time>2026-05-25T10:58:15.000Z</time>
      </trkpt>
      <trkpt lat="42.93115" lon="1.30548">
        <ele>1382</ele>
        <time>2026-05-25T10:58:16.000Z</time>
      </trkpt>
      <trkpt lat="42.93116" lon="1.30544">
        <ele>1381</ele>
        <time>2026-05-25T10:58:17.000Z</time>
      </trkpt>
      <trkpt lat="42.93116" lon="1.30539">
        <ele>1380</ele>
        <time>2026-05-25T10:58:18.000Z</time>
      </trkpt>
      <trkpt lat="42.93117" lon="1.30535">
        <ele>1380</ele>
        <time>2026-05-25T10:58:19.000Z</time>
      </trkpt>
      <trkpt lat="42.93118" lon="1.3053">
        <ele>1380</ele>
        <time>2026-05-25T10:58:20.000Z</time>
      </trkpt>
      <trkpt lat="42.93119" lon="1.30525">
        <ele>1380</ele>
        <time>2026-05-25T10:58:21.000Z</time>
      </trkpt>
      <trkpt lat="42.93119" lon="1.3052">
        <ele>1380</ele>
        <time>2026-05-25T10:58:22.000Z</time>
      </trkpt>
      <trkpt lat="42.9312" lon="1.30516">
        <ele>1380</ele>
        <time>2026-05-25T10:58:23.000Z</time>
      </trkpt>
      <trkpt lat="42.93121" lon="1.30511">
        <ele>1379</ele>
        <time>2026-05-25T10:58:24.000Z</time>
      </trkpt>
      <trkpt lat="42.93122" lon="1.30507">
        <ele>1379</ele>
        <time>2026-05-25T10:58:25.000Z</time>
      </trkpt>
      <trkpt lat="42.93123" lon="1.30503">
        <ele>1379</ele>
        <time>2026-05-25T10:58:26.000Z</time>
      </trkpt>
      <trkpt lat="42.93124" lon="1.30499">
        <ele>1379</ele>
        <time>2026-05-25T10:58:27.000Z</time>
      </trkpt>
      <trkpt lat="42.93126" lon="1.30494">
        <ele>1379</ele>
        <time>2026-05-25T10:58:28.000Z</time>
      </trkpt>
      <trkpt lat="42.93128" lon="1.30487">
        <ele>1378</ele>
        <time>2026-05-25T10:58:29.000Z</time>
      </trkpt>
      <trkpt lat="42.93131" lon="1.30479">
        <ele>1376</ele>
        <time>2026-05-25T10:58:30.000Z</time>
      </trkpt>
      <trkpt lat="42.93134" lon="1.3047">
        <ele>1375</ele>
        <time>2026-05-25T10:58:31.000Z</time>
      </trkpt>
      <trkpt lat="42.93137" lon="1.30463">
        <ele>1374</ele>
        <time>2026-05-25T10:58:32.000Z</time>
      </trkpt>
      <trkpt lat="42.93139" lon="1.30455">
        <ele>1374</ele>
        <time>2026-05-25T10:58:33.000Z</time>
      </trkpt>
      <trkpt lat="42.9314" lon="1.30449">
        <ele>1373</ele>
        <time>2026-05-25T10:58:34.000Z</time>
      </trkpt>
      <trkpt lat="42.93142" lon="1.30443">
        <ele>1373</ele>
        <time>2026-05-25T10:58:35.000Z</time>
      </trkpt>
      <trkpt lat="42.93143" lon="1.30437">
        <ele>1373</ele>
        <time>2026-05-25T10:58:36.000Z</time>
      </trkpt>
      <trkpt lat="42.93145" lon="1.30431">
        <ele>1373</ele>
        <time>2026-05-25T10:58:37.000Z</time>
      </trkpt>
      <trkpt lat="42.93148" lon="1.30426">
        <ele>1373</ele>
        <time>2026-05-25T10:58:38.000Z</time>
      </trkpt>
      <trkpt lat="42.93151" lon="1.3042">
        <ele>1372</ele>
        <time>2026-05-25T10:58:39.000Z</time>
      </trkpt>
      <trkpt lat="42.93153" lon="1.30415">
        <ele>1372</ele>
        <time>2026-05-25T10:58:40.000Z</time>
      </trkpt>
      <trkpt lat="42.93156" lon="1.30409">
        <ele>1372</ele>
        <time>2026-05-25T10:58:41.000Z</time>
      </trkpt>
      <trkpt lat="42.93158" lon="1.30403">
        <ele>1371</ele>
        <time>2026-05-25T10:58:42.000Z</time>
      </trkpt>
      <trkpt lat="42.9316" lon="1.30397">
        <ele>1371</ele>
        <time>2026-05-25T10:58:43.000Z</time>
      </trkpt>
      <trkpt lat="42.93162" lon="1.3039">
        <ele>1371</ele>
        <time>2026-05-25T10:58:44.000Z</time>
      </trkpt>
      <trkpt lat="42.93163" lon="1.30383">
        <ele>1371</ele>
        <time>2026-05-25T10:58:45.000Z</time>
      </trkpt>
      <trkpt lat="42.93165" lon="1.30375">
        <ele>1371</ele>
        <time>2026-05-25T10:58:46.000Z</time>
      </trkpt>
      <trkpt lat="42.93169" lon="1.30366">
        <ele>1370</ele>
        <time>2026-05-25T10:58:47.000Z</time>
      </trkpt>
      <trkpt lat="42.93172" lon="1.30358">
        <ele>1370</ele>
        <time>2026-05-25T10:58:48.000Z</time>
      </trkpt>
      <trkpt lat="42.93174" lon="1.30351">
        <ele>1370</ele>
        <time>2026-05-25T10:58:49.000Z</time>
      </trkpt>
      <trkpt lat="42.93175" lon="1.30344">
        <ele>1369</ele>
        <time>2026-05-25T10:58:50.000Z</time>
      </trkpt>
      <trkpt lat="42.93177" lon="1.30337">
        <ele>1368</ele>
        <time>2026-05-25T10:58:51.000Z</time>
      </trkpt>
      <trkpt lat="42.93178" lon="1.3033">
        <ele>1368</ele>
        <time>2026-05-25T10:58:52.000Z</time>
      </trkpt>
      <trkpt lat="42.9318" lon="1.30326">
        <ele>1368</ele>
        <time>2026-05-25T10:58:53.000Z</time>
      </trkpt>
      <trkpt lat="42.93181" lon="1.30321">
        <ele>1368</ele>
        <time>2026-05-25T10:58:54.000Z</time>
      </trkpt>
      <trkpt lat="42.93182" lon="1.30318">
        <ele>1368</ele>
        <time>2026-05-25T10:58:55.000Z</time>
      </trkpt>
      <trkpt lat="42.93184" lon="1.30314">
        <ele>1368</ele>
        <time>2026-05-25T10:58:56.000Z</time>
      </trkpt>
      <trkpt lat="42.93185" lon="1.3031">
        <ele>1368</ele>
        <time>2026-05-25T10:58:57.000Z</time>
      </trkpt>
      <trkpt lat="42.93187" lon="1.30307">
        <ele>1368</ele>
        <time>2026-05-25T10:58:58.000Z</time>
      </trkpt>
      <trkpt lat="42.93187" lon="1.30303">
        <ele>1368</ele>
        <time>2026-05-25T10:58:59.000Z</time>
      </trkpt>
      <trkpt lat="42.93188" lon="1.30301">
        <ele>1368</ele>
        <time>2026-05-25T10:59:00.000Z</time>
      </trkpt>
      <trkpt lat="42.93188" lon="1.30298">
        <ele>1368</ele>
        <time>2026-05-25T10:59:01.000Z</time>
      </trkpt>
      <trkpt lat="42.93189" lon="1.30295">
        <ele>1369</ele>
        <time>2026-05-25T10:59:02.000Z</time>
      </trkpt>
      <trkpt lat="42.93191" lon="1.30292">
        <ele>1368</ele>
        <time>2026-05-25T10:59:03.000Z</time>
      </trkpt>
      <trkpt lat="42.93192" lon="1.30288">
        <ele>1368</ele>
        <time>2026-05-25T10:59:04.000Z</time>
      </trkpt>
      <trkpt lat="42.93193" lon="1.30285">
        <ele>1368</ele>
        <time>2026-05-25T10:59:05.000Z</time>
      </trkpt>
      <trkpt lat="42.93194" lon="1.30281">
        <ele>1368</ele>
        <time>2026-05-25T10:59:06.000Z</time>
      </trkpt>
      <trkpt lat="42.93195" lon="1.30276">
        <ele>1369</ele>
        <time>2026-05-25T10:59:07.000Z</time>
      </trkpt>
      <trkpt lat="42.93196" lon="1.30271">
        <ele>1369</ele>
        <time>2026-05-25T10:59:08.000Z</time>
      </trkpt>
      <trkpt lat="42.93196" lon="1.30267">
        <ele>1369</ele>
        <time>2026-05-25T10:59:09.000Z</time>
      </trkpt>
      <trkpt lat="42.93196" lon="1.30262">
        <ele>1369</ele>
        <time>2026-05-25T10:59:10.000Z</time>
      </trkpt>
      <trkpt lat="42.93197" lon="1.30258">
        <ele>1369</ele>
        <time>2026-05-25T10:59:11.000Z</time>
      </trkpt>
      <trkpt lat="42.93198" lon="1.30254">
        <ele>1369</ele>
        <time>2026-05-25T10:59:12.000Z</time>
      </trkpt>
      <trkpt lat="42.93199" lon="1.3025">
        <ele>1370</ele>
        <time>2026-05-25T10:59:13.000Z</time>
      </trkpt>
      <trkpt lat="42.93199" lon="1.30246">
        <ele>1370</ele>
        <time>2026-05-25T10:59:14.000Z</time>
      </trkpt>
      <trkpt lat="42.932" lon="1.30242">
        <ele>1370</ele>
        <time>2026-05-25T10:59:15.000Z</time>
      </trkpt>
      <trkpt lat="42.93201" lon="1.30238">
        <ele>1370</ele>
        <time>2026-05-25T10:59:16.000Z</time>
      </trkpt>
      <trkpt lat="42.93202" lon="1.30235">
        <ele>1370</ele>
        <time>2026-05-25T10:59:17.000Z</time>
      </trkpt>
      <trkpt lat="42.93203" lon="1.30232">
        <ele>1370</ele>
        <time>2026-05-25T10:59:18.000Z</time>
      </trkpt>
      <trkpt lat="42.93204" lon="1.30229">
        <ele>1370</ele>
        <time>2026-05-25T10:59:19.000Z</time>
      </trkpt>
      <trkpt lat="42.93204" lon="1.30225">
        <ele>1370</ele>
        <time>2026-05-25T10:59:20.000Z</time>
      </trkpt>
      <trkpt lat="42.93204" lon="1.30222">
        <ele>1371</ele>
        <time>2026-05-25T10:59:21.000Z</time>
      </trkpt>
      <trkpt lat="42.93205" lon="1.30219">
        <ele>1371</ele>
        <time>2026-05-25T10:59:22.000Z</time>
      </trkpt>
      <trkpt lat="42.93206" lon="1.30215">
        <ele>1371</ele>
        <time>2026-05-25T10:59:23.000Z</time>
      </trkpt>
      <trkpt lat="42.93208" lon="1.30212">
        <ele>1370</ele>
        <time>2026-05-25T10:59:24.000Z</time>
      </trkpt>
      <trkpt lat="42.93209" lon="1.30209">
        <ele>1370</ele>
        <time>2026-05-25T10:59:25.000Z</time>
      </trkpt>
      <trkpt lat="42.9321" lon="1.30205">
        <ele>1370</ele>
        <time>2026-05-25T10:59:26.000Z</time>
      </trkpt>
      <trkpt lat="42.93211" lon="1.30202">
        <ele>1370</ele>
        <time>2026-05-25T10:59:27.000Z</time>
      </trkpt>
      <trkpt lat="42.93212" lon="1.30199">
        <ele>1370</ele>
        <time>2026-05-25T10:59:28.000Z</time>
      </trkpt>
      <trkpt lat="42.93213" lon="1.30197">
        <ele>1370</ele>
        <time>2026-05-25T10:59:29.000Z</time>
      </trkpt>
      <trkpt lat="42.93214" lon="1.30194">
        <ele>1370</ele>
        <time>2026-05-25T10:59:30.000Z</time>
      </trkpt>
      <trkpt lat="42.93215" lon="1.30191">
        <ele>1370</ele>
        <time>2026-05-25T10:59:31.000Z</time>
      </trkpt>
      <trkpt lat="42.93216" lon="1.30187">
        <ele>1370</ele>
        <time>2026-05-25T10:59:32.000Z</time>
      </trkpt>
      <trkpt lat="42.93217" lon="1.30183">
        <ele>1370</ele>
        <time>2026-05-25T10:59:33.000Z</time>
      </trkpt>
      <trkpt lat="42.93217" lon="1.3018">
        <ele>1370</ele>
        <time>2026-05-25T10:59:34.000Z</time>
      </trkpt>
      <trkpt lat="42.93218" lon="1.30177">
        <ele>1370</ele>
        <time>2026-05-25T10:59:35.000Z</time>
      </trkpt>
      <trkpt lat="42.93219" lon="1.30172">
        <ele>1370</ele>
        <time>2026-05-25T10:59:36.000Z</time>
      </trkpt>
      <trkpt lat="42.9322" lon="1.30169">
        <ele>1370</ele>
        <time>2026-05-25T10:59:37.000Z</time>
      </trkpt>
      <trkpt lat="42.9322" lon="1.30165">
        <ele>1370</ele>
        <time>2026-05-25T10:59:38.000Z</time>
      </trkpt>
      <trkpt lat="42.93221" lon="1.30161">
        <ele>1370</ele>
        <time>2026-05-25T10:59:39.000Z</time>
      </trkpt>
      <trkpt lat="42.93221" lon="1.30156">
        <ele>1370</ele>
        <time>2026-05-25T10:59:40.000Z</time>
      </trkpt>
      <trkpt lat="42.93222" lon="1.30151">
        <ele>1370</ele>
        <time>2026-05-25T10:59:41.000Z</time>
      </trkpt>
      <trkpt lat="42.93222" lon="1.30145">
        <ele>1369</ele>
        <time>2026-05-25T10:59:42.000Z</time>
      </trkpt>
      <trkpt lat="42.93222" lon="1.30138">
        <ele>1368</ele>
        <time>2026-05-25T10:59:43.000Z</time>
      </trkpt>
      <trkpt lat="42.93222" lon="1.3013">
        <ele>1368</ele>
        <time>2026-05-25T10:59:44.000Z</time>
      </trkpt>
      <trkpt lat="42.93222" lon="1.30122">
        <ele>1368</ele>
        <time>2026-05-25T10:59:45.000Z</time>
      </trkpt>
      <trkpt lat="42.93222" lon="1.30114">
        <ele>1368</ele>
        <time>2026-05-25T10:59:46.000Z</time>
      </trkpt>
      <trkpt lat="42.93221" lon="1.30108">
        <ele>1368</ele>
        <time>2026-05-25T10:59:47.000Z</time>
      </trkpt>
      <trkpt lat="42.93222" lon="1.30103">
        <ele>1368</ele>
        <time>2026-05-25T10:59:48.000Z</time>
      </trkpt>
      <trkpt lat="42.93222" lon="1.30099">
        <ele>1368</ele>
        <time>2026-05-25T10:59:49.000Z</time>
      </trkpt>
      <trkpt lat="42.93222" lon="1.30095">
        <ele>1368</ele>
        <time>2026-05-25T10:59:50.000Z</time>
      </trkpt>
      <trkpt lat="42.93223" lon="1.30091">
        <ele>1368</ele>
        <time>2026-05-25T10:59:51.000Z</time>
      </trkpt>
      <trkpt lat="42.93223" lon="1.30088">
        <ele>1368</ele>
        <time>2026-05-25T10:59:52.000Z</time>
      </trkpt>
      <trkpt lat="42.93223" lon="1.30085">
        <ele>1367</ele>
        <time>2026-05-25T10:59:53.000Z</time>
      </trkpt>
      <trkpt lat="42.93223" lon="1.30084">
        <ele>1367</ele>
        <time>2026-05-25T10:59:54.000Z</time>
      </trkpt>
      <trkpt lat="42.93222" lon="1.30083">
        <ele>1367</ele>
        <time>2026-05-25T10:59:55.000Z</time>
      </trkpt>
      <trkpt lat="42.93222" lon="1.30081">
        <ele>1367</ele>
        <time>2026-05-25T10:59:56.000Z</time>
      </trkpt>
      <trkpt lat="42.93221" lon="1.3008">
        <ele>1368</ele>
        <time>2026-05-25T10:59:57.000Z</time>
      </trkpt>
      <trkpt lat="42.93222" lon="1.30077">
        <ele>1368</ele>
        <time>2026-05-25T10:59:58.000Z</time>
      </trkpt>
      <trkpt lat="42.93223" lon="1.30075">
        <ele>1368</ele>
        <time>2026-05-25T10:59:59.000Z</time>
      </trkpt>
      <trkpt lat="42.93222" lon="1.30073">
        <ele>1368</ele>
        <time>2026-05-25T11:00:00.000Z</time>
      </trkpt>
      <trkpt lat="42.93222" lon="1.3007">
        <ele>1368</ele>
        <time>2026-05-25T11:00:01.000Z</time>
      </trkpt>
      <trkpt lat="42.93222" lon="1.30066">
        <ele>1368</ele>
        <time>2026-05-25T11:00:02.000Z</time>
      </trkpt>
      <trkpt lat="42.93222" lon="1.30061">
        <ele>1368</ele>
        <time>2026-05-25T11:00:03.000Z</time>
      </trkpt>
      <trkpt lat="42.93221" lon="1.30056">
        <ele>1368</ele>
        <time>2026-05-25T11:00:04.000Z</time>
      </trkpt>
      <trkpt lat="42.9322" lon="1.30052">
        <ele>1367</ele>
        <time>2026-05-25T11:00:05.000Z</time>
      </trkpt>
      <trkpt lat="42.9322" lon="1.30048">
        <ele>1368</ele>
        <time>2026-05-25T11:00:06.000Z</time>
      </trkpt>
      <trkpt lat="42.93219" lon="1.30045">
        <ele>1367</ele>
        <time>2026-05-25T11:00:07.000Z</time>
      </trkpt>
      <trkpt lat="42.93218" lon="1.3004">
        <ele>1367</ele>
        <time>2026-05-25T11:00:08.000Z</time>
      </trkpt>
      <trkpt lat="42.93217" lon="1.30033">
        <ele>1366</ele>
        <time>2026-05-25T11:00:09.000Z</time>
      </trkpt>
      <trkpt lat="42.93216" lon="1.30027">
        <ele>1366</ele>
        <time>2026-05-25T11:00:10.000Z</time>
      </trkpt>
      <trkpt lat="42.93215" lon="1.30019">
        <ele>1366</ele>
        <time>2026-05-25T11:00:11.000Z</time>
      </trkpt>
      <trkpt lat="42.93214" lon="1.30012">
        <ele>1365</ele>
        <time>2026-05-25T11:00:12.000Z</time>
      </trkpt>
      <trkpt lat="42.93213" lon="1.30004">
        <ele>1365</ele>
        <time>2026-05-25T11:00:13.000Z</time>
      </trkpt>
      <trkpt lat="42.93212" lon="1.29996">
        <ele>1365</ele>
        <time>2026-05-25T11:00:14.000Z</time>
      </trkpt>
      <trkpt lat="42.93211" lon="1.29988">
        <ele>1365</ele>
        <time>2026-05-25T11:00:15.000Z</time>
      </trkpt>
      <trkpt lat="42.93211" lon="1.2998">
        <ele>1365</ele>
        <time>2026-05-25T11:00:16.000Z</time>
      </trkpt>
      <trkpt lat="42.9321" lon="1.29971">
        <ele>1364</ele>
        <time>2026-05-25T11:00:17.000Z</time>
      </trkpt>
      <trkpt lat="42.93209" lon="1.29962">
        <ele>1363</ele>
        <time>2026-05-25T11:00:18.000Z</time>
      </trkpt>
      <trkpt lat="42.93209" lon="1.29954">
        <ele>1364</ele>
        <time>2026-05-25T11:00:19.000Z</time>
      </trkpt>
      <trkpt lat="42.93208" lon="1.29947">
        <ele>1363</ele>
        <time>2026-05-25T11:00:20.000Z</time>
      </trkpt>
      <trkpt lat="42.93208" lon="1.29939">
        <ele>1363</ele>
        <time>2026-05-25T11:00:21.000Z</time>
      </trkpt>
      <trkpt lat="42.93208" lon="1.29931">
        <ele>1363</ele>
        <time>2026-05-25T11:00:22.000Z</time>
      </trkpt>
      <trkpt lat="42.93207" lon="1.29923">
        <ele>1363</ele>
        <time>2026-05-25T11:00:23.000Z</time>
      </trkpt>
      <trkpt lat="42.93206" lon="1.29916">
        <ele>1363</ele>
        <time>2026-05-25T11:00:24.000Z</time>
      </trkpt>
      <trkpt lat="42.93206" lon="1.2991">
        <ele>1362</ele>
        <time>2026-05-25T11:00:25.000Z</time>
      </trkpt>
      <trkpt lat="42.93206" lon="1.29903">
        <ele>1362</ele>
        <time>2026-05-25T11:00:26.000Z</time>
      </trkpt>
      <trkpt lat="42.93206" lon="1.29897">
        <ele>1362</ele>
        <time>2026-05-25T11:00:27.000Z</time>
      </trkpt>
      <trkpt lat="42.93206" lon="1.29892">
        <ele>1361</ele>
        <time>2026-05-25T11:00:28.000Z</time>
      </trkpt>
      <trkpt lat="42.93205" lon="1.29888">
        <ele>1361</ele>
        <time>2026-05-25T11:00:29.000Z</time>
      </trkpt>
      <trkpt lat="42.93205" lon="1.29886">
        <ele>1362</ele>
        <time>2026-05-25T11:00:30.000Z</time>
      </trkpt>
      <trkpt lat="42.93205" lon="1.29884">
        <ele>1362</ele>
        <time>2026-05-25T11:00:31.000Z</time>
      </trkpt>
      <trkpt lat="42.93205" lon="1.29884">
        <ele>1361</ele>
        <time>2026-05-25T11:00:32.000Z</time>
      </trkpt>
      <trkpt lat="42.93205" lon="1.29885">
        <ele>1361</ele>
        <time>2026-05-25T11:00:33.000Z</time>
      </trkpt>
      <trkpt lat="42.93205" lon="1.29885">
        <ele>1361</ele>
        <time>2026-05-25T11:00:34.000Z</time>
      </trkpt>
      <trkpt lat="42.93205" lon="1.29885">
        <ele>1361</ele>
        <time>2026-05-25T11:00:35.000Z</time>
      </trkpt>
      <trkpt lat="42.93205" lon="1.29885">
        <ele>1361</ele>
        <time>2026-05-25T11:00:36.000Z</time>
      </trkpt>
      <trkpt lat="42.93205" lon="1.29885">
        <ele>1361</ele>
        <time>2026-05-25T11:00:37.000Z</time>
      </trkpt>
      <trkpt lat="42.93205" lon="1.29885">
        <ele>1361</ele>
        <time>2026-05-25T11:00:38.000Z</time>
      </trkpt>
      <trkpt lat="42.93205" lon="1.29884">
        <ele>1361</ele>
        <time>2026-05-25T11:00:39.000Z</time>
      </trkpt>
      <trkpt lat="42.93205" lon="1.29883">
        <ele>1361</ele>
        <time>2026-05-25T11:00:40.000Z</time>
      </trkpt>
      <trkpt lat="42.93205" lon="1.29882">
        <ele>1361</ele>
        <time>2026-05-25T11:00:41.000Z</time>
      </trkpt>
      <trkpt lat="42.93205" lon="1.29882">
        <ele>1361</ele>
        <time>2026-05-25T11:00:42.000Z</time>
      </trkpt>
      <trkpt lat="42.93205" lon="1.29881">
        <ele>1361</ele>
        <time>2026-05-25T11:00:43.000Z</time>
      </trkpt>
      <trkpt lat="42.93205" lon="1.29882">
        <ele>1361</ele>
        <time>2026-05-25T11:00:44.000Z</time>
      </trkpt>
      <trkpt lat="42.93204" lon="1.29881">
        <ele>1361</ele>
        <time>2026-05-25T11:00:45.000Z</time>
      </trkpt>
      <trkpt lat="42.93205" lon="1.2988">
        <ele>1360</ele>
        <time>2026-05-25T11:00:46.000Z</time>
      </trkpt>
      <trkpt lat="42.93205" lon="1.29879">
        <ele>1361</ele>
        <time>2026-05-25T11:00:47.000Z</time>
      </trkpt>
      <trkpt lat="42.93204" lon="1.2988">
        <ele>1361</ele>
        <time>2026-05-25T11:00:48.000Z</time>
      </trkpt>
      <trkpt lat="42.93204" lon="1.2988">
        <ele>1361</ele>
        <time>2026-05-25T11:00:49.000Z</time>
      </trkpt>
      <trkpt lat="42.93204" lon="1.2988">
        <ele>1361</ele>
        <time>2026-05-25T11:00:50.000Z</time>
      </trkpt>
      <trkpt lat="42.93204" lon="1.2988">
        <ele>1360</ele>
        <time>2026-05-25T11:00:51.000Z</time>
      </trkpt>
      <trkpt lat="42.93204" lon="1.2988">
        <ele>1361</ele>
        <time>2026-05-25T11:00:52.000Z</time>
      </trkpt>
      <trkpt lat="42.93205" lon="1.29879">
        <ele>1361</ele>
        <time>2026-05-25T11:00:53.000Z</time>
      </trkpt>
      <trkpt lat="42.93205" lon="1.29878">
        <ele>1361</ele>
        <time>2026-05-25T11:00:54.000Z</time>
      </trkpt>
      <trkpt lat="42.93205" lon="1.29875">
        <ele>1361</ele>
        <time>2026-05-25T11:00:55.000Z</time>
      </trkpt>
      <trkpt lat="42.93204" lon="1.29873">
        <ele>1362</ele>
        <time>2026-05-25T11:00:56.000Z</time>
      </trkpt>
      <trkpt lat="42.93204" lon="1.29869">
        <ele>1362</ele>
        <time>2026-05-25T11:00:57.000Z</time>
      </trkpt>
      <trkpt lat="42.93203" lon="1.29866">
        <ele>1362</ele>
        <time>2026-05-25T11:00:58.000Z</time>
      </trkpt>
      <trkpt lat="42.93202" lon="1.29863">
        <ele>1363</ele>
        <time>2026-05-25T11:00:59.000Z</time>
      </trkpt>
      <trkpt lat="42.93202" lon="1.29861">
        <ele>1363</ele>
        <time>2026-05-25T11:01:00.000Z</time>
      </trkpt>
      <trkpt lat="42.93201" lon="1.29859">
        <ele>1363</ele>
        <time>2026-05-25T11:01:01.000Z</time>
      </trkpt>
      <trkpt lat="42.932" lon="1.29856">
        <ele>1363</ele>
        <time>2026-05-25T11:01:02.000Z</time>
      </trkpt>
      <trkpt lat="42.93199" lon="1.29852">
        <ele>1364</ele>
        <time>2026-05-25T11:01:03.000Z</time>
      </trkpt>
      <trkpt lat="42.93199" lon="1.2985">
        <ele>1365</ele>
        <time>2026-05-25T11:01:04.000Z</time>
      </trkpt>
      <trkpt lat="42.93198" lon="1.29848">
        <ele>1365</ele>
        <time>2026-05-25T11:01:05.000Z</time>
      </trkpt>
      <trkpt lat="42.93199" lon="1.29848">
        <ele>1365</ele>
        <time>2026-05-25T11:01:06.000Z</time>
      </trkpt>
      <trkpt lat="42.93199" lon="1.29848">
        <ele>1365</ele>
        <time>2026-05-25T11:01:07.000Z</time>
      </trkpt>
      <trkpt lat="42.93199" lon="1.29848">
        <ele>1365</ele>
        <time>2026-05-25T11:01:08.000Z</time>
      </trkpt>
      <trkpt lat="42.93199" lon="1.29848">
        <ele>1365</ele>
        <time>2026-05-25T11:01:09.000Z</time>
      </trkpt>
      <trkpt lat="42.93199" lon="1.29848">
        <ele>1365</ele>
        <time>2026-05-25T11:01:10.000Z</time>
      </trkpt>
      <trkpt lat="42.932" lon="1.29846">
        <ele>1365</ele>
        <time>2026-05-25T11:01:11.000Z</time>
      </trkpt>
      <trkpt lat="42.93199" lon="1.29845">
        <ele>1365</ele>
        <time>2026-05-25T11:01:12.000Z</time>
      </trkpt>
      <trkpt lat="42.93199" lon="1.29846">
        <ele>1365</ele>
        <time>2026-05-25T11:01:13.000Z</time>
      </trkpt>
      <trkpt lat="42.932" lon="1.29844">
        <ele>1365</ele>
        <time>2026-05-25T11:02:49.000Z</time>
      </trkpt>
      <trkpt lat="42.93201" lon="1.29844">
        <ele>1365</ele>
        <time>2026-05-25T11:02:50.000Z</time>
      </trkpt>
      <trkpt lat="42.932" lon="1.29844">
        <ele>1365</ele>
        <time>2026-05-25T11:02:51.000Z</time>
      </trkpt>
      <trkpt lat="42.932" lon="1.29844">
        <ele>1365</ele>
        <time>2026-05-25T11:02:52.000Z</time>
      </trkpt>
      <trkpt lat="42.932" lon="1.29844">
        <ele>1365</ele>
        <time>2026-05-25T11:02:53.000Z</time>
      </trkpt>
      <trkpt lat="42.932" lon="1.29845">
        <ele>1366</ele>
        <time>2026-05-25T11:02:54.000Z</time>
      </trkpt>
      <trkpt lat="42.932" lon="1.29846">
        <ele>1367</ele>
        <time>2026-05-25T11:02:55.000Z</time>
      </trkpt>
      <trkpt lat="42.932" lon="1.29847">
        <ele>1366</ele>
        <time>2026-05-25T11:02:56.000Z</time>
      </trkpt>
      <trkpt lat="42.93198" lon="1.29848">
        <ele>1366</ele>
        <time>2026-05-25T11:02:57.000Z</time>
      </trkpt>
      <trkpt lat="42.93198" lon="1.29843">
        <ele>1371</ele>
        <time>2026-05-25T11:03:14.000Z</time>
      </trkpt>
      <trkpt lat="42.93197" lon="1.29841">
        <ele>1372</ele>
        <time>2026-05-25T11:03:15.000Z</time>
      </trkpt>
      <trkpt lat="42.93197" lon="1.29838">
        <ele>1373</ele>
        <time>2026-05-25T11:03:16.000Z</time>
      </trkpt>
      <trkpt lat="42.93197" lon="1.29835">
        <ele>1374</ele>
        <time>2026-05-25T11:03:17.000Z</time>
      </trkpt>
      <trkpt lat="42.93196" lon="1.29833">
        <ele>1374</ele>
        <time>2026-05-25T11:03:18.000Z</time>
      </trkpt>
      <trkpt lat="42.93196" lon="1.29831">
        <ele>1374</ele>
        <time>2026-05-25T11:03:19.000Z</time>
      </trkpt>
      <trkpt lat="42.93196" lon="1.29828">
        <ele>1375</ele>
        <time>2026-05-25T11:03:20.000Z</time>
      </trkpt>
      <trkpt lat="42.93195" lon="1.29825">
        <ele>1376</ele>
        <time>2026-05-25T11:03:21.000Z</time>
      </trkpt>
      <trkpt lat="42.93194" lon="1.29822">
        <ele>1376</ele>
        <time>2026-05-25T11:03:22.000Z</time>
      </trkpt>
      <trkpt lat="42.93194" lon="1.29818">
        <ele>1377</ele>
        <time>2026-05-25T11:03:23.000Z</time>
      </trkpt>
      <trkpt lat="42.93194" lon="1.29816">
        <ele>1378</ele>
        <time>2026-05-25T11:03:24.000Z</time>
      </trkpt>
      <trkpt lat="42.93193" lon="1.29813">
        <ele>1378</ele>
        <time>2026-05-25T11:03:25.000Z</time>
      </trkpt>
      <trkpt lat="42.93192" lon="1.29809">
        <ele>1377</ele>
        <time>2026-05-25T11:03:26.000Z</time>
      </trkpt>
      <trkpt lat="42.93192" lon="1.29806">
        <ele>1377</ele>
        <time>2026-05-25T11:03:27.000Z</time>
      </trkpt>
      <trkpt lat="42.93192" lon="1.29803">
        <ele>1377</ele>
        <time>2026-05-25T11:03:28.000Z</time>
      </trkpt>
      <trkpt lat="42.93191" lon="1.298">
        <ele>1377</ele>
        <time>2026-05-25T11:03:29.000Z</time>
      </trkpt>
      <trkpt lat="42.9319" lon="1.29797">
        <ele>1377</ele>
        <time>2026-05-25T11:03:30.000Z</time>
      </trkpt>
      <trkpt lat="42.9319" lon="1.29795">
        <ele>1377</ele>
        <time>2026-05-25T11:03:31.000Z</time>
      </trkpt>
      <trkpt lat="42.9319" lon="1.29793">
        <ele>1377</ele>
        <time>2026-05-25T11:03:32.000Z</time>
      </trkpt>
      <trkpt lat="42.9319" lon="1.2979">
        <ele>1377</ele>
        <time>2026-05-25T11:03:33.000Z</time>
      </trkpt>
      <trkpt lat="42.9319" lon="1.29787">
        <ele>1378</ele>
        <time>2026-05-25T11:03:34.000Z</time>
      </trkpt>
      <trkpt lat="42.9319" lon="1.29785">
        <ele>1378</ele>
        <time>2026-05-25T11:03:35.000Z</time>
      </trkpt>
      <trkpt lat="42.9319" lon="1.29782">
        <ele>1379</ele>
        <time>2026-05-25T11:03:36.000Z</time>
      </trkpt>
      <trkpt lat="42.93189" lon="1.29779">
        <ele>1380</ele>
        <time>2026-05-25T11:03:37.000Z</time>
      </trkpt>
      <trkpt lat="42.93189" lon="1.29777">
        <ele>1380</ele>
        <time>2026-05-25T11:03:38.000Z</time>
      </trkpt>
      <trkpt lat="42.93189" lon="1.29774">
        <ele>1380</ele>
        <time>2026-05-25T11:03:39.000Z</time>
      </trkpt>
      <trkpt lat="42.9319" lon="1.29771">
        <ele>1380</ele>
        <time>2026-05-25T11:03:40.000Z</time>
      </trkpt>
      <trkpt lat="42.9319" lon="1.29768">
        <ele>1380</ele>
        <time>2026-05-25T11:03:41.000Z</time>
      </trkpt>
      <trkpt lat="42.9319" lon="1.29765">
        <ele>1381</ele>
        <time>2026-05-25T11:03:42.000Z</time>
      </trkpt>
      <trkpt lat="42.9319" lon="1.29763">
        <ele>1381</ele>
        <time>2026-05-25T11:03:43.000Z</time>
      </trkpt>
      <trkpt lat="42.93189" lon="1.2976">
        <ele>1381</ele>
        <time>2026-05-25T11:03:44.000Z</time>
      </trkpt>
      <trkpt lat="42.93189" lon="1.29758">
        <ele>1381</ele>
        <time>2026-05-25T11:03:45.000Z</time>
      </trkpt>
      <trkpt lat="42.9319" lon="1.29756">
        <ele>1382</ele>
        <time>2026-05-25T11:03:46.000Z</time>
      </trkpt>
      <trkpt lat="42.9319" lon="1.29753">
        <ele>1382</ele>
        <time>2026-05-25T11:03:47.000Z</time>
      </trkpt>
      <trkpt lat="42.9319" lon="1.2975">
        <ele>1383</ele>
        <time>2026-05-25T11:03:48.000Z</time>
      </trkpt>
      <trkpt lat="42.9319" lon="1.29748">
        <ele>1383</ele>
        <time>2026-05-25T11:03:49.000Z</time>
      </trkpt>
      <trkpt lat="42.9319" lon="1.29745">
        <ele>1383</ele>
        <time>2026-05-25T11:03:50.000Z</time>
      </trkpt>
      <trkpt lat="42.93191" lon="1.29743">
        <ele>1383</ele>
        <time>2026-05-25T11:03:51.000Z</time>
      </trkpt>
      <trkpt lat="42.93191" lon="1.2974">
        <ele>1383</ele>
        <time>2026-05-25T11:03:52.000Z</time>
      </trkpt>
      <trkpt lat="42.93192" lon="1.29737">
        <ele>1384</ele>
        <time>2026-05-25T11:03:53.000Z</time>
      </trkpt>
      <trkpt lat="42.93192" lon="1.29734">
        <ele>1384</ele>
        <time>2026-05-25T11:03:54.000Z</time>
      </trkpt>
      <trkpt lat="42.93191" lon="1.29731">
        <ele>1384</ele>
        <time>2026-05-25T11:03:55.000Z</time>
      </trkpt>
      <trkpt lat="42.93191" lon="1.29728">
        <ele>1385</ele>
        <time>2026-05-25T11:03:56.000Z</time>
      </trkpt>
      <trkpt lat="42.9319" lon="1.29726">
        <ele>1385</ele>
        <time>2026-05-25T11:03:57.000Z</time>
      </trkpt>
      <trkpt lat="42.9319" lon="1.29723">
        <ele>1385</ele>
        <time>2026-05-25T11:03:58.000Z</time>
      </trkpt>
      <trkpt lat="42.9319" lon="1.2972">
        <ele>1385</ele>
        <time>2026-05-25T11:03:59.000Z</time>
      </trkpt>
      <trkpt lat="42.9319" lon="1.29717">
        <ele>1385</ele>
        <time>2026-05-25T11:04:00.000Z</time>
      </trkpt>
      <trkpt lat="42.93191" lon="1.29714">
        <ele>1384</ele>
        <time>2026-05-25T11:04:01.000Z</time>
      </trkpt>
      <trkpt lat="42.9319" lon="1.29711">
        <ele>1383</ele>
        <time>2026-05-25T11:04:02.000Z</time>
      </trkpt>
      <trkpt lat="42.9319" lon="1.29709">
        <ele>1384</ele>
        <time>2026-05-25T11:04:03.000Z</time>
      </trkpt>
      <trkpt lat="42.9319" lon="1.29706">
        <ele>1385</ele>
        <time>2026-05-25T11:04:04.000Z</time>
      </trkpt>
      <trkpt lat="42.93189" lon="1.29704">
        <ele>1385</ele>
        <time>2026-05-25T11:04:05.000Z</time>
      </trkpt>
      <trkpt lat="42.93189" lon="1.29701">
        <ele>1385</ele>
        <time>2026-05-25T11:04:06.000Z</time>
      </trkpt>
      <trkpt lat="42.93189" lon="1.29698">
        <ele>1385</ele>
        <time>2026-05-25T11:04:07.000Z</time>
      </trkpt>
      <trkpt lat="42.9319" lon="1.29696">
        <ele>1385</ele>
        <time>2026-05-25T11:04:08.000Z</time>
      </trkpt>
      <trkpt lat="42.93189" lon="1.29693">
        <ele>1385</ele>
        <time>2026-05-25T11:04:09.000Z</time>
      </trkpt>
      <trkpt lat="42.9319" lon="1.2969">
        <ele>1386</ele>
        <time>2026-05-25T11:04:10.000Z</time>
      </trkpt>
      <trkpt lat="42.9319" lon="1.29687">
        <ele>1386</ele>
        <time>2026-05-25T11:04:11.000Z</time>
      </trkpt>
      <trkpt lat="42.9319" lon="1.29684">
        <ele>1387</ele>
        <time>2026-05-25T11:04:12.000Z</time>
      </trkpt>
      <trkpt lat="42.93191" lon="1.29682">
        <ele>1387</ele>
        <time>2026-05-25T11:04:13.000Z</time>
      </trkpt>
      <trkpt lat="42.9319" lon="1.2968">
        <ele>1386</ele>
        <time>2026-05-25T11:04:14.000Z</time>
      </trkpt>
      <trkpt lat="42.9319" lon="1.29678">
        <ele>1386</ele>
        <time>2026-05-25T11:04:15.000Z</time>
      </trkpt>
      <trkpt lat="42.9319" lon="1.29676">
        <ele>1386</ele>
        <time>2026-05-25T11:04:16.000Z</time>
      </trkpt>
      <trkpt lat="42.9319" lon="1.29673">
        <ele>1386</ele>
        <time>2026-05-25T11:04:17.000Z</time>
      </trkpt>
      <trkpt lat="42.93189" lon="1.29671">
        <ele>1387</ele>
        <time>2026-05-25T11:04:18.000Z</time>
      </trkpt>
      <trkpt lat="42.9319" lon="1.29667">
        <ele>1387</ele>
        <time>2026-05-25T11:04:19.000Z</time>
      </trkpt>
      <trkpt lat="42.9319" lon="1.29663">
        <ele>1387</ele>
        <time>2026-05-25T11:04:20.000Z</time>
      </trkpt>
      <trkpt lat="42.9319" lon="1.2966">
        <ele>1387</ele>
        <time>2026-05-25T11:04:21.000Z</time>
      </trkpt>
      <trkpt lat="42.9319" lon="1.29656">
        <ele>1387</ele>
        <time>2026-05-25T11:04:22.000Z</time>
      </trkpt>
      <trkpt lat="42.93189" lon="1.29653">
        <ele>1387</ele>
        <time>2026-05-25T11:04:23.000Z</time>
      </trkpt>
      <trkpt lat="42.93189" lon="1.29649">
        <ele>1388</ele>
        <time>2026-05-25T11:04:24.000Z</time>
      </trkpt>
      <trkpt lat="42.93188" lon="1.29644">
        <ele>1388</ele>
        <time>2026-05-25T11:04:25.000Z</time>
      </trkpt>
      <trkpt lat="42.93188" lon="1.29641">
        <ele>1388</ele>
        <time>2026-05-25T11:04:26.000Z</time>
      </trkpt>
      <trkpt lat="42.93188" lon="1.29637">
        <ele>1388</ele>
        <time>2026-05-25T11:04:27.000Z</time>
      </trkpt>
      <trkpt lat="42.93188" lon="1.29633">
        <ele>1388</ele>
        <time>2026-05-25T11:04:28.000Z</time>
      </trkpt>
      <trkpt lat="42.93187" lon="1.29629">
        <ele>1388</ele>
        <time>2026-05-25T11:04:29.000Z</time>
      </trkpt>
      <trkpt lat="42.93186" lon="1.29626">
        <ele>1388</ele>
        <time>2026-05-25T11:04:30.000Z</time>
      </trkpt>
      <trkpt lat="42.93185" lon="1.29622">
        <ele>1388</ele>
        <time>2026-05-25T11:04:31.000Z</time>
      </trkpt>
      <trkpt lat="42.93184" lon="1.29618">
        <ele>1388</ele>
        <time>2026-05-25T11:04:32.000Z</time>
      </trkpt>
      <trkpt lat="42.93184" lon="1.29614">
        <ele>1388</ele>
        <time>2026-05-25T11:04:33.000Z</time>
      </trkpt>
      <trkpt lat="42.93183" lon="1.29611">
        <ele>1388</ele>
        <time>2026-05-25T11:04:34.000Z</time>
      </trkpt>
      <trkpt lat="42.93182" lon="1.29608">
        <ele>1389</ele>
        <time>2026-05-25T11:04:35.000Z</time>
      </trkpt>
      <trkpt lat="42.93181" lon="1.29604">
        <ele>1389</ele>
        <time>2026-05-25T11:04:36.000Z</time>
      </trkpt>
      <trkpt lat="42.9318" lon="1.29601">
        <ele>1389</ele>
        <time>2026-05-25T11:04:37.000Z</time>
      </trkpt>
      <trkpt lat="42.93179" lon="1.29597">
        <ele>1389</ele>
        <time>2026-05-25T11:04:38.000Z</time>
      </trkpt>
      <trkpt lat="42.93178" lon="1.29594">
        <ele>1388</ele>
        <time>2026-05-25T11:04:39.000Z</time>
      </trkpt>
      <trkpt lat="42.93177" lon="1.29591">
        <ele>1389</ele>
        <time>2026-05-25T11:04:40.000Z</time>
      </trkpt>
      <trkpt lat="42.93176" lon="1.29589">
        <ele>1389</ele>
        <time>2026-05-25T11:04:41.000Z</time>
      </trkpt>
      <trkpt lat="42.93175" lon="1.29586">
        <ele>1389</ele>
        <time>2026-05-25T11:04:42.000Z</time>
      </trkpt>
      <trkpt lat="42.93174" lon="1.29583">
        <ele>1390</ele>
        <time>2026-05-25T11:04:43.000Z</time>
      </trkpt>
      <trkpt lat="42.93172" lon="1.2958">
        <ele>1390</ele>
        <time>2026-05-25T11:04:44.000Z</time>
      </trkpt>
      <trkpt lat="42.93171" lon="1.29577">
        <ele>1390</ele>
        <time>2026-05-25T11:04:45.000Z</time>
      </trkpt>
      <trkpt lat="42.93169" lon="1.29574">
        <ele>1390</ele>
        <time>2026-05-25T11:04:46.000Z</time>
      </trkpt>
      <trkpt lat="42.93168" lon="1.29571">
        <ele>1390</ele>
        <time>2026-05-25T11:04:47.000Z</time>
      </trkpt>
      <trkpt lat="42.93166" lon="1.29567">
        <ele>1391</ele>
        <time>2026-05-25T11:04:48.000Z</time>
      </trkpt>
      <trkpt lat="42.93165" lon="1.29564">
        <ele>1391</ele>
        <time>2026-05-25T11:04:49.000Z</time>
      </trkpt>
      <trkpt lat="42.93163" lon="1.29559">
        <ele>1391</ele>
        <time>2026-05-25T11:04:50.000Z</time>
      </trkpt>
      <trkpt lat="42.93162" lon="1.29555">
        <ele>1391</ele>
        <time>2026-05-25T11:04:51.000Z</time>
      </trkpt>
      <trkpt lat="42.93161" lon="1.29551">
        <ele>1391</ele>
        <time>2026-05-25T11:04:52.000Z</time>
      </trkpt>
      <trkpt lat="42.93161" lon="1.29547">
        <ele>1391</ele>
        <time>2026-05-25T11:04:53.000Z</time>
      </trkpt>
      <trkpt lat="42.9316" lon="1.29542">
        <ele>1392</ele>
        <time>2026-05-25T11:04:54.000Z</time>
      </trkpt>
      <trkpt lat="42.93159" lon="1.29538">
        <ele>1392</ele>
        <time>2026-05-25T11:04:55.000Z</time>
      </trkpt>
      <trkpt lat="42.93157" lon="1.29533">
        <ele>1393</ele>
        <time>2026-05-25T11:04:56.000Z</time>
      </trkpt>
      <trkpt lat="42.93155" lon="1.2953">
        <ele>1394</ele>
        <time>2026-05-25T11:04:57.000Z</time>
      </trkpt>
      <trkpt lat="42.93154" lon="1.29526">
        <ele>1394</ele>
        <time>2026-05-25T11:04:58.000Z</time>
      </trkpt>
      <trkpt lat="42.93153" lon="1.29523">
        <ele>1394</ele>
        <time>2026-05-25T11:04:59.000Z</time>
      </trkpt>
      <trkpt lat="42.93151" lon="1.29519">
        <ele>1394</ele>
        <time>2026-05-25T11:05:00.000Z</time>
      </trkpt>
      <trkpt lat="42.93149" lon="1.29516">
        <ele>1395</ele>
        <time>2026-05-25T11:05:01.000Z</time>
      </trkpt>
      <trkpt lat="42.93147" lon="1.29512">
        <ele>1394</ele>
        <time>2026-05-25T11:05:02.000Z</time>
      </trkpt>
      <trkpt lat="42.93144" lon="1.29509">
        <ele>1396</ele>
        <time>2026-05-25T11:05:03.000Z</time>
      </trkpt>
      <trkpt lat="42.93142" lon="1.29507">
        <ele>1397</ele>
        <time>2026-05-25T11:05:04.000Z</time>
      </trkpt>
      <trkpt lat="42.93141" lon="1.29503">
        <ele>1398</ele>
        <time>2026-05-25T11:05:05.000Z</time>
      </trkpt>
      <trkpt lat="42.93139" lon="1.295">
        <ele>1399</ele>
        <time>2026-05-25T11:05:06.000Z</time>
      </trkpt>
      <trkpt lat="42.93137" lon="1.29497">
        <ele>1398</ele>
        <time>2026-05-25T11:05:07.000Z</time>
      </trkpt>
      <trkpt lat="42.93136" lon="1.29493">
        <ele>1398</ele>
        <time>2026-05-25T11:05:08.000Z</time>
      </trkpt>
      <trkpt lat="42.93134" lon="1.29488">
        <ele>1397</ele>
        <time>2026-05-25T11:05:09.000Z</time>
      </trkpt>
      <trkpt lat="42.93133" lon="1.29483">
        <ele>1398</ele>
        <time>2026-05-25T11:05:10.000Z</time>
      </trkpt>
      <trkpt lat="42.93131" lon="1.29478">
        <ele>1398</ele>
        <time>2026-05-25T11:05:11.000Z</time>
      </trkpt>
      <trkpt lat="42.93129" lon="1.29474">
        <ele>1398</ele>
        <time>2026-05-25T11:05:12.000Z</time>
      </trkpt>
      <trkpt lat="42.93127" lon="1.2947">
        <ele>1397</ele>
        <time>2026-05-25T11:05:13.000Z</time>
      </trkpt>
      <trkpt lat="42.93125" lon="1.29465">
        <ele>1397</ele>
        <time>2026-05-25T11:05:14.000Z</time>
      </trkpt>
      <trkpt lat="42.93123" lon="1.29462">
        <ele>1397</ele>
        <time>2026-05-25T11:05:15.000Z</time>
      </trkpt>
      <trkpt lat="42.9312" lon="1.29458">
        <ele>1397</ele>
        <time>2026-05-25T11:05:16.000Z</time>
      </trkpt>
      <trkpt lat="42.93117" lon="1.29455">
        <ele>1397</ele>
        <time>2026-05-25T11:05:17.000Z</time>
      </trkpt>
      <trkpt lat="42.93115" lon="1.29451">
        <ele>1397</ele>
        <time>2026-05-25T11:05:18.000Z</time>
      </trkpt>
      <trkpt lat="42.93113" lon="1.29448">
        <ele>1397</ele>
        <time>2026-05-25T11:05:19.000Z</time>
      </trkpt>
      <trkpt lat="42.93111" lon="1.29445">
        <ele>1397</ele>
        <time>2026-05-25T11:05:20.000Z</time>
      </trkpt>
      <trkpt lat="42.93108" lon="1.29441">
        <ele>1397</ele>
        <time>2026-05-25T11:05:21.000Z</time>
      </trkpt>
      <trkpt lat="42.93106" lon="1.29435">
        <ele>1397</ele>
        <time>2026-05-25T11:05:22.000Z</time>
      </trkpt>
      <trkpt lat="42.93103" lon="1.29431">
        <ele>1397</ele>
        <time>2026-05-25T11:05:23.000Z</time>
      </trkpt>
      <trkpt lat="42.93099" lon="1.29427">
        <ele>1398</ele>
        <time>2026-05-25T11:05:24.000Z</time>
      </trkpt>
      <trkpt lat="42.93097" lon="1.29423">
        <ele>1398</ele>
        <time>2026-05-25T11:05:25.000Z</time>
      </trkpt>
      <trkpt lat="42.93094" lon="1.29419">
        <ele>1398</ele>
        <time>2026-05-25T11:05:26.000Z</time>
      </trkpt>
      <trkpt lat="42.9309" lon="1.29414">
        <ele>1398</ele>
        <time>2026-05-25T11:05:27.000Z</time>
      </trkpt>
      <trkpt lat="42.93085" lon="1.29409">
        <ele>1397</ele>
        <time>2026-05-25T11:05:28.000Z</time>
      </trkpt>
      <trkpt lat="42.93081" lon="1.29403">
        <ele>1398</ele>
        <time>2026-05-25T11:05:29.000Z</time>
      </trkpt>
      <trkpt lat="42.93077" lon="1.29397">
        <ele>1397</ele>
        <time>2026-05-25T11:05:30.000Z</time>
      </trkpt>
      <trkpt lat="42.93072" lon="1.29392">
        <ele>1398</ele>
        <time>2026-05-25T11:05:31.000Z</time>
      </trkpt>
      <trkpt lat="42.93068" lon="1.29386">
        <ele>1399</ele>
        <time>2026-05-25T11:05:32.000Z</time>
      </trkpt>
      <trkpt lat="42.93063" lon="1.29382">
        <ele>1399</ele>
        <time>2026-05-25T11:05:33.000Z</time>
      </trkpt>
      <trkpt lat="42.9306" lon="1.29377">
        <ele>1399</ele>
        <time>2026-05-25T11:05:34.000Z</time>
      </trkpt>
      <trkpt lat="42.93056" lon="1.29371">
        <ele>1399</ele>
        <time>2026-05-25T11:05:35.000Z</time>
      </trkpt>
      <trkpt lat="42.93054" lon="1.29365">
        <ele>1399</ele>
        <time>2026-05-25T11:05:36.000Z</time>
      </trkpt>
      <trkpt lat="42.93049" lon="1.2936">
        <ele>1399</ele>
        <time>2026-05-25T11:05:37.000Z</time>
      </trkpt>
      <trkpt lat="42.93045" lon="1.29354">
        <ele>1398</ele>
        <time>2026-05-25T11:05:38.000Z</time>
      </trkpt>
      <trkpt lat="42.93041" lon="1.29349">
        <ele>1398</ele>
        <time>2026-05-25T11:05:39.000Z</time>
      </trkpt>
      <trkpt lat="42.93037" lon="1.29344">
        <ele>1398</ele>
        <time>2026-05-25T11:05:40.000Z</time>
      </trkpt>
      <trkpt lat="42.93033" lon="1.29338">
        <ele>1399</ele>
        <time>2026-05-25T11:05:41.000Z</time>
      </trkpt>
      <trkpt lat="42.9303" lon="1.29333">
        <ele>1398</ele>
        <time>2026-05-25T11:05:42.000Z</time>
      </trkpt>
      <trkpt lat="42.93026" lon="1.29327">
        <ele>1398</ele>
        <time>2026-05-25T11:05:43.000Z</time>
      </trkpt>
      <trkpt lat="42.93022" lon="1.29321">
        <ele>1398</ele>
        <time>2026-05-25T11:05:44.000Z</time>
      </trkpt>
      <trkpt lat="42.93018" lon="1.29316">
        <ele>1398</ele>
        <time>2026-05-25T11:05:45.000Z</time>
      </trkpt>
      <trkpt lat="42.93015" lon="1.29311">
        <ele>1400</ele>
        <time>2026-05-25T11:05:46.000Z</time>
      </trkpt>
      <trkpt lat="42.93011" lon="1.29306">
        <ele>1400</ele>
        <time>2026-05-25T11:05:47.000Z</time>
      </trkpt>
      <trkpt lat="42.93008" lon="1.29302">
        <ele>1401</ele>
        <time>2026-05-25T11:05:48.000Z</time>
      </trkpt>
      <trkpt lat="42.93005" lon="1.29297">
        <ele>1401</ele>
        <time>2026-05-25T11:05:49.000Z</time>
      </trkpt>
      <trkpt lat="42.93003" lon="1.29292">
        <ele>1401</ele>
        <time>2026-05-25T11:05:50.000Z</time>
      </trkpt>
      <trkpt lat="42.93" lon="1.29288">
        <ele>1401</ele>
        <time>2026-05-25T11:05:51.000Z</time>
      </trkpt>
      <trkpt lat="42.92998" lon="1.29284">
        <ele>1401</ele>
        <time>2026-05-25T11:05:52.000Z</time>
      </trkpt>
      <trkpt lat="42.92996" lon="1.29281">
        <ele>1401</ele>
        <time>2026-05-25T11:05:53.000Z</time>
      </trkpt>
      <trkpt lat="42.92994" lon="1.29278">
        <ele>1402</ele>
        <time>2026-05-25T11:05:54.000Z</time>
      </trkpt>
      <trkpt lat="42.92991" lon="1.29274">
        <ele>1402</ele>
        <time>2026-05-25T11:05:55.000Z</time>
      </trkpt>
      <trkpt lat="42.92988" lon="1.29271">
        <ele>1402</ele>
        <time>2026-05-25T11:05:56.000Z</time>
      </trkpt>
      <trkpt lat="42.92986" lon="1.29268">
        <ele>1402</ele>
        <time>2026-05-25T11:05:57.000Z</time>
      </trkpt>
      <trkpt lat="42.92984" lon="1.29266">
        <ele>1402</ele>
        <time>2026-05-25T11:05:58.000Z</time>
      </trkpt>
      <trkpt lat="42.92981" lon="1.29264">
        <ele>1401</ele>
        <time>2026-05-25T11:05:59.000Z</time>
      </trkpt>
      <trkpt lat="42.92979" lon="1.29262">
        <ele>1401</ele>
        <time>2026-05-25T11:06:00.000Z</time>
      </trkpt>
      <trkpt lat="42.92976" lon="1.2926">
        <ele>1401</ele>
        <time>2026-05-25T11:06:01.000Z</time>
      </trkpt>
      <trkpt lat="42.92974" lon="1.29257">
        <ele>1400</ele>
        <time>2026-05-25T11:06:02.000Z</time>
      </trkpt>
      <trkpt lat="42.92972" lon="1.29254">
        <ele>1400</ele>
        <time>2026-05-25T11:06:03.000Z</time>
      </trkpt>
      <trkpt lat="42.92971" lon="1.29252">
        <ele>1400</ele>
        <time>2026-05-25T11:06:04.000Z</time>
      </trkpt>
      <trkpt lat="42.9297" lon="1.29248">
        <ele>1401</ele>
        <time>2026-05-25T11:06:05.000Z</time>
      </trkpt>
      <trkpt lat="42.9297" lon="1.29244">
        <ele>1401</ele>
        <time>2026-05-25T11:06:06.000Z</time>
      </trkpt>
      <trkpt lat="42.92969" lon="1.29239">
        <ele>1402</ele>
        <time>2026-05-25T11:06:07.000Z</time>
      </trkpt>
      <trkpt lat="42.92967" lon="1.29233">
        <ele>1402</ele>
        <time>2026-05-25T11:06:08.000Z</time>
      </trkpt>
      <trkpt lat="42.92965" lon="1.29228">
        <ele>1402</ele>
        <time>2026-05-25T11:06:09.000Z</time>
      </trkpt>
      <trkpt lat="42.92963" lon="1.29223">
        <ele>1402</ele>
        <time>2026-05-25T11:06:10.000Z</time>
      </trkpt>
      <trkpt lat="42.92962" lon="1.29218">
        <ele>1402</ele>
        <time>2026-05-25T11:06:11.000Z</time>
      </trkpt>
      <trkpt lat="42.92961" lon="1.29212">
        <ele>1402</ele>
        <time>2026-05-25T11:06:12.000Z</time>
      </trkpt>
      <trkpt lat="42.92959" lon="1.29206">
        <ele>1402</ele>
        <time>2026-05-25T11:06:13.000Z</time>
      </trkpt>
      <trkpt lat="42.92958" lon="1.29201">
        <ele>1403</ele>
        <time>2026-05-25T11:06:14.000Z</time>
      </trkpt>
      <trkpt lat="42.92953" lon="1.29193">
        <ele>1402</ele>
        <time>2026-05-25T11:06:15.000Z</time>
      </trkpt>
      <trkpt lat="42.92951" lon="1.29186">
        <ele>1401</ele>
        <time>2026-05-25T11:06:16.000Z</time>
      </trkpt>
      <trkpt lat="42.9295" lon="1.29178">
        <ele>1400</ele>
        <time>2026-05-25T11:06:17.000Z</time>
      </trkpt>
      <trkpt lat="42.9295" lon="1.2917">
        <ele>1400</ele>
        <time>2026-05-25T11:06:18.000Z</time>
      </trkpt>
      <trkpt lat="42.92951" lon="1.29164">
        <ele>1400</ele>
        <time>2026-05-25T11:06:19.000Z</time>
      </trkpt>
      <trkpt lat="42.9295" lon="1.2916">
        <ele>1400</ele>
        <time>2026-05-25T11:06:20.000Z</time>
      </trkpt>
      <trkpt lat="42.9295" lon="1.29155">
        <ele>1400</ele>
        <time>2026-05-25T11:06:21.000Z</time>
      </trkpt>
      <trkpt lat="42.9295" lon="1.29152">
        <ele>1400</ele>
        <time>2026-05-25T11:06:22.000Z</time>
      </trkpt>
      <trkpt lat="42.9295" lon="1.29149">
        <ele>1401</ele>
        <time>2026-05-25T11:06:23.000Z</time>
      </trkpt>
      <trkpt lat="42.92949" lon="1.29146">
        <ele>1401</ele>
        <time>2026-05-25T11:06:24.000Z</time>
      </trkpt>
      <trkpt lat="42.92948" lon="1.29144">
        <ele>1401</ele>
        <time>2026-05-25T11:06:25.000Z</time>
      </trkpt>
      <trkpt lat="42.92948" lon="1.29142">
        <ele>1401</ele>
        <time>2026-05-25T11:06:26.000Z</time>
      </trkpt>
      <trkpt lat="42.92947" lon="1.2914">
        <ele>1401</ele>
        <time>2026-05-25T11:06:27.000Z</time>
      </trkpt>
      <trkpt lat="42.92946" lon="1.29138">
        <ele>1402</ele>
        <time>2026-05-25T11:06:28.000Z</time>
      </trkpt>
      <trkpt lat="42.92945" lon="1.29136">
        <ele>1402</ele>
        <time>2026-05-25T11:06:29.000Z</time>
      </trkpt>
      <trkpt lat="42.92944" lon="1.29134">
        <ele>1402</ele>
        <time>2026-05-25T11:06:30.000Z</time>
      </trkpt>
      <trkpt lat="42.92942" lon="1.29132">
        <ele>1402</ele>
        <time>2026-05-25T11:06:31.000Z</time>
      </trkpt>
      <trkpt lat="42.92943" lon="1.2913">
        <ele>1403</ele>
        <time>2026-05-25T11:06:32.000Z</time>
      </trkpt>
      <trkpt lat="42.92942" lon="1.29129">
        <ele>1403</ele>
        <time>2026-05-25T11:06:33.000Z</time>
      </trkpt>
      <trkpt lat="42.92941" lon="1.29127">
        <ele>1404</ele>
        <time>2026-05-25T11:06:34.000Z</time>
      </trkpt>
      <trkpt lat="42.9294" lon="1.29126">
        <ele>1404</ele>
        <time>2026-05-25T11:06:35.000Z</time>
      </trkpt>
      <trkpt lat="42.92939" lon="1.29124">
        <ele>1405</ele>
        <time>2026-05-25T11:06:36.000Z</time>
      </trkpt>
      <trkpt lat="42.92939" lon="1.29123">
        <ele>1405</ele>
        <time>2026-05-25T11:06:37.000Z</time>
      </trkpt>
      <trkpt lat="42.92938" lon="1.2912">
        <ele>1405</ele>
        <time>2026-05-25T11:06:38.000Z</time>
      </trkpt>
      <trkpt lat="42.92938" lon="1.29118">
        <ele>1405</ele>
        <time>2026-05-25T11:06:39.000Z</time>
      </trkpt>
      <trkpt lat="42.92937" lon="1.29116">
        <ele>1406</ele>
        <time>2026-05-25T11:06:40.000Z</time>
      </trkpt>
      <trkpt lat="42.92937" lon="1.29114">
        <ele>1406</ele>
        <time>2026-05-25T11:06:41.000Z</time>
      </trkpt>
      <trkpt lat="42.92936" lon="1.29111">
        <ele>1407</ele>
        <time>2026-05-25T11:06:42.000Z</time>
      </trkpt>
      <trkpt lat="42.92936" lon="1.29109">
        <ele>1407</ele>
        <time>2026-05-25T11:06:43.000Z</time>
      </trkpt>
      <trkpt lat="42.92935" lon="1.29107">
        <ele>1407</ele>
        <time>2026-05-25T11:06:44.000Z</time>
      </trkpt>
      <trkpt lat="42.92935" lon="1.29105">
        <ele>1408</ele>
        <time>2026-05-25T11:06:45.000Z</time>
      </trkpt>
      <trkpt lat="42.92934" lon="1.29104">
        <ele>1408</ele>
        <time>2026-05-25T11:06:46.000Z</time>
      </trkpt>
      <trkpt lat="42.92933" lon="1.29102">
        <ele>1408</ele>
        <time>2026-05-25T11:06:47.000Z</time>
      </trkpt>
      <trkpt lat="42.92932" lon="1.29101">
        <ele>1408</ele>
        <time>2026-05-25T11:06:48.000Z</time>
      </trkpt>
      <trkpt lat="42.92931" lon="1.29099">
        <ele>1409</ele>
        <time>2026-05-25T11:06:49.000Z</time>
      </trkpt>
      <trkpt lat="42.9293" lon="1.29097">
        <ele>1409</ele>
        <time>2026-05-25T11:06:50.000Z</time>
      </trkpt>
      <trkpt lat="42.92929" lon="1.29096">
        <ele>1409</ele>
        <time>2026-05-25T11:06:51.000Z</time>
      </trkpt>
      <trkpt lat="42.92929" lon="1.29094">
        <ele>1409</ele>
        <time>2026-05-25T11:06:52.000Z</time>
      </trkpt>
      <trkpt lat="42.92928" lon="1.29092">
        <ele>1409</ele>
        <time>2026-05-25T11:06:53.000Z</time>
      </trkpt>
      <trkpt lat="42.92927" lon="1.2909">
        <ele>1409</ele>
        <time>2026-05-25T11:06:54.000Z</time>
      </trkpt>
      <trkpt lat="42.92927" lon="1.29087">
        <ele>1409</ele>
        <time>2026-05-25T11:06:55.000Z</time>
      </trkpt>
      <trkpt lat="42.92926" lon="1.29086">
        <ele>1409</ele>
        <time>2026-05-25T11:06:56.000Z</time>
      </trkpt>
      <trkpt lat="42.92926" lon="1.29084">
        <ele>1409</ele>
        <time>2026-05-25T11:06:57.000Z</time>
      </trkpt>
      <trkpt lat="42.92925" lon="1.29082">
        <ele>1409</ele>
        <time>2026-05-25T11:06:58.000Z</time>
      </trkpt>
      <trkpt lat="42.92925" lon="1.2908">
        <ele>1409</ele>
        <time>2026-05-25T11:06:59.000Z</time>
      </trkpt>
      <trkpt lat="42.92923" lon="1.29078">
        <ele>1409</ele>
        <time>2026-05-25T11:07:00.000Z</time>
      </trkpt>
      <trkpt lat="42.92923" lon="1.29078">
        <ele>1409</ele>
        <time>2026-05-25T11:07:01.000Z</time>
      </trkpt>
      <trkpt lat="42.92923" lon="1.29077">
        <ele>1409</ele>
        <time>2026-05-25T11:07:02.000Z</time>
      </trkpt>
      <trkpt lat="42.92923" lon="1.29075">
        <ele>1409</ele>
        <time>2026-05-25T11:07:03.000Z</time>
      </trkpt>
      <trkpt lat="42.92923" lon="1.29074">
        <ele>1410</ele>
        <time>2026-05-25T11:07:04.000Z</time>
      </trkpt>
      <trkpt lat="42.92922" lon="1.29072">
        <ele>1409</ele>
        <time>2026-05-25T11:07:05.000Z</time>
      </trkpt>
      <trkpt lat="42.92921" lon="1.2907">
        <ele>1409</ele>
        <time>2026-05-25T11:07:06.000Z</time>
      </trkpt>
      <trkpt lat="42.92921" lon="1.29068">
        <ele>1410</ele>
        <time>2026-05-25T11:07:07.000Z</time>
      </trkpt>
      <trkpt lat="42.92921" lon="1.29067">
        <ele>1411</ele>
        <time>2026-05-25T11:07:08.000Z</time>
      </trkpt>
      <trkpt lat="42.9292" lon="1.29066">
        <ele>1412</ele>
        <time>2026-05-25T11:07:09.000Z</time>
      </trkpt>
      <trkpt lat="42.92919" lon="1.29064">
        <ele>1412</ele>
        <time>2026-05-25T11:07:10.000Z</time>
      </trkpt>
      <trkpt lat="42.92919" lon="1.29063">
        <ele>1413</ele>
        <time>2026-05-25T11:07:11.000Z</time>
      </trkpt>
      <trkpt lat="42.92918" lon="1.29061">
        <ele>1414</ele>
        <time>2026-05-25T11:07:12.000Z</time>
      </trkpt>
      <trkpt lat="42.92918" lon="1.29059">
        <ele>1414</ele>
        <time>2026-05-25T11:07:13.000Z</time>
      </trkpt>
      <trkpt lat="42.92917" lon="1.29058">
        <ele>1415</ele>
        <time>2026-05-25T11:07:14.000Z</time>
      </trkpt>
      <trkpt lat="42.92916" lon="1.29057">
        <ele>1415</ele>
        <time>2026-05-25T11:07:15.000Z</time>
      </trkpt>
      <trkpt lat="42.92915" lon="1.29055">
        <ele>1416</ele>
        <time>2026-05-25T11:07:16.000Z</time>
      </trkpt>
      <trkpt lat="42.92915" lon="1.29054">
        <ele>1416</ele>
        <time>2026-05-25T11:07:17.000Z</time>
      </trkpt>
      <trkpt lat="42.92914" lon="1.29052">
        <ele>1416</ele>
        <time>2026-05-25T11:07:18.000Z</time>
      </trkpt>
      <trkpt lat="42.92913" lon="1.29051">
        <ele>1416</ele>
        <time>2026-05-25T11:07:19.000Z</time>
      </trkpt>
      <trkpt lat="42.92912" lon="1.29049">
        <ele>1416</ele>
        <time>2026-05-25T11:07:20.000Z</time>
      </trkpt>
      <trkpt lat="42.92912" lon="1.29046">
        <ele>1417</ele>
        <time>2026-05-25T11:07:21.000Z</time>
      </trkpt>
      <trkpt lat="42.92911" lon="1.29042">
        <ele>1418</ele>
        <time>2026-05-25T11:07:22.000Z</time>
      </trkpt>
      <trkpt lat="42.92911" lon="1.2904">
        <ele>1420</ele>
        <time>2026-05-25T11:07:23.000Z</time>
      </trkpt>
      <trkpt lat="42.92911" lon="1.29038">
        <ele>1421</ele>
        <time>2026-05-25T11:07:24.000Z</time>
      </trkpt>
      <trkpt lat="42.9291" lon="1.29035">
        <ele>1422</ele>
        <time>2026-05-25T11:07:25.000Z</time>
      </trkpt>
      <trkpt lat="42.9291" lon="1.29033">
        <ele>1423</ele>
        <time>2026-05-25T11:07:26.000Z</time>
      </trkpt>
      <trkpt lat="42.92909" lon="1.29031">
        <ele>1423</ele>
        <time>2026-05-25T11:07:27.000Z</time>
      </trkpt>
      <trkpt lat="42.92909" lon="1.29029">
        <ele>1424</ele>
        <time>2026-05-25T11:07:28.000Z</time>
      </trkpt>
      <trkpt lat="42.92907" lon="1.29026">
        <ele>1426</ele>
        <time>2026-05-25T11:07:29.000Z</time>
      </trkpt>
      <trkpt lat="42.92907" lon="1.29024">
        <ele>1427</ele>
        <time>2026-05-25T11:07:30.000Z</time>
      </trkpt>
      <trkpt lat="42.92906" lon="1.29021">
        <ele>1427</ele>
        <time>2026-05-25T11:07:31.000Z</time>
      </trkpt>
      <trkpt lat="42.92905" lon="1.29019">
        <ele>1427</ele>
        <time>2026-05-25T11:07:32.000Z</time>
      </trkpt>
      <trkpt lat="42.92904" lon="1.29017">
        <ele>1426</ele>
        <time>2026-05-25T11:07:33.000Z</time>
      </trkpt>
      <trkpt lat="42.92903" lon="1.29015">
        <ele>1426</ele>
        <time>2026-05-25T11:07:34.000Z</time>
      </trkpt>
      <trkpt lat="42.92901" lon="1.29013">
        <ele>1426</ele>
        <time>2026-05-25T11:07:35.000Z</time>
      </trkpt>
      <trkpt lat="42.929" lon="1.29011">
        <ele>1426</ele>
        <time>2026-05-25T11:07:36.000Z</time>
      </trkpt>
      <trkpt lat="42.92897" lon="1.2901">
        <ele>1425</ele>
        <time>2026-05-25T11:07:37.000Z</time>
      </trkpt>
      <trkpt lat="42.92895" lon="1.29008">
        <ele>1424</ele>
        <time>2026-05-25T11:07:38.000Z</time>
      </trkpt>
      <trkpt lat="42.92894" lon="1.29006">
        <ele>1424</ele>
        <time>2026-05-25T11:07:39.000Z</time>
      </trkpt>
      <trkpt lat="42.92892" lon="1.29003">
        <ele>1423</ele>
        <time>2026-05-25T11:07:40.000Z</time>
      </trkpt>
      <trkpt lat="42.9289" lon="1.28999">
        <ele>1423</ele>
        <time>2026-05-25T11:07:41.000Z</time>
      </trkpt>
      <trkpt lat="42.92889" lon="1.28996">
        <ele>1424</ele>
        <time>2026-05-25T11:07:42.000Z</time>
      </trkpt>
      <trkpt lat="42.92888" lon="1.28992">
        <ele>1424</ele>
        <time>2026-05-25T11:07:43.000Z</time>
      </trkpt>
      <trkpt lat="42.92887" lon="1.28989">
        <ele>1422</ele>
        <time>2026-05-25T11:07:44.000Z</time>
      </trkpt>
      <trkpt lat="42.92886" lon="1.28986">
        <ele>1422</ele>
        <time>2026-05-25T11:07:45.000Z</time>
      </trkpt>
      <trkpt lat="42.92884" lon="1.28983">
        <ele>1422</ele>
        <time>2026-05-25T11:07:46.000Z</time>
      </trkpt>
      <trkpt lat="42.92883" lon="1.28981">
        <ele>1422</ele>
        <time>2026-05-25T11:07:47.000Z</time>
      </trkpt>
      <trkpt lat="42.92882" lon="1.28978">
        <ele>1422</ele>
        <time>2026-05-25T11:07:48.000Z</time>
      </trkpt>
      <trkpt lat="42.92881" lon="1.28975">
        <ele>1422</ele>
        <time>2026-05-25T11:07:49.000Z</time>
      </trkpt>
      <trkpt lat="42.92881" lon="1.28972">
        <ele>1423</ele>
        <time>2026-05-25T11:07:50.000Z</time>
      </trkpt>
      <trkpt lat="42.9288" lon="1.2897">
        <ele>1422</ele>
        <time>2026-05-25T11:07:51.000Z</time>
      </trkpt>
      <trkpt lat="42.92879" lon="1.28967">
        <ele>1422</ele>
        <time>2026-05-25T11:07:52.000Z</time>
      </trkpt>
      <trkpt lat="42.92879" lon="1.28964">
        <ele>1422</ele>
        <time>2026-05-25T11:07:53.000Z</time>
      </trkpt>
      <trkpt lat="42.92878" lon="1.28962">
        <ele>1423</ele>
        <time>2026-05-25T11:07:54.000Z</time>
      </trkpt>
      <trkpt lat="42.92877" lon="1.28959">
        <ele>1423</ele>
        <time>2026-05-25T11:07:55.000Z</time>
      </trkpt>
      <trkpt lat="42.92877" lon="1.28956">
        <ele>1423</ele>
        <time>2026-05-25T11:07:56.000Z</time>
      </trkpt>
      <trkpt lat="42.92877" lon="1.28953">
        <ele>1423</ele>
        <time>2026-05-25T11:07:57.000Z</time>
      </trkpt>
      <trkpt lat="42.92877" lon="1.28951">
        <ele>1423</ele>
        <time>2026-05-25T11:07:58.000Z</time>
      </trkpt>
      <trkpt lat="42.92877" lon="1.28948">
        <ele>1422</ele>
        <time>2026-05-25T11:07:59.000Z</time>
      </trkpt>
      <trkpt lat="42.92877" lon="1.28946">
        <ele>1422</ele>
        <time>2026-05-25T11:08:00.000Z</time>
      </trkpt>
      <trkpt lat="42.92877" lon="1.28943">
        <ele>1422</ele>
        <time>2026-05-25T11:08:01.000Z</time>
      </trkpt>
      <trkpt lat="42.92876" lon="1.28941">
        <ele>1423</ele>
        <time>2026-05-25T11:08:02.000Z</time>
      </trkpt>
      <trkpt lat="42.92876" lon="1.28938">
        <ele>1423</ele>
        <time>2026-05-25T11:08:03.000Z</time>
      </trkpt>
      <trkpt lat="42.92876" lon="1.28935">
        <ele>1423</ele>
        <time>2026-05-25T11:08:04.000Z</time>
      </trkpt>
      <trkpt lat="42.92875" lon="1.28933">
        <ele>1423</ele>
        <time>2026-05-25T11:08:05.000Z</time>
      </trkpt>
      <trkpt lat="42.92875" lon="1.2893">
        <ele>1423</ele>
        <time>2026-05-25T11:08:06.000Z</time>
      </trkpt>
      <trkpt lat="42.92874" lon="1.28927">
        <ele>1423</ele>
        <time>2026-05-25T11:08:07.000Z</time>
      </trkpt>
      <trkpt lat="42.92873" lon="1.28925">
        <ele>1423</ele>
        <time>2026-05-25T11:08:08.000Z</time>
      </trkpt>
      <trkpt lat="42.92872" lon="1.28922">
        <ele>1423</ele>
        <time>2026-05-25T11:08:09.000Z</time>
      </trkpt>
      <trkpt lat="42.92871" lon="1.2892">
        <ele>1423</ele>
        <time>2026-05-25T11:08:10.000Z</time>
      </trkpt>
      <trkpt lat="42.92869" lon="1.28918">
        <ele>1423</ele>
        <time>2026-05-25T11:08:11.000Z</time>
      </trkpt>
      <trkpt lat="42.92868" lon="1.28916">
        <ele>1423</ele>
        <time>2026-05-25T11:08:12.000Z</time>
      </trkpt>
      <trkpt lat="42.92865" lon="1.28913">
        <ele>1423</ele>
        <time>2026-05-25T11:08:13.000Z</time>
      </trkpt>
      <trkpt lat="42.92862" lon="1.2891">
        <ele>1423</ele>
        <time>2026-05-25T11:08:14.000Z</time>
      </trkpt>
      <trkpt lat="42.92859" lon="1.28909">
        <ele>1422</ele>
        <time>2026-05-25T11:08:15.000Z</time>
      </trkpt>
      <trkpt lat="42.92856" lon="1.28907">
        <ele>1421</ele>
        <time>2026-05-25T11:08:16.000Z</time>
      </trkpt>
      <trkpt lat="42.92852" lon="1.28905">
        <ele>1421</ele>
        <time>2026-05-25T11:08:17.000Z</time>
      </trkpt>
      <trkpt lat="42.92849" lon="1.28904">
        <ele>1420</ele>
        <time>2026-05-25T11:08:18.000Z</time>
      </trkpt>
      <trkpt lat="42.92845" lon="1.28904">
        <ele>1420</ele>
        <time>2026-05-25T11:08:19.000Z</time>
      </trkpt>
      <trkpt lat="42.92841" lon="1.28901">
        <ele>1419</ele>
        <time>2026-05-25T11:08:20.000Z</time>
      </trkpt>
      <trkpt lat="42.92836" lon="1.289">
        <ele>1418</ele>
        <time>2026-05-25T11:08:21.000Z</time>
      </trkpt>
      <trkpt lat="42.92831" lon="1.28897">
        <ele>1418</ele>
        <time>2026-05-25T11:08:22.000Z</time>
      </trkpt>
      <trkpt lat="42.92826" lon="1.28894">
        <ele>1417</ele>
        <time>2026-05-25T11:08:23.000Z</time>
      </trkpt>
      <trkpt lat="42.92821" lon="1.28892">
        <ele>1417</ele>
        <time>2026-05-25T11:08:24.000Z</time>
      </trkpt>
      <trkpt lat="42.92818" lon="1.2889">
        <ele>1416</ele>
        <time>2026-05-25T11:08:25.000Z</time>
      </trkpt>
      <trkpt lat="42.92814" lon="1.28887">
        <ele>1416</ele>
        <time>2026-05-25T11:08:26.000Z</time>
      </trkpt>
      <trkpt lat="42.9281" lon="1.28884">
        <ele>1415</ele>
        <time>2026-05-25T11:08:27.000Z</time>
      </trkpt>
      <trkpt lat="42.92806" lon="1.28881">
        <ele>1414</ele>
        <time>2026-05-25T11:08:28.000Z</time>
      </trkpt>
      <trkpt lat="42.92802" lon="1.28879">
        <ele>1413</ele>
        <time>2026-05-25T11:08:29.000Z</time>
      </trkpt>
      <trkpt lat="42.92798" lon="1.28877">
        <ele>1412</ele>
        <time>2026-05-25T11:08:30.000Z</time>
      </trkpt>
      <trkpt lat="42.92792" lon="1.28873">
        <ele>1411</ele>
        <time>2026-05-25T11:08:31.000Z</time>
      </trkpt>
      <trkpt lat="42.92787" lon="1.28869">
        <ele>1409</ele>
        <time>2026-05-25T11:08:32.000Z</time>
      </trkpt>
      <trkpt lat="42.9278" lon="1.28863">
        <ele>1407</ele>
        <time>2026-05-25T11:08:33.000Z</time>
      </trkpt>
      <trkpt lat="42.92774" lon="1.28858">
        <ele>1405</ele>
        <time>2026-05-25T11:08:34.000Z</time>
      </trkpt>
      <trkpt lat="42.92767" lon="1.28851">
        <ele>1404</ele>
        <time>2026-05-25T11:08:35.000Z</time>
      </trkpt>
      <trkpt lat="42.9276" lon="1.28844">
        <ele>1404</ele>
        <time>2026-05-25T11:08:36.000Z</time>
      </trkpt>
      <trkpt lat="42.92754" lon="1.28837">
        <ele>1403</ele>
        <time>2026-05-25T11:08:37.000Z</time>
      </trkpt>
      <trkpt lat="42.92749" lon="1.2883">
        <ele>1402</ele>
        <time>2026-05-25T11:08:38.000Z</time>
      </trkpt>
      <trkpt lat="42.92744" lon="1.28824">
        <ele>1401</ele>
        <time>2026-05-25T11:08:39.000Z</time>
      </trkpt>
      <trkpt lat="42.9274" lon="1.2882">
        <ele>1399</ele>
        <time>2026-05-25T11:08:40.000Z</time>
      </trkpt>
      <trkpt lat="42.92736" lon="1.28814">
        <ele>1398</ele>
        <time>2026-05-25T11:08:41.000Z</time>
      </trkpt>
      <trkpt lat="42.92731" lon="1.28806">
        <ele>1396</ele>
        <time>2026-05-25T11:08:42.000Z</time>
      </trkpt>
      <trkpt lat="42.92725" lon="1.28798">
        <ele>1393</ele>
        <time>2026-05-25T11:08:43.000Z</time>
      </trkpt>
      <trkpt lat="42.92717" lon="1.28789">
        <ele>1391</ele>
        <time>2026-05-25T11:08:44.000Z</time>
      </trkpt>
      <trkpt lat="42.9271" lon="1.28781">
        <ele>1389</ele>
        <time>2026-05-25T11:08:45.000Z</time>
      </trkpt>
      <trkpt lat="42.92702" lon="1.28772">
        <ele>1388</ele>
        <time>2026-05-25T11:08:46.000Z</time>
      </trkpt>
      <trkpt lat="42.92697" lon="1.28766">
        <ele>1387</ele>
        <time>2026-05-25T11:08:47.000Z</time>
      </trkpt>
      <trkpt lat="42.92692" lon="1.28761">
        <ele>1387</ele>
        <time>2026-05-25T11:08:48.000Z</time>
      </trkpt>
      <trkpt lat="42.92685" lon="1.28756">
        <ele>1385</ele>
        <time>2026-05-25T11:08:49.000Z</time>
      </trkpt>
      <trkpt lat="42.92678" lon="1.28752">
        <ele>1383</ele>
        <time>2026-05-25T11:08:50.000Z</time>
      </trkpt>
      <trkpt lat="42.92669" lon="1.28749">
        <ele>1381</ele>
        <time>2026-05-25T11:08:51.000Z</time>
      </trkpt>
      <trkpt lat="42.92661" lon="1.28748">
        <ele>1380</ele>
        <time>2026-05-25T11:08:52.000Z</time>
      </trkpt>
      <trkpt lat="42.92654" lon="1.28748">
        <ele>1378</ele>
        <time>2026-05-25T11:08:53.000Z</time>
      </trkpt>
      <trkpt lat="42.92647" lon="1.28748">
        <ele>1377</ele>
        <time>2026-05-25T11:08:54.000Z</time>
      </trkpt>
      <trkpt lat="42.9264" lon="1.28747">
        <ele>1375</ele>
        <time>2026-05-25T11:08:55.000Z</time>
      </trkpt>
      <trkpt lat="42.92632" lon="1.28747">
        <ele>1373</ele>
        <time>2026-05-25T11:08:56.000Z</time>
      </trkpt>
      <trkpt lat="42.92623" lon="1.28746">
        <ele>1371</ele>
        <time>2026-05-25T11:08:57.000Z</time>
      </trkpt>
      <trkpt lat="42.92613" lon="1.28745">
        <ele>1369</ele>
        <time>2026-05-25T11:08:58.000Z</time>
      </trkpt>
      <trkpt lat="42.92603" lon="1.28744">
        <ele>1366</ele>
        <time>2026-05-25T11:08:59.000Z</time>
      </trkpt>
      <trkpt lat="42.92593" lon="1.28743">
        <ele>1364</ele>
        <time>2026-05-25T11:09:00.000Z</time>
      </trkpt>
      <trkpt lat="42.92583" lon="1.28743">
        <ele>1362</ele>
        <time>2026-05-25T11:09:01.000Z</time>
      </trkpt>
      <trkpt lat="42.92574" lon="1.28744">
        <ele>1361</ele>
        <time>2026-05-25T11:09:02.000Z</time>
      </trkpt>
      <trkpt lat="42.92564" lon="1.28745">
        <ele>1360</ele>
        <time>2026-05-25T11:09:03.000Z</time>
      </trkpt>
      <trkpt lat="42.92556" lon="1.28746">
        <ele>1360</ele>
        <time>2026-05-25T11:09:04.000Z</time>
      </trkpt>
      <trkpt lat="42.92546" lon="1.28746">
        <ele>1359</ele>
        <time>2026-05-25T11:09:05.000Z</time>
      </trkpt>
      <trkpt lat="42.92537" lon="1.28745">
        <ele>1357</ele>
        <time>2026-05-25T11:09:06.000Z</time>
      </trkpt>
      <trkpt lat="42.92527" lon="1.28746">
        <ele>1355</ele>
        <time>2026-05-25T11:09:07.000Z</time>
      </trkpt>
      <trkpt lat="42.92518" lon="1.28748">
        <ele>1353</ele>
        <time>2026-05-25T11:09:08.000Z</time>
      </trkpt>
      <trkpt lat="42.9251" lon="1.2875">
        <ele>1351</ele>
        <time>2026-05-25T11:09:09.000Z</time>
      </trkpt>
      <trkpt lat="42.92503" lon="1.2875">
        <ele>1349</ele>
        <time>2026-05-25T11:09:10.000Z</time>
      </trkpt>
      <trkpt lat="42.92498" lon="1.28751">
        <ele>1347</ele>
        <time>2026-05-25T11:09:11.000Z</time>
      </trkpt>
      <trkpt lat="42.92492" lon="1.28752">
        <ele>1345</ele>
        <time>2026-05-25T11:09:12.000Z</time>
      </trkpt>
      <trkpt lat="42.92485" lon="1.28754">
        <ele>1344</ele>
        <time>2026-05-25T11:09:13.000Z</time>
      </trkpt>
      <trkpt lat="42.92479" lon="1.28756">
        <ele>1343</ele>
        <time>2026-05-25T11:09:14.000Z</time>
      </trkpt>
      <trkpt lat="42.92471" lon="1.28758">
        <ele>1341</ele>
        <time>2026-05-25T11:09:15.000Z</time>
      </trkpt>
      <trkpt lat="42.92464" lon="1.28761">
        <ele>1338</ele>
        <time>2026-05-25T11:09:16.000Z</time>
      </trkpt>
      <trkpt lat="42.92457" lon="1.28765">
        <ele>1336</ele>
        <time>2026-05-25T11:09:17.000Z</time>
      </trkpt>
      <trkpt lat="42.92449" lon="1.28769">
        <ele>1334</ele>
        <time>2026-05-25T11:09:18.000Z</time>
      </trkpt>
      <trkpt lat="42.92442" lon="1.28773">
        <ele>1331</ele>
        <time>2026-05-25T11:09:19.000Z</time>
      </trkpt>
      <trkpt lat="42.92435" lon="1.28777">
        <ele>1329</ele>
        <time>2026-05-25T11:09:20.000Z</time>
      </trkpt>
      <trkpt lat="42.92429" lon="1.28781">
        <ele>1327</ele>
        <time>2026-05-25T11:09:21.000Z</time>
      </trkpt>
      <trkpt lat="42.92422" lon="1.28785">
        <ele>1324</ele>
        <time>2026-05-25T11:09:22.000Z</time>
      </trkpt>
      <trkpt lat="42.92415" lon="1.28789">
        <ele>1322</ele>
        <time>2026-05-25T11:09:23.000Z</time>
      </trkpt>
      <trkpt lat="42.92409" lon="1.28792">
        <ele>1320</ele>
        <time>2026-05-25T11:09:24.000Z</time>
      </trkpt>
      <trkpt lat="42.92404" lon="1.28795">
        <ele>1319</ele>
        <time>2026-05-25T11:09:25.000Z</time>
      </trkpt>
      <trkpt lat="42.92399" lon="1.28798">
        <ele>1318</ele>
        <time>2026-05-25T11:09:26.000Z</time>
      </trkpt>
      <trkpt lat="42.92393" lon="1.28801">
        <ele>1316</ele>
        <time>2026-05-25T11:09:27.000Z</time>
      </trkpt>
      <trkpt lat="42.92386" lon="1.28803">
        <ele>1313</ele>
        <time>2026-05-25T11:09:28.000Z</time>
      </trkpt>
      <trkpt lat="42.92379" lon="1.28805">
        <ele>1312</ele>
        <time>2026-05-25T11:09:29.000Z</time>
      </trkpt>
      <trkpt lat="42.92371" lon="1.28806">
        <ele>1310</ele>
        <time>2026-05-25T11:09:30.000Z</time>
      </trkpt>
      <trkpt lat="42.92362" lon="1.28807">
        <ele>1308</ele>
        <time>2026-05-25T11:09:31.000Z</time>
      </trkpt>
      <trkpt lat="42.92354" lon="1.28806">
        <ele>1306</ele>
        <time>2026-05-25T11:09:32.000Z</time>
      </trkpt>
      <trkpt lat="42.92346" lon="1.28804">
        <ele>1305</ele>
        <time>2026-05-25T11:09:33.000Z</time>
      </trkpt>
      <trkpt lat="42.92338" lon="1.28802">
        <ele>1304</ele>
        <time>2026-05-25T11:09:34.000Z</time>
      </trkpt>
      <trkpt lat="42.92331" lon="1.28798">
        <ele>1305</ele>
        <time>2026-05-25T11:09:35.000Z</time>
      </trkpt>
      <trkpt lat="42.92323" lon="1.28794">
        <ele>1305</ele>
        <time>2026-05-25T11:09:36.000Z</time>
      </trkpt>
      <trkpt lat="42.92317" lon="1.2879">
        <ele>1305</ele>
        <time>2026-05-25T11:09:37.000Z</time>
      </trkpt>
      <trkpt lat="42.92311" lon="1.28784">
        <ele>1306</ele>
        <time>2026-05-25T11:09:38.000Z</time>
      </trkpt>
      <trkpt lat="42.92308" lon="1.28777">
        <ele>1306</ele>
        <time>2026-05-25T11:09:39.000Z</time>
      </trkpt>
      <trkpt lat="42.92304" lon="1.28769">
        <ele>1306</ele>
        <time>2026-05-25T11:09:40.000Z</time>
      </trkpt>
      <trkpt lat="42.92302" lon="1.28762">
        <ele>1305</ele>
        <time>2026-05-25T11:09:41.000Z</time>
      </trkpt>
      <trkpt lat="42.923" lon="1.28755">
        <ele>1305</ele>
        <time>2026-05-25T11:09:42.000Z</time>
      </trkpt>
      <trkpt lat="42.92298" lon="1.28748">
        <ele>1305</ele>
        <time>2026-05-25T11:09:43.000Z</time>
      </trkpt>
      <trkpt lat="42.92296" lon="1.28742">
        <ele>1304</ele>
        <time>2026-05-25T11:09:44.000Z</time>
      </trkpt>
      <trkpt lat="42.92295" lon="1.28735">
        <ele>1304</ele>
        <time>2026-05-25T11:09:45.000Z</time>
      </trkpt>
      <trkpt lat="42.92294" lon="1.2873">
        <ele>1304</ele>
        <time>2026-05-25T11:09:46.000Z</time>
      </trkpt>
      <trkpt lat="42.92293" lon="1.28726">
        <ele>1304</ele>
        <time>2026-05-25T11:09:47.000Z</time>
      </trkpt>
      <trkpt lat="42.92293" lon="1.28723">
        <ele>1305</ele>
        <time>2026-05-25T11:09:48.000Z</time>
      </trkpt>
      <trkpt lat="42.92292" lon="1.2872">
        <ele>1305</ele>
        <time>2026-05-25T11:09:49.000Z</time>
      </trkpt>
      <trkpt lat="42.92291" lon="1.28718">
        <ele>1305</ele>
        <time>2026-05-25T11:09:50.000Z</time>
      </trkpt>
      <trkpt lat="42.92291" lon="1.28715">
        <ele>1305</ele>
        <time>2026-05-25T11:09:51.000Z</time>
      </trkpt>
      <trkpt lat="42.9229" lon="1.28713">
        <ele>1305</ele>
        <time>2026-05-25T11:09:52.000Z</time>
      </trkpt>
      <trkpt lat="42.9229" lon="1.28711">
        <ele>1306</ele>
        <time>2026-05-25T11:09:53.000Z</time>
      </trkpt>
      <trkpt lat="42.9229" lon="1.28708">
        <ele>1306</ele>
        <time>2026-05-25T11:09:54.000Z</time>
      </trkpt>
      <trkpt lat="42.92289" lon="1.28707">
        <ele>1307</ele>
        <time>2026-05-25T11:09:55.000Z</time>
      </trkpt>
      <trkpt lat="42.92289" lon="1.28704">
        <ele>1307</ele>
        <time>2026-05-25T11:09:56.000Z</time>
      </trkpt>
      <trkpt lat="42.92289" lon="1.28701">
        <ele>1307</ele>
        <time>2026-05-25T11:09:57.000Z</time>
      </trkpt>
      <trkpt lat="42.92289" lon="1.28698">
        <ele>1307</ele>
        <time>2026-05-25T11:09:58.000Z</time>
      </trkpt>
      <trkpt lat="42.92288" lon="1.28694">
        <ele>1308</ele>
        <time>2026-05-25T11:09:59.000Z</time>
      </trkpt>
      <trkpt lat="42.92287" lon="1.2869">
        <ele>1309</ele>
        <time>2026-05-25T11:10:00.000Z</time>
      </trkpt>
      <trkpt lat="42.92287" lon="1.28686">
        <ele>1310</ele>
        <time>2026-05-25T11:10:01.000Z</time>
      </trkpt>
      <trkpt lat="42.92286" lon="1.28681">
        <ele>1311</ele>
        <time>2026-05-25T11:10:02.000Z</time>
      </trkpt>
      <trkpt lat="42.92285" lon="1.28677">
        <ele>1311</ele>
        <time>2026-05-25T11:10:03.000Z</time>
      </trkpt>
      <trkpt lat="42.92284" lon="1.28671">
        <ele>1311</ele>
        <time>2026-05-25T11:10:04.000Z</time>
      </trkpt>
      <trkpt lat="42.92282" lon="1.28666">
        <ele>1311</ele>
        <time>2026-05-25T11:10:05.000Z</time>
      </trkpt>
      <trkpt lat="42.92279" lon="1.28659">
        <ele>1309</ele>
        <time>2026-05-25T11:10:06.000Z</time>
      </trkpt>
      <trkpt lat="42.92276" lon="1.2865">
        <ele>1308</ele>
        <time>2026-05-25T11:10:07.000Z</time>
      </trkpt>
      <trkpt lat="42.92271" lon="1.28641">
        <ele>1306</ele>
        <time>2026-05-25T11:10:08.000Z</time>
      </trkpt>
      <trkpt lat="42.92266" lon="1.28632">
        <ele>1303</ele>
        <time>2026-05-25T11:10:09.000Z</time>
      </trkpt>
      <trkpt lat="42.92259" lon="1.28623">
        <ele>1299</ele>
        <time>2026-05-25T11:10:10.000Z</time>
      </trkpt>
      <trkpt lat="42.92251" lon="1.28614">
        <ele>1296</ele>
        <time>2026-05-25T11:10:11.000Z</time>
      </trkpt>
      <trkpt lat="42.92242" lon="1.28607">
        <ele>1293</ele>
        <time>2026-05-25T11:10:12.000Z</time>
      </trkpt>
      <trkpt lat="42.92233" lon="1.28601">
        <ele>1290</ele>
        <time>2026-05-25T11:10:13.000Z</time>
      </trkpt>
      <trkpt lat="42.92224" lon="1.28595">
        <ele>1289</ele>
        <time>2026-05-25T11:10:14.000Z</time>
      </trkpt>
      <trkpt lat="42.92216" lon="1.2859">
        <ele>1288</ele>
        <time>2026-05-25T11:10:15.000Z</time>
      </trkpt>
      <trkpt lat="42.92209" lon="1.28585">
        <ele>1288</ele>
        <time>2026-05-25T11:10:16.000Z</time>
      </trkpt>
      <trkpt lat="42.92202" lon="1.2858">
        <ele>1288</ele>
        <time>2026-05-25T11:10:17.000Z</time>
      </trkpt>
      <trkpt lat="42.92196" lon="1.28576">
        <ele>1287</ele>
        <time>2026-05-25T11:10:18.000Z</time>
      </trkpt>
      <trkpt lat="42.9219" lon="1.28571">
        <ele>1287</ele>
        <time>2026-05-25T11:10:19.000Z</time>
      </trkpt>
      <trkpt lat="42.92186" lon="1.28565">
        <ele>1287</ele>
        <time>2026-05-25T11:10:20.000Z</time>
      </trkpt>
      <trkpt lat="42.92182" lon="1.28559">
        <ele>1287</ele>
        <time>2026-05-25T11:10:21.000Z</time>
      </trkpt>
      <trkpt lat="42.92179" lon="1.28553">
        <ele>1286</ele>
        <time>2026-05-25T11:10:22.000Z</time>
      </trkpt>
      <trkpt lat="42.92178" lon="1.28549">
        <ele>1285</ele>
        <time>2026-05-25T11:10:23.000Z</time>
      </trkpt>
      <trkpt lat="42.92177" lon="1.28546">
        <ele>1285</ele>
        <time>2026-05-25T11:10:24.000Z</time>
      </trkpt>
      <trkpt lat="42.92177" lon="1.28544">
        <ele>1285</ele>
        <time>2026-05-25T11:10:25.000Z</time>
      </trkpt>
      <trkpt lat="42.92178" lon="1.28543">
        <ele>1284</ele>
        <time>2026-05-25T11:10:26.000Z</time>
      </trkpt>
      <trkpt lat="42.9218" lon="1.28542">
        <ele>1284</ele>
        <time>2026-05-25T11:10:27.000Z</time>
      </trkpt>
      <trkpt lat="42.92183" lon="1.28539">
        <ele>1284</ele>
        <time>2026-05-25T11:10:28.000Z</time>
      </trkpt>
      <trkpt lat="42.92186" lon="1.28539">
        <ele>1284</ele>
        <time>2026-05-25T11:10:29.000Z</time>
      </trkpt>
      <trkpt lat="42.9219" lon="1.28539">
        <ele>1284</ele>
        <time>2026-05-25T11:10:30.000Z</time>
      </trkpt>
      <trkpt lat="42.92192" lon="1.28539">
        <ele>1285</ele>
        <time>2026-05-25T11:10:31.000Z</time>
      </trkpt>
      <trkpt lat="42.92196" lon="1.2854">
        <ele>1286</ele>
        <time>2026-05-25T11:10:32.000Z</time>
      </trkpt>
      <trkpt lat="42.92199" lon="1.28541">
        <ele>1286</ele>
        <time>2026-05-25T11:10:33.000Z</time>
      </trkpt>
      <trkpt lat="42.92202" lon="1.28542">
        <ele>1287</ele>
        <time>2026-05-25T11:10:34.000Z</time>
      </trkpt>
      <trkpt lat="42.92205" lon="1.28542">
        <ele>1288</ele>
        <time>2026-05-25T11:10:35.000Z</time>
      </trkpt>
      <trkpt lat="42.92208" lon="1.28544">
        <ele>1289</ele>
        <time>2026-05-25T11:10:36.000Z</time>
      </trkpt>
      <trkpt lat="42.92211" lon="1.28544">
        <ele>1289</ele>
        <time>2026-05-25T11:10:37.000Z</time>
      </trkpt>
      <trkpt lat="42.92216" lon="1.28545">
        <ele>1290</ele>
        <time>2026-05-25T11:10:38.000Z</time>
      </trkpt>
      <trkpt lat="42.9222" lon="1.28545">
        <ele>1289</ele>
        <time>2026-05-25T11:10:39.000Z</time>
      </trkpt>
      <trkpt lat="42.92225" lon="1.28546">
        <ele>1289</ele>
        <time>2026-05-25T11:10:40.000Z</time>
      </trkpt>
      <trkpt lat="42.9223" lon="1.28546">
        <ele>1290</ele>
        <time>2026-05-25T11:10:41.000Z</time>
      </trkpt>
      <trkpt lat="42.92235" lon="1.28545">
        <ele>1290</ele>
        <time>2026-05-25T11:10:42.000Z</time>
      </trkpt>
      <trkpt lat="42.9224" lon="1.28544">
        <ele>1290</ele>
        <time>2026-05-25T11:10:43.000Z</time>
      </trkpt>
      <trkpt lat="42.92245" lon="1.28542">
        <ele>1290</ele>
        <time>2026-05-25T11:10:44.000Z</time>
      </trkpt>
      <trkpt lat="42.92249" lon="1.28541">
        <ele>1289</ele>
        <time>2026-05-25T11:10:45.000Z</time>
      </trkpt>
      <trkpt lat="42.92254" lon="1.28538">
        <ele>1289</ele>
        <time>2026-05-25T11:10:46.000Z</time>
      </trkpt>
      <trkpt lat="42.92258" lon="1.28536">
        <ele>1288</ele>
        <time>2026-05-25T11:10:47.000Z</time>
      </trkpt>
      <trkpt lat="42.92261" lon="1.28533">
        <ele>1288</ele>
        <time>2026-05-25T11:10:48.000Z</time>
      </trkpt>
      <trkpt lat="42.92266" lon="1.2853">
        <ele>1288</ele>
        <time>2026-05-25T11:10:49.000Z</time>
      </trkpt>
      <trkpt lat="42.9227" lon="1.28527">
        <ele>1289</ele>
        <time>2026-05-25T11:10:50.000Z</time>
      </trkpt>
      <trkpt lat="42.92275" lon="1.28525">
        <ele>1289</ele>
        <time>2026-05-25T11:10:51.000Z</time>
      </trkpt>
      <trkpt lat="42.9228" lon="1.2852">
        <ele>1289</ele>
        <time>2026-05-25T11:10:52.000Z</time>
      </trkpt>
      <trkpt lat="42.92285" lon="1.28517">
        <ele>1289</ele>
        <time>2026-05-25T11:10:53.000Z</time>
      </trkpt>
      <trkpt lat="42.92291" lon="1.28514">
        <ele>1289</ele>
        <time>2026-05-25T11:10:54.000Z</time>
      </trkpt>
      <trkpt lat="42.92296" lon="1.2851">
        <ele>1289</ele>
        <time>2026-05-25T11:10:55.000Z</time>
      </trkpt>
      <trkpt lat="42.92302" lon="1.28507">
        <ele>1290</ele>
        <time>2026-05-25T11:10:56.000Z</time>
      </trkpt>
      <trkpt lat="42.92306" lon="1.28504">
        <ele>1292</ele>
        <time>2026-05-25T11:10:57.000Z</time>
      </trkpt>
      <trkpt lat="42.92312" lon="1.28501">
        <ele>1296</ele>
        <time>2026-05-25T11:10:58.000Z</time>
      </trkpt>
      <trkpt lat="42.92317" lon="1.28498">
        <ele>1298</ele>
        <time>2026-05-25T11:10:59.000Z</time>
      </trkpt>
      <trkpt lat="42.92321" lon="1.28493">
        <ele>1301</ele>
        <time>2026-05-25T11:11:00.000Z</time>
      </trkpt>
      <trkpt lat="42.92327" lon="1.28489">
        <ele>1304</ele>
        <time>2026-05-25T11:11:01.000Z</time>
      </trkpt>
      <trkpt lat="42.92332" lon="1.28482">
        <ele>1306</ele>
        <time>2026-05-25T11:11:02.000Z</time>
      </trkpt>
      <trkpt lat="42.92338" lon="1.28475">
        <ele>1308</ele>
        <time>2026-05-25T11:11:03.000Z</time>
      </trkpt>
      <trkpt lat="42.92344" lon="1.28467">
        <ele>1309</ele>
        <time>2026-05-25T11:11:04.000Z</time>
      </trkpt>
      <trkpt lat="42.9235" lon="1.28459">
        <ele>1310</ele>
        <time>2026-05-25T11:11:05.000Z</time>
      </trkpt>
      <trkpt lat="42.92356" lon="1.28448">
        <ele>1310</ele>
        <time>2026-05-25T11:11:06.000Z</time>
      </trkpt>
      <trkpt lat="42.92362" lon="1.28437">
        <ele>1308</ele>
        <time>2026-05-25T11:11:07.000Z</time>
      </trkpt>
      <trkpt lat="42.92366" lon="1.28427">
        <ele>1305</ele>
        <time>2026-05-25T11:11:08.000Z</time>
      </trkpt>
      <trkpt lat="42.92367" lon="1.28416">
        <ele>1302</ele>
        <time>2026-05-25T11:11:09.000Z</time>
      </trkpt>
      <trkpt lat="42.92369" lon="1.28405">
        <ele>1299</ele>
        <time>2026-05-25T11:11:10.000Z</time>
      </trkpt>
      <trkpt lat="42.9237" lon="1.28393">
        <ele>1296</ele>
        <time>2026-05-25T11:11:11.000Z</time>
      </trkpt>
      <trkpt lat="42.92373" lon="1.28382">
        <ele>1294</ele>
        <time>2026-05-25T11:11:12.000Z</time>
      </trkpt>
      <trkpt lat="42.92378" lon="1.28371">
        <ele>1291</ele>
        <time>2026-05-25T11:11:13.000Z</time>
      </trkpt>
      <trkpt lat="42.92383" lon="1.28361">
        <ele>1287</ele>
        <time>2026-05-25T11:11:14.000Z</time>
      </trkpt>
      <trkpt lat="42.92388" lon="1.2835">
        <ele>1285</ele>
        <time>2026-05-25T11:11:15.000Z</time>
      </trkpt>
      <trkpt lat="42.92394" lon="1.28339">
        <ele>1282</ele>
        <time>2026-05-25T11:11:16.000Z</time>
      </trkpt>
      <trkpt lat="42.92401" lon="1.28329">
        <ele>1279</ele>
        <time>2026-05-25T11:11:17.000Z</time>
      </trkpt>
      <trkpt lat="42.92406" lon="1.28319">
        <ele>1276</ele>
        <time>2026-05-25T11:11:18.000Z</time>
      </trkpt>
      <trkpt lat="42.92412" lon="1.28309">
        <ele>1274</ele>
        <time>2026-05-25T11:11:19.000Z</time>
      </trkpt>
      <trkpt lat="42.92418" lon="1.28298">
        <ele>1271</ele>
        <time>2026-05-25T11:11:20.000Z</time>
      </trkpt>
      <trkpt lat="42.92425" lon="1.28287">
        <ele>1268</ele>
        <time>2026-05-25T11:11:21.000Z</time>
      </trkpt>
      <trkpt lat="42.92432" lon="1.28277">
        <ele>1266</ele>
        <time>2026-05-25T11:11:22.000Z</time>
      </trkpt>
      <trkpt lat="42.9244" lon="1.28267">
        <ele>1264</ele>
        <time>2026-05-25T11:11:23.000Z</time>
      </trkpt>
      <trkpt lat="42.92447" lon="1.28257">
        <ele>1262</ele>
        <time>2026-05-25T11:11:24.000Z</time>
      </trkpt>
      <trkpt lat="42.92454" lon="1.28247">
        <ele>1260</ele>
        <time>2026-05-25T11:11:25.000Z</time>
      </trkpt>
      <trkpt lat="42.92461" lon="1.28237">
        <ele>1258</ele>
        <time>2026-05-25T11:11:26.000Z</time>
      </trkpt>
      <trkpt lat="42.92468" lon="1.28226">
        <ele>1257</ele>
        <time>2026-05-25T11:11:27.000Z</time>
      </trkpt>
      <trkpt lat="42.92474" lon="1.28215">
        <ele>1256</ele>
        <time>2026-05-25T11:11:28.000Z</time>
      </trkpt>
      <trkpt lat="42.92478" lon="1.28204">
        <ele>1255</ele>
        <time>2026-05-25T11:11:29.000Z</time>
      </trkpt>
      <trkpt lat="42.92483" lon="1.28192">
        <ele>1253</ele>
        <time>2026-05-25T11:11:30.000Z</time>
      </trkpt>
      <trkpt lat="42.92489" lon="1.2818">
        <ele>1253</ele>
        <time>2026-05-25T11:11:31.000Z</time>
      </trkpt>
      <trkpt lat="42.92495" lon="1.28169">
        <ele>1252</ele>
        <time>2026-05-25T11:11:32.000Z</time>
      </trkpt>
      <trkpt lat="42.92501" lon="1.28158">
        <ele>1251</ele>
        <time>2026-05-25T11:11:33.000Z</time>
      </trkpt>
      <trkpt lat="42.92506" lon="1.28148">
        <ele>1251</ele>
        <time>2026-05-25T11:11:34.000Z</time>
      </trkpt>
      <trkpt lat="42.92512" lon="1.28138">
        <ele>1250</ele>
        <time>2026-05-25T11:11:35.000Z</time>
      </trkpt>
      <trkpt lat="42.92517" lon="1.28132">
        <ele>1250</ele>
        <time>2026-05-25T11:11:36.000Z</time>
      </trkpt>
      <trkpt lat="42.92521" lon="1.28128">
        <ele>1250</ele>
        <time>2026-05-25T11:11:37.000Z</time>
      </trkpt>
      <trkpt lat="42.92524" lon="1.28123">
        <ele>1250</ele>
        <time>2026-05-25T11:11:38.000Z</time>
      </trkpt>
      <trkpt lat="42.92523" lon="1.28119">
        <ele>1250</ele>
        <time>2026-05-25T11:11:39.000Z</time>
      </trkpt>
      <trkpt lat="42.92522" lon="1.28115">
        <ele>1251</ele>
        <time>2026-05-25T11:11:40.000Z</time>
      </trkpt>
      <trkpt lat="42.92518" lon="1.28115">
        <ele>1251</ele>
        <time>2026-05-25T11:11:41.000Z</time>
      </trkpt>
      <trkpt lat="42.92515" lon="1.28119">
        <ele>1251</ele>
        <time>2026-05-25T11:11:42.000Z</time>
      </trkpt>
      <trkpt lat="42.92511" lon="1.28124">
        <ele>1250</ele>
        <time>2026-05-25T11:11:43.000Z</time>
      </trkpt>
      <trkpt lat="42.92507" lon="1.28128">
        <ele>1249</ele>
        <time>2026-05-25T11:11:44.000Z</time>
      </trkpt>
      <trkpt lat="42.92502" lon="1.28133">
        <ele>1248</ele>
        <time>2026-05-25T11:11:45.000Z</time>
      </trkpt>
      <trkpt lat="42.92497" lon="1.28137">
        <ele>1247</ele>
        <time>2026-05-25T11:11:46.000Z</time>
      </trkpt>
      <trkpt lat="42.92492" lon="1.28142">
        <ele>1247</ele>
        <time>2026-05-25T11:11:47.000Z</time>
      </trkpt>
      <trkpt lat="42.92487" lon="1.28146">
        <ele>1247</ele>
        <time>2026-05-25T11:11:48.000Z</time>
      </trkpt>
      <trkpt lat="42.9248" lon="1.2815">
        <ele>1246</ele>
        <time>2026-05-25T11:11:49.000Z</time>
      </trkpt>
      <trkpt lat="42.92473" lon="1.28156">
        <ele>1246</ele>
        <time>2026-05-25T11:11:50.000Z</time>
      </trkpt>
      <trkpt lat="42.92465" lon="1.28161">
        <ele>1244</ele>
        <time>2026-05-25T11:11:51.000Z</time>
      </trkpt>
      <trkpt lat="42.92458" lon="1.28168">
        <ele>1243</ele>
        <time>2026-05-25T11:11:52.000Z</time>
      </trkpt>
      <trkpt lat="42.92451" lon="1.28174">
        <ele>1241</ele>
        <time>2026-05-25T11:11:53.000Z</time>
      </trkpt>
      <trkpt lat="42.92444" lon="1.28181">
        <ele>1240</ele>
        <time>2026-05-25T11:11:54.000Z</time>
      </trkpt>
      <trkpt lat="42.92436" lon="1.28188">
        <ele>1238</ele>
        <time>2026-05-25T11:11:55.000Z</time>
      </trkpt>
      <trkpt lat="42.92428" lon="1.28194">
        <ele>1238</ele>
        <time>2026-05-25T11:11:56.000Z</time>
      </trkpt>
      <trkpt lat="42.92419" lon="1.28199">
        <ele>1237</ele>
        <time>2026-05-25T11:11:57.000Z</time>
      </trkpt>
      <trkpt lat="42.9241" lon="1.28204">
        <ele>1235</ele>
        <time>2026-05-25T11:11:58.000Z</time>
      </trkpt>
      <trkpt lat="42.92402" lon="1.2821">
        <ele>1235</ele>
        <time>2026-05-25T11:11:59.000Z</time>
      </trkpt>
      <trkpt lat="42.92393" lon="1.28215">
        <ele>1234</ele>
        <time>2026-05-25T11:12:00.000Z</time>
      </trkpt>
      <trkpt lat="42.92384" lon="1.2822">
        <ele>1234</ele>
        <time>2026-05-25T11:12:01.000Z</time>
      </trkpt>
      <trkpt lat="42.92376" lon="1.28225">
        <ele>1233</ele>
        <time>2026-05-25T11:12:02.000Z</time>
      </trkpt>
      <trkpt lat="42.92369" lon="1.28231">
        <ele>1232</ele>
        <time>2026-05-25T11:12:03.000Z</time>
      </trkpt>
      <trkpt lat="42.92362" lon="1.28236">
        <ele>1232</ele>
        <time>2026-05-25T11:12:04.000Z</time>
      </trkpt>
      <trkpt lat="42.92358" lon="1.28241">
        <ele>1232</ele>
        <time>2026-05-25T11:12:05.000Z</time>
      </trkpt>
      <trkpt lat="42.92355" lon="1.28244">
        <ele>1232</ele>
        <time>2026-05-25T11:12:06.000Z</time>
      </trkpt>
      <trkpt lat="42.92353" lon="1.28244">
        <ele>1232</ele>
        <time>2026-05-25T11:12:07.000Z</time>
      </trkpt>
      <trkpt lat="42.92352" lon="1.28244">
        <ele>1231</ele>
        <time>2026-05-25T11:12:08.000Z</time>
      </trkpt>
      <trkpt lat="42.92353" lon="1.2824">
        <ele>1231</ele>
        <time>2026-05-25T11:12:09.000Z</time>
      </trkpt>
      <trkpt lat="42.92355" lon="1.28236">
        <ele>1231</ele>
        <time>2026-05-25T11:12:10.000Z</time>
      </trkpt>
      <trkpt lat="42.92358" lon="1.28233">
        <ele>1232</ele>
        <time>2026-05-25T11:12:11.000Z</time>
      </trkpt>
      <trkpt lat="42.92359" lon="1.2823">
        <ele>1232</ele>
        <time>2026-05-25T11:12:12.000Z</time>
      </trkpt>
      <trkpt lat="42.92363" lon="1.28227">
        <ele>1232</ele>
        <time>2026-05-25T11:12:13.000Z</time>
      </trkpt>
      <trkpt lat="42.92367" lon="1.28222">
        <ele>1232</ele>
        <time>2026-05-25T11:12:14.000Z</time>
      </trkpt>
      <trkpt lat="42.9237" lon="1.28218">
        <ele>1232</ele>
        <time>2026-05-25T11:12:15.000Z</time>
      </trkpt>
      <trkpt lat="42.92374" lon="1.28212">
        <ele>1232</ele>
        <time>2026-05-25T11:12:16.000Z</time>
      </trkpt>
      <trkpt lat="42.92378" lon="1.28206">
        <ele>1231</ele>
        <time>2026-05-25T11:12:17.000Z</time>
      </trkpt>
      <trkpt lat="42.92382" lon="1.28199">
        <ele>1231</ele>
        <time>2026-05-25T11:12:18.000Z</time>
      </trkpt>
      <trkpt lat="42.92386" lon="1.28193">
        <ele>1230</ele>
        <time>2026-05-25T11:12:19.000Z</time>
      </trkpt>
      <trkpt lat="42.92391" lon="1.28185">
        <ele>1231</ele>
        <time>2026-05-25T11:12:20.000Z</time>
      </trkpt>
      <trkpt lat="42.92395" lon="1.28178">
        <ele>1231</ele>
        <time>2026-05-25T11:12:21.000Z</time>
      </trkpt>
      <trkpt lat="42.924" lon="1.28171">
        <ele>1231</ele>
        <time>2026-05-25T11:12:22.000Z</time>
      </trkpt>
      <trkpt lat="42.92403" lon="1.28162">
        <ele>1230</ele>
        <time>2026-05-25T11:12:23.000Z</time>
      </trkpt>
      <trkpt lat="42.92407" lon="1.28154">
        <ele>1230</ele>
        <time>2026-05-25T11:12:24.000Z</time>
      </trkpt>
      <trkpt lat="42.92412" lon="1.28146">
        <ele>1230</ele>
        <time>2026-05-25T11:12:25.000Z</time>
      </trkpt>
      <trkpt lat="42.92416" lon="1.28137">
        <ele>1230</ele>
        <time>2026-05-25T11:12:26.000Z</time>
      </trkpt>
      <trkpt lat="42.92422" lon="1.28129">
        <ele>1229</ele>
        <time>2026-05-25T11:12:27.000Z</time>
      </trkpt>
      <trkpt lat="42.92427" lon="1.28121">
        <ele>1229</ele>
        <time>2026-05-25T11:12:28.000Z</time>
      </trkpt>
      <trkpt lat="42.92433" lon="1.28113">
        <ele>1228</ele>
        <time>2026-05-25T11:12:29.000Z</time>
      </trkpt>
      <trkpt lat="42.92437" lon="1.28102">
        <ele>1228</ele>
        <time>2026-05-25T11:12:30.000Z</time>
      </trkpt>
      <trkpt lat="42.92441" lon="1.28091">
        <ele>1227</ele>
        <time>2026-05-25T11:12:31.000Z</time>
      </trkpt>
      <trkpt lat="42.92443" lon="1.28081">
        <ele>1227</ele>
        <time>2026-05-25T11:12:32.000Z</time>
      </trkpt>
      <trkpt lat="42.92446" lon="1.28072">
        <ele>1227</ele>
        <time>2026-05-25T11:12:33.000Z</time>
      </trkpt>
      <trkpt lat="42.92448" lon="1.28062">
        <ele>1227</ele>
        <time>2026-05-25T11:12:34.000Z</time>
      </trkpt>
      <trkpt lat="42.9245" lon="1.28052">
        <ele>1226</ele>
        <time>2026-05-25T11:12:35.000Z</time>
      </trkpt>
      <trkpt lat="42.92451" lon="1.28043">
        <ele>1226</ele>
        <time>2026-05-25T11:12:36.000Z</time>
      </trkpt>
      <trkpt lat="42.92452" lon="1.28033">
        <ele>1225</ele>
        <time>2026-05-25T11:12:37.000Z</time>
      </trkpt>
      <trkpt lat="42.92455" lon="1.28023">
        <ele>1225</ele>
        <time>2026-05-25T11:12:38.000Z</time>
      </trkpt>
      <trkpt lat="42.92457" lon="1.28013">
        <ele>1225</ele>
        <time>2026-05-25T11:12:39.000Z</time>
      </trkpt>
      <trkpt lat="42.92459" lon="1.28001">
        <ele>1224</ele>
        <time>2026-05-25T11:12:40.000Z</time>
      </trkpt>
      <trkpt lat="42.92463" lon="1.2799">
        <ele>1224</ele>
        <time>2026-05-25T11:12:41.000Z</time>
      </trkpt>
      <trkpt lat="42.92465" lon="1.27979">
        <ele>1223</ele>
        <time>2026-05-25T11:12:42.000Z</time>
      </trkpt>
      <trkpt lat="42.92467" lon="1.2797">
        <ele>1223</ele>
        <time>2026-05-25T11:12:43.000Z</time>
      </trkpt>
      <trkpt lat="42.92469" lon="1.2796">
        <ele>1223</ele>
        <time>2026-05-25T11:12:44.000Z</time>
      </trkpt>
      <trkpt lat="42.92471" lon="1.2795">
        <ele>1222</ele>
        <time>2026-05-25T11:12:45.000Z</time>
      </trkpt>
      <trkpt lat="42.92474" lon="1.27939">
        <ele>1222</ele>
        <time>2026-05-25T11:12:46.000Z</time>
      </trkpt>
      <trkpt lat="42.92478" lon="1.27927">
        <ele>1222</ele>
        <time>2026-05-25T11:12:47.000Z</time>
      </trkpt>
      <trkpt lat="42.92481" lon="1.27916">
        <ele>1221</ele>
        <time>2026-05-25T11:12:48.000Z</time>
      </trkpt>
      <trkpt lat="42.92484" lon="1.27905">
        <ele>1220</ele>
        <time>2026-05-25T11:12:49.000Z</time>
      </trkpt>
      <trkpt lat="42.92487" lon="1.27893">
        <ele>1220</ele>
        <time>2026-05-25T11:12:50.000Z</time>
      </trkpt>
      <trkpt lat="42.92491" lon="1.27881">
        <ele>1219</ele>
        <time>2026-05-25T11:12:51.000Z</time>
      </trkpt>
      <trkpt lat="42.92496" lon="1.2787">
        <ele>1219</ele>
        <time>2026-05-25T11:12:52.000Z</time>
      </trkpt>
      <trkpt lat="42.92502" lon="1.27859">
        <ele>1219</ele>
        <time>2026-05-25T11:12:53.000Z</time>
      </trkpt>
      <trkpt lat="42.92508" lon="1.27848">
        <ele>1217</ele>
        <time>2026-05-25T11:12:54.000Z</time>
      </trkpt>
      <trkpt lat="42.92514" lon="1.2784">
        <ele>1217</ele>
        <time>2026-05-25T11:12:55.000Z</time>
      </trkpt>
      <trkpt lat="42.92521" lon="1.27832">
        <ele>1217</ele>
        <time>2026-05-25T11:12:56.000Z</time>
      </trkpt>
      <trkpt lat="42.92529" lon="1.27826">
        <ele>1216</ele>
        <time>2026-05-25T11:12:57.000Z</time>
      </trkpt>
      <trkpt lat="42.92536" lon="1.27822">
        <ele>1215</ele>
        <time>2026-05-25T11:12:58.000Z</time>
      </trkpt>
      <trkpt lat="42.92542" lon="1.2782">
        <ele>1214</ele>
        <time>2026-05-25T11:12:59.000Z</time>
      </trkpt>
      <trkpt lat="42.92548" lon="1.27819">
        <ele>1213</ele>
        <time>2026-05-25T11:13:00.000Z</time>
      </trkpt>
      <trkpt lat="42.92554" lon="1.27818">
        <ele>1213</ele>
        <time>2026-05-25T11:13:01.000Z</time>
      </trkpt>
      <trkpt lat="42.92559" lon="1.27821">
        <ele>1214</ele>
        <time>2026-05-25T11:13:02.000Z</time>
      </trkpt>
      <trkpt lat="42.92565" lon="1.27826">
        <ele>1214</ele>
        <time>2026-05-25T11:13:03.000Z</time>
      </trkpt>
      <trkpt lat="42.9257" lon="1.27833">
        <ele>1215</ele>
        <time>2026-05-25T11:13:04.000Z</time>
      </trkpt>
      <trkpt lat="42.92576" lon="1.2784">
        <ele>1216</ele>
        <time>2026-05-25T11:13:05.000Z</time>
      </trkpt>
      <trkpt lat="42.92581" lon="1.27846">
        <ele>1217</ele>
        <time>2026-05-25T11:13:06.000Z</time>
      </trkpt>
      <trkpt lat="42.92585" lon="1.2785">
        <ele>1219</ele>
        <time>2026-05-25T11:13:07.000Z</time>
      </trkpt>
      <trkpt lat="42.9259" lon="1.27856">
        <ele>1221</ele>
        <time>2026-05-25T11:13:08.000Z</time>
      </trkpt>
      <trkpt lat="42.92597" lon="1.27859">
        <ele>1221</ele>
        <time>2026-05-25T11:13:09.000Z</time>
      </trkpt>
      <trkpt lat="42.92604" lon="1.2786">
        <ele>1218</ele>
        <time>2026-05-25T11:13:10.000Z</time>
      </trkpt>
      <trkpt lat="42.9261" lon="1.27857">
        <ele>1217</ele>
        <time>2026-05-25T11:13:11.000Z</time>
      </trkpt>
      <trkpt lat="42.92613" lon="1.27853">
        <ele>1215</ele>
        <time>2026-05-25T11:13:12.000Z</time>
      </trkpt>
      <trkpt lat="42.92618" lon="1.27846">
        <ele>1215</ele>
        <time>2026-05-25T11:13:13.000Z</time>
      </trkpt>
      <trkpt lat="42.92622" lon="1.2784">
        <ele>1214</ele>
        <time>2026-05-25T11:13:14.000Z</time>
      </trkpt>
      <trkpt lat="42.92627" lon="1.27834">
        <ele>1212</ele>
        <time>2026-05-25T11:13:15.000Z</time>
      </trkpt>
      <trkpt lat="42.92633" lon="1.27826">
        <ele>1211</ele>
        <time>2026-05-25T11:13:16.000Z</time>
      </trkpt>
      <trkpt lat="42.92639" lon="1.27817">
        <ele>1210</ele>
        <time>2026-05-25T11:13:17.000Z</time>
      </trkpt>
      <trkpt lat="42.92643" lon="1.27808">
        <ele>1209</ele>
        <time>2026-05-25T11:13:18.000Z</time>
      </trkpt>
      <trkpt lat="42.92648" lon="1.278">
        <ele>1209</ele>
        <time>2026-05-25T11:13:19.000Z</time>
      </trkpt>
      <trkpt lat="42.92652" lon="1.27792">
        <ele>1208</ele>
        <time>2026-05-25T11:13:20.000Z</time>
      </trkpt>
      <trkpt lat="42.92656" lon="1.27783">
        <ele>1207</ele>
        <time>2026-05-25T11:13:21.000Z</time>
      </trkpt>
      <trkpt lat="42.92659" lon="1.27776">
        <ele>1207</ele>
        <time>2026-05-25T11:13:22.000Z</time>
      </trkpt>
      <trkpt lat="42.92663" lon="1.27768">
        <ele>1205</ele>
        <time>2026-05-25T11:13:23.000Z</time>
      </trkpt>
      <trkpt lat="42.92666" lon="1.27761">
        <ele>1205</ele>
        <time>2026-05-25T11:13:24.000Z</time>
      </trkpt>
      <trkpt lat="42.92668" lon="1.27755">
        <ele>1204</ele>
        <time>2026-05-25T11:13:25.000Z</time>
      </trkpt>
      <trkpt lat="42.92672" lon="1.27749">
        <ele>1204</ele>
        <time>2026-05-25T11:13:26.000Z</time>
      </trkpt>
      <trkpt lat="42.92675" lon="1.27744">
        <ele>1204</ele>
        <time>2026-05-25T11:13:27.000Z</time>
      </trkpt>
      <trkpt lat="42.92677" lon="1.27738">
        <ele>1203</ele>
        <time>2026-05-25T11:13:28.000Z</time>
      </trkpt>
      <trkpt lat="42.9268" lon="1.27733">
        <ele>1203</ele>
        <time>2026-05-25T11:13:29.000Z</time>
      </trkpt>
      <trkpt lat="42.92682" lon="1.27727">
        <ele>1203</ele>
        <time>2026-05-25T11:13:30.000Z</time>
      </trkpt>
      <trkpt lat="42.92685" lon="1.27721">
        <ele>1202</ele>
        <time>2026-05-25T11:13:31.000Z</time>
      </trkpt>
      <trkpt lat="42.92687" lon="1.27716">
        <ele>1202</ele>
        <time>2026-05-25T11:13:32.000Z</time>
      </trkpt>
      <trkpt lat="42.92689" lon="1.27711">
        <ele>1202</ele>
        <time>2026-05-25T11:13:33.000Z</time>
      </trkpt>
      <trkpt lat="42.92692" lon="1.27707">
        <ele>1203</ele>
        <time>2026-05-25T11:13:34.000Z</time>
      </trkpt>
      <trkpt lat="42.92693" lon="1.27703">
        <ele>1202</ele>
        <time>2026-05-25T11:13:35.000Z</time>
      </trkpt>
      <trkpt lat="42.92694" lon="1.27698">
        <ele>1201</ele>
        <time>2026-05-25T11:13:36.000Z</time>
      </trkpt>
      <trkpt lat="42.92696" lon="1.27695">
        <ele>1201</ele>
        <time>2026-05-25T11:13:37.000Z</time>
      </trkpt>
      <trkpt lat="42.92697" lon="1.27691">
        <ele>1202</ele>
        <time>2026-05-25T11:13:38.000Z</time>
      </trkpt>
      <trkpt lat="42.92699" lon="1.27687">
        <ele>1202</ele>
        <time>2026-05-25T11:13:39.000Z</time>
      </trkpt>
      <trkpt lat="42.92701" lon="1.27684">
        <ele>1202</ele>
        <time>2026-05-25T11:13:40.000Z</time>
      </trkpt>
      <trkpt lat="42.92703" lon="1.27681">
        <ele>1203</ele>
        <time>2026-05-25T11:13:41.000Z</time>
      </trkpt>
      <trkpt lat="42.92706" lon="1.27678">
        <ele>1203</ele>
        <time>2026-05-25T11:13:42.000Z</time>
      </trkpt>
      <trkpt lat="42.92709" lon="1.27675">
        <ele>1204</ele>
        <time>2026-05-25T11:13:43.000Z</time>
      </trkpt>
      <trkpt lat="42.92712" lon="1.27672">
        <ele>1205</ele>
        <time>2026-05-25T11:13:44.000Z</time>
      </trkpt>
      <trkpt lat="42.92715" lon="1.27671">
        <ele>1206</ele>
        <time>2026-05-25T11:13:45.000Z</time>
      </trkpt>
      <trkpt lat="42.92719" lon="1.27669">
        <ele>1206</ele>
        <time>2026-05-25T11:13:46.000Z</time>
      </trkpt>
      <trkpt lat="42.92722" lon="1.2767">
        <ele>1207</ele>
        <time>2026-05-25T11:13:47.000Z</time>
      </trkpt>
      <trkpt lat="42.92726" lon="1.27671">
        <ele>1207</ele>
        <time>2026-05-25T11:13:48.000Z</time>
      </trkpt>
      <trkpt lat="42.92729" lon="1.27676">
        <ele>1208</ele>
        <time>2026-05-25T11:13:49.000Z</time>
      </trkpt>
      <trkpt lat="42.92732" lon="1.27678">
        <ele>1208</ele>
        <time>2026-05-25T11:13:50.000Z</time>
      </trkpt>
      <trkpt lat="42.92734" lon="1.2768">
        <ele>1208</ele>
        <time>2026-05-25T11:13:51.000Z</time>
      </trkpt>
      <trkpt lat="42.92737" lon="1.27685">
        <ele>1208</ele>
        <time>2026-05-25T11:13:52.000Z</time>
      </trkpt>
      <trkpt lat="42.92741" lon="1.27689">
        <ele>1208</ele>
        <time>2026-05-25T11:13:53.000Z</time>
      </trkpt>
      <trkpt lat="42.92745" lon="1.27695">
        <ele>1208</ele>
        <time>2026-05-25T11:13:54.000Z</time>
      </trkpt>
      <trkpt lat="42.92749" lon="1.27699">
        <ele>1208</ele>
        <time>2026-05-25T11:13:55.000Z</time>
      </trkpt>
      <trkpt lat="42.92752" lon="1.27702">
        <ele>1209</ele>
        <time>2026-05-25T11:13:56.000Z</time>
      </trkpt>
      <trkpt lat="42.92755" lon="1.27707">
        <ele>1210</ele>
        <time>2026-05-25T11:13:57.000Z</time>
      </trkpt>
      <trkpt lat="42.92758" lon="1.27712">
        <ele>1211</ele>
        <time>2026-05-25T11:13:58.000Z</time>
      </trkpt>
      <trkpt lat="42.92761" lon="1.27715">
        <ele>1213</ele>
        <time>2026-05-25T11:13:59.000Z</time>
      </trkpt>
      <trkpt lat="42.92764" lon="1.27718">
        <ele>1214</ele>
        <time>2026-05-25T11:14:00.000Z</time>
      </trkpt>
      <trkpt lat="42.92766" lon="1.27722">
        <ele>1214</ele>
        <time>2026-05-25T11:14:01.000Z</time>
      </trkpt>
      <trkpt lat="42.92769" lon="1.27724">
        <ele>1215</ele>
        <time>2026-05-25T11:14:02.000Z</time>
      </trkpt>
      <trkpt lat="42.92773" lon="1.27726">
        <ele>1217</ele>
        <time>2026-05-25T11:14:03.000Z</time>
      </trkpt>
      <trkpt lat="42.92777" lon="1.27729">
        <ele>1219</ele>
        <time>2026-05-25T11:14:04.000Z</time>
      </trkpt>
      <trkpt lat="42.92781" lon="1.27732">
        <ele>1220</ele>
        <time>2026-05-25T11:14:05.000Z</time>
      </trkpt>
      <trkpt lat="42.92787" lon="1.27736">
        <ele>1221</ele>
        <time>2026-05-25T11:14:06.000Z</time>
      </trkpt>
      <trkpt lat="42.92793" lon="1.2774">
        <ele>1219</ele>
        <time>2026-05-25T11:14:07.000Z</time>
      </trkpt>
      <trkpt lat="42.92798" lon="1.27744">
        <ele>1219</ele>
        <time>2026-05-25T11:14:08.000Z</time>
      </trkpt>
      <trkpt lat="42.92803" lon="1.27747">
        <ele>1220</ele>
        <time>2026-05-25T11:14:09.000Z</time>
      </trkpt>
      <trkpt lat="42.92807" lon="1.27751">
        <ele>1220</ele>
        <time>2026-05-25T11:14:10.000Z</time>
      </trkpt>
      <trkpt lat="42.9281" lon="1.27754">
        <ele>1220</ele>
        <time>2026-05-25T11:14:11.000Z</time>
      </trkpt>
      <trkpt lat="42.92813" lon="1.27756">
        <ele>1221</ele>
        <time>2026-05-25T11:14:12.000Z</time>
      </trkpt>
      <trkpt lat="42.92817" lon="1.27757">
        <ele>1221</ele>
        <time>2026-05-25T11:14:13.000Z</time>
      </trkpt>
      <trkpt lat="42.92822" lon="1.27755">
        <ele>1221</ele>
        <time>2026-05-25T11:14:14.000Z</time>
      </trkpt>
      <trkpt lat="42.92826" lon="1.27753">
        <ele>1221</ele>
        <time>2026-05-25T11:14:15.000Z</time>
      </trkpt>
      <trkpt lat="42.92831" lon="1.2775">
        <ele>1222</ele>
        <time>2026-05-25T11:14:16.000Z</time>
      </trkpt>
      <trkpt lat="42.92836" lon="1.27741">
        <ele>1223</ele>
        <time>2026-05-25T11:14:17.000Z</time>
      </trkpt>
      <trkpt lat="42.92841" lon="1.27731">
        <ele>1225</ele>
        <time>2026-05-25T11:14:18.000Z</time>
      </trkpt>
      <trkpt lat="42.92848" lon="1.27719">
        <ele>1225</ele>
        <time>2026-05-25T11:14:19.000Z</time>
      </trkpt>
      <trkpt lat="42.92854" lon="1.27706">
        <ele>1223</ele>
        <time>2026-05-25T11:14:20.000Z</time>
      </trkpt>
      <trkpt lat="42.92858" lon="1.27692">
        <ele>1220</ele>
        <time>2026-05-25T11:14:21.000Z</time>
      </trkpt>
      <trkpt lat="42.92865" lon="1.27681">
        <ele>1217</ele>
        <time>2026-05-25T11:14:22.000Z</time>
      </trkpt>
      <trkpt lat="42.92872" lon="1.2767">
        <ele>1213</ele>
        <time>2026-05-25T11:14:23.000Z</time>
      </trkpt>
      <trkpt lat="42.9288" lon="1.2766">
        <ele>1209</ele>
        <time>2026-05-25T11:14:24.000Z</time>
      </trkpt>
      <trkpt lat="42.92888" lon="1.2765">
        <ele>1206</ele>
        <time>2026-05-25T11:14:25.000Z</time>
      </trkpt>
      <trkpt lat="42.92896" lon="1.27639">
        <ele>1203</ele>
        <time>2026-05-25T11:14:26.000Z</time>
      </trkpt>
      <trkpt lat="42.92904" lon="1.2763">
        <ele>1200</ele>
        <time>2026-05-25T11:14:27.000Z</time>
      </trkpt>
      <trkpt lat="42.92912" lon="1.27621">
        <ele>1198</ele>
        <time>2026-05-25T11:14:28.000Z</time>
      </trkpt>
      <trkpt lat="42.9292" lon="1.27614">
        <ele>1197</ele>
        <time>2026-05-25T11:14:29.000Z</time>
      </trkpt>
      <trkpt lat="42.92927" lon="1.27608">
        <ele>1195</ele>
        <time>2026-05-25T11:14:30.000Z</time>
      </trkpt>
      <trkpt lat="42.92935" lon="1.27601">
        <ele>1193</ele>
        <time>2026-05-25T11:14:31.000Z</time>
      </trkpt>
      <trkpt lat="42.92942" lon="1.27594">
        <ele>1192</ele>
        <time>2026-05-25T11:14:32.000Z</time>
      </trkpt>
      <trkpt lat="42.92949" lon="1.27586">
        <ele>1191</ele>
        <time>2026-05-25T11:14:33.000Z</time>
      </trkpt>
      <trkpt lat="42.92955" lon="1.27578">
        <ele>1189</ele>
        <time>2026-05-25T11:14:34.000Z</time>
      </trkpt>
      <trkpt lat="42.92962" lon="1.27572">
        <ele>1188</ele>
        <time>2026-05-25T11:14:35.000Z</time>
      </trkpt>
      <trkpt lat="42.92969" lon="1.27569">
        <ele>1187</ele>
        <time>2026-05-25T11:14:36.000Z</time>
      </trkpt>
      <trkpt lat="42.92977" lon="1.27568">
        <ele>1186</ele>
        <time>2026-05-25T11:14:37.000Z</time>
      </trkpt>
      <trkpt lat="42.92984" lon="1.27569">
        <ele>1186</ele>
        <time>2026-05-25T11:14:38.000Z</time>
      </trkpt>
      <trkpt lat="42.92991" lon="1.27569">
        <ele>1184</ele>
        <time>2026-05-25T11:14:39.000Z</time>
      </trkpt>
      <trkpt lat="42.92996" lon="1.27569">
        <ele>1183</ele>
        <time>2026-05-25T11:14:40.000Z</time>
      </trkpt>
      <trkpt lat="42.92998" lon="1.27568">
        <ele>1182</ele>
        <time>2026-05-25T11:14:41.000Z</time>
      </trkpt>
      <trkpt lat="42.93" lon="1.27567">
        <ele>1181</ele>
        <time>2026-05-25T11:14:42.000Z</time>
      </trkpt>
      <trkpt lat="42.93001" lon="1.27566">
        <ele>1181</ele>
        <time>2026-05-25T11:14:43.000Z</time>
      </trkpt>
      <trkpt lat="42.93003" lon="1.27565">
        <ele>1181</ele>
        <time>2026-05-25T11:14:44.000Z</time>
      </trkpt>
      <trkpt lat="42.93004" lon="1.27564">
        <ele>1181</ele>
        <time>2026-05-25T11:14:45.000Z</time>
      </trkpt>
      <trkpt lat="42.93004" lon="1.27564">
        <ele>1181</ele>
        <time>2026-05-25T11:14:46.000Z</time>
      </trkpt>
      <trkpt lat="42.93004" lon="1.27564">
        <ele>1181</ele>
        <time>2026-05-25T11:14:47.000Z</time>
      </trkpt>
      <trkpt lat="42.93004" lon="1.27563">
        <ele>1180</ele>
        <time>2026-05-25T11:14:48.000Z</time>
      </trkpt>
      <trkpt lat="42.93004" lon="1.27563">
        <ele>1180</ele>
        <time>2026-05-25T11:14:49.000Z</time>
      </trkpt>
      <trkpt lat="42.93005" lon="1.27562">
        <ele>1180</ele>
        <time>2026-05-25T11:14:50.000Z</time>
      </trkpt>
      <trkpt lat="42.93005" lon="1.27562">
        <ele>1179</ele>
        <time>2026-05-25T11:14:51.000Z</time>
      </trkpt>
      <trkpt lat="42.93005" lon="1.27561">
        <ele>1179</ele>
        <time>2026-05-25T11:14:52.000Z</time>
      </trkpt>
      <trkpt lat="42.93006" lon="1.27561">
        <ele>1178</ele>
        <time>2026-05-25T11:14:53.000Z</time>
      </trkpt>
      <trkpt lat="42.93007" lon="1.27562">
        <ele>1179</ele>
        <time>2026-05-25T11:14:54.000Z</time>
      </trkpt>
      <trkpt lat="42.93007" lon="1.27561">
        <ele>1179</ele>
        <time>2026-05-25T11:14:55.000Z</time>
      </trkpt>
      <trkpt lat="42.93007" lon="1.2756">
        <ele>1178</ele>
        <time>2026-05-25T11:14:56.000Z</time>
      </trkpt>
      <trkpt lat="42.93007" lon="1.27561">
        <ele>1179</ele>
        <time>2026-05-25T11:14:57.000Z</time>
      </trkpt>
      <trkpt lat="42.93008" lon="1.27561">
        <ele>1178</ele>
        <time>2026-05-25T11:14:58.000Z</time>
      </trkpt>
      <trkpt lat="42.93008" lon="1.27562">
        <ele>1178</ele>
        <time>2026-05-25T11:14:59.000Z</time>
      </trkpt>
      <trkpt lat="42.93008" lon="1.27562">
        <ele>1178</ele>
        <time>2026-05-25T11:15:00.000Z</time>
      </trkpt>
      <trkpt lat="42.93009" lon="1.27563">
        <ele>1177</ele>
        <time>2026-05-25T11:15:01.000Z</time>
      </trkpt>
      <trkpt lat="42.9301" lon="1.27564">
        <ele>1177</ele>
        <time>2026-05-25T11:15:02.000Z</time>
      </trkpt>
      <trkpt lat="42.93011" lon="1.27564">
        <ele>1176</ele>
        <time>2026-05-25T11:15:03.000Z</time>
      </trkpt>
      <trkpt lat="42.93011" lon="1.27564">
        <ele>1176</ele>
        <time>2026-05-25T11:15:04.000Z</time>
      </trkpt>
      <trkpt lat="42.93012" lon="1.27564">
        <ele>1176</ele>
        <time>2026-05-25T11:15:05.000Z</time>
      </trkpt>
      <trkpt lat="42.93013" lon="1.27562">
        <ele>1176</ele>
        <time>2026-05-25T11:15:06.000Z</time>
      </trkpt>
      <trkpt lat="42.93015" lon="1.27561">
        <ele>1175</ele>
        <time>2026-05-25T11:15:07.000Z</time>
      </trkpt>
      <trkpt lat="42.93018" lon="1.27558">
        <ele>1175</ele>
        <time>2026-05-25T11:15:08.000Z</time>
      </trkpt>
      <trkpt lat="42.9302" lon="1.27555">
        <ele>1175</ele>
        <time>2026-05-25T11:15:09.000Z</time>
      </trkpt>
      <trkpt lat="42.93024" lon="1.2755">
        <ele>1174</ele>
        <time>2026-05-25T11:15:10.000Z</time>
      </trkpt>
      <trkpt lat="42.93028" lon="1.27543">
        <ele>1173</ele>
        <time>2026-05-25T11:15:11.000Z</time>
      </trkpt>
      <trkpt lat="42.93032" lon="1.27539">
        <ele>1172</ele>
        <time>2026-05-25T11:15:12.000Z</time>
      </trkpt>
      <trkpt lat="42.93038" lon="1.27533">
        <ele>1171</ele>
        <time>2026-05-25T11:15:13.000Z</time>
      </trkpt>
      <trkpt lat="42.93042" lon="1.27528">
        <ele>1170</ele>
        <time>2026-05-25T11:15:14.000Z</time>
      </trkpt>
      <trkpt lat="42.93047" lon="1.27522">
        <ele>1169</ele>
        <time>2026-05-25T11:15:15.000Z</time>
      </trkpt>
      <trkpt lat="42.93052" lon="1.27517">
        <ele>1168</ele>
        <time>2026-05-25T11:15:16.000Z</time>
      </trkpt>
      <trkpt lat="42.93056" lon="1.27512">
        <ele>1167</ele>
        <time>2026-05-25T11:15:17.000Z</time>
      </trkpt>
      <trkpt lat="42.93061" lon="1.27508">
        <ele>1167</ele>
        <time>2026-05-25T11:15:18.000Z</time>
      </trkpt>
      <trkpt lat="42.93067" lon="1.27504">
        <ele>1166</ele>
        <time>2026-05-25T11:15:19.000Z</time>
      </trkpt>
      <trkpt lat="42.93072" lon="1.275">
        <ele>1165</ele>
        <time>2026-05-25T11:15:20.000Z</time>
      </trkpt>
      <trkpt lat="42.93078" lon="1.27496">
        <ele>1165</ele>
        <time>2026-05-25T11:15:21.000Z</time>
      </trkpt>
      <trkpt lat="42.93083" lon="1.27492">
        <ele>1164</ele>
        <time>2026-05-25T11:15:22.000Z</time>
      </trkpt>
      <trkpt lat="42.93088" lon="1.27489">
        <ele>1164</ele>
        <time>2026-05-25T11:15:23.000Z</time>
      </trkpt>
      <trkpt lat="42.93093" lon="1.27486">
        <ele>1164</ele>
        <time>2026-05-25T11:15:24.000Z</time>
      </trkpt>
      <trkpt lat="42.93099" lon="1.27482">
        <ele>1165</ele>
        <time>2026-05-25T11:15:25.000Z</time>
      </trkpt>
      <trkpt lat="42.93105" lon="1.2748">
        <ele>1165</ele>
        <time>2026-05-25T11:15:26.000Z</time>
      </trkpt>
      <trkpt lat="42.9311" lon="1.27477">
        <ele>1164</ele>
        <time>2026-05-25T11:15:27.000Z</time>
      </trkpt>
      <trkpt lat="42.93116" lon="1.27476">
        <ele>1164</ele>
        <time>2026-05-25T11:15:28.000Z</time>
      </trkpt>
      <trkpt lat="42.93122" lon="1.27476">
        <ele>1163</ele>
        <time>2026-05-25T11:15:29.000Z</time>
      </trkpt>
      <trkpt lat="42.93128" lon="1.27475">
        <ele>1162</ele>
        <time>2026-05-25T11:15:30.000Z</time>
      </trkpt>
      <trkpt lat="42.93134" lon="1.27475">
        <ele>1161</ele>
        <time>2026-05-25T11:15:31.000Z</time>
      </trkpt>
      <trkpt lat="42.93141" lon="1.27476">
        <ele>1161</ele>
        <time>2026-05-25T11:15:32.000Z</time>
      </trkpt>
      <trkpt lat="42.93147" lon="1.27477">
        <ele>1160</ele>
        <time>2026-05-25T11:15:33.000Z</time>
      </trkpt>
      <trkpt lat="42.93153" lon="1.27477">
        <ele>1160</ele>
        <time>2026-05-25T11:15:34.000Z</time>
      </trkpt>
      <trkpt lat="42.9316" lon="1.27478">
        <ele>1160</ele>
        <time>2026-05-25T11:15:35.000Z</time>
      </trkpt>
      <trkpt lat="42.93165" lon="1.27477">
        <ele>1160</ele>
        <time>2026-05-25T11:15:36.000Z</time>
      </trkpt>
      <trkpt lat="42.93171" lon="1.27477">
        <ele>1160</ele>
        <time>2026-05-25T11:15:37.000Z</time>
      </trkpt>
      <trkpt lat="42.93178" lon="1.27476">
        <ele>1159</ele>
        <time>2026-05-25T11:15:38.000Z</time>
      </trkpt>
      <trkpt lat="42.93184" lon="1.27475">
        <ele>1159</ele>
        <time>2026-05-25T11:15:39.000Z</time>
      </trkpt>
      <trkpt lat="42.93189" lon="1.27474">
        <ele>1159</ele>
        <time>2026-05-25T11:15:40.000Z</time>
      </trkpt>
      <trkpt lat="42.93195" lon="1.27472">
        <ele>1159</ele>
        <time>2026-05-25T11:15:41.000Z</time>
      </trkpt>
      <trkpt lat="42.932" lon="1.2747">
        <ele>1160</ele>
        <time>2026-05-25T11:15:42.000Z</time>
      </trkpt>
      <trkpt lat="42.93205" lon="1.27467">
        <ele>1160</ele>
        <time>2026-05-25T11:15:43.000Z</time>
      </trkpt>
      <trkpt lat="42.93211" lon="1.27465">
        <ele>1160</ele>
        <time>2026-05-25T11:15:44.000Z</time>
      </trkpt>
      <trkpt lat="42.93217" lon="1.27462">
        <ele>1160</ele>
        <time>2026-05-25T11:15:45.000Z</time>
      </trkpt>
      <trkpt lat="42.93223" lon="1.27458">
        <ele>1160</ele>
        <time>2026-05-25T11:15:46.000Z</time>
      </trkpt>
      <trkpt lat="42.93228" lon="1.27455">
        <ele>1160</ele>
        <time>2026-05-25T11:15:47.000Z</time>
      </trkpt>
      <trkpt lat="42.93233" lon="1.27451">
        <ele>1160</ele>
        <time>2026-05-25T11:15:48.000Z</time>
      </trkpt>
      <trkpt lat="42.93238" lon="1.27446">
        <ele>1160</ele>
        <time>2026-05-25T11:15:49.000Z</time>
      </trkpt>
      <trkpt lat="42.93243" lon="1.27441">
        <ele>1160</ele>
        <time>2026-05-25T11:15:50.000Z</time>
      </trkpt>
      <trkpt lat="42.93247" lon="1.27436">
        <ele>1160</ele>
        <time>2026-05-25T11:15:51.000Z</time>
      </trkpt>
      <trkpt lat="42.93252" lon="1.27431">
        <ele>1161</ele>
        <time>2026-05-25T11:15:52.000Z</time>
      </trkpt>
      <trkpt lat="42.93256" lon="1.27426">
        <ele>1160</ele>
        <time>2026-05-25T11:15:53.000Z</time>
      </trkpt>
      <trkpt lat="42.93261" lon="1.27421">
        <ele>1160</ele>
        <time>2026-05-25T11:15:54.000Z</time>
      </trkpt>
      <trkpt lat="42.93266" lon="1.27415">
        <ele>1159</ele>
        <time>2026-05-25T11:15:55.000Z</time>
      </trkpt>
      <trkpt lat="42.9327" lon="1.2741">
        <ele>1159</ele>
        <time>2026-05-25T11:15:56.000Z</time>
      </trkpt>
      <trkpt lat="42.93275" lon="1.27405">
        <ele>1158</ele>
        <time>2026-05-25T11:15:57.000Z</time>
      </trkpt>
      <trkpt lat="42.9328" lon="1.27401">
        <ele>1159</ele>
        <time>2026-05-25T11:15:58.000Z</time>
      </trkpt>
      <trkpt lat="42.93284" lon="1.27396">
        <ele>1158</ele>
        <time>2026-05-25T11:15:59.000Z</time>
      </trkpt>
      <trkpt lat="42.93289" lon="1.27392">
        <ele>1158</ele>
        <time>2026-05-25T11:16:00.000Z</time>
      </trkpt>
      <trkpt lat="42.93293" lon="1.27388">
        <ele>1158</ele>
        <time>2026-05-25T11:16:01.000Z</time>
      </trkpt>
      <trkpt lat="42.93298" lon="1.27384">
        <ele>1158</ele>
        <time>2026-05-25T11:16:02.000Z</time>
      </trkpt>
      <trkpt lat="42.93302" lon="1.27381">
        <ele>1158</ele>
        <time>2026-05-25T11:16:03.000Z</time>
      </trkpt>
      <trkpt lat="42.93307" lon="1.27377">
        <ele>1158</ele>
        <time>2026-05-25T11:16:04.000Z</time>
      </trkpt>
      <trkpt lat="42.93312" lon="1.27372">
        <ele>1158</ele>
        <time>2026-05-25T11:16:05.000Z</time>
      </trkpt>
      <trkpt lat="42.93316" lon="1.27366">
        <ele>1159</ele>
        <time>2026-05-25T11:16:06.000Z</time>
      </trkpt>
      <trkpt lat="42.93319" lon="1.2736">
        <ele>1159</ele>
        <time>2026-05-25T11:16:07.000Z</time>
      </trkpt>
      <trkpt lat="42.93321" lon="1.27352">
        <ele>1159</ele>
        <time>2026-05-25T11:16:08.000Z</time>
      </trkpt>
      <trkpt lat="42.93322" lon="1.27344">
        <ele>1160</ele>
        <time>2026-05-25T11:16:09.000Z</time>
      </trkpt>
      <trkpt lat="42.93323" lon="1.27335">
        <ele>1159</ele>
        <time>2026-05-25T11:16:10.000Z</time>
      </trkpt>
      <trkpt lat="42.93323" lon="1.27328">
        <ele>1160</ele>
        <time>2026-05-25T11:16:11.000Z</time>
      </trkpt>
      <trkpt lat="42.93322" lon="1.2732">
        <ele>1159</ele>
        <time>2026-05-25T11:16:12.000Z</time>
      </trkpt>
      <trkpt lat="42.93321" lon="1.27313">
        <ele>1160</ele>
        <time>2026-05-25T11:16:13.000Z</time>
      </trkpt>
      <trkpt lat="42.93318" lon="1.27306">
        <ele>1161</ele>
        <time>2026-05-25T11:16:14.000Z</time>
      </trkpt>
      <trkpt lat="42.93315" lon="1.273">
        <ele>1161</ele>
        <time>2026-05-25T11:16:15.000Z</time>
      </trkpt>
      <trkpt lat="42.93311" lon="1.27294">
        <ele>1162</ele>
        <time>2026-05-25T11:16:16.000Z</time>
      </trkpt>
      <trkpt lat="42.93307" lon="1.2729">
        <ele>1163</ele>
        <time>2026-05-25T11:16:17.000Z</time>
      </trkpt>
      <trkpt lat="42.93304" lon="1.27286">
        <ele>1164</ele>
        <time>2026-05-25T11:16:18.000Z</time>
      </trkpt>
      <trkpt lat="42.933" lon="1.27281">
        <ele>1166</ele>
        <time>2026-05-25T11:16:19.000Z</time>
      </trkpt>
      <trkpt lat="42.93297" lon="1.27274">
        <ele>1168</ele>
        <time>2026-05-25T11:16:20.000Z</time>
      </trkpt>
      <trkpt lat="42.93295" lon="1.27268">
        <ele>1168</ele>
        <time>2026-05-25T11:16:21.000Z</time>
      </trkpt>
      <trkpt lat="42.93293" lon="1.27261">
        <ele>1169</ele>
        <time>2026-05-25T11:16:22.000Z</time>
      </trkpt>
      <trkpt lat="42.93294" lon="1.27253">
        <ele>1169</ele>
        <time>2026-05-25T11:16:23.000Z</time>
      </trkpt>
      <trkpt lat="42.93294" lon="1.27245">
        <ele>1169</ele>
        <time>2026-05-25T11:16:24.000Z</time>
      </trkpt>
      <trkpt lat="42.93295" lon="1.27238">
        <ele>1169</ele>
        <time>2026-05-25T11:16:25.000Z</time>
      </trkpt>
      <trkpt lat="42.93295" lon="1.27231">
        <ele>1169</ele>
        <time>2026-05-25T11:16:26.000Z</time>
      </trkpt>
      <trkpt lat="42.93294" lon="1.27226">
        <ele>1169</ele>
        <time>2026-05-25T11:16:27.000Z</time>
      </trkpt>
      <trkpt lat="42.93291" lon="1.27219">
        <ele>1170</ele>
        <time>2026-05-25T11:16:28.000Z</time>
      </trkpt>
      <trkpt lat="42.93288" lon="1.27213">
        <ele>1170</ele>
        <time>2026-05-25T11:16:29.000Z</time>
      </trkpt>
      <trkpt lat="42.93284" lon="1.27209">
        <ele>1170</ele>
        <time>2026-05-25T11:16:30.000Z</time>
      </trkpt>
      <trkpt lat="42.9328" lon="1.27204">
        <ele>1169</ele>
        <time>2026-05-25T11:16:31.000Z</time>
      </trkpt>
      <trkpt lat="42.93276" lon="1.27198">
        <ele>1169</ele>
        <time>2026-05-25T11:16:32.000Z</time>
      </trkpt>
      <trkpt lat="42.93272" lon="1.27191">
        <ele>1169</ele>
        <time>2026-05-25T11:16:33.000Z</time>
      </trkpt>
      <trkpt lat="42.93269" lon="1.27184">
        <ele>1168</ele>
        <time>2026-05-25T11:16:34.000Z</time>
      </trkpt>
      <trkpt lat="42.93268" lon="1.27175">
        <ele>1168</ele>
        <time>2026-05-25T11:16:35.000Z</time>
      </trkpt>
      <trkpt lat="42.93268" lon="1.27167">
        <ele>1168</ele>
        <time>2026-05-25T11:16:36.000Z</time>
      </trkpt>
      <trkpt lat="42.93269" lon="1.27158">
        <ele>1167</ele>
        <time>2026-05-25T11:16:37.000Z</time>
      </trkpt>
      <trkpt lat="42.93269" lon="1.27151">
        <ele>1167</ele>
        <time>2026-05-25T11:16:38.000Z</time>
      </trkpt>
      <trkpt lat="42.9327" lon="1.27143">
        <ele>1167</ele>
        <time>2026-05-25T11:16:39.000Z</time>
      </trkpt>
      <trkpt lat="42.93272" lon="1.27135">
        <ele>1167</ele>
        <time>2026-05-25T11:16:40.000Z</time>
      </trkpt>
      <trkpt lat="42.93273" lon="1.27127">
        <ele>1168</ele>
        <time>2026-05-25T11:16:41.000Z</time>
      </trkpt>
      <trkpt lat="42.93275" lon="1.2712">
        <ele>1168</ele>
        <time>2026-05-25T11:16:42.000Z</time>
      </trkpt>
      <trkpt lat="42.93277" lon="1.27113">
        <ele>1168</ele>
        <time>2026-05-25T11:16:43.000Z</time>
      </trkpt>
      <trkpt lat="42.93278" lon="1.27105">
        <ele>1169</ele>
        <time>2026-05-25T11:16:44.000Z</time>
      </trkpt>
      <trkpt lat="42.9328" lon="1.27098">
        <ele>1168</ele>
        <time>2026-05-25T11:16:45.000Z</time>
      </trkpt>
      <trkpt lat="42.93282" lon="1.2709">
        <ele>1168</ele>
        <time>2026-05-25T11:16:46.000Z</time>
      </trkpt>
      <trkpt lat="42.93283" lon="1.27083">
        <ele>1168</ele>
        <time>2026-05-25T11:16:47.000Z</time>
      </trkpt>
      <trkpt lat="42.93284" lon="1.27074">
        <ele>1168</ele>
        <time>2026-05-25T11:16:48.000Z</time>
      </trkpt>
      <trkpt lat="42.93284" lon="1.27067">
        <ele>1167</ele>
        <time>2026-05-25T11:16:49.000Z</time>
      </trkpt>
      <trkpt lat="42.93285" lon="1.27059">
        <ele>1167</ele>
        <time>2026-05-25T11:16:50.000Z</time>
      </trkpt>
      <trkpt lat="42.93286" lon="1.27052">
        <ele>1167</ele>
        <time>2026-05-25T11:16:51.000Z</time>
      </trkpt>
      <trkpt lat="42.93287" lon="1.27045">
        <ele>1166</ele>
        <time>2026-05-25T11:16:52.000Z</time>
      </trkpt>
      <trkpt lat="42.93288" lon="1.27037">
        <ele>1166</ele>
        <time>2026-05-25T11:16:53.000Z</time>
      </trkpt>
      <trkpt lat="42.93289" lon="1.2703">
        <ele>1165</ele>
        <time>2026-05-25T11:16:54.000Z</time>
      </trkpt>
      <trkpt lat="42.93289" lon="1.27022">
        <ele>1165</ele>
        <time>2026-05-25T11:16:55.000Z</time>
      </trkpt>
      <trkpt lat="42.9329" lon="1.27015">
        <ele>1165</ele>
        <time>2026-05-25T11:16:56.000Z</time>
      </trkpt>
      <trkpt lat="42.93291" lon="1.27007">
        <ele>1165</ele>
        <time>2026-05-25T11:16:57.000Z</time>
      </trkpt>
      <trkpt lat="42.93292" lon="1.26999">
        <ele>1164</ele>
        <time>2026-05-25T11:16:58.000Z</time>
      </trkpt>
      <trkpt lat="42.93292" lon="1.26991">
        <ele>1164</ele>
        <time>2026-05-25T11:16:59.000Z</time>
      </trkpt>
      <trkpt lat="42.93291" lon="1.26985">
        <ele>1163</ele>
        <time>2026-05-25T11:17:00.000Z</time>
      </trkpt>
      <trkpt lat="42.93288" lon="1.2698">
        <ele>1163</ele>
        <time>2026-05-25T11:17:01.000Z</time>
      </trkpt>
      <trkpt lat="42.93283" lon="1.26975">
        <ele>1164</ele>
        <time>2026-05-25T11:17:02.000Z</time>
      </trkpt>
      <trkpt lat="42.93277" lon="1.26974">
        <ele>1164</ele>
        <time>2026-05-25T11:17:03.000Z</time>
      </trkpt>
      <trkpt lat="42.9327" lon="1.26976">
        <ele>1165</ele>
        <time>2026-05-25T11:17:04.000Z</time>
      </trkpt>
      <trkpt lat="42.93265" lon="1.26978">
        <ele>1164</ele>
        <time>2026-05-25T11:17:05.000Z</time>
      </trkpt>
      <trkpt lat="42.9326" lon="1.2698">
        <ele>1164</ele>
        <time>2026-05-25T11:17:06.000Z</time>
      </trkpt>
      <trkpt lat="42.93256" lon="1.26983">
        <ele>1164</ele>
        <time>2026-05-25T11:17:07.000Z</time>
      </trkpt>
      <trkpt lat="42.93251" lon="1.26986">
        <ele>1165</ele>
        <time>2026-05-25T11:17:08.000Z</time>
      </trkpt>
      <trkpt lat="42.93246" lon="1.2699">
        <ele>1165</ele>
        <time>2026-05-25T11:17:09.000Z</time>
      </trkpt>
      <trkpt lat="42.93241" lon="1.26993">
        <ele>1166</ele>
        <time>2026-05-25T11:17:10.000Z</time>
      </trkpt>
      <trkpt lat="42.93235" lon="1.26996">
        <ele>1166</ele>
        <time>2026-05-25T11:17:11.000Z</time>
      </trkpt>
      <trkpt lat="42.9323" lon="1.26998">
        <ele>1166</ele>
        <time>2026-05-25T11:17:12.000Z</time>
      </trkpt>
      <trkpt lat="42.93225" lon="1.27">
        <ele>1165</ele>
        <time>2026-05-25T11:17:13.000Z</time>
      </trkpt>
      <trkpt lat="42.9322" lon="1.27001">
        <ele>1165</ele>
        <time>2026-05-25T11:17:14.000Z</time>
      </trkpt>
      <trkpt lat="42.93215" lon="1.27002">
        <ele>1165</ele>
        <time>2026-05-25T11:17:15.000Z</time>
      </trkpt>
      <trkpt lat="42.93209" lon="1.27003">
        <ele>1165</ele>
        <time>2026-05-25T11:17:16.000Z</time>
      </trkpt>
      <trkpt lat="42.93204" lon="1.27004">
        <ele>1165</ele>
        <time>2026-05-25T11:17:17.000Z</time>
      </trkpt>
      <trkpt lat="42.93198" lon="1.27004">
        <ele>1165</ele>
        <time>2026-05-25T11:17:18.000Z</time>
      </trkpt>
      <trkpt lat="42.93192" lon="1.27005">
        <ele>1165</ele>
        <time>2026-05-25T11:17:19.000Z</time>
      </trkpt>
      <trkpt lat="42.93187" lon="1.27007">
        <ele>1165</ele>
        <time>2026-05-25T11:17:20.000Z</time>
      </trkpt>
      <trkpt lat="42.93182" lon="1.2701">
        <ele>1164</ele>
        <time>2026-05-25T11:17:21.000Z</time>
      </trkpt>
      <trkpt lat="42.93176" lon="1.27013">
        <ele>1164</ele>
        <time>2026-05-25T11:17:22.000Z</time>
      </trkpt>
      <trkpt lat="42.93171" lon="1.27017">
        <ele>1164</ele>
        <time>2026-05-25T11:17:23.000Z</time>
      </trkpt>
      <trkpt lat="42.93167" lon="1.2702">
        <ele>1164</ele>
        <time>2026-05-25T11:17:24.000Z</time>
      </trkpt>
      <trkpt lat="42.93163" lon="1.27022">
        <ele>1164</ele>
        <time>2026-05-25T11:17:25.000Z</time>
      </trkpt>
      <trkpt lat="42.93159" lon="1.27025">
        <ele>1164</ele>
        <time>2026-05-25T11:17:26.000Z</time>
      </trkpt>
      <trkpt lat="42.93155" lon="1.27027">
        <ele>1164</ele>
        <time>2026-05-25T11:17:27.000Z</time>
      </trkpt>
      <trkpt lat="42.93149" lon="1.27028">
        <ele>1165</ele>
        <time>2026-05-25T11:17:28.000Z</time>
      </trkpt>
      <trkpt lat="42.93144" lon="1.27029">
        <ele>1166</ele>
        <time>2026-05-25T11:17:29.000Z</time>
      </trkpt>
      <trkpt lat="42.93137" lon="1.27028">
        <ele>1167</ele>
        <time>2026-05-25T11:17:30.000Z</time>
      </trkpt>
      <trkpt lat="42.93131" lon="1.27026">
        <ele>1168</ele>
        <time>2026-05-25T11:17:31.000Z</time>
      </trkpt>
      <trkpt lat="42.93126" lon="1.27022">
        <ele>1169</ele>
        <time>2026-05-25T11:17:32.000Z</time>
      </trkpt>
      <trkpt lat="42.93121" lon="1.27017">
        <ele>1168</ele>
        <time>2026-05-25T11:17:33.000Z</time>
      </trkpt>
      <trkpt lat="42.93117" lon="1.27012">
        <ele>1169</ele>
        <time>2026-05-25T11:17:34.000Z</time>
      </trkpt>
      <trkpt lat="42.93112" lon="1.27007">
        <ele>1168</ele>
        <time>2026-05-25T11:17:35.000Z</time>
      </trkpt>
      <trkpt lat="42.93107" lon="1.27003">
        <ele>1169</ele>
        <time>2026-05-25T11:17:36.000Z</time>
      </trkpt>
      <trkpt lat="42.93103" lon="1.27">
        <ele>1169</ele>
        <time>2026-05-25T11:17:37.000Z</time>
      </trkpt>
      <trkpt lat="42.93098" lon="1.26998">
        <ele>1169</ele>
        <time>2026-05-25T11:17:38.000Z</time>
      </trkpt>
      <trkpt lat="42.93093" lon="1.26996">
        <ele>1168</ele>
        <time>2026-05-25T11:17:39.000Z</time>
      </trkpt>
      <trkpt lat="42.93088" lon="1.26995">
        <ele>1168</ele>
        <time>2026-05-25T11:17:40.000Z</time>
      </trkpt>
      <trkpt lat="42.93084" lon="1.26994">
        <ele>1168</ele>
        <time>2026-05-25T11:17:41.000Z</time>
      </trkpt>
      <trkpt lat="42.93078" lon="1.26994">
        <ele>1168</ele>
        <time>2026-05-25T11:17:42.000Z</time>
      </trkpt>
      <trkpt lat="42.93072" lon="1.26993">
        <ele>1169</ele>
        <time>2026-05-25T11:17:43.000Z</time>
      </trkpt>
      <trkpt lat="42.93067" lon="1.26992">
        <ele>1170</ele>
        <time>2026-05-25T11:17:44.000Z</time>
      </trkpt>
      <trkpt lat="42.93061" lon="1.2699">
        <ele>1171</ele>
        <time>2026-05-25T11:17:45.000Z</time>
      </trkpt>
      <trkpt lat="42.93056" lon="1.26988">
        <ele>1172</ele>
        <time>2026-05-25T11:17:46.000Z</time>
      </trkpt>
      <trkpt lat="42.9305" lon="1.26986">
        <ele>1173</ele>
        <time>2026-05-25T11:17:47.000Z</time>
      </trkpt>
      <trkpt lat="42.93046" lon="1.26983">
        <ele>1174</ele>
        <time>2026-05-25T11:17:48.000Z</time>
      </trkpt>
      <trkpt lat="42.93042" lon="1.26977">
        <ele>1174</ele>
        <time>2026-05-25T11:17:49.000Z</time>
      </trkpt>
      <trkpt lat="42.93041" lon="1.2697">
        <ele>1173</ele>
        <time>2026-05-25T11:17:50.000Z</time>
      </trkpt>
      <trkpt lat="42.93041" lon="1.2696">
        <ele>1171</ele>
        <time>2026-05-25T11:17:51.000Z</time>
      </trkpt>
      <trkpt lat="42.93042" lon="1.26952">
        <ele>1170</ele>
        <time>2026-05-25T11:17:52.000Z</time>
      </trkpt>
      <trkpt lat="42.93044" lon="1.26943">
        <ele>1169</ele>
        <time>2026-05-25T11:17:53.000Z</time>
      </trkpt>
      <trkpt lat="42.93045" lon="1.26933">
        <ele>1169</ele>
        <time>2026-05-25T11:17:54.000Z</time>
      </trkpt>
      <trkpt lat="42.93046" lon="1.26925">
        <ele>1168</ele>
        <time>2026-05-25T11:17:55.000Z</time>
      </trkpt>
      <trkpt lat="42.93048" lon="1.26916">
        <ele>1168</ele>
        <time>2026-05-25T11:17:56.000Z</time>
      </trkpt>
      <trkpt lat="42.93048" lon="1.26908">
        <ele>1168</ele>
        <time>2026-05-25T11:17:57.000Z</time>
      </trkpt>
      <trkpt lat="42.93048" lon="1.26899">
        <ele>1168</ele>
        <time>2026-05-25T11:17:58.000Z</time>
      </trkpt>
      <trkpt lat="42.93048" lon="1.2689">
        <ele>1167</ele>
        <time>2026-05-25T11:17:59.000Z</time>
      </trkpt>
      <trkpt lat="42.93049" lon="1.26882">
        <ele>1167</ele>
        <time>2026-05-25T11:18:00.000Z</time>
      </trkpt>
      <trkpt lat="42.93049" lon="1.26875">
        <ele>1167</ele>
        <time>2026-05-25T11:18:01.000Z</time>
      </trkpt>
      <trkpt lat="42.93049" lon="1.26866">
        <ele>1167</ele>
        <time>2026-05-25T11:18:02.000Z</time>
      </trkpt>
      <trkpt lat="42.93048" lon="1.26858">
        <ele>1167</ele>
        <time>2026-05-25T11:18:03.000Z</time>
      </trkpt>
      <trkpt lat="42.93047" lon="1.2685">
        <ele>1166</ele>
        <time>2026-05-25T11:18:04.000Z</time>
      </trkpt>
      <trkpt lat="42.93046" lon="1.26845">
        <ele>1167</ele>
        <time>2026-05-25T11:18:05.000Z</time>
      </trkpt>
      <trkpt lat="42.93044" lon="1.26841">
        <ele>1167</ele>
        <time>2026-05-25T11:18:06.000Z</time>
      </trkpt>
      <trkpt lat="42.93043" lon="1.26837">
        <ele>1168</ele>
        <time>2026-05-25T11:18:07.000Z</time>
      </trkpt>
      <trkpt lat="42.9304" lon="1.26831">
        <ele>1168</ele>
        <time>2026-05-25T11:18:08.000Z</time>
      </trkpt>
      <trkpt lat="42.93035" lon="1.26823">
        <ele>1169</ele>
        <time>2026-05-25T11:18:09.000Z</time>
      </trkpt>
      <trkpt lat="42.93031" lon="1.26814">
        <ele>1168</ele>
        <time>2026-05-25T11:18:10.000Z</time>
      </trkpt>
      <trkpt lat="42.93027" lon="1.26806">
        <ele>1168</ele>
        <time>2026-05-25T11:18:11.000Z</time>
      </trkpt>
      <trkpt lat="42.93023" lon="1.26797">
        <ele>1168</ele>
        <time>2026-05-25T11:18:12.000Z</time>
      </trkpt>
      <trkpt lat="42.93019" lon="1.2679">
        <ele>1169</ele>
        <time>2026-05-25T11:18:13.000Z</time>
      </trkpt>
      <trkpt lat="42.93016" lon="1.26782">
        <ele>1168</ele>
        <time>2026-05-25T11:18:14.000Z</time>
      </trkpt>
      <trkpt lat="42.93012" lon="1.26775">
        <ele>1168</ele>
        <time>2026-05-25T11:18:15.000Z</time>
      </trkpt>
      <trkpt lat="42.93008" lon="1.26769">
        <ele>1167</ele>
        <time>2026-05-25T11:18:16.000Z</time>
      </trkpt>
      <trkpt lat="42.93004" lon="1.26763">
        <ele>1167</ele>
        <time>2026-05-25T11:18:17.000Z</time>
      </trkpt>
      <trkpt lat="42.93" lon="1.26758">
        <ele>1167</ele>
        <time>2026-05-25T11:18:18.000Z</time>
      </trkpt>
      <trkpt lat="42.92995" lon="1.26753">
        <ele>1167</ele>
        <time>2026-05-25T11:18:19.000Z</time>
      </trkpt>
      <trkpt lat="42.92991" lon="1.26747">
        <ele>1167</ele>
        <time>2026-05-25T11:18:20.000Z</time>
      </trkpt>
      <trkpt lat="42.92987" lon="1.26741">
        <ele>1167</ele>
        <time>2026-05-25T11:18:21.000Z</time>
      </trkpt>
      <trkpt lat="42.92982" lon="1.26735">
        <ele>1167</ele>
        <time>2026-05-25T11:18:22.000Z</time>
      </trkpt>
      <trkpt lat="42.92978" lon="1.26729">
        <ele>1167</ele>
        <time>2026-05-25T11:18:23.000Z</time>
      </trkpt>
      <trkpt lat="42.92974" lon="1.26725">
        <ele>1167</ele>
        <time>2026-05-25T11:18:24.000Z</time>
      </trkpt>
      <trkpt lat="42.92969" lon="1.2672">
        <ele>1166</ele>
        <time>2026-05-25T11:18:25.000Z</time>
      </trkpt>
      <trkpt lat="42.92964" lon="1.26716">
        <ele>1166</ele>
        <time>2026-05-25T11:18:26.000Z</time>
      </trkpt>
      <trkpt lat="42.92959" lon="1.26712">
        <ele>1166</ele>
        <time>2026-05-25T11:18:27.000Z</time>
      </trkpt>
      <trkpt lat="42.92954" lon="1.26708">
        <ele>1166</ele>
        <time>2026-05-25T11:18:28.000Z</time>
      </trkpt>
      <trkpt lat="42.9295" lon="1.26704">
        <ele>1166</ele>
        <time>2026-05-25T11:18:29.000Z</time>
      </trkpt>
      <trkpt lat="42.92946" lon="1.267">
        <ele>1167</ele>
        <time>2026-05-25T11:18:30.000Z</time>
      </trkpt>
      <trkpt lat="42.92941" lon="1.26696">
        <ele>1169</ele>
        <time>2026-05-25T11:18:31.000Z</time>
      </trkpt>
      <trkpt lat="42.92936" lon="1.26692">
        <ele>1170</ele>
        <time>2026-05-25T11:18:32.000Z</time>
      </trkpt>
      <trkpt lat="42.92931" lon="1.26687">
        <ele>1170</ele>
        <time>2026-05-25T11:18:33.000Z</time>
      </trkpt>
      <trkpt lat="42.92926" lon="1.26682">
        <ele>1171</ele>
        <time>2026-05-25T11:18:34.000Z</time>
      </trkpt>
      <trkpt lat="42.92922" lon="1.26676">
        <ele>1171</ele>
        <time>2026-05-25T11:18:35.000Z</time>
      </trkpt>
      <trkpt lat="42.92918" lon="1.26671">
        <ele>1171</ele>
        <time>2026-05-25T11:18:36.000Z</time>
      </trkpt>
      <trkpt lat="42.92913" lon="1.26666">
        <ele>1172</ele>
        <time>2026-05-25T11:18:37.000Z</time>
      </trkpt>
      <trkpt lat="42.92908" lon="1.26661">
        <ele>1173</ele>
        <time>2026-05-25T11:18:38.000Z</time>
      </trkpt>
      <trkpt lat="42.92904" lon="1.26656">
        <ele>1174</ele>
        <time>2026-05-25T11:18:39.000Z</time>
      </trkpt>
      <trkpt lat="42.929" lon="1.26649">
        <ele>1175</ele>
        <time>2026-05-25T11:18:40.000Z</time>
      </trkpt>
      <trkpt lat="42.92895" lon="1.26642">
        <ele>1174</ele>
        <time>2026-05-25T11:18:41.000Z</time>
      </trkpt>
      <trkpt lat="42.92891" lon="1.26636">
        <ele>1173</ele>
        <time>2026-05-25T11:18:42.000Z</time>
      </trkpt>
      <trkpt lat="42.92887" lon="1.2663">
        <ele>1171</ele>
        <time>2026-05-25T11:18:43.000Z</time>
      </trkpt>
      <trkpt lat="42.92882" lon="1.26624">
        <ele>1171</ele>
        <time>2026-05-25T11:18:44.000Z</time>
      </trkpt>
      <trkpt lat="42.92878" lon="1.26619">
        <ele>1170</ele>
        <time>2026-05-25T11:18:45.000Z</time>
      </trkpt>
      <trkpt lat="42.92874" lon="1.26612">
        <ele>1169</ele>
        <time>2026-05-25T11:18:46.000Z</time>
      </trkpt>
      <trkpt lat="42.92872" lon="1.26604">
        <ele>1168</ele>
        <time>2026-05-25T11:18:47.000Z</time>
      </trkpt>
      <trkpt lat="42.92871" lon="1.26596">
        <ele>1167</ele>
        <time>2026-05-25T11:18:48.000Z</time>
      </trkpt>
      <trkpt lat="42.92872" lon="1.26586">
        <ele>1165</ele>
        <time>2026-05-25T11:18:49.000Z</time>
      </trkpt>
      <trkpt lat="42.92872" lon="1.26578">
        <ele>1165</ele>
        <time>2026-05-25T11:18:50.000Z</time>
      </trkpt>
      <trkpt lat="42.92875" lon="1.26569">
        <ele>1164</ele>
        <time>2026-05-25T11:18:51.000Z</time>
      </trkpt>
      <trkpt lat="42.92878" lon="1.2656">
        <ele>1164</ele>
        <time>2026-05-25T11:18:52.000Z</time>
      </trkpt>
      <trkpt lat="42.92881" lon="1.26552">
        <ele>1163</ele>
        <time>2026-05-25T11:18:53.000Z</time>
      </trkpt>
      <trkpt lat="42.92885" lon="1.26544">
        <ele>1163</ele>
        <time>2026-05-25T11:18:54.000Z</time>
      </trkpt>
      <trkpt lat="42.92889" lon="1.26537">
        <ele>1163</ele>
        <time>2026-05-25T11:18:55.000Z</time>
      </trkpt>
      <trkpt lat="42.92894" lon="1.26531">
        <ele>1163</ele>
        <time>2026-05-25T11:18:56.000Z</time>
      </trkpt>
      <trkpt lat="42.92899" lon="1.26525">
        <ele>1163</ele>
        <time>2026-05-25T11:18:57.000Z</time>
      </trkpt>
      <trkpt lat="42.92904" lon="1.2652">
        <ele>1164</ele>
        <time>2026-05-25T11:18:58.000Z</time>
      </trkpt>
      <trkpt lat="42.92909" lon="1.26516">
        <ele>1163</ele>
        <time>2026-05-25T11:18:59.000Z</time>
      </trkpt>
      <trkpt lat="42.92915" lon="1.26511">
        <ele>1164</ele>
        <time>2026-05-25T11:19:00.000Z</time>
      </trkpt>
      <trkpt lat="42.9292" lon="1.26506">
        <ele>1164</ele>
        <time>2026-05-25T11:19:01.000Z</time>
      </trkpt>
      <trkpt lat="42.92925" lon="1.26502">
        <ele>1165</ele>
        <time>2026-05-25T11:19:02.000Z</time>
      </trkpt>
      <trkpt lat="42.9293" lon="1.26497">
        <ele>1165</ele>
        <time>2026-05-25T11:19:03.000Z</time>
      </trkpt>
      <trkpt lat="42.92935" lon="1.26494">
        <ele>1165</ele>
        <time>2026-05-25T11:19:04.000Z</time>
      </trkpt>
      <trkpt lat="42.9294" lon="1.26491">
        <ele>1165</ele>
        <time>2026-05-25T11:19:05.000Z</time>
      </trkpt>
      <trkpt lat="42.92945" lon="1.26489">
        <ele>1165</ele>
        <time>2026-05-25T11:19:06.000Z</time>
      </trkpt>
      <trkpt lat="42.9295" lon="1.26485">
        <ele>1165</ele>
        <time>2026-05-25T11:19:07.000Z</time>
      </trkpt>
      <trkpt lat="42.92954" lon="1.26482">
        <ele>1165</ele>
        <time>2026-05-25T11:19:08.000Z</time>
      </trkpt>
      <trkpt lat="42.92959" lon="1.26479">
        <ele>1166</ele>
        <time>2026-05-25T11:19:09.000Z</time>
      </trkpt>
      <trkpt lat="42.92961" lon="1.26478">
        <ele>1167</ele>
        <time>2026-05-25T11:19:10.000Z</time>
      </trkpt>
      <trkpt lat="42.92963" lon="1.26476">
        <ele>1170</ele>
        <time>2026-05-25T11:19:11.000Z</time>
      </trkpt>
      <trkpt lat="42.92965" lon="1.26474">
        <ele>1173</ele>
        <time>2026-05-25T11:19:12.000Z</time>
      </trkpt>
      <trkpt lat="42.92968" lon="1.26472">
        <ele>1175</ele>
        <time>2026-05-25T11:19:13.000Z</time>
      </trkpt>
      <trkpt lat="42.9297" lon="1.2647">
        <ele>1178</ele>
        <time>2026-05-25T11:19:14.000Z</time>
      </trkpt>
      <trkpt lat="42.92972" lon="1.26468">
        <ele>1179</ele>
        <time>2026-05-25T11:19:15.000Z</time>
      </trkpt>
      <trkpt lat="42.92975" lon="1.26465">
        <ele>1179</ele>
        <time>2026-05-25T11:19:16.000Z</time>
      </trkpt>
      <trkpt lat="42.9298" lon="1.2646">
        <ele>1180</ele>
        <time>2026-05-25T11:19:17.000Z</time>
      </trkpt>
      <trkpt lat="42.92983" lon="1.26455">
        <ele>1181</ele>
        <time>2026-05-25T11:19:18.000Z</time>
      </trkpt>
      <trkpt lat="42.92987" lon="1.26449">
        <ele>1181</ele>
        <time>2026-05-25T11:19:19.000Z</time>
      </trkpt>
      <trkpt lat="42.92988" lon="1.26443">
        <ele>1182</ele>
        <time>2026-05-25T11:19:20.000Z</time>
      </trkpt>
      <trkpt lat="42.92985" lon="1.26439">
        <ele>1182</ele>
        <time>2026-05-25T11:19:21.000Z</time>
      </trkpt>
      <trkpt lat="42.92983" lon="1.26436">
        <ele>1182</ele>
        <time>2026-05-25T11:19:22.000Z</time>
      </trkpt>
      <trkpt lat="42.92979" lon="1.26435">
        <ele>1181</ele>
        <time>2026-05-25T11:19:23.000Z</time>
      </trkpt>
      <trkpt lat="42.92976" lon="1.26433">
        <ele>1180</ele>
        <time>2026-05-25T11:19:24.000Z</time>
      </trkpt>
      <trkpt lat="42.92971" lon="1.26432">
        <ele>1180</ele>
        <time>2026-05-25T11:19:25.000Z</time>
      </trkpt>
      <trkpt lat="42.92966" lon="1.26429">
        <ele>1179</ele>
        <time>2026-05-25T11:19:26.000Z</time>
      </trkpt>
      <trkpt lat="42.9296" lon="1.26425">
        <ele>1178</ele>
        <time>2026-05-25T11:19:27.000Z</time>
      </trkpt>
      <trkpt lat="42.92953" lon="1.26422">
        <ele>1177</ele>
        <time>2026-05-25T11:19:28.000Z</time>
      </trkpt>
      <trkpt lat="42.92947" lon="1.26418">
        <ele>1176</ele>
        <time>2026-05-25T11:19:29.000Z</time>
      </trkpt>
      <trkpt lat="42.92943" lon="1.26414">
        <ele>1176</ele>
        <time>2026-05-25T11:19:30.000Z</time>
      </trkpt>
      <trkpt lat="42.92938" lon="1.2641">
        <ele>1175</ele>
        <time>2026-05-25T11:19:31.000Z</time>
      </trkpt>
      <trkpt lat="42.92934" lon="1.26402">
        <ele>1174</ele>
        <time>2026-05-25T11:19:32.000Z</time>
      </trkpt>
      <trkpt lat="42.92931" lon="1.26393">
        <ele>1173</ele>
        <time>2026-05-25T11:19:33.000Z</time>
      </trkpt>
      <trkpt lat="42.92927" lon="1.26384">
        <ele>1173</ele>
        <time>2026-05-25T11:19:34.000Z</time>
      </trkpt>
      <trkpt lat="42.92924" lon="1.26377">
        <ele>1173</ele>
        <time>2026-05-25T11:19:35.000Z</time>
      </trkpt>
      <trkpt lat="42.92919" lon="1.2637">
        <ele>1172</ele>
        <time>2026-05-25T11:19:36.000Z</time>
      </trkpt>
      <trkpt lat="42.92915" lon="1.26363">
        <ele>1171</ele>
        <time>2026-05-25T11:19:37.000Z</time>
      </trkpt>
      <trkpt lat="42.92912" lon="1.26355">
        <ele>1170</ele>
        <time>2026-05-25T11:19:38.000Z</time>
      </trkpt>
      <trkpt lat="42.92909" lon="1.26348">
        <ele>1170</ele>
        <time>2026-05-25T11:19:39.000Z</time>
      </trkpt>
      <trkpt lat="42.92906" lon="1.2634">
        <ele>1169</ele>
        <time>2026-05-25T11:19:40.000Z</time>
      </trkpt>
      <trkpt lat="42.92901" lon="1.26334">
        <ele>1168</ele>
        <time>2026-05-25T11:19:41.000Z</time>
      </trkpt>
      <trkpt lat="42.92897" lon="1.26328">
        <ele>1168</ele>
        <time>2026-05-25T11:19:42.000Z</time>
      </trkpt>
      <trkpt lat="42.92892" lon="1.26323">
        <ele>1168</ele>
        <time>2026-05-25T11:19:43.000Z</time>
      </trkpt>
      <trkpt lat="42.92887" lon="1.26317">
        <ele>1167</ele>
        <time>2026-05-25T11:19:44.000Z</time>
      </trkpt>
      <trkpt lat="42.92882" lon="1.26311">
        <ele>1167</ele>
        <time>2026-05-25T11:19:45.000Z</time>
      </trkpt>
      <trkpt lat="42.92878" lon="1.26304">
        <ele>1166</ele>
        <time>2026-05-25T11:19:46.000Z</time>
      </trkpt>
      <trkpt lat="42.92873" lon="1.26297">
        <ele>1166</ele>
        <time>2026-05-25T11:19:47.000Z</time>
      </trkpt>
      <trkpt lat="42.92869" lon="1.2629">
        <ele>1165</ele>
        <time>2026-05-25T11:19:48.000Z</time>
      </trkpt>
      <trkpt lat="42.92864" lon="1.26282">
        <ele>1165</ele>
        <time>2026-05-25T11:19:49.000Z</time>
      </trkpt>
      <trkpt lat="42.92861" lon="1.26276">
        <ele>1165</ele>
        <time>2026-05-25T11:19:50.000Z</time>
      </trkpt>
      <trkpt lat="42.92857" lon="1.26269">
        <ele>1164</ele>
        <time>2026-05-25T11:19:51.000Z</time>
      </trkpt>
      <trkpt lat="42.92854" lon="1.26261">
        <ele>1164</ele>
        <time>2026-05-25T11:19:52.000Z</time>
      </trkpt>
      <trkpt lat="42.92852" lon="1.26254">
        <ele>1163</ele>
        <time>2026-05-25T11:19:53.000Z</time>
      </trkpt>
      <trkpt lat="42.9285" lon="1.26245">
        <ele>1163</ele>
        <time>2026-05-25T11:19:54.000Z</time>
      </trkpt>
      <trkpt lat="42.92848" lon="1.26237">
        <ele>1163</ele>
        <time>2026-05-25T11:19:55.000Z</time>
      </trkpt>
      <trkpt lat="42.92846" lon="1.26229">
        <ele>1163</ele>
        <time>2026-05-25T11:19:56.000Z</time>
      </trkpt>
      <trkpt lat="42.92844" lon="1.26222">
        <ele>1163</ele>
        <time>2026-05-25T11:19:57.000Z</time>
      </trkpt>
      <trkpt lat="42.92842" lon="1.26214">
        <ele>1163</ele>
        <time>2026-05-25T11:19:58.000Z</time>
      </trkpt>
      <trkpt lat="42.9284" lon="1.26208">
        <ele>1163</ele>
        <time>2026-05-25T11:19:59.000Z</time>
      </trkpt>
      <trkpt lat="42.92839" lon="1.26201">
        <ele>1163</ele>
        <time>2026-05-25T11:20:00.000Z</time>
      </trkpt>
      <trkpt lat="42.92837" lon="1.26194">
        <ele>1164</ele>
        <time>2026-05-25T11:20:01.000Z</time>
      </trkpt>
      <trkpt lat="42.92834" lon="1.26186">
        <ele>1164</ele>
        <time>2026-05-25T11:20:02.000Z</time>
      </trkpt>
      <trkpt lat="42.92833" lon="1.26179">
        <ele>1164</ele>
        <time>2026-05-25T11:20:03.000Z</time>
      </trkpt>
      <trkpt lat="42.9283" lon="1.26172">
        <ele>1164</ele>
        <time>2026-05-25T11:20:04.000Z</time>
      </trkpt>
      <trkpt lat="42.92829" lon="1.26165">
        <ele>1164</ele>
        <time>2026-05-25T11:20:05.000Z</time>
      </trkpt>
      <trkpt lat="42.92828" lon="1.26158">
        <ele>1164</ele>
        <time>2026-05-25T11:20:06.000Z</time>
      </trkpt>
      <trkpt lat="42.92826" lon="1.2615">
        <ele>1165</ele>
        <time>2026-05-25T11:20:07.000Z</time>
      </trkpt>
      <trkpt lat="42.92825" lon="1.26144">
        <ele>1164</ele>
        <time>2026-05-25T11:20:08.000Z</time>
      </trkpt>
      <trkpt lat="42.92823" lon="1.26137">
        <ele>1164</ele>
        <time>2026-05-25T11:20:09.000Z</time>
      </trkpt>
      <trkpt lat="42.92822" lon="1.2613">
        <ele>1164</ele>
        <time>2026-05-25T11:20:10.000Z</time>
      </trkpt>
      <trkpt lat="42.92821" lon="1.26123">
        <ele>1165</ele>
        <time>2026-05-25T11:20:11.000Z</time>
      </trkpt>
      <trkpt lat="42.9282" lon="1.26116">
        <ele>1166</ele>
        <time>2026-05-25T11:20:12.000Z</time>
      </trkpt>
      <trkpt lat="42.92819" lon="1.26109">
        <ele>1166</ele>
        <time>2026-05-25T11:20:13.000Z</time>
      </trkpt>
      <trkpt lat="42.92818" lon="1.26101">
        <ele>1166</ele>
        <time>2026-05-25T11:20:14.000Z</time>
      </trkpt>
      <trkpt lat="42.92817" lon="1.26092">
        <ele>1166</ele>
        <time>2026-05-25T11:20:15.000Z</time>
      </trkpt>
      <trkpt lat="42.92817" lon="1.26083">
        <ele>1165</ele>
        <time>2026-05-25T11:20:16.000Z</time>
      </trkpt>
      <trkpt lat="42.92818" lon="1.26075">
        <ele>1165</ele>
        <time>2026-05-25T11:20:17.000Z</time>
      </trkpt>
      <trkpt lat="42.92819" lon="1.26066">
        <ele>1165</ele>
        <time>2026-05-25T11:20:18.000Z</time>
      </trkpt>
      <trkpt lat="42.9282" lon="1.26059">
        <ele>1164</ele>
        <time>2026-05-25T11:20:19.000Z</time>
      </trkpt>
      <trkpt lat="42.92821" lon="1.2605">
        <ele>1164</ele>
        <time>2026-05-25T11:20:20.000Z</time>
      </trkpt>
      <trkpt lat="42.92822" lon="1.26042">
        <ele>1163</ele>
        <time>2026-05-25T11:20:21.000Z</time>
      </trkpt>
      <trkpt lat="42.92824" lon="1.26035">
        <ele>1163</ele>
        <time>2026-05-25T11:20:22.000Z</time>
      </trkpt>
      <trkpt lat="42.92825" lon="1.26026">
        <ele>1163</ele>
        <time>2026-05-25T11:20:23.000Z</time>
      </trkpt>
      <trkpt lat="42.92826" lon="1.26019">
        <ele>1163</ele>
        <time>2026-05-25T11:20:24.000Z</time>
      </trkpt>
      <trkpt lat="42.92828" lon="1.26011">
        <ele>1163</ele>
        <time>2026-05-25T11:20:25.000Z</time>
      </trkpt>
      <trkpt lat="42.9283" lon="1.26005">
        <ele>1163</ele>
        <time>2026-05-25T11:20:26.000Z</time>
      </trkpt>
      <trkpt lat="42.9283" lon="1.25997">
        <ele>1164</ele>
        <time>2026-05-25T11:20:27.000Z</time>
      </trkpt>
      <trkpt lat="42.9283" lon="1.2599">
        <ele>1164</ele>
        <time>2026-05-25T11:20:28.000Z</time>
      </trkpt>
      <trkpt lat="42.9283" lon="1.25982">
        <ele>1163</ele>
        <time>2026-05-25T11:20:29.000Z</time>
      </trkpt>
      <trkpt lat="42.92829" lon="1.25975">
        <ele>1163</ele>
        <time>2026-05-25T11:20:30.000Z</time>
      </trkpt>
      <trkpt lat="42.9283" lon="1.25967">
        <ele>1164</ele>
        <time>2026-05-25T11:20:31.000Z</time>
      </trkpt>
      <trkpt lat="42.92831" lon="1.25959">
        <ele>1164</ele>
        <time>2026-05-25T11:20:32.000Z</time>
      </trkpt>
      <trkpt lat="42.92832" lon="1.25951">
        <ele>1163</ele>
        <time>2026-05-25T11:20:33.000Z</time>
      </trkpt>
      <trkpt lat="42.92833" lon="1.25943">
        <ele>1163</ele>
        <time>2026-05-25T11:20:34.000Z</time>
      </trkpt>
      <trkpt lat="42.92835" lon="1.25934">
        <ele>1163</ele>
        <time>2026-05-25T11:20:35.000Z</time>
      </trkpt>
      <trkpt lat="42.92836" lon="1.25926">
        <ele>1163</ele>
        <time>2026-05-25T11:20:36.000Z</time>
      </trkpt>
      <trkpt lat="42.92837" lon="1.25918">
        <ele>1163</ele>
        <time>2026-05-25T11:20:37.000Z</time>
      </trkpt>
      <trkpt lat="42.92838" lon="1.25911">
        <ele>1163</ele>
        <time>2026-05-25T11:20:38.000Z</time>
      </trkpt>
      <trkpt lat="42.92838" lon="1.25904">
        <ele>1163</ele>
        <time>2026-05-25T11:20:39.000Z</time>
      </trkpt>
      <trkpt lat="42.92839" lon="1.25897">
        <ele>1164</ele>
        <time>2026-05-25T11:20:40.000Z</time>
      </trkpt>
      <trkpt lat="42.92839" lon="1.2589">
        <ele>1164</ele>
        <time>2026-05-25T11:20:41.000Z</time>
      </trkpt>
      <trkpt lat="42.92839" lon="1.25883">
        <ele>1165</ele>
        <time>2026-05-25T11:20:42.000Z</time>
      </trkpt>
      <trkpt lat="42.92839" lon="1.25876">
        <ele>1165</ele>
        <time>2026-05-25T11:20:43.000Z</time>
      </trkpt>
      <trkpt lat="42.9284" lon="1.25868">
        <ele>1165</ele>
        <time>2026-05-25T11:20:44.000Z</time>
      </trkpt>
      <trkpt lat="42.9284" lon="1.25861">
        <ele>1165</ele>
        <time>2026-05-25T11:20:45.000Z</time>
      </trkpt>
      <trkpt lat="42.9284" lon="1.25853">
        <ele>1166</ele>
        <time>2026-05-25T11:20:46.000Z</time>
      </trkpt>
      <trkpt lat="42.92841" lon="1.25846">
        <ele>1167</ele>
        <time>2026-05-25T11:20:47.000Z</time>
      </trkpt>
      <trkpt lat="42.92841" lon="1.25838">
        <ele>1166</ele>
        <time>2026-05-25T11:20:48.000Z</time>
      </trkpt>
      <trkpt lat="42.92841" lon="1.25831">
        <ele>1166</ele>
        <time>2026-05-25T11:20:49.000Z</time>
      </trkpt>
      <trkpt lat="42.92841" lon="1.25823">
        <ele>1167</ele>
        <time>2026-05-25T11:20:50.000Z</time>
      </trkpt>
      <trkpt lat="42.92841" lon="1.25815">
        <ele>1166</ele>
        <time>2026-05-25T11:20:51.000Z</time>
      </trkpt>
      <trkpt lat="42.92841" lon="1.25807">
        <ele>1166</ele>
        <time>2026-05-25T11:20:52.000Z</time>
      </trkpt>
      <trkpt lat="42.92841" lon="1.25798">
        <ele>1165</ele>
        <time>2026-05-25T11:20:53.000Z</time>
      </trkpt>
      <trkpt lat="42.9284" lon="1.25789">
        <ele>1165</ele>
        <time>2026-05-25T11:20:54.000Z</time>
      </trkpt>
      <trkpt lat="42.92838" lon="1.25781">
        <ele>1166</ele>
        <time>2026-05-25T11:20:55.000Z</time>
      </trkpt>
      <trkpt lat="42.92837" lon="1.25774">
        <ele>1167</ele>
        <time>2026-05-25T11:20:56.000Z</time>
      </trkpt>
      <trkpt lat="42.92835" lon="1.25767">
        <ele>1167</ele>
        <time>2026-05-25T11:20:57.000Z</time>
      </trkpt>
      <trkpt lat="42.92832" lon="1.25759">
        <ele>1168</ele>
        <time>2026-05-25T11:20:58.000Z</time>
      </trkpt>
      <trkpt lat="42.92828" lon="1.25751">
        <ele>1168</ele>
        <time>2026-05-25T11:20:59.000Z</time>
      </trkpt>
      <trkpt lat="42.92825" lon="1.25744">
        <ele>1169</ele>
        <time>2026-05-25T11:21:00.000Z</time>
      </trkpt>
      <trkpt lat="42.92821" lon="1.25737">
        <ele>1168</ele>
        <time>2026-05-25T11:21:01.000Z</time>
      </trkpt>
      <trkpt lat="42.92817" lon="1.25729">
        <ele>1168</ele>
        <time>2026-05-25T11:21:02.000Z</time>
      </trkpt>
      <trkpt lat="42.92814" lon="1.25722">
        <ele>1168</ele>
        <time>2026-05-25T11:21:03.000Z</time>
      </trkpt>
      <trkpt lat="42.92811" lon="1.25714">
        <ele>1167</ele>
        <time>2026-05-25T11:21:04.000Z</time>
      </trkpt>
      <trkpt lat="42.92808" lon="1.25707">
        <ele>1167</ele>
        <time>2026-05-25T11:21:05.000Z</time>
      </trkpt>
      <trkpt lat="42.92805" lon="1.257">
        <ele>1167</ele>
        <time>2026-05-25T11:21:06.000Z</time>
      </trkpt>
      <trkpt lat="42.92802" lon="1.25692">
        <ele>1166</ele>
        <time>2026-05-25T11:21:07.000Z</time>
      </trkpt>
      <trkpt lat="42.928" lon="1.25684">
        <ele>1166</ele>
        <time>2026-05-25T11:21:08.000Z</time>
      </trkpt>
      <trkpt lat="42.92798" lon="1.25676">
        <ele>1166</ele>
        <time>2026-05-25T11:21:09.000Z</time>
      </trkpt>
      <trkpt lat="42.92796" lon="1.25669">
        <ele>1166</ele>
        <time>2026-05-25T11:21:10.000Z</time>
      </trkpt>
      <trkpt lat="42.92795" lon="1.25661">
        <ele>1166</ele>
        <time>2026-05-25T11:21:11.000Z</time>
      </trkpt>
      <trkpt lat="42.92794" lon="1.25652">
        <ele>1167</ele>
        <time>2026-05-25T11:21:12.000Z</time>
      </trkpt>
      <trkpt lat="42.92793" lon="1.25644">
        <ele>1167</ele>
        <time>2026-05-25T11:21:13.000Z</time>
      </trkpt>
      <trkpt lat="42.92792" lon="1.25636">
        <ele>1167</ele>
        <time>2026-05-25T11:21:14.000Z</time>
      </trkpt>
      <trkpt lat="42.92792" lon="1.25627">
        <ele>1167</ele>
        <time>2026-05-25T11:21:15.000Z</time>
      </trkpt>
      <trkpt lat="42.92791" lon="1.25618">
        <ele>1167</ele>
        <time>2026-05-25T11:21:16.000Z</time>
      </trkpt>
      <trkpt lat="42.92791" lon="1.25609">
        <ele>1167</ele>
        <time>2026-05-25T11:21:17.000Z</time>
      </trkpt>
      <trkpt lat="42.92791" lon="1.256">
        <ele>1166</ele>
        <time>2026-05-25T11:21:18.000Z</time>
      </trkpt>
      <trkpt lat="42.9279" lon="1.2559">
        <ele>1166</ele>
        <time>2026-05-25T11:21:19.000Z</time>
      </trkpt>
      <trkpt lat="42.9279" lon="1.25582">
        <ele>1166</ele>
        <time>2026-05-25T11:21:20.000Z</time>
      </trkpt>
      <trkpt lat="42.9279" lon="1.25573">
        <ele>1166</ele>
        <time>2026-05-25T11:21:21.000Z</time>
      </trkpt>
      <trkpt lat="42.92791" lon="1.25564">
        <ele>1166</ele>
        <time>2026-05-25T11:21:22.000Z</time>
      </trkpt>
      <trkpt lat="42.92791" lon="1.25555">
        <ele>1166</ele>
        <time>2026-05-25T11:21:23.000Z</time>
      </trkpt>
      <trkpt lat="42.92791" lon="1.25546">
        <ele>1166</ele>
        <time>2026-05-25T11:21:24.000Z</time>
      </trkpt>
      <trkpt lat="42.92791" lon="1.25537">
        <ele>1165</ele>
        <time>2026-05-25T11:21:25.000Z</time>
      </trkpt>
      <trkpt lat="42.92792" lon="1.25528">
        <ele>1165</ele>
        <time>2026-05-25T11:21:26.000Z</time>
      </trkpt>
      <trkpt lat="42.92793" lon="1.25518">
        <ele>1165</ele>
        <time>2026-05-25T11:21:27.000Z</time>
      </trkpt>
      <trkpt lat="42.92794" lon="1.25509">
        <ele>1165</ele>
        <time>2026-05-25T11:21:28.000Z</time>
      </trkpt>
      <trkpt lat="42.92795" lon="1.255">
        <ele>1165</ele>
        <time>2026-05-25T11:21:29.000Z</time>
      </trkpt>
      <trkpt lat="42.92797" lon="1.25493">
        <ele>1166</ele>
        <time>2026-05-25T11:21:30.000Z</time>
      </trkpt>
      <trkpt lat="42.92798" lon="1.25485">
        <ele>1167</ele>
        <time>2026-05-25T11:21:31.000Z</time>
      </trkpt>
      <trkpt lat="42.92799" lon="1.25478">
        <ele>1168</ele>
        <time>2026-05-25T11:21:32.000Z</time>
      </trkpt>
      <trkpt lat="42.928" lon="1.25471">
        <ele>1168</ele>
        <time>2026-05-25T11:21:33.000Z</time>
      </trkpt>
      <trkpt lat="42.92801" lon="1.25464">
        <ele>1168</ele>
        <time>2026-05-25T11:21:34.000Z</time>
      </trkpt>
      <trkpt lat="42.92803" lon="1.25457">
        <ele>1168</ele>
        <time>2026-05-25T11:21:35.000Z</time>
      </trkpt>
      <trkpt lat="42.92803" lon="1.2545">
        <ele>1167</ele>
        <time>2026-05-25T11:21:36.000Z</time>
      </trkpt>
      <trkpt lat="42.92804" lon="1.25442">
        <ele>1167</ele>
        <time>2026-05-25T11:21:37.000Z</time>
      </trkpt>
      <trkpt lat="42.92806" lon="1.25435">
        <ele>1167</ele>
        <time>2026-05-25T11:21:38.000Z</time>
      </trkpt>
      <trkpt lat="42.92807" lon="1.25427">
        <ele>1167</ele>
        <time>2026-05-25T11:21:39.000Z</time>
      </trkpt>
      <trkpt lat="42.92808" lon="1.25423">
        <ele>1167</ele>
        <time>2026-05-25T11:21:40.000Z</time>
      </trkpt>
      <trkpt lat="42.92807" lon="1.25421">
        <ele>1167</ele>
        <time>2026-05-25T11:21:41.000Z</time>
      </trkpt>
      <trkpt lat="42.92806" lon="1.2542">
        <ele>1166</ele>
        <time>2026-05-25T11:21:42.000Z</time>
      </trkpt>
      <trkpt lat="42.92805" lon="1.25419">
        <ele>1166</ele>
        <time>2026-05-25T11:21:43.000Z</time>
      </trkpt>
      <trkpt lat="42.92806" lon="1.25418">
        <ele>1166</ele>
        <time>2026-05-25T11:21:44.000Z</time>
      </trkpt>
      <trkpt lat="42.92807" lon="1.25417">
        <ele>1166</ele>
        <time>2026-05-25T11:21:45.000Z</time>
      </trkpt>
      <trkpt lat="42.92808" lon="1.25414">
        <ele>1168</ele>
        <time>2026-05-25T11:21:46.000Z</time>
      </trkpt>
      <trkpt lat="42.9281" lon="1.25409">
        <ele>1169</ele>
        <time>2026-05-25T11:21:47.000Z</time>
      </trkpt>
      <trkpt lat="42.92811" lon="1.25401">
        <ele>1168</ele>
        <time>2026-05-25T11:21:48.000Z</time>
      </trkpt>
      <trkpt lat="42.92813" lon="1.25394">
        <ele>1168</ele>
        <time>2026-05-25T11:21:49.000Z</time>
      </trkpt>
      <trkpt lat="42.92816" lon="1.25387">
        <ele>1168</ele>
        <time>2026-05-25T11:21:50.000Z</time>
      </trkpt>
      <trkpt lat="42.92818" lon="1.2538">
        <ele>1167</ele>
        <time>2026-05-25T11:21:51.000Z</time>
      </trkpt>
      <trkpt lat="42.92822" lon="1.25374">
        <ele>1167</ele>
        <time>2026-05-25T11:21:52.000Z</time>
      </trkpt>
      <trkpt lat="42.92825" lon="1.25367">
        <ele>1166</ele>
        <time>2026-05-25T11:21:53.000Z</time>
      </trkpt>
      <trkpt lat="42.9283" lon="1.25361">
        <ele>1166</ele>
        <time>2026-05-25T11:21:54.000Z</time>
      </trkpt>
      <trkpt lat="42.92835" lon="1.25357">
        <ele>1166</ele>
        <time>2026-05-25T11:21:55.000Z</time>
      </trkpt>
      <trkpt lat="42.9284" lon="1.25351">
        <ele>1167</ele>
        <time>2026-05-25T11:21:56.000Z</time>
      </trkpt>
      <trkpt lat="42.92844" lon="1.25346">
        <ele>1167</ele>
        <time>2026-05-25T11:21:57.000Z</time>
      </trkpt>
      <trkpt lat="42.92849" lon="1.25341">
        <ele>1167</ele>
        <time>2026-05-25T11:21:58.000Z</time>
      </trkpt>
      <trkpt lat="42.92854" lon="1.25338">
        <ele>1167</ele>
        <time>2026-05-25T11:21:59.000Z</time>
      </trkpt>
      <trkpt lat="42.92859" lon="1.25336">
        <ele>1167</ele>
        <time>2026-05-25T11:22:00.000Z</time>
      </trkpt>
      <trkpt lat="42.92865" lon="1.25334">
        <ele>1166</ele>
        <time>2026-05-25T11:22:01.000Z</time>
      </trkpt>
      <trkpt lat="42.92871" lon="1.25332">
        <ele>1166</ele>
        <time>2026-05-25T11:22:02.000Z</time>
      </trkpt>
      <trkpt lat="42.92877" lon="1.25332">
        <ele>1166</ele>
        <time>2026-05-25T11:22:03.000Z</time>
      </trkpt>
      <trkpt lat="42.92883" lon="1.25332">
        <ele>1167</ele>
        <time>2026-05-25T11:22:04.000Z</time>
      </trkpt>
      <trkpt lat="42.92888" lon="1.25332">
        <ele>1167</ele>
        <time>2026-05-25T11:22:05.000Z</time>
      </trkpt>
      <trkpt lat="42.92894" lon="1.25333">
        <ele>1167</ele>
        <time>2026-05-25T11:22:06.000Z</time>
      </trkpt>
      <trkpt lat="42.92899" lon="1.25334">
        <ele>1167</ele>
        <time>2026-05-25T11:22:07.000Z</time>
      </trkpt>
      <trkpt lat="42.92906" lon="1.25334">
        <ele>1167</ele>
        <time>2026-05-25T11:22:08.000Z</time>
      </trkpt>
      <trkpt lat="42.92912" lon="1.25335">
        <ele>1168</ele>
        <time>2026-05-25T11:22:09.000Z</time>
      </trkpt>
      <trkpt lat="42.92918" lon="1.25335">
        <ele>1167</ele>
        <time>2026-05-25T11:22:10.000Z</time>
      </trkpt>
      <trkpt lat="42.92924" lon="1.25335">
        <ele>1167</ele>
        <time>2026-05-25T11:22:11.000Z</time>
      </trkpt>
      <trkpt lat="42.9293" lon="1.25334">
        <ele>1167</ele>
        <time>2026-05-25T11:22:12.000Z</time>
      </trkpt>
      <trkpt lat="42.92936" lon="1.25332">
        <ele>1167</ele>
        <time>2026-05-25T11:22:13.000Z</time>
      </trkpt>
      <trkpt lat="42.92943" lon="1.25333">
        <ele>1167</ele>
        <time>2026-05-25T11:22:14.000Z</time>
      </trkpt>
      <trkpt lat="42.92948" lon="1.25331">
        <ele>1167</ele>
        <time>2026-05-25T11:22:15.000Z</time>
      </trkpt>
      <trkpt lat="42.92954" lon="1.25329">
        <ele>1167</ele>
        <time>2026-05-25T11:22:16.000Z</time>
      </trkpt>
      <trkpt lat="42.9296" lon="1.25327">
        <ele>1168</ele>
        <time>2026-05-25T11:22:17.000Z</time>
      </trkpt>
      <trkpt lat="42.92966" lon="1.25325">
        <ele>1167</ele>
        <time>2026-05-25T11:22:18.000Z</time>
      </trkpt>
      <trkpt lat="42.92972" lon="1.25324">
        <ele>1167</ele>
        <time>2026-05-25T11:22:19.000Z</time>
      </trkpt>
      <trkpt lat="42.92977" lon="1.25324">
        <ele>1167</ele>
        <time>2026-05-25T11:22:20.000Z</time>
      </trkpt>
      <trkpt lat="42.92983" lon="1.25323">
        <ele>1167</ele>
        <time>2026-05-25T11:22:21.000Z</time>
      </trkpt>
      <trkpt lat="42.9299" lon="1.25322">
        <ele>1167</ele>
        <time>2026-05-25T11:22:22.000Z</time>
      </trkpt>
      <trkpt lat="42.92997" lon="1.2532">
        <ele>1166</ele>
        <time>2026-05-25T11:22:23.000Z</time>
      </trkpt>
      <trkpt lat="42.93003" lon="1.25317">
        <ele>1166</ele>
        <time>2026-05-25T11:22:24.000Z</time>
      </trkpt>
      <trkpt lat="42.93008" lon="1.25312">
        <ele>1165</ele>
        <time>2026-05-25T11:22:25.000Z</time>
      </trkpt>
      <trkpt lat="42.93011" lon="1.25307">
        <ele>1165</ele>
        <time>2026-05-25T11:22:26.000Z</time>
      </trkpt>
      <trkpt lat="42.93012" lon="1.25305">
        <ele>1168</ele>
        <time>2026-05-25T11:22:27.000Z</time>
      </trkpt>
      <trkpt lat="42.93012" lon="1.25302">
        <ele>1171</ele>
        <time>2026-05-25T11:22:28.000Z</time>
      </trkpt>
      <trkpt lat="42.93008" lon="1.25299">
        <ele>1174</ele>
        <time>2026-05-25T11:22:29.000Z</time>
      </trkpt>
      <trkpt lat="42.93001" lon="1.25294">
        <ele>1176</ele>
        <time>2026-05-25T11:22:30.000Z</time>
      </trkpt>
      <trkpt lat="42.92997" lon="1.2529">
        <ele>1179</ele>
        <time>2026-05-25T11:22:31.000Z</time>
      </trkpt>
      <trkpt lat="42.92993" lon="1.25286">
        <ele>1182</ele>
        <time>2026-05-25T11:22:32.000Z</time>
      </trkpt>
      <trkpt lat="42.9299" lon="1.25283">
        <ele>1185</ele>
        <time>2026-05-25T11:22:33.000Z</time>
      </trkpt>
      <trkpt lat="42.92986" lon="1.25277">
        <ele>1187</ele>
        <time>2026-05-25T11:22:34.000Z</time>
      </trkpt>
      <trkpt lat="42.92983" lon="1.25267">
        <ele>1186</ele>
        <time>2026-05-25T11:22:35.000Z</time>
      </trkpt>
      <trkpt lat="42.92981" lon="1.25256">
        <ele>1185</ele>
        <time>2026-05-25T11:22:36.000Z</time>
      </trkpt>
      <trkpt lat="42.92979" lon="1.25245">
        <ele>1183</ele>
        <time>2026-05-25T11:22:37.000Z</time>
      </trkpt>
      <trkpt lat="42.92979" lon="1.25235">
        <ele>1182</ele>
        <time>2026-05-25T11:22:38.000Z</time>
      </trkpt>
      <trkpt lat="42.92979" lon="1.25225">
        <ele>1180</ele>
        <time>2026-05-25T11:22:39.000Z</time>
      </trkpt>
      <trkpt lat="42.92981" lon="1.25214">
        <ele>1178</ele>
        <time>2026-05-25T11:22:40.000Z</time>
      </trkpt>
      <trkpt lat="42.92982" lon="1.25205">
        <ele>1176</ele>
        <time>2026-05-25T11:22:41.000Z</time>
      </trkpt>
      <trkpt lat="42.92984" lon="1.25195">
        <ele>1174</ele>
        <time>2026-05-25T11:22:42.000Z</time>
      </trkpt>
      <trkpt lat="42.92987" lon="1.25186">
        <ele>1172</ele>
        <time>2026-05-25T11:22:43.000Z</time>
      </trkpt>
      <trkpt lat="42.9299" lon="1.25178">
        <ele>1171</ele>
        <time>2026-05-25T11:22:44.000Z</time>
      </trkpt>
      <trkpt lat="42.92993" lon="1.2517">
        <ele>1171</ele>
        <time>2026-05-25T11:22:45.000Z</time>
      </trkpt>
      <trkpt lat="42.92996" lon="1.25161">
        <ele>1170</ele>
        <time>2026-05-25T11:22:46.000Z</time>
      </trkpt>
      <trkpt lat="42.92998" lon="1.25154">
        <ele>1169</ele>
        <time>2026-05-25T11:22:47.000Z</time>
      </trkpt>
      <trkpt lat="42.93" lon="1.25146">
        <ele>1169</ele>
        <time>2026-05-25T11:22:48.000Z</time>
      </trkpt>
      <trkpt lat="42.93003" lon="1.2514">
        <ele>1168</ele>
        <time>2026-05-25T11:22:49.000Z</time>
      </trkpt>
      <trkpt lat="42.93005" lon="1.25133">
        <ele>1168</ele>
        <time>2026-05-25T11:22:50.000Z</time>
      </trkpt>
      <trkpt lat="42.93008" lon="1.25126">
        <ele>1168</ele>
        <time>2026-05-25T11:22:51.000Z</time>
      </trkpt>
      <trkpt lat="42.93012" lon="1.2512">
        <ele>1167</ele>
        <time>2026-05-25T11:22:52.000Z</time>
      </trkpt>
      <trkpt lat="42.93015" lon="1.25112">
        <ele>1167</ele>
        <time>2026-05-25T11:22:53.000Z</time>
      </trkpt>
      <trkpt lat="42.93018" lon="1.25106">
        <ele>1167</ele>
        <time>2026-05-25T11:22:54.000Z</time>
      </trkpt>
      <trkpt lat="42.93021" lon="1.25099">
        <ele>1166</ele>
        <time>2026-05-25T11:22:55.000Z</time>
      </trkpt>
      <trkpt lat="42.93025" lon="1.25094">
        <ele>1166</ele>
        <time>2026-05-25T11:22:56.000Z</time>
      </trkpt>
      <trkpt lat="42.93028" lon="1.25089">
        <ele>1166</ele>
        <time>2026-05-25T11:22:57.000Z</time>
      </trkpt>
      <trkpt lat="42.9303" lon="1.25085">
        <ele>1166</ele>
        <time>2026-05-25T11:22:58.000Z</time>
      </trkpt>
      <trkpt lat="42.93033" lon="1.25078">
        <ele>1167</ele>
        <time>2026-05-25T11:22:59.000Z</time>
      </trkpt>
      <trkpt lat="42.93036" lon="1.2507">
        <ele>1167</ele>
        <time>2026-05-25T11:23:00.000Z</time>
      </trkpt>
      <trkpt lat="42.93041" lon="1.25063">
        <ele>1166</ele>
        <time>2026-05-25T11:23:01.000Z</time>
      </trkpt>
      <trkpt lat="42.93043" lon="1.25056">
        <ele>1165</ele>
        <time>2026-05-25T11:23:02.000Z</time>
      </trkpt>
      <trkpt lat="42.93045" lon="1.25049">
        <ele>1165</ele>
        <time>2026-05-25T11:23:03.000Z</time>
      </trkpt>
      <trkpt lat="42.93048" lon="1.25041">
        <ele>1165</ele>
        <time>2026-05-25T11:23:04.000Z</time>
      </trkpt>
      <trkpt lat="42.93049" lon="1.25034">
        <ele>1164</ele>
        <time>2026-05-25T11:23:05.000Z</time>
      </trkpt>
      <trkpt lat="42.93048" lon="1.25026">
        <ele>1164</ele>
        <time>2026-05-25T11:23:06.000Z</time>
      </trkpt>
      <trkpt lat="42.93046" lon="1.25018">
        <ele>1164</ele>
        <time>2026-05-25T11:23:07.000Z</time>
      </trkpt>
      <trkpt lat="42.93042" lon="1.25012">
        <ele>1164</ele>
        <time>2026-05-25T11:23:08.000Z</time>
      </trkpt>
      <trkpt lat="42.93037" lon="1.25007">
        <ele>1165</ele>
        <time>2026-05-25T11:23:09.000Z</time>
      </trkpt>
      <trkpt lat="42.93033" lon="1.25004">
        <ele>1164</ele>
        <time>2026-05-25T11:23:10.000Z</time>
      </trkpt>
      <trkpt lat="42.93028" lon="1.25">
        <ele>1164</ele>
        <time>2026-05-25T11:23:11.000Z</time>
      </trkpt>
      <trkpt lat="42.93023" lon="1.24995">
        <ele>1164</ele>
        <time>2026-05-25T11:23:12.000Z</time>
      </trkpt>
      <trkpt lat="42.93019" lon="1.24989">
        <ele>1164</ele>
        <time>2026-05-25T11:23:13.000Z</time>
      </trkpt>
      <trkpt lat="42.93015" lon="1.24984">
        <ele>1163</ele>
        <time>2026-05-25T11:23:14.000Z</time>
      </trkpt>
      <trkpt lat="42.93011" lon="1.24977">
        <ele>1162</ele>
        <time>2026-05-25T11:23:15.000Z</time>
      </trkpt>
      <trkpt lat="42.93008" lon="1.24971">
        <ele>1161</ele>
        <time>2026-05-25T11:23:16.000Z</time>
      </trkpt>
      <trkpt lat="42.93006" lon="1.24963">
        <ele>1161</ele>
        <time>2026-05-25T11:23:17.000Z</time>
      </trkpt>
      <trkpt lat="42.93005" lon="1.24954">
        <ele>1161</ele>
        <time>2026-05-25T11:23:18.000Z</time>
      </trkpt>
      <trkpt lat="42.93005" lon="1.24946">
        <ele>1160</ele>
        <time>2026-05-25T11:23:19.000Z</time>
      </trkpt>
      <trkpt lat="42.93005" lon="1.24937">
        <ele>1160</ele>
        <time>2026-05-25T11:23:20.000Z</time>
      </trkpt>
      <trkpt lat="42.93005" lon="1.24928">
        <ele>1160</ele>
        <time>2026-05-25T11:23:21.000Z</time>
      </trkpt>
      <trkpt lat="42.93005" lon="1.24919">
        <ele>1159</ele>
        <time>2026-05-25T11:23:22.000Z</time>
      </trkpt>
      <trkpt lat="42.93005" lon="1.24911">
        <ele>1159</ele>
        <time>2026-05-25T11:23:23.000Z</time>
      </trkpt>
      <trkpt lat="42.93004" lon="1.24903">
        <ele>1159</ele>
        <time>2026-05-25T11:23:24.000Z</time>
      </trkpt>
      <trkpt lat="42.93004" lon="1.24896">
        <ele>1158</ele>
        <time>2026-05-25T11:23:25.000Z</time>
      </trkpt>
      <trkpt lat="42.93003" lon="1.24888">
        <ele>1158</ele>
        <time>2026-05-25T11:23:26.000Z</time>
      </trkpt>
      <trkpt lat="42.93002" lon="1.24881">
        <ele>1158</ele>
        <time>2026-05-25T11:23:27.000Z</time>
      </trkpt>
      <trkpt lat="42.93001" lon="1.24873">
        <ele>1158</ele>
        <time>2026-05-25T11:23:28.000Z</time>
      </trkpt>
      <trkpt lat="42.93" lon="1.24866">
        <ele>1158</ele>
        <time>2026-05-25T11:23:29.000Z</time>
      </trkpt>
      <trkpt lat="42.93" lon="1.24857">
        <ele>1159</ele>
        <time>2026-05-25T11:23:30.000Z</time>
      </trkpt>
      <trkpt lat="42.92999" lon="1.2485">
        <ele>1159</ele>
        <time>2026-05-25T11:23:31.000Z</time>
      </trkpt>
      <trkpt lat="42.92998" lon="1.24842">
        <ele>1159</ele>
        <time>2026-05-25T11:23:32.000Z</time>
      </trkpt>
      <trkpt lat="42.92996" lon="1.24835">
        <ele>1160</ele>
        <time>2026-05-25T11:23:33.000Z</time>
      </trkpt>
      <trkpt lat="42.92994" lon="1.24827">
        <ele>1160</ele>
        <time>2026-05-25T11:23:34.000Z</time>
      </trkpt>
      <trkpt lat="42.92991" lon="1.24819">
        <ele>1160</ele>
        <time>2026-05-25T11:23:35.000Z</time>
      </trkpt>
      <trkpt lat="42.9299" lon="1.24811">
        <ele>1160</ele>
        <time>2026-05-25T11:23:36.000Z</time>
      </trkpt>
      <trkpt lat="42.92989" lon="1.24804">
        <ele>1160</ele>
        <time>2026-05-25T11:23:37.000Z</time>
      </trkpt>
      <trkpt lat="42.92989" lon="1.24795">
        <ele>1159</ele>
        <time>2026-05-25T11:23:38.000Z</time>
      </trkpt>
      <trkpt lat="42.92988" lon="1.24787">
        <ele>1159</ele>
        <time>2026-05-25T11:23:39.000Z</time>
      </trkpt>
      <trkpt lat="42.92988" lon="1.24779">
        <ele>1159</ele>
        <time>2026-05-25T11:23:40.000Z</time>
      </trkpt>
      <trkpt lat="42.92988" lon="1.24771">
        <ele>1159</ele>
        <time>2026-05-25T11:23:41.000Z</time>
      </trkpt>
      <trkpt lat="42.92988" lon="1.24762">
        <ele>1158</ele>
        <time>2026-05-25T11:23:42.000Z</time>
      </trkpt>
      <trkpt lat="42.92987" lon="1.24754">
        <ele>1158</ele>
        <time>2026-05-25T11:23:43.000Z</time>
      </trkpt>
      <trkpt lat="42.92988" lon="1.24744">
        <ele>1158</ele>
        <time>2026-05-25T11:23:44.000Z</time>
      </trkpt>
      <trkpt lat="42.92987" lon="1.24736">
        <ele>1158</ele>
        <time>2026-05-25T11:23:45.000Z</time>
      </trkpt>
      <trkpt lat="42.92986" lon="1.24728">
        <ele>1158</ele>
        <time>2026-05-25T11:23:46.000Z</time>
      </trkpt>
      <trkpt lat="42.92985" lon="1.2472">
        <ele>1158</ele>
        <time>2026-05-25T11:23:47.000Z</time>
      </trkpt>
      <trkpt lat="42.92983" lon="1.24712">
        <ele>1157</ele>
        <time>2026-05-25T11:23:48.000Z</time>
      </trkpt>
      <trkpt lat="42.9298" lon="1.24704">
        <ele>1158</ele>
        <time>2026-05-25T11:23:49.000Z</time>
      </trkpt>
      <trkpt lat="42.92978" lon="1.24696">
        <ele>1158</ele>
        <time>2026-05-25T11:23:50.000Z</time>
      </trkpt>
      <trkpt lat="42.92976" lon="1.24687">
        <ele>1158</ele>
        <time>2026-05-25T11:23:51.000Z</time>
      </trkpt>
      <trkpt lat="42.92975" lon="1.24678">
        <ele>1158</ele>
        <time>2026-05-25T11:23:52.000Z</time>
      </trkpt>
      <trkpt lat="42.92972" lon="1.24669">
        <ele>1158</ele>
        <time>2026-05-25T11:23:53.000Z</time>
      </trkpt>
      <trkpt lat="42.92971" lon="1.2466">
        <ele>1159</ele>
        <time>2026-05-25T11:23:54.000Z</time>
      </trkpt>
      <trkpt lat="42.9297" lon="1.24651">
        <ele>1159</ele>
        <time>2026-05-25T11:23:55.000Z</time>
      </trkpt>
      <trkpt lat="42.92969" lon="1.24642">
        <ele>1159</ele>
        <time>2026-05-25T11:23:56.000Z</time>
      </trkpt>
      <trkpt lat="42.92969" lon="1.24632">
        <ele>1159</ele>
        <time>2026-05-25T11:23:57.000Z</time>
      </trkpt>
      <trkpt lat="42.92969" lon="1.24623">
        <ele>1159</ele>
        <time>2026-05-25T11:23:58.000Z</time>
      </trkpt>
      <trkpt lat="42.92969" lon="1.24614">
        <ele>1160</ele>
        <time>2026-05-25T11:23:59.000Z</time>
      </trkpt>
      <trkpt lat="42.92969" lon="1.24605">
        <ele>1159</ele>
        <time>2026-05-25T11:24:00.000Z</time>
      </trkpt>
      <trkpt lat="42.92969" lon="1.24595">
        <ele>1159</ele>
        <time>2026-05-25T11:24:01.000Z</time>
      </trkpt>
      <trkpt lat="42.92969" lon="1.24585">
        <ele>1159</ele>
        <time>2026-05-25T11:24:02.000Z</time>
      </trkpt>
      <trkpt lat="42.9297" lon="1.24576">
        <ele>1159</ele>
        <time>2026-05-25T11:24:03.000Z</time>
      </trkpt>
      <trkpt lat="42.92971" lon="1.24567">
        <ele>1159</ele>
        <time>2026-05-25T11:24:04.000Z</time>
      </trkpt>
      <trkpt lat="42.92972" lon="1.24556">
        <ele>1158</ele>
        <time>2026-05-25T11:24:05.000Z</time>
      </trkpt>
      <trkpt lat="42.92975" lon="1.24547">
        <ele>1159</ele>
        <time>2026-05-25T11:24:06.000Z</time>
      </trkpt>
      <trkpt lat="42.92979" lon="1.24538">
        <ele>1158</ele>
        <time>2026-05-25T11:24:07.000Z</time>
      </trkpt>
      <trkpt lat="42.92982" lon="1.24528">
        <ele>1158</ele>
        <time>2026-05-25T11:24:08.000Z</time>
      </trkpt>
      <trkpt lat="42.92986" lon="1.24517">
        <ele>1157</ele>
        <time>2026-05-25T11:24:09.000Z</time>
      </trkpt>
      <trkpt lat="42.92989" lon="1.24507">
        <ele>1155</ele>
        <time>2026-05-25T11:24:10.000Z</time>
      </trkpt>
      <trkpt lat="42.92993" lon="1.24498">
        <ele>1154</ele>
        <time>2026-05-25T11:24:11.000Z</time>
      </trkpt>
      <trkpt lat="42.92998" lon="1.24488">
        <ele>1152</ele>
        <time>2026-05-25T11:24:12.000Z</time>
      </trkpt>
      <trkpt lat="42.93003" lon="1.24481">
        <ele>1151</ele>
        <time>2026-05-25T11:24:13.000Z</time>
      </trkpt>
      <trkpt lat="42.93008" lon="1.24473">
        <ele>1151</ele>
        <time>2026-05-25T11:24:14.000Z</time>
      </trkpt>
      <trkpt lat="42.93014" lon="1.24467">
        <ele>1150</ele>
        <time>2026-05-25T11:24:15.000Z</time>
      </trkpt>
      <trkpt lat="42.93021" lon="1.24462">
        <ele>1150</ele>
        <time>2026-05-25T11:24:16.000Z</time>
      </trkpt>
      <trkpt lat="42.93028" lon="1.24458">
        <ele>1149</ele>
        <time>2026-05-25T11:24:17.000Z</time>
      </trkpt>
      <trkpt lat="42.93035" lon="1.24456">
        <ele>1149</ele>
        <time>2026-05-25T11:24:18.000Z</time>
      </trkpt>
      <trkpt lat="42.93042" lon="1.24453">
        <ele>1149</ele>
        <time>2026-05-25T11:24:19.000Z</time>
      </trkpt>
      <trkpt lat="42.93049" lon="1.24452">
        <ele>1149</ele>
        <time>2026-05-25T11:24:20.000Z</time>
      </trkpt>
      <trkpt lat="42.93056" lon="1.2445">
        <ele>1149</ele>
        <time>2026-05-25T11:24:21.000Z</time>
      </trkpt>
      <trkpt lat="42.93063" lon="1.24449">
        <ele>1149</ele>
        <time>2026-05-25T11:24:22.000Z</time>
      </trkpt>
      <trkpt lat="42.9307" lon="1.2445">
        <ele>1149</ele>
        <time>2026-05-25T11:24:23.000Z</time>
      </trkpt>
      <trkpt lat="42.93076" lon="1.24451">
        <ele>1148</ele>
        <time>2026-05-25T11:24:24.000Z</time>
      </trkpt>
      <trkpt lat="42.93083" lon="1.24451">
        <ele>1148</ele>
        <time>2026-05-25T11:24:25.000Z</time>
      </trkpt>
      <trkpt lat="42.93088" lon="1.24448">
        <ele>1148</ele>
        <time>2026-05-25T11:24:26.000Z</time>
      </trkpt>
      <trkpt lat="42.93092" lon="1.24444">
        <ele>1148</ele>
        <time>2026-05-25T11:24:27.000Z</time>
      </trkpt>
      <trkpt lat="42.93095" lon="1.24439">
        <ele>1148</ele>
        <time>2026-05-25T11:24:28.000Z</time>
      </trkpt>
      <trkpt lat="42.93098" lon="1.24433">
        <ele>1147</ele>
        <time>2026-05-25T11:24:29.000Z</time>
      </trkpt>
      <trkpt lat="42.931" lon="1.24427">
        <ele>1148</ele>
        <time>2026-05-25T11:24:30.000Z</time>
      </trkpt>
      <trkpt lat="42.93101" lon="1.24419">
        <ele>1147</ele>
        <time>2026-05-25T11:24:31.000Z</time>
      </trkpt>
      <trkpt lat="42.93102" lon="1.24412">
        <ele>1147</ele>
        <time>2026-05-25T11:24:32.000Z</time>
      </trkpt>
      <trkpt lat="42.93103" lon="1.24403">
        <ele>1147</ele>
        <time>2026-05-25T11:24:33.000Z</time>
      </trkpt>
      <trkpt lat="42.93104" lon="1.24394">
        <ele>1146</ele>
        <time>2026-05-25T11:24:34.000Z</time>
      </trkpt>
      <trkpt lat="42.93106" lon="1.24386">
        <ele>1146</ele>
        <time>2026-05-25T11:24:35.000Z</time>
      </trkpt>
      <trkpt lat="42.93107" lon="1.24378">
        <ele>1145</ele>
        <time>2026-05-25T11:24:36.000Z</time>
      </trkpt>
      <trkpt lat="42.93109" lon="1.24372">
        <ele>1145</ele>
        <time>2026-05-25T11:24:37.000Z</time>
      </trkpt>
      <trkpt lat="42.93113" lon="1.24364">
        <ele>1145</ele>
        <time>2026-05-25T11:24:38.000Z</time>
      </trkpt>
      <trkpt lat="42.93115" lon="1.24357">
        <ele>1145</ele>
        <time>2026-05-25T11:24:39.000Z</time>
      </trkpt>
      <trkpt lat="42.93118" lon="1.24349">
        <ele>1146</ele>
        <time>2026-05-25T11:24:40.000Z</time>
      </trkpt>
      <trkpt lat="42.93121" lon="1.24341">
        <ele>1146</ele>
        <time>2026-05-25T11:24:41.000Z</time>
      </trkpt>
      <trkpt lat="42.93124" lon="1.24334">
        <ele>1146</ele>
        <time>2026-05-25T11:24:42.000Z</time>
      </trkpt>
      <trkpt lat="42.93127" lon="1.24327">
        <ele>1145</ele>
        <time>2026-05-25T11:24:43.000Z</time>
      </trkpt>
      <trkpt lat="42.9313" lon="1.24321">
        <ele>1145</ele>
        <time>2026-05-25T11:24:44.000Z</time>
      </trkpt>
      <trkpt lat="42.93134" lon="1.24314">
        <ele>1145</ele>
        <time>2026-05-25T11:24:45.000Z</time>
      </trkpt>
      <trkpt lat="42.93137" lon="1.24307">
        <ele>1145</ele>
        <time>2026-05-25T11:24:46.000Z</time>
      </trkpt>
      <trkpt lat="42.93141" lon="1.24301">
        <ele>1145</ele>
        <time>2026-05-25T11:24:47.000Z</time>
      </trkpt>
      <trkpt lat="42.93145" lon="1.24295">
        <ele>1145</ele>
        <time>2026-05-25T11:24:48.000Z</time>
      </trkpt>
      <trkpt lat="42.9315" lon="1.24289">
        <ele>1146</ele>
        <time>2026-05-25T11:24:49.000Z</time>
      </trkpt>
      <trkpt lat="42.93154" lon="1.24282">
        <ele>1147</ele>
        <time>2026-05-25T11:24:50.000Z</time>
      </trkpt>
      <trkpt lat="42.93158" lon="1.24276">
        <ele>1147</ele>
        <time>2026-05-25T11:24:51.000Z</time>
      </trkpt>
      <trkpt lat="42.93162" lon="1.2427">
        <ele>1147</ele>
        <time>2026-05-25T11:24:52.000Z</time>
      </trkpt>
      <trkpt lat="42.93167" lon="1.24263">
        <ele>1147</ele>
        <time>2026-05-25T11:24:53.000Z</time>
      </trkpt>
      <trkpt lat="42.93171" lon="1.24257">
        <ele>1147</ele>
        <time>2026-05-25T11:24:54.000Z</time>
      </trkpt>
      <trkpt lat="42.93175" lon="1.2425">
        <ele>1147</ele>
        <time>2026-05-25T11:24:55.000Z</time>
      </trkpt>
      <trkpt lat="42.93179" lon="1.24245">
        <ele>1147</ele>
        <time>2026-05-25T11:24:56.000Z</time>
      </trkpt>
      <trkpt lat="42.93183" lon="1.24239">
        <ele>1148</ele>
        <time>2026-05-25T11:24:57.000Z</time>
      </trkpt>
      <trkpt lat="42.93188" lon="1.24234">
        <ele>1148</ele>
        <time>2026-05-25T11:24:58.000Z</time>
      </trkpt>
      <trkpt lat="42.93192" lon="1.24229">
        <ele>1148</ele>
        <time>2026-05-25T11:24:59.000Z</time>
      </trkpt>
      <trkpt lat="42.93197" lon="1.24222">
        <ele>1147</ele>
        <time>2026-05-25T11:25:00.000Z</time>
      </trkpt>
      <trkpt lat="42.93201" lon="1.24215">
        <ele>1147</ele>
        <time>2026-05-25T11:25:01.000Z</time>
      </trkpt>
      <trkpt lat="42.93205" lon="1.24207">
        <ele>1148</ele>
        <time>2026-05-25T11:25:02.000Z</time>
      </trkpt>
      <trkpt lat="42.93208" lon="1.242">
        <ele>1147</ele>
        <time>2026-05-25T11:25:03.000Z</time>
      </trkpt>
      <trkpt lat="42.93211" lon="1.24191">
        <ele>1147</ele>
        <time>2026-05-25T11:25:04.000Z</time>
      </trkpt>
      <trkpt lat="42.93214" lon="1.24184">
        <ele>1146</ele>
        <time>2026-05-25T11:25:05.000Z</time>
      </trkpt>
      <trkpt lat="42.93216" lon="1.24177">
        <ele>1146</ele>
        <time>2026-05-25T11:25:06.000Z</time>
      </trkpt>
      <trkpt lat="42.93218" lon="1.24169">
        <ele>1145</ele>
        <time>2026-05-25T11:25:07.000Z</time>
      </trkpt>
      <trkpt lat="42.9322" lon="1.24162">
        <ele>1145</ele>
        <time>2026-05-25T11:25:08.000Z</time>
      </trkpt>
      <trkpt lat="42.93222" lon="1.24154">
        <ele>1145</ele>
        <time>2026-05-25T11:25:09.000Z</time>
      </trkpt>
      <trkpt lat="42.93222" lon="1.24146">
        <ele>1145</ele>
        <time>2026-05-25T11:25:10.000Z</time>
      </trkpt>
      <trkpt lat="42.93223" lon="1.24139">
        <ele>1145</ele>
        <time>2026-05-25T11:25:11.000Z</time>
      </trkpt>
      <trkpt lat="42.93223" lon="1.24132">
        <ele>1144</ele>
        <time>2026-05-25T11:25:12.000Z</time>
      </trkpt>
      <trkpt lat="42.93224" lon="1.24124">
        <ele>1144</ele>
        <time>2026-05-25T11:25:13.000Z</time>
      </trkpt>
      <trkpt lat="42.93226" lon="1.24117">
        <ele>1143</ele>
        <time>2026-05-25T11:25:14.000Z</time>
      </trkpt>
      <trkpt lat="42.93226" lon="1.24109">
        <ele>1143</ele>
        <time>2026-05-25T11:25:15.000Z</time>
      </trkpt>
      <trkpt lat="42.93225" lon="1.24101">
        <ele>1143</ele>
        <time>2026-05-25T11:25:16.000Z</time>
      </trkpt>
      <trkpt lat="42.93225" lon="1.24093">
        <ele>1144</ele>
        <time>2026-05-25T11:25:17.000Z</time>
      </trkpt>
      <trkpt lat="42.93225" lon="1.24087">
        <ele>1144</ele>
        <time>2026-05-25T11:25:18.000Z</time>
      </trkpt>
      <trkpt lat="42.93224" lon="1.2408">
        <ele>1144</ele>
        <time>2026-05-25T11:25:19.000Z</time>
      </trkpt>
      <trkpt lat="42.93224" lon="1.24073">
        <ele>1144</ele>
        <time>2026-05-25T11:25:20.000Z</time>
      </trkpt>
      <trkpt lat="42.93223" lon="1.24065">
        <ele>1144</ele>
        <time>2026-05-25T11:25:21.000Z</time>
      </trkpt>
      <trkpt lat="42.93221" lon="1.24058">
        <ele>1145</ele>
        <time>2026-05-25T11:25:22.000Z</time>
      </trkpt>
      <trkpt lat="42.9322" lon="1.24049">
        <ele>1145</ele>
        <time>2026-05-25T11:25:23.000Z</time>
      </trkpt>
      <trkpt lat="42.93219" lon="1.2404">
        <ele>1144</ele>
        <time>2026-05-25T11:25:24.000Z</time>
      </trkpt>
      <trkpt lat="42.93219" lon="1.2403">
        <ele>1144</ele>
        <time>2026-05-25T11:25:25.000Z</time>
      </trkpt>
      <trkpt lat="42.93218" lon="1.24022">
        <ele>1143</ele>
        <time>2026-05-25T11:25:26.000Z</time>
      </trkpt>
      <trkpt lat="42.93217" lon="1.24013">
        <ele>1143</ele>
        <time>2026-05-25T11:25:27.000Z</time>
      </trkpt>
      <trkpt lat="42.93216" lon="1.24004">
        <ele>1143</ele>
        <time>2026-05-25T11:25:28.000Z</time>
      </trkpt>
      <trkpt lat="42.93214" lon="1.23995">
        <ele>1142</ele>
        <time>2026-05-25T11:25:29.000Z</time>
      </trkpt>
      <trkpt lat="42.93212" lon="1.23986">
        <ele>1141</ele>
        <time>2026-05-25T11:25:30.000Z</time>
      </trkpt>
      <trkpt lat="42.9321" lon="1.23977">
        <ele>1141</ele>
        <time>2026-05-25T11:25:31.000Z</time>
      </trkpt>
      <trkpt lat="42.93208" lon="1.23968">
        <ele>1140</ele>
        <time>2026-05-25T11:25:32.000Z</time>
      </trkpt>
      <trkpt lat="42.93205" lon="1.2396">
        <ele>1139</ele>
        <time>2026-05-25T11:25:33.000Z</time>
      </trkpt>
      <trkpt lat="42.93203" lon="1.23951">
        <ele>1138</ele>
        <time>2026-05-25T11:25:34.000Z</time>
      </trkpt>
      <trkpt lat="42.93202" lon="1.23942">
        <ele>1138</ele>
        <time>2026-05-25T11:25:35.000Z</time>
      </trkpt>
      <trkpt lat="42.93202" lon="1.23932">
        <ele>1137</ele>
        <time>2026-05-25T11:25:36.000Z</time>
      </trkpt>
      <trkpt lat="42.93203" lon="1.23922">
        <ele>1137</ele>
        <time>2026-05-25T11:25:37.000Z</time>
      </trkpt>
      <trkpt lat="42.93204" lon="1.23914">
        <ele>1137</ele>
        <time>2026-05-25T11:25:38.000Z</time>
      </trkpt>
      <trkpt lat="42.93206" lon="1.23904">
        <ele>1136</ele>
        <time>2026-05-25T11:25:39.000Z</time>
      </trkpt>
      <trkpt lat="42.93209" lon="1.23896">
        <ele>1135</ele>
        <time>2026-05-25T11:25:40.000Z</time>
      </trkpt>
      <trkpt lat="42.93213" lon="1.23887">
        <ele>1134</ele>
        <time>2026-05-25T11:25:41.000Z</time>
      </trkpt>
      <trkpt lat="42.93217" lon="1.23878">
        <ele>1133</ele>
        <time>2026-05-25T11:25:42.000Z</time>
      </trkpt>
      <trkpt lat="42.93222" lon="1.23869">
        <ele>1133</ele>
        <time>2026-05-25T11:25:43.000Z</time>
      </trkpt>
      <trkpt lat="42.93227" lon="1.23861">
        <ele>1132</ele>
        <time>2026-05-25T11:25:44.000Z</time>
      </trkpt>
      <trkpt lat="42.93232" lon="1.23854">
        <ele>1132</ele>
        <time>2026-05-25T11:25:45.000Z</time>
      </trkpt>
      <trkpt lat="42.93237" lon="1.23846">
        <ele>1131</ele>
        <time>2026-05-25T11:25:46.000Z</time>
      </trkpt>
      <trkpt lat="42.93241" lon="1.23836">
        <ele>1131</ele>
        <time>2026-05-25T11:25:47.000Z</time>
      </trkpt>
      <trkpt lat="42.93245" lon="1.23828">
        <ele>1131</ele>
        <time>2026-05-25T11:25:48.000Z</time>
      </trkpt>
      <trkpt lat="42.93251" lon="1.23821">
        <ele>1130</ele>
        <time>2026-05-25T11:25:49.000Z</time>
      </trkpt>
      <trkpt lat="42.93257" lon="1.23813">
        <ele>1129</ele>
        <time>2026-05-25T11:25:50.000Z</time>
      </trkpt>
      <trkpt lat="42.93264" lon="1.23806">
        <ele>1129</ele>
        <time>2026-05-25T11:25:51.000Z</time>
      </trkpt>
      <trkpt lat="42.93271" lon="1.23798">
        <ele>1127</ele>
        <time>2026-05-25T11:25:52.000Z</time>
      </trkpt>
      <trkpt lat="42.93277" lon="1.2379">
        <ele>1126</ele>
        <time>2026-05-25T11:25:53.000Z</time>
      </trkpt>
      <trkpt lat="42.93284" lon="1.23782">
        <ele>1125</ele>
        <time>2026-05-25T11:25:54.000Z</time>
      </trkpt>
      <trkpt lat="42.9329" lon="1.23773">
        <ele>1124</ele>
        <time>2026-05-25T11:25:55.000Z</time>
      </trkpt>
      <trkpt lat="42.93297" lon="1.23765">
        <ele>1123</ele>
        <time>2026-05-25T11:25:56.000Z</time>
      </trkpt>
      <trkpt lat="42.93305" lon="1.23758">
        <ele>1122</ele>
        <time>2026-05-25T11:25:57.000Z</time>
      </trkpt>
      <trkpt lat="42.93312" lon="1.2375">
        <ele>1121</ele>
        <time>2026-05-25T11:25:58.000Z</time>
      </trkpt>
      <trkpt lat="42.9332" lon="1.23742">
        <ele>1120</ele>
        <time>2026-05-25T11:25:59.000Z</time>
      </trkpt>
      <trkpt lat="42.93328" lon="1.23733">
        <ele>1119</ele>
        <time>2026-05-25T11:26:00.000Z</time>
      </trkpt>
      <trkpt lat="42.93335" lon="1.23723">
        <ele>1119</ele>
        <time>2026-05-25T11:26:01.000Z</time>
      </trkpt>
      <trkpt lat="42.93343" lon="1.23712">
        <ele>1118</ele>
        <time>2026-05-25T11:26:02.000Z</time>
      </trkpt>
      <trkpt lat="42.9335" lon="1.23702">
        <ele>1117</ele>
        <time>2026-05-25T11:26:03.000Z</time>
      </trkpt>
      <trkpt lat="42.93357" lon="1.23693">
        <ele>1116</ele>
        <time>2026-05-25T11:26:04.000Z</time>
      </trkpt>
      <trkpt lat="42.93365" lon="1.23686">
        <ele>1116</ele>
        <time>2026-05-25T11:26:05.000Z</time>
      </trkpt>
      <trkpt lat="42.93372" lon="1.23678">
        <ele>1115</ele>
        <time>2026-05-25T11:26:06.000Z</time>
      </trkpt>
      <trkpt lat="42.93376" lon="1.23669">
        <ele>1115</ele>
        <time>2026-05-25T11:26:07.000Z</time>
      </trkpt>
      <trkpt lat="42.9338" lon="1.23658">
        <ele>1114</ele>
        <time>2026-05-25T11:26:08.000Z</time>
      </trkpt>
      <trkpt lat="42.93381" lon="1.23646">
        <ele>1114</ele>
        <time>2026-05-25T11:26:09.000Z</time>
      </trkpt>
      <trkpt lat="42.93378" lon="1.23634">
        <ele>1113</ele>
        <time>2026-05-25T11:26:10.000Z</time>
      </trkpt>
      <trkpt lat="42.93375" lon="1.23622">
        <ele>1113</ele>
        <time>2026-05-25T11:26:11.000Z</time>
      </trkpt>
      <trkpt lat="42.93372" lon="1.23611">
        <ele>1112</ele>
        <time>2026-05-25T11:26:12.000Z</time>
      </trkpt>
      <trkpt lat="42.93369" lon="1.23599">
        <ele>1111</ele>
        <time>2026-05-25T11:26:13.000Z</time>
      </trkpt>
      <trkpt lat="42.93366" lon="1.23586">
        <ele>1111</ele>
        <time>2026-05-25T11:26:14.000Z</time>
      </trkpt>
      <trkpt lat="42.93365" lon="1.23573">
        <ele>1110</ele>
        <time>2026-05-25T11:26:15.000Z</time>
      </trkpt>
      <trkpt lat="42.93364" lon="1.23561">
        <ele>1109</ele>
        <time>2026-05-25T11:26:16.000Z</time>
      </trkpt>
      <trkpt lat="42.93363" lon="1.23547">
        <ele>1108</ele>
        <time>2026-05-25T11:26:17.000Z</time>
      </trkpt>
      <trkpt lat="42.93365" lon="1.23534">
        <ele>1108</ele>
        <time>2026-05-25T11:26:18.000Z</time>
      </trkpt>
      <trkpt lat="42.93369" lon="1.2352">
        <ele>1108</ele>
        <time>2026-05-25T11:26:19.000Z</time>
      </trkpt>
      <trkpt lat="42.93372" lon="1.23508">
        <ele>1107</ele>
        <time>2026-05-25T11:26:20.000Z</time>
      </trkpt>
      <trkpt lat="42.93376" lon="1.23496">
        <ele>1106</ele>
        <time>2026-05-25T11:26:21.000Z</time>
      </trkpt>
      <trkpt lat="42.9338" lon="1.23484">
        <ele>1105</ele>
        <time>2026-05-25T11:26:22.000Z</time>
      </trkpt>
      <trkpt lat="42.93386" lon="1.23473">
        <ele>1105</ele>
        <time>2026-05-25T11:26:23.000Z</time>
      </trkpt>
      <trkpt lat="42.93392" lon="1.23463">
        <ele>1104</ele>
        <time>2026-05-25T11:26:24.000Z</time>
      </trkpt>
      <trkpt lat="42.93399" lon="1.23453">
        <ele>1104</ele>
        <time>2026-05-25T11:26:25.000Z</time>
      </trkpt>
      <trkpt lat="42.93406" lon="1.23444">
        <ele>1104</ele>
        <time>2026-05-25T11:26:26.000Z</time>
      </trkpt>
      <trkpt lat="42.93414" lon="1.23434">
        <ele>1103</ele>
        <time>2026-05-25T11:26:27.000Z</time>
      </trkpt>
      <trkpt lat="42.93421" lon="1.23427">
        <ele>1103</ele>
        <time>2026-05-25T11:26:28.000Z</time>
      </trkpt>
      <trkpt lat="42.93429" lon="1.23419">
        <ele>1102</ele>
        <time>2026-05-25T11:26:29.000Z</time>
      </trkpt>
      <trkpt lat="42.93438" lon="1.23412">
        <ele>1101</ele>
        <time>2026-05-25T11:26:30.000Z</time>
      </trkpt>
      <trkpt lat="42.93446" lon="1.23404">
        <ele>1101</ele>
        <time>2026-05-25T11:26:31.000Z</time>
      </trkpt>
      <trkpt lat="42.93453" lon="1.23397">
        <ele>1100</ele>
        <time>2026-05-25T11:26:32.000Z</time>
      </trkpt>
      <trkpt lat="42.93459" lon="1.23389">
        <ele>1100</ele>
        <time>2026-05-25T11:26:33.000Z</time>
      </trkpt>
      <trkpt lat="42.93463" lon="1.2338">
        <ele>1098</ele>
        <time>2026-05-25T11:26:34.000Z</time>
      </trkpt>
      <trkpt lat="42.93465" lon="1.23371">
        <ele>1098</ele>
        <time>2026-05-25T11:26:35.000Z</time>
      </trkpt>
      <trkpt lat="42.93463" lon="1.23362">
        <ele>1097</ele>
        <time>2026-05-25T11:26:36.000Z</time>
      </trkpt>
      <trkpt lat="42.9346" lon="1.23351">
        <ele>1098</ele>
        <time>2026-05-25T11:26:37.000Z</time>
      </trkpt>
      <trkpt lat="42.93459" lon="1.23338">
        <ele>1097</ele>
        <time>2026-05-25T11:26:38.000Z</time>
      </trkpt>
      <trkpt lat="42.93458" lon="1.23323">
        <ele>1097</ele>
        <time>2026-05-25T11:26:39.000Z</time>
      </trkpt>
      <trkpt lat="42.93457" lon="1.23311">
        <ele>1096</ele>
        <time>2026-05-25T11:26:40.000Z</time>
      </trkpt>
      <trkpt lat="42.93457" lon="1.23299">
        <ele>1095</ele>
        <time>2026-05-25T11:26:41.000Z</time>
      </trkpt>
      <trkpt lat="42.93458" lon="1.23285">
        <ele>1094</ele>
        <time>2026-05-25T11:26:42.000Z</time>
      </trkpt>
      <trkpt lat="42.9346" lon="1.23272">
        <ele>1093</ele>
        <time>2026-05-25T11:26:43.000Z</time>
      </trkpt>
      <trkpt lat="42.93463" lon="1.2326">
        <ele>1092</ele>
        <time>2026-05-25T11:26:44.000Z</time>
      </trkpt>
      <trkpt lat="42.93468" lon="1.23247">
        <ele>1091</ele>
        <time>2026-05-25T11:26:45.000Z</time>
      </trkpt>
      <trkpt lat="42.93472" lon="1.23235">
        <ele>1090</ele>
        <time>2026-05-25T11:26:46.000Z</time>
      </trkpt>
      <trkpt lat="42.93478" lon="1.23223">
        <ele>1089</ele>
        <time>2026-05-25T11:26:47.000Z</time>
      </trkpt>
      <trkpt lat="42.93484" lon="1.23212">
        <ele>1089</ele>
        <time>2026-05-25T11:26:48.000Z</time>
      </trkpt>
      <trkpt lat="42.9349" lon="1.23201">
        <ele>1088</ele>
        <time>2026-05-25T11:26:49.000Z</time>
      </trkpt>
      <trkpt lat="42.93497" lon="1.2319">
        <ele>1088</ele>
        <time>2026-05-25T11:26:50.000Z</time>
      </trkpt>
      <trkpt lat="42.93505" lon="1.2318">
        <ele>1087</ele>
        <time>2026-05-25T11:26:51.000Z</time>
      </trkpt>
      <trkpt lat="42.93512" lon="1.23171">
        <ele>1086</ele>
        <time>2026-05-25T11:26:52.000Z</time>
      </trkpt>
      <trkpt lat="42.9352" lon="1.23162">
        <ele>1086</ele>
        <time>2026-05-25T11:26:53.000Z</time>
      </trkpt>
      <trkpt lat="42.93528" lon="1.23153">
        <ele>1086</ele>
        <time>2026-05-25T11:26:54.000Z</time>
      </trkpt>
      <trkpt lat="42.93537" lon="1.23146">
        <ele>1085</ele>
        <time>2026-05-25T11:26:55.000Z</time>
      </trkpt>
      <trkpt lat="42.93547" lon="1.23138">
        <ele>1084</ele>
        <time>2026-05-25T11:26:56.000Z</time>
      </trkpt>
      <trkpt lat="42.93556" lon="1.2313">
        <ele>1083</ele>
        <time>2026-05-25T11:26:57.000Z</time>
      </trkpt>
      <trkpt lat="42.93565" lon="1.23122">
        <ele>1083</ele>
        <time>2026-05-25T11:26:58.000Z</time>
      </trkpt>
      <trkpt lat="42.93575" lon="1.23113">
        <ele>1082</ele>
        <time>2026-05-25T11:26:59.000Z</time>
      </trkpt>
      <trkpt lat="42.93584" lon="1.23104">
        <ele>1081</ele>
        <time>2026-05-25T11:27:00.000Z</time>
      </trkpt>
      <trkpt lat="42.93594" lon="1.23095">
        <ele>1079</ele>
        <time>2026-05-25T11:27:01.000Z</time>
      </trkpt>
      <trkpt lat="42.93603" lon="1.23086">
        <ele>1078</ele>
        <time>2026-05-25T11:27:02.000Z</time>
      </trkpt>
      <trkpt lat="42.93612" lon="1.23075">
        <ele>1077</ele>
        <time>2026-05-25T11:27:03.000Z</time>
      </trkpt>
      <trkpt lat="42.93619" lon="1.23064">
        <ele>1076</ele>
        <time>2026-05-25T11:27:04.000Z</time>
      </trkpt>
      <trkpt lat="42.93625" lon="1.2305">
        <ele>1074</ele>
        <time>2026-05-25T11:27:05.000Z</time>
      </trkpt>
      <trkpt lat="42.93631" lon="1.23037">
        <ele>1073</ele>
        <time>2026-05-25T11:27:06.000Z</time>
      </trkpt>
      <trkpt lat="42.93637" lon="1.23023">
        <ele>1072</ele>
        <time>2026-05-25T11:27:07.000Z</time>
      </trkpt>
      <trkpt lat="42.93641" lon="1.23009">
        <ele>1070</ele>
        <time>2026-05-25T11:27:08.000Z</time>
      </trkpt>
      <trkpt lat="42.93645" lon="1.22994">
        <ele>1069</ele>
        <time>2026-05-25T11:27:09.000Z</time>
      </trkpt>
      <trkpt lat="42.93646" lon="1.22978">
        <ele>1067</ele>
        <time>2026-05-25T11:27:10.000Z</time>
      </trkpt>
      <trkpt lat="42.93646" lon="1.22962">
        <ele>1066</ele>
        <time>2026-05-25T11:27:11.000Z</time>
      </trkpt>
      <trkpt lat="42.93646" lon="1.22946">
        <ele>1065</ele>
        <time>2026-05-25T11:27:12.000Z</time>
      </trkpt>
      <trkpt lat="42.93646" lon="1.2293">
        <ele>1063</ele>
        <time>2026-05-25T11:27:13.000Z</time>
      </trkpt>
      <trkpt lat="42.93647" lon="1.22915">
        <ele>1062</ele>
        <time>2026-05-25T11:27:14.000Z</time>
      </trkpt>
      <trkpt lat="42.93648" lon="1.229">
        <ele>1060</ele>
        <time>2026-05-25T11:27:15.000Z</time>
      </trkpt>
      <trkpt lat="42.9365" lon="1.22885">
        <ele>1059</ele>
        <time>2026-05-25T11:27:16.000Z</time>
      </trkpt>
      <trkpt lat="42.93651" lon="1.2287">
        <ele>1058</ele>
        <time>2026-05-25T11:27:17.000Z</time>
      </trkpt>
      <trkpt lat="42.93652" lon="1.22856">
        <ele>1056</ele>
        <time>2026-05-25T11:27:18.000Z</time>
      </trkpt>
      <trkpt lat="42.93652" lon="1.22841">
        <ele>1054</ele>
        <time>2026-05-25T11:27:19.000Z</time>
      </trkpt>
      <trkpt lat="42.93653" lon="1.22827">
        <ele>1053</ele>
        <time>2026-05-25T11:27:20.000Z</time>
      </trkpt>
      <trkpt lat="42.93653" lon="1.22812">
        <ele>1053</ele>
        <time>2026-05-25T11:27:21.000Z</time>
      </trkpt>
      <trkpt lat="42.93652" lon="1.22797">
        <ele>1052</ele>
        <time>2026-05-25T11:27:22.000Z</time>
      </trkpt>
      <trkpt lat="42.9365" lon="1.22782">
        <ele>1052</ele>
        <time>2026-05-25T11:27:23.000Z</time>
      </trkpt>
      <trkpt lat="42.93648" lon="1.22767">
        <ele>1050</ele>
        <time>2026-05-25T11:27:24.000Z</time>
      </trkpt>
      <trkpt lat="42.93647" lon="1.22752">
        <ele>1049</ele>
        <time>2026-05-25T11:27:25.000Z</time>
      </trkpt>
      <trkpt lat="42.93647" lon="1.22738">
        <ele>1048</ele>
        <time>2026-05-25T11:27:26.000Z</time>
      </trkpt>
      <trkpt lat="42.93647" lon="1.22724">
        <ele>1047</ele>
        <time>2026-05-25T11:27:27.000Z</time>
      </trkpt>
      <trkpt lat="42.93648" lon="1.2271">
        <ele>1046</ele>
        <time>2026-05-25T11:27:28.000Z</time>
      </trkpt>
      <trkpt lat="42.93648" lon="1.22697">
        <ele>1045</ele>
        <time>2026-05-25T11:27:29.000Z</time>
      </trkpt>
      <trkpt lat="42.9365" lon="1.22684">
        <ele>1045</ele>
        <time>2026-05-25T11:27:30.000Z</time>
      </trkpt>
      <trkpt lat="42.93654" lon="1.22673">
        <ele>1044</ele>
        <time>2026-05-25T11:27:31.000Z</time>
      </trkpt>
      <trkpt lat="42.93659" lon="1.22661">
        <ele>1044</ele>
        <time>2026-05-25T11:27:32.000Z</time>
      </trkpt>
      <trkpt lat="42.93665" lon="1.22649">
        <ele>1044</ele>
        <time>2026-05-25T11:27:33.000Z</time>
      </trkpt>
      <trkpt lat="42.93671" lon="1.22638">
        <ele>1043</ele>
        <time>2026-05-25T11:27:34.000Z</time>
      </trkpt>
      <trkpt lat="42.93677" lon="1.22626">
        <ele>1042</ele>
        <time>2026-05-25T11:27:35.000Z</time>
      </trkpt>
      <trkpt lat="42.93684" lon="1.22615">
        <ele>1041</ele>
        <time>2026-05-25T11:27:36.000Z</time>
      </trkpt>
      <trkpt lat="42.9369" lon="1.22604">
        <ele>1040</ele>
        <time>2026-05-25T11:27:37.000Z</time>
      </trkpt>
      <trkpt lat="42.93696" lon="1.22595">
        <ele>1040</ele>
        <time>2026-05-25T11:27:38.000Z</time>
      </trkpt>
      <trkpt lat="42.93701" lon="1.22585">
        <ele>1039</ele>
        <time>2026-05-25T11:27:39.000Z</time>
      </trkpt>
      <trkpt lat="42.93704" lon="1.22573">
        <ele>1038</ele>
        <time>2026-05-25T11:27:40.000Z</time>
      </trkpt>
      <trkpt lat="42.93705" lon="1.22561">
        <ele>1038</ele>
        <time>2026-05-25T11:27:41.000Z</time>
      </trkpt>
      <trkpt lat="42.93706" lon="1.22548">
        <ele>1037</ele>
        <time>2026-05-25T11:27:42.000Z</time>
      </trkpt>
      <trkpt lat="42.93706" lon="1.22535">
        <ele>1036</ele>
        <time>2026-05-25T11:27:43.000Z</time>
      </trkpt>
      <trkpt lat="42.93703" lon="1.22524">
        <ele>1035</ele>
        <time>2026-05-25T11:27:44.000Z</time>
      </trkpt>
      <trkpt lat="42.937" lon="1.22512">
        <ele>1034</ele>
        <time>2026-05-25T11:27:45.000Z</time>
      </trkpt>
      <trkpt lat="42.93696" lon="1.22499">
        <ele>1033</ele>
        <time>2026-05-25T11:27:46.000Z</time>
      </trkpt>
      <trkpt lat="42.93694" lon="1.22487">
        <ele>1032</ele>
        <time>2026-05-25T11:27:47.000Z</time>
      </trkpt>
      <trkpt lat="42.93693" lon="1.22473">
        <ele>1031</ele>
        <time>2026-05-25T11:27:48.000Z</time>
      </trkpt>
      <trkpt lat="42.93693" lon="1.2246">
        <ele>1031</ele>
        <time>2026-05-25T11:27:49.000Z</time>
      </trkpt>
      <trkpt lat="42.93693" lon="1.22447">
        <ele>1029</ele>
        <time>2026-05-25T11:27:50.000Z</time>
      </trkpt>
      <trkpt lat="42.93695" lon="1.22434">
        <ele>1028</ele>
        <time>2026-05-25T11:27:51.000Z</time>
      </trkpt>
      <trkpt lat="42.93697" lon="1.2242">
        <ele>1027</ele>
        <time>2026-05-25T11:27:52.000Z</time>
      </trkpt>
      <trkpt lat="42.93697" lon="1.22407">
        <ele>1026</ele>
        <time>2026-05-25T11:27:53.000Z</time>
      </trkpt>
      <trkpt lat="42.93697" lon="1.22393">
        <ele>1025</ele>
        <time>2026-05-25T11:27:54.000Z</time>
      </trkpt>
      <trkpt lat="42.93696" lon="1.2238">
        <ele>1024</ele>
        <time>2026-05-25T11:27:55.000Z</time>
      </trkpt>
      <trkpt lat="42.93695" lon="1.22368">
        <ele>1024</ele>
        <time>2026-05-25T11:27:56.000Z</time>
      </trkpt>
      <trkpt lat="42.93694" lon="1.22357">
        <ele>1025</ele>
        <time>2026-05-25T11:27:57.000Z</time>
      </trkpt>
      <trkpt lat="42.93693" lon="1.22345">
        <ele>1025</ele>
        <time>2026-05-25T11:27:58.000Z</time>
      </trkpt>
      <trkpt lat="42.93691" lon="1.22334">
        <ele>1024</ele>
        <time>2026-05-25T11:27:59.000Z</time>
      </trkpt>
      <trkpt lat="42.93687" lon="1.22324">
        <ele>1023</ele>
        <time>2026-05-25T11:28:00.000Z</time>
      </trkpt>
      <trkpt lat="42.93682" lon="1.22316">
        <ele>1023</ele>
        <time>2026-05-25T11:28:01.000Z</time>
      </trkpt>
      <trkpt lat="42.93678" lon="1.22311">
        <ele>1022</ele>
        <time>2026-05-25T11:28:02.000Z</time>
      </trkpt>
      <trkpt lat="42.93673" lon="1.22307">
        <ele>1022</ele>
        <time>2026-05-25T11:28:03.000Z</time>
      </trkpt>
      <trkpt lat="42.93669" lon="1.22303">
        <ele>1022</ele>
        <time>2026-05-25T11:28:04.000Z</time>
      </trkpt>
      <trkpt lat="42.93666" lon="1.22297">
        <ele>1022</ele>
        <time>2026-05-25T11:28:05.000Z</time>
      </trkpt>
      <trkpt lat="42.93664" lon="1.2229">
        <ele>1020</ele>
        <time>2026-05-25T11:28:06.000Z</time>
      </trkpt>
      <trkpt lat="42.93664" lon="1.22285">
        <ele>1020</ele>
        <time>2026-05-25T11:28:07.000Z</time>
      </trkpt>
      <trkpt lat="42.93665" lon="1.22279">
        <ele>1020</ele>
        <time>2026-05-25T11:28:08.000Z</time>
      </trkpt>
      <trkpt lat="42.93664" lon="1.22272">
        <ele>1020</ele>
        <time>2026-05-25T11:28:09.000Z</time>
      </trkpt>
      <trkpt lat="42.93663" lon="1.22268">
        <ele>1020</ele>
        <time>2026-05-25T11:28:10.000Z</time>
      </trkpt>
      <trkpt lat="42.93662" lon="1.22264">
        <ele>1021</ele>
        <time>2026-05-25T11:28:11.000Z</time>
      </trkpt>
      <trkpt lat="42.93659" lon="1.2226">
        <ele>1021</ele>
        <time>2026-05-25T11:28:12.000Z</time>
      </trkpt>
      <trkpt lat="42.93656" lon="1.22258">
        <ele>1021</ele>
        <time>2026-05-25T11:28:13.000Z</time>
      </trkpt>
      <trkpt lat="42.93653" lon="1.22255">
        <ele>1022</ele>
        <time>2026-05-25T11:28:14.000Z</time>
      </trkpt>
      <trkpt lat="42.9365" lon="1.22251">
        <ele>1022</ele>
        <time>2026-05-25T11:28:15.000Z</time>
      </trkpt>
      <trkpt lat="42.93647" lon="1.22248">
        <ele>1023</ele>
        <time>2026-05-25T11:28:16.000Z</time>
      </trkpt>
      <trkpt lat="42.93644" lon="1.22243">
        <ele>1024</ele>
        <time>2026-05-25T11:28:17.000Z</time>
      </trkpt>
      <trkpt lat="42.93642" lon="1.22239">
        <ele>1025</ele>
        <time>2026-05-25T11:28:18.000Z</time>
      </trkpt>
      <trkpt lat="42.9364" lon="1.22236">
        <ele>1025</ele>
        <time>2026-05-25T11:28:19.000Z</time>
      </trkpt>
      <trkpt lat="42.93636" lon="1.22232">
        <ele>1025</ele>
        <time>2026-05-25T11:28:20.000Z</time>
      </trkpt>
      <trkpt lat="42.93633" lon="1.22228">
        <ele>1025</ele>
        <time>2026-05-25T11:28:21.000Z</time>
      </trkpt>
      <trkpt lat="42.9363" lon="1.22224">
        <ele>1025</ele>
        <time>2026-05-25T11:28:22.000Z</time>
      </trkpt>
      <trkpt lat="42.93627" lon="1.2222">
        <ele>1025</ele>
        <time>2026-05-25T11:28:23.000Z</time>
      </trkpt>
      <trkpt lat="42.93624" lon="1.22216">
        <ele>1025</ele>
        <time>2026-05-25T11:28:24.000Z</time>
      </trkpt>
      <trkpt lat="42.93621" lon="1.22211">
        <ele>1026</ele>
        <time>2026-05-25T11:28:25.000Z</time>
      </trkpt>
      <trkpt lat="42.93619" lon="1.22206">
        <ele>1026</ele>
        <time>2026-05-25T11:28:26.000Z</time>
      </trkpt>
      <trkpt lat="42.93616" lon="1.22202">
        <ele>1026</ele>
        <time>2026-05-25T11:28:27.000Z</time>
      </trkpt>
      <trkpt lat="42.93613" lon="1.22197">
        <ele>1026</ele>
        <time>2026-05-25T11:28:28.000Z</time>
      </trkpt>
      <trkpt lat="42.9361" lon="1.22193">
        <ele>1026</ele>
        <time>2026-05-25T11:28:29.000Z</time>
      </trkpt>
      <trkpt lat="42.93606" lon="1.22188">
        <ele>1027</ele>
        <time>2026-05-25T11:28:30.000Z</time>
      </trkpt>
      <trkpt lat="42.93603" lon="1.22182">
        <ele>1027</ele>
        <time>2026-05-25T11:28:31.000Z</time>
      </trkpt>
      <trkpt lat="42.936" lon="1.22176">
        <ele>1027</ele>
        <time>2026-05-25T11:28:32.000Z</time>
      </trkpt>
      <trkpt lat="42.93598" lon="1.2217">
        <ele>1027</ele>
        <time>2026-05-25T11:28:33.000Z</time>
      </trkpt>
      <trkpt lat="42.93596" lon="1.22167">
        <ele>1026</ele>
        <time>2026-05-25T11:28:34.000Z</time>
      </trkpt>
      <trkpt lat="42.93595" lon="1.22165">
        <ele>1027</ele>
        <time>2026-05-25T11:28:35.000Z</time>
      </trkpt>
      <trkpt lat="42.93595" lon="1.22164">
        <ele>1027</ele>
        <time>2026-05-25T11:28:36.000Z</time>
      </trkpt>
      <trkpt lat="42.93597" lon="1.22163">
        <ele>1027</ele>
        <time>2026-05-25T11:28:37.000Z</time>
      </trkpt>
      <trkpt lat="42.93598" lon="1.2216">
        <ele>1028</ele>
        <time>2026-05-25T11:28:38.000Z</time>
      </trkpt>
      <trkpt lat="42.93599" lon="1.22158">
        <ele>1029</ele>
        <time>2026-05-25T11:28:39.000Z</time>
      </trkpt>
      <trkpt lat="42.936" lon="1.22154">
        <ele>1030</ele>
        <time>2026-05-25T11:28:40.000Z</time>
      </trkpt>
      <trkpt lat="42.93601" lon="1.2215">
        <ele>1032</ele>
        <time>2026-05-25T11:28:41.000Z</time>
      </trkpt>
      <trkpt lat="42.93602" lon="1.22146">
        <ele>1032</ele>
        <time>2026-05-25T11:28:42.000Z</time>
      </trkpt>
      <trkpt lat="42.93601" lon="1.22141">
        <ele>1033</ele>
        <time>2026-05-25T11:28:43.000Z</time>
      </trkpt>
      <trkpt lat="42.93602" lon="1.22137">
        <ele>1034</ele>
        <time>2026-05-25T11:28:44.000Z</time>
      </trkpt>
      <trkpt lat="42.93602" lon="1.22133">
        <ele>1035</ele>
        <time>2026-05-25T11:28:45.000Z</time>
      </trkpt>
      <trkpt lat="42.93602" lon="1.2213">
        <ele>1035</ele>
        <time>2026-05-25T11:28:46.000Z</time>
      </trkpt>
      <trkpt lat="42.93602" lon="1.22125">
        <ele>1036</ele>
        <time>2026-05-25T11:28:47.000Z</time>
      </trkpt>
      <trkpt lat="42.93602" lon="1.2212">
        <ele>1038</ele>
        <time>2026-05-25T11:28:48.000Z</time>
      </trkpt>
      <trkpt lat="42.93602" lon="1.22115">
        <ele>1039</ele>
        <time>2026-05-25T11:28:49.000Z</time>
      </trkpt>
      <trkpt lat="42.93602" lon="1.22109">
        <ele>1040</ele>
        <time>2026-05-25T11:28:50.000Z</time>
      </trkpt>
      <trkpt lat="42.93602" lon="1.22103">
        <ele>1041</ele>
        <time>2026-05-25T11:28:51.000Z</time>
      </trkpt>
      <trkpt lat="42.93602" lon="1.22096">
        <ele>1042</ele>
        <time>2026-05-25T11:28:52.000Z</time>
      </trkpt>
      <trkpt lat="42.93602" lon="1.22088">
        <ele>1042</ele>
        <time>2026-05-25T11:28:53.000Z</time>
      </trkpt>
      <trkpt lat="42.93602" lon="1.2208">
        <ele>1042</ele>
        <time>2026-05-25T11:28:54.000Z</time>
      </trkpt>
      <trkpt lat="42.93602" lon="1.2207">
        <ele>1041</ele>
        <time>2026-05-25T11:28:55.000Z</time>
      </trkpt>
      <trkpt lat="42.93602" lon="1.2206">
        <ele>1039</ele>
        <time>2026-05-25T11:28:56.000Z</time>
      </trkpt>
      <trkpt lat="42.93602" lon="1.22048">
        <ele>1039</ele>
        <time>2026-05-25T11:28:57.000Z</time>
      </trkpt>
      <trkpt lat="42.93602" lon="1.22038">
        <ele>1039</ele>
        <time>2026-05-25T11:28:58.000Z</time>
      </trkpt>
      <trkpt lat="42.93602" lon="1.22027">
        <ele>1038</ele>
        <time>2026-05-25T11:28:59.000Z</time>
      </trkpt>
      <trkpt lat="42.93601" lon="1.22017">
        <ele>1037</ele>
        <time>2026-05-25T11:29:00.000Z</time>
      </trkpt>
      <trkpt lat="42.93601" lon="1.22007">
        <ele>1037</ele>
        <time>2026-05-25T11:29:01.000Z</time>
      </trkpt>
      <trkpt lat="42.936" lon="1.21998">
        <ele>1037</ele>
        <time>2026-05-25T11:29:02.000Z</time>
      </trkpt>
      <trkpt lat="42.93599" lon="1.21989">
        <ele>1036</ele>
        <time>2026-05-25T11:29:03.000Z</time>
      </trkpt>
      <trkpt lat="42.93599" lon="1.21981">
        <ele>1035</ele>
        <time>2026-05-25T11:29:04.000Z</time>
      </trkpt>
      <trkpt lat="42.93598" lon="1.21972">
        <ele>1034</ele>
        <time>2026-05-25T11:29:05.000Z</time>
      </trkpt>
      <trkpt lat="42.93597" lon="1.21963">
        <ele>1033</ele>
        <time>2026-05-25T11:29:06.000Z</time>
      </trkpt>
      <trkpt lat="42.93597" lon="1.21955">
        <ele>1032</ele>
        <time>2026-05-25T11:29:07.000Z</time>
      </trkpt>
      <trkpt lat="42.93596" lon="1.21949">
        <ele>1031</ele>
        <time>2026-05-25T11:29:08.000Z</time>
      </trkpt>
      <trkpt lat="42.93595" lon="1.21942">
        <ele>1030</ele>
        <time>2026-05-25T11:29:09.000Z</time>
      </trkpt>
      <trkpt lat="42.93594" lon="1.21933">
        <ele>1029</ele>
        <time>2026-05-25T11:29:10.000Z</time>
      </trkpt>
      <trkpt lat="42.93593" lon="1.21926">
        <ele>1027</ele>
        <time>2026-05-25T11:29:11.000Z</time>
      </trkpt>
      <trkpt lat="42.93592" lon="1.2192">
        <ele>1027</ele>
        <time>2026-05-25T11:29:12.000Z</time>
      </trkpt>
      <trkpt lat="42.93592" lon="1.21914">
        <ele>1027</ele>
        <time>2026-05-25T11:29:13.000Z</time>
      </trkpt>
      <trkpt lat="42.93591" lon="1.21907">
        <ele>1028</ele>
        <time>2026-05-25T11:29:14.000Z</time>
      </trkpt>
      <trkpt lat="42.9359" lon="1.21901">
        <ele>1028</ele>
        <time>2026-05-25T11:29:15.000Z</time>
      </trkpt>
      <trkpt lat="42.9359" lon="1.21895">
        <ele>1028</ele>
        <time>2026-05-25T11:29:16.000Z</time>
      </trkpt>
      <trkpt lat="42.93589" lon="1.21887">
        <ele>1028</ele>
        <time>2026-05-25T11:29:17.000Z</time>
      </trkpt>
      <trkpt lat="42.93589" lon="1.2188">
        <ele>1029</ele>
        <time>2026-05-25T11:29:18.000Z</time>
      </trkpt>
      <trkpt lat="42.9359" lon="1.21873">
        <ele>1029</ele>
        <time>2026-05-25T11:29:19.000Z</time>
      </trkpt>
      <trkpt lat="42.9359" lon="1.21867">
        <ele>1029</ele>
        <time>2026-05-25T11:29:20.000Z</time>
      </trkpt>
      <trkpt lat="42.93591" lon="1.21859">
        <ele>1029</ele>
        <time>2026-05-25T11:29:21.000Z</time>
      </trkpt>
      <trkpt lat="42.93591" lon="1.21853">
        <ele>1029</ele>
        <time>2026-05-25T11:29:22.000Z</time>
      </trkpt>
      <trkpt lat="42.93592" lon="1.21847">
        <ele>1029</ele>
        <time>2026-05-25T11:29:23.000Z</time>
      </trkpt>
      <trkpt lat="42.93592" lon="1.21841">
        <ele>1030</ele>
        <time>2026-05-25T11:29:24.000Z</time>
      </trkpt>
      <trkpt lat="42.93592" lon="1.21836">
        <ele>1031</ele>
        <time>2026-05-25T11:29:25.000Z</time>
      </trkpt>
      <trkpt lat="42.93593" lon="1.2183">
        <ele>1031</ele>
        <time>2026-05-25T11:29:26.000Z</time>
      </trkpt>
      <trkpt lat="42.93594" lon="1.21824">
        <ele>1032</ele>
        <time>2026-05-25T11:29:27.000Z</time>
      </trkpt>
      <trkpt lat="42.93596" lon="1.21819">
        <ele>1033</ele>
        <time>2026-05-25T11:29:28.000Z</time>
      </trkpt>
      <trkpt lat="42.93596" lon="1.21813">
        <ele>1033</ele>
        <time>2026-05-25T11:29:29.000Z</time>
      </trkpt>
      <trkpt lat="42.93595" lon="1.21807">
        <ele>1033</ele>
        <time>2026-05-25T11:29:30.000Z</time>
      </trkpt>
      <trkpt lat="42.93594" lon="1.21801">
        <ele>1033</ele>
        <time>2026-05-25T11:29:31.000Z</time>
      </trkpt>
      <trkpt lat="42.93594" lon="1.21794">
        <ele>1033</ele>
        <time>2026-05-25T11:29:32.000Z</time>
      </trkpt>
      <trkpt lat="42.93593" lon="1.21788">
        <ele>1033</ele>
        <time>2026-05-25T11:29:33.000Z</time>
      </trkpt>
      <trkpt lat="42.93592" lon="1.21782">
        <ele>1032</ele>
        <time>2026-05-25T11:29:34.000Z</time>
      </trkpt>
      <trkpt lat="42.93592" lon="1.21775">
        <ele>1032</ele>
        <time>2026-05-25T11:29:35.000Z</time>
      </trkpt>
      <trkpt lat="42.93592" lon="1.21769">
        <ele>1032</ele>
        <time>2026-05-25T11:29:36.000Z</time>
      </trkpt>
      <trkpt lat="42.93593" lon="1.21762">
        <ele>1033</ele>
        <time>2026-05-25T11:29:37.000Z</time>
      </trkpt>
      <trkpt lat="42.93592" lon="1.21756">
        <ele>1032</ele>
        <time>2026-05-25T11:29:38.000Z</time>
      </trkpt>
      <trkpt lat="42.93592" lon="1.2175">
        <ele>1031</ele>
        <time>2026-05-25T11:29:39.000Z</time>
      </trkpt>
      <trkpt lat="42.93592" lon="1.21743">
        <ele>1031</ele>
        <time>2026-05-25T11:29:40.000Z</time>
      </trkpt>
      <trkpt lat="42.93592" lon="1.21737">
        <ele>1031</ele>
        <time>2026-05-25T11:29:41.000Z</time>
      </trkpt>
      <trkpt lat="42.93592" lon="1.21729">
        <ele>1031</ele>
        <time>2026-05-25T11:29:42.000Z</time>
      </trkpt>
      <trkpt lat="42.93591" lon="1.21722">
        <ele>1030</ele>
        <time>2026-05-25T11:29:43.000Z</time>
      </trkpt>
      <trkpt lat="42.9359" lon="1.21712">
        <ele>1030</ele>
        <time>2026-05-25T11:29:44.000Z</time>
      </trkpt>
      <trkpt lat="42.93589" lon="1.21703">
        <ele>1031</ele>
        <time>2026-05-25T11:29:45.000Z</time>
      </trkpt>
      <trkpt lat="42.93586" lon="1.21693">
        <ele>1029</ele>
        <time>2026-05-25T11:29:46.000Z</time>
      </trkpt>
      <trkpt lat="42.93585" lon="1.21684">
        <ele>1028</ele>
        <time>2026-05-25T11:29:47.000Z</time>
      </trkpt>
      <trkpt lat="42.93583" lon="1.21677">
        <ele>1028</ele>
        <time>2026-05-25T11:29:48.000Z</time>
      </trkpt>
      <trkpt lat="42.93582" lon="1.21669">
        <ele>1027</ele>
        <time>2026-05-25T11:29:49.000Z</time>
      </trkpt>
      <trkpt lat="42.9358" lon="1.21661">
        <ele>1027</ele>
        <time>2026-05-25T11:29:50.000Z</time>
      </trkpt>
      <trkpt lat="42.93578" lon="1.21656">
        <ele>1027</ele>
        <time>2026-05-25T11:29:51.000Z</time>
      </trkpt>
      <trkpt lat="42.93577" lon="1.21649">
        <ele>1026</ele>
        <time>2026-05-25T11:29:52.000Z</time>
      </trkpt>
      <trkpt lat="42.93576" lon="1.21643">
        <ele>1026</ele>
        <time>2026-05-25T11:29:53.000Z</time>
      </trkpt>
      <trkpt lat="42.93575" lon="1.21637">
        <ele>1025</ele>
        <time>2026-05-25T11:29:54.000Z</time>
      </trkpt>
      <trkpt lat="42.93573" lon="1.21631">
        <ele>1025</ele>
        <time>2026-05-25T11:29:55.000Z</time>
      </trkpt>
      <trkpt lat="42.93571" lon="1.21626">
        <ele>1025</ele>
        <time>2026-05-25T11:29:56.000Z</time>
      </trkpt>
      <trkpt lat="42.9357" lon="1.21621">
        <ele>1025</ele>
        <time>2026-05-25T11:29:57.000Z</time>
      </trkpt>
      <trkpt lat="42.93569" lon="1.21615">
        <ele>1025</ele>
        <time>2026-05-25T11:29:58.000Z</time>
      </trkpt>
      <trkpt lat="42.93568" lon="1.2161">
        <ele>1025</ele>
        <time>2026-05-25T11:29:59.000Z</time>
      </trkpt>
      <trkpt lat="42.93567" lon="1.21604">
        <ele>1025</ele>
        <time>2026-05-25T11:30:00.000Z</time>
      </trkpt>
      <trkpt lat="42.93566" lon="1.21597">
        <ele>1024</ele>
        <time>2026-05-25T11:30:01.000Z</time>
      </trkpt>
      <trkpt lat="42.93566" lon="1.21591">
        <ele>1025</ele>
        <time>2026-05-25T11:30:02.000Z</time>
      </trkpt>
      <trkpt lat="42.93566" lon="1.21584">
        <ele>1024</ele>
        <time>2026-05-25T11:30:03.000Z</time>
      </trkpt>
      <trkpt lat="42.93564" lon="1.21575">
        <ele>1023</ele>
        <time>2026-05-25T11:30:04.000Z</time>
      </trkpt>
      <trkpt lat="42.93563" lon="1.21565">
        <ele>1022</ele>
        <time>2026-05-25T11:30:05.000Z</time>
      </trkpt>
      <trkpt lat="42.93562" lon="1.21556">
        <ele>1021</ele>
        <time>2026-05-25T11:30:06.000Z</time>
      </trkpt>
      <trkpt lat="42.93561" lon="1.21547">
        <ele>1021</ele>
        <time>2026-05-25T11:30:07.000Z</time>
      </trkpt>
      <trkpt lat="42.9356" lon="1.21538">
        <ele>1022</ele>
        <time>2026-05-25T11:30:08.000Z</time>
      </trkpt>
      <trkpt lat="42.93559" lon="1.21529">
        <ele>1021</ele>
        <time>2026-05-25T11:30:09.000Z</time>
      </trkpt>
      <trkpt lat="42.93556" lon="1.21525">
        <ele>1022</ele>
        <time>2026-05-25T11:30:10.000Z</time>
      </trkpt>
      <trkpt lat="42.93554" lon="1.2152">
        <ele>1021</ele>
        <time>2026-05-25T11:30:11.000Z</time>
      </trkpt>
      <trkpt lat="42.93552" lon="1.21515">
        <ele>1021</ele>
        <time>2026-05-25T11:30:12.000Z</time>
      </trkpt>
      <trkpt lat="42.93548" lon="1.21508">
        <ele>1020</ele>
        <time>2026-05-25T11:30:13.000Z</time>
      </trkpt>
      <trkpt lat="42.93545" lon="1.21504">
        <ele>1020</ele>
        <time>2026-05-25T11:30:14.000Z</time>
      </trkpt>
      <trkpt lat="42.93542" lon="1.215">
        <ele>1021</ele>
        <time>2026-05-25T11:30:15.000Z</time>
      </trkpt>
      <trkpt lat="42.9354" lon="1.21497">
        <ele>1021</ele>
        <time>2026-05-25T11:30:16.000Z</time>
      </trkpt>
      <trkpt lat="42.93538" lon="1.21493">
        <ele>1021</ele>
        <time>2026-05-25T11:30:17.000Z</time>
      </trkpt>
      <trkpt lat="42.93535" lon="1.21488">
        <ele>1021</ele>
        <time>2026-05-25T11:30:18.000Z</time>
      </trkpt>
      <trkpt lat="42.93533" lon="1.21484">
        <ele>1022</ele>
        <time>2026-05-25T11:30:19.000Z</time>
      </trkpt>
      <trkpt lat="42.93531" lon="1.2148">
        <ele>1023</ele>
        <time>2026-05-25T11:30:20.000Z</time>
      </trkpt>
      <trkpt lat="42.93528" lon="1.21476">
        <ele>1023</ele>
        <time>2026-05-25T11:30:21.000Z</time>
      </trkpt>
      <trkpt lat="42.93524" lon="1.21471">
        <ele>1024</ele>
        <time>2026-05-25T11:30:22.000Z</time>
      </trkpt>
      <trkpt lat="42.93522" lon="1.21466">
        <ele>1024</ele>
        <time>2026-05-25T11:30:23.000Z</time>
      </trkpt>
      <trkpt lat="42.93518" lon="1.21461">
        <ele>1025</ele>
        <time>2026-05-25T11:30:24.000Z</time>
      </trkpt>
      <trkpt lat="42.93515" lon="1.21456">
        <ele>1025</ele>
        <time>2026-05-25T11:30:25.000Z</time>
      </trkpt>
      <trkpt lat="42.93511" lon="1.21451">
        <ele>1025</ele>
        <time>2026-05-25T11:30:26.000Z</time>
      </trkpt>
      <trkpt lat="42.93507" lon="1.21446">
        <ele>1026</ele>
        <time>2026-05-25T11:30:27.000Z</time>
      </trkpt>
      <trkpt lat="42.93504" lon="1.21442">
        <ele>1026</ele>
        <time>2026-05-25T11:30:28.000Z</time>
      </trkpt>
      <trkpt lat="42.93501" lon="1.21437">
        <ele>1026</ele>
        <time>2026-05-25T11:30:29.000Z</time>
      </trkpt>
      <trkpt lat="42.93498" lon="1.21432">
        <ele>1026</ele>
        <time>2026-05-25T11:30:30.000Z</time>
      </trkpt>
      <trkpt lat="42.93495" lon="1.21426">
        <ele>1026</ele>
        <time>2026-05-25T11:30:31.000Z</time>
      </trkpt>
      <trkpt lat="42.93492" lon="1.21421">
        <ele>1025</ele>
        <time>2026-05-25T11:30:32.000Z</time>
      </trkpt>
      <trkpt lat="42.9349" lon="1.21415">
        <ele>1025</ele>
        <time>2026-05-25T11:30:33.000Z</time>
      </trkpt>
      <trkpt lat="42.93488" lon="1.21409">
        <ele>1025</ele>
        <time>2026-05-25T11:30:34.000Z</time>
      </trkpt>
      <trkpt lat="42.93485" lon="1.21405">
        <ele>1026</ele>
        <time>2026-05-25T11:30:35.000Z</time>
      </trkpt>
      <trkpt lat="42.93482" lon="1.21402">
        <ele>1026</ele>
        <time>2026-05-25T11:30:36.000Z</time>
      </trkpt>
      <trkpt lat="42.93479" lon="1.214">
        <ele>1027</ele>
        <time>2026-05-25T11:30:37.000Z</time>
      </trkpt>
      <trkpt lat="42.93476" lon="1.21397">
        <ele>1027</ele>
        <time>2026-05-25T11:30:38.000Z</time>
      </trkpt>
      <trkpt lat="42.93473" lon="1.21395">
        <ele>1027</ele>
        <time>2026-05-25T11:30:39.000Z</time>
      </trkpt>
      <trkpt lat="42.9347" lon="1.21394">
        <ele>1027</ele>
        <time>2026-05-25T11:30:40.000Z</time>
      </trkpt>
      <trkpt lat="42.93466" lon="1.21392">
        <ele>1027</ele>
        <time>2026-05-25T11:30:41.000Z</time>
      </trkpt>
      <trkpt lat="42.93463" lon="1.2139">
        <ele>1027</ele>
        <time>2026-05-25T11:30:42.000Z</time>
      </trkpt>
      <trkpt lat="42.9346" lon="1.21387">
        <ele>1027</ele>
        <time>2026-05-25T11:30:43.000Z</time>
      </trkpt>
      <trkpt lat="42.93457" lon="1.21386">
        <ele>1027</ele>
        <time>2026-05-25T11:30:44.000Z</time>
      </trkpt>
      <trkpt lat="42.93453" lon="1.21383">
        <ele>1027</ele>
        <time>2026-05-25T11:30:45.000Z</time>
      </trkpt>
      <trkpt lat="42.93448" lon="1.21379">
        <ele>1027</ele>
        <time>2026-05-25T11:30:46.000Z</time>
      </trkpt>
      <trkpt lat="42.93443" lon="1.21373">
        <ele>1025</ele>
        <time>2026-05-25T11:30:47.000Z</time>
      </trkpt>
      <trkpt lat="42.93438" lon="1.21368">
        <ele>1025</ele>
        <time>2026-05-25T11:30:48.000Z</time>
      </trkpt>
      <trkpt lat="42.93433" lon="1.21363">
        <ele>1024</ele>
        <time>2026-05-25T11:30:49.000Z</time>
      </trkpt>
      <trkpt lat="42.93429" lon="1.21359">
        <ele>1023</ele>
        <time>2026-05-25T11:30:50.000Z</time>
      </trkpt>
      <trkpt lat="42.93426" lon="1.21355">
        <ele>1022</ele>
        <time>2026-05-25T11:30:51.000Z</time>
      </trkpt>
      <trkpt lat="42.93423" lon="1.21349">
        <ele>1023</ele>
        <time>2026-05-25T11:30:52.000Z</time>
      </trkpt>
      <trkpt lat="42.9342" lon="1.21344">
        <ele>1022</ele>
        <time>2026-05-25T11:30:53.000Z</time>
      </trkpt>
      <trkpt lat="42.93419" lon="1.21336">
        <ele>1022</ele>
        <time>2026-05-25T11:30:54.000Z</time>
      </trkpt>
      <trkpt lat="42.93417" lon="1.21332">
        <ele>1023</ele>
        <time>2026-05-25T11:30:55.000Z</time>
      </trkpt>
      <trkpt lat="42.93414" lon="1.21328">
        <ele>1024</ele>
        <time>2026-05-25T11:30:56.000Z</time>
      </trkpt>
      <trkpt lat="42.93411" lon="1.21324">
        <ele>1024</ele>
        <time>2026-05-25T11:30:57.000Z</time>
      </trkpt>
      <trkpt lat="42.93408" lon="1.21319">
        <ele>1025</ele>
        <time>2026-05-25T11:30:58.000Z</time>
      </trkpt>
      <trkpt lat="42.93406" lon="1.21315">
        <ele>1025</ele>
        <time>2026-05-25T11:30:59.000Z</time>
      </trkpt>
      <trkpt lat="42.93403" lon="1.2131">
        <ele>1024</ele>
        <time>2026-05-25T11:31:00.000Z</time>
      </trkpt>
      <trkpt lat="42.934" lon="1.21305">
        <ele>1025</ele>
        <time>2026-05-25T11:31:01.000Z</time>
      </trkpt>
      <trkpt lat="42.93397" lon="1.21301">
        <ele>1025</ele>
        <time>2026-05-25T11:31:02.000Z</time>
      </trkpt>
      <trkpt lat="42.93392" lon="1.21294">
        <ele>1026</ele>
        <time>2026-05-25T11:31:03.000Z</time>
      </trkpt>
      <trkpt lat="42.93388" lon="1.21287">
        <ele>1026</ele>
        <time>2026-05-25T11:31:04.000Z</time>
      </trkpt>
      <trkpt lat="42.93384" lon="1.21279">
        <ele>1025</ele>
        <time>2026-05-25T11:31:05.000Z</time>
      </trkpt>
      <trkpt lat="42.9338" lon="1.21271">
        <ele>1025</ele>
        <time>2026-05-25T11:31:06.000Z</time>
      </trkpt>
      <trkpt lat="42.93376" lon="1.21265">
        <ele>1024</ele>
        <time>2026-05-25T11:31:07.000Z</time>
      </trkpt>
      <trkpt lat="42.93371" lon="1.21259">
        <ele>1024</ele>
        <time>2026-05-25T11:31:08.000Z</time>
      </trkpt>
      <trkpt lat="42.93367" lon="1.21253">
        <ele>1025</ele>
        <time>2026-05-25T11:31:09.000Z</time>
      </trkpt>
      <trkpt lat="42.93363" lon="1.21247">
        <ele>1024</ele>
        <time>2026-05-25T11:31:10.000Z</time>
      </trkpt>
      <trkpt lat="42.93358" lon="1.21242">
        <ele>1023</ele>
        <time>2026-05-25T11:31:11.000Z</time>
      </trkpt>
      <trkpt lat="42.93354" lon="1.21236">
        <ele>1023</ele>
        <time>2026-05-25T11:31:12.000Z</time>
      </trkpt>
      <trkpt lat="42.93351" lon="1.2123">
        <ele>1023</ele>
        <time>2026-05-25T11:31:13.000Z</time>
      </trkpt>
      <trkpt lat="42.93347" lon="1.21225">
        <ele>1023</ele>
        <time>2026-05-25T11:31:14.000Z</time>
      </trkpt>
      <trkpt lat="42.93343" lon="1.2122">
        <ele>1022</ele>
        <time>2026-05-25T11:31:15.000Z</time>
      </trkpt>
      <trkpt lat="42.9334" lon="1.21215">
        <ele>1022</ele>
        <time>2026-05-25T11:31:16.000Z</time>
      </trkpt>
      <trkpt lat="42.93337" lon="1.21209">
        <ele>1022</ele>
        <time>2026-05-25T11:31:17.000Z</time>
      </trkpt>
      <trkpt lat="42.93334" lon="1.21204">
        <ele>1022</ele>
        <time>2026-05-25T11:31:18.000Z</time>
      </trkpt>
      <trkpt lat="42.93331" lon="1.21198">
        <ele>1022</ele>
        <time>2026-05-25T11:31:19.000Z</time>
      </trkpt>
      <trkpt lat="42.93329" lon="1.21192">
        <ele>1023</ele>
        <time>2026-05-25T11:31:20.000Z</time>
      </trkpt>
      <trkpt lat="42.93327" lon="1.21187">
        <ele>1023</ele>
        <time>2026-05-25T11:31:21.000Z</time>
      </trkpt>
      <trkpt lat="42.93324" lon="1.21183">
        <ele>1024</ele>
        <time>2026-05-25T11:31:22.000Z</time>
      </trkpt>
      <trkpt lat="42.93323" lon="1.21178">
        <ele>1024</ele>
        <time>2026-05-25T11:31:23.000Z</time>
      </trkpt>
      <trkpt lat="42.93321" lon="1.21172">
        <ele>1024</ele>
        <time>2026-05-25T11:31:24.000Z</time>
      </trkpt>
      <trkpt lat="42.9332" lon="1.21167">
        <ele>1024</ele>
        <time>2026-05-25T11:31:25.000Z</time>
      </trkpt>
      <trkpt lat="42.93318" lon="1.21161">
        <ele>1025</ele>
        <time>2026-05-25T11:31:26.000Z</time>
      </trkpt>
      <trkpt lat="42.93314" lon="1.21152">
        <ele>1025</ele>
        <time>2026-05-25T11:31:27.000Z</time>
      </trkpt>
      <trkpt lat="42.93311" lon="1.21143">
        <ele>1025</ele>
        <time>2026-05-25T11:31:28.000Z</time>
      </trkpt>
      <trkpt lat="42.93309" lon="1.21136">
        <ele>1025</ele>
        <time>2026-05-25T11:31:29.000Z</time>
      </trkpt>
      <trkpt lat="42.93307" lon="1.21129">
        <ele>1025</ele>
        <time>2026-05-25T11:31:30.000Z</time>
      </trkpt>
      <trkpt lat="42.93305" lon="1.21125">
        <ele>1025</ele>
        <time>2026-05-25T11:31:31.000Z</time>
      </trkpt>
      <trkpt lat="42.93304" lon="1.2112">
        <ele>1025</ele>
        <time>2026-05-25T11:31:32.000Z</time>
      </trkpt>
      <trkpt lat="42.93303" lon="1.21117">
        <ele>1025</ele>
        <time>2026-05-25T11:31:33.000Z</time>
      </trkpt>
      <trkpt lat="42.93302" lon="1.21113">
        <ele>1025</ele>
        <time>2026-05-25T11:31:34.000Z</time>
      </trkpt>
      <trkpt lat="42.93301" lon="1.21109">
        <ele>1025</ele>
        <time>2026-05-25T11:31:35.000Z</time>
      </trkpt>
      <trkpt lat="42.93299" lon="1.21106">
        <ele>1024</ele>
        <time>2026-05-25T11:31:36.000Z</time>
      </trkpt>
      <trkpt lat="42.93297" lon="1.21102">
        <ele>1024</ele>
        <time>2026-05-25T11:31:37.000Z</time>
      </trkpt>
      <trkpt lat="42.93296" lon="1.21098">
        <ele>1024</ele>
        <time>2026-05-25T11:31:38.000Z</time>
      </trkpt>
      <trkpt lat="42.93295" lon="1.21093">
        <ele>1024</ele>
        <time>2026-05-25T11:31:39.000Z</time>
      </trkpt>
      <trkpt lat="42.93295" lon="1.21088">
        <ele>1024</ele>
        <time>2026-05-25T11:31:40.000Z</time>
      </trkpt>
      <trkpt lat="42.93294" lon="1.21081">
        <ele>1023</ele>
        <time>2026-05-25T11:31:41.000Z</time>
      </trkpt>
      <trkpt lat="42.93292" lon="1.21074">
        <ele>1024</ele>
        <time>2026-05-25T11:31:42.000Z</time>
      </trkpt>
      <trkpt lat="42.9329" lon="1.21069">
        <ele>1024</ele>
        <time>2026-05-25T11:31:43.000Z</time>
      </trkpt>
      <trkpt lat="42.93288" lon="1.21064">
        <ele>1024</ele>
        <time>2026-05-25T11:31:44.000Z</time>
      </trkpt>
      <trkpt lat="42.93286" lon="1.21058">
        <ele>1023</ele>
        <time>2026-05-25T11:31:45.000Z</time>
      </trkpt>
      <trkpt lat="42.93284" lon="1.21053">
        <ele>1023</ele>
        <time>2026-05-25T11:31:46.000Z</time>
      </trkpt>
      <trkpt lat="42.93282" lon="1.21048">
        <ele>1023</ele>
        <time>2026-05-25T11:31:47.000Z</time>
      </trkpt>
      <trkpt lat="42.93279" lon="1.21043">
        <ele>1024</ele>
        <time>2026-05-25T11:31:48.000Z</time>
      </trkpt>
      <trkpt lat="42.93276" lon="1.21038">
        <ele>1024</ele>
        <time>2026-05-25T11:31:49.000Z</time>
      </trkpt>
      <trkpt lat="42.93274" lon="1.21033">
        <ele>1025</ele>
        <time>2026-05-25T11:31:50.000Z</time>
      </trkpt>
      <trkpt lat="42.93271" lon="1.21028">
        <ele>1025</ele>
        <time>2026-05-25T11:31:51.000Z</time>
      </trkpt>
      <trkpt lat="42.93268" lon="1.21022">
        <ele>1025</ele>
        <time>2026-05-25T11:31:52.000Z</time>
      </trkpt>
      <trkpt lat="42.93264" lon="1.21018">
        <ele>1025</ele>
        <time>2026-05-25T11:31:53.000Z</time>
      </trkpt>
      <trkpt lat="42.93261" lon="1.21013">
        <ele>1025</ele>
        <time>2026-05-25T11:31:54.000Z</time>
      </trkpt>
      <trkpt lat="42.93258" lon="1.21009">
        <ele>1026</ele>
        <time>2026-05-25T11:31:55.000Z</time>
      </trkpt>
      <trkpt lat="42.93254" lon="1.21004">
        <ele>1025</ele>
        <time>2026-05-25T11:31:56.000Z</time>
      </trkpt>
      <trkpt lat="42.9325" lon="1.20998">
        <ele>1025</ele>
        <time>2026-05-25T11:31:57.000Z</time>
      </trkpt>
      <trkpt lat="42.93246" lon="1.20992">
        <ele>1025</ele>
        <time>2026-05-25T11:31:58.000Z</time>
      </trkpt>
      <trkpt lat="42.93241" lon="1.20986">
        <ele>1024</ele>
        <time>2026-05-25T11:31:59.000Z</time>
      </trkpt>
      <trkpt lat="42.93238" lon="1.20982">
        <ele>1023</ele>
        <time>2026-05-25T11:32:00.000Z</time>
      </trkpt>
      <trkpt lat="42.93234" lon="1.20979">
        <ele>1023</ele>
        <time>2026-05-25T11:32:01.000Z</time>
      </trkpt>
      <trkpt lat="42.93231" lon="1.20976">
        <ele>1023</ele>
        <time>2026-05-25T11:32:02.000Z</time>
      </trkpt>
      <trkpt lat="42.93228" lon="1.20974">
        <ele>1023</ele>
        <time>2026-05-25T11:32:03.000Z</time>
      </trkpt>
      <trkpt lat="42.93225" lon="1.2097">
        <ele>1022</ele>
        <time>2026-05-25T11:32:04.000Z</time>
      </trkpt>
      <trkpt lat="42.93222" lon="1.20967">
        <ele>1022</ele>
        <time>2026-05-25T11:32:05.000Z</time>
      </trkpt>
      <trkpt lat="42.93218" lon="1.20965">
        <ele>1022</ele>
        <time>2026-05-25T11:32:06.000Z</time>
      </trkpt>
      <trkpt lat="42.93214" lon="1.20963">
        <ele>1023</ele>
        <time>2026-05-25T11:32:07.000Z</time>
      </trkpt>
      <trkpt lat="42.9321" lon="1.20961">
        <ele>1023</ele>
        <time>2026-05-25T11:32:08.000Z</time>
      </trkpt>
      <trkpt lat="42.93207" lon="1.20959">
        <ele>1024</ele>
        <time>2026-05-25T11:32:09.000Z</time>
      </trkpt>
      <trkpt lat="42.93203" lon="1.20956">
        <ele>1024</ele>
        <time>2026-05-25T11:32:10.000Z</time>
      </trkpt>
      <trkpt lat="42.932" lon="1.20954">
        <ele>1024</ele>
        <time>2026-05-25T11:32:11.000Z</time>
      </trkpt>
      <trkpt lat="42.93196" lon="1.20952">
        <ele>1024</ele>
        <time>2026-05-25T11:32:12.000Z</time>
      </trkpt>
      <trkpt lat="42.93192" lon="1.2095">
        <ele>1024</ele>
        <time>2026-05-25T11:32:13.000Z</time>
      </trkpt>
      <trkpt lat="42.93187" lon="1.20947">
        <ele>1024</ele>
        <time>2026-05-25T11:32:14.000Z</time>
      </trkpt>
      <trkpt lat="42.93183" lon="1.20945">
        <ele>1024</ele>
        <time>2026-05-25T11:32:15.000Z</time>
      </trkpt>
      <trkpt lat="42.93179" lon="1.20943">
        <ele>1024</ele>
        <time>2026-05-25T11:32:16.000Z</time>
      </trkpt>
      <trkpt lat="42.93174" lon="1.2094">
        <ele>1024</ele>
        <time>2026-05-25T11:32:17.000Z</time>
      </trkpt>
      <trkpt lat="42.93171" lon="1.20938">
        <ele>1024</ele>
        <time>2026-05-25T11:32:18.000Z</time>
      </trkpt>
      <trkpt lat="42.93167" lon="1.20935">
        <ele>1024</ele>
        <time>2026-05-25T11:32:19.000Z</time>
      </trkpt>
      <trkpt lat="42.93164" lon="1.20932">
        <ele>1025</ele>
        <time>2026-05-25T11:32:20.000Z</time>
      </trkpt>
      <trkpt lat="42.9316" lon="1.20929">
        <ele>1025</ele>
        <time>2026-05-25T11:32:21.000Z</time>
      </trkpt>
      <trkpt lat="42.93158" lon="1.20927">
        <ele>1026</ele>
        <time>2026-05-25T11:32:22.000Z</time>
      </trkpt>
      <trkpt lat="42.93156" lon="1.20924">
        <ele>1026</ele>
        <time>2026-05-25T11:32:23.000Z</time>
      </trkpt>
      <trkpt lat="42.93154" lon="1.20923">
        <ele>1027</ele>
        <time>2026-05-25T11:32:24.000Z</time>
      </trkpt>
      <trkpt lat="42.93152" lon="1.20921">
        <ele>1027</ele>
        <time>2026-05-25T11:32:25.000Z</time>
      </trkpt>
      <trkpt lat="42.9315" lon="1.20919">
        <ele>1027</ele>
        <time>2026-05-25T11:32:26.000Z</time>
      </trkpt>
      <trkpt lat="42.93147" lon="1.20918">
        <ele>1027</ele>
        <time>2026-05-25T11:32:27.000Z</time>
      </trkpt>
      <trkpt lat="42.93145" lon="1.20916">
        <ele>1027</ele>
        <time>2026-05-25T11:32:28.000Z</time>
      </trkpt>
      <trkpt lat="42.93142" lon="1.20914">
        <ele>1026</ele>
        <time>2026-05-25T11:32:29.000Z</time>
      </trkpt>
      <trkpt lat="42.9314" lon="1.20911">
        <ele>1027</ele>
        <time>2026-05-25T11:32:30.000Z</time>
      </trkpt>
      <trkpt lat="42.93139" lon="1.20908">
        <ele>1027</ele>
        <time>2026-05-25T11:32:31.000Z</time>
      </trkpt>
      <trkpt lat="42.93137" lon="1.20906">
        <ele>1027</ele>
        <time>2026-05-25T11:32:32.000Z</time>
      </trkpt>
      <trkpt lat="42.93135" lon="1.20903">
        <ele>1026</ele>
        <time>2026-05-25T11:32:33.000Z</time>
      </trkpt>
      <trkpt lat="42.93134" lon="1.20899">
        <ele>1027</ele>
        <time>2026-05-25T11:32:34.000Z</time>
      </trkpt>
      <trkpt lat="42.93132" lon="1.20895">
        <ele>1027</ele>
        <time>2026-05-25T11:32:35.000Z</time>
      </trkpt>
      <trkpt lat="42.9313" lon="1.20892">
        <ele>1027</ele>
        <time>2026-05-25T11:32:36.000Z</time>
      </trkpt>
      <trkpt lat="42.93129" lon="1.20889">
        <ele>1027</ele>
        <time>2026-05-25T11:32:37.000Z</time>
      </trkpt>
      <trkpt lat="42.93127" lon="1.20886">
        <ele>1027</ele>
        <time>2026-05-25T11:32:38.000Z</time>
      </trkpt>
      <trkpt lat="42.93124" lon="1.20883">
        <ele>1027</ele>
        <time>2026-05-25T11:32:39.000Z</time>
      </trkpt>
      <trkpt lat="42.93122" lon="1.20879">
        <ele>1028</ele>
        <time>2026-05-25T11:32:40.000Z</time>
      </trkpt>
      <trkpt lat="42.9312" lon="1.20875">
        <ele>1027</ele>
        <time>2026-05-25T11:32:41.000Z</time>
      </trkpt>
      <trkpt lat="42.93118" lon="1.20872">
        <ele>1028</ele>
        <time>2026-05-25T11:32:42.000Z</time>
      </trkpt>
      <trkpt lat="42.93116" lon="1.20869">
        <ele>1028</ele>
        <time>2026-05-25T11:32:43.000Z</time>
      </trkpt>
      <trkpt lat="42.93115" lon="1.20866">
        <ele>1028</ele>
        <time>2026-05-25T11:32:44.000Z</time>
      </trkpt>
      <trkpt lat="42.93113" lon="1.20861">
        <ele>1028</ele>
        <time>2026-05-25T11:32:45.000Z</time>
      </trkpt>
      <trkpt lat="42.93111" lon="1.20857">
        <ele>1028</ele>
        <time>2026-05-25T11:32:46.000Z</time>
      </trkpt>
      <trkpt lat="42.9311" lon="1.20852">
        <ele>1028</ele>
        <time>2026-05-25T11:32:47.000Z</time>
      </trkpt>
      <trkpt lat="42.93109" lon="1.20846">
        <ele>1027</ele>
        <time>2026-05-25T11:32:48.000Z</time>
      </trkpt>
      <trkpt lat="42.93107" lon="1.2084">
        <ele>1028</ele>
        <time>2026-05-25T11:32:49.000Z</time>
      </trkpt>
      <trkpt lat="42.93104" lon="1.20834">
        <ele>1028</ele>
        <time>2026-05-25T11:32:50.000Z</time>
      </trkpt>
      <trkpt lat="42.93101" lon="1.20827">
        <ele>1028</ele>
        <time>2026-05-25T11:32:51.000Z</time>
      </trkpt>
      <trkpt lat="42.93098" lon="1.20821">
        <ele>1028</ele>
        <time>2026-05-25T11:32:52.000Z</time>
      </trkpt>
      <trkpt lat="42.93095" lon="1.20815">
        <ele>1028</ele>
        <time>2026-05-25T11:32:53.000Z</time>
      </trkpt>
      <trkpt lat="42.93092" lon="1.20809">
        <ele>1028</ele>
        <time>2026-05-25T11:32:54.000Z</time>
      </trkpt>
      <trkpt lat="42.93089" lon="1.20804">
        <ele>1029</ele>
        <time>2026-05-25T11:32:55.000Z</time>
      </trkpt>
      <trkpt lat="42.93086" lon="1.208">
        <ele>1029</ele>
        <time>2026-05-25T11:32:56.000Z</time>
      </trkpt>
      <trkpt lat="42.93084" lon="1.20796">
        <ele>1029</ele>
        <time>2026-05-25T11:32:57.000Z</time>
      </trkpt>
      <trkpt lat="42.93081" lon="1.20792">
        <ele>1029</ele>
        <time>2026-05-25T11:32:58.000Z</time>
      </trkpt>
      <trkpt lat="42.93078" lon="1.20789">
        <ele>1029</ele>
        <time>2026-05-25T11:32:59.000Z</time>
      </trkpt>
      <trkpt lat="42.93076" lon="1.20785">
        <ele>1029</ele>
        <time>2026-05-25T11:33:00.000Z</time>
      </trkpt>
      <trkpt lat="42.93075" lon="1.20782">
        <ele>1030</ele>
        <time>2026-05-25T11:33:01.000Z</time>
      </trkpt>
      <trkpt lat="42.93073" lon="1.20779">
        <ele>1030</ele>
        <time>2026-05-25T11:33:02.000Z</time>
      </trkpt>
      <trkpt lat="42.93071" lon="1.20776">
        <ele>1031</ele>
        <time>2026-05-25T11:33:03.000Z</time>
      </trkpt>
      <trkpt lat="42.93069" lon="1.20773">
        <ele>1030</ele>
        <time>2026-05-25T11:33:04.000Z</time>
      </trkpt>
      <trkpt lat="42.93067" lon="1.20771">
        <ele>1030</ele>
        <time>2026-05-25T11:33:05.000Z</time>
      </trkpt>
      <trkpt lat="42.93064" lon="1.20767">
        <ele>1029</ele>
        <time>2026-05-25T11:33:06.000Z</time>
      </trkpt>
      <trkpt lat="42.93063" lon="1.20764">
        <ele>1030</ele>
        <time>2026-05-25T11:33:07.000Z</time>
      </trkpt>
      <trkpt lat="42.93062" lon="1.2076">
        <ele>1029</ele>
        <time>2026-05-25T11:33:08.000Z</time>
      </trkpt>
      <trkpt lat="42.9306" lon="1.20757">
        <ele>1029</ele>
        <time>2026-05-25T11:33:09.000Z</time>
      </trkpt>
      <trkpt lat="42.93058" lon="1.20753">
        <ele>1030</ele>
        <time>2026-05-25T11:33:10.000Z</time>
      </trkpt>
      <trkpt lat="42.93055" lon="1.2075">
        <ele>1030</ele>
        <time>2026-05-25T11:33:11.000Z</time>
      </trkpt>
      <trkpt lat="42.93053" lon="1.20748">
        <ele>1030</ele>
        <time>2026-05-25T11:33:12.000Z</time>
      </trkpt>
      <trkpt lat="42.9305" lon="1.20745">
        <ele>1031</ele>
        <time>2026-05-25T11:33:13.000Z</time>
      </trkpt>
      <trkpt lat="42.93047" lon="1.20743">
        <ele>1030</ele>
        <time>2026-05-25T11:33:14.000Z</time>
      </trkpt>
      <trkpt lat="42.93044" lon="1.20743">
        <ele>1030</ele>
        <time>2026-05-25T11:33:15.000Z</time>
      </trkpt>
      <trkpt lat="42.9304" lon="1.20744">
        <ele>1031</ele>
        <time>2026-05-25T11:33:16.000Z</time>
      </trkpt>
      <trkpt lat="42.93038" lon="1.20745">
        <ele>1031</ele>
        <time>2026-05-25T11:33:17.000Z</time>
      </trkpt>
      <trkpt lat="42.93036" lon="1.20746">
        <ele>1032</ele>
        <time>2026-05-25T11:33:18.000Z</time>
      </trkpt>
      <trkpt lat="42.93034" lon="1.20747">
        <ele>1032</ele>
        <time>2026-05-25T11:33:19.000Z</time>
      </trkpt>
      <trkpt lat="42.93033" lon="1.20749">
        <ele>1032</ele>
        <time>2026-05-25T11:33:20.000Z</time>
      </trkpt>
      <trkpt lat="42.93031" lon="1.2075">
        <ele>1032</ele>
        <time>2026-05-25T11:33:21.000Z</time>
      </trkpt>
      <trkpt lat="42.9303" lon="1.20752">
        <ele>1032</ele>
        <time>2026-05-25T11:33:22.000Z</time>
      </trkpt>
      <trkpt lat="42.93029" lon="1.20752">
        <ele>1032</ele>
        <time>2026-05-25T11:33:23.000Z</time>
      </trkpt>
      <trkpt lat="42.93028" lon="1.20753">
        <ele>1033</ele>
        <time>2026-05-25T11:33:24.000Z</time>
      </trkpt>
      <trkpt lat="42.93027" lon="1.20755">
        <ele>1033</ele>
        <time>2026-05-25T11:33:25.000Z</time>
      </trkpt>
      <trkpt lat="42.93026" lon="1.20756">
        <ele>1033</ele>
        <time>2026-05-25T11:33:26.000Z</time>
      </trkpt>
      <trkpt lat="42.93025" lon="1.20757">
        <ele>1033</ele>
        <time>2026-05-25T11:33:27.000Z</time>
      </trkpt>
      <trkpt lat="42.93024" lon="1.20758">
        <ele>1034</ele>
        <time>2026-05-25T11:33:28.000Z</time>
      </trkpt>
      <trkpt lat="42.93023" lon="1.20759">
        <ele>1034</ele>
        <time>2026-05-25T11:33:29.000Z</time>
      </trkpt>
      <trkpt lat="42.93023" lon="1.20761">
        <ele>1034</ele>
        <time>2026-05-25T11:33:30.000Z</time>
      </trkpt>
      <trkpt lat="42.93022" lon="1.20763">
        <ele>1034</ele>
        <time>2026-05-25T11:33:31.000Z</time>
      </trkpt>
      <trkpt lat="42.93021" lon="1.20764">
        <ele>1034</ele>
        <time>2026-05-25T11:33:32.000Z</time>
      </trkpt>
      <trkpt lat="42.93021" lon="1.20766">
        <ele>1035</ele>
        <time>2026-05-25T11:33:33.000Z</time>
      </trkpt>
      <trkpt lat="42.9302" lon="1.20768">
        <ele>1035</ele>
        <time>2026-05-25T11:33:34.000Z</time>
      </trkpt>
      <trkpt lat="42.9302" lon="1.2077">
        <ele>1036</ele>
        <time>2026-05-25T11:33:35.000Z</time>
      </trkpt>
      <trkpt lat="42.93018" lon="1.20771">
        <ele>1036</ele>
        <time>2026-05-25T11:33:36.000Z</time>
      </trkpt>
      <trkpt lat="42.93017" lon="1.20773">
        <ele>1036</ele>
        <time>2026-05-25T11:33:37.000Z</time>
      </trkpt>
      <trkpt lat="42.93016" lon="1.20774">
        <ele>1038</ele>
        <time>2026-05-25T11:33:38.000Z</time>
      </trkpt>
      <trkpt lat="42.93015" lon="1.20777">
        <ele>1039</ele>
        <time>2026-05-25T11:33:39.000Z</time>
      </trkpt>
      <trkpt lat="42.93015" lon="1.20778">
        <ele>1040</ele>
        <time>2026-05-25T11:33:40.000Z</time>
      </trkpt>
      <trkpt lat="42.93014" lon="1.20779">
        <ele>1042</ele>
        <time>2026-05-25T11:33:41.000Z</time>
      </trkpt>
      <trkpt lat="42.93014" lon="1.2078">
        <ele>1043</ele>
        <time>2026-05-25T11:33:42.000Z</time>
      </trkpt>
      <trkpt lat="42.93013" lon="1.20781">
        <ele>1045</ele>
        <time>2026-05-25T11:33:43.000Z</time>
      </trkpt>
      <trkpt lat="42.93012" lon="1.20783">
        <ele>1046</ele>
        <time>2026-05-25T11:33:44.000Z</time>
      </trkpt>
      <trkpt lat="42.93011" lon="1.20784">
        <ele>1048</ele>
        <time>2026-05-25T11:33:45.000Z</time>
      </trkpt>
      <trkpt lat="42.93009" lon="1.20785">
        <ele>1049</ele>
        <time>2026-05-25T11:33:46.000Z</time>
      </trkpt>
      <trkpt lat="42.93009" lon="1.20787">
        <ele>1049</ele>
        <time>2026-05-25T11:33:47.000Z</time>
      </trkpt>
      <trkpt lat="42.93007" lon="1.20789">
        <ele>1050</ele>
        <time>2026-05-25T11:33:48.000Z</time>
      </trkpt>
      <trkpt lat="42.93007" lon="1.20791">
        <ele>1051</ele>
        <time>2026-05-25T11:33:49.000Z</time>
      </trkpt>
      <trkpt lat="42.93005" lon="1.20792">
        <ele>1051</ele>
        <time>2026-05-25T11:33:50.000Z</time>
      </trkpt>
      <trkpt lat="42.93005" lon="1.20794">
        <ele>1051</ele>
        <time>2026-05-25T11:33:51.000Z</time>
      </trkpt>
      <trkpt lat="42.93004" lon="1.20795">
        <ele>1052</ele>
        <time>2026-05-25T11:33:52.000Z</time>
      </trkpt>
      <trkpt lat="42.93003" lon="1.20796">
        <ele>1053</ele>
        <time>2026-05-25T11:33:53.000Z</time>
      </trkpt>
      <trkpt lat="42.93002" lon="1.20796">
        <ele>1054</ele>
        <time>2026-05-25T11:33:54.000Z</time>
      </trkpt>
      <trkpt lat="42.93001" lon="1.20798">
        <ele>1055</ele>
        <time>2026-05-25T11:33:55.000Z</time>
      </trkpt>
      <trkpt lat="42.93" lon="1.20799">
        <ele>1055</ele>
        <time>2026-05-25T11:33:56.000Z</time>
      </trkpt>
      <trkpt lat="42.93" lon="1.208">
        <ele>1056</ele>
        <time>2026-05-25T11:33:57.000Z</time>
      </trkpt>
      <trkpt lat="42.92999" lon="1.20802">
        <ele>1057</ele>
        <time>2026-05-25T11:33:58.000Z</time>
      </trkpt>
      <trkpt lat="42.92998" lon="1.20803">
        <ele>1057</ele>
        <time>2026-05-25T11:33:59.000Z</time>
      </trkpt>
      <trkpt lat="42.92997" lon="1.20804">
        <ele>1058</ele>
        <time>2026-05-25T11:34:00.000Z</time>
      </trkpt>
      <trkpt lat="42.92997" lon="1.20806">
        <ele>1058</ele>
        <time>2026-05-25T11:34:01.000Z</time>
      </trkpt>
      <trkpt lat="42.92996" lon="1.20808">
        <ele>1059</ele>
        <time>2026-05-25T11:34:02.000Z</time>
      </trkpt>
      <trkpt lat="42.92995" lon="1.2081">
        <ele>1059</ele>
        <time>2026-05-25T11:34:03.000Z</time>
      </trkpt>
      <trkpt lat="42.92995" lon="1.20812">
        <ele>1060</ele>
        <time>2026-05-25T11:34:04.000Z</time>
      </trkpt>
      <trkpt lat="42.92994" lon="1.20814">
        <ele>1061</ele>
        <time>2026-05-25T11:34:05.000Z</time>
      </trkpt>
      <trkpt lat="42.92993" lon="1.20816">
        <ele>1061</ele>
        <time>2026-05-25T11:34:06.000Z</time>
      </trkpt>
      <trkpt lat="42.92992" lon="1.20818">
        <ele>1062</ele>
        <time>2026-05-25T11:34:07.000Z</time>
      </trkpt>
      <trkpt lat="42.92991" lon="1.20819">
        <ele>1063</ele>
        <time>2026-05-25T11:34:08.000Z</time>
      </trkpt>
      <trkpt lat="42.9299" lon="1.2082">
        <ele>1063</ele>
        <time>2026-05-25T11:34:09.000Z</time>
      </trkpt>
      <trkpt lat="42.92989" lon="1.20822">
        <ele>1063</ele>
        <time>2026-05-25T11:34:10.000Z</time>
      </trkpt>
      <trkpt lat="42.92989" lon="1.20824">
        <ele>1064</ele>
        <time>2026-05-25T11:34:11.000Z</time>
      </trkpt>
      <trkpt lat="42.92988" lon="1.20825">
        <ele>1064</ele>
        <time>2026-05-25T11:34:12.000Z</time>
      </trkpt>
      <trkpt lat="42.92987" lon="1.20826">
        <ele>1064</ele>
        <time>2026-05-25T11:34:13.000Z</time>
      </trkpt>
      <trkpt lat="42.92985" lon="1.20828">
        <ele>1064</ele>
        <time>2026-05-25T11:34:14.000Z</time>
      </trkpt>
      <trkpt lat="42.92984" lon="1.20829">
        <ele>1064</ele>
        <time>2026-05-25T11:34:15.000Z</time>
      </trkpt>
      <trkpt lat="42.92983" lon="1.20831">
        <ele>1065</ele>
        <time>2026-05-25T11:34:16.000Z</time>
      </trkpt>
      <trkpt lat="42.92981" lon="1.20833">
        <ele>1066</ele>
        <time>2026-05-25T11:34:17.000Z</time>
      </trkpt>
      <trkpt lat="42.92981" lon="1.20834">
        <ele>1066</ele>
        <time>2026-05-25T11:34:18.000Z</time>
      </trkpt>
      <trkpt lat="42.9298" lon="1.20837">
        <ele>1067</ele>
        <time>2026-05-25T11:34:19.000Z</time>
      </trkpt>
      <trkpt lat="42.92979" lon="1.20839">
        <ele>1067</ele>
        <time>2026-05-25T11:34:20.000Z</time>
      </trkpt>
      <trkpt lat="42.92978" lon="1.2084">
        <ele>1067</ele>
        <time>2026-05-25T11:34:21.000Z</time>
      </trkpt>
      <trkpt lat="42.92977" lon="1.20841">
        <ele>1067</ele>
        <time>2026-05-25T11:34:22.000Z</time>
      </trkpt>
      <trkpt lat="42.92976" lon="1.20842">
        <ele>1068</ele>
        <time>2026-05-25T11:34:23.000Z</time>
      </trkpt>
      <trkpt lat="42.92975" lon="1.20844">
        <ele>1069</ele>
        <time>2026-05-25T11:34:24.000Z</time>
      </trkpt>
      <trkpt lat="42.92975" lon="1.20846">
        <ele>1070</ele>
        <time>2026-05-25T11:34:25.000Z</time>
      </trkpt>
      <trkpt lat="42.92974" lon="1.20848">
        <ele>1070</ele>
        <time>2026-05-25T11:34:26.000Z</time>
      </trkpt>
      <trkpt lat="42.92973" lon="1.2085">
        <ele>1071</ele>
        <time>2026-05-25T11:34:27.000Z</time>
      </trkpt>
      <trkpt lat="42.92972" lon="1.20852">
        <ele>1072</ele>
        <time>2026-05-25T11:34:28.000Z</time>
      </trkpt>
      <trkpt lat="42.92971" lon="1.20854">
        <ele>1072</ele>
        <time>2026-05-25T11:34:29.000Z</time>
      </trkpt>
      <trkpt lat="42.92969" lon="1.20855">
        <ele>1073</ele>
        <time>2026-05-25T11:34:30.000Z</time>
      </trkpt>
      <trkpt lat="42.92968" lon="1.20857">
        <ele>1074</ele>
        <time>2026-05-25T11:34:31.000Z</time>
      </trkpt>
      <trkpt lat="42.92966" lon="1.20859">
        <ele>1075</ele>
        <time>2026-05-25T11:34:32.000Z</time>
      </trkpt>
      <trkpt lat="42.92965" lon="1.2086">
        <ele>1075</ele>
        <time>2026-05-25T11:34:33.000Z</time>
      </trkpt>
      <trkpt lat="42.92965" lon="1.20861">
        <ele>1076</ele>
        <time>2026-05-25T11:34:34.000Z</time>
      </trkpt>
      <trkpt lat="42.92964" lon="1.20862">
        <ele>1076</ele>
        <time>2026-05-25T11:34:35.000Z</time>
      </trkpt>
      <trkpt lat="42.92963" lon="1.20864">
        <ele>1076</ele>
        <time>2026-05-25T11:34:36.000Z</time>
      </trkpt>
      <trkpt lat="42.92962" lon="1.20866">
        <ele>1077</ele>
        <time>2026-05-25T11:34:37.000Z</time>
      </trkpt>
      <trkpt lat="42.92961" lon="1.20867">
        <ele>1077</ele>
        <time>2026-05-25T11:34:38.000Z</time>
      </trkpt>
      <trkpt lat="42.9296" lon="1.20869">
        <ele>1078</ele>
        <time>2026-05-25T11:34:39.000Z</time>
      </trkpt>
      <trkpt lat="42.9296" lon="1.20871">
        <ele>1079</ele>
        <time>2026-05-25T11:34:40.000Z</time>
      </trkpt>
      <trkpt lat="42.92959" lon="1.20872">
        <ele>1079</ele>
        <time>2026-05-25T11:34:41.000Z</time>
      </trkpt>
      <trkpt lat="42.92959" lon="1.20873">
        <ele>1079</ele>
        <time>2026-05-25T11:34:42.000Z</time>
      </trkpt>
      <trkpt lat="42.92958" lon="1.20875">
        <ele>1079</ele>
        <time>2026-05-25T11:34:43.000Z</time>
      </trkpt>
      <trkpt lat="42.92958" lon="1.20877">
        <ele>1080</ele>
        <time>2026-05-25T11:34:44.000Z</time>
      </trkpt>
      <trkpt lat="42.92957" lon="1.20879">
        <ele>1080</ele>
        <time>2026-05-25T11:34:45.000Z</time>
      </trkpt>
      <trkpt lat="42.92957" lon="1.20881">
        <ele>1080</ele>
        <time>2026-05-25T11:34:46.000Z</time>
      </trkpt>
      <trkpt lat="42.92956" lon="1.20883">
        <ele>1081</ele>
        <time>2026-05-25T11:34:47.000Z</time>
      </trkpt>
      <trkpt lat="42.92955" lon="1.20886">
        <ele>1082</ele>
        <time>2026-05-25T11:34:48.000Z</time>
      </trkpt>
      <trkpt lat="42.92954" lon="1.20888">
        <ele>1082</ele>
        <time>2026-05-25T11:34:49.000Z</time>
      </trkpt>
      <trkpt lat="42.92953" lon="1.2089">
        <ele>1082</ele>
        <time>2026-05-25T11:34:50.000Z</time>
      </trkpt>
      <trkpt lat="42.92953" lon="1.20891">
        <ele>1082</ele>
        <time>2026-05-25T11:34:51.000Z</time>
      </trkpt>
      <trkpt lat="42.92952" lon="1.20893">
        <ele>1083</ele>
        <time>2026-05-25T11:34:52.000Z</time>
      </trkpt>
      <trkpt lat="42.92951" lon="1.20895">
        <ele>1084</ele>
        <time>2026-05-25T11:34:53.000Z</time>
      </trkpt>
      <trkpt lat="42.9295" lon="1.20897">
        <ele>1085</ele>
        <time>2026-05-25T11:34:54.000Z</time>
      </trkpt>
      <trkpt lat="42.92949" lon="1.20899">
        <ele>1086</ele>
        <time>2026-05-25T11:34:55.000Z</time>
      </trkpt>
      <trkpt lat="42.92948" lon="1.209">
        <ele>1086</ele>
        <time>2026-05-25T11:34:56.000Z</time>
      </trkpt>
      <trkpt lat="42.92948" lon="1.20902">
        <ele>1086</ele>
        <time>2026-05-25T11:34:57.000Z</time>
      </trkpt>
      <trkpt lat="42.92947" lon="1.20903">
        <ele>1087</ele>
        <time>2026-05-25T11:34:58.000Z</time>
      </trkpt>
      <trkpt lat="42.92946" lon="1.20905">
        <ele>1086</ele>
        <time>2026-05-25T11:34:59.000Z</time>
      </trkpt>
      <trkpt lat="42.92946" lon="1.20906">
        <ele>1087</ele>
        <time>2026-05-25T11:35:00.000Z</time>
      </trkpt>
      <trkpt lat="42.92945" lon="1.20907">
        <ele>1087</ele>
        <time>2026-05-25T11:35:01.000Z</time>
      </trkpt>
      <trkpt lat="42.92944" lon="1.2091">
        <ele>1088</ele>
        <time>2026-05-25T11:35:02.000Z</time>
      </trkpt>
      <trkpt lat="42.92943" lon="1.20911">
        <ele>1088</ele>
        <time>2026-05-25T11:35:03.000Z</time>
      </trkpt>
      <trkpt lat="42.92942" lon="1.20913">
        <ele>1090</ele>
        <time>2026-05-25T11:35:04.000Z</time>
      </trkpt>
      <trkpt lat="42.92942" lon="1.20915">
        <ele>1090</ele>
        <time>2026-05-25T11:35:05.000Z</time>
      </trkpt>
      <trkpt lat="42.92941" lon="1.20917">
        <ele>1090</ele>
        <time>2026-05-25T11:35:06.000Z</time>
      </trkpt>
      <trkpt lat="42.92941" lon="1.20919">
        <ele>1089</ele>
        <time>2026-05-25T11:35:07.000Z</time>
      </trkpt>
      <trkpt lat="42.9294" lon="1.2092">
        <ele>1089</ele>
        <time>2026-05-25T11:35:08.000Z</time>
      </trkpt>
      <trkpt lat="42.92939" lon="1.20923">
        <ele>1089</ele>
        <time>2026-05-25T11:35:09.000Z</time>
      </trkpt>
      <trkpt lat="42.92938" lon="1.20925">
        <ele>1088</ele>
        <time>2026-05-25T11:35:10.000Z</time>
      </trkpt>
      <trkpt lat="42.92937" lon="1.20927">
        <ele>1088</ele>
        <time>2026-05-25T11:35:11.000Z</time>
      </trkpt>
      <trkpt lat="42.92936" lon="1.20929">
        <ele>1089</ele>
        <time>2026-05-25T11:35:12.000Z</time>
      </trkpt>
      <trkpt lat="42.92935" lon="1.20931">
        <ele>1090</ele>
        <time>2026-05-25T11:35:13.000Z</time>
      </trkpt>
      <trkpt lat="42.92934" lon="1.20933">
        <ele>1090</ele>
        <time>2026-05-25T11:35:14.000Z</time>
      </trkpt>
      <trkpt lat="42.92933" lon="1.20935">
        <ele>1090</ele>
        <time>2026-05-25T11:35:15.000Z</time>
      </trkpt>
      <trkpt lat="42.92932" lon="1.20937">
        <ele>1091</ele>
        <time>2026-05-25T11:35:16.000Z</time>
      </trkpt>
      <trkpt lat="42.92931" lon="1.20939">
        <ele>1091</ele>
        <time>2026-05-25T11:35:17.000Z</time>
      </trkpt>
      <trkpt lat="42.92931" lon="1.20941">
        <ele>1092</ele>
        <time>2026-05-25T11:35:18.000Z</time>
      </trkpt>
      <trkpt lat="42.9293" lon="1.20942">
        <ele>1093</ele>
        <time>2026-05-25T11:35:19.000Z</time>
      </trkpt>
      <trkpt lat="42.92929" lon="1.20944">
        <ele>1095</ele>
        <time>2026-05-25T11:35:20.000Z</time>
      </trkpt>
      <trkpt lat="42.92929" lon="1.20947">
        <ele>1096</ele>
        <time>2026-05-25T11:35:21.000Z</time>
      </trkpt>
      <trkpt lat="42.92927" lon="1.20949">
        <ele>1097</ele>
        <time>2026-05-25T11:35:22.000Z</time>
      </trkpt>
      <trkpt lat="42.92926" lon="1.2095">
        <ele>1097</ele>
        <time>2026-05-25T11:35:23.000Z</time>
      </trkpt>
      <trkpt lat="42.92925" lon="1.20951">
        <ele>1097</ele>
        <time>2026-05-25T11:35:24.000Z</time>
      </trkpt>
      <trkpt lat="42.92925" lon="1.20953">
        <ele>1096</ele>
        <time>2026-05-25T11:35:25.000Z</time>
      </trkpt>
      <trkpt lat="42.92923" lon="1.20955">
        <ele>1096</ele>
        <time>2026-05-25T11:35:26.000Z</time>
      </trkpt>
      <trkpt lat="42.92922" lon="1.20958">
        <ele>1096</ele>
        <time>2026-05-25T11:35:27.000Z</time>
      </trkpt>
      <trkpt lat="42.92921" lon="1.20958">
        <ele>1096</ele>
        <time>2026-05-25T11:35:28.000Z</time>
      </trkpt>
      <trkpt lat="42.92921" lon="1.20959">
        <ele>1096</ele>
        <time>2026-05-25T11:35:29.000Z</time>
      </trkpt>
      <trkpt lat="42.92921" lon="1.2096">
        <ele>1097</ele>
        <time>2026-05-25T11:35:30.000Z</time>
      </trkpt>
      <trkpt lat="42.92921" lon="1.20961">
        <ele>1098</ele>
        <time>2026-05-25T11:35:31.000Z</time>
      </trkpt>
      <trkpt lat="42.9292" lon="1.20963">
        <ele>1099</ele>
        <time>2026-05-25T11:35:32.000Z</time>
      </trkpt>
      <trkpt lat="42.92919" lon="1.20964">
        <ele>1100</ele>
        <time>2026-05-25T11:35:33.000Z</time>
      </trkpt>
      <trkpt lat="42.92918" lon="1.20966">
        <ele>1100</ele>
        <time>2026-05-25T11:35:34.000Z</time>
      </trkpt>
      <trkpt lat="42.92917" lon="1.20968">
        <ele>1101</ele>
        <time>2026-05-25T11:35:35.000Z</time>
      </trkpt>
      <trkpt lat="42.92916" lon="1.20969">
        <ele>1102</ele>
        <time>2026-05-25T11:35:36.000Z</time>
      </trkpt>
      <trkpt lat="42.92916" lon="1.20971">
        <ele>1102</ele>
        <time>2026-05-25T11:35:37.000Z</time>
      </trkpt>
      <trkpt lat="42.92916" lon="1.20972">
        <ele>1102</ele>
        <time>2026-05-25T11:35:38.000Z</time>
      </trkpt>
      <trkpt lat="42.92915" lon="1.20974">
        <ele>1101</ele>
        <time>2026-05-25T11:35:39.000Z</time>
      </trkpt>
      <trkpt lat="42.92914" lon="1.20976">
        <ele>1101</ele>
        <time>2026-05-25T11:35:40.000Z</time>
      </trkpt>
      <trkpt lat="42.92913" lon="1.20979">
        <ele>1101</ele>
        <time>2026-05-25T11:35:41.000Z</time>
      </trkpt>
      <trkpt lat="42.92912" lon="1.2098">
        <ele>1101</ele>
        <time>2026-05-25T11:35:42.000Z</time>
      </trkpt>
      <trkpt lat="42.92911" lon="1.20982">
        <ele>1101</ele>
        <time>2026-05-25T11:35:43.000Z</time>
      </trkpt>
      <trkpt lat="42.9291" lon="1.20984">
        <ele>1101</ele>
        <time>2026-05-25T11:35:44.000Z</time>
      </trkpt>
      <trkpt lat="42.9291" lon="1.20987">
        <ele>1102</ele>
        <time>2026-05-25T11:35:45.000Z</time>
      </trkpt>
      <trkpt lat="42.92909" lon="1.20988">
        <ele>1103</ele>
        <time>2026-05-25T11:35:46.000Z</time>
      </trkpt>
      <trkpt lat="42.92908" lon="1.20991">
        <ele>1103</ele>
        <time>2026-05-25T11:35:47.000Z</time>
      </trkpt>
      <trkpt lat="42.92907" lon="1.20993">
        <ele>1103</ele>
        <time>2026-05-25T11:35:48.000Z</time>
      </trkpt>
      <trkpt lat="42.92906" lon="1.20996">
        <ele>1104</ele>
        <time>2026-05-25T11:35:49.000Z</time>
      </trkpt>
      <trkpt lat="42.92906" lon="1.20998">
        <ele>1103</ele>
        <time>2026-05-25T11:35:50.000Z</time>
      </trkpt>
      <trkpt lat="42.92905" lon="1.21001">
        <ele>1104</ele>
        <time>2026-05-25T11:35:51.000Z</time>
      </trkpt>
      <trkpt lat="42.92904" lon="1.21003">
        <ele>1105</ele>
        <time>2026-05-25T11:35:52.000Z</time>
      </trkpt>
      <trkpt lat="42.92903" lon="1.21005">
        <ele>1106</ele>
        <time>2026-05-25T11:35:53.000Z</time>
      </trkpt>
      <trkpt lat="42.92902" lon="1.21008">
        <ele>1107</ele>
        <time>2026-05-25T11:35:54.000Z</time>
      </trkpt>
      <trkpt lat="42.92901" lon="1.2101">
        <ele>1108</ele>
        <time>2026-05-25T11:35:55.000Z</time>
      </trkpt>
      <trkpt lat="42.929" lon="1.21013">
        <ele>1108</ele>
        <time>2026-05-25T11:35:56.000Z</time>
      </trkpt>
      <trkpt lat="42.92899" lon="1.21014">
        <ele>1109</ele>
        <time>2026-05-25T11:35:57.000Z</time>
      </trkpt>
      <trkpt lat="42.92899" lon="1.21016">
        <ele>1110</ele>
        <time>2026-05-25T11:35:58.000Z</time>
      </trkpt>
      <trkpt lat="42.92898" lon="1.21018">
        <ele>1111</ele>
        <time>2026-05-25T11:35:59.000Z</time>
      </trkpt>
      <trkpt lat="42.92897" lon="1.2102">
        <ele>1112</ele>
        <time>2026-05-25T11:36:00.000Z</time>
      </trkpt>
      <trkpt lat="42.92896" lon="1.21024">
        <ele>1113</ele>
        <time>2026-05-25T11:36:01.000Z</time>
      </trkpt>
      <trkpt lat="42.92896" lon="1.21025">
        <ele>1113</ele>
        <time>2026-05-25T11:36:02.000Z</time>
      </trkpt>
      <trkpt lat="42.92895" lon="1.21027">
        <ele>1113</ele>
        <time>2026-05-25T11:36:03.000Z</time>
      </trkpt>
      <trkpt lat="42.92894" lon="1.21028">
        <ele>1112</ele>
        <time>2026-05-25T11:36:04.000Z</time>
      </trkpt>
      <trkpt lat="42.92893" lon="1.2103">
        <ele>1113</ele>
        <time>2026-05-25T11:36:05.000Z</time>
      </trkpt>
      <trkpt lat="42.92893" lon="1.21032">
        <ele>1113</ele>
        <time>2026-05-25T11:36:06.000Z</time>
      </trkpt>
      <trkpt lat="42.92892" lon="1.21035">
        <ele>1113</ele>
        <time>2026-05-25T11:36:07.000Z</time>
      </trkpt>
      <trkpt lat="42.92891" lon="1.21037">
        <ele>1113</ele>
        <time>2026-05-25T11:36:08.000Z</time>
      </trkpt>
      <trkpt lat="42.9289" lon="1.21039">
        <ele>1114</ele>
        <time>2026-05-25T11:36:09.000Z</time>
      </trkpt>
      <trkpt lat="42.92889" lon="1.21041">
        <ele>1114</ele>
        <time>2026-05-25T11:36:10.000Z</time>
      </trkpt>
      <trkpt lat="42.92888" lon="1.21043">
        <ele>1114</ele>
        <time>2026-05-25T11:36:11.000Z</time>
      </trkpt>
      <trkpt lat="42.92887" lon="1.21044">
        <ele>1115</ele>
        <time>2026-05-25T11:36:12.000Z</time>
      </trkpt>
      <trkpt lat="42.92886" lon="1.21046">
        <ele>1115</ele>
        <time>2026-05-25T11:36:13.000Z</time>
      </trkpt>
      <trkpt lat="42.92885" lon="1.21048">
        <ele>1114</ele>
        <time>2026-05-25T11:36:14.000Z</time>
      </trkpt>
      <trkpt lat="42.92883" lon="1.21051">
        <ele>1115</ele>
        <time>2026-05-25T11:36:15.000Z</time>
      </trkpt>
      <trkpt lat="42.92883" lon="1.21053">
        <ele>1114</ele>
        <time>2026-05-25T11:36:16.000Z</time>
      </trkpt>
      <trkpt lat="42.92882" lon="1.21056">
        <ele>1115</ele>
        <time>2026-05-25T11:36:17.000Z</time>
      </trkpt>
      <trkpt lat="42.92881" lon="1.21059">
        <ele>1115</ele>
        <time>2026-05-25T11:36:18.000Z</time>
      </trkpt>
      <trkpt lat="42.9288" lon="1.21062">
        <ele>1114</ele>
        <time>2026-05-25T11:36:19.000Z</time>
      </trkpt>
      <trkpt lat="42.9288" lon="1.21064">
        <ele>1114</ele>
        <time>2026-05-25T11:36:20.000Z</time>
      </trkpt>
      <trkpt lat="42.92879" lon="1.21065">
        <ele>1114</ele>
        <time>2026-05-25T11:36:21.000Z</time>
      </trkpt>
      <trkpt lat="42.92879" lon="1.21067">
        <ele>1113</ele>
        <time>2026-05-25T11:36:22.000Z</time>
      </trkpt>
      <trkpt lat="42.92878" lon="1.21069">
        <ele>1114</ele>
        <time>2026-05-25T11:36:23.000Z</time>
      </trkpt>
      <trkpt lat="42.92878" lon="1.21071">
        <ele>1113</ele>
        <time>2026-05-25T11:36:24.000Z</time>
      </trkpt>
      <trkpt lat="42.92877" lon="1.21075">
        <ele>1113</ele>
        <time>2026-05-25T11:36:25.000Z</time>
      </trkpt>
      <trkpt lat="42.92875" lon="1.21077">
        <ele>1114</ele>
        <time>2026-05-25T11:36:26.000Z</time>
      </trkpt>
      <trkpt lat="42.92873" lon="1.2108">
        <ele>1114</ele>
        <time>2026-05-25T11:36:27.000Z</time>
      </trkpt>
      <trkpt lat="42.92871" lon="1.21082">
        <ele>1114</ele>
        <time>2026-05-25T11:36:28.000Z</time>
      </trkpt>
      <trkpt lat="42.9287" lon="1.21085">
        <ele>1115</ele>
        <time>2026-05-25T11:36:29.000Z</time>
      </trkpt>
      <trkpt lat="42.92868" lon="1.21089">
        <ele>1115</ele>
        <time>2026-05-25T11:36:30.000Z</time>
      </trkpt>
      <trkpt lat="42.92867" lon="1.21092">
        <ele>1114</ele>
        <time>2026-05-25T11:36:31.000Z</time>
      </trkpt>
      <trkpt lat="42.92868" lon="1.21097">
        <ele>1115</ele>
        <time>2026-05-25T11:36:32.000Z</time>
      </trkpt>
      <trkpt lat="42.92869" lon="1.21101">
        <ele>1114</ele>
        <time>2026-05-25T11:36:33.000Z</time>
      </trkpt>
      <trkpt lat="42.92872" lon="1.21104">
        <ele>1113</ele>
        <time>2026-05-25T11:36:34.000Z</time>
      </trkpt>
      <trkpt lat="42.92875" lon="1.21107">
        <ele>1113</ele>
        <time>2026-05-25T11:36:35.000Z</time>
      </trkpt>
      <trkpt lat="42.92879" lon="1.21108">
        <ele>1113</ele>
        <time>2026-05-25T11:36:36.000Z</time>
      </trkpt>
      <trkpt lat="42.92884" lon="1.21111">
        <ele>1112</ele>
        <time>2026-05-25T11:36:37.000Z</time>
      </trkpt>
      <trkpt lat="42.92888" lon="1.21112">
        <ele>1110</ele>
        <time>2026-05-25T11:36:38.000Z</time>
      </trkpt>
      <trkpt lat="42.92893" lon="1.21111">
        <ele>1109</ele>
        <time>2026-05-25T11:36:39.000Z</time>
      </trkpt>
      <trkpt lat="42.92898" lon="1.21111">
        <ele>1108</ele>
        <time>2026-05-25T11:36:40.000Z</time>
      </trkpt>
      <trkpt lat="42.92904" lon="1.21112">
        <ele>1108</ele>
        <time>2026-05-25T11:36:41.000Z</time>
      </trkpt>
      <trkpt lat="42.9291" lon="1.21113">
        <ele>1108</ele>
        <time>2026-05-25T11:36:42.000Z</time>
      </trkpt>
      <trkpt lat="42.92916" lon="1.21115">
        <ele>1107</ele>
        <time>2026-05-25T11:36:43.000Z</time>
      </trkpt>
      <trkpt lat="42.92922" lon="1.21116">
        <ele>1107</ele>
        <time>2026-05-25T11:36:44.000Z</time>
      </trkpt>
      <trkpt lat="42.92929" lon="1.21117">
        <ele>1106</ele>
        <time>2026-05-25T11:36:45.000Z</time>
      </trkpt>
      <trkpt lat="42.92935" lon="1.21118">
        <ele>1107</ele>
        <time>2026-05-25T11:36:46.000Z</time>
      </trkpt>
      <trkpt lat="42.9294" lon="1.21119">
        <ele>1106</ele>
        <time>2026-05-25T11:36:47.000Z</time>
      </trkpt>
      <trkpt lat="42.92946" lon="1.21119">
        <ele>1107</ele>
        <time>2026-05-25T11:36:48.000Z</time>
      </trkpt>
      <trkpt lat="42.92951" lon="1.21119">
        <ele>1107</ele>
        <time>2026-05-25T11:36:49.000Z</time>
      </trkpt>
      <trkpt lat="42.92956" lon="1.2112">
        <ele>1107</ele>
        <time>2026-05-25T11:36:50.000Z</time>
      </trkpt>
      <trkpt lat="42.9296" lon="1.21121">
        <ele>1107</ele>
        <time>2026-05-25T11:36:51.000Z</time>
      </trkpt>
      <trkpt lat="42.92964" lon="1.21123">
        <ele>1108</ele>
        <time>2026-05-25T11:36:52.000Z</time>
      </trkpt>
      <trkpt lat="42.92968" lon="1.21124">
        <ele>1108</ele>
        <time>2026-05-25T11:36:53.000Z</time>
      </trkpt>
      <trkpt lat="42.92973" lon="1.21125">
        <ele>1107</ele>
        <time>2026-05-25T11:36:54.000Z</time>
      </trkpt>
      <trkpt lat="42.92977" lon="1.21127">
        <ele>1107</ele>
        <time>2026-05-25T11:36:55.000Z</time>
      </trkpt>
      <trkpt lat="42.92981" lon="1.21129">
        <ele>1108</ele>
        <time>2026-05-25T11:36:56.000Z</time>
      </trkpt>
      <trkpt lat="42.92984" lon="1.2113">
        <ele>1108</ele>
        <time>2026-05-25T11:36:57.000Z</time>
      </trkpt>
      <trkpt lat="42.92987" lon="1.21133">
        <ele>1108</ele>
        <time>2026-05-25T11:36:58.000Z</time>
      </trkpt>
      <trkpt lat="42.92991" lon="1.21137">
        <ele>1108</ele>
        <time>2026-05-25T11:36:59.000Z</time>
      </trkpt>
      <trkpt lat="42.92994" lon="1.2114">
        <ele>1109</ele>
        <time>2026-05-25T11:37:00.000Z</time>
      </trkpt>
      <trkpt lat="42.92998" lon="1.21143">
        <ele>1109</ele>
        <time>2026-05-25T11:37:01.000Z</time>
      </trkpt>
      <trkpt lat="42.93001" lon="1.21147">
        <ele>1109</ele>
        <time>2026-05-25T11:37:02.000Z</time>
      </trkpt>
      <trkpt lat="42.93003" lon="1.2115">
        <ele>1109</ele>
        <time>2026-05-25T11:37:03.000Z</time>
      </trkpt>
      <trkpt lat="42.93006" lon="1.21153">
        <ele>1109</ele>
        <time>2026-05-25T11:37:04.000Z</time>
      </trkpt>
      <trkpt lat="42.93009" lon="1.21155">
        <ele>1109</ele>
        <time>2026-05-25T11:37:05.000Z</time>
      </trkpt>
      <trkpt lat="42.93011" lon="1.21158">
        <ele>1109</ele>
        <time>2026-05-25T11:37:06.000Z</time>
      </trkpt>
      <trkpt lat="42.93014" lon="1.21162">
        <ele>1109</ele>
        <time>2026-05-25T11:37:07.000Z</time>
      </trkpt>
      <trkpt lat="42.93017" lon="1.21164">
        <ele>1109</ele>
        <time>2026-05-25T11:37:08.000Z</time>
      </trkpt>
      <trkpt lat="42.9302" lon="1.21166">
        <ele>1109</ele>
        <time>2026-05-25T11:37:09.000Z</time>
      </trkpt>
      <trkpt lat="42.93023" lon="1.2117">
        <ele>1109</ele>
        <time>2026-05-25T11:37:10.000Z</time>
      </trkpt>
      <trkpt lat="42.93027" lon="1.21173">
        <ele>1109</ele>
        <time>2026-05-25T11:37:11.000Z</time>
      </trkpt>
      <trkpt lat="42.93032" lon="1.21177">
        <ele>1109</ele>
        <time>2026-05-25T11:37:12.000Z</time>
      </trkpt>
      <trkpt lat="42.93036" lon="1.21182">
        <ele>1109</ele>
        <time>2026-05-25T11:37:13.000Z</time>
      </trkpt>
      <trkpt lat="42.9304" lon="1.21185">
        <ele>1107</ele>
        <time>2026-05-25T11:37:14.000Z</time>
      </trkpt>
      <trkpt lat="42.93043" lon="1.21189">
        <ele>1106</ele>
        <time>2026-05-25T11:37:15.000Z</time>
      </trkpt>
      <trkpt lat="42.93046" lon="1.21192">
        <ele>1106</ele>
        <time>2026-05-25T11:37:16.000Z</time>
      </trkpt>
      <trkpt lat="42.9305" lon="1.21196">
        <ele>1106</ele>
        <time>2026-05-25T11:37:17.000Z</time>
      </trkpt>
      <trkpt lat="42.93053" lon="1.212">
        <ele>1106</ele>
        <time>2026-05-25T11:37:18.000Z</time>
      </trkpt>
      <trkpt lat="42.93056" lon="1.21205">
        <ele>1105</ele>
        <time>2026-05-25T11:37:19.000Z</time>
      </trkpt>
      <trkpt lat="42.93059" lon="1.21209">
        <ele>1104</ele>
        <time>2026-05-25T11:37:20.000Z</time>
      </trkpt>
      <trkpt lat="42.93062" lon="1.21213">
        <ele>1104</ele>
        <time>2026-05-25T11:37:21.000Z</time>
      </trkpt>
      <trkpt lat="42.93065" lon="1.21217">
        <ele>1103</ele>
        <time>2026-05-25T11:37:22.000Z</time>
      </trkpt>
      <trkpt lat="42.93067" lon="1.21222">
        <ele>1104</ele>
        <time>2026-05-25T11:37:23.000Z</time>
      </trkpt>
      <trkpt lat="42.9307" lon="1.21226">
        <ele>1104</ele>
        <time>2026-05-25T11:37:24.000Z</time>
      </trkpt>
      <trkpt lat="42.93073" lon="1.21231">
        <ele>1104</ele>
        <time>2026-05-25T11:37:25.000Z</time>
      </trkpt>
      <trkpt lat="42.93076" lon="1.21235">
        <ele>1104</ele>
        <time>2026-05-25T11:37:26.000Z</time>
      </trkpt>
      <trkpt lat="42.93078" lon="1.21239">
        <ele>1104</ele>
        <time>2026-05-25T11:37:27.000Z</time>
      </trkpt>
      <trkpt lat="42.9308" lon="1.21242">
        <ele>1104</ele>
        <time>2026-05-25T11:37:28.000Z</time>
      </trkpt>
      <trkpt lat="42.93082" lon="1.21246">
        <ele>1104</ele>
        <time>2026-05-25T11:37:29.000Z</time>
      </trkpt>
      <trkpt lat="42.93085" lon="1.21248">
        <ele>1105</ele>
        <time>2026-05-25T11:37:30.000Z</time>
      </trkpt>
      <trkpt lat="42.93087" lon="1.21251">
        <ele>1105</ele>
        <time>2026-05-25T11:37:31.000Z</time>
      </trkpt>
      <trkpt lat="42.93089" lon="1.21254">
        <ele>1105</ele>
        <time>2026-05-25T11:37:32.000Z</time>
      </trkpt>
      <trkpt lat="42.93091" lon="1.21257">
        <ele>1105</ele>
        <time>2026-05-25T11:37:33.000Z</time>
      </trkpt>
      <trkpt lat="42.93093" lon="1.2126">
        <ele>1105</ele>
        <time>2026-05-25T11:37:34.000Z</time>
      </trkpt>
      <trkpt lat="42.93095" lon="1.21263">
        <ele>1106</ele>
        <time>2026-05-25T11:37:35.000Z</time>
      </trkpt>
      <trkpt lat="42.93097" lon="1.21266">
        <ele>1106</ele>
        <time>2026-05-25T11:37:36.000Z</time>
      </trkpt>
      <trkpt lat="42.93098" lon="1.21268">
        <ele>1106</ele>
        <time>2026-05-25T11:37:37.000Z</time>
      </trkpt>
      <trkpt lat="42.931" lon="1.21271">
        <ele>1107</ele>
        <time>2026-05-25T11:37:38.000Z</time>
      </trkpt>
      <trkpt lat="42.93102" lon="1.21274">
        <ele>1107</ele>
        <time>2026-05-25T11:37:39.000Z</time>
      </trkpt>
      <trkpt lat="42.93103" lon="1.21277">
        <ele>1107</ele>
        <time>2026-05-25T11:37:40.000Z</time>
      </trkpt>
      <trkpt lat="42.93105" lon="1.2128">
        <ele>1107</ele>
        <time>2026-05-25T11:37:41.000Z</time>
      </trkpt>
      <trkpt lat="42.93106" lon="1.21283">
        <ele>1107</ele>
        <time>2026-05-25T11:37:42.000Z</time>
      </trkpt>
      <trkpt lat="42.93108" lon="1.21284">
        <ele>1107</ele>
        <time>2026-05-25T11:37:43.000Z</time>
      </trkpt>
      <trkpt lat="42.9311" lon="1.21286">
        <ele>1108</ele>
        <time>2026-05-25T11:37:44.000Z</time>
      </trkpt>
      <trkpt lat="42.93111" lon="1.21288">
        <ele>1108</ele>
        <time>2026-05-25T11:37:45.000Z</time>
      </trkpt>
      <trkpt lat="42.93113" lon="1.2129">
        <ele>1109</ele>
        <time>2026-05-25T11:37:46.000Z</time>
      </trkpt>
      <trkpt lat="42.93114" lon="1.21293">
        <ele>1109</ele>
        <time>2026-05-25T11:37:47.000Z</time>
      </trkpt>
      <trkpt lat="42.93116" lon="1.21296">
        <ele>1110</ele>
        <time>2026-05-25T11:37:48.000Z</time>
      </trkpt>
      <trkpt lat="42.93117" lon="1.21298">
        <ele>1110</ele>
        <time>2026-05-25T11:37:49.000Z</time>
      </trkpt>
      <trkpt lat="42.93119" lon="1.213">
        <ele>1111</ele>
        <time>2026-05-25T11:37:50.000Z</time>
      </trkpt>
      <trkpt lat="42.93121" lon="1.21302">
        <ele>1112</ele>
        <time>2026-05-25T11:37:51.000Z</time>
      </trkpt>
      <trkpt lat="42.93123" lon="1.21304">
        <ele>1112</ele>
        <time>2026-05-25T11:37:52.000Z</time>
      </trkpt>
      <trkpt lat="42.93125" lon="1.21306">
        <ele>1113</ele>
        <time>2026-05-25T11:37:53.000Z</time>
      </trkpt>
      <trkpt lat="42.93127" lon="1.21308">
        <ele>1113</ele>
        <time>2026-05-25T11:37:54.000Z</time>
      </trkpt>
      <trkpt lat="42.93129" lon="1.21311">
        <ele>1113</ele>
        <time>2026-05-25T11:37:55.000Z</time>
      </trkpt>
      <trkpt lat="42.9313" lon="1.21313">
        <ele>1114</ele>
        <time>2026-05-25T11:37:56.000Z</time>
      </trkpt>
      <trkpt lat="42.93132" lon="1.21317">
        <ele>1114</ele>
        <time>2026-05-25T11:37:57.000Z</time>
      </trkpt>
      <trkpt lat="42.93134" lon="1.21322">
        <ele>1114</ele>
        <time>2026-05-25T11:37:58.000Z</time>
      </trkpt>
      <trkpt lat="42.93137" lon="1.21326">
        <ele>1114</ele>
        <time>2026-05-25T11:37:59.000Z</time>
      </trkpt>
      <trkpt lat="42.9314" lon="1.21329">
        <ele>1114</ele>
        <time>2026-05-25T11:38:00.000Z</time>
      </trkpt>
      <trkpt lat="42.93141" lon="1.21332">
        <ele>1114</ele>
        <time>2026-05-25T11:38:01.000Z</time>
      </trkpt>
      <trkpt lat="42.93144" lon="1.21336">
        <ele>1114</ele>
        <time>2026-05-25T11:38:02.000Z</time>
      </trkpt>
      <trkpt lat="42.93147" lon="1.2134">
        <ele>1113</ele>
        <time>2026-05-25T11:38:03.000Z</time>
      </trkpt>
      <trkpt lat="42.93151" lon="1.21345">
        <ele>1113</ele>
        <time>2026-05-25T11:38:04.000Z</time>
      </trkpt>
      <trkpt lat="42.93153" lon="1.21348">
        <ele>1113</ele>
        <time>2026-05-25T11:38:05.000Z</time>
      </trkpt>
      <trkpt lat="42.93156" lon="1.21351">
        <ele>1112</ele>
        <time>2026-05-25T11:38:06.000Z</time>
      </trkpt>
      <trkpt lat="42.93159" lon="1.21353">
        <ele>1112</ele>
        <time>2026-05-25T11:38:07.000Z</time>
      </trkpt>
      <trkpt lat="42.93162" lon="1.21356">
        <ele>1112</ele>
        <time>2026-05-25T11:38:08.000Z</time>
      </trkpt>
      <trkpt lat="42.93164" lon="1.2136">
        <ele>1110</ele>
        <time>2026-05-25T11:38:09.000Z</time>
      </trkpt>
      <trkpt lat="42.93168" lon="1.21364">
        <ele>1108</ele>
        <time>2026-05-25T11:38:10.000Z</time>
      </trkpt>
      <trkpt lat="42.93173" lon="1.21367">
        <ele>1107</ele>
        <time>2026-05-25T11:38:11.000Z</time>
      </trkpt>
      <trkpt lat="42.93177" lon="1.21371">
        <ele>1105</ele>
        <time>2026-05-25T11:38:12.000Z</time>
      </trkpt>
      <trkpt lat="42.93182" lon="1.21375">
        <ele>1105</ele>
        <time>2026-05-25T11:38:13.000Z</time>
      </trkpt>
      <trkpt lat="42.93186" lon="1.21379">
        <ele>1104</ele>
        <time>2026-05-25T11:38:14.000Z</time>
      </trkpt>
      <trkpt lat="42.9319" lon="1.21383">
        <ele>1103</ele>
        <time>2026-05-25T11:38:15.000Z</time>
      </trkpt>
      <trkpt lat="42.93193" lon="1.21386">
        <ele>1102</ele>
        <time>2026-05-25T11:38:16.000Z</time>
      </trkpt>
      <trkpt lat="42.93197" lon="1.2139">
        <ele>1101</ele>
        <time>2026-05-25T11:38:17.000Z</time>
      </trkpt>
      <trkpt lat="42.93201" lon="1.21393">
        <ele>1099</ele>
        <time>2026-05-25T11:38:18.000Z</time>
      </trkpt>
      <trkpt lat="42.93205" lon="1.21399">
        <ele>1098</ele>
        <time>2026-05-25T11:38:19.000Z</time>
      </trkpt>
      <trkpt lat="42.93206" lon="1.21406">
        <ele>1098</ele>
        <time>2026-05-25T11:38:20.000Z</time>
      </trkpt>
      <trkpt lat="42.93207" lon="1.21412">
        <ele>1098</ele>
        <time>2026-05-25T11:38:21.000Z</time>
      </trkpt>
      <trkpt lat="42.93209" lon="1.21416">
        <ele>1096</ele>
        <time>2026-05-25T11:38:22.000Z</time>
      </trkpt>
      <trkpt lat="42.93212" lon="1.21422">
        <ele>1093</ele>
        <time>2026-05-25T11:38:23.000Z</time>
      </trkpt>
      <trkpt lat="42.93215" lon="1.21429">
        <ele>1092</ele>
        <time>2026-05-25T11:38:24.000Z</time>
      </trkpt>
      <trkpt lat="42.9322" lon="1.21434">
        <ele>1089</ele>
        <time>2026-05-25T11:38:25.000Z</time>
      </trkpt>
      <trkpt lat="42.93225" lon="1.21441">
        <ele>1086</ele>
        <time>2026-05-25T11:38:26.000Z</time>
      </trkpt>
      <trkpt lat="42.9323" lon="1.21448">
        <ele>1084</ele>
        <time>2026-05-25T11:38:27.000Z</time>
      </trkpt>
      <trkpt lat="42.93236" lon="1.21452">
        <ele>1082</ele>
        <time>2026-05-25T11:38:28.000Z</time>
      </trkpt>
      <trkpt lat="42.93241" lon="1.21456">
        <ele>1080</ele>
        <time>2026-05-25T11:38:29.000Z</time>
      </trkpt>
      <trkpt lat="42.93243" lon="1.21462">
        <ele>1079</ele>
        <time>2026-05-25T11:38:30.000Z</time>
      </trkpt>
      <trkpt lat="42.93242" lon="1.2147">
        <ele>1079</ele>
        <time>2026-05-25T11:38:31.000Z</time>
      </trkpt>
      <trkpt lat="42.9324" lon="1.21477">
        <ele>1079</ele>
        <time>2026-05-25T11:38:32.000Z</time>
      </trkpt>
      <trkpt lat="42.93243" lon="1.21485">
        <ele>1079</ele>
        <time>2026-05-25T11:38:33.000Z</time>
      </trkpt>
      <trkpt lat="42.93248" lon="1.21488">
        <ele>1079</ele>
        <time>2026-05-25T11:38:34.000Z</time>
      </trkpt>
      <trkpt lat="42.93253" lon="1.2149">
        <ele>1078</ele>
        <time>2026-05-25T11:38:35.000Z</time>
      </trkpt>
      <trkpt lat="42.93257" lon="1.21491">
        <ele>1077</ele>
        <time>2026-05-25T11:38:36.000Z</time>
      </trkpt>
      <trkpt lat="42.93261" lon="1.21493">
        <ele>1076</ele>
        <time>2026-05-25T11:38:37.000Z</time>
      </trkpt>
      <trkpt lat="42.93265" lon="1.21496">
        <ele>1076</ele>
        <time>2026-05-25T11:38:38.000Z</time>
      </trkpt>
      <trkpt lat="42.93268" lon="1.21499">
        <ele>1076</ele>
        <time>2026-05-25T11:38:39.000Z</time>
      </trkpt>
      <trkpt lat="42.93273" lon="1.21503">
        <ele>1074</ele>
        <time>2026-05-25T11:38:40.000Z</time>
      </trkpt>
      <trkpt lat="42.93277" lon="1.21509">
        <ele>1073</ele>
        <time>2026-05-25T11:38:41.000Z</time>
      </trkpt>
      <trkpt lat="42.93279" lon="1.21516">
        <ele>1073</ele>
        <time>2026-05-25T11:38:42.000Z</time>
      </trkpt>
      <trkpt lat="42.93281" lon="1.21523">
        <ele>1074</ele>
        <time>2026-05-25T11:38:43.000Z</time>
      </trkpt>
      <trkpt lat="42.93283" lon="1.21529">
        <ele>1074</ele>
        <time>2026-05-25T11:38:44.000Z</time>
      </trkpt>
      <trkpt lat="42.93286" lon="1.21535">
        <ele>1074</ele>
        <time>2026-05-25T11:38:45.000Z</time>
      </trkpt>
      <trkpt lat="42.9329" lon="1.21541">
        <ele>1073</ele>
        <time>2026-05-25T11:38:46.000Z</time>
      </trkpt>
      <trkpt lat="42.93294" lon="1.21545">
        <ele>1074</ele>
        <time>2026-05-25T11:38:47.000Z</time>
      </trkpt>
      <trkpt lat="42.93297" lon="1.2155">
        <ele>1073</ele>
        <time>2026-05-25T11:38:48.000Z</time>
      </trkpt>
      <trkpt lat="42.93299" lon="1.21552">
        <ele>1073</ele>
        <time>2026-05-25T11:38:49.000Z</time>
      </trkpt>
      <trkpt lat="42.93301" lon="1.21554">
        <ele>1072</ele>
        <time>2026-05-25T11:38:50.000Z</time>
      </trkpt>
      <trkpt lat="42.93303" lon="1.21557">
        <ele>1072</ele>
        <time>2026-05-25T11:38:51.000Z</time>
      </trkpt>
      <trkpt lat="42.93305" lon="1.21559">
        <ele>1072</ele>
        <time>2026-05-25T11:38:52.000Z</time>
      </trkpt>
      <trkpt lat="42.93308" lon="1.21561">
        <ele>1073</ele>
        <time>2026-05-25T11:38:53.000Z</time>
      </trkpt>
      <trkpt lat="42.9331" lon="1.21563">
        <ele>1072</ele>
        <time>2026-05-25T11:38:54.000Z</time>
      </trkpt>
      <trkpt lat="42.93313" lon="1.21566">
        <ele>1072</ele>
        <time>2026-05-25T11:38:55.000Z</time>
      </trkpt>
      <trkpt lat="42.93315" lon="1.21568">
        <ele>1072</ele>
        <time>2026-05-25T11:38:56.000Z</time>
      </trkpt>
      <trkpt lat="42.93316" lon="1.21569">
        <ele>1072</ele>
        <time>2026-05-25T11:38:57.000Z</time>
      </trkpt>
      <trkpt lat="42.93318" lon="1.21572">
        <ele>1074</ele>
        <time>2026-05-25T11:38:58.000Z</time>
      </trkpt>
      <trkpt lat="42.93319" lon="1.21574">
        <ele>1073</ele>
        <time>2026-05-25T11:38:59.000Z</time>
      </trkpt>
      <trkpt lat="42.93319" lon="1.21577">
        <ele>1073</ele>
        <time>2026-05-25T11:39:00.000Z</time>
      </trkpt>
      <trkpt lat="42.93321" lon="1.2158">
        <ele>1074</ele>
        <time>2026-05-25T11:39:01.000Z</time>
      </trkpt>
      <trkpt lat="42.93322" lon="1.21583">
        <ele>1074</ele>
        <time>2026-05-25T11:39:02.000Z</time>
      </trkpt>
      <trkpt lat="42.93324" lon="1.21587">
        <ele>1074</ele>
        <time>2026-05-25T11:39:03.000Z</time>
      </trkpt>
      <trkpt lat="42.93325" lon="1.21589">
        <ele>1075</ele>
        <time>2026-05-25T11:39:04.000Z</time>
      </trkpt>
      <trkpt lat="42.93327" lon="1.21592">
        <ele>1076</ele>
        <time>2026-05-25T11:39:05.000Z</time>
      </trkpt>
      <trkpt lat="42.93329" lon="1.21593">
        <ele>1077</ele>
        <time>2026-05-25T11:39:06.000Z</time>
      </trkpt>
      <trkpt lat="42.93332" lon="1.21594">
        <ele>1078</ele>
        <time>2026-05-25T11:39:07.000Z</time>
      </trkpt>
      <trkpt lat="42.93334" lon="1.21595">
        <ele>1080</ele>
        <time>2026-05-25T11:39:08.000Z</time>
      </trkpt>
      <trkpt lat="42.93337" lon="1.21597">
        <ele>1080</ele>
        <time>2026-05-25T11:39:09.000Z</time>
      </trkpt>
      <trkpt lat="42.93339" lon="1.21599">
        <ele>1082</ele>
        <time>2026-05-25T11:39:10.000Z</time>
      </trkpt>
      <trkpt lat="42.93341" lon="1.216">
        <ele>1083</ele>
        <time>2026-05-25T11:39:11.000Z</time>
      </trkpt>
      <trkpt lat="42.93343" lon="1.21602">
        <ele>1085</ele>
        <time>2026-05-25T11:39:12.000Z</time>
      </trkpt>
      <trkpt lat="42.93346" lon="1.21604">
        <ele>1085</ele>
        <time>2026-05-25T11:39:13.000Z</time>
      </trkpt>
      <trkpt lat="42.93348" lon="1.21605">
        <ele>1085</ele>
        <time>2026-05-25T11:39:14.000Z</time>
      </trkpt>
      <trkpt lat="42.9335" lon="1.21607">
        <ele>1085</ele>
        <time>2026-05-25T11:39:15.000Z</time>
      </trkpt>
      <trkpt lat="42.93353" lon="1.21609">
        <ele>1086</ele>
        <time>2026-05-25T11:39:16.000Z</time>
      </trkpt>
      <trkpt lat="42.93355" lon="1.21612">
        <ele>1086</ele>
        <time>2026-05-25T11:39:17.000Z</time>
      </trkpt>
      <trkpt lat="42.93357" lon="1.21616">
        <ele>1086</ele>
        <time>2026-05-25T11:39:18.000Z</time>
      </trkpt>
      <trkpt lat="42.9336" lon="1.21618">
        <ele>1087</ele>
        <time>2026-05-25T11:39:19.000Z</time>
      </trkpt>
      <trkpt lat="42.93362" lon="1.2162">
        <ele>1086</ele>
        <time>2026-05-25T11:39:20.000Z</time>
      </trkpt>
      <trkpt lat="42.93365" lon="1.21621">
        <ele>1086</ele>
        <time>2026-05-25T11:39:21.000Z</time>
      </trkpt>
      <trkpt lat="42.93367" lon="1.21622">
        <ele>1086</ele>
        <time>2026-05-25T11:39:22.000Z</time>
      </trkpt>
      <trkpt lat="42.93368" lon="1.21624">
        <ele>1086</ele>
        <time>2026-05-25T11:39:23.000Z</time>
      </trkpt>
      <trkpt lat="42.9337" lon="1.21626">
        <ele>1086</ele>
        <time>2026-05-25T11:39:24.000Z</time>
      </trkpt>
      <trkpt lat="42.93371" lon="1.21627">
        <ele>1087</ele>
        <time>2026-05-25T11:39:25.000Z</time>
      </trkpt>
      <trkpt lat="42.93373" lon="1.21629">
        <ele>1087</ele>
        <time>2026-05-25T11:39:26.000Z</time>
      </trkpt>
      <trkpt lat="42.93375" lon="1.2163">
        <ele>1086</ele>
        <time>2026-05-25T11:39:27.000Z</time>
      </trkpt>
      <trkpt lat="42.93377" lon="1.21633">
        <ele>1087</ele>
        <time>2026-05-25T11:39:28.000Z</time>
      </trkpt>
      <trkpt lat="42.93379" lon="1.21637">
        <ele>1088</ele>
        <time>2026-05-25T11:39:29.000Z</time>
      </trkpt>
      <trkpt lat="42.93381" lon="1.21641">
        <ele>1089</ele>
        <time>2026-05-25T11:39:30.000Z</time>
      </trkpt>
      <trkpt lat="42.93383" lon="1.21646">
        <ele>1089</ele>
        <time>2026-05-25T11:39:31.000Z</time>
      </trkpt>
      <trkpt lat="42.93385" lon="1.21651">
        <ele>1089</ele>
        <time>2026-05-25T11:39:32.000Z</time>
      </trkpt>
      <trkpt lat="42.93388" lon="1.21655">
        <ele>1088</ele>
        <time>2026-05-25T11:39:33.000Z</time>
      </trkpt>
      <trkpt lat="42.9339" lon="1.2166">
        <ele>1087</ele>
        <time>2026-05-25T11:39:34.000Z</time>
      </trkpt>
      <trkpt lat="42.93392" lon="1.21665">
        <ele>1087</ele>
        <time>2026-05-25T11:39:35.000Z</time>
      </trkpt>
      <trkpt lat="42.93394" lon="1.21673">
        <ele>1086</ele>
        <time>2026-05-25T11:39:36.000Z</time>
      </trkpt>
      <trkpt lat="42.93397" lon="1.21679">
        <ele>1084</ele>
        <time>2026-05-25T11:39:37.000Z</time>
      </trkpt>
      <trkpt lat="42.934" lon="1.21684">
        <ele>1083</ele>
        <time>2026-05-25T11:39:38.000Z</time>
      </trkpt>
      <trkpt lat="42.93403" lon="1.21687">
        <ele>1083</ele>
        <time>2026-05-25T11:39:39.000Z</time>
      </trkpt>
      <trkpt lat="42.93406" lon="1.21691">
        <ele>1082</ele>
        <time>2026-05-25T11:39:40.000Z</time>
      </trkpt>
      <trkpt lat="42.93409" lon="1.21695">
        <ele>1083</ele>
        <time>2026-05-25T11:39:41.000Z</time>
      </trkpt>
      <trkpt lat="42.93411" lon="1.21699">
        <ele>1083</ele>
        <time>2026-05-25T11:39:42.000Z</time>
      </trkpt>
      <trkpt lat="42.93413" lon="1.21704">
        <ele>1083</ele>
        <time>2026-05-25T11:39:43.000Z</time>
      </trkpt>
      <trkpt lat="42.93415" lon="1.2171">
        <ele>1083</ele>
        <time>2026-05-25T11:39:44.000Z</time>
      </trkpt>
      <trkpt lat="42.93418" lon="1.21715">
        <ele>1082</ele>
        <time>2026-05-25T11:39:45.000Z</time>
      </trkpt>
      <trkpt lat="42.9342" lon="1.21721">
        <ele>1082</ele>
        <time>2026-05-25T11:39:46.000Z</time>
      </trkpt>
      <trkpt lat="42.93423" lon="1.21727">
        <ele>1081</ele>
        <time>2026-05-25T11:39:47.000Z</time>
      </trkpt>
      <trkpt lat="42.93425" lon="1.21731">
        <ele>1080</ele>
        <time>2026-05-25T11:39:48.000Z</time>
      </trkpt>
      <trkpt lat="42.93427" lon="1.21735">
        <ele>1079</ele>
        <time>2026-05-25T11:39:49.000Z</time>
      </trkpt>
      <trkpt lat="42.93429" lon="1.21738">
        <ele>1079</ele>
        <time>2026-05-25T11:39:50.000Z</time>
      </trkpt>
      <trkpt lat="42.93432" lon="1.21742">
        <ele>1077</ele>
        <time>2026-05-25T11:39:51.000Z</time>
      </trkpt>
      <trkpt lat="42.93434" lon="1.21746">
        <ele>1077</ele>
        <time>2026-05-25T11:39:52.000Z</time>
      </trkpt>
      <trkpt lat="42.93436" lon="1.2175">
        <ele>1077</ele>
        <time>2026-05-25T11:39:53.000Z</time>
      </trkpt>
      <trkpt lat="42.93438" lon="1.21755">
        <ele>1076</ele>
        <time>2026-05-25T11:39:54.000Z</time>
      </trkpt>
      <trkpt lat="42.93442" lon="1.21758">
        <ele>1075</ele>
        <time>2026-05-25T11:39:55.000Z</time>
      </trkpt>
      <trkpt lat="42.93445" lon="1.2176">
        <ele>1075</ele>
        <time>2026-05-25T11:39:56.000Z</time>
      </trkpt>
      <trkpt lat="42.93449" lon="1.21765">
        <ele>1073</ele>
        <time>2026-05-25T11:39:57.000Z</time>
      </trkpt>
      <trkpt lat="42.93452" lon="1.2177">
        <ele>1071</ele>
        <time>2026-05-25T11:39:58.000Z</time>
      </trkpt>
      <trkpt lat="42.93455" lon="1.21776">
        <ele>1069</ele>
        <time>2026-05-25T11:39:59.000Z</time>
      </trkpt>
      <trkpt lat="42.93458" lon="1.21782">
        <ele>1068</ele>
        <time>2026-05-25T11:40:00.000Z</time>
      </trkpt>
      <trkpt lat="42.9346" lon="1.2179">
        <ele>1068</ele>
        <time>2026-05-25T11:40:01.000Z</time>
      </trkpt>
      <trkpt lat="42.93463" lon="1.218">
        <ele>1065</ele>
        <time>2026-05-25T11:40:02.000Z</time>
      </trkpt>
      <trkpt lat="42.93466" lon="1.21813">
        <ele>1063</ele>
        <time>2026-05-25T11:40:03.000Z</time>
      </trkpt>
      <trkpt lat="42.93471" lon="1.21824">
        <ele>1061</ele>
        <time>2026-05-25T11:40:04.000Z</time>
      </trkpt>
      <trkpt lat="42.93475" lon="1.21833">
        <ele>1061</ele>
        <time>2026-05-25T11:40:05.000Z</time>
      </trkpt>
      <trkpt lat="42.93476" lon="1.21841">
        <ele>1061</ele>
        <time>2026-05-25T11:40:06.000Z</time>
      </trkpt>
      <trkpt lat="42.93477" lon="1.21845">
        <ele>1061</ele>
        <time>2026-05-25T11:40:07.000Z</time>
      </trkpt>
      <trkpt lat="42.93479" lon="1.2185">
        <ele>1060</ele>
        <time>2026-05-25T11:40:08.000Z</time>
      </trkpt>
      <trkpt lat="42.9348" lon="1.21854">
        <ele>1060</ele>
        <time>2026-05-25T11:40:09.000Z</time>
      </trkpt>
      <trkpt lat="42.93481" lon="1.21858">
        <ele>1061</ele>
        <time>2026-05-25T11:40:10.000Z</time>
      </trkpt>
      <trkpt lat="42.93483" lon="1.21861">
        <ele>1061</ele>
        <time>2026-05-25T11:40:11.000Z</time>
      </trkpt>
      <trkpt lat="42.93484" lon="1.21864">
        <ele>1062</ele>
        <time>2026-05-25T11:40:12.000Z</time>
      </trkpt>
      <trkpt lat="42.93485" lon="1.21867">
        <ele>1062</ele>
        <time>2026-05-25T11:40:13.000Z</time>
      </trkpt>
      <trkpt lat="42.93485" lon="1.2187">
        <ele>1062</ele>
        <time>2026-05-25T11:40:14.000Z</time>
      </trkpt>
      <trkpt lat="42.93486" lon="1.21873">
        <ele>1063</ele>
        <time>2026-05-25T11:40:15.000Z</time>
      </trkpt>
      <trkpt lat="42.93486" lon="1.21877">
        <ele>1063</ele>
        <time>2026-05-25T11:40:16.000Z</time>
      </trkpt>
      <trkpt lat="42.93487" lon="1.21881">
        <ele>1063</ele>
        <time>2026-05-25T11:40:17.000Z</time>
      </trkpt>
      <trkpt lat="42.93487" lon="1.21884">
        <ele>1063</ele>
        <time>2026-05-25T11:40:18.000Z</time>
      </trkpt>
      <trkpt lat="42.93487" lon="1.21888">
        <ele>1063</ele>
        <time>2026-05-25T11:40:19.000Z</time>
      </trkpt>
      <trkpt lat="42.93487" lon="1.21891">
        <ele>1063</ele>
        <time>2026-05-25T11:40:20.000Z</time>
      </trkpt>
      <trkpt lat="42.93486" lon="1.21894">
        <ele>1062</ele>
        <time>2026-05-25T11:40:21.000Z</time>
      </trkpt>
      <trkpt lat="42.93485" lon="1.21898">
        <ele>1062</ele>
        <time>2026-05-25T11:40:22.000Z</time>
      </trkpt>
      <trkpt lat="42.93485" lon="1.21901">
        <ele>1062</ele>
        <time>2026-05-25T11:40:23.000Z</time>
      </trkpt>
      <trkpt lat="42.93485" lon="1.21904">
        <ele>1062</ele>
        <time>2026-05-25T11:40:24.000Z</time>
      </trkpt>
      <trkpt lat="42.93484" lon="1.21908">
        <ele>1062</ele>
        <time>2026-05-25T11:40:25.000Z</time>
      </trkpt>
      <trkpt lat="42.93484" lon="1.21912">
        <ele>1061</ele>
        <time>2026-05-25T11:40:26.000Z</time>
      </trkpt>
      <trkpt lat="42.93484" lon="1.21916">
        <ele>1060</ele>
        <time>2026-05-25T11:40:27.000Z</time>
      </trkpt>
      <trkpt lat="42.93484" lon="1.2192">
        <ele>1060</ele>
        <time>2026-05-25T11:40:28.000Z</time>
      </trkpt>
      <trkpt lat="42.93485" lon="1.21924">
        <ele>1060</ele>
        <time>2026-05-25T11:40:29.000Z</time>
      </trkpt>
      <trkpt lat="42.93487" lon="1.21927">
        <ele>1060</ele>
        <time>2026-05-25T11:40:30.000Z</time>
      </trkpt>
      <trkpt lat="42.93488" lon="1.21932">
        <ele>1059</ele>
        <time>2026-05-25T11:40:31.000Z</time>
      </trkpt>
      <trkpt lat="42.93489" lon="1.21937">
        <ele>1059</ele>
        <time>2026-05-25T11:40:32.000Z</time>
      </trkpt>
      <trkpt lat="42.93491" lon="1.21945">
        <ele>1059</ele>
        <time>2026-05-25T11:40:33.000Z</time>
      </trkpt>
      <trkpt lat="42.93491" lon="1.21952">
        <ele>1059</ele>
        <time>2026-05-25T11:40:34.000Z</time>
      </trkpt>
      <trkpt lat="42.93491" lon="1.21958">
        <ele>1058</ele>
        <time>2026-05-25T11:40:35.000Z</time>
      </trkpt>
      <trkpt lat="42.93491" lon="1.21963">
        <ele>1058</ele>
        <time>2026-05-25T11:40:36.000Z</time>
      </trkpt>
      <trkpt lat="42.93492" lon="1.21966">
        <ele>1058</ele>
        <time>2026-05-25T11:40:37.000Z</time>
      </trkpt>
      <trkpt lat="42.93492" lon="1.21969">
        <ele>1057</ele>
        <time>2026-05-25T11:40:38.000Z</time>
      </trkpt>
      <trkpt lat="42.93494" lon="1.21972">
        <ele>1057</ele>
        <time>2026-05-25T11:40:39.000Z</time>
      </trkpt>
      <trkpt lat="42.93495" lon="1.21974">
        <ele>1057</ele>
        <time>2026-05-25T11:40:40.000Z</time>
      </trkpt>
      <trkpt lat="42.93495" lon="1.21977">
        <ele>1057</ele>
        <time>2026-05-25T11:40:41.000Z</time>
      </trkpt>
      <trkpt lat="42.93494" lon="1.21982">
        <ele>1057</ele>
        <time>2026-05-25T11:40:42.000Z</time>
      </trkpt>
      <trkpt lat="42.93494" lon="1.21986">
        <ele>1057</ele>
        <time>2026-05-25T11:40:43.000Z</time>
      </trkpt>
      <trkpt lat="42.93494" lon="1.2199">
        <ele>1057</ele>
        <time>2026-05-25T11:40:44.000Z</time>
      </trkpt>
      <trkpt lat="42.93493" lon="1.21995">
        <ele>1057</ele>
        <time>2026-05-25T11:40:45.000Z</time>
      </trkpt>
      <trkpt lat="42.93493" lon="1.22001">
        <ele>1057</ele>
        <time>2026-05-25T11:40:46.000Z</time>
      </trkpt>
      <trkpt lat="42.93492" lon="1.22007">
        <ele>1056</ele>
        <time>2026-05-25T11:40:47.000Z</time>
      </trkpt>
      <trkpt lat="42.93494" lon="1.22013">
        <ele>1055</ele>
        <time>2026-05-25T11:40:48.000Z</time>
      </trkpt>
      <trkpt lat="42.93497" lon="1.22019">
        <ele>1054</ele>
        <time>2026-05-25T11:40:49.000Z</time>
      </trkpt>
      <trkpt lat="42.935" lon="1.22025">
        <ele>1053</ele>
        <time>2026-05-25T11:40:50.000Z</time>
      </trkpt>
      <trkpt lat="42.93504" lon="1.22028">
        <ele>1053</ele>
        <time>2026-05-25T11:40:51.000Z</time>
      </trkpt>
      <trkpt lat="42.93506" lon="1.22033">
        <ele>1052</ele>
        <time>2026-05-25T11:40:52.000Z</time>
      </trkpt>
      <trkpt lat="42.93509" lon="1.22041">
        <ele>1051</ele>
        <time>2026-05-25T11:40:53.000Z</time>
      </trkpt>
      <trkpt lat="42.93514" lon="1.22048">
        <ele>1050</ele>
        <time>2026-05-25T11:40:54.000Z</time>
      </trkpt>
      <trkpt lat="42.93519" lon="1.22053">
        <ele>1049</ele>
        <time>2026-05-25T11:40:55.000Z</time>
      </trkpt>
      <trkpt lat="42.93523" lon="1.22056">
        <ele>1048</ele>
        <time>2026-05-25T11:40:56.000Z</time>
      </trkpt>
      <trkpt lat="42.93524" lon="1.22064">
        <ele>1048</ele>
        <time>2026-05-25T11:40:57.000Z</time>
      </trkpt>
      <trkpt lat="42.93528" lon="1.2207">
        <ele>1048</ele>
        <time>2026-05-25T11:40:58.000Z</time>
      </trkpt>
      <trkpt lat="42.93531" lon="1.22073">
        <ele>1047</ele>
        <time>2026-05-25T11:40:59.000Z</time>
      </trkpt>
      <trkpt lat="42.93533" lon="1.22077">
        <ele>1046</ele>
        <time>2026-05-25T11:41:00.000Z</time>
      </trkpt>
      <trkpt lat="42.93537" lon="1.22081">
        <ele>1046</ele>
        <time>2026-05-25T11:41:01.000Z</time>
      </trkpt>
      <trkpt lat="42.93539" lon="1.22083">
        <ele>1045</ele>
        <time>2026-05-25T11:41:02.000Z</time>
      </trkpt>
      <trkpt lat="42.93542" lon="1.22085">
        <ele>1046</ele>
        <time>2026-05-25T11:41:03.000Z</time>
      </trkpt>
      <trkpt lat="42.93545" lon="1.2209">
        <ele>1045</ele>
        <time>2026-05-25T11:41:04.000Z</time>
      </trkpt>
      <trkpt lat="42.93548" lon="1.22093">
        <ele>1045</ele>
        <time>2026-05-25T11:41:05.000Z</time>
      </trkpt>
      <trkpt lat="42.93551" lon="1.22096">
        <ele>1045</ele>
        <time>2026-05-25T11:41:06.000Z</time>
      </trkpt>
      <trkpt lat="42.93555" lon="1.22098">
        <ele>1044</ele>
        <time>2026-05-25T11:41:07.000Z</time>
      </trkpt>
      <trkpt lat="42.93558" lon="1.22102">
        <ele>1044</ele>
        <time>2026-05-25T11:41:08.000Z</time>
      </trkpt>
      <trkpt lat="42.9356" lon="1.22106">
        <ele>1042</ele>
        <time>2026-05-25T11:41:09.000Z</time>
      </trkpt>
      <trkpt lat="42.93563" lon="1.22109">
        <ele>1042</ele>
        <time>2026-05-25T11:41:10.000Z</time>
      </trkpt>
      <trkpt lat="42.93567" lon="1.22113">
        <ele>1044</ele>
        <time>2026-05-25T11:41:11.000Z</time>
      </trkpt>
      <trkpt lat="42.9357" lon="1.22116">
        <ele>1044</ele>
        <time>2026-05-25T11:41:12.000Z</time>
      </trkpt>
      <trkpt lat="42.93574" lon="1.2212">
        <ele>1043</ele>
        <time>2026-05-25T11:41:13.000Z</time>
      </trkpt>
      <trkpt lat="42.93577" lon="1.22125">
        <ele>1042</ele>
        <time>2026-05-25T11:41:14.000Z</time>
      </trkpt>
      <trkpt lat="42.9358" lon="1.22129">
        <ele>1041</ele>
        <time>2026-05-25T11:41:15.000Z</time>
      </trkpt>
      <trkpt lat="42.93582" lon="1.22133">
        <ele>1040</ele>
        <time>2026-05-25T11:41:16.000Z</time>
      </trkpt>
      <trkpt lat="42.93584" lon="1.22138">
        <ele>1040</ele>
        <time>2026-05-25T11:41:17.000Z</time>
      </trkpt>
      <trkpt lat="42.93584" lon="1.22142">
        <ele>1040</ele>
        <time>2026-05-25T11:41:18.000Z</time>
      </trkpt>
      <trkpt lat="42.93584" lon="1.22146">
        <ele>1039</ele>
        <time>2026-05-25T11:41:19.000Z</time>
      </trkpt>
      <trkpt lat="42.93585" lon="1.22147">
        <ele>1038</ele>
        <time>2026-05-25T11:41:20.000Z</time>
      </trkpt>
      <trkpt lat="42.93585" lon="1.2215">
        <ele>1037</ele>
        <time>2026-05-25T11:41:21.000Z</time>
      </trkpt>
      <trkpt lat="42.93584" lon="1.22149">
        <ele>1036</ele>
        <time>2026-05-25T11:41:22.000Z</time>
      </trkpt>
      <trkpt lat="42.93583" lon="1.22149">
        <ele>1035</ele>
        <time>2026-05-25T11:41:23.000Z</time>
      </trkpt>
      <trkpt lat="42.93582" lon="1.22148">
        <ele>1034</ele>
        <time>2026-05-25T11:41:24.000Z</time>
      </trkpt>
      <trkpt lat="42.93581" lon="1.22148">
        <ele>1033</ele>
        <time>2026-05-25T11:41:25.000Z</time>
      </trkpt>
      <trkpt lat="42.93578" lon="1.22147">
        <ele>1033</ele>
        <time>2026-05-25T11:41:26.000Z</time>
      </trkpt>
      <trkpt lat="42.93577" lon="1.22145">
        <ele>1031</ele>
        <time>2026-05-25T11:41:27.000Z</time>
      </trkpt>
      <trkpt lat="42.93575" lon="1.22144">
        <ele>1031</ele>
        <time>2026-05-25T11:41:28.000Z</time>
      </trkpt>
      <trkpt lat="42.93573" lon="1.22143">
        <ele>1031</ele>
        <time>2026-05-25T11:41:29.000Z</time>
      </trkpt>
      <trkpt lat="42.93571" lon="1.22141">
        <ele>1031</ele>
        <time>2026-05-25T11:41:30.000Z</time>
      </trkpt>
      <trkpt lat="42.9357" lon="1.22138">
        <ele>1032</ele>
        <time>2026-05-25T11:41:31.000Z</time>
      </trkpt>
      <trkpt lat="42.93568" lon="1.22136">
        <ele>1032</ele>
        <time>2026-05-25T11:41:32.000Z</time>
      </trkpt>
      <trkpt lat="42.93566" lon="1.22134">
        <ele>1033</ele>
        <time>2026-05-25T11:41:33.000Z</time>
      </trkpt>
      <trkpt lat="42.93564" lon="1.22131">
        <ele>1033</ele>
        <time>2026-05-25T11:41:34.000Z</time>
      </trkpt>
      <trkpt lat="42.93563" lon="1.22128">
        <ele>1032</ele>
        <time>2026-05-25T11:41:35.000Z</time>
      </trkpt>
      <trkpt lat="42.93563" lon="1.22126">
        <ele>1032</ele>
        <time>2026-05-25T11:41:36.000Z</time>
      </trkpt>
      <trkpt lat="42.93561" lon="1.22124">
        <ele>1031</ele>
        <time>2026-05-25T11:41:37.000Z</time>
      </trkpt>
      <trkpt lat="42.9356" lon="1.22121">
        <ele>1031</ele>
        <time>2026-05-25T11:41:38.000Z</time>
      </trkpt>
      <trkpt lat="42.93559" lon="1.22119">
        <ele>1031</ele>
        <time>2026-05-25T11:41:39.000Z</time>
      </trkpt>
      <trkpt lat="42.93558" lon="1.22117">
        <ele>1031</ele>
        <time>2026-05-25T11:41:40.000Z</time>
      </trkpt>
      <trkpt lat="42.93556" lon="1.22115">
        <ele>1031</ele>
        <time>2026-05-25T11:41:41.000Z</time>
      </trkpt>
      <trkpt lat="42.93554" lon="1.22114">
        <ele>1031</ele>
        <time>2026-05-25T11:41:42.000Z</time>
      </trkpt>
      <trkpt lat="42.93553" lon="1.22112">
        <ele>1031</ele>
        <time>2026-05-25T11:41:43.000Z</time>
      </trkpt>
      <trkpt lat="42.93552" lon="1.2211">
        <ele>1031</ele>
        <time>2026-05-25T11:41:44.000Z</time>
      </trkpt>
      <trkpt lat="42.9355" lon="1.22108">
        <ele>1032</ele>
        <time>2026-05-25T11:41:45.000Z</time>
      </trkpt>
      <trkpt lat="42.93548" lon="1.22106">
        <ele>1032</ele>
        <time>2026-05-25T11:41:46.000Z</time>
      </trkpt>
      <trkpt lat="42.93546" lon="1.22104">
        <ele>1032</ele>
        <time>2026-05-25T11:41:47.000Z</time>
      </trkpt>
      <trkpt lat="42.93544" lon="1.22103">
        <ele>1032</ele>
        <time>2026-05-25T11:41:48.000Z</time>
      </trkpt>
      <trkpt lat="42.93542" lon="1.22102">
        <ele>1032</ele>
        <time>2026-05-25T11:41:49.000Z</time>
      </trkpt>
      <trkpt lat="42.93541" lon="1.22101">
        <ele>1032</ele>
        <time>2026-05-25T11:41:50.000Z</time>
      </trkpt>
      <trkpt lat="42.9354" lon="1.221">
        <ele>1032</ele>
        <time>2026-05-25T11:41:51.000Z</time>
      </trkpt>
      <trkpt lat="42.93539" lon="1.22099">
        <ele>1033</ele>
        <time>2026-05-25T11:41:52.000Z</time>
      </trkpt>
      <trkpt lat="42.93537" lon="1.22098">
        <ele>1034</ele>
        <time>2026-05-25T11:41:53.000Z</time>
      </trkpt>
      <trkpt lat="42.93537" lon="1.22097">
        <ele>1035</ele>
        <time>2026-05-25T11:41:54.000Z</time>
      </trkpt>
      <trkpt lat="42.93535" lon="1.22095">
        <ele>1036</ele>
        <time>2026-05-25T11:41:55.000Z</time>
      </trkpt>
      <trkpt lat="42.93534" lon="1.22094">
        <ele>1036</ele>
        <time>2026-05-25T11:41:56.000Z</time>
      </trkpt>
      <trkpt lat="42.93534" lon="1.22092">
        <ele>1036</ele>
        <time>2026-05-25T11:41:57.000Z</time>
      </trkpt>
      <trkpt lat="42.93533" lon="1.2209">
        <ele>1037</ele>
        <time>2026-05-25T11:41:58.000Z</time>
      </trkpt>
      <trkpt lat="42.93532" lon="1.22088">
        <ele>1038</ele>
        <time>2026-05-25T11:41:59.000Z</time>
      </trkpt>
      <trkpt lat="42.93531" lon="1.22085">
        <ele>1038</ele>
        <time>2026-05-25T11:42:00.000Z</time>
      </trkpt>
      <trkpt lat="42.9353" lon="1.22083">
        <ele>1039</ele>
        <time>2026-05-25T11:42:01.000Z</time>
      </trkpt>
      <trkpt lat="42.93529" lon="1.22082">
        <ele>1040</ele>
        <time>2026-05-25T11:42:02.000Z</time>
      </trkpt>
      <trkpt lat="42.93528" lon="1.2208">
        <ele>1041</ele>
        <time>2026-05-25T11:42:03.000Z</time>
      </trkpt>
      <trkpt lat="42.93528" lon="1.22079">
        <ele>1041</ele>
        <time>2026-05-25T11:42:04.000Z</time>
      </trkpt>
      <trkpt lat="42.93527" lon="1.22077">
        <ele>1041</ele>
        <time>2026-05-25T11:42:05.000Z</time>
      </trkpt>
      <trkpt lat="42.93525" lon="1.22077">
        <ele>1041</ele>
        <time>2026-05-25T11:42:06.000Z</time>
      </trkpt>
      <trkpt lat="42.93524" lon="1.22074">
        <ele>1042</ele>
        <time>2026-05-25T11:42:07.000Z</time>
      </trkpt>
      <trkpt lat="42.93523" lon="1.22073">
        <ele>1042</ele>
        <time>2026-05-25T11:42:08.000Z</time>
      </trkpt>
      <trkpt lat="42.93522" lon="1.22071">
        <ele>1042</ele>
        <time>2026-05-25T11:42:09.000Z</time>
      </trkpt>
      <trkpt lat="42.93521" lon="1.2207">
        <ele>1042</ele>
        <time>2026-05-25T11:42:10.000Z</time>
      </trkpt>
      <trkpt lat="42.9352" lon="1.22068">
        <ele>1042</ele>
        <time>2026-05-25T11:42:11.000Z</time>
      </trkpt>
      <trkpt lat="42.93519" lon="1.22066">
        <ele>1042</ele>
        <time>2026-05-25T11:42:12.000Z</time>
      </trkpt>
      <trkpt lat="42.93518" lon="1.22064">
        <ele>1042</ele>
        <time>2026-05-25T11:42:13.000Z</time>
      </trkpt>
      <trkpt lat="42.93517" lon="1.22062">
        <ele>1042</ele>
        <time>2026-05-25T11:42:14.000Z</time>
      </trkpt>
      <trkpt lat="42.93516" lon="1.2206">
        <ele>1042</ele>
        <time>2026-05-25T11:42:15.000Z</time>
      </trkpt>
      <trkpt lat="42.93515" lon="1.22059">
        <ele>1042</ele>
        <time>2026-05-25T11:42:16.000Z</time>
      </trkpt>
      <trkpt lat="42.93514" lon="1.22057">
        <ele>1043</ele>
        <time>2026-05-25T11:42:17.000Z</time>
      </trkpt>
      <trkpt lat="42.93513" lon="1.22056">
        <ele>1043</ele>
        <time>2026-05-25T11:42:18.000Z</time>
      </trkpt>
      <trkpt lat="42.93512" lon="1.22055">
        <ele>1043</ele>
        <time>2026-05-25T11:42:19.000Z</time>
      </trkpt>
      <trkpt lat="42.93512" lon="1.22053">
        <ele>1044</ele>
        <time>2026-05-25T11:42:20.000Z</time>
      </trkpt>
      <trkpt lat="42.93511" lon="1.22051">
        <ele>1045</ele>
        <time>2026-05-25T11:42:21.000Z</time>
      </trkpt>
      <trkpt lat="42.9351" lon="1.22049">
        <ele>1046</ele>
        <time>2026-05-25T11:42:22.000Z</time>
      </trkpt>
      <trkpt lat="42.93509" lon="1.22048">
        <ele>1046</ele>
        <time>2026-05-25T11:42:23.000Z</time>
      </trkpt>
      <trkpt lat="42.93508" lon="1.22046">
        <ele>1047</ele>
        <time>2026-05-25T11:42:24.000Z</time>
      </trkpt>
      <trkpt lat="42.93507" lon="1.22044">
        <ele>1048</ele>
        <time>2026-05-25T11:42:25.000Z</time>
      </trkpt>
      <trkpt lat="42.93505" lon="1.22042">
        <ele>1049</ele>
        <time>2026-05-25T11:42:26.000Z</time>
      </trkpt>
      <trkpt lat="42.93504" lon="1.2204">
        <ele>1050</ele>
        <time>2026-05-25T11:42:27.000Z</time>
      </trkpt>
      <trkpt lat="42.93503" lon="1.22037">
        <ele>1051</ele>
        <time>2026-05-25T11:42:28.000Z</time>
      </trkpt>
      <trkpt lat="42.93502" lon="1.22035">
        <ele>1052</ele>
        <time>2026-05-25T11:42:29.000Z</time>
      </trkpt>
      <trkpt lat="42.93502" lon="1.22032">
        <ele>1053</ele>
        <time>2026-05-25T11:42:30.000Z</time>
      </trkpt>
      <trkpt lat="42.93501" lon="1.22029">
        <ele>1054</ele>
        <time>2026-05-25T11:42:31.000Z</time>
      </trkpt>
      <trkpt lat="42.935" lon="1.22027">
        <ele>1055</ele>
        <time>2026-05-25T11:42:32.000Z</time>
      </trkpt>
      <trkpt lat="42.93499" lon="1.22024">
        <ele>1057</ele>
        <time>2026-05-25T11:42:33.000Z</time>
      </trkpt>
      <trkpt lat="42.93498" lon="1.22022">
        <ele>1058</ele>
        <time>2026-05-25T11:42:34.000Z</time>
      </trkpt>
      <trkpt lat="42.93497" lon="1.22019">
        <ele>1059</ele>
        <time>2026-05-25T11:42:35.000Z</time>
      </trkpt>
      <trkpt lat="42.93496" lon="1.22017">
        <ele>1060</ele>
        <time>2026-05-25T11:42:36.000Z</time>
      </trkpt>
      <trkpt lat="42.93495" lon="1.22016">
        <ele>1061</ele>
        <time>2026-05-25T11:42:37.000Z</time>
      </trkpt>
      <trkpt lat="42.93495" lon="1.22014">
        <ele>1062</ele>
        <time>2026-05-25T11:42:38.000Z</time>
      </trkpt>
      <trkpt lat="42.93494" lon="1.22013">
        <ele>1063</ele>
        <time>2026-05-25T11:42:39.000Z</time>
      </trkpt>
      <trkpt lat="42.93494" lon="1.22012">
        <ele>1063</ele>
        <time>2026-05-25T11:42:40.000Z</time>
      </trkpt>
      <trkpt lat="42.93493" lon="1.2201">
        <ele>1063</ele>
        <time>2026-05-25T11:42:41.000Z</time>
      </trkpt>
      <trkpt lat="42.93492" lon="1.22009">
        <ele>1063</ele>
        <time>2026-05-25T11:42:42.000Z</time>
      </trkpt>
      <trkpt lat="42.93492" lon="1.22007">
        <ele>1063</ele>
        <time>2026-05-25T11:42:43.000Z</time>
      </trkpt>
      <trkpt lat="42.93492" lon="1.22005">
        <ele>1063</ele>
        <time>2026-05-25T11:42:44.000Z</time>
      </trkpt>
      <trkpt lat="42.93492" lon="1.22002">
        <ele>1062</ele>
        <time>2026-05-25T11:42:45.000Z</time>
      </trkpt>
      <trkpt lat="42.93491" lon="1.21999">
        <ele>1062</ele>
        <time>2026-05-25T11:42:46.000Z</time>
      </trkpt>
      <trkpt lat="42.93491" lon="1.21997">
        <ele>1062</ele>
        <time>2026-05-25T11:42:47.000Z</time>
      </trkpt>
      <trkpt lat="42.93491" lon="1.21994">
        <ele>1061</ele>
        <time>2026-05-25T11:42:48.000Z</time>
      </trkpt>
      <trkpt lat="42.9349" lon="1.21992">
        <ele>1061</ele>
        <time>2026-05-25T11:42:49.000Z</time>
      </trkpt>
      <trkpt lat="42.9349" lon="1.21989">
        <ele>1061</ele>
        <time>2026-05-25T11:42:50.000Z</time>
      </trkpt>
      <trkpt lat="42.9349" lon="1.21986">
        <ele>1061</ele>
        <time>2026-05-25T11:42:51.000Z</time>
      </trkpt>
      <trkpt lat="42.93489" lon="1.21983">
        <ele>1061</ele>
        <time>2026-05-25T11:42:52.000Z</time>
      </trkpt>
      <trkpt lat="42.93488" lon="1.21979">
        <ele>1060</ele>
        <time>2026-05-25T11:42:53.000Z</time>
      </trkpt>
      <trkpt lat="42.93488" lon="1.21977">
        <ele>1061</ele>
        <time>2026-05-25T11:42:54.000Z</time>
      </trkpt>
      <trkpt lat="42.93488" lon="1.21974">
        <ele>1061</ele>
        <time>2026-05-25T11:42:55.000Z</time>
      </trkpt>
      <trkpt lat="42.93487" lon="1.21971">
        <ele>1060</ele>
        <time>2026-05-25T11:42:56.000Z</time>
      </trkpt>
      <trkpt lat="42.93487" lon="1.21967">
        <ele>1060</ele>
        <time>2026-05-25T11:42:57.000Z</time>
      </trkpt>
      <trkpt lat="42.93486" lon="1.21964">
        <ele>1060</ele>
        <time>2026-05-25T11:42:58.000Z</time>
      </trkpt>
      <trkpt lat="42.93486" lon="1.21962">
        <ele>1060</ele>
        <time>2026-05-25T11:42:59.000Z</time>
      </trkpt>
      <trkpt lat="42.93486" lon="1.21959">
        <ele>1062</ele>
        <time>2026-05-25T11:43:00.000Z</time>
      </trkpt>
      <trkpt lat="42.93486" lon="1.21956">
        <ele>1063</ele>
        <time>2026-05-25T11:43:01.000Z</time>
      </trkpt>
      <trkpt lat="42.93485" lon="1.21952">
        <ele>1064</ele>
        <time>2026-05-25T11:43:02.000Z</time>
      </trkpt>
      <trkpt lat="42.93485" lon="1.21947">
        <ele>1063</ele>
        <time>2026-05-25T11:43:03.000Z</time>
      </trkpt>
      <trkpt lat="42.93485" lon="1.21942">
        <ele>1063</ele>
        <time>2026-05-25T11:43:04.000Z</time>
      </trkpt>
      <trkpt lat="42.93484" lon="1.21937">
        <ele>1063</ele>
        <time>2026-05-25T11:43:05.000Z</time>
      </trkpt>
      <trkpt lat="42.93483" lon="1.21933">
        <ele>1064</ele>
        <time>2026-05-25T11:43:06.000Z</time>
      </trkpt>
      <trkpt lat="42.93482" lon="1.21929">
        <ele>1063</ele>
        <time>2026-05-25T11:43:07.000Z</time>
      </trkpt>
      <trkpt lat="42.93482" lon="1.21924">
        <ele>1064</ele>
        <time>2026-05-25T11:43:08.000Z</time>
      </trkpt>
      <trkpt lat="42.93482" lon="1.21919">
        <ele>1064</ele>
        <time>2026-05-25T11:43:09.000Z</time>
      </trkpt>
      <trkpt lat="42.93482" lon="1.21916">
        <ele>1064</ele>
        <time>2026-05-25T11:43:10.000Z</time>
      </trkpt>
      <trkpt lat="42.93483" lon="1.21912">
        <ele>1063</ele>
        <time>2026-05-25T11:43:11.000Z</time>
      </trkpt>
      <trkpt lat="42.93482" lon="1.21908">
        <ele>1063</ele>
        <time>2026-05-25T11:43:12.000Z</time>
      </trkpt>
      <trkpt lat="42.93483" lon="1.21903">
        <ele>1063</ele>
        <time>2026-05-25T11:43:13.000Z</time>
      </trkpt>
      <trkpt lat="42.93484" lon="1.21897">
        <ele>1062</ele>
        <time>2026-05-25T11:43:14.000Z</time>
      </trkpt>
      <trkpt lat="42.93484" lon="1.2189">
        <ele>1062</ele>
        <time>2026-05-25T11:43:15.000Z</time>
      </trkpt>
      <trkpt lat="42.93484" lon="1.21884">
        <ele>1062</ele>
        <time>2026-05-25T11:43:16.000Z</time>
      </trkpt>
      <trkpt lat="42.93483" lon="1.21878">
        <ele>1061</ele>
        <time>2026-05-25T11:43:17.000Z</time>
      </trkpt>
      <trkpt lat="42.93483" lon="1.21872">
        <ele>1061</ele>
        <time>2026-05-25T11:43:18.000Z</time>
      </trkpt>
      <trkpt lat="42.93483" lon="1.21864">
        <ele>1061</ele>
        <time>2026-05-25T11:43:19.000Z</time>
      </trkpt>
      <trkpt lat="42.9348" lon="1.21854">
        <ele>1060</ele>
        <time>2026-05-25T11:43:20.000Z</time>
      </trkpt>
      <trkpt lat="42.93477" lon="1.21845">
        <ele>1060</ele>
        <time>2026-05-25T11:43:21.000Z</time>
      </trkpt>
      <trkpt lat="42.93474" lon="1.21838">
        <ele>1061</ele>
        <time>2026-05-25T11:43:22.000Z</time>
      </trkpt>
      <trkpt lat="42.93472" lon="1.21831">
        <ele>1061</ele>
        <time>2026-05-25T11:43:23.000Z</time>
      </trkpt>
      <trkpt lat="42.9347" lon="1.21826">
        <ele>1060</ele>
        <time>2026-05-25T11:43:24.000Z</time>
      </trkpt>
      <trkpt lat="42.93469" lon="1.21823">
        <ele>1060</ele>
        <time>2026-05-25T11:43:25.000Z</time>
      </trkpt>
      <trkpt lat="42.93467" lon="1.21819">
        <ele>1060</ele>
        <time>2026-05-25T11:43:26.000Z</time>
      </trkpt>
      <trkpt lat="42.93465" lon="1.21815">
        <ele>1060</ele>
        <time>2026-05-25T11:43:27.000Z</time>
      </trkpt>
      <trkpt lat="42.93463" lon="1.21812">
        <ele>1060</ele>
        <time>2026-05-25T11:43:28.000Z</time>
      </trkpt>
      <trkpt lat="42.93463" lon="1.21809">
        <ele>1059</ele>
        <time>2026-05-25T11:43:29.000Z</time>
      </trkpt>
      <trkpt lat="42.93461" lon="1.21807">
        <ele>1060</ele>
        <time>2026-05-25T11:43:30.000Z</time>
      </trkpt>
      <trkpt lat="42.93459" lon="1.21804">
        <ele>1061</ele>
        <time>2026-05-25T11:43:31.000Z</time>
      </trkpt>
      <trkpt lat="42.93456" lon="1.21802">
        <ele>1061</ele>
        <time>2026-05-25T11:43:32.000Z</time>
      </trkpt>
      <trkpt lat="42.93455" lon="1.21799">
        <ele>1061</ele>
        <time>2026-05-25T11:43:33.000Z</time>
      </trkpt>
      <trkpt lat="42.93453" lon="1.21797">
        <ele>1062</ele>
        <time>2026-05-25T11:43:34.000Z</time>
      </trkpt>
      <trkpt lat="42.93452" lon="1.21794">
        <ele>1063</ele>
        <time>2026-05-25T11:43:35.000Z</time>
      </trkpt>
      <trkpt lat="42.93451" lon="1.21791">
        <ele>1063</ele>
        <time>2026-05-25T11:43:36.000Z</time>
      </trkpt>
      <trkpt lat="42.93449" lon="1.21789">
        <ele>1063</ele>
        <time>2026-05-25T11:43:37.000Z</time>
      </trkpt>
      <trkpt lat="42.93448" lon="1.21786">
        <ele>1063</ele>
        <time>2026-05-25T11:43:38.000Z</time>
      </trkpt>
      <trkpt lat="42.93447" lon="1.21784">
        <ele>1064</ele>
        <time>2026-05-25T11:43:39.000Z</time>
      </trkpt>
      <trkpt lat="42.93446" lon="1.21782">
        <ele>1064</ele>
        <time>2026-05-25T11:43:40.000Z</time>
      </trkpt>
      <trkpt lat="42.93444" lon="1.21779">
        <ele>1064</ele>
        <time>2026-05-25T11:43:41.000Z</time>
      </trkpt>
      <trkpt lat="42.93443" lon="1.21778">
        <ele>1066</ele>
        <time>2026-05-25T11:43:42.000Z</time>
      </trkpt>
      <trkpt lat="42.93442" lon="1.21776">
        <ele>1067</ele>
        <time>2026-05-25T11:43:43.000Z</time>
      </trkpt>
      <trkpt lat="42.93441" lon="1.21775">
        <ele>1068</ele>
        <time>2026-05-25T11:43:44.000Z</time>
      </trkpt>
      <trkpt lat="42.9344" lon="1.21773">
        <ele>1069</ele>
        <time>2026-05-25T11:43:45.000Z</time>
      </trkpt>
      <trkpt lat="42.9344" lon="1.21771">
        <ele>1070</ele>
        <time>2026-05-25T11:43:46.000Z</time>
      </trkpt>
      <trkpt lat="42.93439" lon="1.21769">
        <ele>1071</ele>
        <time>2026-05-25T11:43:47.000Z</time>
      </trkpt>
      <trkpt lat="42.93438" lon="1.21768">
        <ele>1071</ele>
        <time>2026-05-25T11:43:48.000Z</time>
      </trkpt>
      <trkpt lat="42.93437" lon="1.21766">
        <ele>1072</ele>
        <time>2026-05-25T11:43:49.000Z</time>
      </trkpt>
      <trkpt lat="42.93436" lon="1.21763">
        <ele>1072</ele>
        <time>2026-05-25T11:43:50.000Z</time>
      </trkpt>
      <trkpt lat="42.93435" lon="1.21762">
        <ele>1072</ele>
        <time>2026-05-25T11:43:51.000Z</time>
      </trkpt>
      <trkpt lat="42.93433" lon="1.21759">
        <ele>1072</ele>
        <time>2026-05-25T11:43:52.000Z</time>
      </trkpt>
      <trkpt lat="42.93432" lon="1.21757">
        <ele>1072</ele>
        <time>2026-05-25T11:43:53.000Z</time>
      </trkpt>
      <trkpt lat="42.93431" lon="1.21755">
        <ele>1073</ele>
        <time>2026-05-25T11:43:54.000Z</time>
      </trkpt>
      <trkpt lat="42.93429" lon="1.21753">
        <ele>1074</ele>
        <time>2026-05-25T11:43:55.000Z</time>
      </trkpt>
      <trkpt lat="42.93428" lon="1.2175">
        <ele>1075</ele>
        <time>2026-05-25T11:43:56.000Z</time>
      </trkpt>
      <trkpt lat="42.93426" lon="1.21747">
        <ele>1075</ele>
        <time>2026-05-25T11:43:57.000Z</time>
      </trkpt>
      <trkpt lat="42.93425" lon="1.21745">
        <ele>1076</ele>
        <time>2026-05-25T11:43:58.000Z</time>
      </trkpt>
      <trkpt lat="42.93425" lon="1.21744">
        <ele>1076</ele>
        <time>2026-05-25T11:43:59.000Z</time>
      </trkpt>
      <trkpt lat="42.93424" lon="1.21741">
        <ele>1077</ele>
        <time>2026-05-25T11:44:00.000Z</time>
      </trkpt>
      <trkpt lat="42.93424" lon="1.21739">
        <ele>1077</ele>
        <time>2026-05-25T11:44:01.000Z</time>
      </trkpt>
      <trkpt lat="42.93423" lon="1.21736">
        <ele>1077</ele>
        <time>2026-05-25T11:44:02.000Z</time>
      </trkpt>
      <trkpt lat="42.93422" lon="1.21735">
        <ele>1077</ele>
        <time>2026-05-25T11:44:03.000Z</time>
      </trkpt>
      <trkpt lat="42.93421" lon="1.21733">
        <ele>1077</ele>
        <time>2026-05-25T11:44:04.000Z</time>
      </trkpt>
      <trkpt lat="42.9342" lon="1.21731">
        <ele>1076</ele>
        <time>2026-05-25T11:44:05.000Z</time>
      </trkpt>
      <trkpt lat="42.93419" lon="1.2173">
        <ele>1076</ele>
        <time>2026-05-25T11:44:06.000Z</time>
      </trkpt>
      <trkpt lat="42.93418" lon="1.21729">
        <ele>1076</ele>
        <time>2026-05-25T11:44:07.000Z</time>
      </trkpt>
      <trkpt lat="42.93417" lon="1.21726">
        <ele>1076</ele>
        <time>2026-05-25T11:44:08.000Z</time>
      </trkpt>
      <trkpt lat="42.93417" lon="1.21725">
        <ele>1077</ele>
        <time>2026-05-25T11:44:09.000Z</time>
      </trkpt>
      <trkpt lat="42.93416" lon="1.21724">
        <ele>1077</ele>
        <time>2026-05-25T11:44:10.000Z</time>
      </trkpt>
      <trkpt lat="42.93415" lon="1.21722">
        <ele>1077</ele>
        <time>2026-05-25T11:44:11.000Z</time>
      </trkpt>
      <trkpt lat="42.93414" lon="1.2172">
        <ele>1078</ele>
        <time>2026-05-25T11:44:12.000Z</time>
      </trkpt>
      <trkpt lat="42.93413" lon="1.21718">
        <ele>1078</ele>
        <time>2026-05-25T11:44:13.000Z</time>
      </trkpt>
      <trkpt lat="42.93412" lon="1.21716">
        <ele>1079</ele>
        <time>2026-05-25T11:44:14.000Z</time>
      </trkpt>
      <trkpt lat="42.93412" lon="1.21714">
        <ele>1080</ele>
        <time>2026-05-25T11:44:15.000Z</time>
      </trkpt>
      <trkpt lat="42.9341" lon="1.21712">
        <ele>1080</ele>
        <time>2026-05-25T11:44:16.000Z</time>
      </trkpt>
      <trkpt lat="42.93409" lon="1.2171">
        <ele>1081</ele>
        <time>2026-05-25T11:44:17.000Z</time>
      </trkpt>
      <trkpt lat="42.93409" lon="1.21707">
        <ele>1081</ele>
        <time>2026-05-25T11:44:18.000Z</time>
      </trkpt>
      <trkpt lat="42.93409" lon="1.21705">
        <ele>1081</ele>
        <time>2026-05-25T11:44:19.000Z</time>
      </trkpt>
      <trkpt lat="42.93409" lon="1.21703">
        <ele>1081</ele>
        <time>2026-05-25T11:44:20.000Z</time>
      </trkpt>
      <trkpt lat="42.93408" lon="1.217">
        <ele>1080</ele>
        <time>2026-05-25T11:44:21.000Z</time>
      </trkpt>
      <trkpt lat="42.93408" lon="1.21697">
        <ele>1080</ele>
        <time>2026-05-25T11:44:22.000Z</time>
      </trkpt>
      <trkpt lat="42.93408" lon="1.21695">
        <ele>1080</ele>
        <time>2026-05-25T11:44:23.000Z</time>
      </trkpt>
      <trkpt lat="42.93407" lon="1.21693">
        <ele>1080</ele>
        <time>2026-05-25T11:44:24.000Z</time>
      </trkpt>
      <trkpt lat="42.93406" lon="1.21691">
        <ele>1080</ele>
        <time>2026-05-25T11:44:25.000Z</time>
      </trkpt>
      <trkpt lat="42.93405" lon="1.21688">
        <ele>1081</ele>
        <time>2026-05-25T11:44:26.000Z</time>
      </trkpt>
      <trkpt lat="42.93403" lon="1.21685">
        <ele>1081</ele>
        <time>2026-05-25T11:44:27.000Z</time>
      </trkpt>
      <trkpt lat="42.93402" lon="1.21682">
        <ele>1081</ele>
        <time>2026-05-25T11:44:28.000Z</time>
      </trkpt>
      <trkpt lat="42.93401" lon="1.2168">
        <ele>1081</ele>
        <time>2026-05-25T11:44:29.000Z</time>
      </trkpt>
      <trkpt lat="42.934" lon="1.21677">
        <ele>1082</ele>
        <time>2026-05-25T11:44:30.000Z</time>
      </trkpt>
      <trkpt lat="42.93398" lon="1.21674">
        <ele>1082</ele>
        <time>2026-05-25T11:44:31.000Z</time>
      </trkpt>
      <trkpt lat="42.93397" lon="1.21671">
        <ele>1082</ele>
        <time>2026-05-25T11:44:32.000Z</time>
      </trkpt>
      <trkpt lat="42.93395" lon="1.21667">
        <ele>1082</ele>
        <time>2026-05-25T11:44:33.000Z</time>
      </trkpt>
      <trkpt lat="42.93393" lon="1.21664">
        <ele>1082</ele>
        <time>2026-05-25T11:44:34.000Z</time>
      </trkpt>
      <trkpt lat="42.93392" lon="1.2166">
        <ele>1082</ele>
        <time>2026-05-25T11:44:35.000Z</time>
      </trkpt>
      <trkpt lat="42.93391" lon="1.21656">
        <ele>1082</ele>
        <time>2026-05-25T11:44:36.000Z</time>
      </trkpt>
      <trkpt lat="42.9339" lon="1.21652">
        <ele>1083</ele>
        <time>2026-05-25T11:44:37.000Z</time>
      </trkpt>
      <trkpt lat="42.93388" lon="1.21648">
        <ele>1082</ele>
        <time>2026-05-25T11:44:38.000Z</time>
      </trkpt>
      <trkpt lat="42.93386" lon="1.21645">
        <ele>1082</ele>
        <time>2026-05-25T11:44:39.000Z</time>
      </trkpt>
      <trkpt lat="42.93384" lon="1.21642">
        <ele>1081</ele>
        <time>2026-05-25T11:44:40.000Z</time>
      </trkpt>
      <trkpt lat="42.93383" lon="1.21638">
        <ele>1081</ele>
        <time>2026-05-25T11:44:41.000Z</time>
      </trkpt>
      <trkpt lat="42.93381" lon="1.21635">
        <ele>1081</ele>
        <time>2026-05-25T11:44:42.000Z</time>
      </trkpt>
      <trkpt lat="42.93379" lon="1.21632">
        <ele>1080</ele>
        <time>2026-05-25T11:44:43.000Z</time>
      </trkpt>
      <trkpt lat="42.93376" lon="1.21628">
        <ele>1080</ele>
        <time>2026-05-25T11:44:44.000Z</time>
      </trkpt>
      <trkpt lat="42.93373" lon="1.21624">
        <ele>1080</ele>
        <time>2026-05-25T11:44:45.000Z</time>
      </trkpt>
      <trkpt lat="42.9337" lon="1.2162">
        <ele>1079</ele>
        <time>2026-05-25T11:44:46.000Z</time>
      </trkpt>
      <trkpt lat="42.93365" lon="1.21617">
        <ele>1079</ele>
        <time>2026-05-25T11:44:47.000Z</time>
      </trkpt>
      <trkpt lat="42.9336" lon="1.21613">
        <ele>1079</ele>
        <time>2026-05-25T11:44:48.000Z</time>
      </trkpt>
      <trkpt lat="42.93356" lon="1.21608">
        <ele>1078</ele>
        <time>2026-05-25T11:44:49.000Z</time>
      </trkpt>
      <trkpt lat="42.93351" lon="1.21604">
        <ele>1076</ele>
        <time>2026-05-25T11:44:50.000Z</time>
      </trkpt>
      <trkpt lat="42.93346" lon="1.21601">
        <ele>1076</ele>
        <time>2026-05-25T11:44:51.000Z</time>
      </trkpt>
      <trkpt lat="42.9334" lon="1.21598">
        <ele>1075</ele>
        <time>2026-05-25T11:44:52.000Z</time>
      </trkpt>
      <trkpt lat="42.93333" lon="1.21593">
        <ele>1074</ele>
        <time>2026-05-25T11:44:53.000Z</time>
      </trkpt>
      <trkpt lat="42.93325" lon="1.21586">
        <ele>1073</ele>
        <time>2026-05-25T11:44:54.000Z</time>
      </trkpt>
      <trkpt lat="42.93317" lon="1.21579">
        <ele>1072</ele>
        <time>2026-05-25T11:44:55.000Z</time>
      </trkpt>
      <trkpt lat="42.93308" lon="1.21571">
        <ele>1071</ele>
        <time>2026-05-25T11:44:56.000Z</time>
      </trkpt>
      <trkpt lat="42.933" lon="1.21565">
        <ele>1071</ele>
        <time>2026-05-25T11:44:57.000Z</time>
      </trkpt>
      <trkpt lat="42.93293" lon="1.21559">
        <ele>1071</ele>
        <time>2026-05-25T11:44:58.000Z</time>
      </trkpt>
      <trkpt lat="42.93285" lon="1.21552">
        <ele>1071</ele>
        <time>2026-05-25T11:44:59.000Z</time>
      </trkpt>
      <trkpt lat="42.93278" lon="1.21546">
        <ele>1071</ele>
        <time>2026-05-25T11:45:00.000Z</time>
      </trkpt>
      <trkpt lat="42.93272" lon="1.2154">
        <ele>1071</ele>
        <time>2026-05-25T11:45:01.000Z</time>
      </trkpt>
      <trkpt lat="42.93268" lon="1.21536">
        <ele>1072</ele>
        <time>2026-05-25T11:45:02.000Z</time>
      </trkpt>
      <trkpt lat="42.93265" lon="1.21534">
        <ele>1072</ele>
        <time>2026-05-25T11:45:03.000Z</time>
      </trkpt>
      <trkpt lat="42.93264" lon="1.21532">
        <ele>1072</ele>
        <time>2026-05-25T11:45:04.000Z</time>
      </trkpt>
      <trkpt lat="42.93264" lon="1.2153">
        <ele>1073</ele>
        <time>2026-05-25T11:45:05.000Z</time>
      </trkpt>
      <trkpt lat="42.93262" lon="1.21529">
        <ele>1073</ele>
        <time>2026-05-25T11:45:06.000Z</time>
      </trkpt>
      <trkpt lat="42.93261" lon="1.21527">
        <ele>1074</ele>
        <time>2026-05-25T11:45:07.000Z</time>
      </trkpt>
      <trkpt lat="42.9326" lon="1.21527">
        <ele>1075</ele>
        <time>2026-05-25T11:45:08.000Z</time>
      </trkpt>
      <trkpt lat="42.93259" lon="1.21526">
        <ele>1076</ele>
        <time>2026-05-25T11:45:09.000Z</time>
      </trkpt>
      <trkpt lat="42.93258" lon="1.21524">
        <ele>1077</ele>
        <time>2026-05-25T11:45:10.000Z</time>
      </trkpt>
      <trkpt lat="42.93257" lon="1.21523">
        <ele>1078</ele>
        <time>2026-05-25T11:45:11.000Z</time>
      </trkpt>
      <trkpt lat="42.93256" lon="1.21521">
        <ele>1079</ele>
        <time>2026-05-25T11:45:12.000Z</time>
      </trkpt>
      <trkpt lat="42.93255" lon="1.2152">
        <ele>1079</ele>
        <time>2026-05-25T11:45:13.000Z</time>
      </trkpt>
      <trkpt lat="42.93255" lon="1.21518">
        <ele>1081</ele>
        <time>2026-05-25T11:45:14.000Z</time>
      </trkpt>
      <trkpt lat="42.93254" lon="1.21518">
        <ele>1081</ele>
        <time>2026-05-25T11:45:15.000Z</time>
      </trkpt>
      <trkpt lat="42.93254" lon="1.21516">
        <ele>1082</ele>
        <time>2026-05-25T11:45:16.000Z</time>
      </trkpt>
      <trkpt lat="42.93253" lon="1.21514">
        <ele>1084</ele>
        <time>2026-05-25T11:45:17.000Z</time>
      </trkpt>
      <trkpt lat="42.93252" lon="1.21514">
        <ele>1085</ele>
        <time>2026-05-25T11:45:18.000Z</time>
      </trkpt>
      <trkpt lat="42.93251" lon="1.21512">
        <ele>1086</ele>
        <time>2026-05-25T11:45:19.000Z</time>
      </trkpt>
      <trkpt lat="42.9325" lon="1.2151">
        <ele>1087</ele>
        <time>2026-05-25T11:45:20.000Z</time>
      </trkpt>
      <trkpt lat="42.9325" lon="1.21507">
        <ele>1087</ele>
        <time>2026-05-25T11:45:21.000Z</time>
      </trkpt>
      <trkpt lat="42.93249" lon="1.21505">
        <ele>1087</ele>
        <time>2026-05-25T11:45:22.000Z</time>
      </trkpt>
      <trkpt lat="42.93249" lon="1.21503">
        <ele>1088</ele>
        <time>2026-05-25T11:45:23.000Z</time>
      </trkpt>
      <trkpt lat="42.93248" lon="1.21501">
        <ele>1088</ele>
        <time>2026-05-25T11:45:24.000Z</time>
      </trkpt>
      <trkpt lat="42.93247" lon="1.21499">
        <ele>1088</ele>
        <time>2026-05-25T11:45:25.000Z</time>
      </trkpt>
      <trkpt lat="42.93247" lon="1.21496">
        <ele>1088</ele>
        <time>2026-05-25T11:45:26.000Z</time>
      </trkpt>
      <trkpt lat="42.93246" lon="1.21494">
        <ele>1088</ele>
        <time>2026-05-25T11:45:27.000Z</time>
      </trkpt>
      <trkpt lat="42.93245" lon="1.21492">
        <ele>1088</ele>
        <time>2026-05-25T11:45:28.000Z</time>
      </trkpt>
      <trkpt lat="42.93244" lon="1.2149">
        <ele>1088</ele>
        <time>2026-05-25T11:45:29.000Z</time>
      </trkpt>
      <trkpt lat="42.93243" lon="1.21488">
        <ele>1088</ele>
        <time>2026-05-25T11:45:30.000Z</time>
      </trkpt>
      <trkpt lat="42.93242" lon="1.21486">
        <ele>1088</ele>
        <time>2026-05-25T11:45:31.000Z</time>
      </trkpt>
      <trkpt lat="42.93241" lon="1.21485">
        <ele>1088</ele>
        <time>2026-05-25T11:45:32.000Z</time>
      </trkpt>
      <trkpt lat="42.93241" lon="1.21483">
        <ele>1089</ele>
        <time>2026-05-25T11:45:33.000Z</time>
      </trkpt>
      <trkpt lat="42.9324" lon="1.2148">
        <ele>1089</ele>
        <time>2026-05-25T11:45:34.000Z</time>
      </trkpt>
      <trkpt lat="42.93239" lon="1.21478">
        <ele>1089</ele>
        <time>2026-05-25T11:45:35.000Z</time>
      </trkpt>
      <trkpt lat="42.93238" lon="1.21477">
        <ele>1089</ele>
        <time>2026-05-25T11:45:36.000Z</time>
      </trkpt>
      <trkpt lat="42.93237" lon="1.21476">
        <ele>1089</ele>
        <time>2026-05-25T11:45:37.000Z</time>
      </trkpt>
      <trkpt lat="42.93236" lon="1.21474">
        <ele>1089</ele>
        <time>2026-05-25T11:45:38.000Z</time>
      </trkpt>
      <trkpt lat="42.93235" lon="1.21472">
        <ele>1089</ele>
        <time>2026-05-25T11:45:39.000Z</time>
      </trkpt>
      <trkpt lat="42.93235" lon="1.21471">
        <ele>1090</ele>
        <time>2026-05-25T11:45:40.000Z</time>
      </trkpt>
      <trkpt lat="42.93234" lon="1.21469">
        <ele>1090</ele>
        <time>2026-05-25T11:45:41.000Z</time>
      </trkpt>
      <trkpt lat="42.93232" lon="1.21468">
        <ele>1090</ele>
        <time>2026-05-25T11:45:42.000Z</time>
      </trkpt>
      <trkpt lat="42.93231" lon="1.21466">
        <ele>1090</ele>
        <time>2026-05-25T11:45:43.000Z</time>
      </trkpt>
      <trkpt lat="42.9323" lon="1.21465">
        <ele>1089</ele>
        <time>2026-05-25T11:45:44.000Z</time>
      </trkpt>
      <trkpt lat="42.9323" lon="1.21463">
        <ele>1089</ele>
        <time>2026-05-25T11:45:45.000Z</time>
      </trkpt>
      <trkpt lat="42.93229" lon="1.21461">
        <ele>1090</ele>
        <time>2026-05-25T11:45:46.000Z</time>
      </trkpt>
      <trkpt lat="42.93228" lon="1.2146">
        <ele>1090</ele>
        <time>2026-05-25T11:45:47.000Z</time>
      </trkpt>
      <trkpt lat="42.93228" lon="1.21459">
        <ele>1091</ele>
        <time>2026-05-25T11:45:48.000Z</time>
      </trkpt>
      <trkpt lat="42.93227" lon="1.21459">
        <ele>1092</ele>
        <time>2026-05-25T11:45:49.000Z</time>
      </trkpt>
      <trkpt lat="42.93226" lon="1.21458">
        <ele>1092</ele>
        <time>2026-05-25T11:45:50.000Z</time>
      </trkpt>
      <trkpt lat="42.93225" lon="1.21457">
        <ele>1093</ele>
        <time>2026-05-25T11:45:51.000Z</time>
      </trkpt>
      <trkpt lat="42.93225" lon="1.21455">
        <ele>1094</ele>
        <time>2026-05-25T11:45:52.000Z</time>
      </trkpt>
      <trkpt lat="42.93225" lon="1.21454">
        <ele>1094</ele>
        <time>2026-05-25T11:45:53.000Z</time>
      </trkpt>
      <trkpt lat="42.93224" lon="1.21452">
        <ele>1095</ele>
        <time>2026-05-25T11:45:54.000Z</time>
      </trkpt>
      <trkpt lat="42.93224" lon="1.21451">
        <ele>1095</ele>
        <time>2026-05-25T11:45:55.000Z</time>
      </trkpt>
      <trkpt lat="42.93223" lon="1.21449">
        <ele>1096</ele>
        <time>2026-05-25T11:45:56.000Z</time>
      </trkpt>
      <trkpt lat="42.93222" lon="1.21448">
        <ele>1096</ele>
        <time>2026-05-25T11:45:57.000Z</time>
      </trkpt>
      <trkpt lat="42.93221" lon="1.21447">
        <ele>1096</ele>
        <time>2026-05-25T11:45:58.000Z</time>
      </trkpt>
      <trkpt lat="42.93221" lon="1.21445">
        <ele>1097</ele>
        <time>2026-05-25T11:45:59.000Z</time>
      </trkpt>
      <trkpt lat="42.9322" lon="1.21443">
        <ele>1098</ele>
        <time>2026-05-25T11:46:00.000Z</time>
      </trkpt>
      <trkpt lat="42.93219" lon="1.21443">
        <ele>1099</ele>
        <time>2026-05-25T11:46:01.000Z</time>
      </trkpt>
      <trkpt lat="42.93218" lon="1.21442">
        <ele>1099</ele>
        <time>2026-05-25T11:46:02.000Z</time>
      </trkpt>
      <trkpt lat="42.93217" lon="1.2144">
        <ele>1099</ele>
        <time>2026-05-25T11:46:03.000Z</time>
      </trkpt>
      <trkpt lat="42.93216" lon="1.21438">
        <ele>1099</ele>
        <time>2026-05-25T11:46:04.000Z</time>
      </trkpt>
      <trkpt lat="42.93215" lon="1.21435">
        <ele>1099</ele>
        <time>2026-05-25T11:46:05.000Z</time>
      </trkpt>
      <trkpt lat="42.93214" lon="1.21433">
        <ele>1099</ele>
        <time>2026-05-25T11:46:06.000Z</time>
      </trkpt>
      <trkpt lat="42.93213" lon="1.2143">
        <ele>1099</ele>
        <time>2026-05-25T11:46:07.000Z</time>
      </trkpt>
      <trkpt lat="42.93212" lon="1.21429">
        <ele>1098</ele>
        <time>2026-05-25T11:46:08.000Z</time>
      </trkpt>
      <trkpt lat="42.93212" lon="1.21428">
        <ele>1098</ele>
        <time>2026-05-25T11:46:09.000Z</time>
      </trkpt>
      <trkpt lat="42.93211" lon="1.21426">
        <ele>1098</ele>
        <time>2026-05-25T11:46:10.000Z</time>
      </trkpt>
      <trkpt lat="42.9321" lon="1.21425">
        <ele>1098</ele>
        <time>2026-05-25T11:46:11.000Z</time>
      </trkpt>
      <trkpt lat="42.9321" lon="1.21423">
        <ele>1099</ele>
        <time>2026-05-25T11:46:12.000Z</time>
      </trkpt>
      <trkpt lat="42.9321" lon="1.21422">
        <ele>1099</ele>
        <time>2026-05-25T11:46:13.000Z</time>
      </trkpt>
      <trkpt lat="42.93209" lon="1.21421">
        <ele>1099</ele>
        <time>2026-05-25T11:46:14.000Z</time>
      </trkpt>
      <trkpt lat="42.93208" lon="1.21419">
        <ele>1100</ele>
        <time>2026-05-25T11:46:15.000Z</time>
      </trkpt>
      <trkpt lat="42.93207" lon="1.21418">
        <ele>1100</ele>
        <time>2026-05-25T11:46:16.000Z</time>
      </trkpt>
      <trkpt lat="42.93206" lon="1.21417">
        <ele>1100</ele>
        <time>2026-05-25T11:46:17.000Z</time>
      </trkpt>
      <trkpt lat="42.93205" lon="1.21416">
        <ele>1100</ele>
        <time>2026-05-25T11:46:18.000Z</time>
      </trkpt>
      <trkpt lat="42.93205" lon="1.21415">
        <ele>1100</ele>
        <time>2026-05-25T11:46:19.000Z</time>
      </trkpt>
      <trkpt lat="42.93204" lon="1.21414">
        <ele>1101</ele>
        <time>2026-05-25T11:46:20.000Z</time>
      </trkpt>
      <trkpt lat="42.93203" lon="1.21412">
        <ele>1102</ele>
        <time>2026-05-25T11:46:21.000Z</time>
      </trkpt>
      <trkpt lat="42.93202" lon="1.21411">
        <ele>1102</ele>
        <time>2026-05-25T11:46:22.000Z</time>
      </trkpt>
      <trkpt lat="42.93201" lon="1.2141">
        <ele>1102</ele>
        <time>2026-05-25T11:46:23.000Z</time>
      </trkpt>
      <trkpt lat="42.93201" lon="1.21408">
        <ele>1103</ele>
        <time>2026-05-25T11:46:24.000Z</time>
      </trkpt>
      <trkpt lat="42.93199" lon="1.21407">
        <ele>1103</ele>
        <time>2026-05-25T11:46:25.000Z</time>
      </trkpt>
      <trkpt lat="42.93199" lon="1.21406">
        <ele>1104</ele>
        <time>2026-05-25T11:46:26.000Z</time>
      </trkpt>
      <trkpt lat="42.93198" lon="1.21403">
        <ele>1105</ele>
        <time>2026-05-25T11:46:27.000Z</time>
      </trkpt>
      <trkpt lat="42.93197" lon="1.21402">
        <ele>1105</ele>
        <time>2026-05-25T11:46:28.000Z</time>
      </trkpt>
      <trkpt lat="42.93197" lon="1.214">
        <ele>1105</ele>
        <time>2026-05-25T11:46:29.000Z</time>
      </trkpt>
      <trkpt lat="42.93195" lon="1.21398">
        <ele>1104</ele>
        <time>2026-05-25T11:46:30.000Z</time>
      </trkpt>
      <trkpt lat="42.93195" lon="1.21397">
        <ele>1105</ele>
        <time>2026-05-25T11:46:31.000Z</time>
      </trkpt>
      <trkpt lat="42.93194" lon="1.21394">
        <ele>1105</ele>
        <time>2026-05-25T11:46:32.000Z</time>
      </trkpt>
      <trkpt lat="42.93193" lon="1.21391">
        <ele>1104</ele>
        <time>2026-05-25T11:46:33.000Z</time>
      </trkpt>
      <trkpt lat="42.93192" lon="1.2139">
        <ele>1104</ele>
        <time>2026-05-25T11:46:34.000Z</time>
      </trkpt>
      <trkpt lat="42.93191" lon="1.21387">
        <ele>1103</ele>
        <time>2026-05-25T11:46:35.000Z</time>
      </trkpt>
      <trkpt lat="42.93189" lon="1.21385">
        <ele>1103</ele>
        <time>2026-05-25T11:46:36.000Z</time>
      </trkpt>
      <trkpt lat="42.93189" lon="1.21383">
        <ele>1103</ele>
        <time>2026-05-25T11:46:37.000Z</time>
      </trkpt>
      <trkpt lat="42.93187" lon="1.21382">
        <ele>1102</ele>
        <time>2026-05-25T11:46:38.000Z</time>
      </trkpt>
      <trkpt lat="42.93186" lon="1.21379">
        <ele>1102</ele>
        <time>2026-05-25T11:46:39.000Z</time>
      </trkpt>
      <trkpt lat="42.93184" lon="1.21378">
        <ele>1102</ele>
        <time>2026-05-25T11:46:40.000Z</time>
      </trkpt>
      <trkpt lat="42.93182" lon="1.21376">
        <ele>1102</ele>
        <time>2026-05-25T11:46:41.000Z</time>
      </trkpt>
      <trkpt lat="42.9318" lon="1.21373">
        <ele>1102</ele>
        <time>2026-05-25T11:46:42.000Z</time>
      </trkpt>
      <trkpt lat="42.93179" lon="1.21371">
        <ele>1102</ele>
        <time>2026-05-25T11:46:43.000Z</time>
      </trkpt>
      <trkpt lat="42.93177" lon="1.2137">
        <ele>1102</ele>
        <time>2026-05-25T11:46:44.000Z</time>
      </trkpt>
      <trkpt lat="42.93176" lon="1.21368">
        <ele>1102</ele>
        <time>2026-05-25T11:46:45.000Z</time>
      </trkpt>
      <trkpt lat="42.93174" lon="1.21367">
        <ele>1102</ele>
        <time>2026-05-25T11:46:46.000Z</time>
      </trkpt>
      <trkpt lat="42.93172" lon="1.21366">
        <ele>1102</ele>
        <time>2026-05-25T11:46:47.000Z</time>
      </trkpt>
      <trkpt lat="42.9317" lon="1.21365">
        <ele>1102</ele>
        <time>2026-05-25T11:46:48.000Z</time>
      </trkpt>
      <trkpt lat="42.93168" lon="1.21363">
        <ele>1102</ele>
        <time>2026-05-25T11:46:49.000Z</time>
      </trkpt>
      <trkpt lat="42.93166" lon="1.21361">
        <ele>1102</ele>
        <time>2026-05-25T11:46:50.000Z</time>
      </trkpt>
      <trkpt lat="42.93165" lon="1.2136">
        <ele>1102</ele>
        <time>2026-05-25T11:46:51.000Z</time>
      </trkpt>
      <trkpt lat="42.93163" lon="1.21357">
        <ele>1103</ele>
        <time>2026-05-25T11:46:52.000Z</time>
      </trkpt>
      <trkpt lat="42.93162" lon="1.21355">
        <ele>1103</ele>
        <time>2026-05-25T11:46:53.000Z</time>
      </trkpt>
      <trkpt lat="42.9316" lon="1.21354">
        <ele>1103</ele>
        <time>2026-05-25T11:46:54.000Z</time>
      </trkpt>
      <trkpt lat="42.93159" lon="1.21352">
        <ele>1103</ele>
        <time>2026-05-25T11:46:55.000Z</time>
      </trkpt>
      <trkpt lat="42.93156" lon="1.21349">
        <ele>1104</ele>
        <time>2026-05-25T11:46:56.000Z</time>
      </trkpt>
      <trkpt lat="42.93154" lon="1.21348">
        <ele>1104</ele>
        <time>2026-05-25T11:46:57.000Z</time>
      </trkpt>
      <trkpt lat="42.93152" lon="1.21346">
        <ele>1104</ele>
        <time>2026-05-25T11:46:58.000Z</time>
      </trkpt>
      <trkpt lat="42.9315" lon="1.21344">
        <ele>1104</ele>
        <time>2026-05-25T11:46:59.000Z</time>
      </trkpt>
      <trkpt lat="42.93148" lon="1.21342">
        <ele>1104</ele>
        <time>2026-05-25T11:47:00.000Z</time>
      </trkpt>
      <trkpt lat="42.93147" lon="1.21341">
        <ele>1105</ele>
        <time>2026-05-25T11:47:01.000Z</time>
      </trkpt>
      <trkpt lat="42.93145" lon="1.21338">
        <ele>1106</ele>
        <time>2026-05-25T11:47:02.000Z</time>
      </trkpt>
      <trkpt lat="42.93143" lon="1.21336">
        <ele>1107</ele>
        <time>2026-05-25T11:47:03.000Z</time>
      </trkpt>
      <trkpt lat="42.93141" lon="1.21334">
        <ele>1107</ele>
        <time>2026-05-25T11:47:04.000Z</time>
      </trkpt>
      <trkpt lat="42.93139" lon="1.21332">
        <ele>1107</ele>
        <time>2026-05-25T11:47:05.000Z</time>
      </trkpt>
      <trkpt lat="42.93137" lon="1.2133">
        <ele>1107</ele>
        <time>2026-05-25T11:47:06.000Z</time>
      </trkpt>
      <trkpt lat="42.93135" lon="1.21328">
        <ele>1108</ele>
        <time>2026-05-25T11:47:07.000Z</time>
      </trkpt>
      <trkpt lat="42.93134" lon="1.21325">
        <ele>1109</ele>
        <time>2026-05-25T11:47:08.000Z</time>
      </trkpt>
      <trkpt lat="42.93132" lon="1.21322">
        <ele>1108</ele>
        <time>2026-05-25T11:47:09.000Z</time>
      </trkpt>
      <trkpt lat="42.9313" lon="1.21319">
        <ele>1108</ele>
        <time>2026-05-25T11:47:10.000Z</time>
      </trkpt>
      <trkpt lat="42.93129" lon="1.21315">
        <ele>1109</ele>
        <time>2026-05-25T11:47:11.000Z</time>
      </trkpt>
      <trkpt lat="42.93127" lon="1.21311">
        <ele>1110</ele>
        <time>2026-05-25T11:47:12.000Z</time>
      </trkpt>
      <trkpt lat="42.93125" lon="1.21308">
        <ele>1110</ele>
        <time>2026-05-25T11:47:13.000Z</time>
      </trkpt>
      <trkpt lat="42.93123" lon="1.21304">
        <ele>1109</ele>
        <time>2026-05-25T11:47:14.000Z</time>
      </trkpt>
      <trkpt lat="42.9312" lon="1.21301">
        <ele>1109</ele>
        <time>2026-05-25T11:47:15.000Z</time>
      </trkpt>
      <trkpt lat="42.93118" lon="1.21296">
        <ele>1110</ele>
        <time>2026-05-25T11:47:16.000Z</time>
      </trkpt>
      <trkpt lat="42.93114" lon="1.2129">
        <ele>1108</ele>
        <time>2026-05-25T11:47:17.000Z</time>
      </trkpt>
      <trkpt lat="42.9311" lon="1.21284">
        <ele>1107</ele>
        <time>2026-05-25T11:47:18.000Z</time>
      </trkpt>
      <trkpt lat="42.93106" lon="1.21278">
        <ele>1106</ele>
        <time>2026-05-25T11:47:19.000Z</time>
      </trkpt>
      <trkpt lat="42.93101" lon="1.21272">
        <ele>1105</ele>
        <time>2026-05-25T11:47:20.000Z</time>
      </trkpt>
      <trkpt lat="42.93096" lon="1.21265">
        <ele>1105</ele>
        <time>2026-05-25T11:47:21.000Z</time>
      </trkpt>
      <trkpt lat="42.93091" lon="1.21258">
        <ele>1104</ele>
        <time>2026-05-25T11:47:22.000Z</time>
      </trkpt>
      <trkpt lat="42.93086" lon="1.21251">
        <ele>1104</ele>
        <time>2026-05-25T11:47:23.000Z</time>
      </trkpt>
      <trkpt lat="42.93082" lon="1.21243">
        <ele>1103</ele>
        <time>2026-05-25T11:47:24.000Z</time>
      </trkpt>
      <trkpt lat="42.93077" lon="1.21234">
        <ele>1102</ele>
        <time>2026-05-25T11:47:25.000Z</time>
      </trkpt>
      <trkpt lat="42.93072" lon="1.21226">
        <ele>1102</ele>
        <time>2026-05-25T11:47:26.000Z</time>
      </trkpt>
      <trkpt lat="42.93067" lon="1.21218">
        <ele>1101</ele>
        <time>2026-05-25T11:47:27.000Z</time>
      </trkpt>
      <trkpt lat="42.93063" lon="1.21211">
        <ele>1101</ele>
        <time>2026-05-25T11:47:28.000Z</time>
      </trkpt>
      <trkpt lat="42.93058" lon="1.21205">
        <ele>1100</ele>
        <time>2026-05-25T11:47:29.000Z</time>
      </trkpt>
      <trkpt lat="42.93055" lon="1.21199">
        <ele>1100</ele>
        <time>2026-05-25T11:47:30.000Z</time>
      </trkpt>
      <trkpt lat="42.93051" lon="1.21194">
        <ele>1100</ele>
        <time>2026-05-25T11:47:31.000Z</time>
      </trkpt>
      <trkpt lat="42.93049" lon="1.2119">
        <ele>1100</ele>
        <time>2026-05-25T11:47:32.000Z</time>
      </trkpt>
      <trkpt lat="42.93046" lon="1.21187">
        <ele>1100</ele>
        <time>2026-05-25T11:47:33.000Z</time>
      </trkpt>
      <trkpt lat="42.93043" lon="1.21184">
        <ele>1101</ele>
        <time>2026-05-25T11:47:34.000Z</time>
      </trkpt>
      <trkpt lat="42.93042" lon="1.21181">
        <ele>1101</ele>
        <time>2026-05-25T11:47:35.000Z</time>
      </trkpt>
      <trkpt lat="42.93039" lon="1.21178">
        <ele>1102</ele>
        <time>2026-05-25T11:47:36.000Z</time>
      </trkpt>
      <trkpt lat="42.93037" lon="1.21176">
        <ele>1102</ele>
        <time>2026-05-25T11:47:37.000Z</time>
      </trkpt>
      <trkpt lat="42.93035" lon="1.21174">
        <ele>1102</ele>
        <time>2026-05-25T11:47:38.000Z</time>
      </trkpt>
      <trkpt lat="42.93032" lon="1.21171">
        <ele>1102</ele>
        <time>2026-05-25T11:47:39.000Z</time>
      </trkpt>
      <trkpt lat="42.9303" lon="1.21169">
        <ele>1103</ele>
        <time>2026-05-25T11:47:40.000Z</time>
      </trkpt>
      <trkpt lat="42.93028" lon="1.21167">
        <ele>1103</ele>
        <time>2026-05-25T11:47:41.000Z</time>
      </trkpt>
      <trkpt lat="42.93026" lon="1.21164">
        <ele>1103</ele>
        <time>2026-05-25T11:47:42.000Z</time>
      </trkpt>
      <trkpt lat="42.93023" lon="1.21162">
        <ele>1104</ele>
        <time>2026-05-25T11:47:43.000Z</time>
      </trkpt>
      <trkpt lat="42.9302" lon="1.2116">
        <ele>1104</ele>
        <time>2026-05-25T11:47:44.000Z</time>
      </trkpt>
      <trkpt lat="42.93017" lon="1.21158">
        <ele>1103</ele>
        <time>2026-05-25T11:47:45.000Z</time>
      </trkpt>
      <trkpt lat="42.93014" lon="1.21155">
        <ele>1103</ele>
        <time>2026-05-25T11:47:46.000Z</time>
      </trkpt>
      <trkpt lat="42.93011" lon="1.21153">
        <ele>1103</ele>
        <time>2026-05-25T11:47:47.000Z</time>
      </trkpt>
      <trkpt lat="42.93008" lon="1.2115">
        <ele>1102</ele>
        <time>2026-05-25T11:47:48.000Z</time>
      </trkpt>
      <trkpt lat="42.93005" lon="1.21147">
        <ele>1102</ele>
        <time>2026-05-25T11:47:49.000Z</time>
      </trkpt>
      <trkpt lat="42.93002" lon="1.21143">
        <ele>1102</ele>
        <time>2026-05-25T11:47:50.000Z</time>
      </trkpt>
      <trkpt lat="42.92998" lon="1.21141">
        <ele>1102</ele>
        <time>2026-05-25T11:47:51.000Z</time>
      </trkpt>
      <trkpt lat="42.92995" lon="1.21137">
        <ele>1104</ele>
        <time>2026-05-25T11:47:52.000Z</time>
      </trkpt>
      <trkpt lat="42.92991" lon="1.21133">
        <ele>1105</ele>
        <time>2026-05-25T11:47:53.000Z</time>
      </trkpt>
      <trkpt lat="42.92988" lon="1.21132">
        <ele>1105</ele>
        <time>2026-05-25T11:47:54.000Z</time>
      </trkpt>
      <trkpt lat="42.92985" lon="1.2113">
        <ele>1105</ele>
        <time>2026-05-25T11:47:55.000Z</time>
      </trkpt>
      <trkpt lat="42.92982" lon="1.21128">
        <ele>1105</ele>
        <time>2026-05-25T11:47:56.000Z</time>
      </trkpt>
      <trkpt lat="42.9298" lon="1.21127">
        <ele>1105</ele>
        <time>2026-05-25T11:47:57.000Z</time>
      </trkpt>
      <trkpt lat="42.92978" lon="1.21125">
        <ele>1105</ele>
        <time>2026-05-25T11:47:58.000Z</time>
      </trkpt>
      <trkpt lat="42.92977" lon="1.21124">
        <ele>1105</ele>
        <time>2026-05-25T11:47:59.000Z</time>
      </trkpt>
      <trkpt lat="42.92975" lon="1.21124">
        <ele>1106</ele>
        <time>2026-05-25T11:48:00.000Z</time>
      </trkpt>
      <trkpt lat="42.92973" lon="1.21122">
        <ele>1106</ele>
        <time>2026-05-25T11:48:01.000Z</time>
      </trkpt>
      <trkpt lat="42.92973" lon="1.21123">
        <ele>1106</ele>
        <time>2026-05-25T11:48:02.000Z</time>
      </trkpt>
      <trkpt lat="42.92973" lon="1.21125">
        <ele>1106</ele>
        <time>2026-05-25T11:48:03.000Z</time>
      </trkpt>
      <trkpt lat="42.92974" lon="1.21126">
        <ele>1106</ele>
        <time>2026-05-25T11:48:04.000Z</time>
      </trkpt>
      <trkpt lat="42.92975" lon="1.21125">
        <ele>1106</ele>
        <time>2026-05-25T11:48:05.000Z</time>
      </trkpt>
      <trkpt lat="42.92976" lon="1.21125">
        <ele>1106</ele>
        <time>2026-05-25T11:48:06.000Z</time>
      </trkpt>
      <trkpt lat="42.92979" lon="1.21124">
        <ele>1106</ele>
        <time>2026-05-25T11:48:07.000Z</time>
      </trkpt>
      <trkpt lat="42.92981" lon="1.21122">
        <ele>1105</ele>
        <time>2026-05-25T11:48:08.000Z</time>
      </trkpt>
      <trkpt lat="42.92984" lon="1.21121">
        <ele>1105</ele>
        <time>2026-05-25T11:48:09.000Z</time>
      </trkpt>
      <trkpt lat="42.92987" lon="1.2112">
        <ele>1105</ele>
        <time>2026-05-25T11:48:10.000Z</time>
      </trkpt>
      <trkpt lat="42.92989" lon="1.21118">
        <ele>1105</ele>
        <time>2026-05-25T11:48:11.000Z</time>
      </trkpt>
      <trkpt lat="42.92992" lon="1.21117">
        <ele>1107</ele>
        <time>2026-05-25T11:48:12.000Z</time>
      </trkpt>
      <trkpt lat="42.92995" lon="1.21117">
        <ele>1108</ele>
        <time>2026-05-25T11:48:13.000Z</time>
      </trkpt>
      <trkpt lat="42.92997" lon="1.21117">
        <ele>1110</ele>
        <time>2026-05-25T11:48:14.000Z</time>
      </trkpt>
      <trkpt lat="42.92999" lon="1.21118">
        <ele>1111</ele>
        <time>2026-05-25T11:48:15.000Z</time>
      </trkpt>
      <trkpt lat="42.93" lon="1.21119">
        <ele>1112</ele>
        <time>2026-05-25T11:48:16.000Z</time>
      </trkpt>
      <trkpt lat="42.93002" lon="1.21119">
        <ele>1114</ele>
        <time>2026-05-25T11:48:17.000Z</time>
      </trkpt>
      <trkpt lat="42.93004" lon="1.2112">
        <ele>1115</ele>
        <time>2026-05-25T11:48:18.000Z</time>
      </trkpt>
      <trkpt lat="42.93005" lon="1.21121">
        <ele>1115</ele>
        <time>2026-05-25T11:48:19.000Z</time>
      </trkpt>
      <trkpt lat="42.93007" lon="1.21122">
        <ele>1116</ele>
        <time>2026-05-25T11:48:20.000Z</time>
      </trkpt>
      <trkpt lat="42.93009" lon="1.21123">
        <ele>1116</ele>
        <time>2026-05-25T11:48:21.000Z</time>
      </trkpt>
      <trkpt lat="42.93012" lon="1.21123">
        <ele>1116</ele>
        <time>2026-05-25T11:48:22.000Z</time>
      </trkpt>
      <trkpt lat="42.93014" lon="1.21123">
        <ele>1115</ele>
        <time>2026-05-25T11:48:23.000Z</time>
      </trkpt>
      <trkpt lat="42.93015" lon="1.21123">
        <ele>1115</ele>
        <time>2026-05-25T11:48:24.000Z</time>
      </trkpt>
      <trkpt lat="42.93016" lon="1.21122">
        <ele>1115</ele>
        <time>2026-05-25T11:48:25.000Z</time>
      </trkpt>
      <trkpt lat="42.93017" lon="1.2112">
        <ele>1115</ele>
        <time>2026-05-25T11:48:26.000Z</time>
      </trkpt>
      <trkpt lat="42.93017" lon="1.21119">
        <ele>1114</ele>
        <time>2026-05-25T11:48:27.000Z</time>
      </trkpt>
      <trkpt lat="42.93018" lon="1.2112">
        <ele>1114</ele>
        <time>2026-05-25T11:48:28.000Z</time>
      </trkpt>
      <trkpt lat="42.93019" lon="1.2112">
        <ele>1114</ele>
        <time>2026-05-25T11:48:29.000Z</time>
      </trkpt>
      <trkpt lat="42.93021" lon="1.21119">
        <ele>1114</ele>
        <time>2026-05-25T11:48:30.000Z</time>
      </trkpt>
      <trkpt lat="42.93022" lon="1.21118">
        <ele>1113</ele>
        <time>2026-05-25T11:48:31.000Z</time>
      </trkpt>
      <trkpt lat="42.93024" lon="1.21115">
        <ele>1112</ele>
        <time>2026-05-25T11:48:32.000Z</time>
      </trkpt>
      <trkpt lat="42.93026" lon="1.21113">
        <ele>1112</ele>
        <time>2026-05-25T11:48:33.000Z</time>
      </trkpt>
      <trkpt lat="42.93029" lon="1.21111">
        <ele>1112</ele>
        <time>2026-05-25T11:48:34.000Z</time>
      </trkpt>
      <trkpt lat="42.93031" lon="1.21109">
        <ele>1112</ele>
        <time>2026-05-25T11:48:35.000Z</time>
      </trkpt>
      <trkpt lat="42.93034" lon="1.21106">
        <ele>1112</ele>
        <time>2026-05-25T11:48:36.000Z</time>
      </trkpt>
      <trkpt lat="42.93037" lon="1.21105">
        <ele>1112</ele>
        <time>2026-05-25T11:48:37.000Z</time>
      </trkpt>
      <trkpt lat="42.9304" lon="1.21103">
        <ele>1111</ele>
        <time>2026-05-25T11:48:38.000Z</time>
      </trkpt>
      <trkpt lat="42.93042" lon="1.21102">
        <ele>1110</ele>
        <time>2026-05-25T11:48:39.000Z</time>
      </trkpt>
      <trkpt lat="42.93044" lon="1.21099">
        <ele>1110</ele>
        <time>2026-05-25T11:48:40.000Z</time>
      </trkpt>
      <trkpt lat="42.93045" lon="1.21097">
        <ele>1109</ele>
        <time>2026-05-25T11:48:41.000Z</time>
      </trkpt>
      <trkpt lat="42.93045" lon="1.21094">
        <ele>1108</ele>
        <time>2026-05-25T11:48:42.000Z</time>
      </trkpt>
      <trkpt lat="42.93047" lon="1.2109">
        <ele>1108</ele>
        <time>2026-05-25T11:48:43.000Z</time>
      </trkpt>
      <trkpt lat="42.93048" lon="1.21085">
        <ele>1107</ele>
        <time>2026-05-25T11:48:44.000Z</time>
      </trkpt>
      <trkpt lat="42.93048" lon="1.2108">
        <ele>1106</ele>
        <time>2026-05-25T11:48:45.000Z</time>
      </trkpt>
      <trkpt lat="42.93048" lon="1.21075">
        <ele>1105</ele>
        <time>2026-05-25T11:48:46.000Z</time>
      </trkpt>
      <trkpt lat="42.93048" lon="1.2107">
        <ele>1104</ele>
        <time>2026-05-25T11:48:47.000Z</time>
      </trkpt>
      <trkpt lat="42.93048" lon="1.21064">
        <ele>1103</ele>
        <time>2026-05-25T11:48:48.000Z</time>
      </trkpt>
      <trkpt lat="42.93047" lon="1.2106">
        <ele>1101</ele>
        <time>2026-05-25T11:48:49.000Z</time>
      </trkpt>
      <trkpt lat="42.93046" lon="1.21056">
        <ele>1100</ele>
        <time>2026-05-25T11:48:50.000Z</time>
      </trkpt>
      <trkpt lat="42.93045" lon="1.21053">
        <ele>1099</ele>
        <time>2026-05-25T11:48:51.000Z</time>
      </trkpt>
      <trkpt lat="42.93044" lon="1.21049">
        <ele>1099</ele>
        <time>2026-05-25T11:48:52.000Z</time>
      </trkpt>
      <trkpt lat="42.93043" lon="1.21047">
        <ele>1098</ele>
        <time>2026-05-25T11:48:53.000Z</time>
      </trkpt>
      <trkpt lat="42.93041" lon="1.21046">
        <ele>1097</ele>
        <time>2026-05-25T11:48:54.000Z</time>
      </trkpt>
      <trkpt lat="42.9304" lon="1.21044">
        <ele>1097</ele>
        <time>2026-05-25T11:48:55.000Z</time>
      </trkpt>
      <trkpt lat="42.93039" lon="1.21042">
        <ele>1096</ele>
        <time>2026-05-25T11:48:56.000Z</time>
      </trkpt>
      <trkpt lat="42.93038" lon="1.21038">
        <ele>1095</ele>
        <time>2026-05-25T11:48:57.000Z</time>
      </trkpt>
      <trkpt lat="42.93038" lon="1.21034">
        <ele>1095</ele>
        <time>2026-05-25T11:48:58.000Z</time>
      </trkpt>
      <trkpt lat="42.93037" lon="1.21031">
        <ele>1094</ele>
        <time>2026-05-25T11:48:59.000Z</time>
      </trkpt>
      <trkpt lat="42.93037" lon="1.21028">
        <ele>1093</ele>
        <time>2026-05-25T11:49:00.000Z</time>
      </trkpt>
      <trkpt lat="42.93037" lon="1.21026">
        <ele>1092</ele>
        <time>2026-05-25T11:49:01.000Z</time>
      </trkpt>
      <trkpt lat="42.93038" lon="1.21023">
        <ele>1091</ele>
        <time>2026-05-25T11:49:02.000Z</time>
      </trkpt>
      <trkpt lat="42.93039" lon="1.2102">
        <ele>1090</ele>
        <time>2026-05-25T11:49:03.000Z</time>
      </trkpt>
      <trkpt lat="42.93039" lon="1.21016">
        <ele>1089</ele>
        <time>2026-05-25T11:49:04.000Z</time>
      </trkpt>
      <trkpt lat="42.93039" lon="1.21014">
        <ele>1088</ele>
        <time>2026-05-25T11:49:05.000Z</time>
      </trkpt>
      <trkpt lat="42.9304" lon="1.21009">
        <ele>1087</ele>
        <time>2026-05-25T11:49:06.000Z</time>
      </trkpt>
      <trkpt lat="42.93041" lon="1.21003">
        <ele>1086</ele>
        <time>2026-05-25T11:49:07.000Z</time>
      </trkpt>
      <trkpt lat="42.93041" lon="1.20998">
        <ele>1086</ele>
        <time>2026-05-25T11:49:08.000Z</time>
      </trkpt>
      <trkpt lat="42.93039" lon="1.20993">
        <ele>1085</ele>
        <time>2026-05-25T11:49:09.000Z</time>
      </trkpt>
      <trkpt lat="42.93037" lon="1.20988">
        <ele>1084</ele>
        <time>2026-05-25T11:49:10.000Z</time>
      </trkpt>
      <trkpt lat="42.93035" lon="1.20982">
        <ele>1083</ele>
        <time>2026-05-25T11:49:11.000Z</time>
      </trkpt>
      <trkpt lat="42.93034" lon="1.20976">
        <ele>1082</ele>
        <time>2026-05-25T11:49:12.000Z</time>
      </trkpt>
      <trkpt lat="42.93033" lon="1.20971">
        <ele>1082</ele>
        <time>2026-05-25T11:49:13.000Z</time>
      </trkpt>
      <trkpt lat="42.93033" lon="1.20966">
        <ele>1081</ele>
        <time>2026-05-25T11:49:14.000Z</time>
      </trkpt>
      <trkpt lat="42.93033" lon="1.20962">
        <ele>1080</ele>
        <time>2026-05-25T11:49:15.000Z</time>
      </trkpt>
      <trkpt lat="42.93033" lon="1.20958">
        <ele>1080</ele>
        <time>2026-05-25T11:49:16.000Z</time>
      </trkpt>
      <trkpt lat="42.93033" lon="1.20954">
        <ele>1079</ele>
        <time>2026-05-25T11:49:17.000Z</time>
      </trkpt>
      <trkpt lat="42.93033" lon="1.2095">
        <ele>1079</ele>
        <time>2026-05-25T11:49:18.000Z</time>
      </trkpt>
      <trkpt lat="42.93034" lon="1.20946">
        <ele>1078</ele>
        <time>2026-05-25T11:49:19.000Z</time>
      </trkpt>
      <trkpt lat="42.93034" lon="1.20942">
        <ele>1078</ele>
        <time>2026-05-25T11:49:20.000Z</time>
      </trkpt>
      <trkpt lat="42.93034" lon="1.20939">
        <ele>1077</ele>
        <time>2026-05-25T11:49:21.000Z</time>
      </trkpt>
      <trkpt lat="42.93033" lon="1.20935">
        <ele>1077</ele>
        <time>2026-05-25T11:49:22.000Z</time>
      </trkpt>
      <trkpt lat="42.93033" lon="1.20932">
        <ele>1076</ele>
        <time>2026-05-25T11:49:23.000Z</time>
      </trkpt>
      <trkpt lat="42.93032" lon="1.20927">
        <ele>1076</ele>
        <time>2026-05-25T11:49:24.000Z</time>
      </trkpt>
      <trkpt lat="42.9303" lon="1.20924">
        <ele>1075</ele>
        <time>2026-05-25T11:49:25.000Z</time>
      </trkpt>
      <trkpt lat="42.93029" lon="1.2092">
        <ele>1075</ele>
        <time>2026-05-25T11:49:26.000Z</time>
      </trkpt>
      <trkpt lat="42.93027" lon="1.20917">
        <ele>1075</ele>
        <time>2026-05-25T11:49:27.000Z</time>
      </trkpt>
      <trkpt lat="42.93026" lon="1.20913">
        <ele>1075</ele>
        <time>2026-05-25T11:49:28.000Z</time>
      </trkpt>
      <trkpt lat="42.93025" lon="1.2091">
        <ele>1074</ele>
        <time>2026-05-25T11:49:29.000Z</time>
      </trkpt>
      <trkpt lat="42.93024" lon="1.20906">
        <ele>1073</ele>
        <time>2026-05-25T11:49:30.000Z</time>
      </trkpt>
      <trkpt lat="42.93023" lon="1.20903">
        <ele>1072</ele>
        <time>2026-05-25T11:49:31.000Z</time>
      </trkpt>
      <trkpt lat="42.93025" lon="1.209">
        <ele>1072</ele>
        <time>2026-05-25T11:49:32.000Z</time>
      </trkpt>
      <trkpt lat="42.93027" lon="1.20896">
        <ele>1070</ele>
        <time>2026-05-25T11:49:33.000Z</time>
      </trkpt>
      <trkpt lat="42.93027" lon="1.2089">
        <ele>1068</ele>
        <time>2026-05-25T11:49:34.000Z</time>
      </trkpt>
      <trkpt lat="42.93027" lon="1.20885">
        <ele>1067</ele>
        <time>2026-05-25T11:49:35.000Z</time>
      </trkpt>
      <trkpt lat="42.93026" lon="1.2088">
        <ele>1066</ele>
        <time>2026-05-25T11:49:36.000Z</time>
      </trkpt>
      <trkpt lat="42.93024" lon="1.20876">
        <ele>1066</ele>
        <time>2026-05-25T11:49:37.000Z</time>
      </trkpt>
      <trkpt lat="42.93023" lon="1.20872">
        <ele>1065</ele>
        <time>2026-05-25T11:49:38.000Z</time>
      </trkpt>
      <trkpt lat="42.93023" lon="1.20868">
        <ele>1064</ele>
        <time>2026-05-25T11:49:39.000Z</time>
      </trkpt>
      <trkpt lat="42.93023" lon="1.20865">
        <ele>1063</ele>
        <time>2026-05-25T11:49:40.000Z</time>
      </trkpt>
      <trkpt lat="42.93023" lon="1.20862">
        <ele>1063</ele>
        <time>2026-05-25T11:49:41.000Z</time>
      </trkpt>
      <trkpt lat="42.93025" lon="1.2086">
        <ele>1063</ele>
        <time>2026-05-25T11:49:42.000Z</time>
      </trkpt>
      <trkpt lat="42.93028" lon="1.20857">
        <ele>1062</ele>
        <time>2026-05-25T11:49:43.000Z</time>
      </trkpt>
      <trkpt lat="42.9303" lon="1.20853">
        <ele>1061</ele>
        <time>2026-05-25T11:49:44.000Z</time>
      </trkpt>
      <trkpt lat="42.93032" lon="1.2085">
        <ele>1060</ele>
        <time>2026-05-25T11:49:45.000Z</time>
      </trkpt>
      <trkpt lat="42.93033" lon="1.20848">
        <ele>1060</ele>
        <time>2026-05-25T11:49:46.000Z</time>
      </trkpt>
      <trkpt lat="42.93034" lon="1.20845">
        <ele>1058</ele>
        <time>2026-05-25T11:49:47.000Z</time>
      </trkpt>
      <trkpt lat="42.93035" lon="1.20841">
        <ele>1058</ele>
        <time>2026-05-25T11:49:48.000Z</time>
      </trkpt>
      <trkpt lat="42.93036" lon="1.20837">
        <ele>1058</ele>
        <time>2026-05-25T11:49:49.000Z</time>
      </trkpt>
      <trkpt lat="42.93036" lon="1.20832">
        <ele>1057</ele>
        <time>2026-05-25T11:49:50.000Z</time>
      </trkpt>
      <trkpt lat="42.93037" lon="1.20827">
        <ele>1056</ele>
        <time>2026-05-25T11:49:51.000Z</time>
      </trkpt>
      <trkpt lat="42.93037" lon="1.20822">
        <ele>1056</ele>
        <time>2026-05-25T11:49:52.000Z</time>
      </trkpt>
      <trkpt lat="42.93038" lon="1.20816">
        <ele>1055</ele>
        <time>2026-05-25T11:49:53.000Z</time>
      </trkpt>
      <trkpt lat="42.93038" lon="1.20811">
        <ele>1054</ele>
        <time>2026-05-25T11:49:54.000Z</time>
      </trkpt>
      <trkpt lat="42.93038" lon="1.20805">
        <ele>1053</ele>
        <time>2026-05-25T11:49:55.000Z</time>
      </trkpt>
      <trkpt lat="42.93038" lon="1.208">
        <ele>1053</ele>
        <time>2026-05-25T11:49:56.000Z</time>
      </trkpt>
      <trkpt lat="42.93038" lon="1.20795">
        <ele>1053</ele>
        <time>2026-05-25T11:49:57.000Z</time>
      </trkpt>
      <trkpt lat="42.93038" lon="1.2079">
        <ele>1053</ele>
        <time>2026-05-25T11:49:58.000Z</time>
      </trkpt>
      <trkpt lat="42.93039" lon="1.20784">
        <ele>1052</ele>
        <time>2026-05-25T11:49:59.000Z</time>
      </trkpt>
      <trkpt lat="42.93038" lon="1.20778">
        <ele>1051</ele>
        <time>2026-05-25T11:50:00.000Z</time>
      </trkpt>
      <trkpt lat="42.93039" lon="1.20771">
        <ele>1051</ele>
        <time>2026-05-25T11:50:01.000Z</time>
      </trkpt>
      <trkpt lat="42.93038" lon="1.20766">
        <ele>1050</ele>
        <time>2026-05-25T11:50:02.000Z</time>
      </trkpt>
      <trkpt lat="42.93037" lon="1.20761">
        <ele>1050</ele>
        <time>2026-05-25T11:50:03.000Z</time>
      </trkpt>
      <trkpt lat="42.93037" lon="1.20754">
        <ele>1049</ele>
        <time>2026-05-25T11:50:04.000Z</time>
      </trkpt>
      <trkpt lat="42.93035" lon="1.20747">
        <ele>1047</ele>
        <time>2026-05-25T11:50:05.000Z</time>
      </trkpt>
      <trkpt lat="42.93031" lon="1.20741">
        <ele>1046</ele>
        <time>2026-05-25T11:50:06.000Z</time>
      </trkpt>
      <trkpt lat="42.93026" lon="1.20735">
        <ele>1044</ele>
        <time>2026-05-25T11:50:07.000Z</time>
      </trkpt>
      <trkpt lat="42.93022" lon="1.20732">
        <ele>1042</ele>
        <time>2026-05-25T11:50:08.000Z</time>
      </trkpt>
      <trkpt lat="42.93017" lon="1.2073">
        <ele>1041</ele>
        <time>2026-05-25T11:50:09.000Z</time>
      </trkpt>
      <trkpt lat="42.93013" lon="1.20728">
        <ele>1039</ele>
        <time>2026-05-25T11:50:10.000Z</time>
      </trkpt>
      <trkpt lat="42.93009" lon="1.20728">
        <ele>1037</ele>
        <time>2026-05-25T11:50:11.000Z</time>
      </trkpt>
      <trkpt lat="42.93005" lon="1.20727">
        <ele>1036</ele>
        <time>2026-05-25T11:50:12.000Z</time>
      </trkpt>
      <trkpt lat="42.93001" lon="1.20727">
        <ele>1035</ele>
        <time>2026-05-25T11:50:13.000Z</time>
      </trkpt>
      <trkpt lat="42.92997" lon="1.20726">
        <ele>1032</ele>
        <time>2026-05-25T11:50:14.000Z</time>
      </trkpt>
      <trkpt lat="42.92993" lon="1.20726">
        <ele>1031</ele>
        <time>2026-05-25T11:50:15.000Z</time>
      </trkpt>
      <trkpt lat="42.92989" lon="1.20725">
        <ele>1030</ele>
        <time>2026-05-25T11:50:16.000Z</time>
      </trkpt>
      <trkpt lat="42.92985" lon="1.20724">
        <ele>1028</ele>
        <time>2026-05-25T11:50:17.000Z</time>
      </trkpt>
      <trkpt lat="42.9298" lon="1.20722">
        <ele>1027</ele>
        <time>2026-05-25T11:50:18.000Z</time>
      </trkpt>
      <trkpt lat="42.92976" lon="1.2072">
        <ele>1027</ele>
        <time>2026-05-25T11:50:19.000Z</time>
      </trkpt>
      <trkpt lat="42.92971" lon="1.2072">
        <ele>1026</ele>
        <time>2026-05-25T11:50:20.000Z</time>
      </trkpt>
      <trkpt lat="42.92967" lon="1.20719">
        <ele>1025</ele>
        <time>2026-05-25T11:50:21.000Z</time>
      </trkpt>
      <trkpt lat="42.92962" lon="1.20717">
        <ele>1025</ele>
        <time>2026-05-25T11:50:22.000Z</time>
      </trkpt>
      <trkpt lat="42.92957" lon="1.20717">
        <ele>1024</ele>
        <time>2026-05-25T11:50:23.000Z</time>
      </trkpt>
      <trkpt lat="42.92953" lon="1.20717">
        <ele>1024</ele>
        <time>2026-05-25T11:50:24.000Z</time>
      </trkpt>
      <trkpt lat="42.92947" lon="1.20717">
        <ele>1023</ele>
        <time>2026-05-25T11:50:25.000Z</time>
      </trkpt>
      <trkpt lat="42.92942" lon="1.20718">
        <ele>1023</ele>
        <time>2026-05-25T11:50:26.000Z</time>
      </trkpt>
      <trkpt lat="42.92937" lon="1.2072">
        <ele>1022</ele>
        <time>2026-05-25T11:50:27.000Z</time>
      </trkpt>
      <trkpt lat="42.92931" lon="1.20722">
        <ele>1022</ele>
        <time>2026-05-25T11:50:28.000Z</time>
      </trkpt>
      <trkpt lat="42.92926" lon="1.20724">
        <ele>1022</ele>
        <time>2026-05-25T11:50:29.000Z</time>
      </trkpt>
      <trkpt lat="42.92921" lon="1.20726">
        <ele>1022</ele>
        <time>2026-05-25T11:50:30.000Z</time>
      </trkpt>
      <trkpt lat="42.92916" lon="1.20729">
        <ele>1022</ele>
        <time>2026-05-25T11:50:31.000Z</time>
      </trkpt>
      <trkpt lat="42.92912" lon="1.20733">
        <ele>1022</ele>
        <time>2026-05-25T11:50:32.000Z</time>
      </trkpt>
      <trkpt lat="42.92908" lon="1.20737">
        <ele>1022</ele>
        <time>2026-05-25T11:50:33.000Z</time>
      </trkpt>
      <trkpt lat="42.92905" lon="1.2074">
        <ele>1021</ele>
        <time>2026-05-25T11:50:34.000Z</time>
      </trkpt>
      <trkpt lat="42.92901" lon="1.20744">
        <ele>1022</ele>
        <time>2026-05-25T11:50:35.000Z</time>
      </trkpt>
      <trkpt lat="42.92897" lon="1.20748">
        <ele>1022</ele>
        <time>2026-05-25T11:50:36.000Z</time>
      </trkpt>
      <trkpt lat="42.92893" lon="1.20752">
        <ele>1022</ele>
        <time>2026-05-25T11:50:37.000Z</time>
      </trkpt>
      <trkpt lat="42.92888" lon="1.20757">
        <ele>1022</ele>
        <time>2026-05-25T11:50:38.000Z</time>
      </trkpt>
      <trkpt lat="42.92885" lon="1.20761">
        <ele>1021</ele>
        <time>2026-05-25T11:50:39.000Z</time>
      </trkpt>
      <trkpt lat="42.9288" lon="1.20765">
        <ele>1021</ele>
        <time>2026-05-25T11:50:40.000Z</time>
      </trkpt>
      <trkpt lat="42.92877" lon="1.2077">
        <ele>1021</ele>
        <time>2026-05-25T11:50:41.000Z</time>
      </trkpt>
      <trkpt lat="42.92873" lon="1.20775">
        <ele>1020</ele>
        <time>2026-05-25T11:50:42.000Z</time>
      </trkpt>
      <trkpt lat="42.92869" lon="1.20779">
        <ele>1020</ele>
        <time>2026-05-25T11:50:43.000Z</time>
      </trkpt>
      <trkpt lat="42.92865" lon="1.20784">
        <ele>1020</ele>
        <time>2026-05-25T11:50:44.000Z</time>
      </trkpt>
      <trkpt lat="42.92862" lon="1.20788">
        <ele>1020</ele>
        <time>2026-05-25T11:50:45.000Z</time>
      </trkpt>
      <trkpt lat="42.92858" lon="1.20792">
        <ele>1021</ele>
        <time>2026-05-25T11:50:46.000Z</time>
      </trkpt>
      <trkpt lat="42.92855" lon="1.20797">
        <ele>1021</ele>
        <time>2026-05-25T11:50:47.000Z</time>
      </trkpt>
      <trkpt lat="42.92852" lon="1.208">
        <ele>1021</ele>
        <time>2026-05-25T11:50:48.000Z</time>
      </trkpt>
      <trkpt lat="42.92849" lon="1.20804">
        <ele>1021</ele>
        <time>2026-05-25T11:50:49.000Z</time>
      </trkpt>
      <trkpt lat="42.92847" lon="1.20807">
        <ele>1021</ele>
        <time>2026-05-25T11:50:50.000Z</time>
      </trkpt>
      <trkpt lat="42.92844" lon="1.20811">
        <ele>1021</ele>
        <time>2026-05-25T11:50:51.000Z</time>
      </trkpt>
      <trkpt lat="42.92841" lon="1.20815">
        <ele>1021</ele>
        <time>2026-05-25T11:50:52.000Z</time>
      </trkpt>
      <trkpt lat="42.92838" lon="1.20819">
        <ele>1021</ele>
        <time>2026-05-25T11:50:53.000Z</time>
      </trkpt>
      <trkpt lat="42.92835" lon="1.20823">
        <ele>1022</ele>
        <time>2026-05-25T11:50:54.000Z</time>
      </trkpt>
      <trkpt lat="42.92832" lon="1.20826">
        <ele>1022</ele>
        <time>2026-05-25T11:50:55.000Z</time>
      </trkpt>
      <trkpt lat="42.9283" lon="1.2083">
        <ele>1022</ele>
        <time>2026-05-25T11:50:56.000Z</time>
      </trkpt>
      <trkpt lat="42.92827" lon="1.20835">
        <ele>1022</ele>
        <time>2026-05-25T11:50:57.000Z</time>
      </trkpt>
      <trkpt lat="42.92825" lon="1.20838">
        <ele>1022</ele>
        <time>2026-05-25T11:50:58.000Z</time>
      </trkpt>
      <trkpt lat="42.92822" lon="1.20842">
        <ele>1022</ele>
        <time>2026-05-25T11:50:59.000Z</time>
      </trkpt>
      <trkpt lat="42.9282" lon="1.20845">
        <ele>1022</ele>
        <time>2026-05-25T11:51:00.000Z</time>
      </trkpt>
      <trkpt lat="42.92818" lon="1.20849">
        <ele>1022</ele>
        <time>2026-05-25T11:51:01.000Z</time>
      </trkpt>
      <trkpt lat="42.92816" lon="1.20852">
        <ele>1023</ele>
        <time>2026-05-25T11:51:02.000Z</time>
      </trkpt>
      <trkpt lat="42.92814" lon="1.20856">
        <ele>1023</ele>
        <time>2026-05-25T11:51:03.000Z</time>
      </trkpt>
      <trkpt lat="42.92811" lon="1.2086">
        <ele>1022</ele>
        <time>2026-05-25T11:51:04.000Z</time>
      </trkpt>
      <trkpt lat="42.92809" lon="1.20863">
        <ele>1023</ele>
        <time>2026-05-25T11:51:05.000Z</time>
      </trkpt>
      <trkpt lat="42.92806" lon="1.20867">
        <ele>1022</ele>
        <time>2026-05-25T11:51:06.000Z</time>
      </trkpt>
      <trkpt lat="42.92804" lon="1.20871">
        <ele>1023</ele>
        <time>2026-05-25T11:51:07.000Z</time>
      </trkpt>
      <trkpt lat="42.92802" lon="1.20876">
        <ele>1023</ele>
        <time>2026-05-25T11:51:08.000Z</time>
      </trkpt>
      <trkpt lat="42.928" lon="1.2088">
        <ele>1023</ele>
        <time>2026-05-25T11:51:09.000Z</time>
      </trkpt>
      <trkpt lat="42.92798" lon="1.20884">
        <ele>1023</ele>
        <time>2026-05-25T11:51:10.000Z</time>
      </trkpt>
      <trkpt lat="42.92796" lon="1.20888">
        <ele>1023</ele>
        <time>2026-05-25T11:51:11.000Z</time>
      </trkpt>
      <trkpt lat="42.92794" lon="1.20892">
        <ele>1023</ele>
        <time>2026-05-25T11:51:12.000Z</time>
      </trkpt>
      <trkpt lat="42.92791" lon="1.20895">
        <ele>1023</ele>
        <time>2026-05-25T11:51:13.000Z</time>
      </trkpt>
      <trkpt lat="42.92789" lon="1.209">
        <ele>1023</ele>
        <time>2026-05-25T11:51:14.000Z</time>
      </trkpt>
      <trkpt lat="42.92787" lon="1.20904">
        <ele>1023</ele>
        <time>2026-05-25T11:51:15.000Z</time>
      </trkpt>
      <trkpt lat="42.92785" lon="1.20907">
        <ele>1023</ele>
        <time>2026-05-25T11:51:16.000Z</time>
      </trkpt>
      <trkpt lat="42.92783" lon="1.20911">
        <ele>1023</ele>
        <time>2026-05-25T11:51:17.000Z</time>
      </trkpt>
      <trkpt lat="42.92781" lon="1.20915">
        <ele>1023</ele>
        <time>2026-05-25T11:51:18.000Z</time>
      </trkpt>
      <trkpt lat="42.92779" lon="1.20918">
        <ele>1023</ele>
        <time>2026-05-25T11:51:19.000Z</time>
      </trkpt>
      <trkpt lat="42.92777" lon="1.20922">
        <ele>1024</ele>
        <time>2026-05-25T11:51:20.000Z</time>
      </trkpt>
      <trkpt lat="42.92775" lon="1.20926">
        <ele>1024</ele>
        <time>2026-05-25T11:51:21.000Z</time>
      </trkpt>
      <trkpt lat="42.92772" lon="1.2093">
        <ele>1024</ele>
        <time>2026-05-25T11:51:22.000Z</time>
      </trkpt>
      <trkpt lat="42.92769" lon="1.20933">
        <ele>1024</ele>
        <time>2026-05-25T11:51:23.000Z</time>
      </trkpt>
      <trkpt lat="42.92767" lon="1.20937">
        <ele>1025</ele>
        <time>2026-05-25T11:51:24.000Z</time>
      </trkpt>
      <trkpt lat="42.92765" lon="1.2094">
        <ele>1024</ele>
        <time>2026-05-25T11:51:25.000Z</time>
      </trkpt>
      <trkpt lat="42.92763" lon="1.20944">
        <ele>1025</ele>
        <time>2026-05-25T11:51:26.000Z</time>
      </trkpt>
      <trkpt lat="42.92761" lon="1.20948">
        <ele>1025</ele>
        <time>2026-05-25T11:51:27.000Z</time>
      </trkpt>
      <trkpt lat="42.92759" lon="1.20953">
        <ele>1025</ele>
        <time>2026-05-25T11:51:28.000Z</time>
      </trkpt>
      <trkpt lat="42.92756" lon="1.20956">
        <ele>1025</ele>
        <time>2026-05-25T11:51:29.000Z</time>
      </trkpt>
      <trkpt lat="42.92753" lon="1.20959">
        <ele>1025</ele>
        <time>2026-05-25T11:51:30.000Z</time>
      </trkpt>
      <trkpt lat="42.92751" lon="1.20962">
        <ele>1025</ele>
        <time>2026-05-25T11:51:31.000Z</time>
      </trkpt>
      <trkpt lat="42.92748" lon="1.20964">
        <ele>1025</ele>
        <time>2026-05-25T11:51:32.000Z</time>
      </trkpt>
      <trkpt lat="42.92745" lon="1.20967">
        <ele>1025</ele>
        <time>2026-05-25T11:51:33.000Z</time>
      </trkpt>
      <trkpt lat="42.92742" lon="1.20969">
        <ele>1025</ele>
        <time>2026-05-25T11:51:34.000Z</time>
      </trkpt>
      <trkpt lat="42.92739" lon="1.20971">
        <ele>1025</ele>
        <time>2026-05-25T11:51:35.000Z</time>
      </trkpt>
      <trkpt lat="42.92735" lon="1.20973">
        <ele>1025</ele>
        <time>2026-05-25T11:51:36.000Z</time>
      </trkpt>
      <trkpt lat="42.92732" lon="1.20974">
        <ele>1025</ele>
        <time>2026-05-25T11:51:37.000Z</time>
      </trkpt>
      <trkpt lat="42.92728" lon="1.20976">
        <ele>1024</ele>
        <time>2026-05-25T11:51:38.000Z</time>
      </trkpt>
      <trkpt lat="42.92724" lon="1.20979">
        <ele>1024</ele>
        <time>2026-05-25T11:51:39.000Z</time>
      </trkpt>
      <trkpt lat="42.92721" lon="1.20981">
        <ele>1024</ele>
        <time>2026-05-25T11:51:40.000Z</time>
      </trkpt>
      <trkpt lat="42.92716" lon="1.20984">
        <ele>1024</ele>
        <time>2026-05-25T11:51:41.000Z</time>
      </trkpt>
      <trkpt lat="42.92713" lon="1.20986">
        <ele>1024</ele>
        <time>2026-05-25T11:51:42.000Z</time>
      </trkpt>
      <trkpt lat="42.92709" lon="1.20989">
        <ele>1023</ele>
        <time>2026-05-25T11:51:43.000Z</time>
      </trkpt>
      <trkpt lat="42.92705" lon="1.20992">
        <ele>1023</ele>
        <time>2026-05-25T11:51:44.000Z</time>
      </trkpt>
      <trkpt lat="42.92701" lon="1.20995">
        <ele>1023</ele>
        <time>2026-05-25T11:51:45.000Z</time>
      </trkpt>
      <trkpt lat="42.92697" lon="1.20998">
        <ele>1022</ele>
        <time>2026-05-25T11:51:46.000Z</time>
      </trkpt>
      <trkpt lat="42.92693" lon="1.21">
        <ele>1022</ele>
        <time>2026-05-25T11:51:47.000Z</time>
      </trkpt>
      <trkpt lat="42.92688" lon="1.21003">
        <ele>1022</ele>
        <time>2026-05-25T11:51:48.000Z</time>
      </trkpt>
      <trkpt lat="42.92683" lon="1.21007">
        <ele>1022</ele>
        <time>2026-05-25T11:51:49.000Z</time>
      </trkpt>
      <trkpt lat="42.92678" lon="1.21011">
        <ele>1021</ele>
        <time>2026-05-25T11:51:50.000Z</time>
      </trkpt>
      <trkpt lat="42.92673" lon="1.21014">
        <ele>1021</ele>
        <time>2026-05-25T11:51:51.000Z</time>
      </trkpt>
      <trkpt lat="42.92668" lon="1.21019">
        <ele>1021</ele>
        <time>2026-05-25T11:51:52.000Z</time>
      </trkpt>
      <trkpt lat="42.92662" lon="1.21023">
        <ele>1021</ele>
        <time>2026-05-25T11:51:53.000Z</time>
      </trkpt>
      <trkpt lat="42.92657" lon="1.21028">
        <ele>1020</ele>
        <time>2026-05-25T11:51:54.000Z</time>
      </trkpt>
      <trkpt lat="42.92651" lon="1.21032">
        <ele>1020</ele>
        <time>2026-05-25T11:51:55.000Z</time>
      </trkpt>
      <trkpt lat="42.92645" lon="1.21037">
        <ele>1019</ele>
        <time>2026-05-25T11:51:56.000Z</time>
      </trkpt>
      <trkpt lat="42.92639" lon="1.21041">
        <ele>1018</ele>
        <time>2026-05-25T11:51:57.000Z</time>
      </trkpt>
      <trkpt lat="42.92632" lon="1.21046">
        <ele>1018</ele>
        <time>2026-05-25T11:51:58.000Z</time>
      </trkpt>
      <trkpt lat="42.92625" lon="1.21051">
        <ele>1017</ele>
        <time>2026-05-25T11:51:59.000Z</time>
      </trkpt>
      <trkpt lat="42.92618" lon="1.21055">
        <ele>1017</ele>
        <time>2026-05-25T11:52:00.000Z</time>
      </trkpt>
      <trkpt lat="42.92611" lon="1.2106">
        <ele>1016</ele>
        <time>2026-05-25T11:52:01.000Z</time>
      </trkpt>
      <trkpt lat="42.92603" lon="1.21065">
        <ele>1016</ele>
        <time>2026-05-25T11:52:02.000Z</time>
      </trkpt>
      <trkpt lat="42.92597" lon="1.21071">
        <ele>1015</ele>
        <time>2026-05-25T11:52:03.000Z</time>
      </trkpt>
      <trkpt lat="42.9259" lon="1.21078">
        <ele>1014</ele>
        <time>2026-05-25T11:52:04.000Z</time>
      </trkpt>
      <trkpt lat="42.92583" lon="1.21085">
        <ele>1013</ele>
        <time>2026-05-25T11:52:05.000Z</time>
      </trkpt>
      <trkpt lat="42.92575" lon="1.21092">
        <ele>1013</ele>
        <time>2026-05-25T11:52:06.000Z</time>
      </trkpt>
      <trkpt lat="42.92568" lon="1.21099">
        <ele>1012</ele>
        <time>2026-05-25T11:52:07.000Z</time>
      </trkpt>
      <trkpt lat="42.92561" lon="1.21106">
        <ele>1011</ele>
        <time>2026-05-25T11:52:08.000Z</time>
      </trkpt>
      <trkpt lat="42.92554" lon="1.21114">
        <ele>1010</ele>
        <time>2026-05-25T11:52:09.000Z</time>
      </trkpt>
      <trkpt lat="42.92547" lon="1.21122">
        <ele>1009</ele>
        <time>2026-05-25T11:52:10.000Z</time>
      </trkpt>
      <trkpt lat="42.9254" lon="1.21129">
        <ele>1008</ele>
        <time>2026-05-25T11:52:11.000Z</time>
      </trkpt>
      <trkpt lat="42.92532" lon="1.21136">
        <ele>1008</ele>
        <time>2026-05-25T11:52:12.000Z</time>
      </trkpt>
      <trkpt lat="42.92526" lon="1.21143">
        <ele>1007</ele>
        <time>2026-05-25T11:52:13.000Z</time>
      </trkpt>
      <trkpt lat="42.92519" lon="1.21152">
        <ele>1007</ele>
        <time>2026-05-25T11:52:14.000Z</time>
      </trkpt>
      <trkpt lat="42.92511" lon="1.21159">
        <ele>1006</ele>
        <time>2026-05-25T11:52:15.000Z</time>
      </trkpt>
      <trkpt lat="42.92504" lon="1.21167">
        <ele>1005</ele>
        <time>2026-05-25T11:52:16.000Z</time>
      </trkpt>
      <trkpt lat="42.92496" lon="1.21175">
        <ele>1004</ele>
        <time>2026-05-25T11:52:17.000Z</time>
      </trkpt>
      <trkpt lat="42.92489" lon="1.21181">
        <ele>1003</ele>
        <time>2026-05-25T11:52:18.000Z</time>
      </trkpt>
      <trkpt lat="42.92481" lon="1.21189">
        <ele>1002</ele>
        <time>2026-05-25T11:52:19.000Z</time>
      </trkpt>
      <trkpt lat="42.92473" lon="1.21196">
        <ele>1002</ele>
        <time>2026-05-25T11:52:20.000Z</time>
      </trkpt>
      <trkpt lat="42.92465" lon="1.21202">
        <ele>1001</ele>
        <time>2026-05-25T11:52:21.000Z</time>
      </trkpt>
      <trkpt lat="42.92457" lon="1.21209">
        <ele>1000</ele>
        <time>2026-05-25T11:52:22.000Z</time>
      </trkpt>
      <trkpt lat="42.92449" lon="1.21214">
        <ele>999</ele>
        <time>2026-05-25T11:52:23.000Z</time>
      </trkpt>
      <trkpt lat="42.9244" lon="1.21219">
        <ele>999</ele>
        <time>2026-05-25T11:52:24.000Z</time>
      </trkpt>
      <trkpt lat="42.92432" lon="1.21224">
        <ele>998</ele>
        <time>2026-05-25T11:52:25.000Z</time>
      </trkpt>
      <trkpt lat="42.92424" lon="1.21229">
        <ele>998</ele>
        <time>2026-05-25T11:52:26.000Z</time>
      </trkpt>
      <trkpt lat="42.92416" lon="1.21233">
        <ele>997</ele>
        <time>2026-05-25T11:52:27.000Z</time>
      </trkpt>
      <trkpt lat="42.92408" lon="1.21237">
        <ele>997</ele>
        <time>2026-05-25T11:52:28.000Z</time>
      </trkpt>
      <trkpt lat="42.924" lon="1.21241">
        <ele>996</ele>
        <time>2026-05-25T11:52:29.000Z</time>
      </trkpt>
      <trkpt lat="42.92392" lon="1.21246">
        <ele>996</ele>
        <time>2026-05-25T11:52:30.000Z</time>
      </trkpt>
      <trkpt lat="42.92384" lon="1.21249">
        <ele>996</ele>
        <time>2026-05-25T11:52:31.000Z</time>
      </trkpt>
      <trkpt lat="42.92376" lon="1.21253">
        <ele>996</ele>
        <time>2026-05-25T11:52:32.000Z</time>
      </trkpt>
      <trkpt lat="42.92369" lon="1.21256">
        <ele>996</ele>
        <time>2026-05-25T11:52:33.000Z</time>
      </trkpt>
      <trkpt lat="42.92361" lon="1.2126">
        <ele>996</ele>
        <time>2026-05-25T11:52:34.000Z</time>
      </trkpt>
      <trkpt lat="42.92354" lon="1.21264">
        <ele>995</ele>
        <time>2026-05-25T11:52:35.000Z</time>
      </trkpt>
      <trkpt lat="42.92346" lon="1.21267">
        <ele>995</ele>
        <time>2026-05-25T11:52:36.000Z</time>
      </trkpt>
      <trkpt lat="42.92339" lon="1.21271">
        <ele>994</ele>
        <time>2026-05-25T11:52:37.000Z</time>
      </trkpt>
      <trkpt lat="42.92331" lon="1.21273">
        <ele>993</ele>
        <time>2026-05-25T11:52:38.000Z</time>
      </trkpt>
      <trkpt lat="42.92324" lon="1.21274">
        <ele>993</ele>
        <time>2026-05-25T11:52:39.000Z</time>
      </trkpt>
      <trkpt lat="42.92316" lon="1.21274">
        <ele>992</ele>
        <time>2026-05-25T11:52:40.000Z</time>
      </trkpt>
      <trkpt lat="42.92308" lon="1.21276">
        <ele>992</ele>
        <time>2026-05-25T11:52:41.000Z</time>
      </trkpt>
      <trkpt lat="42.923" lon="1.21276">
        <ele>991</ele>
        <time>2026-05-25T11:52:42.000Z</time>
      </trkpt>
      <trkpt lat="42.92292" lon="1.21278">
        <ele>990</ele>
        <time>2026-05-25T11:52:43.000Z</time>
      </trkpt>
      <trkpt lat="42.92284" lon="1.21279">
        <ele>990</ele>
        <time>2026-05-25T11:52:44.000Z</time>
      </trkpt>
      <trkpt lat="42.92276" lon="1.21279">
        <ele>989</ele>
        <time>2026-05-25T11:52:45.000Z</time>
      </trkpt>
      <trkpt lat="42.92268" lon="1.2128">
        <ele>989</ele>
        <time>2026-05-25T11:52:46.000Z</time>
      </trkpt>
      <trkpt lat="42.92259" lon="1.2128">
        <ele>989</ele>
        <time>2026-05-25T11:52:47.000Z</time>
      </trkpt>
      <trkpt lat="42.92251" lon="1.21281">
        <ele>988</ele>
        <time>2026-05-25T11:52:48.000Z</time>
      </trkpt>
      <trkpt lat="42.92244" lon="1.21282">
        <ele>988</ele>
        <time>2026-05-25T11:52:49.000Z</time>
      </trkpt>
      <trkpt lat="42.92236" lon="1.21284">
        <ele>987</ele>
        <time>2026-05-25T11:52:50.000Z</time>
      </trkpt>
      <trkpt lat="42.92228" lon="1.21285">
        <ele>987</ele>
        <time>2026-05-25T11:52:51.000Z</time>
      </trkpt>
      <trkpt lat="42.9222" lon="1.21288">
        <ele>987</ele>
        <time>2026-05-25T11:52:52.000Z</time>
      </trkpt>
      <trkpt lat="42.92212" lon="1.21291">
        <ele>986</ele>
        <time>2026-05-25T11:52:53.000Z</time>
      </trkpt>
      <trkpt lat="42.92204" lon="1.21293">
        <ele>986</ele>
        <time>2026-05-25T11:52:54.000Z</time>
      </trkpt>
      <trkpt lat="42.92196" lon="1.21296">
        <ele>986</ele>
        <time>2026-05-25T11:52:55.000Z</time>
      </trkpt>
      <trkpt lat="42.92189" lon="1.213">
        <ele>986</ele>
        <time>2026-05-25T11:52:56.000Z</time>
      </trkpt>
      <trkpt lat="42.92181" lon="1.21303">
        <ele>985</ele>
        <time>2026-05-25T11:52:57.000Z</time>
      </trkpt>
      <trkpt lat="42.92173" lon="1.21305">
        <ele>985</ele>
        <time>2026-05-25T11:52:58.000Z</time>
      </trkpt>
      <trkpt lat="42.92165" lon="1.21309">
        <ele>985</ele>
        <time>2026-05-25T11:52:59.000Z</time>
      </trkpt>
      <trkpt lat="42.92157" lon="1.21313">
        <ele>985</ele>
        <time>2026-05-25T11:53:00.000Z</time>
      </trkpt>
      <trkpt lat="42.9215" lon="1.21318">
        <ele>984</ele>
        <time>2026-05-25T11:53:01.000Z</time>
      </trkpt>
      <trkpt lat="42.92144" lon="1.21324">
        <ele>984</ele>
        <time>2026-05-25T11:53:02.000Z</time>
      </trkpt>
      <trkpt lat="42.92137" lon="1.2133">
        <ele>983</ele>
        <time>2026-05-25T11:53:03.000Z</time>
      </trkpt>
      <trkpt lat="42.9213" lon="1.21336">
        <ele>983</ele>
        <time>2026-05-25T11:53:04.000Z</time>
      </trkpt>
      <trkpt lat="42.92122" lon="1.21342">
        <ele>982</ele>
        <time>2026-05-25T11:53:05.000Z</time>
      </trkpt>
      <trkpt lat="42.92116" lon="1.21349">
        <ele>981</ele>
        <time>2026-05-25T11:53:06.000Z</time>
      </trkpt>
      <trkpt lat="42.92109" lon="1.21355">
        <ele>980</ele>
        <time>2026-05-25T11:53:07.000Z</time>
      </trkpt>
      <trkpt lat="42.92101" lon="1.21363">
        <ele>979</ele>
        <time>2026-05-25T11:53:08.000Z</time>
      </trkpt>
      <trkpt lat="42.92094" lon="1.21371">
        <ele>979</ele>
        <time>2026-05-25T11:53:09.000Z</time>
      </trkpt>
      <trkpt lat="42.92087" lon="1.2138">
        <ele>979</ele>
        <time>2026-05-25T11:53:10.000Z</time>
      </trkpt>
      <trkpt lat="42.9208" lon="1.2139">
        <ele>979</ele>
        <time>2026-05-25T11:53:11.000Z</time>
      </trkpt>
      <trkpt lat="42.92073" lon="1.21399">
        <ele>979</ele>
        <time>2026-05-25T11:53:12.000Z</time>
      </trkpt>
      <trkpt lat="42.92067" lon="1.21409">
        <ele>978</ele>
        <time>2026-05-25T11:53:13.000Z</time>
      </trkpt>
      <trkpt lat="42.92061" lon="1.21419">
        <ele>978</ele>
        <time>2026-05-25T11:53:14.000Z</time>
      </trkpt>
      <trkpt lat="42.92055" lon="1.21431">
        <ele>977</ele>
        <time>2026-05-25T11:53:15.000Z</time>
      </trkpt>
      <trkpt lat="42.92049" lon="1.21441">
        <ele>977</ele>
        <time>2026-05-25T11:53:16.000Z</time>
      </trkpt>
      <trkpt lat="42.92043" lon="1.21451">
        <ele>975</ele>
        <time>2026-05-25T11:53:17.000Z</time>
      </trkpt>
      <trkpt lat="42.92037" lon="1.21461">
        <ele>975</ele>
        <time>2026-05-25T11:53:18.000Z</time>
      </trkpt>
      <trkpt lat="42.92032" lon="1.21472">
        <ele>973</ele>
        <time>2026-05-25T11:53:19.000Z</time>
      </trkpt>
      <trkpt lat="42.92026" lon="1.21483">
        <ele>973</ele>
        <time>2026-05-25T11:53:20.000Z</time>
      </trkpt>
      <trkpt lat="42.92021" lon="1.21494">
        <ele>971</ele>
        <time>2026-05-25T11:53:21.000Z</time>
      </trkpt>
      <trkpt lat="42.92016" lon="1.21505">
        <ele>971</ele>
        <time>2026-05-25T11:53:22.000Z</time>
      </trkpt>
      <trkpt lat="42.92011" lon="1.21516">
        <ele>970</ele>
        <time>2026-05-25T11:53:23.000Z</time>
      </trkpt>
      <trkpt lat="42.92006" lon="1.21527">
        <ele>969</ele>
        <time>2026-05-25T11:53:24.000Z</time>
      </trkpt>
      <trkpt lat="42.92" lon="1.21538">
        <ele>968</ele>
        <time>2026-05-25T11:53:25.000Z</time>
      </trkpt>
      <trkpt lat="42.91995" lon="1.21549">
        <ele>967</ele>
        <time>2026-05-25T11:53:26.000Z</time>
      </trkpt>
      <trkpt lat="42.91989" lon="1.21559">
        <ele>966</ele>
        <time>2026-05-25T11:53:27.000Z</time>
      </trkpt>
      <trkpt lat="42.91983" lon="1.21571">
        <ele>965</ele>
        <time>2026-05-25T11:53:28.000Z</time>
      </trkpt>
      <trkpt lat="42.91977" lon="1.21582">
        <ele>964</ele>
        <time>2026-05-25T11:53:29.000Z</time>
      </trkpt>
      <trkpt lat="42.91971" lon="1.21594">
        <ele>963</ele>
        <time>2026-05-25T11:53:30.000Z</time>
      </trkpt>
      <trkpt lat="42.91966" lon="1.21606">
        <ele>963</ele>
        <time>2026-05-25T11:53:31.000Z</time>
      </trkpt>
      <trkpt lat="42.9196" lon="1.21618">
        <ele>962</ele>
        <time>2026-05-25T11:53:32.000Z</time>
      </trkpt>
      <trkpt lat="42.91954" lon="1.21629">
        <ele>961</ele>
        <time>2026-05-25T11:53:33.000Z</time>
      </trkpt>
      <trkpt lat="42.91948" lon="1.2164">
        <ele>960</ele>
        <time>2026-05-25T11:53:34.000Z</time>
      </trkpt>
      <trkpt lat="42.91941" lon="1.21651">
        <ele>960</ele>
        <time>2026-05-25T11:53:35.000Z</time>
      </trkpt>
      <trkpt lat="42.91934" lon="1.2166">
        <ele>959</ele>
        <time>2026-05-25T11:53:36.000Z</time>
      </trkpt>
      <trkpt lat="42.91927" lon="1.21669">
        <ele>958</ele>
        <time>2026-05-25T11:53:37.000Z</time>
      </trkpt>
      <trkpt lat="42.91919" lon="1.21678">
        <ele>958</ele>
        <time>2026-05-25T11:53:38.000Z</time>
      </trkpt>
      <trkpt lat="42.91912" lon="1.21687">
        <ele>957</ele>
        <time>2026-05-25T11:53:39.000Z</time>
      </trkpt>
      <trkpt lat="42.91904" lon="1.21697">
        <ele>956</ele>
        <time>2026-05-25T11:53:40.000Z</time>
      </trkpt>
      <trkpt lat="42.91897" lon="1.21707">
        <ele>955</ele>
        <time>2026-05-25T11:53:41.000Z</time>
      </trkpt>
      <trkpt lat="42.91889" lon="1.21716">
        <ele>954</ele>
        <time>2026-05-25T11:53:42.000Z</time>
      </trkpt>
      <trkpt lat="42.91882" lon="1.21726">
        <ele>953</ele>
        <time>2026-05-25T11:53:43.000Z</time>
      </trkpt>
      <trkpt lat="42.91874" lon="1.21734">
        <ele>953</ele>
        <time>2026-05-25T11:53:44.000Z</time>
      </trkpt>
      <trkpt lat="42.91867" lon="1.21744">
        <ele>952</ele>
        <time>2026-05-25T11:53:45.000Z</time>
      </trkpt>
      <trkpt lat="42.91859" lon="1.21754">
        <ele>951</ele>
        <time>2026-05-25T11:53:46.000Z</time>
      </trkpt>
      <trkpt lat="42.91853" lon="1.21764">
        <ele>950</ele>
        <time>2026-05-25T11:53:47.000Z</time>
      </trkpt>
      <trkpt lat="42.91846" lon="1.21775">
        <ele>949</ele>
        <time>2026-05-25T11:53:48.000Z</time>
      </trkpt>
      <trkpt lat="42.9184" lon="1.21786">
        <ele>948</ele>
        <time>2026-05-25T11:53:49.000Z</time>
      </trkpt>
      <trkpt lat="42.91834" lon="1.21796">
        <ele>948</ele>
        <time>2026-05-25T11:53:50.000Z</time>
      </trkpt>
      <trkpt lat="42.91828" lon="1.21805">
        <ele>947</ele>
        <time>2026-05-25T11:53:51.000Z</time>
      </trkpt>
      <trkpt lat="42.91823" lon="1.21815">
        <ele>947</ele>
        <time>2026-05-25T11:53:52.000Z</time>
      </trkpt>
      <trkpt lat="42.91819" lon="1.21826">
        <ele>947</ele>
        <time>2026-05-25T11:53:53.000Z</time>
      </trkpt>
      <trkpt lat="42.91817" lon="1.21836">
        <ele>947</ele>
        <time>2026-05-25T11:53:54.000Z</time>
      </trkpt>
      <trkpt lat="42.91818" lon="1.21844">
        <ele>948</ele>
        <time>2026-05-25T11:53:55.000Z</time>
      </trkpt>
      <trkpt lat="42.9182" lon="1.2185">
        <ele>948</ele>
        <time>2026-05-25T11:53:56.000Z</time>
      </trkpt>
      <trkpt lat="42.91822" lon="1.21855">
        <ele>948</ele>
        <time>2026-05-25T11:53:57.000Z</time>
      </trkpt>
      <trkpt lat="42.91823" lon="1.2186">
        <ele>948</ele>
        <time>2026-05-25T11:53:58.000Z</time>
      </trkpt>
      <trkpt lat="42.91821" lon="1.21863">
        <ele>948</ele>
        <time>2026-05-25T11:53:59.000Z</time>
      </trkpt>
      <trkpt lat="42.9182" lon="1.21865">
        <ele>948</ele>
        <time>2026-05-25T11:54:00.000Z</time>
      </trkpt>
      <trkpt lat="42.91818" lon="1.21866">
        <ele>948</ele>
        <time>2026-05-25T11:54:01.000Z</time>
      </trkpt>
      <trkpt lat="42.91817" lon="1.21866">
        <ele>948</ele>
        <time>2026-05-25T11:54:02.000Z</time>
      </trkpt>
      <trkpt lat="42.91817" lon="1.21867">
        <ele>948</ele>
        <time>2026-05-25T11:54:03.000Z</time>
      </trkpt>
      <trkpt lat="42.91817" lon="1.21867">
        <ele>948</ele>
        <time>2026-05-25T11:54:04.000Z</time>
      </trkpt>
      <trkpt lat="42.91816" lon="1.21867">
        <ele>948</ele>
        <time>2026-05-25T11:54:05.000Z</time>
      </trkpt>
      <trkpt lat="42.91814" lon="1.21869">
        <ele>946</ele>
        <time>2026-05-25T11:54:19.000Z</time>
      </trkpt>
      <trkpt lat="42.91814" lon="1.2187">
        <ele>946</ele>
        <time>2026-05-25T11:54:20.000Z</time>
      </trkpt>
      <trkpt lat="42.91814" lon="1.2187">
        <ele>946</ele>
        <time>2026-05-25T11:54:21.000Z</time>
      </trkpt>
      <trkpt lat="42.91814" lon="1.21871">
        <ele>946</ele>
        <time>2026-05-25T11:54:22.000Z</time>
      </trkpt>
      <trkpt lat="42.91813" lon="1.21871">
        <ele>945</ele>
        <time>2026-05-25T11:54:23.000Z</time>
      </trkpt>
      <trkpt lat="42.91814" lon="1.21872">
        <ele>945</ele>
        <time>2026-05-25T11:54:24.000Z</time>
      </trkpt>
      <trkpt lat="42.91813" lon="1.21872">
        <ele>945</ele>
        <time>2026-05-25T11:54:25.000Z</time>
      </trkpt>
      <trkpt lat="42.91813" lon="1.21873">
        <ele>945</ele>
        <time>2026-05-25T11:54:26.000Z</time>
      </trkpt>
      <trkpt lat="42.91813" lon="1.21874">
        <ele>945</ele>
        <time>2026-05-25T11:54:27.000Z</time>
      </trkpt>
      <trkpt lat="42.91813" lon="1.21875">
        <ele>946</ele>
        <time>2026-05-25T11:54:28.000Z</time>
      </trkpt>
      <trkpt lat="42.91814" lon="1.21875">
        <ele>945</ele>
        <time>2026-05-25T11:54:29.000Z</time>
      </trkpt>
      <trkpt lat="42.91814" lon="1.21876">
        <ele>945</ele>
        <time>2026-05-25T11:54:30.000Z</time>
      </trkpt>
      <trkpt lat="42.91813" lon="1.21877">
        <ele>944</ele>
        <time>2026-05-25T11:54:31.000Z</time>
      </trkpt>
      <trkpt lat="42.91813" lon="1.21877">
        <ele>945</ele>
        <time>2026-05-25T11:54:32.000Z</time>
      </trkpt>
      <trkpt lat="42.91813" lon="1.21878">
        <ele>945</ele>
        <time>2026-05-25T11:54:33.000Z</time>
      </trkpt>
      <trkpt lat="42.91813" lon="1.21879">
        <ele>945</ele>
        <time>2026-05-25T11:54:34.000Z</time>
      </trkpt>
      <trkpt lat="42.91813" lon="1.21879">
        <ele>945</ele>
        <time>2026-05-25T11:54:35.000Z</time>
      </trkpt>
      <trkpt lat="42.91814" lon="1.21879">
        <ele>945</ele>
        <time>2026-05-25T11:54:36.000Z</time>
      </trkpt>
      <trkpt lat="42.91814" lon="1.21881">
        <ele>945</ele>
        <time>2026-05-25T11:54:37.000Z</time>
      </trkpt>
      <trkpt lat="42.91814" lon="1.21882">
        <ele>944</ele>
        <time>2026-05-25T11:54:38.000Z</time>
      </trkpt>
      <trkpt lat="42.91814" lon="1.21884">
        <ele>944</ele>
        <time>2026-05-25T11:54:39.000Z</time>
      </trkpt>
      <trkpt lat="42.91813" lon="1.21884">
        <ele>944</ele>
        <time>2026-05-25T11:54:40.000Z</time>
      </trkpt>
      <trkpt lat="42.91813" lon="1.21885">
        <ele>944</ele>
        <time>2026-05-25T11:54:41.000Z</time>
      </trkpt>
      <trkpt lat="42.91813" lon="1.21885">
        <ele>944</ele>
        <time>2026-05-25T11:54:42.000Z</time>
      </trkpt>
      <trkpt lat="42.91813" lon="1.21885">
        <ele>943</ele>
        <time>2026-05-25T11:54:43.000Z</time>
      </trkpt>
      <trkpt lat="42.91812" lon="1.21885">
        <ele>943</ele>
        <time>2026-05-25T11:54:44.000Z</time>
      </trkpt>
      <trkpt lat="42.91811" lon="1.21887">
        <ele>943</ele>
        <time>2026-05-25T11:54:45.000Z</time>
      </trkpt>
      <trkpt lat="42.91809" lon="1.21888">
        <ele>943</ele>
        <time>2026-05-25T11:54:46.000Z</time>
      </trkpt>
      <trkpt lat="42.91808" lon="1.21888">
        <ele>943</ele>
        <time>2026-05-25T11:54:47.000Z</time>
      </trkpt>
      <trkpt lat="42.91807" lon="1.21888">
        <ele>944</ele>
        <time>2026-05-25T11:54:48.000Z</time>
      </trkpt>
      <trkpt lat="42.91806" lon="1.21888">
        <ele>944</ele>
        <time>2026-05-25T11:54:49.000Z</time>
      </trkpt>
      <trkpt lat="42.91804" lon="1.21887">
        <ele>944</ele>
        <time>2026-05-25T11:54:50.000Z</time>
      </trkpt>
      <trkpt lat="42.91803" lon="1.21888">
        <ele>944</ele>
        <time>2026-05-25T11:54:51.000Z</time>
      </trkpt>
      <trkpt lat="42.91802" lon="1.21888">
        <ele>944</ele>
        <time>2026-05-25T11:54:52.000Z</time>
      </trkpt>
      <trkpt lat="42.918" lon="1.21888">
        <ele>943</ele>
        <time>2026-05-25T11:54:53.000Z</time>
      </trkpt>
      <trkpt lat="42.91798" lon="1.21888">
        <ele>943</ele>
        <time>2026-05-25T11:54:54.000Z</time>
      </trkpt>
      <trkpt lat="42.91797" lon="1.21888">
        <ele>943</ele>
        <time>2026-05-25T11:54:55.000Z</time>
      </trkpt>
      <trkpt lat="42.91796" lon="1.21888">
        <ele>942</ele>
        <time>2026-05-25T11:54:56.000Z</time>
      </trkpt>
      <trkpt lat="42.91795" lon="1.21887">
        <ele>942</ele>
        <time>2026-05-25T11:54:57.000Z</time>
      </trkpt>
      <trkpt lat="42.91794" lon="1.21887">
        <ele>942</ele>
        <time>2026-05-25T11:54:58.000Z</time>
      </trkpt>
      <trkpt lat="42.91793" lon="1.21887">
        <ele>942</ele>
        <time>2026-05-25T11:54:59.000Z</time>
      </trkpt>
      <trkpt lat="42.91792" lon="1.21888">
        <ele>941</ele>
        <time>2026-05-25T11:55:00.000Z</time>
      </trkpt>
      <trkpt lat="42.91791" lon="1.21888">
        <ele>942</ele>
        <time>2026-05-25T11:55:01.000Z</time>
      </trkpt>
      <trkpt lat="42.9179" lon="1.21889">
        <ele>941</ele>
        <time>2026-05-25T11:55:02.000Z</time>
      </trkpt>
      <trkpt lat="42.9179" lon="1.21889">
        <ele>942</ele>
        <time>2026-05-25T11:55:03.000Z</time>
      </trkpt>
      <trkpt lat="42.91789" lon="1.21889">
        <ele>941</ele>
        <time>2026-05-25T11:55:04.000Z</time>
      </trkpt>
      <trkpt lat="42.91788" lon="1.21889">
        <ele>941</ele>
        <time>2026-05-25T11:55:05.000Z</time>
      </trkpt>
      <trkpt lat="42.91788" lon="1.21889">
        <ele>941</ele>
        <time>2026-05-25T11:55:06.000Z</time>
      </trkpt>
      <trkpt lat="42.91788" lon="1.21889">
        <ele>940</ele>
        <time>2026-05-25T11:55:07.000Z</time>
      </trkpt>
      <trkpt lat="42.91788" lon="1.21889">
        <ele>940</ele>
        <time>2026-05-25T11:55:08.000Z</time>
      </trkpt>
      <trkpt lat="42.91787" lon="1.21889">
        <ele>940</ele>
        <time>2026-05-25T11:55:09.000Z</time>
      </trkpt>
      <trkpt lat="42.91787" lon="1.21889">
        <ele>940</ele>
        <time>2026-05-25T11:55:10.000Z</time>
      </trkpt>
      <trkpt lat="42.91786" lon="1.21889">
        <ele>940</ele>
        <time>2026-05-25T11:55:11.000Z</time>
      </trkpt>
      <trkpt lat="42.91786" lon="1.2189">
        <ele>940</ele>
        <time>2026-05-25T11:55:12.000Z</time>
      </trkpt>
      <trkpt lat="42.91785" lon="1.21891">
        <ele>941</ele>
        <time>2026-05-25T11:55:13.000Z</time>
      </trkpt>
      <trkpt lat="42.91785" lon="1.21891">
        <ele>941</ele>
        <time>2026-05-25T11:55:14.000Z</time>
      </trkpt>
      <trkpt lat="42.91785" lon="1.21891">
        <ele>940</ele>
        <time>2026-05-25T11:55:15.000Z</time>
      </trkpt>
      <trkpt lat="42.91785" lon="1.21891">
        <ele>940</ele>
        <time>2026-05-25T11:55:16.000Z</time>
      </trkpt>
      <trkpt lat="42.91784" lon="1.21891">
        <ele>939</ele>
        <time>2026-05-25T11:55:17.000Z</time>
      </trkpt>
      <trkpt lat="42.91783" lon="1.21891">
        <ele>939</ele>
        <time>2026-05-25T11:55:18.000Z</time>
      </trkpt>
      <trkpt lat="42.91782" lon="1.21891">
        <ele>940</ele>
        <time>2026-05-25T11:55:19.000Z</time>
      </trkpt>
      <trkpt lat="42.91782" lon="1.21892">
        <ele>940</ele>
        <time>2026-05-25T11:55:20.000Z</time>
      </trkpt>
      <trkpt lat="42.91781" lon="1.21892">
        <ele>941</ele>
        <time>2026-05-25T11:55:21.000Z</time>
      </trkpt>
      <trkpt lat="42.9178" lon="1.21892">
        <ele>941</ele>
        <time>2026-05-25T11:55:22.000Z</time>
      </trkpt>
      <trkpt lat="42.91779" lon="1.21892">
        <ele>941</ele>
        <time>2026-05-25T11:55:23.000Z</time>
      </trkpt>
      <trkpt lat="42.91779" lon="1.21892">
        <ele>941</ele>
        <time>2026-05-25T11:55:24.000Z</time>
      </trkpt>
      <trkpt lat="42.91779" lon="1.21892">
        <ele>941</ele>
        <time>2026-05-25T11:55:25.000Z</time>
      </trkpt>
      <trkpt lat="42.91779" lon="1.21893">
        <ele>939</ele>
        <time>2026-05-25T11:55:26.000Z</time>
      </trkpt>
      <trkpt lat="42.91779" lon="1.21893">
        <ele>939</ele>
        <time>2026-05-25T11:55:27.000Z</time>
      </trkpt>
      <trkpt lat="42.9178" lon="1.21893">
        <ele>940</ele>
        <time>2026-05-25T11:55:28.000Z</time>
      </trkpt>
      <trkpt lat="42.91779" lon="1.21893">
        <ele>939</ele>
        <time>2026-05-25T11:55:29.000Z</time>
      </trkpt>
      <trkpt lat="42.91779" lon="1.21893">
        <ele>938</ele>
        <time>2026-05-25T11:55:30.000Z</time>
      </trkpt>
      <trkpt lat="42.91778" lon="1.21893">
        <ele>938</ele>
        <time>2026-05-25T11:55:31.000Z</time>
      </trkpt>
      <trkpt lat="42.91777" lon="1.21893">
        <ele>938</ele>
        <time>2026-05-25T11:55:32.000Z</time>
      </trkpt>
      <trkpt lat="42.91776" lon="1.21894">
        <ele>938</ele>
        <time>2026-05-25T11:55:33.000Z</time>
      </trkpt>
      <trkpt lat="42.91774" lon="1.21894">
        <ele>938</ele>
        <time>2026-05-25T11:55:34.000Z</time>
      </trkpt>
      <trkpt lat="42.91773" lon="1.21894">
        <ele>938</ele>
        <time>2026-05-25T11:55:35.000Z</time>
      </trkpt>
      <trkpt lat="42.91772" lon="1.21895">
        <ele>938</ele>
        <time>2026-05-25T11:55:36.000Z</time>
      </trkpt>
      <trkpt lat="42.91771" lon="1.21896">
        <ele>938</ele>
        <time>2026-05-25T11:55:37.000Z</time>
      </trkpt>
      <trkpt lat="42.91771" lon="1.21896">
        <ele>938</ele>
        <time>2026-05-25T11:55:38.000Z</time>
      </trkpt>
      <trkpt lat="42.91771" lon="1.21896">
        <ele>938</ele>
        <time>2026-05-25T11:55:39.000Z</time>
      </trkpt>
      <trkpt lat="42.91769" lon="1.21896">
        <ele>937</ele>
        <time>2026-05-25T11:55:40.000Z</time>
      </trkpt>
      <trkpt lat="42.91769" lon="1.21897">
        <ele>936</ele>
        <time>2026-05-25T11:55:41.000Z</time>
      </trkpt>
      <trkpt lat="42.91768" lon="1.21897">
        <ele>935</ele>
        <time>2026-05-25T11:55:42.000Z</time>
      </trkpt>
      <trkpt lat="42.91767" lon="1.21897">
        <ele>936</ele>
        <time>2026-05-25T11:55:43.000Z</time>
      </trkpt>
      <trkpt lat="42.91767" lon="1.21898">
        <ele>936</ele>
        <time>2026-05-25T11:55:44.000Z</time>
      </trkpt>
      <trkpt lat="42.91763" lon="1.21901">
        <ele>933</ele>
        <time>2026-05-25T11:55:58.000Z</time>
      </trkpt>
      <trkpt lat="42.91763" lon="1.21901">
        <ele>933</ele>
        <time>2026-05-25T11:55:59.000Z</time>
      </trkpt>
      <trkpt lat="42.91762" lon="1.21901">
        <ele>934</ele>
        <time>2026-05-25T11:56:00.000Z</time>
      </trkpt>
      <trkpt lat="42.91762" lon="1.21901">
        <ele>934</ele>
        <time>2026-05-25T11:56:01.000Z</time>
      </trkpt>
      <trkpt lat="42.91762" lon="1.21901">
        <ele>933</ele>
        <time>2026-05-25T11:56:02.000Z</time>
      </trkpt>
      <trkpt lat="42.91761" lon="1.21902">
        <ele>934</ele>
        <time>2026-05-25T11:56:03.000Z</time>
      </trkpt>
      <trkpt lat="42.9176" lon="1.21903">
        <ele>934</ele>
        <time>2026-05-25T11:56:04.000Z</time>
      </trkpt>
      <trkpt lat="42.9176" lon="1.21903">
        <ele>934</ele>
        <time>2026-05-25T11:56:05.000Z</time>
      </trkpt>
      <trkpt lat="42.9176" lon="1.21903">
        <ele>933</ele>
        <time>2026-05-25T11:56:06.000Z</time>
      </trkpt>
      <trkpt lat="42.9176" lon="1.21904">
        <ele>933</ele>
        <time>2026-05-25T11:56:07.000Z</time>
      </trkpt>
      <trkpt lat="42.91759" lon="1.21905">
        <ele>935</ele>
        <time>2026-05-25T11:56:08.000Z</time>
      </trkpt>
      <trkpt lat="42.91758" lon="1.21905">
        <ele>935</ele>
        <time>2026-05-25T11:56:09.000Z</time>
      </trkpt>
      <trkpt lat="42.91757" lon="1.21905">
        <ele>935</ele>
        <time>2026-05-25T11:56:10.000Z</time>
      </trkpt>
      <trkpt lat="42.91756" lon="1.21905">
        <ele>935</ele>
        <time>2026-05-25T11:56:11.000Z</time>
      </trkpt>
      <trkpt lat="42.91756" lon="1.21905">
        <ele>935</ele>
        <time>2026-05-25T11:56:12.000Z</time>
      </trkpt>
      <trkpt lat="42.91756" lon="1.21905">
        <ele>935</ele>
        <time>2026-05-25T11:56:13.000Z</time>
      </trkpt>
      <trkpt lat="42.91754" lon="1.21905">
        <ele>934</ele>
        <time>2026-05-25T11:56:14.000Z</time>
      </trkpt>
      <trkpt lat="42.91754" lon="1.21906">
        <ele>934</ele>
        <time>2026-05-25T11:56:15.000Z</time>
      </trkpt>
      <trkpt lat="42.91752" lon="1.21906">
        <ele>934</ele>
        <time>2026-05-25T11:56:16.000Z</time>
      </trkpt>
      <trkpt lat="42.91752" lon="1.21907">
        <ele>934</ele>
        <time>2026-05-25T11:56:17.000Z</time>
      </trkpt>
      <trkpt lat="42.91751" lon="1.21907">
        <ele>934</ele>
        <time>2026-05-25T11:56:18.000Z</time>
      </trkpt>
      <trkpt lat="42.91749" lon="1.21908">
        <ele>933</ele>
        <time>2026-05-25T11:56:19.000Z</time>
      </trkpt>
      <trkpt lat="42.91748" lon="1.21908">
        <ele>933</ele>
        <time>2026-05-25T11:56:20.000Z</time>
      </trkpt>
      <trkpt lat="42.91747" lon="1.21908">
        <ele>932</ele>
        <time>2026-05-25T11:56:21.000Z</time>
      </trkpt>
      <trkpt lat="42.91747" lon="1.21908">
        <ele>932</ele>
        <time>2026-05-25T11:56:22.000Z</time>
      </trkpt>
      <trkpt lat="42.91747" lon="1.21908">
        <ele>931</ele>
        <time>2026-05-25T11:56:23.000Z</time>
      </trkpt>
      <trkpt lat="42.91747" lon="1.21908">
        <ele>931</ele>
        <time>2026-05-25T11:56:24.000Z</time>
      </trkpt>
      <trkpt lat="42.91747" lon="1.21908">
        <ele>932</ele>
        <time>2026-05-25T11:56:25.000Z</time>
      </trkpt>
      <trkpt lat="42.91746" lon="1.21908">
        <ele>931</ele>
        <time>2026-05-25T11:56:26.000Z</time>
      </trkpt>
      <trkpt lat="42.91745" lon="1.21908">
        <ele>931</ele>
        <time>2026-05-25T11:56:27.000Z</time>
      </trkpt>
      <trkpt lat="42.91745" lon="1.21908">
        <ele>931</ele>
        <time>2026-05-25T11:56:28.000Z</time>
      </trkpt>
      <trkpt lat="42.91745" lon="1.21908">
        <ele>930</ele>
        <time>2026-05-25T11:56:29.000Z</time>
      </trkpt>
      <trkpt lat="42.91745" lon="1.21907">
        <ele>931</ele>
        <time>2026-05-25T11:56:30.000Z</time>
      </trkpt>
      <trkpt lat="42.91744" lon="1.21907">
        <ele>931</ele>
        <time>2026-05-25T11:56:31.000Z</time>
      </trkpt>
      <trkpt lat="42.91744" lon="1.21907">
        <ele>931</ele>
        <time>2026-05-25T11:56:32.000Z</time>
      </trkpt>
      <trkpt lat="42.91744" lon="1.21907">
        <ele>930</ele>
        <time>2026-05-25T11:56:33.000Z</time>
      </trkpt>
      <trkpt lat="42.91743" lon="1.21908">
        <ele>929</ele>
        <time>2026-05-25T11:56:34.000Z</time>
      </trkpt>
      <trkpt lat="42.91742" lon="1.21908">
        <ele>929</ele>
        <time>2026-05-25T11:56:35.000Z</time>
      </trkpt>
      <trkpt lat="42.91742" lon="1.21908">
        <ele>930</ele>
        <time>2026-05-25T11:56:36.000Z</time>
      </trkpt>
      <trkpt lat="42.91742" lon="1.21909">
        <ele>929</ele>
        <time>2026-05-25T11:56:37.000Z</time>
      </trkpt>
      <trkpt lat="42.91741" lon="1.2191">
        <ele>929</ele>
        <time>2026-05-25T11:56:38.000Z</time>
      </trkpt>
      <trkpt lat="42.9174" lon="1.21911">
        <ele>928</ele>
        <time>2026-05-25T11:56:39.000Z</time>
      </trkpt>
      <trkpt lat="42.9174" lon="1.2191">
        <ele>928</ele>
        <time>2026-05-25T11:56:40.000Z</time>
      </trkpt>
      <trkpt lat="42.9174" lon="1.2191">
        <ele>928</ele>
        <time>2026-05-25T11:56:41.000Z</time>
      </trkpt>
      <trkpt lat="42.91739" lon="1.21909">
        <ele>928</ele>
        <time>2026-05-25T11:56:42.000Z</time>
      </trkpt>
      <trkpt lat="42.91739" lon="1.2191">
        <ele>929</ele>
        <time>2026-05-25T11:56:43.000Z</time>
      </trkpt>
      <trkpt lat="42.91738" lon="1.2191">
        <ele>928</ele>
        <time>2026-05-25T11:56:44.000Z</time>
      </trkpt>
      <trkpt lat="42.91737" lon="1.21911">
        <ele>928</ele>
        <time>2026-05-25T11:56:45.000Z</time>
      </trkpt>
      <trkpt lat="42.91737" lon="1.21911">
        <ele>927</ele>
        <time>2026-05-25T11:56:46.000Z</time>
      </trkpt>
      <trkpt lat="42.91736" lon="1.21911">
        <ele>926</ele>
        <time>2026-05-25T11:56:47.000Z</time>
      </trkpt>
      <trkpt lat="42.91736" lon="1.21911">
        <ele>926</ele>
        <time>2026-05-25T11:56:48.000Z</time>
      </trkpt>
      <trkpt lat="42.91735" lon="1.21911">
        <ele>926</ele>
        <time>2026-05-25T11:56:49.000Z</time>
      </trkpt>
      <trkpt lat="42.91734" lon="1.21912">
        <ele>925</ele>
        <time>2026-05-25T11:56:50.000Z</time>
      </trkpt>
      <trkpt lat="42.91734" lon="1.21913">
        <ele>925</ele>
        <time>2026-05-25T11:56:51.000Z</time>
      </trkpt>
      <trkpt lat="42.91733" lon="1.21914">
        <ele>925</ele>
        <time>2026-05-25T11:56:52.000Z</time>
      </trkpt>
      <trkpt lat="42.91732" lon="1.21915">
        <ele>925</ele>
        <time>2026-05-25T11:56:53.000Z</time>
      </trkpt>
      <trkpt lat="42.9173" lon="1.21915">
        <ele>924</ele>
        <time>2026-05-25T11:56:54.000Z</time>
      </trkpt>
      <trkpt lat="42.9173" lon="1.21915">
        <ele>923</ele>
        <time>2026-05-25T11:56:55.000Z</time>
      </trkpt>
      <trkpt lat="42.9173" lon="1.21915">
        <ele>923</ele>
        <time>2026-05-25T11:56:56.000Z</time>
      </trkpt>
      <trkpt lat="42.9173" lon="1.21915">
        <ele>923</ele>
        <time>2026-05-25T11:56:57.000Z</time>
      </trkpt>
      <trkpt lat="42.9173" lon="1.21915">
        <ele>923</ele>
        <time>2026-05-25T11:56:58.000Z</time>
      </trkpt>
      <trkpt lat="42.9173" lon="1.21915">
        <ele>923</ele>
        <time>2026-05-25T11:56:59.000Z</time>
      </trkpt>
      <trkpt lat="42.9173" lon="1.21915">
        <ele>923</ele>
        <time>2026-05-25T11:57:00.000Z</time>
      </trkpt>
      <trkpt lat="42.9173" lon="1.21915">
        <ele>923</ele>
        <time>2026-05-25T11:57:01.000Z</time>
      </trkpt>
      <trkpt lat="42.9173" lon="1.21915">
        <ele>923</ele>
        <time>2026-05-25T11:57:02.000Z</time>
      </trkpt>
      <trkpt lat="42.9173" lon="1.21915">
        <ele>923</ele>
        <time>2026-05-25T11:57:03.000Z</time>
      </trkpt>
      <trkpt lat="42.91729" lon="1.21915">
        <ele>923</ele>
        <time>2026-05-25T11:57:04.000Z</time>
      </trkpt>
      <trkpt lat="42.91728" lon="1.21916">
        <ele>923</ele>
        <time>2026-05-25T11:57:05.000Z</time>
      </trkpt>
      <trkpt lat="42.91727" lon="1.21917">
        <ele>923</ele>
        <time>2026-05-25T11:57:06.000Z</time>
      </trkpt>
      <trkpt lat="42.91725" lon="1.21918">
        <ele>923</ele>
        <time>2026-05-25T11:57:07.000Z</time>
      </trkpt>
      <trkpt lat="42.91724" lon="1.21918">
        <ele>923</ele>
        <time>2026-05-25T11:57:08.000Z</time>
      </trkpt>
      <trkpt lat="42.91722" lon="1.21918">
        <ele>923</ele>
        <time>2026-05-25T11:57:09.000Z</time>
      </trkpt>
      <trkpt lat="42.91719" lon="1.21919">
        <ele>923</ele>
        <time>2026-05-25T11:57:10.000Z</time>
      </trkpt>
      <trkpt lat="42.91716" lon="1.21919">
        <ele>922</ele>
        <time>2026-05-25T11:57:11.000Z</time>
      </trkpt>
      <trkpt lat="42.91712" lon="1.21919">
        <ele>921</ele>
        <time>2026-05-25T11:57:12.000Z</time>
      </trkpt>
      <trkpt lat="42.91709" lon="1.21919">
        <ele>921</ele>
        <time>2026-05-25T11:57:13.000Z</time>
      </trkpt>
      <trkpt lat="42.91705" lon="1.2192">
        <ele>919</ele>
        <time>2026-05-25T11:57:14.000Z</time>
      </trkpt>
      <trkpt lat="42.91702" lon="1.21922">
        <ele>919</ele>
        <time>2026-05-25T11:57:15.000Z</time>
      </trkpt>
      <trkpt lat="42.917" lon="1.21922">
        <ele>918</ele>
        <time>2026-05-25T11:57:16.000Z</time>
      </trkpt>
      <trkpt lat="42.91697" lon="1.21921">
        <ele>917</ele>
        <time>2026-05-25T11:57:17.000Z</time>
      </trkpt>
      <trkpt lat="42.91693" lon="1.21923">
        <ele>917</ele>
        <time>2026-05-25T11:57:18.000Z</time>
      </trkpt>
      <trkpt lat="42.9169" lon="1.21924">
        <ele>916</ele>
        <time>2026-05-25T11:57:19.000Z</time>
      </trkpt>
      <trkpt lat="42.91688" lon="1.21925">
        <ele>915</ele>
        <time>2026-05-25T11:57:20.000Z</time>
      </trkpt>
      <trkpt lat="42.91685" lon="1.21926">
        <ele>915</ele>
        <time>2026-05-25T11:57:21.000Z</time>
      </trkpt>
      <trkpt lat="42.91682" lon="1.21927">
        <ele>914</ele>
        <time>2026-05-25T11:57:22.000Z</time>
      </trkpt>
      <trkpt lat="42.91679" lon="1.21928">
        <ele>913</ele>
        <time>2026-05-25T11:57:23.000Z</time>
      </trkpt>
      <trkpt lat="42.91676" lon="1.2193">
        <ele>913</ele>
        <time>2026-05-25T11:57:24.000Z</time>
      </trkpt>
      <trkpt lat="42.91673" lon="1.21932">
        <ele>912</ele>
        <time>2026-05-25T11:57:25.000Z</time>
      </trkpt>
      <trkpt lat="42.9167" lon="1.21934">
        <ele>911</ele>
        <time>2026-05-25T11:57:26.000Z</time>
      </trkpt>
      <trkpt lat="42.91668" lon="1.21936">
        <ele>911</ele>
        <time>2026-05-25T11:57:27.000Z</time>
      </trkpt>
      <trkpt lat="42.91665" lon="1.21938">
        <ele>911</ele>
        <time>2026-05-25T11:57:28.000Z</time>
      </trkpt>
      <trkpt lat="42.91663" lon="1.21941">
        <ele>909</ele>
        <time>2026-05-25T11:57:29.000Z</time>
      </trkpt>
      <trkpt lat="42.91662" lon="1.21943">
        <ele>909</ele>
        <time>2026-05-25T11:57:30.000Z</time>
      </trkpt>
      <trkpt lat="42.91661" lon="1.21944">
        <ele>908</ele>
        <time>2026-05-25T11:57:31.000Z</time>
      </trkpt>
      <trkpt lat="42.91659" lon="1.21946">
        <ele>907</ele>
        <time>2026-05-25T11:57:32.000Z</time>
      </trkpt>
      <trkpt lat="42.91657" lon="1.21947">
        <ele>907</ele>
        <time>2026-05-25T11:57:33.000Z</time>
      </trkpt>
      <trkpt lat="42.91655" lon="1.21949">
        <ele>906</ele>
        <time>2026-05-25T11:57:34.000Z</time>
      </trkpt>
      <trkpt lat="42.91652" lon="1.21951">
        <ele>905</ele>
        <time>2026-05-25T11:57:35.000Z</time>
      </trkpt>
      <trkpt lat="42.9165" lon="1.21952">
        <ele>905</ele>
        <time>2026-05-25T11:57:36.000Z</time>
      </trkpt>
      <trkpt lat="42.91647" lon="1.21954">
        <ele>904</ele>
        <time>2026-05-25T11:57:37.000Z</time>
      </trkpt>
      <trkpt lat="42.91644" lon="1.21956">
        <ele>904</ele>
        <time>2026-05-25T11:57:38.000Z</time>
      </trkpt>
      <trkpt lat="42.91643" lon="1.21958">
        <ele>903</ele>
        <time>2026-05-25T11:57:39.000Z</time>
      </trkpt>
      <trkpt lat="42.9164" lon="1.2196">
        <ele>903</ele>
        <time>2026-05-25T11:57:40.000Z</time>
      </trkpt>
      <trkpt lat="42.91637" lon="1.21961">
        <ele>903</ele>
        <time>2026-05-25T11:57:41.000Z</time>
      </trkpt>
      <trkpt lat="42.91635" lon="1.21964">
        <ele>903</ele>
        <time>2026-05-25T11:57:42.000Z</time>
      </trkpt>
      <trkpt lat="42.91633" lon="1.21965">
        <ele>903</ele>
        <time>2026-05-25T11:57:43.000Z</time>
      </trkpt>
      <trkpt lat="42.91632" lon="1.21964">
        <ele>903</ele>
        <time>2026-05-25T11:57:44.000Z</time>
      </trkpt>
      <trkpt lat="42.9163" lon="1.21966">
        <ele>903</ele>
        <time>2026-05-25T11:57:45.000Z</time>
      </trkpt>
      <trkpt lat="42.91628" lon="1.21967">
        <ele>902</ele>
        <time>2026-05-25T11:57:46.000Z</time>
      </trkpt>
      <trkpt lat="42.91626" lon="1.21968">
        <ele>901</ele>
        <time>2026-05-25T11:57:47.000Z</time>
      </trkpt>
      <trkpt lat="42.91625" lon="1.21969">
        <ele>901</ele>
        <time>2026-05-25T11:57:48.000Z</time>
      </trkpt>
      <trkpt lat="42.91622" lon="1.21971">
        <ele>901</ele>
        <time>2026-05-25T11:57:49.000Z</time>
      </trkpt>
      <trkpt lat="42.91621" lon="1.21972">
        <ele>901</ele>
        <time>2026-05-25T11:57:50.000Z</time>
      </trkpt>
      <trkpt lat="42.91619" lon="1.21972">
        <ele>900</ele>
        <time>2026-05-25T11:57:51.000Z</time>
      </trkpt>
      <trkpt lat="42.91618" lon="1.21972">
        <ele>900</ele>
        <time>2026-05-25T11:57:52.000Z</time>
      </trkpt>
      <trkpt lat="42.91617" lon="1.21972">
        <ele>899</ele>
        <time>2026-05-25T11:57:53.000Z</time>
      </trkpt>
      <trkpt lat="42.91617" lon="1.21972">
        <ele>897</ele>
        <time>2026-05-25T11:57:54.000Z</time>
      </trkpt>
      <trkpt lat="42.91616" lon="1.21972">
        <ele>897</ele>
        <time>2026-05-25T11:58:19.000Z</time>
      </trkpt>
      <trkpt lat="42.91615" lon="1.21973">
        <ele>896</ele>
        <time>2026-05-25T11:58:20.000Z</time>
      </trkpt>
      <trkpt lat="42.91614" lon="1.21973">
        <ele>896</ele>
        <time>2026-05-25T11:58:21.000Z</time>
      </trkpt>
      <trkpt lat="42.91612" lon="1.21974">
        <ele>896</ele>
        <time>2026-05-25T11:58:22.000Z</time>
      </trkpt>
      <trkpt lat="42.91609" lon="1.21974">
        <ele>896</ele>
        <time>2026-05-25T11:58:23.000Z</time>
      </trkpt>
      <trkpt lat="42.91607" lon="1.21975">
        <ele>895</ele>
        <time>2026-05-25T11:58:24.000Z</time>
      </trkpt>
      <trkpt lat="42.91604" lon="1.21975">
        <ele>895</ele>
        <time>2026-05-25T11:58:25.000Z</time>
      </trkpt>
      <trkpt lat="42.91601" lon="1.21976">
        <ele>895</ele>
        <time>2026-05-25T11:58:26.000Z</time>
      </trkpt>
      <trkpt lat="42.91599" lon="1.21976">
        <ele>895</ele>
        <time>2026-05-25T11:58:27.000Z</time>
      </trkpt>
      <trkpt lat="42.91597" lon="1.21976">
        <ele>894</ele>
        <time>2026-05-25T11:58:28.000Z</time>
      </trkpt>
      <trkpt lat="42.91595" lon="1.21977">
        <ele>894</ele>
        <time>2026-05-25T11:58:29.000Z</time>
      </trkpt>
      <trkpt lat="42.91594" lon="1.21977">
        <ele>894</ele>
        <time>2026-05-25T11:58:30.000Z</time>
      </trkpt>
      <trkpt lat="42.91594" lon="1.21977">
        <ele>893</ele>
        <time>2026-05-25T11:58:31.000Z</time>
      </trkpt>
      <trkpt lat="42.91594" lon="1.21977">
        <ele>893</ele>
        <time>2026-05-25T11:58:32.000Z</time>
      </trkpt>
      <trkpt lat="42.91594" lon="1.21979">
        <ele>893</ele>
        <time>2026-05-25T11:58:33.000Z</time>
      </trkpt>
      <trkpt lat="42.91593" lon="1.21979">
        <ele>892</ele>
        <time>2026-05-25T11:58:34.000Z</time>
      </trkpt>
      <trkpt lat="42.91593" lon="1.2198">
        <ele>891</ele>
        <time>2026-05-25T11:58:35.000Z</time>
      </trkpt>
      <trkpt lat="42.91592" lon="1.21981">
        <ele>890</ele>
        <time>2026-05-25T11:58:36.000Z</time>
      </trkpt>
      <trkpt lat="42.91592" lon="1.21981">
        <ele>889</ele>
        <time>2026-05-25T11:58:37.000Z</time>
      </trkpt>
      <trkpt lat="42.91592" lon="1.21981">
        <ele>889</ele>
        <time>2026-05-25T11:58:38.000Z</time>
      </trkpt>
      <trkpt lat="42.91591" lon="1.21982">
        <ele>889</ele>
        <time>2026-05-25T11:58:39.000Z</time>
      </trkpt>
      <trkpt lat="42.91591" lon="1.21983">
        <ele>889</ele>
        <time>2026-05-25T11:58:40.000Z</time>
      </trkpt>
      <trkpt lat="42.91591" lon="1.21983">
        <ele>888</ele>
        <time>2026-05-25T11:58:41.000Z</time>
      </trkpt>
      <trkpt lat="42.9159" lon="1.21983">
        <ele>887</ele>
        <time>2026-05-25T11:58:42.000Z</time>
      </trkpt>
      <trkpt lat="42.91589" lon="1.21984">
        <ele>886</ele>
        <time>2026-05-25T11:58:43.000Z</time>
      </trkpt>
      <trkpt lat="42.91588" lon="1.21984">
        <ele>887</ele>
        <time>2026-05-25T11:58:44.000Z</time>
      </trkpt>
      <trkpt lat="42.91588" lon="1.21984">
        <ele>886</ele>
        <time>2026-05-25T11:58:45.000Z</time>
      </trkpt>
      <trkpt lat="42.91588" lon="1.21985">
        <ele>886</ele>
        <time>2026-05-25T11:58:46.000Z</time>
      </trkpt>
      <trkpt lat="42.91588" lon="1.21984">
        <ele>885</ele>
        <time>2026-05-25T11:58:47.000Z</time>
      </trkpt>
      <trkpt lat="42.91588" lon="1.21984">
        <ele>884</ele>
        <time>2026-05-25T11:58:48.000Z</time>
      </trkpt>
      <trkpt lat="42.91587" lon="1.21983">
        <ele>883</ele>
        <time>2026-05-25T11:58:49.000Z</time>
      </trkpt>
      <trkpt lat="42.91586" lon="1.21982">
        <ele>881</ele>
        <time>2026-05-25T11:58:50.000Z</time>
      </trkpt>
      <trkpt lat="42.91585" lon="1.21982">
        <ele>880</ele>
        <time>2026-05-25T11:58:51.000Z</time>
      </trkpt>
      <trkpt lat="42.91584" lon="1.21981">
        <ele>879</ele>
        <time>2026-05-25T11:58:52.000Z</time>
      </trkpt>
      <trkpt lat="42.91582" lon="1.21981">
        <ele>878</ele>
        <time>2026-05-25T11:58:53.000Z</time>
      </trkpt>
      <trkpt lat="42.9158" lon="1.21981">
        <ele>878</ele>
        <time>2026-05-25T11:58:54.000Z</time>
      </trkpt>
      <trkpt lat="42.91579" lon="1.21981">
        <ele>878</ele>
        <time>2026-05-25T11:58:55.000Z</time>
      </trkpt>
      <trkpt lat="42.91577" lon="1.2198">
        <ele>877</ele>
        <time>2026-05-25T11:58:56.000Z</time>
      </trkpt>
      <trkpt lat="42.91575" lon="1.2198">
        <ele>877</ele>
        <time>2026-05-25T11:58:57.000Z</time>
      </trkpt>
      <trkpt lat="42.91573" lon="1.2198">
        <ele>877</ele>
        <time>2026-05-25T11:58:58.000Z</time>
      </trkpt>
      <trkpt lat="42.91571" lon="1.21981">
        <ele>876</ele>
        <time>2026-05-25T11:58:59.000Z</time>
      </trkpt>
      <trkpt lat="42.91569" lon="1.21981">
        <ele>875</ele>
        <time>2026-05-25T11:59:00.000Z</time>
      </trkpt>
      <trkpt lat="42.91567" lon="1.21981">
        <ele>875</ele>
        <time>2026-05-25T11:59:01.000Z</time>
      </trkpt>
      <trkpt lat="42.91566" lon="1.21982">
        <ele>875</ele>
        <time>2026-05-25T11:59:02.000Z</time>
      </trkpt>
      <trkpt lat="42.91564" lon="1.21983">
        <ele>875</ele>
        <time>2026-05-25T11:59:03.000Z</time>
      </trkpt>
      <trkpt lat="42.91563" lon="1.21984">
        <ele>874</ele>
        <time>2026-05-25T11:59:04.000Z</time>
      </trkpt>
      <trkpt lat="42.91561" lon="1.21983">
        <ele>874</ele>
        <time>2026-05-25T11:59:05.000Z</time>
      </trkpt>
      <trkpt lat="42.91559" lon="1.21984">
        <ele>874</ele>
        <time>2026-05-25T11:59:06.000Z</time>
      </trkpt>
      <trkpt lat="42.91557" lon="1.21985">
        <ele>873</ele>
        <time>2026-05-25T11:59:07.000Z</time>
      </trkpt>
      <trkpt lat="42.91554" lon="1.21985">
        <ele>873</ele>
        <time>2026-05-25T11:59:08.000Z</time>
      </trkpt>
      <trkpt lat="42.91552" lon="1.21987">
        <ele>873</ele>
        <time>2026-05-25T11:59:09.000Z</time>
      </trkpt>
      <trkpt lat="42.9155" lon="1.21988">
        <ele>872</ele>
        <time>2026-05-25T11:59:10.000Z</time>
      </trkpt>
      <trkpt lat="42.91548" lon="1.2199">
        <ele>871</ele>
        <time>2026-05-25T11:59:11.000Z</time>
      </trkpt>
      <trkpt lat="42.91546" lon="1.21992">
        <ele>870</ele>
        <time>2026-05-25T11:59:12.000Z</time>
      </trkpt>
      <trkpt lat="42.91544" lon="1.21993">
        <ele>869</ele>
        <time>2026-05-25T11:59:13.000Z</time>
      </trkpt>
      <trkpt lat="42.91542" lon="1.21996">
        <ele>868</ele>
        <time>2026-05-25T11:59:14.000Z</time>
      </trkpt>
      <trkpt lat="42.9154" lon="1.21998">
        <ele>868</ele>
        <time>2026-05-25T11:59:15.000Z</time>
      </trkpt>
      <trkpt lat="42.91539" lon="1.22">
        <ele>867</ele>
        <time>2026-05-25T11:59:16.000Z</time>
      </trkpt>
      <trkpt lat="42.91537" lon="1.22001">
        <ele>866</ele>
        <time>2026-05-25T11:59:17.000Z</time>
      </trkpt>
      <trkpt lat="42.91536" lon="1.22003">
        <ele>865</ele>
        <time>2026-05-25T11:59:18.000Z</time>
      </trkpt>
      <trkpt lat="42.91534" lon="1.22004">
        <ele>864</ele>
        <time>2026-05-25T11:59:19.000Z</time>
      </trkpt>
      <trkpt lat="42.91533" lon="1.22005">
        <ele>863</ele>
        <time>2026-05-25T11:59:20.000Z</time>
      </trkpt>
      <trkpt lat="42.91532" lon="1.22005">
        <ele>862</ele>
        <time>2026-05-25T11:59:21.000Z</time>
      </trkpt>
      <trkpt lat="42.91531" lon="1.22006">
        <ele>861</ele>
        <time>2026-05-25T11:59:22.000Z</time>
      </trkpt>
      <trkpt lat="42.91531" lon="1.22006">
        <ele>860</ele>
        <time>2026-05-25T11:59:23.000Z</time>
      </trkpt>
      <trkpt lat="42.91532" lon="1.22006">
        <ele>860</ele>
        <time>2026-05-25T11:59:24.000Z</time>
      </trkpt>
      <trkpt lat="42.91533" lon="1.22005">
        <ele>860</ele>
        <time>2026-05-25T11:59:25.000Z</time>
      </trkpt>
      <trkpt lat="42.91532" lon="1.22004">
        <ele>859</ele>
        <time>2026-05-25T11:59:26.000Z</time>
      </trkpt>
      <trkpt lat="42.91534" lon="1.22004">
        <ele>859</ele>
        <time>2026-05-25T11:59:27.000Z</time>
      </trkpt>
      <trkpt lat="42.91533" lon="1.22004">
        <ele>859</ele>
        <time>2026-05-25T11:59:28.000Z</time>
      </trkpt>
      <trkpt lat="42.91533" lon="1.22004">
        <ele>859</ele>
        <time>2026-05-25T11:59:29.000Z</time>
      </trkpt>
      <trkpt lat="42.91532" lon="1.22005">
        <ele>858</ele>
        <time>2026-05-25T11:59:30.000Z</time>
      </trkpt>
      <trkpt lat="42.91532" lon="1.22005">
        <ele>858</ele>
        <time>2026-05-25T11:59:31.000Z</time>
      </trkpt>
      <trkpt lat="42.91533" lon="1.22003">
        <ele>858</ele>
        <time>2026-05-25T11:59:32.000Z</time>
      </trkpt>
      <trkpt lat="42.91533" lon="1.22003">
        <ele>857</ele>
        <time>2026-05-25T11:59:33.000Z</time>
      </trkpt>
      <trkpt lat="42.91532" lon="1.22002">
        <ele>857</ele>
        <time>2026-05-25T11:59:34.000Z</time>
      </trkpt>
      <trkpt lat="42.91532" lon="1.22003">
        <ele>857</ele>
        <time>2026-05-25T11:59:35.000Z</time>
      </trkpt>
      <trkpt lat="42.91532" lon="1.22002">
        <ele>856</ele>
        <time>2026-05-25T11:59:36.000Z</time>
      </trkpt>
      <trkpt lat="42.91532" lon="1.22002">
        <ele>856</ele>
        <time>2026-05-25T11:59:37.000Z</time>
      </trkpt>
      <trkpt lat="42.91532" lon="1.22002">
        <ele>856</ele>
        <time>2026-05-25T11:59:38.000Z</time>
      </trkpt>
      <trkpt lat="42.91532" lon="1.22004">
        <ele>856</ele>
        <time>2026-05-25T11:59:39.000Z</time>
      </trkpt>
      <trkpt lat="42.91532" lon="1.22004">
        <ele>855</ele>
        <time>2026-05-25T11:59:40.000Z</time>
      </trkpt>
      <trkpt lat="42.91532" lon="1.22004">
        <ele>855</ele>
        <time>2026-05-25T11:59:41.000Z</time>
      </trkpt>
      <trkpt lat="42.91532" lon="1.22004">
        <ele>855</ele>
        <time>2026-05-25T11:59:42.000Z</time>
      </trkpt>
      <trkpt lat="42.91532" lon="1.22003">
        <ele>854</ele>
        <time>2026-05-25T11:59:43.000Z</time>
      </trkpt>
      <trkpt lat="42.91532" lon="1.22004">
        <ele>853</ele>
        <time>2026-05-25T11:59:44.000Z</time>
      </trkpt>
      <trkpt lat="42.91531" lon="1.22004">
        <ele>852</ele>
        <time>2026-05-25T11:59:45.000Z</time>
      </trkpt>
      <trkpt lat="42.91531" lon="1.22005">
        <ele>852</ele>
        <time>2026-05-25T11:59:46.000Z</time>
      </trkpt>
      <trkpt lat="42.91531" lon="1.22006">
        <ele>851</ele>
        <time>2026-05-25T11:59:47.000Z</time>
      </trkpt>
      <trkpt lat="42.91531" lon="1.22007">
        <ele>849</ele>
        <time>2026-05-25T11:59:48.000Z</time>
      </trkpt>
      <trkpt lat="42.91531" lon="1.22007">
        <ele>849</ele>
        <time>2026-05-25T11:59:49.000Z</time>
      </trkpt>
      <trkpt lat="42.9153" lon="1.22007">
        <ele>849</ele>
        <time>2026-05-25T11:59:50.000Z</time>
      </trkpt>
      <trkpt lat="42.9153" lon="1.22007">
        <ele>848</ele>
        <time>2026-05-25T11:59:51.000Z</time>
      </trkpt>
      <trkpt lat="42.9153" lon="1.22007">
        <ele>848</ele>
        <time>2026-05-25T11:59:52.000Z</time>
      </trkpt>
      <trkpt lat="42.9153" lon="1.22007">
        <ele>847</ele>
        <time>2026-05-25T11:59:53.000Z</time>
      </trkpt>
      <trkpt lat="42.9153" lon="1.22008">
        <ele>847</ele>
        <time>2026-05-25T11:59:54.000Z</time>
      </trkpt>
      <trkpt lat="42.9153" lon="1.22009">
        <ele>847</ele>
        <time>2026-05-25T11:59:55.000Z</time>
      </trkpt>
      <trkpt lat="42.9153" lon="1.2201">
        <ele>848</ele>
        <time>2026-05-25T11:59:56.000Z</time>
      </trkpt>
      <trkpt lat="42.9153" lon="1.22011">
        <ele>847</ele>
        <time>2026-05-25T11:59:57.000Z</time>
      </trkpt>
      <trkpt lat="42.91529" lon="1.22011">
        <ele>848</ele>
        <time>2026-05-25T11:59:58.000Z</time>
      </trkpt>
      <trkpt lat="42.91528" lon="1.22013">
        <ele>848</ele>
        <time>2026-05-25T11:59:59.000Z</time>
      </trkpt>
      <trkpt lat="42.91528" lon="1.22013">
        <ele>847</ele>
        <time>2026-05-25T12:00:00.000Z</time>
      </trkpt>
      <trkpt lat="42.91528" lon="1.22013">
        <ele>847</ele>
        <time>2026-05-25T12:00:01.000Z</time>
      </trkpt>
      <trkpt lat="42.91528" lon="1.22012">
        <ele>847</ele>
        <time>2026-05-25T12:00:02.000Z</time>
      </trkpt>
      <trkpt lat="42.91528" lon="1.22013">
        <ele>847</ele>
        <time>2026-05-25T12:00:03.000Z</time>
      </trkpt>
      <trkpt lat="42.91528" lon="1.22013">
        <ele>846</ele>
        <time>2026-05-25T12:00:04.000Z</time>
      </trkpt>
      <trkpt lat="42.91528" lon="1.22013">
        <ele>847</ele>
        <time>2026-05-25T12:00:05.000Z</time>
      </trkpt>
      <trkpt lat="42.91528" lon="1.22013">
        <ele>847</ele>
        <time>2026-05-25T12:00:06.000Z</time>
      </trkpt>
      <trkpt lat="42.91528" lon="1.22014">
        <ele>846</ele>
        <time>2026-05-25T12:00:07.000Z</time>
      </trkpt>
      <trkpt lat="42.91527" lon="1.22015">
        <ele>845</ele>
        <time>2026-05-25T12:00:08.000Z</time>
      </trkpt>
      <trkpt lat="42.91525" lon="1.22019">
        <ele>845</ele>
        <time>2026-05-25T12:00:09.000Z</time>
      </trkpt>
      <trkpt lat="42.91523" lon="1.22022">
        <ele>845</ele>
        <time>2026-05-25T12:00:10.000Z</time>
      </trkpt>
      <trkpt lat="42.91522" lon="1.22025">
        <ele>845</ele>
        <time>2026-05-25T12:00:11.000Z</time>
      </trkpt>
      <trkpt lat="42.91521" lon="1.22028">
        <ele>845</ele>
        <time>2026-05-25T12:00:12.000Z</time>
      </trkpt>
      <trkpt lat="42.9152" lon="1.22031">
        <ele>845</ele>
        <time>2026-05-25T12:00:13.000Z</time>
      </trkpt>
      <trkpt lat="42.91518" lon="1.22033">
        <ele>845</ele>
        <time>2026-05-25T12:00:14.000Z</time>
      </trkpt>
      <trkpt lat="42.91516" lon="1.22035">
        <ele>844</ele>
        <time>2026-05-25T12:00:15.000Z</time>
      </trkpt>
      <trkpt lat="42.91514" lon="1.22037">
        <ele>844</ele>
        <time>2026-05-25T12:00:16.000Z</time>
      </trkpt>
      <trkpt lat="42.91512" lon="1.22039">
        <ele>843</ele>
        <time>2026-05-25T12:00:17.000Z</time>
      </trkpt>
      <trkpt lat="42.9151" lon="1.22042">
        <ele>842</ele>
        <time>2026-05-25T12:00:18.000Z</time>
      </trkpt>
      <trkpt lat="42.91508" lon="1.22045">
        <ele>841</ele>
        <time>2026-05-25T12:00:19.000Z</time>
      </trkpt>
      <trkpt lat="42.91506" lon="1.22048">
        <ele>841</ele>
        <time>2026-05-25T12:00:20.000Z</time>
      </trkpt>
      <trkpt lat="42.91504" lon="1.22051">
        <ele>841</ele>
        <time>2026-05-25T12:00:21.000Z</time>
      </trkpt>
      <trkpt lat="42.91503" lon="1.22054">
        <ele>841</ele>
        <time>2026-05-25T12:00:22.000Z</time>
      </trkpt>
      <trkpt lat="42.91502" lon="1.22056">
        <ele>840</ele>
        <time>2026-05-25T12:00:23.000Z</time>
      </trkpt>
      <trkpt lat="42.91501" lon="1.22058">
        <ele>839</ele>
        <time>2026-05-25T12:00:24.000Z</time>
      </trkpt>
      <trkpt lat="42.915" lon="1.22061">
        <ele>839</ele>
        <time>2026-05-25T12:00:25.000Z</time>
      </trkpt>
      <trkpt lat="42.91498" lon="1.22063">
        <ele>838</ele>
        <time>2026-05-25T12:00:26.000Z</time>
      </trkpt>
      <trkpt lat="42.91497" lon="1.22067">
        <ele>838</ele>
        <time>2026-05-25T12:00:27.000Z</time>
      </trkpt>
      <trkpt lat="42.91494" lon="1.22069">
        <ele>837</ele>
        <time>2026-05-25T12:00:28.000Z</time>
      </trkpt>
      <trkpt lat="42.91491" lon="1.22071">
        <ele>836</ele>
        <time>2026-05-25T12:00:29.000Z</time>
      </trkpt>
      <trkpt lat="42.91489" lon="1.22074">
        <ele>835</ele>
        <time>2026-05-25T12:00:30.000Z</time>
      </trkpt>
      <trkpt lat="42.91487" lon="1.22077">
        <ele>835</ele>
        <time>2026-05-25T12:00:31.000Z</time>
      </trkpt>
      <trkpt lat="42.91484" lon="1.22079">
        <ele>834</ele>
        <time>2026-05-25T12:00:32.000Z</time>
      </trkpt>
      <trkpt lat="42.91481" lon="1.22081">
        <ele>834</ele>
        <time>2026-05-25T12:00:33.000Z</time>
      </trkpt>
      <trkpt lat="42.91478" lon="1.22083">
        <ele>833</ele>
        <time>2026-05-25T12:00:34.000Z</time>
      </trkpt>
      <trkpt lat="42.91476" lon="1.22086">
        <ele>833</ele>
        <time>2026-05-25T12:00:35.000Z</time>
      </trkpt>
      <trkpt lat="42.91474" lon="1.22089">
        <ele>832</ele>
        <time>2026-05-25T12:00:36.000Z</time>
      </trkpt>
      <trkpt lat="42.91472" lon="1.22092">
        <ele>831</ele>
        <time>2026-05-25T12:00:37.000Z</time>
      </trkpt>
      <trkpt lat="42.91471" lon="1.22096">
        <ele>830</ele>
        <time>2026-05-25T12:00:38.000Z</time>
      </trkpt>
      <trkpt lat="42.91471" lon="1.22101">
        <ele>829</ele>
        <time>2026-05-25T12:00:39.000Z</time>
      </trkpt>
      <trkpt lat="42.91471" lon="1.22106">
        <ele>828</ele>
        <time>2026-05-25T12:00:40.000Z</time>
      </trkpt>
      <trkpt lat="42.91471" lon="1.22111">
        <ele>827</ele>
        <time>2026-05-25T12:00:41.000Z</time>
      </trkpt>
      <trkpt lat="42.9147" lon="1.22116">
        <ele>825</ele>
        <time>2026-05-25T12:00:42.000Z</time>
      </trkpt>
      <trkpt lat="42.91467" lon="1.22118">
        <ele>825</ele>
        <time>2026-05-25T12:00:43.000Z</time>
      </trkpt>
      <trkpt lat="42.91464" lon="1.22121">
        <ele>824</ele>
        <time>2026-05-25T12:00:44.000Z</time>
      </trkpt>
      <trkpt lat="42.91463" lon="1.22123">
        <ele>823</ele>
        <time>2026-05-25T12:00:45.000Z</time>
      </trkpt>
      <trkpt lat="42.91462" lon="1.22124">
        <ele>823</ele>
        <time>2026-05-25T12:00:46.000Z</time>
      </trkpt>
      <trkpt lat="42.91462" lon="1.22124">
        <ele>823</ele>
        <time>2026-05-25T12:00:47.000Z</time>
      </trkpt>
      <trkpt lat="42.91462" lon="1.22123">
        <ele>822</ele>
        <time>2026-05-25T12:00:48.000Z</time>
      </trkpt>
      <trkpt lat="42.91461" lon="1.22123">
        <ele>822</ele>
        <time>2026-05-25T12:00:49.000Z</time>
      </trkpt>
      <trkpt lat="42.91461" lon="1.22123">
        <ele>822</ele>
        <time>2026-05-25T12:00:50.000Z</time>
      </trkpt>
      <trkpt lat="42.91461" lon="1.22123">
        <ele>822</ele>
        <time>2026-05-25T12:00:51.000Z</time>
      </trkpt>
      <trkpt lat="42.91462" lon="1.22123">
        <ele>822</ele>
        <time>2026-05-25T12:00:52.000Z</time>
      </trkpt>
      <trkpt lat="42.91461" lon="1.22124">
        <ele>823</ele>
        <time>2026-05-25T12:01:06.000Z</time>
      </trkpt>
      <trkpt lat="42.91461" lon="1.22124">
        <ele>822</ele>
        <time>2026-05-25T12:01:07.000Z</time>
      </trkpt>
      <trkpt lat="42.91461" lon="1.22125">
        <ele>822</ele>
        <time>2026-05-25T12:01:08.000Z</time>
      </trkpt>
      <trkpt lat="42.91461" lon="1.22125">
        <ele>822</ele>
        <time>2026-05-25T12:01:09.000Z</time>
      </trkpt>
      <trkpt lat="42.9146" lon="1.22125">
        <ele>822</ele>
        <time>2026-05-25T12:01:10.000Z</time>
      </trkpt>
      <trkpt lat="42.9146" lon="1.22125">
        <ele>822</ele>
        <time>2026-05-25T12:01:11.000Z</time>
      </trkpt>
      <trkpt lat="42.91459" lon="1.22125">
        <ele>822</ele>
        <time>2026-05-25T12:01:12.000Z</time>
      </trkpt>
      <trkpt lat="42.91459" lon="1.22125">
        <ele>822</ele>
        <time>2026-05-25T12:01:13.000Z</time>
      </trkpt>
      <trkpt lat="42.91458" lon="1.22125">
        <ele>822</ele>
        <time>2026-05-25T12:01:14.000Z</time>
      </trkpt>
      <trkpt lat="42.91457" lon="1.22126">
        <ele>821</ele>
        <time>2026-05-25T12:01:15.000Z</time>
      </trkpt>
      <trkpt lat="42.91456" lon="1.22129">
        <ele>822</ele>
        <time>2026-05-25T12:01:16.000Z</time>
      </trkpt>
      <trkpt lat="42.91455" lon="1.22131">
        <ele>822</ele>
        <time>2026-05-25T12:01:17.000Z</time>
      </trkpt>
      <trkpt lat="42.91453" lon="1.22133">
        <ele>821</ele>
        <time>2026-05-25T12:01:18.000Z</time>
      </trkpt>
      <trkpt lat="42.91451" lon="1.22134">
        <ele>821</ele>
        <time>2026-05-25T12:01:19.000Z</time>
      </trkpt>
      <trkpt lat="42.91447" lon="1.22135">
        <ele>820</ele>
        <time>2026-05-25T12:01:20.000Z</time>
      </trkpt>
      <trkpt lat="42.91444" lon="1.22135">
        <ele>820</ele>
        <time>2026-05-25T12:01:21.000Z</time>
      </trkpt>
      <trkpt lat="42.9144" lon="1.22134">
        <ele>819</ele>
        <time>2026-05-25T12:01:22.000Z</time>
      </trkpt>
      <trkpt lat="42.91436" lon="1.22133">
        <ele>819</ele>
        <time>2026-05-25T12:01:23.000Z</time>
      </trkpt>
      <trkpt lat="42.91432" lon="1.22133">
        <ele>820</ele>
        <time>2026-05-25T12:01:24.000Z</time>
      </trkpt>
      <trkpt lat="42.91428" lon="1.22133">
        <ele>820</ele>
        <time>2026-05-25T12:01:25.000Z</time>
      </trkpt>
      <trkpt lat="42.91425" lon="1.22131">
        <ele>820</ele>
        <time>2026-05-25T12:01:26.000Z</time>
      </trkpt>
      <trkpt lat="42.91422" lon="1.22128">
        <ele>820</ele>
        <time>2026-05-25T12:01:27.000Z</time>
      </trkpt>
      <trkpt lat="42.9142" lon="1.22124">
        <ele>820</ele>
        <time>2026-05-25T12:01:28.000Z</time>
      </trkpt>
      <trkpt lat="42.91418" lon="1.22118">
        <ele>820</ele>
        <time>2026-05-25T12:01:29.000Z</time>
      </trkpt>
      <trkpt lat="42.91417" lon="1.22112">
        <ele>820</ele>
        <time>2026-05-25T12:01:30.000Z</time>
      </trkpt>
      <trkpt lat="42.91415" lon="1.22107">
        <ele>820</ele>
        <time>2026-05-25T12:01:31.000Z</time>
      </trkpt>
      <trkpt lat="42.91415" lon="1.22103">
        <ele>819</ele>
        <time>2026-05-25T12:01:32.000Z</time>
      </trkpt>
      <trkpt lat="42.91413" lon="1.22101">
        <ele>819</ele>
        <time>2026-05-25T12:01:33.000Z</time>
      </trkpt>
      <trkpt lat="42.91409" lon="1.221">
        <ele>818</ele>
        <time>2026-05-25T12:01:34.000Z</time>
      </trkpt>
      <trkpt lat="42.91406" lon="1.22101">
        <ele>817</ele>
        <time>2026-05-25T12:01:35.000Z</time>
      </trkpt>
      <trkpt lat="42.914" lon="1.22103">
        <ele>816</ele>
        <time>2026-05-25T12:01:36.000Z</time>
      </trkpt>
      <trkpt lat="42.91395" lon="1.22107">
        <ele>814</ele>
        <time>2026-05-25T12:01:37.000Z</time>
      </trkpt>
      <trkpt lat="42.91389" lon="1.22111">
        <ele>813</ele>
        <time>2026-05-25T12:01:38.000Z</time>
      </trkpt>
      <trkpt lat="42.91382" lon="1.22113">
        <ele>812</ele>
        <time>2026-05-25T12:01:39.000Z</time>
      </trkpt>
      <trkpt lat="42.91372" lon="1.22114">
        <ele>810</ele>
        <time>2026-05-25T12:01:40.000Z</time>
      </trkpt>
      <trkpt lat="42.91362" lon="1.22112">
        <ele>808</ele>
        <time>2026-05-25T12:01:41.000Z</time>
      </trkpt>
      <trkpt lat="42.91351" lon="1.2211">
        <ele>806</ele>
        <time>2026-05-25T12:01:42.000Z</time>
      </trkpt>
      <trkpt lat="42.91339" lon="1.22107">
        <ele>804</ele>
        <time>2026-05-25T12:01:43.000Z</time>
      </trkpt>
      <trkpt lat="42.91328" lon="1.22104">
        <ele>803</ele>
        <time>2026-05-25T12:01:44.000Z</time>
      </trkpt>
      <trkpt lat="42.91317" lon="1.22103">
        <ele>802</ele>
        <time>2026-05-25T12:01:45.000Z</time>
      </trkpt>
      <trkpt lat="42.91307" lon="1.22101">
        <ele>802</ele>
        <time>2026-05-25T12:01:46.000Z</time>
      </trkpt>
      <trkpt lat="42.91299" lon="1.22099">
        <ele>802</ele>
        <time>2026-05-25T12:01:47.000Z</time>
      </trkpt>
      <trkpt lat="42.91292" lon="1.22098">
        <ele>801</ele>
        <time>2026-05-25T12:01:48.000Z</time>
      </trkpt>
      <trkpt lat="42.91287" lon="1.22097">
        <ele>802</ele>
        <time>2026-05-25T12:01:49.000Z</time>
      </trkpt>
      <trkpt lat="42.91282" lon="1.22098">
        <ele>801</ele>
        <time>2026-05-25T12:01:50.000Z</time>
      </trkpt>
      <trkpt lat="42.91278" lon="1.22102">
        <ele>801</ele>
        <time>2026-05-25T12:01:51.000Z</time>
      </trkpt>
      <trkpt lat="42.91276" lon="1.22106">
        <ele>801</ele>
        <time>2026-05-25T12:01:52.000Z</time>
      </trkpt>
      <trkpt lat="42.91275" lon="1.22113">
        <ele>800</ele>
        <time>2026-05-25T12:01:53.000Z</time>
      </trkpt>
      <trkpt lat="42.91278" lon="1.22119">
        <ele>799</ele>
        <time>2026-05-25T12:01:54.000Z</time>
      </trkpt>
      <trkpt lat="42.91282" lon="1.22125">
        <ele>798</ele>
        <time>2026-05-25T12:01:55.000Z</time>
      </trkpt>
      <trkpt lat="42.91288" lon="1.2213">
        <ele>797</ele>
        <time>2026-05-25T12:01:56.000Z</time>
      </trkpt>
      <trkpt lat="42.91294" lon="1.22135">
        <ele>797</ele>
        <time>2026-05-25T12:01:57.000Z</time>
      </trkpt>
      <trkpt lat="42.91301" lon="1.22138">
        <ele>795</ele>
        <time>2026-05-25T12:01:58.000Z</time>
      </trkpt>
      <trkpt lat="42.91308" lon="1.22141">
        <ele>795</ele>
        <time>2026-05-25T12:01:59.000Z</time>
      </trkpt>
      <trkpt lat="42.91316" lon="1.22142">
        <ele>794</ele>
        <time>2026-05-25T12:02:00.000Z</time>
      </trkpt>
      <trkpt lat="42.91323" lon="1.22143">
        <ele>794</ele>
        <time>2026-05-25T12:02:01.000Z</time>
      </trkpt>
      <trkpt lat="42.91328" lon="1.22149">
        <ele>793</ele>
        <time>2026-05-25T12:02:02.000Z</time>
      </trkpt>
      <trkpt lat="42.91333" lon="1.22157">
        <ele>793</ele>
        <time>2026-05-25T12:02:03.000Z</time>
      </trkpt>
      <trkpt lat="42.91338" lon="1.22167">
        <ele>792</ele>
        <time>2026-05-25T12:02:04.000Z</time>
      </trkpt>
      <trkpt lat="42.91343" lon="1.22177">
        <ele>790</ele>
        <time>2026-05-25T12:02:05.000Z</time>
      </trkpt>
      <trkpt lat="42.9135" lon="1.22188">
        <ele>789</ele>
        <time>2026-05-25T12:02:06.000Z</time>
      </trkpt>
      <trkpt lat="42.91356" lon="1.22199">
        <ele>787</ele>
        <time>2026-05-25T12:02:07.000Z</time>
      </trkpt>
      <trkpt lat="42.91361" lon="1.22211">
        <ele>786</ele>
        <time>2026-05-25T12:02:08.000Z</time>
      </trkpt>
      <trkpt lat="42.91365" lon="1.22224">
        <ele>785</ele>
        <time>2026-05-25T12:02:09.000Z</time>
      </trkpt>
      <trkpt lat="42.91368" lon="1.22237">
        <ele>784</ele>
        <time>2026-05-25T12:02:10.000Z</time>
      </trkpt>
      <trkpt lat="42.91371" lon="1.22247">
        <ele>783</ele>
        <time>2026-05-25T12:02:11.000Z</time>
      </trkpt>
      <trkpt lat="42.91373" lon="1.22256">
        <ele>783</ele>
        <time>2026-05-25T12:02:12.000Z</time>
      </trkpt>
      <trkpt lat="42.91375" lon="1.22263">
        <ele>782</ele>
        <time>2026-05-25T12:02:13.000Z</time>
      </trkpt>
      <trkpt lat="42.91377" lon="1.22269">
        <ele>781</ele>
        <time>2026-05-25T12:02:14.000Z</time>
      </trkpt>
      <trkpt lat="42.91381" lon="1.22274">
        <ele>781</ele>
        <time>2026-05-25T12:02:15.000Z</time>
      </trkpt>
      <trkpt lat="42.91383" lon="1.22278">
        <ele>780</ele>
        <time>2026-05-25T12:02:16.000Z</time>
      </trkpt>
      <trkpt lat="42.91384" lon="1.22281">
        <ele>779</ele>
        <time>2026-05-25T12:02:17.000Z</time>
      </trkpt>
      <trkpt lat="42.91382" lon="1.22285">
        <ele>779</ele>
        <time>2026-05-25T12:02:18.000Z</time>
      </trkpt>
      <trkpt lat="42.91378" lon="1.22287">
        <ele>779</ele>
        <time>2026-05-25T12:02:19.000Z</time>
      </trkpt>
      <trkpt lat="42.91373" lon="1.22285">
        <ele>778</ele>
        <time>2026-05-25T12:02:20.000Z</time>
      </trkpt>
      <trkpt lat="42.9137" lon="1.2228">
        <ele>778</ele>
        <time>2026-05-25T12:02:21.000Z</time>
      </trkpt>
      <trkpt lat="42.91367" lon="1.22275">
        <ele>777</ele>
        <time>2026-05-25T12:02:22.000Z</time>
      </trkpt>
      <trkpt lat="42.91363" lon="1.22269">
        <ele>776</ele>
        <time>2026-05-25T12:02:23.000Z</time>
      </trkpt>
      <trkpt lat="42.9136" lon="1.22262">
        <ele>775</ele>
        <time>2026-05-25T12:02:24.000Z</time>
      </trkpt>
      <trkpt lat="42.91356" lon="1.22255">
        <ele>774</ele>
        <time>2026-05-25T12:02:25.000Z</time>
      </trkpt>
      <trkpt lat="42.91352" lon="1.22248">
        <ele>774</ele>
        <time>2026-05-25T12:02:26.000Z</time>
      </trkpt>
      <trkpt lat="42.91346" lon="1.22241">
        <ele>773</ele>
        <time>2026-05-25T12:02:27.000Z</time>
      </trkpt>
      <trkpt lat="42.91339" lon="1.22234">
        <ele>772</ele>
        <time>2026-05-25T12:02:28.000Z</time>
      </trkpt>
      <trkpt lat="42.91332" lon="1.22228">
        <ele>772</ele>
        <time>2026-05-25T12:02:29.000Z</time>
      </trkpt>
      <trkpt lat="42.91324" lon="1.22223">
        <ele>771</ele>
        <time>2026-05-25T12:02:30.000Z</time>
      </trkpt>
      <trkpt lat="42.91315" lon="1.22219">
        <ele>770</ele>
        <time>2026-05-25T12:02:31.000Z</time>
      </trkpt>
      <trkpt lat="42.91306" lon="1.22219">
        <ele>769</ele>
        <time>2026-05-25T12:02:32.000Z</time>
      </trkpt>
      <trkpt lat="42.91296" lon="1.2222">
        <ele>768</ele>
        <time>2026-05-25T12:02:33.000Z</time>
      </trkpt>
      <trkpt lat="42.91286" lon="1.22222">
        <ele>768</ele>
        <time>2026-05-25T12:02:34.000Z</time>
      </trkpt>
      <trkpt lat="42.91277" lon="1.22225">
        <ele>766</ele>
        <time>2026-05-25T12:02:35.000Z</time>
      </trkpt>
      <trkpt lat="42.91268" lon="1.22228">
        <ele>765</ele>
        <time>2026-05-25T12:02:36.000Z</time>
      </trkpt>
      <trkpt lat="42.91259" lon="1.22231">
        <ele>764</ele>
        <time>2026-05-25T12:02:37.000Z</time>
      </trkpt>
      <trkpt lat="42.9125" lon="1.22235">
        <ele>764</ele>
        <time>2026-05-25T12:02:38.000Z</time>
      </trkpt>
      <trkpt lat="42.91242" lon="1.2224">
        <ele>763</ele>
        <time>2026-05-25T12:02:39.000Z</time>
      </trkpt>
      <trkpt lat="42.91235" lon="1.22244">
        <ele>763</ele>
        <time>2026-05-25T12:02:40.000Z</time>
      </trkpt>
      <trkpt lat="42.91228" lon="1.2225">
        <ele>762</ele>
        <time>2026-05-25T12:02:41.000Z</time>
      </trkpt>
      <trkpt lat="42.91222" lon="1.22256">
        <ele>761</ele>
        <time>2026-05-25T12:02:42.000Z</time>
      </trkpt>
      <trkpt lat="42.91216" lon="1.22261">
        <ele>759</ele>
        <time>2026-05-25T12:02:43.000Z</time>
      </trkpt>
      <trkpt lat="42.9121" lon="1.22267">
        <ele>757</ele>
        <time>2026-05-25T12:02:44.000Z</time>
      </trkpt>
      <trkpt lat="42.91204" lon="1.22272">
        <ele>756</ele>
        <time>2026-05-25T12:02:45.000Z</time>
      </trkpt>
      <trkpt lat="42.912" lon="1.22276">
        <ele>755</ele>
        <time>2026-05-25T12:02:46.000Z</time>
      </trkpt>
      <trkpt lat="42.91195" lon="1.22281">
        <ele>754</ele>
        <time>2026-05-25T12:02:47.000Z</time>
      </trkpt>
      <trkpt lat="42.91188" lon="1.22289">
        <ele>752</ele>
        <time>2026-05-25T12:02:48.000Z</time>
      </trkpt>
      <trkpt lat="42.91182" lon="1.22297">
        <ele>750</ele>
        <time>2026-05-25T12:02:49.000Z</time>
      </trkpt>
      <trkpt lat="42.91177" lon="1.22305">
        <ele>748</ele>
        <time>2026-05-25T12:02:50.000Z</time>
      </trkpt>
      <trkpt lat="42.91171" lon="1.22311">
        <ele>747</ele>
        <time>2026-05-25T12:02:51.000Z</time>
      </trkpt>
      <trkpt lat="42.91166" lon="1.22318">
        <ele>745</ele>
        <time>2026-05-25T12:02:52.000Z</time>
      </trkpt>
      <trkpt lat="42.9116" lon="1.22325">
        <ele>743</ele>
        <time>2026-05-25T12:02:53.000Z</time>
      </trkpt>
      <trkpt lat="42.91155" lon="1.22332">
        <ele>742</ele>
        <time>2026-05-25T12:02:54.000Z</time>
      </trkpt>
      <trkpt lat="42.91149" lon="1.22338">
        <ele>741</ele>
        <time>2026-05-25T12:02:55.000Z</time>
      </trkpt>
      <trkpt lat="42.91144" lon="1.22344">
        <ele>740</ele>
        <time>2026-05-25T12:02:56.000Z</time>
      </trkpt>
      <trkpt lat="42.9114" lon="1.22349">
        <ele>740</ele>
        <time>2026-05-25T12:02:57.000Z</time>
      </trkpt>
      <trkpt lat="42.91136" lon="1.22355">
        <ele>740</ele>
        <time>2026-05-25T12:02:58.000Z</time>
      </trkpt>
      <trkpt lat="42.91134" lon="1.22364">
        <ele>739</ele>
        <time>2026-05-25T12:02:59.000Z</time>
      </trkpt>
      <trkpt lat="42.91133" lon="1.22373">
        <ele>738</ele>
        <time>2026-05-25T12:03:00.000Z</time>
      </trkpt>
      <trkpt lat="42.91131" lon="1.2238">
        <ele>737</ele>
        <time>2026-05-25T12:03:01.000Z</time>
      </trkpt>
      <trkpt lat="42.91129" lon="1.22387">
        <ele>735</ele>
        <time>2026-05-25T12:03:02.000Z</time>
      </trkpt>
      <trkpt lat="42.91128" lon="1.22394">
        <ele>734</ele>
        <time>2026-05-25T12:03:03.000Z</time>
      </trkpt>
      <trkpt lat="42.91129" lon="1.224">
        <ele>734</ele>
        <time>2026-05-25T12:03:04.000Z</time>
      </trkpt>
      <trkpt lat="42.91128" lon="1.22407">
        <ele>734</ele>
        <time>2026-05-25T12:03:05.000Z</time>
      </trkpt>
      <trkpt lat="42.91127" lon="1.22413">
        <ele>733</ele>
        <time>2026-05-25T12:03:06.000Z</time>
      </trkpt>
      <trkpt lat="42.91127" lon="1.22418">
        <ele>733</ele>
        <time>2026-05-25T12:03:07.000Z</time>
      </trkpt>
      <trkpt lat="42.91126" lon="1.22424">
        <ele>732</ele>
        <time>2026-05-25T12:03:08.000Z</time>
      </trkpt>
      <trkpt lat="42.91124" lon="1.22429">
        <ele>732</ele>
        <time>2026-05-25T12:03:09.000Z</time>
      </trkpt>
      <trkpt lat="42.91121" lon="1.22434">
        <ele>731</ele>
        <time>2026-05-25T12:03:10.000Z</time>
      </trkpt>
      <trkpt lat="42.91118" lon="1.22439">
        <ele>730</ele>
        <time>2026-05-25T12:03:11.000Z</time>
      </trkpt>
      <trkpt lat="42.91114" lon="1.22444">
        <ele>730</ele>
        <time>2026-05-25T12:03:12.000Z</time>
      </trkpt>
      <trkpt lat="42.91109" lon="1.22447">
        <ele>728</ele>
        <time>2026-05-25T12:03:13.000Z</time>
      </trkpt>
      <trkpt lat="42.91105" lon="1.2245">
        <ele>726</ele>
        <time>2026-05-25T12:03:14.000Z</time>
      </trkpt>
      <trkpt lat="42.91102" lon="1.22453">
        <ele>726</ele>
        <time>2026-05-25T12:03:15.000Z</time>
      </trkpt>
      <trkpt lat="42.91101" lon="1.22458">
        <ele>724</ele>
        <time>2026-05-25T12:03:16.000Z</time>
      </trkpt>
      <trkpt lat="42.91105" lon="1.22463">
        <ele>724</ele>
        <time>2026-05-25T12:03:17.000Z</time>
      </trkpt>
      <trkpt lat="42.91109" lon="1.22468">
        <ele>724</ele>
        <time>2026-05-25T12:03:18.000Z</time>
      </trkpt>
      <trkpt lat="42.91114" lon="1.22472">
        <ele>723</ele>
        <time>2026-05-25T12:03:19.000Z</time>
      </trkpt>
      <trkpt lat="42.9112" lon="1.22477">
        <ele>723</ele>
        <time>2026-05-25T12:03:20.000Z</time>
      </trkpt>
      <trkpt lat="42.91126" lon="1.22481">
        <ele>722</ele>
        <time>2026-05-25T12:03:21.000Z</time>
      </trkpt>
      <trkpt lat="42.91132" lon="1.22483">
        <ele>722</ele>
        <time>2026-05-25T12:03:22.000Z</time>
      </trkpt>
      <trkpt lat="42.91138" lon="1.22484">
        <ele>721</ele>
        <time>2026-05-25T12:03:23.000Z</time>
      </trkpt>
      <trkpt lat="42.91144" lon="1.22484">
        <ele>720</ele>
        <time>2026-05-25T12:03:24.000Z</time>
      </trkpt>
      <trkpt lat="42.91151" lon="1.22484">
        <ele>719</ele>
        <time>2026-05-25T12:03:25.000Z</time>
      </trkpt>
      <trkpt lat="42.91158" lon="1.22483">
        <ele>718</ele>
        <time>2026-05-25T12:03:26.000Z</time>
      </trkpt>
      <trkpt lat="42.91165" lon="1.22483">
        <ele>717</ele>
        <time>2026-05-25T12:03:27.000Z</time>
      </trkpt>
      <trkpt lat="42.91173" lon="1.22483">
        <ele>717</ele>
        <time>2026-05-25T12:03:28.000Z</time>
      </trkpt>
      <trkpt lat="42.9118" lon="1.22482">
        <ele>716</ele>
        <time>2026-05-25T12:03:29.000Z</time>
      </trkpt>
      <trkpt lat="42.91187" lon="1.2248">
        <ele>716</ele>
        <time>2026-05-25T12:03:30.000Z</time>
      </trkpt>
      <trkpt lat="42.91195" lon="1.22478">
        <ele>715</ele>
        <time>2026-05-25T12:03:31.000Z</time>
      </trkpt>
      <trkpt lat="42.91202" lon="1.22476">
        <ele>715</ele>
        <time>2026-05-25T12:03:32.000Z</time>
      </trkpt>
      <trkpt lat="42.91209" lon="1.22476">
        <ele>715</ele>
        <time>2026-05-25T12:03:33.000Z</time>
      </trkpt>
      <trkpt lat="42.91217" lon="1.22475">
        <ele>715</ele>
        <time>2026-05-25T12:03:34.000Z</time>
      </trkpt>
      <trkpt lat="42.91224" lon="1.22474">
        <ele>715</ele>
        <time>2026-05-25T12:03:35.000Z</time>
      </trkpt>
      <trkpt lat="42.91231" lon="1.22473">
        <ele>715</ele>
        <time>2026-05-25T12:03:36.000Z</time>
      </trkpt>
      <trkpt lat="42.91239" lon="1.22475">
        <ele>714</ele>
        <time>2026-05-25T12:03:37.000Z</time>
      </trkpt>
      <trkpt lat="42.91246" lon="1.22477">
        <ele>713</ele>
        <time>2026-05-25T12:03:38.000Z</time>
      </trkpt>
      <trkpt lat="42.91252" lon="1.22483">
        <ele>712</ele>
        <time>2026-05-25T12:03:39.000Z</time>
      </trkpt>
      <trkpt lat="42.91258" lon="1.22489">
        <ele>712</ele>
        <time>2026-05-25T12:03:40.000Z</time>
      </trkpt>
      <trkpt lat="42.91263" lon="1.22496">
        <ele>711</ele>
        <time>2026-05-25T12:03:41.000Z</time>
      </trkpt>
      <trkpt lat="42.91268" lon="1.22504">
        <ele>711</ele>
        <time>2026-05-25T12:03:42.000Z</time>
      </trkpt>
      <trkpt lat="42.91272" lon="1.22511">
        <ele>711</ele>
        <time>2026-05-25T12:03:43.000Z</time>
      </trkpt>
      <trkpt lat="42.91277" lon="1.22518">
        <ele>710</ele>
        <time>2026-05-25T12:03:44.000Z</time>
      </trkpt>
      <trkpt lat="42.91281" lon="1.22526">
        <ele>709</ele>
        <time>2026-05-25T12:03:45.000Z</time>
      </trkpt>
      <trkpt lat="42.91285" lon="1.22534">
        <ele>710</ele>
        <time>2026-05-25T12:03:46.000Z</time>
      </trkpt>
      <trkpt lat="42.91291" lon="1.2254">
        <ele>709</ele>
        <time>2026-05-25T12:03:47.000Z</time>
      </trkpt>
      <trkpt lat="42.91297" lon="1.22545">
        <ele>709</ele>
        <time>2026-05-25T12:03:48.000Z</time>
      </trkpt>
      <trkpt lat="42.91303" lon="1.2255">
        <ele>708</ele>
        <time>2026-05-25T12:03:49.000Z</time>
      </trkpt>
      <trkpt lat="42.9131" lon="1.22554">
        <ele>708</ele>
        <time>2026-05-25T12:03:50.000Z</time>
      </trkpt>
      <trkpt lat="42.91317" lon="1.22557">
        <ele>707</ele>
        <time>2026-05-25T12:03:51.000Z</time>
      </trkpt>
      <trkpt lat="42.91323" lon="1.2256">
        <ele>707</ele>
        <time>2026-05-25T12:03:52.000Z</time>
      </trkpt>
      <trkpt lat="42.91331" lon="1.22562">
        <ele>706</ele>
        <time>2026-05-25T12:03:53.000Z</time>
      </trkpt>
      <trkpt lat="42.91338" lon="1.22563">
        <ele>706</ele>
        <time>2026-05-25T12:03:54.000Z</time>
      </trkpt>
      <trkpt lat="42.91346" lon="1.22565">
        <ele>705</ele>
        <time>2026-05-25T12:03:55.000Z</time>
      </trkpt>
      <trkpt lat="42.91353" lon="1.22568">
        <ele>705</ele>
        <time>2026-05-25T12:03:56.000Z</time>
      </trkpt>
      <trkpt lat="42.91361" lon="1.22569">
        <ele>704</ele>
        <time>2026-05-25T12:03:57.000Z</time>
      </trkpt>
      <trkpt lat="42.91369" lon="1.22572">
        <ele>703</ele>
        <time>2026-05-25T12:03:58.000Z</time>
      </trkpt>
      <trkpt lat="42.91376" lon="1.22575">
        <ele>703</ele>
        <time>2026-05-25T12:03:59.000Z</time>
      </trkpt>
      <trkpt lat="42.91383" lon="1.22579">
        <ele>702</ele>
        <time>2026-05-25T12:04:00.000Z</time>
      </trkpt>
      <trkpt lat="42.9139" lon="1.22583">
        <ele>702</ele>
        <time>2026-05-25T12:04:01.000Z</time>
      </trkpt>
      <trkpt lat="42.91397" lon="1.2259">
        <ele>702</ele>
        <time>2026-05-25T12:04:02.000Z</time>
      </trkpt>
      <trkpt lat="42.91402" lon="1.22596">
        <ele>702</ele>
        <time>2026-05-25T12:04:03.000Z</time>
      </trkpt>
      <trkpt lat="42.91408" lon="1.22603">
        <ele>702</ele>
        <time>2026-05-25T12:04:04.000Z</time>
      </trkpt>
      <trkpt lat="42.91414" lon="1.2261">
        <ele>701</ele>
        <time>2026-05-25T12:04:05.000Z</time>
      </trkpt>
      <trkpt lat="42.91419" lon="1.22619">
        <ele>701</ele>
        <time>2026-05-25T12:04:06.000Z</time>
      </trkpt>
      <trkpt lat="42.91424" lon="1.22628">
        <ele>701</ele>
        <time>2026-05-25T12:04:07.000Z</time>
      </trkpt>
      <trkpt lat="42.91428" lon="1.22638">
        <ele>700</ele>
        <time>2026-05-25T12:04:08.000Z</time>
      </trkpt>
      <trkpt lat="42.91432" lon="1.22648">
        <ele>700</ele>
        <time>2026-05-25T12:04:09.000Z</time>
      </trkpt>
      <trkpt lat="42.91436" lon="1.22657">
        <ele>699</ele>
        <time>2026-05-25T12:04:10.000Z</time>
      </trkpt>
      <trkpt lat="42.9144" lon="1.22667">
        <ele>699</ele>
        <time>2026-05-25T12:04:11.000Z</time>
      </trkpt>
      <trkpt lat="42.91444" lon="1.22676">
        <ele>698</ele>
        <time>2026-05-25T12:04:12.000Z</time>
      </trkpt>
      <trkpt lat="42.91448" lon="1.22685">
        <ele>698</ele>
        <time>2026-05-25T12:04:13.000Z</time>
      </trkpt>
      <trkpt lat="42.91452" lon="1.22694">
        <ele>697</ele>
        <time>2026-05-25T12:04:14.000Z</time>
      </trkpt>
      <trkpt lat="42.91456" lon="1.22703">
        <ele>697</ele>
        <time>2026-05-25T12:04:15.000Z</time>
      </trkpt>
      <trkpt lat="42.91459" lon="1.22711">
        <ele>697</ele>
        <time>2026-05-25T12:04:16.000Z</time>
      </trkpt>
      <trkpt lat="42.91463" lon="1.2272">
        <ele>696</ele>
        <time>2026-05-25T12:04:17.000Z</time>
      </trkpt>
      <trkpt lat="42.91466" lon="1.22728">
        <ele>696</ele>
        <time>2026-05-25T12:04:18.000Z</time>
      </trkpt>
      <trkpt lat="42.9147" lon="1.22736">
        <ele>696</ele>
        <time>2026-05-25T12:04:19.000Z</time>
      </trkpt>
      <trkpt lat="42.91473" lon="1.22744">
        <ele>696</ele>
        <time>2026-05-25T12:04:20.000Z</time>
      </trkpt>
      <trkpt lat="42.91477" lon="1.22751">
        <ele>695</ele>
        <time>2026-05-25T12:04:21.000Z</time>
      </trkpt>
      <trkpt lat="42.91481" lon="1.22759">
        <ele>695</ele>
        <time>2026-05-25T12:04:22.000Z</time>
      </trkpt>
      <trkpt lat="42.91484" lon="1.22766">
        <ele>695</ele>
        <time>2026-05-25T12:04:23.000Z</time>
      </trkpt>
      <trkpt lat="42.91487" lon="1.22774">
        <ele>695</ele>
        <time>2026-05-25T12:04:24.000Z</time>
      </trkpt>
      <trkpt lat="42.91488" lon="1.22783">
        <ele>695</ele>
        <time>2026-05-25T12:04:25.000Z</time>
      </trkpt>
      <trkpt lat="42.91489" lon="1.22792">
        <ele>695</ele>
        <time>2026-05-25T12:04:26.000Z</time>
      </trkpt>
      <trkpt lat="42.91489" lon="1.22801">
        <ele>695</ele>
        <time>2026-05-25T12:04:27.000Z</time>
      </trkpt>
      <trkpt lat="42.91488" lon="1.2281">
        <ele>695</ele>
        <time>2026-05-25T12:04:28.000Z</time>
      </trkpt>
      <trkpt lat="42.91486" lon="1.22818">
        <ele>694</ele>
        <time>2026-05-25T12:04:29.000Z</time>
      </trkpt>
      <trkpt lat="42.91483" lon="1.22826">
        <ele>694</ele>
        <time>2026-05-25T12:04:30.000Z</time>
      </trkpt>
      <trkpt lat="42.91481" lon="1.22833">
        <ele>693</ele>
        <time>2026-05-25T12:04:31.000Z</time>
      </trkpt>
      <trkpt lat="42.91477" lon="1.22839">
        <ele>693</ele>
        <time>2026-05-25T12:04:32.000Z</time>
      </trkpt>
      <trkpt lat="42.91473" lon="1.22844">
        <ele>693</ele>
        <time>2026-05-25T12:04:33.000Z</time>
      </trkpt>
      <trkpt lat="42.91468" lon="1.22849">
        <ele>693</ele>
        <time>2026-05-25T12:04:34.000Z</time>
      </trkpt>
      <trkpt lat="42.91463" lon="1.22854">
        <ele>693</ele>
        <time>2026-05-25T12:04:35.000Z</time>
      </trkpt>
      <trkpt lat="42.91459" lon="1.22859">
        <ele>693</ele>
        <time>2026-05-25T12:04:36.000Z</time>
      </trkpt>
      <trkpt lat="42.91455" lon="1.22865">
        <ele>693</ele>
        <time>2026-05-25T12:04:37.000Z</time>
      </trkpt>
      <trkpt lat="42.9145" lon="1.2287">
        <ele>692</ele>
        <time>2026-05-25T12:04:38.000Z</time>
      </trkpt>
      <trkpt lat="42.91445" lon="1.22875">
        <ele>692</ele>
        <time>2026-05-25T12:04:39.000Z</time>
      </trkpt>
      <trkpt lat="42.91441" lon="1.22879">
        <ele>691</ele>
        <time>2026-05-25T12:04:40.000Z</time>
      </trkpt>
      <trkpt lat="42.91436" lon="1.22883">
        <ele>691</ele>
        <time>2026-05-25T12:04:41.000Z</time>
      </trkpt>
      <trkpt lat="42.91433" lon="1.22888">
        <ele>691</ele>
        <time>2026-05-25T12:04:42.000Z</time>
      </trkpt>
      <trkpt lat="42.91429" lon="1.22893">
        <ele>692</ele>
        <time>2026-05-25T12:04:43.000Z</time>
      </trkpt>
      <trkpt lat="42.91426" lon="1.22898">
        <ele>693</ele>
        <time>2026-05-25T12:04:44.000Z</time>
      </trkpt>
      <trkpt lat="42.91423" lon="1.22904">
        <ele>694</ele>
        <time>2026-05-25T12:04:45.000Z</time>
      </trkpt>
      <trkpt lat="42.91422" lon="1.22911">
        <ele>694</ele>
        <time>2026-05-25T12:04:46.000Z</time>
      </trkpt>
      <trkpt lat="42.91422" lon="1.22918">
        <ele>695</ele>
        <time>2026-05-25T12:04:47.000Z</time>
      </trkpt>
      <trkpt lat="42.91421" lon="1.22926">
        <ele>695</ele>
        <time>2026-05-25T12:04:48.000Z</time>
      </trkpt>
      <trkpt lat="42.91421" lon="1.22935">
        <ele>695</ele>
        <time>2026-05-25T12:04:49.000Z</time>
      </trkpt>
      <trkpt lat="42.91419" lon="1.22942">
        <ele>695</ele>
        <time>2026-05-25T12:04:50.000Z</time>
      </trkpt>
      <trkpt lat="42.91416" lon="1.22947">
        <ele>695</ele>
        <time>2026-05-25T12:04:51.000Z</time>
      </trkpt>
      <trkpt lat="42.91414" lon="1.22951">
        <ele>694</ele>
        <time>2026-05-25T12:04:52.000Z</time>
      </trkpt>
      <trkpt lat="42.9141" lon="1.22952">
        <ele>694</ele>
        <time>2026-05-25T12:04:53.000Z</time>
      </trkpt>
      <trkpt lat="42.91408" lon="1.2295">
        <ele>695</ele>
        <time>2026-05-25T12:04:54.000Z</time>
      </trkpt>
      <trkpt lat="42.91405" lon="1.22949">
        <ele>695</ele>
        <time>2026-05-25T12:04:55.000Z</time>
      </trkpt>
      <trkpt lat="42.91402" lon="1.22946">
        <ele>695</ele>
        <time>2026-05-25T12:04:56.000Z</time>
      </trkpt>
      <trkpt lat="42.914" lon="1.22944">
        <ele>695</ele>
        <time>2026-05-25T12:04:57.000Z</time>
      </trkpt>
      <trkpt lat="42.91398" lon="1.22942">
        <ele>695</ele>
        <time>2026-05-25T12:04:58.000Z</time>
      </trkpt>
      <trkpt lat="42.91396" lon="1.2294">
        <ele>695</ele>
        <time>2026-05-25T12:04:59.000Z</time>
      </trkpt>
      <trkpt lat="42.91395" lon="1.22938">
        <ele>696</ele>
        <time>2026-05-25T12:05:00.000Z</time>
      </trkpt>
      <trkpt lat="42.91394" lon="1.22936">
        <ele>696</ele>
        <time>2026-05-25T12:05:01.000Z</time>
      </trkpt>
      <trkpt lat="42.91393" lon="1.22935">
        <ele>696</ele>
        <time>2026-05-25T12:05:02.000Z</time>
      </trkpt>
      <trkpt lat="42.91392" lon="1.22935">
        <ele>696</ele>
        <time>2026-05-25T12:05:03.000Z</time>
      </trkpt>
      <trkpt lat="42.9139" lon="1.22935">
        <ele>696</ele>
        <time>2026-05-25T12:05:04.000Z</time>
      </trkpt>
      <trkpt lat="42.91388" lon="1.22934">
        <ele>696</ele>
        <time>2026-05-25T12:05:05.000Z</time>
      </trkpt>
      <trkpt lat="42.91387" lon="1.22932">
        <ele>697</ele>
        <time>2026-05-25T12:05:06.000Z</time>
      </trkpt>
      <trkpt lat="42.91385" lon="1.22931">
        <ele>697</ele>
        <time>2026-05-25T12:05:07.000Z</time>
      </trkpt>
      <trkpt lat="42.91383" lon="1.22929">
        <ele>698</ele>
        <time>2026-05-25T12:05:08.000Z</time>
      </trkpt>
      <trkpt lat="42.91381" lon="1.22928">
        <ele>698</ele>
        <time>2026-05-25T12:05:09.000Z</time>
      </trkpt>
      <trkpt lat="42.91378" lon="1.22927">
        <ele>698</ele>
        <time>2026-05-25T12:05:10.000Z</time>
      </trkpt>
      <trkpt lat="42.91375" lon="1.22927">
        <ele>698</ele>
        <time>2026-05-25T12:05:11.000Z</time>
      </trkpt>
      <trkpt lat="42.91373" lon="1.22927">
        <ele>698</ele>
        <time>2026-05-25T12:05:12.000Z</time>
      </trkpt>
      <trkpt lat="42.91371" lon="1.22927">
        <ele>699</ele>
        <time>2026-05-25T12:05:13.000Z</time>
      </trkpt>
      <trkpt lat="42.91371" lon="1.22928">
        <ele>700</ele>
        <time>2026-05-25T12:05:14.000Z</time>
      </trkpt>
      <trkpt lat="42.9137" lon="1.22928">
        <ele>699</ele>
        <time>2026-05-25T12:05:15.000Z</time>
      </trkpt>
      <trkpt lat="42.9137" lon="1.22927">
        <ele>699</ele>
        <time>2026-05-25T12:05:16.000Z</time>
      </trkpt>
      <trkpt lat="42.91369" lon="1.22927">
        <ele>698</ele>
        <time>2026-05-25T12:05:17.000Z</time>
      </trkpt>
      <trkpt lat="42.91369" lon="1.22926">
        <ele>698</ele>
        <time>2026-05-25T12:05:18.000Z</time>
      </trkpt>
      <trkpt lat="42.91369" lon="1.22926">
        <ele>697</ele>
        <time>2026-05-25T12:05:19.000Z</time>
      </trkpt>
      <trkpt lat="42.91369" lon="1.22926">
        <ele>696</ele>
        <time>2026-05-25T12:05:20.000Z</time>
      </trkpt>
      <trkpt lat="42.91369" lon="1.22925">
        <ele>696</ele>
        <time>2026-05-25T12:05:21.000Z</time>
      </trkpt>
      <trkpt lat="42.91369" lon="1.22925">
        <ele>695</ele>
        <time>2026-05-25T12:05:22.000Z</time>
      </trkpt>
      <trkpt lat="42.91368" lon="1.22925">
        <ele>695</ele>
        <time>2026-05-25T12:05:23.000Z</time>
      </trkpt>
      <trkpt lat="42.91368" lon="1.22925">
        <ele>695</ele>
        <time>2026-05-25T12:05:24.000Z</time>
      </trkpt>
      <trkpt lat="42.91368" lon="1.22924">
        <ele>694</ele>
        <time>2026-05-25T12:05:25.000Z</time>
      </trkpt>
      <trkpt lat="42.91368" lon="1.22924">
        <ele>694</ele>
        <time>2026-05-25T12:05:26.000Z</time>
      </trkpt>
      <trkpt lat="42.91368" lon="1.22924">
        <ele>694</ele>
        <time>2026-05-25T12:05:27.000Z</time>
      </trkpt>
      <trkpt lat="42.91368" lon="1.22923">
        <ele>694</ele>
        <time>2026-05-25T12:05:28.000Z</time>
      </trkpt>
      <trkpt lat="42.91367" lon="1.22919">
        <ele>692</ele>
        <time>2026-05-25T12:05:43.000Z</time>
      </trkpt>
      <trkpt lat="42.91367" lon="1.22919">
        <ele>691</ele>
        <time>2026-05-25T12:05:44.000Z</time>
      </trkpt>
      <trkpt lat="42.91368" lon="1.22919">
        <ele>691</ele>
        <time>2026-05-25T12:05:45.000Z</time>
      </trkpt>
      <trkpt lat="42.91368" lon="1.22919">
        <ele>691</ele>
        <time>2026-05-25T12:05:46.000Z</time>
      </trkpt>
      <trkpt lat="42.91367" lon="1.22919">
        <ele>690</ele>
        <time>2026-05-25T12:05:47.000Z</time>
      </trkpt>
      <trkpt lat="42.91367" lon="1.22918">
        <ele>689</ele>
        <time>2026-05-25T12:05:48.000Z</time>
      </trkpt>
      <trkpt lat="42.91368" lon="1.22917">
        <ele>689</ele>
        <time>2026-05-25T12:05:49.000Z</time>
      </trkpt>
      <trkpt lat="42.91368" lon="1.22916">
        <ele>689</ele>
        <time>2026-05-25T12:05:50.000Z</time>
      </trkpt>
      <trkpt lat="42.91369" lon="1.22915">
        <ele>688</ele>
        <time>2026-05-25T12:05:51.000Z</time>
      </trkpt>
      <trkpt lat="42.91369" lon="1.22915">
        <ele>688</ele>
        <time>2026-05-25T12:05:52.000Z</time>
      </trkpt>
      <trkpt lat="42.91369" lon="1.22914">
        <ele>688</ele>
        <time>2026-05-25T12:05:53.000Z</time>
      </trkpt>
      <trkpt lat="42.91369" lon="1.22915">
        <ele>688</ele>
        <time>2026-05-25T12:05:54.000Z</time>
      </trkpt>
      <trkpt lat="42.91368" lon="1.22915">
        <ele>687</ele>
        <time>2026-05-25T12:05:55.000Z</time>
      </trkpt>
      <trkpt lat="42.91368" lon="1.22916">
        <ele>687</ele>
        <time>2026-05-25T12:05:56.000Z</time>
      </trkpt>
      <trkpt lat="42.91367" lon="1.22917">
        <ele>686</ele>
        <time>2026-05-25T12:05:57.000Z</time>
      </trkpt>
      <trkpt lat="42.91367" lon="1.22918">
        <ele>687</ele>
        <time>2026-05-25T12:05:58.000Z</time>
      </trkpt>
      <trkpt lat="42.91367" lon="1.22919">
        <ele>687</ele>
        <time>2026-05-25T12:05:59.000Z</time>
      </trkpt>
      <trkpt lat="42.91368" lon="1.2292">
        <ele>687</ele>
        <time>2026-05-25T12:06:00.000Z</time>
      </trkpt>
      <trkpt lat="42.91368" lon="1.22921">
        <ele>686</ele>
        <time>2026-05-25T12:06:01.000Z</time>
      </trkpt>
      <trkpt lat="42.91369" lon="1.22921">
        <ele>685</ele>
        <time>2026-05-25T12:06:02.000Z</time>
      </trkpt>
      <trkpt lat="42.91368" lon="1.22921">
        <ele>685</ele>
        <time>2026-05-25T12:06:03.000Z</time>
      </trkpt>
      <trkpt lat="42.91368" lon="1.22922">
        <ele>685</ele>
        <time>2026-05-25T12:06:04.000Z</time>
      </trkpt>
      <trkpt lat="42.91368" lon="1.22922">
        <ele>685</ele>
        <time>2026-05-25T12:06:05.000Z</time>
      </trkpt>
      <trkpt lat="42.9136" lon="1.22918">
        <ele>701</ele>
        <time>2026-05-25T12:12:06.999Z</time>
      </trkpt>
      <trkpt lat="42.91352" lon="1.22922">
        <ele>725</ele>
        <time>2026-05-25T12:12:08.005Z</time>
      </trkpt>
      <trkpt lat="42.91355" lon="1.2292">
        <ele>726</ele>
        <time>2026-05-25T12:12:10.000Z</time>
      </trkpt>
      <trkpt lat="42.91357" lon="1.2293">
        <ele>717</ele>
        <time>2026-05-25T12:12:11.004Z</time>
      </trkpt>
      <trkpt lat="42.91353" lon="1.22926">
        <ele>721</ele>
        <time>2026-05-25T12:12:12.998Z</time>
      </trkpt>
      <trkpt lat="42.91355" lon="1.22924">
        <ele>715</ele>
        <time>2026-05-25T12:12:15.000Z</time>
      </trkpt>
      <trkpt lat="42.91355" lon="1.22924">
        <ele>716</ele>
        <time>2026-05-25T12:12:16.000Z</time>
      </trkpt>
      <trkpt lat="42.91356" lon="1.22927">
        <ele>712</ele>
        <time>2026-05-25T12:12:17.000Z</time>
      </trkpt>
      <trkpt lat="42.91356" lon="1.22929">
        <ele>707</ele>
        <time>2026-05-25T12:12:18.000Z</time>
      </trkpt>
      <trkpt lat="42.91356" lon="1.22929">
        <ele>707</ele>
        <time>2026-05-25T12:12:19.000Z</time>
      </trkpt>
      <trkpt lat="42.91356" lon="1.2293">
        <ele>705</ele>
        <time>2026-05-25T12:12:20.000Z</time>
      </trkpt>
      <trkpt lat="42.91356" lon="1.2293">
        <ele>705</ele>
        <time>2026-05-25T12:12:21.000Z</time>
      </trkpt>
      <trkpt lat="42.91356" lon="1.2293">
        <ele>705</ele>
        <time>2026-05-25T12:12:22.000Z</time>
      </trkpt>
      <trkpt lat="42.91357" lon="1.22931">
        <ele>702</ele>
        <time>2026-05-25T12:12:23.000Z</time>
      </trkpt>
      <trkpt lat="42.91356" lon="1.2293">
        <ele>703</ele>
        <time>2026-05-25T12:12:24.000Z</time>
      </trkpt>
      <trkpt lat="42.91356" lon="1.22929">
        <ele>703</ele>
        <time>2026-05-25T12:12:25.000Z</time>
      </trkpt>
      <trkpt lat="42.91357" lon="1.22929">
        <ele>703</ele>
        <time>2026-05-25T12:12:26.000Z</time>
      </trkpt>
      <trkpt lat="42.91357" lon="1.22929">
        <ele>702</ele>
        <time>2026-05-25T12:12:27.000Z</time>
      </trkpt>
      <trkpt lat="42.91357" lon="1.22929">
        <ele>703</ele>
        <time>2026-05-25T12:12:28.000Z</time>
      </trkpt>
      <trkpt lat="42.91356" lon="1.22929">
        <ele>702</ele>
        <time>2026-05-25T12:12:29.000Z</time>
      </trkpt>
      <trkpt lat="42.91356" lon="1.22929">
        <ele>702</ele>
        <time>2026-05-25T12:12:30.000Z</time>
      </trkpt>
      <trkpt lat="42.91356" lon="1.22928">
        <ele>702</ele>
        <time>2026-05-25T12:12:31.000Z</time>
      </trkpt>
      <trkpt lat="42.91356" lon="1.22928">
        <ele>703</ele>
        <time>2026-05-25T12:12:32.000Z</time>
      </trkpt>
      <trkpt lat="42.91357" lon="1.22927">
        <ele>704</ele>
        <time>2026-05-25T12:12:33.000Z</time>
      </trkpt>
      <trkpt lat="42.91358" lon="1.22928">
        <ele>702</ele>
        <time>2026-05-25T12:12:34.000Z</time>
      </trkpt>
      <trkpt lat="42.91358" lon="1.22927">
        <ele>702</ele>
        <time>2026-05-25T12:12:35.000Z</time>
      </trkpt>
      <trkpt lat="42.91358" lon="1.22928">
        <ele>702</ele>
        <time>2026-05-25T12:12:36.000Z</time>
      </trkpt>
      <trkpt lat="42.91358" lon="1.22928">
        <ele>701</ele>
        <time>2026-05-25T12:12:37.000Z</time>
      </trkpt>
      <trkpt lat="42.91358" lon="1.22928">
        <ele>700</ele>
        <time>2026-05-25T12:12:38.000Z</time>
      </trkpt>
      <trkpt lat="42.91358" lon="1.22928">
        <ele>700</ele>
        <time>2026-05-25T12:12:39.000Z</time>
      </trkpt>
      <trkpt lat="42.91358" lon="1.22928">
        <ele>699</ele>
        <time>2026-05-25T12:12:40.000Z</time>
      </trkpt>
      <trkpt lat="42.91358" lon="1.22927">
        <ele>699</ele>
        <time>2026-05-25T12:12:41.000Z</time>
      </trkpt>
      <trkpt lat="42.91359" lon="1.22927">
        <ele>699</ele>
        <time>2026-05-25T12:12:42.000Z</time>
      </trkpt>
      <trkpt lat="42.9136" lon="1.22927">
        <ele>699</ele>
        <time>2026-05-25T12:12:43.000Z</time>
      </trkpt>
      <trkpt lat="42.9136" lon="1.22927">
        <ele>697</ele>
        <time>2026-05-25T12:12:44.000Z</time>
      </trkpt>
      <trkpt lat="42.91361" lon="1.22928">
        <ele>696</ele>
        <time>2026-05-25T12:12:45.000Z</time>
      </trkpt>
      <trkpt lat="42.91361" lon="1.22928">
        <ele>696</ele>
        <time>2026-05-25T12:12:46.000Z</time>
      </trkpt>
      <trkpt lat="42.91362" lon="1.22931">
        <ele>689</ele>
        <time>2026-05-25T12:18:56.000Z</time>
      </trkpt>
      <trkpt lat="42.91363" lon="1.22931">
        <ele>689</ele>
        <time>2026-05-25T12:18:57.000Z</time>
      </trkpt>
      <trkpt lat="42.91363" lon="1.22932">
        <ele>689</ele>
        <time>2026-05-25T12:18:58.000Z</time>
      </trkpt>
      <trkpt lat="42.91363" lon="1.22932">
        <ele>689</ele>
        <time>2026-05-25T12:18:59.000Z</time>
      </trkpt>
      <trkpt lat="42.91363" lon="1.22932">
        <ele>690</ele>
        <time>2026-05-25T12:19:00.000Z</time>
      </trkpt>
      <trkpt lat="42.91362" lon="1.22933">
        <ele>689</ele>
        <time>2026-05-25T12:19:01.000Z</time>
      </trkpt>
      <trkpt lat="42.91361" lon="1.22934">
        <ele>690</ele>
        <time>2026-05-25T12:19:33.000Z</time>
      </trkpt>
      <trkpt lat="42.91361" lon="1.22933">
        <ele>690</ele>
        <time>2026-05-25T12:19:34.000Z</time>
      </trkpt>
      <trkpt lat="42.91361" lon="1.22933">
        <ele>689</ele>
        <time>2026-05-25T12:19:35.000Z</time>
      </trkpt>
      <trkpt lat="42.91362" lon="1.22934">
        <ele>689</ele>
        <time>2026-05-25T12:19:36.000Z</time>
      </trkpt>
      <trkpt lat="42.91362" lon="1.22934">
        <ele>690</ele>
        <time>2026-05-25T12:19:37.000Z</time>
      </trkpt>
    </trkseg>
  </trk>
</gpx>